<?xml version="1.0" encoding="UTF-8" standalone="no" ?>
<gpx xmlns="http://www.topografix.com/GPX/1/1" xmlns:xsi="http://www.w3.org/2001/XMLSchema-instance" xsi:schemaLocation="http://www.topografix.com/GPX/1/1 http://www.topografix.com/GPX/1/1/gpx.xsd" version="1.1" creator="VisuGPX - https://www.visugpx.com">
  <metadata>
    <name>2 mai 2021 09:15:36</name>
    <desc><![CDATA[Saint Vallier de Thiey ; tour du  Défend via le Prignon et le Bois d'Amon.]]></desc>
  </metadata>
  <trk>
    <name><![CDATA[2 mai 2021 09:15:36]]></name>
    <trkseg>
      <trkpt lat="43.69184" lon="6.85381">
        <ele>718.4</ele>
        <time>2021-05-02T07:15:38.000Z</time>
      </trkpt>
      <trkpt lat="43.69183" lon="6.85382">
        <ele>719.6</ele>
        <time>2021-05-02T07:16:08.000Z</time>
      </trkpt>
      <trkpt lat="43.69182" lon="6.85381">
        <ele>719.9</ele>
        <time>2021-05-02T07:16:09.000Z</time>
      </trkpt>
      <trkpt lat="43.69181" lon="6.8538">
        <ele>720.4</ele>
        <time>2021-05-02T07:16:14.000Z</time>
      </trkpt>
      <trkpt lat="43.69181" lon="6.85379">
        <ele>720.5</ele>
        <time>2021-05-02T07:16:17.000Z</time>
      </trkpt>
      <trkpt lat="43.69187" lon="6.8538">
        <ele>722</ele>
        <time>2021-05-02T07:16:44.000Z</time>
      </trkpt>
      <trkpt lat="43.69188" lon="6.8538">
        <ele>722.9</ele>
        <time>2021-05-02T07:16:46.000Z</time>
      </trkpt>
      <trkpt lat="43.69189" lon="6.8538">
        <ele>723.6</ele>
        <time>2021-05-02T07:16:49.000Z</time>
      </trkpt>
      <trkpt lat="43.69187" lon="6.85384">
        <ele>726.2</ele>
        <time>2021-05-02T07:17:50.000Z</time>
      </trkpt>
      <trkpt lat="43.69187" lon="6.85386">
        <ele>726.3</ele>
        <time>2021-05-02T07:17:51.000Z</time>
      </trkpt>
      <trkpt lat="43.69186" lon="6.85387">
        <ele>726.4</ele>
        <time>2021-05-02T07:17:52.000Z</time>
      </trkpt>
      <trkpt lat="43.69186" lon="6.85389">
        <ele>726.3</ele>
        <time>2021-05-02T07:17:53.000Z</time>
      </trkpt>
      <trkpt lat="43.69186" lon="6.85392">
        <ele>726.3</ele>
        <time>2021-05-02T07:17:54.000Z</time>
      </trkpt>
      <trkpt lat="43.69186" lon="6.85395">
        <ele>726.2</ele>
        <time>2021-05-02T07:17:55.000Z</time>
      </trkpt>
      <trkpt lat="43.69186" lon="6.85398">
        <ele>726.2</ele>
        <time>2021-05-02T07:17:56.000Z</time>
      </trkpt>
      <trkpt lat="43.69186" lon="6.85401">
        <ele>726.1</ele>
        <time>2021-05-02T07:17:57.000Z</time>
      </trkpt>
      <trkpt lat="43.69185" lon="6.85404">
        <ele>726.1</ele>
        <time>2021-05-02T07:17:58.000Z</time>
      </trkpt>
      <trkpt lat="43.69185" lon="6.85407">
        <ele>726.3</ele>
        <time>2021-05-02T07:17:59.000Z</time>
      </trkpt>
      <trkpt lat="43.69185" lon="6.85411">
        <ele>726.4</ele>
        <time>2021-05-02T07:18:00.000Z</time>
      </trkpt>
      <trkpt lat="43.69184" lon="6.85415">
        <ele>726.4</ele>
        <time>2021-05-02T07:18:01.000Z</time>
      </trkpt>
      <trkpt lat="43.69183" lon="6.85419">
        <ele>726.3</ele>
        <time>2021-05-02T07:18:02.000Z</time>
      </trkpt>
      <trkpt lat="43.69182" lon="6.85423">
        <ele>726</ele>
        <time>2021-05-02T07:18:03.000Z</time>
      </trkpt>
      <trkpt lat="43.69181" lon="6.85427">
        <ele>726.1</ele>
        <time>2021-05-02T07:18:04.000Z</time>
      </trkpt>
      <trkpt lat="43.6918" lon="6.85431">
        <ele>726</ele>
        <time>2021-05-02T07:18:05.000Z</time>
      </trkpt>
      <trkpt lat="43.69179" lon="6.85436">
        <ele>726</ele>
        <time>2021-05-02T07:18:06.000Z</time>
      </trkpt>
      <trkpt lat="43.69178" lon="6.8544">
        <ele>725.8</ele>
        <time>2021-05-02T07:18:07.000Z</time>
      </trkpt>
      <trkpt lat="43.69177" lon="6.85444">
        <ele>725.6</ele>
        <time>2021-05-02T07:18:08.000Z</time>
      </trkpt>
      <trkpt lat="43.69176" lon="6.85448">
        <ele>725.4</ele>
        <time>2021-05-02T07:18:09.000Z</time>
      </trkpt>
      <trkpt lat="43.69175" lon="6.85452">
        <ele>725.3</ele>
        <time>2021-05-02T07:18:10.000Z</time>
      </trkpt>
      <trkpt lat="43.69174" lon="6.85457">
        <ele>725.5</ele>
        <time>2021-05-02T07:18:11.000Z</time>
      </trkpt>
      <trkpt lat="43.69174" lon="6.85461">
        <ele>725.6</ele>
        <time>2021-05-02T07:18:12.000Z</time>
      </trkpt>
      <trkpt lat="43.69173" lon="6.85465">
        <ele>725.5</ele>
        <time>2021-05-02T07:18:13.000Z</time>
      </trkpt>
      <trkpt lat="43.69172" lon="6.85469">
        <ele>725.5</ele>
        <time>2021-05-02T07:18:14.000Z</time>
      </trkpt>
      <trkpt lat="43.69172" lon="6.85473">
        <ele>725.3</ele>
        <time>2021-05-02T07:18:15.000Z</time>
      </trkpt>
      <trkpt lat="43.69171" lon="6.85476">
        <ele>725.3</ele>
        <time>2021-05-02T07:18:16.000Z</time>
      </trkpt>
      <trkpt lat="43.6917" lon="6.85479">
        <ele>725.3</ele>
        <time>2021-05-02T07:18:17.000Z</time>
      </trkpt>
      <trkpt lat="43.69168" lon="6.85481">
        <ele>725.5</ele>
        <time>2021-05-02T07:18:18.000Z</time>
      </trkpt>
      <trkpt lat="43.69166" lon="6.85483">
        <ele>726.1</ele>
        <time>2021-05-02T07:18:19.000Z</time>
      </trkpt>
      <trkpt lat="43.69164" lon="6.85482">
        <ele>726.7</ele>
        <time>2021-05-02T07:18:20.000Z</time>
      </trkpt>
      <trkpt lat="43.69161" lon="6.85482">
        <ele>726.9</ele>
        <time>2021-05-02T07:18:21.000Z</time>
      </trkpt>
      <trkpt lat="43.69158" lon="6.85482">
        <ele>727.7</ele>
        <time>2021-05-02T07:18:22.000Z</time>
      </trkpt>
      <trkpt lat="43.69156" lon="6.85482">
        <ele>727.8</ele>
        <time>2021-05-02T07:18:23.000Z</time>
      </trkpt>
      <trkpt lat="43.69153" lon="6.85482">
        <ele>728.2</ele>
        <time>2021-05-02T07:18:24.000Z</time>
      </trkpt>
      <trkpt lat="43.6915" lon="6.85482">
        <ele>729.2</ele>
        <time>2021-05-02T07:18:25.000Z</time>
      </trkpt>
      <trkpt lat="43.69146" lon="6.85482">
        <ele>729.4</ele>
        <time>2021-05-02T07:18:26.000Z</time>
      </trkpt>
      <trkpt lat="43.69144" lon="6.85482">
        <ele>729.4</ele>
        <time>2021-05-02T07:18:27.000Z</time>
      </trkpt>
      <trkpt lat="43.69141" lon="6.85483">
        <ele>729.8</ele>
        <time>2021-05-02T07:18:28.000Z</time>
      </trkpt>
      <trkpt lat="43.69138" lon="6.85484">
        <ele>730</ele>
        <time>2021-05-02T07:18:29.000Z</time>
      </trkpt>
      <trkpt lat="43.69135" lon="6.85485">
        <ele>729.9</ele>
        <time>2021-05-02T07:18:30.000Z</time>
      </trkpt>
      <trkpt lat="43.69133" lon="6.85485">
        <ele>730</ele>
        <time>2021-05-02T07:18:31.000Z</time>
      </trkpt>
      <trkpt lat="43.6913" lon="6.85486">
        <ele>730</ele>
        <time>2021-05-02T07:18:32.000Z</time>
      </trkpt>
      <trkpt lat="43.69128" lon="6.85488">
        <ele>730.1</ele>
        <time>2021-05-02T07:18:33.000Z</time>
      </trkpt>
      <trkpt lat="43.69126" lon="6.85489">
        <ele>730.1</ele>
        <time>2021-05-02T07:18:34.000Z</time>
      </trkpt>
      <trkpt lat="43.69124" lon="6.8549">
        <ele>730</ele>
        <time>2021-05-02T07:18:35.000Z</time>
      </trkpt>
      <trkpt lat="43.69122" lon="6.85491">
        <ele>729.7</ele>
        <time>2021-05-02T07:18:36.000Z</time>
      </trkpt>
      <trkpt lat="43.69119" lon="6.85491">
        <ele>729.3</ele>
        <time>2021-05-02T07:18:37.000Z</time>
      </trkpt>
      <trkpt lat="43.69116" lon="6.85491">
        <ele>729.2</ele>
        <time>2021-05-02T07:18:38.000Z</time>
      </trkpt>
      <trkpt lat="43.69114" lon="6.8549">
        <ele>729</ele>
        <time>2021-05-02T07:18:39.000Z</time>
      </trkpt>
      <trkpt lat="43.69111" lon="6.85489">
        <ele>729.2</ele>
        <time>2021-05-02T07:18:40.000Z</time>
      </trkpt>
      <trkpt lat="43.69109" lon="6.85487">
        <ele>729.2</ele>
        <time>2021-05-02T07:18:41.000Z</time>
      </trkpt>
      <trkpt lat="43.69107" lon="6.85486">
        <ele>729</ele>
        <time>2021-05-02T07:18:42.000Z</time>
      </trkpt>
      <trkpt lat="43.69105" lon="6.85485">
        <ele>729.4</ele>
        <time>2021-05-02T07:18:43.000Z</time>
      </trkpt>
      <trkpt lat="43.69102" lon="6.85484">
        <ele>729.7</ele>
        <time>2021-05-02T07:18:44.000Z</time>
      </trkpt>
      <trkpt lat="43.691" lon="6.85483">
        <ele>730.3</ele>
        <time>2021-05-02T07:18:45.000Z</time>
      </trkpt>
      <trkpt lat="43.69098" lon="6.85481">
        <ele>730.9</ele>
        <time>2021-05-02T07:18:46.000Z</time>
      </trkpt>
      <trkpt lat="43.69096" lon="6.8548">
        <ele>731.4</ele>
        <time>2021-05-02T07:18:47.000Z</time>
      </trkpt>
      <trkpt lat="43.69094" lon="6.85479">
        <ele>732.3</ele>
        <time>2021-05-02T07:18:48.000Z</time>
      </trkpt>
      <trkpt lat="43.69092" lon="6.85477">
        <ele>732.3</ele>
        <time>2021-05-02T07:18:49.000Z</time>
      </trkpt>
      <trkpt lat="43.6909" lon="6.85475">
        <ele>732.8</ele>
        <time>2021-05-02T07:18:50.000Z</time>
      </trkpt>
      <trkpt lat="43.69089" lon="6.85472">
        <ele>732.9</ele>
        <time>2021-05-02T07:18:51.000Z</time>
      </trkpt>
      <trkpt lat="43.69088" lon="6.85468">
        <ele>733.1</ele>
        <time>2021-05-02T07:18:52.000Z</time>
      </trkpt>
      <trkpt lat="43.69087" lon="6.85465">
        <ele>733.4</ele>
        <time>2021-05-02T07:18:53.000Z</time>
      </trkpt>
      <trkpt lat="43.69086" lon="6.85461">
        <ele>733.6</ele>
        <time>2021-05-02T07:18:54.000Z</time>
      </trkpt>
      <trkpt lat="43.69086" lon="6.85457">
        <ele>733.4</ele>
        <time>2021-05-02T07:18:55.000Z</time>
      </trkpt>
      <trkpt lat="43.69085" lon="6.85454">
        <ele>732.4</ele>
        <time>2021-05-02T07:18:56.000Z</time>
      </trkpt>
      <trkpt lat="43.69084" lon="6.85451">
        <ele>731.8</ele>
        <time>2021-05-02T07:18:57.000Z</time>
      </trkpt>
      <trkpt lat="43.69083" lon="6.85447">
        <ele>731.5</ele>
        <time>2021-05-02T07:18:58.000Z</time>
      </trkpt>
      <trkpt lat="43.6908" lon="6.85444">
        <ele>730.7</ele>
        <time>2021-05-02T07:18:59.000Z</time>
      </trkpt>
      <trkpt lat="43.69078" lon="6.85441">
        <ele>730.4</ele>
        <time>2021-05-02T07:19:00.000Z</time>
      </trkpt>
      <trkpt lat="43.69076" lon="6.85438">
        <ele>729.9</ele>
        <time>2021-05-02T07:19:01.000Z</time>
      </trkpt>
      <trkpt lat="43.69073" lon="6.85435">
        <ele>729.4</ele>
        <time>2021-05-02T07:19:02.000Z</time>
      </trkpt>
      <trkpt lat="43.69069" lon="6.85431">
        <ele>728.8</ele>
        <time>2021-05-02T07:19:03.000Z</time>
      </trkpt>
      <trkpt lat="43.69066" lon="6.85428">
        <ele>728.3</ele>
        <time>2021-05-02T07:19:04.000Z</time>
      </trkpt>
      <trkpt lat="43.69062" lon="6.85424">
        <ele>727.6</ele>
        <time>2021-05-02T07:19:05.000Z</time>
      </trkpt>
      <trkpt lat="43.69057" lon="6.85421">
        <ele>727.2</ele>
        <time>2021-05-02T07:19:06.000Z</time>
      </trkpt>
      <trkpt lat="43.69052" lon="6.85417">
        <ele>726.6</ele>
        <time>2021-05-02T07:19:07.000Z</time>
      </trkpt>
      <trkpt lat="43.69047" lon="6.85413">
        <ele>725.7</ele>
        <time>2021-05-02T07:19:08.000Z</time>
      </trkpt>
      <trkpt lat="43.69041" lon="6.8541">
        <ele>725</ele>
        <time>2021-05-02T07:19:09.000Z</time>
      </trkpt>
      <trkpt lat="43.69036" lon="6.85408">
        <ele>724.3</ele>
        <time>2021-05-02T07:19:10.000Z</time>
      </trkpt>
      <trkpt lat="43.6903" lon="6.85407">
        <ele>723.3</ele>
        <time>2021-05-02T07:19:11.000Z</time>
      </trkpt>
      <trkpt lat="43.69024" lon="6.85406">
        <ele>722.3</ele>
        <time>2021-05-02T07:19:12.000Z</time>
      </trkpt>
      <trkpt lat="43.69014" lon="6.85406">
        <ele>721</ele>
        <time>2021-05-02T07:19:13.000Z</time>
      </trkpt>
      <trkpt lat="43.69006" lon="6.85405">
        <ele>720.1</ele>
        <time>2021-05-02T07:19:14.000Z</time>
      </trkpt>
      <trkpt lat="43.68999" lon="6.85404">
        <ele>718.9</ele>
        <time>2021-05-02T07:19:15.000Z</time>
      </trkpt>
      <trkpt lat="43.68991" lon="6.85404">
        <ele>718.1</ele>
        <time>2021-05-02T07:19:16.000Z</time>
      </trkpt>
      <trkpt lat="43.68985" lon="6.85403">
        <ele>717.5</ele>
        <time>2021-05-02T07:19:17.000Z</time>
      </trkpt>
      <trkpt lat="43.6898" lon="6.85402">
        <ele>717</ele>
        <time>2021-05-02T07:19:18.000Z</time>
      </trkpt>
      <trkpt lat="43.68977" lon="6.854">
        <ele>716.7</ele>
        <time>2021-05-02T07:19:19.000Z</time>
      </trkpt>
      <trkpt lat="43.68975" lon="6.85397">
        <ele>716.2</ele>
        <time>2021-05-02T07:19:20.000Z</time>
      </trkpt>
      <trkpt lat="43.68973" lon="6.85394">
        <ele>716.7</ele>
        <time>2021-05-02T07:19:21.000Z</time>
      </trkpt>
      <trkpt lat="43.68973" lon="6.85391">
        <ele>717.2</ele>
        <time>2021-05-02T07:19:22.000Z</time>
      </trkpt>
      <trkpt lat="43.68974" lon="6.85388">
        <ele>717</ele>
        <time>2021-05-02T07:19:23.000Z</time>
      </trkpt>
      <trkpt lat="43.68975" lon="6.85385">
        <ele>716.5</ele>
        <time>2021-05-02T07:19:24.000Z</time>
      </trkpt>
      <trkpt lat="43.68976" lon="6.85382">
        <ele>716.2</ele>
        <time>2021-05-02T07:19:25.000Z</time>
      </trkpt>
      <trkpt lat="43.68977" lon="6.85379">
        <ele>715.6</ele>
        <time>2021-05-02T07:19:26.000Z</time>
      </trkpt>
      <trkpt lat="43.68977" lon="6.85377">
        <ele>715.1</ele>
        <time>2021-05-02T07:19:27.000Z</time>
      </trkpt>
      <trkpt lat="43.68977" lon="6.85374">
        <ele>714.7</ele>
        <time>2021-05-02T07:19:28.000Z</time>
      </trkpt>
      <trkpt lat="43.68977" lon="6.85371">
        <ele>714</ele>
        <time>2021-05-02T07:19:29.000Z</time>
      </trkpt>
      <trkpt lat="43.68976" lon="6.85368">
        <ele>714</ele>
        <time>2021-05-02T07:19:30.000Z</time>
      </trkpt>
      <trkpt lat="43.68974" lon="6.85366">
        <ele>713.7</ele>
        <time>2021-05-02T07:19:31.000Z</time>
      </trkpt>
      <trkpt lat="43.68972" lon="6.85364">
        <ele>714.2</ele>
        <time>2021-05-02T07:19:32.000Z</time>
      </trkpt>
      <trkpt lat="43.6897" lon="6.85362">
        <ele>714.3</ele>
        <time>2021-05-02T07:19:33.000Z</time>
      </trkpt>
      <trkpt lat="43.68969" lon="6.85361">
        <ele>714.7</ele>
        <time>2021-05-02T07:19:34.000Z</time>
      </trkpt>
      <trkpt lat="43.68969" lon="6.85359">
        <ele>714.6</ele>
        <time>2021-05-02T07:19:35.000Z</time>
      </trkpt>
      <trkpt lat="43.68969" lon="6.85356">
        <ele>714.5</ele>
        <time>2021-05-02T07:19:36.000Z</time>
      </trkpt>
      <trkpt lat="43.6897" lon="6.85353">
        <ele>714.5</ele>
        <time>2021-05-02T07:19:37.000Z</time>
      </trkpt>
      <trkpt lat="43.6897" lon="6.8535">
        <ele>714.2</ele>
        <time>2021-05-02T07:19:38.000Z</time>
      </trkpt>
      <trkpt lat="43.68971" lon="6.85346">
        <ele>714</ele>
        <time>2021-05-02T07:19:39.000Z</time>
      </trkpt>
      <trkpt lat="43.68972" lon="6.85343">
        <ele>713.8</ele>
        <time>2021-05-02T07:19:40.000Z</time>
      </trkpt>
      <trkpt lat="43.68974" lon="6.8534">
        <ele>713.6</ele>
        <time>2021-05-02T07:19:41.000Z</time>
      </trkpt>
      <trkpt lat="43.68975" lon="6.85336">
        <ele>713.6</ele>
        <time>2021-05-02T07:19:42.000Z</time>
      </trkpt>
      <trkpt lat="43.68976" lon="6.85333">
        <ele>714.1</ele>
        <time>2021-05-02T07:19:43.000Z</time>
      </trkpt>
      <trkpt lat="43.68977" lon="6.85329">
        <ele>714.3</ele>
        <time>2021-05-02T07:19:44.000Z</time>
      </trkpt>
      <trkpt lat="43.68978" lon="6.85325">
        <ele>714.3</ele>
        <time>2021-05-02T07:19:45.000Z</time>
      </trkpt>
      <trkpt lat="43.6898" lon="6.85321">
        <ele>714.2</ele>
        <time>2021-05-02T07:19:46.000Z</time>
      </trkpt>
      <trkpt lat="43.68981" lon="6.85317">
        <ele>714</ele>
        <time>2021-05-02T07:19:47.000Z</time>
      </trkpt>
      <trkpt lat="43.68983" lon="6.85313">
        <ele>714</ele>
        <time>2021-05-02T07:19:48.000Z</time>
      </trkpt>
      <trkpt lat="43.68985" lon="6.85308">
        <ele>713.6</ele>
        <time>2021-05-02T07:19:49.000Z</time>
      </trkpt>
      <trkpt lat="43.68987" lon="6.85304">
        <ele>713.6</ele>
        <time>2021-05-02T07:19:50.000Z</time>
      </trkpt>
      <trkpt lat="43.68989" lon="6.853">
        <ele>713.4</ele>
        <time>2021-05-02T07:19:51.000Z</time>
      </trkpt>
      <trkpt lat="43.68991" lon="6.85295">
        <ele>713.3</ele>
        <time>2021-05-02T07:19:52.000Z</time>
      </trkpt>
      <trkpt lat="43.68993" lon="6.8529">
        <ele>713.4</ele>
        <time>2021-05-02T07:19:53.000Z</time>
      </trkpt>
      <trkpt lat="43.68995" lon="6.85285">
        <ele>713.2</ele>
        <time>2021-05-02T07:19:54.000Z</time>
      </trkpt>
      <trkpt lat="43.68997" lon="6.85279">
        <ele>712.8</ele>
        <time>2021-05-02T07:19:55.000Z</time>
      </trkpt>
      <trkpt lat="43.68999" lon="6.85274">
        <ele>713.2</ele>
        <time>2021-05-02T07:19:56.000Z</time>
      </trkpt>
      <trkpt lat="43.69" lon="6.85269">
        <ele>713.5</ele>
        <time>2021-05-02T07:19:57.000Z</time>
      </trkpt>
      <trkpt lat="43.69002" lon="6.85264">
        <ele>713.7</ele>
        <time>2021-05-02T07:19:58.000Z</time>
      </trkpt>
      <trkpt lat="43.69002" lon="6.85259">
        <ele>714.2</ele>
        <time>2021-05-02T07:19:59.000Z</time>
      </trkpt>
      <trkpt lat="43.69004" lon="6.85254">
        <ele>713.7</ele>
        <time>2021-05-02T07:20:00.000Z</time>
      </trkpt>
      <trkpt lat="43.69004" lon="6.85249">
        <ele>713.4</ele>
        <time>2021-05-02T07:20:01.000Z</time>
      </trkpt>
      <trkpt lat="43.69005" lon="6.85243">
        <ele>713.2</ele>
        <time>2021-05-02T07:20:02.000Z</time>
      </trkpt>
      <trkpt lat="43.69004" lon="6.85237">
        <ele>713.1</ele>
        <time>2021-05-02T07:20:03.000Z</time>
      </trkpt>
      <trkpt lat="43.69003" lon="6.85232">
        <ele>712.8</ele>
        <time>2021-05-02T07:20:04.000Z</time>
      </trkpt>
      <trkpt lat="43.69001" lon="6.85227">
        <ele>712.7</ele>
        <time>2021-05-02T07:20:05.000Z</time>
      </trkpt>
      <trkpt lat="43.69" lon="6.85222">
        <ele>712.6</ele>
        <time>2021-05-02T07:20:06.000Z</time>
      </trkpt>
      <trkpt lat="43.68998" lon="6.85217">
        <ele>712.3</ele>
        <time>2021-05-02T07:20:07.000Z</time>
      </trkpt>
      <trkpt lat="43.68996" lon="6.85211">
        <ele>712.2</ele>
        <time>2021-05-02T07:20:08.000Z</time>
      </trkpt>
      <trkpt lat="43.68994" lon="6.85206">
        <ele>712.1</ele>
        <time>2021-05-02T07:20:09.000Z</time>
      </trkpt>
      <trkpt lat="43.68993" lon="6.852">
        <ele>711.1</ele>
        <time>2021-05-02T07:20:10.000Z</time>
      </trkpt>
      <trkpt lat="43.68992" lon="6.85194">
        <ele>711.1</ele>
        <time>2021-05-02T07:20:11.000Z</time>
      </trkpt>
      <trkpt lat="43.68992" lon="6.85188">
        <ele>710.7</ele>
        <time>2021-05-02T07:20:12.000Z</time>
      </trkpt>
      <trkpt lat="43.68992" lon="6.85182">
        <ele>710.3</ele>
        <time>2021-05-02T07:20:13.000Z</time>
      </trkpt>
      <trkpt lat="43.68992" lon="6.85175">
        <ele>710.4</ele>
        <time>2021-05-02T07:20:14.000Z</time>
      </trkpt>
      <trkpt lat="43.68992" lon="6.85169">
        <ele>710.3</ele>
        <time>2021-05-02T07:20:15.000Z</time>
      </trkpt>
      <trkpt lat="43.68992" lon="6.85163">
        <ele>710</ele>
        <time>2021-05-02T07:20:16.000Z</time>
      </trkpt>
      <trkpt lat="43.68993" lon="6.85156">
        <ele>709.6</ele>
        <time>2021-05-02T07:20:17.000Z</time>
      </trkpt>
      <trkpt lat="43.68993" lon="6.8515">
        <ele>709.1</ele>
        <time>2021-05-02T07:20:18.000Z</time>
      </trkpt>
      <trkpt lat="43.68994" lon="6.85144">
        <ele>708.8</ele>
        <time>2021-05-02T07:20:19.000Z</time>
      </trkpt>
      <trkpt lat="43.68994" lon="6.85138">
        <ele>708.7</ele>
        <time>2021-05-02T07:20:20.000Z</time>
      </trkpt>
      <trkpt lat="43.68995" lon="6.85132">
        <ele>708.5</ele>
        <time>2021-05-02T07:20:21.000Z</time>
      </trkpt>
      <trkpt lat="43.68995" lon="6.85126">
        <ele>708.7</ele>
        <time>2021-05-02T07:20:22.000Z</time>
      </trkpt>
      <trkpt lat="43.68996" lon="6.85119">
        <ele>708.5</ele>
        <time>2021-05-02T07:20:23.000Z</time>
      </trkpt>
      <trkpt lat="43.68997" lon="6.85114">
        <ele>708.3</ele>
        <time>2021-05-02T07:20:24.000Z</time>
      </trkpt>
      <trkpt lat="43.68998" lon="6.85108">
        <ele>708.3</ele>
        <time>2021-05-02T07:20:25.000Z</time>
      </trkpt>
      <trkpt lat="43.68999" lon="6.85102">
        <ele>708.5</ele>
        <time>2021-05-02T07:20:26.000Z</time>
      </trkpt>
      <trkpt lat="43.69" lon="6.85097">
        <ele>708.9</ele>
        <time>2021-05-02T07:20:27.000Z</time>
      </trkpt>
      <trkpt lat="43.69" lon="6.85091">
        <ele>709.1</ele>
        <time>2021-05-02T07:20:28.000Z</time>
      </trkpt>
      <trkpt lat="43.69001" lon="6.85086">
        <ele>708.8</ele>
        <time>2021-05-02T07:20:29.000Z</time>
      </trkpt>
      <trkpt lat="43.69002" lon="6.8508">
        <ele>708.7</ele>
        <time>2021-05-02T07:20:30.000Z</time>
      </trkpt>
      <trkpt lat="43.69003" lon="6.85074">
        <ele>708.8</ele>
        <time>2021-05-02T07:20:31.000Z</time>
      </trkpt>
      <trkpt lat="43.69005" lon="6.85068">
        <ele>708.6</ele>
        <time>2021-05-02T07:20:32.000Z</time>
      </trkpt>
      <trkpt lat="43.69007" lon="6.85063">
        <ele>708.6</ele>
        <time>2021-05-02T07:20:33.000Z</time>
      </trkpt>
      <trkpt lat="43.69009" lon="6.85057">
        <ele>708.4</ele>
        <time>2021-05-02T07:20:34.000Z</time>
      </trkpt>
      <trkpt lat="43.69011" lon="6.8505">
        <ele>708.3</ele>
        <time>2021-05-02T07:20:35.000Z</time>
      </trkpt>
      <trkpt lat="43.69012" lon="6.85044">
        <ele>708</ele>
        <time>2021-05-02T07:20:36.000Z</time>
      </trkpt>
      <trkpt lat="43.69014" lon="6.85038">
        <ele>707.6</ele>
        <time>2021-05-02T07:20:37.000Z</time>
      </trkpt>
      <trkpt lat="43.69017" lon="6.85033">
        <ele>707.4</ele>
        <time>2021-05-02T07:20:38.000Z</time>
      </trkpt>
      <trkpt lat="43.69019" lon="6.85027">
        <ele>707.2</ele>
        <time>2021-05-02T07:20:39.000Z</time>
      </trkpt>
      <trkpt lat="43.69021" lon="6.85022">
        <ele>707.2</ele>
        <time>2021-05-02T07:20:40.000Z</time>
      </trkpt>
      <trkpt lat="43.69023" lon="6.85016">
        <ele>707.7</ele>
        <time>2021-05-02T07:20:41.000Z</time>
      </trkpt>
      <trkpt lat="43.69024" lon="6.8501">
        <ele>708</ele>
        <time>2021-05-02T07:20:42.000Z</time>
      </trkpt>
      <trkpt lat="43.69025" lon="6.85004">
        <ele>708.1</ele>
        <time>2021-05-02T07:20:43.000Z</time>
      </trkpt>
      <trkpt lat="43.69025" lon="6.84998">
        <ele>708.2</ele>
        <time>2021-05-02T07:20:44.000Z</time>
      </trkpt>
      <trkpt lat="43.69026" lon="6.84992">
        <ele>708.4</ele>
        <time>2021-05-02T07:20:45.000Z</time>
      </trkpt>
      <trkpt lat="43.69026" lon="6.84986">
        <ele>708.7</ele>
        <time>2021-05-02T07:20:46.000Z</time>
      </trkpt>
      <trkpt lat="43.69026" lon="6.84979">
        <ele>708.8</ele>
        <time>2021-05-02T07:20:47.000Z</time>
      </trkpt>
      <trkpt lat="43.69027" lon="6.84973">
        <ele>708.9</ele>
        <time>2021-05-02T07:20:48.000Z</time>
      </trkpt>
      <trkpt lat="43.69027" lon="6.84967">
        <ele>708.5</ele>
        <time>2021-05-02T07:20:49.000Z</time>
      </trkpt>
      <trkpt lat="43.69028" lon="6.8496">
        <ele>708.5</ele>
        <time>2021-05-02T07:20:50.000Z</time>
      </trkpt>
      <trkpt lat="43.69029" lon="6.84953">
        <ele>708.4</ele>
        <time>2021-05-02T07:20:51.000Z</time>
      </trkpt>
      <trkpt lat="43.69031" lon="6.84947">
        <ele>708</ele>
        <time>2021-05-02T07:20:52.000Z</time>
      </trkpt>
      <trkpt lat="43.69033" lon="6.8494">
        <ele>707.6</ele>
        <time>2021-05-02T07:20:53.000Z</time>
      </trkpt>
      <trkpt lat="43.69036" lon="6.84934">
        <ele>707.4</ele>
        <time>2021-05-02T07:20:54.000Z</time>
      </trkpt>
      <trkpt lat="43.69038" lon="6.84929">
        <ele>707.2</ele>
        <time>2021-05-02T07:20:55.000Z</time>
      </trkpt>
      <trkpt lat="43.6904" lon="6.84923">
        <ele>706.9</ele>
        <time>2021-05-02T07:20:56.000Z</time>
      </trkpt>
      <trkpt lat="43.69042" lon="6.84918">
        <ele>706.8</ele>
        <time>2021-05-02T07:20:57.000Z</time>
      </trkpt>
      <trkpt lat="43.69043" lon="6.84913">
        <ele>706.9</ele>
        <time>2021-05-02T07:20:58.000Z</time>
      </trkpt>
      <trkpt lat="43.69045" lon="6.84908">
        <ele>706.8</ele>
        <time>2021-05-02T07:20:59.000Z</time>
      </trkpt>
      <trkpt lat="43.69046" lon="6.84904">
        <ele>706.9</ele>
        <time>2021-05-02T07:21:00.000Z</time>
      </trkpt>
      <trkpt lat="43.69047" lon="6.84901">
        <ele>707.1</ele>
        <time>2021-05-02T07:21:01.000Z</time>
      </trkpt>
      <trkpt lat="43.69048" lon="6.84899">
        <ele>707.1</ele>
        <time>2021-05-02T07:21:02.000Z</time>
      </trkpt>
      <trkpt lat="43.69049" lon="6.84897">
        <ele>706.9</ele>
        <time>2021-05-02T07:21:03.000Z</time>
      </trkpt>
      <trkpt lat="43.6905" lon="6.84896">
        <ele>707.1</ele>
        <time>2021-05-02T07:21:04.000Z</time>
      </trkpt>
      <trkpt lat="43.6905" lon="6.84894">
        <ele>707.2</ele>
        <time>2021-05-02T07:21:05.000Z</time>
      </trkpt>
      <trkpt lat="43.6905" lon="6.84892">
        <ele>707.2</ele>
        <time>2021-05-02T07:21:06.000Z</time>
      </trkpt>
      <trkpt lat="43.69051" lon="6.8489">
        <ele>707.3</ele>
        <time>2021-05-02T07:21:07.000Z</time>
      </trkpt>
      <trkpt lat="43.69052" lon="6.84888">
        <ele>707.4</ele>
        <time>2021-05-02T07:21:08.000Z</time>
      </trkpt>
      <trkpt lat="43.69052" lon="6.84885">
        <ele>707.4</ele>
        <time>2021-05-02T07:21:09.000Z</time>
      </trkpt>
      <trkpt lat="43.69053" lon="6.84882">
        <ele>707.1</ele>
        <time>2021-05-02T07:21:10.000Z</time>
      </trkpt>
      <trkpt lat="43.69054" lon="6.84879">
        <ele>707.1</ele>
        <time>2021-05-02T07:21:11.000Z</time>
      </trkpt>
      <trkpt lat="43.69055" lon="6.84876">
        <ele>707.1</ele>
        <time>2021-05-02T07:21:12.000Z</time>
      </trkpt>
      <trkpt lat="43.69056" lon="6.84872">
        <ele>707</ele>
        <time>2021-05-02T07:21:13.000Z</time>
      </trkpt>
      <trkpt lat="43.69058" lon="6.84867">
        <ele>706.9</ele>
        <time>2021-05-02T07:21:14.000Z</time>
      </trkpt>
      <trkpt lat="43.69059" lon="6.84862">
        <ele>707</ele>
        <time>2021-05-02T07:21:15.000Z</time>
      </trkpt>
      <trkpt lat="43.6906" lon="6.84857">
        <ele>707</ele>
        <time>2021-05-02T07:21:16.000Z</time>
      </trkpt>
      <trkpt lat="43.69061" lon="6.84851">
        <ele>707</ele>
        <time>2021-05-02T07:21:17.000Z</time>
      </trkpt>
      <trkpt lat="43.69062" lon="6.84846">
        <ele>706.4</ele>
        <time>2021-05-02T07:21:18.000Z</time>
      </trkpt>
      <trkpt lat="43.69062" lon="6.84839">
        <ele>705.9</ele>
        <time>2021-05-02T07:21:19.000Z</time>
      </trkpt>
      <trkpt lat="43.69063" lon="6.84832">
        <ele>705.5</ele>
        <time>2021-05-02T07:21:20.000Z</time>
      </trkpt>
      <trkpt lat="43.69063" lon="6.84825">
        <ele>705.1</ele>
        <time>2021-05-02T07:21:21.000Z</time>
      </trkpt>
      <trkpt lat="43.69063" lon="6.84818">
        <ele>704.9</ele>
        <time>2021-05-02T07:21:22.000Z</time>
      </trkpt>
      <trkpt lat="43.69063" lon="6.84812">
        <ele>704.9</ele>
        <time>2021-05-02T07:21:23.000Z</time>
      </trkpt>
      <trkpt lat="43.69063" lon="6.84805">
        <ele>704.8</ele>
        <time>2021-05-02T07:21:24.000Z</time>
      </trkpt>
      <trkpt lat="43.69062" lon="6.84799">
        <ele>704.9</ele>
        <time>2021-05-02T07:21:25.000Z</time>
      </trkpt>
      <trkpt lat="43.69062" lon="6.84792">
        <ele>704.8</ele>
        <time>2021-05-02T07:21:26.000Z</time>
      </trkpt>
      <trkpt lat="43.69061" lon="6.84778">
        <ele>704.5</ele>
        <time>2021-05-02T07:21:28.000Z</time>
      </trkpt>
      <trkpt lat="43.69061" lon="6.84772">
        <ele>704.7</ele>
        <time>2021-05-02T07:21:29.000Z</time>
      </trkpt>
      <trkpt lat="43.6906" lon="6.84765">
        <ele>704.4</ele>
        <time>2021-05-02T07:21:30.000Z</time>
      </trkpt>
      <trkpt lat="43.69059" lon="6.84758">
        <ele>704.8</ele>
        <time>2021-05-02T07:21:31.000Z</time>
      </trkpt>
      <trkpt lat="43.69058" lon="6.84752">
        <ele>704.8</ele>
        <time>2021-05-02T07:21:32.000Z</time>
      </trkpt>
      <trkpt lat="43.69057" lon="6.84745">
        <ele>704.5</ele>
        <time>2021-05-02T07:21:33.000Z</time>
      </trkpt>
      <trkpt lat="43.69056" lon="6.84732">
        <ele>704.2</ele>
        <time>2021-05-02T07:21:35.000Z</time>
      </trkpt>
      <trkpt lat="43.69055" lon="6.84725">
        <ele>704</ele>
        <time>2021-05-02T07:21:36.000Z</time>
      </trkpt>
      <trkpt lat="43.69054" lon="6.84711">
        <ele>703.3</ele>
        <time>2021-05-02T07:21:38.000Z</time>
      </trkpt>
      <trkpt lat="43.69053" lon="6.84697">
        <ele>703</ele>
        <time>2021-05-02T07:21:40.000Z</time>
      </trkpt>
      <trkpt lat="43.69053" lon="6.8469">
        <ele>702.9</ele>
        <time>2021-05-02T07:21:41.000Z</time>
      </trkpt>
      <trkpt lat="43.69053" lon="6.84683">
        <ele>702.4</ele>
        <time>2021-05-02T07:21:42.000Z</time>
      </trkpt>
      <trkpt lat="43.69052" lon="6.84676">
        <ele>702.5</ele>
        <time>2021-05-02T07:21:43.000Z</time>
      </trkpt>
      <trkpt lat="43.69052" lon="6.84669">
        <ele>702.6</ele>
        <time>2021-05-02T07:21:44.000Z</time>
      </trkpt>
      <trkpt lat="43.69052" lon="6.84655">
        <ele>702.8</ele>
        <time>2021-05-02T07:21:46.000Z</time>
      </trkpt>
      <trkpt lat="43.69053" lon="6.84648">
        <ele>703</ele>
        <time>2021-05-02T07:21:47.000Z</time>
      </trkpt>
      <trkpt lat="43.69054" lon="6.8464">
        <ele>703</ele>
        <time>2021-05-02T07:21:48.000Z</time>
      </trkpt>
      <trkpt lat="43.69054" lon="6.84633">
        <ele>703.1</ele>
        <time>2021-05-02T07:21:49.000Z</time>
      </trkpt>
      <trkpt lat="43.69054" lon="6.84627">
        <ele>702.7</ele>
        <time>2021-05-02T07:21:50.000Z</time>
      </trkpt>
      <trkpt lat="43.69052" lon="6.84615">
        <ele>701.9</ele>
        <time>2021-05-02T07:21:52.000Z</time>
      </trkpt>
      <trkpt lat="43.69052" lon="6.8461">
        <ele>702.3</ele>
        <time>2021-05-02T07:21:53.000Z</time>
      </trkpt>
      <trkpt lat="43.6905" lon="6.84604">
        <ele>702.6</ele>
        <time>2021-05-02T07:21:54.000Z</time>
      </trkpt>
      <trkpt lat="43.69049" lon="6.84598">
        <ele>702.6</ele>
        <time>2021-05-02T07:21:55.000Z</time>
      </trkpt>
      <trkpt lat="43.69049" lon="6.84592">
        <ele>702.7</ele>
        <time>2021-05-02T07:21:56.000Z</time>
      </trkpt>
      <trkpt lat="43.69048" lon="6.84586">
        <ele>703.9</ele>
        <time>2021-05-02T07:21:57.000Z</time>
      </trkpt>
      <trkpt lat="43.69047" lon="6.8458">
        <ele>704.5</ele>
        <time>2021-05-02T07:21:58.000Z</time>
      </trkpt>
      <trkpt lat="43.69046" lon="6.84574">
        <ele>704.8</ele>
        <time>2021-05-02T07:21:59.000Z</time>
      </trkpt>
      <trkpt lat="43.69045" lon="6.84567">
        <ele>704.6</ele>
        <time>2021-05-02T07:22:00.000Z</time>
      </trkpt>
      <trkpt lat="43.69044" lon="6.84561">
        <ele>704.3</ele>
        <time>2021-05-02T07:22:01.000Z</time>
      </trkpt>
      <trkpt lat="43.69043" lon="6.84555">
        <ele>704.6</ele>
        <time>2021-05-02T07:22:02.000Z</time>
      </trkpt>
      <trkpt lat="43.69043" lon="6.84548">
        <ele>704.4</ele>
        <time>2021-05-02T07:22:03.000Z</time>
      </trkpt>
      <trkpt lat="43.69042" lon="6.84542">
        <ele>703.9</ele>
        <time>2021-05-02T07:22:04.000Z</time>
      </trkpt>
      <trkpt lat="43.69041" lon="6.84535">
        <ele>703.7</ele>
        <time>2021-05-02T07:22:05.000Z</time>
      </trkpt>
      <trkpt lat="43.69041" lon="6.84528">
        <ele>703.3</ele>
        <time>2021-05-02T07:22:06.000Z</time>
      </trkpt>
      <trkpt lat="43.6904" lon="6.84521">
        <ele>703.1</ele>
        <time>2021-05-02T07:22:07.000Z</time>
      </trkpt>
      <trkpt lat="43.69039" lon="6.84514">
        <ele>702.5</ele>
        <time>2021-05-02T07:22:08.000Z</time>
      </trkpt>
      <trkpt lat="43.69038" lon="6.84499">
        <ele>701.8</ele>
        <time>2021-05-02T07:22:10.000Z</time>
      </trkpt>
      <trkpt lat="43.69037" lon="6.84492">
        <ele>701.2</ele>
        <time>2021-05-02T07:22:11.000Z</time>
      </trkpt>
      <trkpt lat="43.69037" lon="6.84486">
        <ele>700.3</ele>
        <time>2021-05-02T07:22:12.000Z</time>
      </trkpt>
      <trkpt lat="43.69036" lon="6.84479">
        <ele>699.8</ele>
        <time>2021-05-02T07:22:13.000Z</time>
      </trkpt>
      <trkpt lat="43.69035" lon="6.84472">
        <ele>699.4</ele>
        <time>2021-05-02T07:22:14.000Z</time>
      </trkpt>
      <trkpt lat="43.69033" lon="6.84459">
        <ele>698.6</ele>
        <time>2021-05-02T07:22:16.000Z</time>
      </trkpt>
      <trkpt lat="43.69031" lon="6.84452">
        <ele>698.4</ele>
        <time>2021-05-02T07:22:17.000Z</time>
      </trkpt>
      <trkpt lat="43.6903" lon="6.84445">
        <ele>698.2</ele>
        <time>2021-05-02T07:22:18.000Z</time>
      </trkpt>
      <trkpt lat="43.69029" lon="6.84438">
        <ele>697.8</ele>
        <time>2021-05-02T07:22:19.000Z</time>
      </trkpt>
      <trkpt lat="43.69028" lon="6.84432">
        <ele>697.8</ele>
        <time>2021-05-02T07:22:20.000Z</time>
      </trkpt>
      <trkpt lat="43.69026" lon="6.84419">
        <ele>697.9</ele>
        <time>2021-05-02T07:22:22.000Z</time>
      </trkpt>
      <trkpt lat="43.69025" lon="6.84414">
        <ele>697.7</ele>
        <time>2021-05-02T07:22:23.000Z</time>
      </trkpt>
      <trkpt lat="43.69024" lon="6.8441">
        <ele>697.7</ele>
        <time>2021-05-02T07:22:24.000Z</time>
      </trkpt>
      <trkpt lat="43.69024" lon="6.84406">
        <ele>697.5</ele>
        <time>2021-05-02T07:22:25.000Z</time>
      </trkpt>
      <trkpt lat="43.69025" lon="6.84401">
        <ele>697.3</ele>
        <time>2021-05-02T07:22:26.000Z</time>
      </trkpt>
      <trkpt lat="43.69025" lon="6.84393">
        <ele>696.8</ele>
        <time>2021-05-02T07:22:28.000Z</time>
      </trkpt>
      <trkpt lat="43.69026" lon="6.84389">
        <ele>696.6</ele>
        <time>2021-05-02T07:22:29.000Z</time>
      </trkpt>
      <trkpt lat="43.69026" lon="6.84386">
        <ele>696.7</ele>
        <time>2021-05-02T07:22:30.000Z</time>
      </trkpt>
      <trkpt lat="43.69026" lon="6.84383">
        <ele>697.2</ele>
        <time>2021-05-02T07:22:31.000Z</time>
      </trkpt>
      <trkpt lat="43.69027" lon="6.84381">
        <ele>697.6</ele>
        <time>2021-05-02T07:22:32.000Z</time>
      </trkpt>
      <trkpt lat="43.69026" lon="6.84378">
        <ele>697.9</ele>
        <time>2021-05-02T07:22:33.000Z</time>
      </trkpt>
      <trkpt lat="43.69027" lon="6.84375">
        <ele>698.1</ele>
        <time>2021-05-02T07:22:34.000Z</time>
      </trkpt>
      <trkpt lat="43.69027" lon="6.84372">
        <ele>698.5</ele>
        <time>2021-05-02T07:22:35.000Z</time>
      </trkpt>
      <trkpt lat="43.69026" lon="6.84369">
        <ele>698.5</ele>
        <time>2021-05-02T07:22:36.000Z</time>
      </trkpt>
      <trkpt lat="43.69027" lon="6.84366">
        <ele>698.5</ele>
        <time>2021-05-02T07:22:37.000Z</time>
      </trkpt>
      <trkpt lat="43.69028" lon="6.84364">
        <ele>698.7</ele>
        <time>2021-05-02T07:22:38.000Z</time>
      </trkpt>
      <trkpt lat="43.69029" lon="6.8436">
        <ele>698.9</ele>
        <time>2021-05-02T07:22:40.000Z</time>
      </trkpt>
      <trkpt lat="43.6903" lon="6.84357">
        <ele>698.8</ele>
        <time>2021-05-02T07:22:41.000Z</time>
      </trkpt>
      <trkpt lat="43.69031" lon="6.84355">
        <ele>698.7</ele>
        <time>2021-05-02T07:22:42.000Z</time>
      </trkpt>
      <trkpt lat="43.69032" lon="6.84352">
        <ele>698.5</ele>
        <time>2021-05-02T07:22:43.000Z</time>
      </trkpt>
      <trkpt lat="43.69033" lon="6.8435">
        <ele>698.3</ele>
        <time>2021-05-02T07:22:44.000Z</time>
      </trkpt>
      <trkpt lat="43.69036" lon="6.84345">
        <ele>697.7</ele>
        <time>2021-05-02T07:22:46.000Z</time>
      </trkpt>
      <trkpt lat="43.69037" lon="6.84342">
        <ele>697.4</ele>
        <time>2021-05-02T07:22:47.000Z</time>
      </trkpt>
      <trkpt lat="43.69038" lon="6.84339">
        <ele>697.2</ele>
        <time>2021-05-02T07:22:48.000Z</time>
      </trkpt>
      <trkpt lat="43.69038" lon="6.84337">
        <ele>697</ele>
        <time>2021-05-02T07:22:49.000Z</time>
      </trkpt>
      <trkpt lat="43.69037" lon="6.84334">
        <ele>697</ele>
        <time>2021-05-02T07:22:50.000Z</time>
      </trkpt>
      <trkpt lat="43.69034" lon="6.84332">
        <ele>696.7</ele>
        <time>2021-05-02T07:22:52.000Z</time>
      </trkpt>
      <trkpt lat="43.69031" lon="6.84331">
        <ele>696.5</ele>
        <time>2021-05-02T07:22:53.000Z</time>
      </trkpt>
      <trkpt lat="43.69028" lon="6.8433">
        <ele>696.5</ele>
        <time>2021-05-02T07:22:54.000Z</time>
      </trkpt>
      <trkpt lat="43.69025" lon="6.84329">
        <ele>696.5</ele>
        <time>2021-05-02T07:22:55.000Z</time>
      </trkpt>
      <trkpt lat="43.69022" lon="6.84329">
        <ele>696.4</ele>
        <time>2021-05-02T07:22:56.000Z</time>
      </trkpt>
      <trkpt lat="43.69015" lon="6.84327">
        <ele>695.8</ele>
        <time>2021-05-02T07:22:58.000Z</time>
      </trkpt>
      <trkpt lat="43.69011" lon="6.84326">
        <ele>695.4</ele>
        <time>2021-05-02T07:22:59.000Z</time>
      </trkpt>
      <trkpt lat="43.69007" lon="6.84325">
        <ele>695.1</ele>
        <time>2021-05-02T07:23:00.000Z</time>
      </trkpt>
      <trkpt lat="43.69003" lon="6.84323">
        <ele>694.7</ele>
        <time>2021-05-02T07:23:01.000Z</time>
      </trkpt>
      <trkpt lat="43.68998" lon="6.84321">
        <ele>694.2</ele>
        <time>2021-05-02T07:23:02.000Z</time>
      </trkpt>
      <trkpt lat="43.68994" lon="6.84319">
        <ele>693.9</ele>
        <time>2021-05-02T07:23:03.000Z</time>
      </trkpt>
      <trkpt lat="43.68989" lon="6.84317">
        <ele>693.6</ele>
        <time>2021-05-02T07:23:04.000Z</time>
      </trkpt>
      <trkpt lat="43.68984" lon="6.84315">
        <ele>693.3</ele>
        <time>2021-05-02T07:23:05.000Z</time>
      </trkpt>
      <trkpt lat="43.6898" lon="6.84313">
        <ele>693</ele>
        <time>2021-05-02T07:23:06.000Z</time>
      </trkpt>
      <trkpt lat="43.68975" lon="6.84312">
        <ele>692.4</ele>
        <time>2021-05-02T07:23:07.000Z</time>
      </trkpt>
      <trkpt lat="43.68971" lon="6.8431">
        <ele>692.2</ele>
        <time>2021-05-02T07:23:08.000Z</time>
      </trkpt>
      <trkpt lat="43.68961" lon="6.84307">
        <ele>692.3</ele>
        <time>2021-05-02T07:23:10.000Z</time>
      </trkpt>
      <trkpt lat="43.68957" lon="6.84306">
        <ele>692.8</ele>
        <time>2021-05-02T07:23:11.000Z</time>
      </trkpt>
      <trkpt lat="43.68952" lon="6.84304">
        <ele>693</ele>
        <time>2021-05-02T07:23:12.000Z</time>
      </trkpt>
      <trkpt lat="43.68948" lon="6.84302">
        <ele>693.3</ele>
        <time>2021-05-02T07:23:13.000Z</time>
      </trkpt>
      <trkpt lat="43.68943" lon="6.843">
        <ele>693.3</ele>
        <time>2021-05-02T07:23:14.000Z</time>
      </trkpt>
      <trkpt lat="43.68936" lon="6.84295">
        <ele>694</ele>
        <time>2021-05-02T07:23:16.000Z</time>
      </trkpt>
      <trkpt lat="43.68933" lon="6.84293">
        <ele>694.2</ele>
        <time>2021-05-02T07:23:17.000Z</time>
      </trkpt>
      <trkpt lat="43.68931" lon="6.84291">
        <ele>694.7</ele>
        <time>2021-05-02T07:23:18.000Z</time>
      </trkpt>
      <trkpt lat="43.68929" lon="6.84288">
        <ele>695</ele>
        <time>2021-05-02T07:23:19.000Z</time>
      </trkpt>
      <trkpt lat="43.68927" lon="6.84286">
        <ele>695.1</ele>
        <time>2021-05-02T07:23:20.000Z</time>
      </trkpt>
      <trkpt lat="43.68921" lon="6.84282">
        <ele>694.9</ele>
        <time>2021-05-02T07:23:22.000Z</time>
      </trkpt>
      <trkpt lat="43.68919" lon="6.8428">
        <ele>695</ele>
        <time>2021-05-02T07:23:23.000Z</time>
      </trkpt>
      <trkpt lat="43.68916" lon="6.84277">
        <ele>695.3</ele>
        <time>2021-05-02T07:23:24.000Z</time>
      </trkpt>
      <trkpt lat="43.68913" lon="6.84275">
        <ele>695.1</ele>
        <time>2021-05-02T07:23:25.000Z</time>
      </trkpt>
      <trkpt lat="43.68911" lon="6.84273">
        <ele>695.5</ele>
        <time>2021-05-02T07:23:26.000Z</time>
      </trkpt>
      <trkpt lat="43.68908" lon="6.84271">
        <ele>695.7</ele>
        <time>2021-05-02T07:23:27.000Z</time>
      </trkpt>
      <trkpt lat="43.68904" lon="6.84269">
        <ele>696</ele>
        <time>2021-05-02T07:23:28.000Z</time>
      </trkpt>
      <trkpt lat="43.68901" lon="6.84267">
        <ele>696.2</ele>
        <time>2021-05-02T07:23:29.000Z</time>
      </trkpt>
      <trkpt lat="43.68897" lon="6.84265">
        <ele>696.3</ele>
        <time>2021-05-02T07:23:30.000Z</time>
      </trkpt>
      <trkpt lat="43.68893" lon="6.84263">
        <ele>696.9</ele>
        <time>2021-05-02T07:23:31.000Z</time>
      </trkpt>
      <trkpt lat="43.68888" lon="6.8426">
        <ele>697.2</ele>
        <time>2021-05-02T07:23:32.000Z</time>
      </trkpt>
      <trkpt lat="43.68883" lon="6.84257">
        <ele>697.6</ele>
        <time>2021-05-02T07:23:33.000Z</time>
      </trkpt>
      <trkpt lat="43.68879" lon="6.84254">
        <ele>697.5</ele>
        <time>2021-05-02T07:23:34.000Z</time>
      </trkpt>
      <trkpt lat="43.68875" lon="6.84251">
        <ele>696.9</ele>
        <time>2021-05-02T07:23:35.000Z</time>
      </trkpt>
      <trkpt lat="43.68871" lon="6.84249">
        <ele>696.8</ele>
        <time>2021-05-02T07:23:36.000Z</time>
      </trkpt>
      <trkpt lat="43.68868" lon="6.84247">
        <ele>697.2</ele>
        <time>2021-05-02T07:23:37.000Z</time>
      </trkpt>
      <trkpt lat="43.68864" lon="6.84247">
        <ele>697.6</ele>
        <time>2021-05-02T07:23:38.000Z</time>
      </trkpt>
      <trkpt lat="43.68859" lon="6.84245">
        <ele>697.4</ele>
        <time>2021-05-02T07:23:40.000Z</time>
      </trkpt>
      <trkpt lat="43.68857" lon="6.84245">
        <ele>697.7</ele>
        <time>2021-05-02T07:23:41.000Z</time>
      </trkpt>
      <trkpt lat="43.68855" lon="6.84245">
        <ele>697.9</ele>
        <time>2021-05-02T07:23:42.000Z</time>
      </trkpt>
      <trkpt lat="43.68852" lon="6.84245">
        <ele>697.8</ele>
        <time>2021-05-02T07:23:43.000Z</time>
      </trkpt>
      <trkpt lat="43.6885" lon="6.84245">
        <ele>698.1</ele>
        <time>2021-05-02T07:23:44.000Z</time>
      </trkpt>
      <trkpt lat="43.68844" lon="6.84246">
        <ele>697.5</ele>
        <time>2021-05-02T07:23:46.000Z</time>
      </trkpt>
      <trkpt lat="43.6884" lon="6.84246">
        <ele>697.3</ele>
        <time>2021-05-02T07:23:47.000Z</time>
      </trkpt>
      <trkpt lat="43.68837" lon="6.84247">
        <ele>696.8</ele>
        <time>2021-05-02T07:23:48.000Z</time>
      </trkpt>
      <trkpt lat="43.68833" lon="6.84247">
        <ele>696.6</ele>
        <time>2021-05-02T07:23:49.000Z</time>
      </trkpt>
      <trkpt lat="43.6883" lon="6.84247">
        <ele>696.3</ele>
        <time>2021-05-02T07:23:50.000Z</time>
      </trkpt>
      <trkpt lat="43.68822" lon="6.84248">
        <ele>695.6</ele>
        <time>2021-05-02T07:23:52.000Z</time>
      </trkpt>
      <trkpt lat="43.68819" lon="6.84247">
        <ele>695</ele>
        <time>2021-05-02T07:23:53.000Z</time>
      </trkpt>
      <trkpt lat="43.68815" lon="6.84248">
        <ele>694.4</ele>
        <time>2021-05-02T07:23:54.000Z</time>
      </trkpt>
      <trkpt lat="43.68811" lon="6.84249">
        <ele>693.5</ele>
        <time>2021-05-02T07:23:55.000Z</time>
      </trkpt>
      <trkpt lat="43.68806" lon="6.84249">
        <ele>692.9</ele>
        <time>2021-05-02T07:23:56.000Z</time>
      </trkpt>
      <trkpt lat="43.68802" lon="6.84249">
        <ele>692.4</ele>
        <time>2021-05-02T07:23:57.000Z</time>
      </trkpt>
      <trkpt lat="43.68798" lon="6.8425">
        <ele>692</ele>
        <time>2021-05-02T07:23:58.000Z</time>
      </trkpt>
      <trkpt lat="43.68793" lon="6.84251">
        <ele>691.7</ele>
        <time>2021-05-02T07:23:59.000Z</time>
      </trkpt>
      <trkpt lat="43.68789" lon="6.84251">
        <ele>690.9</ele>
        <time>2021-05-02T07:24:00.000Z</time>
      </trkpt>
      <trkpt lat="43.68784" lon="6.84252">
        <ele>690.8</ele>
        <time>2021-05-02T07:24:01.000Z</time>
      </trkpt>
      <trkpt lat="43.6878" lon="6.84253">
        <ele>690.6</ele>
        <time>2021-05-02T07:24:02.000Z</time>
      </trkpt>
      <trkpt lat="43.68776" lon="6.84253">
        <ele>691</ele>
        <time>2021-05-02T07:24:03.000Z</time>
      </trkpt>
      <trkpt lat="43.68772" lon="6.84254">
        <ele>690.9</ele>
        <time>2021-05-02T07:24:04.000Z</time>
      </trkpt>
      <trkpt lat="43.68768" lon="6.84255">
        <ele>690.8</ele>
        <time>2021-05-02T07:24:05.000Z</time>
      </trkpt>
      <trkpt lat="43.68765" lon="6.84256">
        <ele>690.4</ele>
        <time>2021-05-02T07:24:06.000Z</time>
      </trkpt>
      <trkpt lat="43.68761" lon="6.84258">
        <ele>690.3</ele>
        <time>2021-05-02T07:24:07.000Z</time>
      </trkpt>
      <trkpt lat="43.68758" lon="6.84259">
        <ele>690.7</ele>
        <time>2021-05-02T07:24:08.000Z</time>
      </trkpt>
      <trkpt lat="43.68752" lon="6.84261">
        <ele>691.5</ele>
        <time>2021-05-02T07:24:10.000Z</time>
      </trkpt>
      <trkpt lat="43.68748" lon="6.84262">
        <ele>691.5</ele>
        <time>2021-05-02T07:24:11.000Z</time>
      </trkpt>
      <trkpt lat="43.68745" lon="6.84263">
        <ele>691.6</ele>
        <time>2021-05-02T07:24:12.000Z</time>
      </trkpt>
      <trkpt lat="43.68742" lon="6.84263">
        <ele>691.9</ele>
        <time>2021-05-02T07:24:13.000Z</time>
      </trkpt>
      <trkpt lat="43.68739" lon="6.84264">
        <ele>692.2</ele>
        <time>2021-05-02T07:24:14.000Z</time>
      </trkpt>
      <trkpt lat="43.68732" lon="6.84266">
        <ele>692.5</ele>
        <time>2021-05-02T07:24:16.000Z</time>
      </trkpt>
      <trkpt lat="43.68728" lon="6.84265">
        <ele>692.7</ele>
        <time>2021-05-02T07:24:17.000Z</time>
      </trkpt>
      <trkpt lat="43.68724" lon="6.84265">
        <ele>692.6</ele>
        <time>2021-05-02T07:24:18.000Z</time>
      </trkpt>
      <trkpt lat="43.6872" lon="6.84265">
        <ele>692.3</ele>
        <time>2021-05-02T07:24:19.000Z</time>
      </trkpt>
      <trkpt lat="43.68717" lon="6.84264">
        <ele>692.4</ele>
        <time>2021-05-02T07:24:20.000Z</time>
      </trkpt>
      <trkpt lat="43.6871" lon="6.84264">
        <ele>692.9</ele>
        <time>2021-05-02T07:24:22.000Z</time>
      </trkpt>
      <trkpt lat="43.68706" lon="6.84264">
        <ele>693.4</ele>
        <time>2021-05-02T07:24:23.000Z</time>
      </trkpt>
      <trkpt lat="43.68703" lon="6.84264">
        <ele>693.6</ele>
        <time>2021-05-02T07:24:24.000Z</time>
      </trkpt>
      <trkpt lat="43.68699" lon="6.84264">
        <ele>693.1</ele>
        <time>2021-05-02T07:24:25.000Z</time>
      </trkpt>
      <trkpt lat="43.68695" lon="6.84265">
        <ele>692.7</ele>
        <time>2021-05-02T07:24:26.000Z</time>
      </trkpt>
      <trkpt lat="43.68691" lon="6.84266">
        <ele>692</ele>
        <time>2021-05-02T07:24:27.000Z</time>
      </trkpt>
      <trkpt lat="43.68688" lon="6.84267">
        <ele>691.6</ele>
        <time>2021-05-02T07:24:28.000Z</time>
      </trkpt>
      <trkpt lat="43.68684" lon="6.84267">
        <ele>691</ele>
        <time>2021-05-02T07:24:29.000Z</time>
      </trkpt>
      <trkpt lat="43.6868" lon="6.84267">
        <ele>690.3</ele>
        <time>2021-05-02T07:24:30.000Z</time>
      </trkpt>
      <trkpt lat="43.68676" lon="6.84267">
        <ele>690.1</ele>
        <time>2021-05-02T07:24:31.000Z</time>
      </trkpt>
      <trkpt lat="43.68672" lon="6.84267">
        <ele>690</ele>
        <time>2021-05-02T07:24:32.000Z</time>
      </trkpt>
      <trkpt lat="43.68669" lon="6.84267">
        <ele>690.1</ele>
        <time>2021-05-02T07:24:33.000Z</time>
      </trkpt>
      <trkpt lat="43.68666" lon="6.84268">
        <ele>690.3</ele>
        <time>2021-05-02T07:24:34.000Z</time>
      </trkpt>
      <trkpt lat="43.68662" lon="6.84268">
        <ele>690.3</ele>
        <time>2021-05-02T07:24:35.000Z</time>
      </trkpt>
      <trkpt lat="43.68658" lon="6.84269">
        <ele>690.6</ele>
        <time>2021-05-02T07:24:36.000Z</time>
      </trkpt>
      <trkpt lat="43.68654" lon="6.84269">
        <ele>691.3</ele>
        <time>2021-05-02T07:24:37.000Z</time>
      </trkpt>
      <trkpt lat="43.6865" lon="6.84269">
        <ele>691.4</ele>
        <time>2021-05-02T07:24:38.000Z</time>
      </trkpt>
      <trkpt lat="43.68646" lon="6.84268">
        <ele>691.7</ele>
        <time>2021-05-02T07:24:39.000Z</time>
      </trkpt>
      <trkpt lat="43.68642" lon="6.84267">
        <ele>691.3</ele>
        <time>2021-05-02T07:24:40.000Z</time>
      </trkpt>
      <trkpt lat="43.68638" lon="6.84266">
        <ele>691.6</ele>
        <time>2021-05-02T07:24:41.000Z</time>
      </trkpt>
      <trkpt lat="43.68634" lon="6.84265">
        <ele>692.2</ele>
        <time>2021-05-02T07:24:42.000Z</time>
      </trkpt>
      <trkpt lat="43.68631" lon="6.84263">
        <ele>692.6</ele>
        <time>2021-05-02T07:24:43.000Z</time>
      </trkpt>
      <trkpt lat="43.68627" lon="6.84262">
        <ele>692.8</ele>
        <time>2021-05-02T07:24:44.000Z</time>
      </trkpt>
      <trkpt lat="43.68624" lon="6.84261">
        <ele>693.2</ele>
        <time>2021-05-02T07:24:45.000Z</time>
      </trkpt>
      <trkpt lat="43.68621" lon="6.8426">
        <ele>693.7</ele>
        <time>2021-05-02T07:24:46.000Z</time>
      </trkpt>
      <trkpt lat="43.68619" lon="6.84259">
        <ele>694.2</ele>
        <time>2021-05-02T07:24:47.000Z</time>
      </trkpt>
      <trkpt lat="43.68616" lon="6.84258">
        <ele>695.1</ele>
        <time>2021-05-02T07:24:48.000Z</time>
      </trkpt>
      <trkpt lat="43.68613" lon="6.84257">
        <ele>695.6</ele>
        <time>2021-05-02T07:24:49.000Z</time>
      </trkpt>
      <trkpt lat="43.68611" lon="6.84256">
        <ele>695.8</ele>
        <time>2021-05-02T07:24:50.000Z</time>
      </trkpt>
      <trkpt lat="43.68608" lon="6.84255">
        <ele>695.9</ele>
        <time>2021-05-02T07:24:51.000Z</time>
      </trkpt>
      <trkpt lat="43.68605" lon="6.84254">
        <ele>696.3</ele>
        <time>2021-05-02T07:24:52.000Z</time>
      </trkpt>
      <trkpt lat="43.68602" lon="6.84254">
        <ele>696.2</ele>
        <time>2021-05-02T07:24:53.000Z</time>
      </trkpt>
      <trkpt lat="43.68599" lon="6.84253">
        <ele>695.6</ele>
        <time>2021-05-02T07:24:54.000Z</time>
      </trkpt>
      <trkpt lat="43.68596" lon="6.84253">
        <ele>695.6</ele>
        <time>2021-05-02T07:24:55.000Z</time>
      </trkpt>
      <trkpt lat="43.68593" lon="6.84253">
        <ele>695.4</ele>
        <time>2021-05-02T07:24:56.000Z</time>
      </trkpt>
      <trkpt lat="43.68587" lon="6.84254">
        <ele>696.4</ele>
        <time>2021-05-02T07:24:58.000Z</time>
      </trkpt>
      <trkpt lat="43.68584" lon="6.84254">
        <ele>696.6</ele>
        <time>2021-05-02T07:24:59.000Z</time>
      </trkpt>
      <trkpt lat="43.68581" lon="6.84254">
        <ele>697.2</ele>
        <time>2021-05-02T07:25:00.000Z</time>
      </trkpt>
      <trkpt lat="43.68578" lon="6.84254">
        <ele>697.8</ele>
        <time>2021-05-02T07:25:01.000Z</time>
      </trkpt>
      <trkpt lat="43.68574" lon="6.84253">
        <ele>697.5</ele>
        <time>2021-05-02T07:25:02.000Z</time>
      </trkpt>
      <trkpt lat="43.68571" lon="6.84253">
        <ele>697.3</ele>
        <time>2021-05-02T07:25:03.000Z</time>
      </trkpt>
      <trkpt lat="43.68568" lon="6.84252">
        <ele>697.4</ele>
        <time>2021-05-02T07:25:04.000Z</time>
      </trkpt>
      <trkpt lat="43.68565" lon="6.84251">
        <ele>697.2</ele>
        <time>2021-05-02T07:25:05.000Z</time>
      </trkpt>
      <trkpt lat="43.68562" lon="6.84249">
        <ele>697.7</ele>
        <time>2021-05-02T07:25:06.000Z</time>
      </trkpt>
      <trkpt lat="43.68559" lon="6.84248">
        <ele>698</ele>
        <time>2021-05-02T07:25:07.000Z</time>
      </trkpt>
      <trkpt lat="43.68556" lon="6.84247">
        <ele>698.2</ele>
        <time>2021-05-02T07:25:08.000Z</time>
      </trkpt>
      <trkpt lat="43.68553" lon="6.84245">
        <ele>698.3</ele>
        <time>2021-05-02T07:25:09.000Z</time>
      </trkpt>
      <trkpt lat="43.6855" lon="6.84244">
        <ele>698.3</ele>
        <time>2021-05-02T07:25:10.000Z</time>
      </trkpt>
      <trkpt lat="43.68547" lon="6.84242">
        <ele>698.2</ele>
        <time>2021-05-02T07:25:11.000Z</time>
      </trkpt>
      <trkpt lat="43.68544" lon="6.84241">
        <ele>698.3</ele>
        <time>2021-05-02T07:25:12.000Z</time>
      </trkpt>
      <trkpt lat="43.68541" lon="6.8424">
        <ele>698.8</ele>
        <time>2021-05-02T07:25:13.000Z</time>
      </trkpt>
      <trkpt lat="43.68538" lon="6.84239">
        <ele>698.6</ele>
        <time>2021-05-02T07:25:14.000Z</time>
      </trkpt>
      <trkpt lat="43.68535" lon="6.84239">
        <ele>698.7</ele>
        <time>2021-05-02T07:25:15.000Z</time>
      </trkpt>
      <trkpt lat="43.68533" lon="6.84238">
        <ele>698.9</ele>
        <time>2021-05-02T07:25:16.000Z</time>
      </trkpt>
      <trkpt lat="43.68529" lon="6.84237">
        <ele>698.4</ele>
        <time>2021-05-02T07:25:17.000Z</time>
      </trkpt>
      <trkpt lat="43.68526" lon="6.84236">
        <ele>697.8</ele>
        <time>2021-05-02T07:25:18.000Z</time>
      </trkpt>
      <trkpt lat="43.68522" lon="6.84235">
        <ele>697.2</ele>
        <time>2021-05-02T07:25:19.000Z</time>
      </trkpt>
      <trkpt lat="43.68517" lon="6.84233">
        <ele>696.9</ele>
        <time>2021-05-02T07:25:20.000Z</time>
      </trkpt>
      <trkpt lat="43.68512" lon="6.84231">
        <ele>696.6</ele>
        <time>2021-05-02T07:25:21.000Z</time>
      </trkpt>
      <trkpt lat="43.68507" lon="6.84229">
        <ele>696.3</ele>
        <time>2021-05-02T07:25:22.000Z</time>
      </trkpt>
      <trkpt lat="43.68502" lon="6.84227">
        <ele>696.2</ele>
        <time>2021-05-02T07:25:23.000Z</time>
      </trkpt>
      <trkpt lat="43.68497" lon="6.84225">
        <ele>695.9</ele>
        <time>2021-05-02T07:25:24.000Z</time>
      </trkpt>
      <trkpt lat="43.68492" lon="6.84221">
        <ele>695.5</ele>
        <time>2021-05-02T07:25:25.000Z</time>
      </trkpt>
      <trkpt lat="43.68488" lon="6.84218">
        <ele>695.6</ele>
        <time>2021-05-02T07:25:26.000Z</time>
      </trkpt>
      <trkpt lat="43.68483" lon="6.84215">
        <ele>696.1</ele>
        <time>2021-05-02T07:25:27.000Z</time>
      </trkpt>
      <trkpt lat="43.68474" lon="6.84209">
        <ele>696</ele>
        <time>2021-05-02T07:25:29.000Z</time>
      </trkpt>
      <trkpt lat="43.68468" lon="6.84207">
        <ele>695.9</ele>
        <time>2021-05-02T07:25:30.000Z</time>
      </trkpt>
      <trkpt lat="43.68463" lon="6.84206">
        <ele>695.5</ele>
        <time>2021-05-02T07:25:31.000Z</time>
      </trkpt>
      <trkpt lat="43.68457" lon="6.84206">
        <ele>695.1</ele>
        <time>2021-05-02T07:25:32.000Z</time>
      </trkpt>
      <trkpt lat="43.68452" lon="6.84206">
        <ele>694.7</ele>
        <time>2021-05-02T07:25:33.000Z</time>
      </trkpt>
      <trkpt lat="43.68447" lon="6.84205">
        <ele>695</ele>
        <time>2021-05-02T07:25:34.000Z</time>
      </trkpt>
      <trkpt lat="43.68442" lon="6.84203">
        <ele>694.8</ele>
        <time>2021-05-02T07:25:35.000Z</time>
      </trkpt>
      <trkpt lat="43.68436" lon="6.84201">
        <ele>694.5</ele>
        <time>2021-05-02T07:25:36.000Z</time>
      </trkpt>
      <trkpt lat="43.68431" lon="6.842">
        <ele>695.3</ele>
        <time>2021-05-02T07:25:37.000Z</time>
      </trkpt>
      <trkpt lat="43.68426" lon="6.84198">
        <ele>695.2</ele>
        <time>2021-05-02T07:25:38.000Z</time>
      </trkpt>
      <trkpt lat="43.68422" lon="6.84196">
        <ele>694.7</ele>
        <time>2021-05-02T07:25:39.000Z</time>
      </trkpt>
      <trkpt lat="43.68417" lon="6.84195">
        <ele>694.1</ele>
        <time>2021-05-02T07:25:40.000Z</time>
      </trkpt>
      <trkpt lat="43.68413" lon="6.84193">
        <ele>693.8</ele>
        <time>2021-05-02T07:25:41.000Z</time>
      </trkpt>
      <trkpt lat="43.68408" lon="6.84192">
        <ele>693.8</ele>
        <time>2021-05-02T07:25:42.000Z</time>
      </trkpt>
      <trkpt lat="43.68404" lon="6.84191">
        <ele>694.2</ele>
        <time>2021-05-02T07:25:43.000Z</time>
      </trkpt>
      <trkpt lat="43.68399" lon="6.8419">
        <ele>694.3</ele>
        <time>2021-05-02T07:25:44.000Z</time>
      </trkpt>
      <trkpt lat="43.68396" lon="6.84189">
        <ele>694.8</ele>
        <time>2021-05-02T07:25:45.000Z</time>
      </trkpt>
      <trkpt lat="43.68392" lon="6.84188">
        <ele>694.6</ele>
        <time>2021-05-02T07:25:46.000Z</time>
      </trkpt>
      <trkpt lat="43.68388" lon="6.84186">
        <ele>694.9</ele>
        <time>2021-05-02T07:25:47.000Z</time>
      </trkpt>
      <trkpt lat="43.68385" lon="6.84186">
        <ele>695</ele>
        <time>2021-05-02T07:25:48.000Z</time>
      </trkpt>
      <trkpt lat="43.6838" lon="6.84185">
        <ele>694.9</ele>
        <time>2021-05-02T07:25:49.000Z</time>
      </trkpt>
      <trkpt lat="43.68376" lon="6.84184">
        <ele>694.2</ele>
        <time>2021-05-02T07:25:50.000Z</time>
      </trkpt>
      <trkpt lat="43.68372" lon="6.84184">
        <ele>694.1</ele>
        <time>2021-05-02T07:25:51.000Z</time>
      </trkpt>
      <trkpt lat="43.68368" lon="6.84183">
        <ele>694.2</ele>
        <time>2021-05-02T07:25:52.000Z</time>
      </trkpt>
      <trkpt lat="43.68364" lon="6.84182">
        <ele>693.9</ele>
        <time>2021-05-02T07:25:53.000Z</time>
      </trkpt>
      <trkpt lat="43.68361" lon="6.84181">
        <ele>693.8</ele>
        <time>2021-05-02T07:25:54.000Z</time>
      </trkpt>
      <trkpt lat="43.68357" lon="6.8418">
        <ele>693.8</ele>
        <time>2021-05-02T07:25:55.000Z</time>
      </trkpt>
      <trkpt lat="43.68354" lon="6.84179">
        <ele>693.8</ele>
        <time>2021-05-02T07:25:56.000Z</time>
      </trkpt>
      <trkpt lat="43.68351" lon="6.84177">
        <ele>694</ele>
        <time>2021-05-02T07:25:57.000Z</time>
      </trkpt>
      <trkpt lat="43.68347" lon="6.84176">
        <ele>694</ele>
        <time>2021-05-02T07:25:58.000Z</time>
      </trkpt>
      <trkpt lat="43.68344" lon="6.84175">
        <ele>694.4</ele>
        <time>2021-05-02T07:25:59.000Z</time>
      </trkpt>
      <trkpt lat="43.6834" lon="6.84174">
        <ele>694.4</ele>
        <time>2021-05-02T07:26:00.000Z</time>
      </trkpt>
      <trkpt lat="43.68337" lon="6.84173">
        <ele>694.9</ele>
        <time>2021-05-02T07:26:01.000Z</time>
      </trkpt>
      <trkpt lat="43.68334" lon="6.84172">
        <ele>695.2</ele>
        <time>2021-05-02T07:26:02.000Z</time>
      </trkpt>
      <trkpt lat="43.68332" lon="6.84171">
        <ele>695.3</ele>
        <time>2021-05-02T07:26:03.000Z</time>
      </trkpt>
      <trkpt lat="43.68329" lon="6.8417">
        <ele>695.6</ele>
        <time>2021-05-02T07:26:04.000Z</time>
      </trkpt>
      <trkpt lat="43.68326" lon="6.84169">
        <ele>695.8</ele>
        <time>2021-05-02T07:26:05.000Z</time>
      </trkpt>
      <trkpt lat="43.68323" lon="6.84167">
        <ele>695.6</ele>
        <time>2021-05-02T07:26:06.000Z</time>
      </trkpt>
      <trkpt lat="43.6832" lon="6.84166">
        <ele>695.8</ele>
        <time>2021-05-02T07:26:07.000Z</time>
      </trkpt>
      <trkpt lat="43.68317" lon="6.84164">
        <ele>695.9</ele>
        <time>2021-05-02T07:26:08.000Z</time>
      </trkpt>
      <trkpt lat="43.68314" lon="6.84163">
        <ele>696.1</ele>
        <time>2021-05-02T07:26:09.000Z</time>
      </trkpt>
      <trkpt lat="43.6831" lon="6.84162">
        <ele>696.5</ele>
        <time>2021-05-02T07:26:10.000Z</time>
      </trkpt>
      <trkpt lat="43.68307" lon="6.8416">
        <ele>697.1</ele>
        <time>2021-05-02T07:26:11.000Z</time>
      </trkpt>
      <trkpt lat="43.68303" lon="6.84159">
        <ele>697.2</ele>
        <time>2021-05-02T07:26:12.000Z</time>
      </trkpt>
      <trkpt lat="43.68299" lon="6.84157">
        <ele>696.7</ele>
        <time>2021-05-02T07:26:13.000Z</time>
      </trkpt>
      <trkpt lat="43.68295" lon="6.84156">
        <ele>696.6</ele>
        <time>2021-05-02T07:26:14.000Z</time>
      </trkpt>
      <trkpt lat="43.68291" lon="6.84154">
        <ele>696.7</ele>
        <time>2021-05-02T07:26:15.000Z</time>
      </trkpt>
      <trkpt lat="43.68287" lon="6.84152">
        <ele>696.6</ele>
        <time>2021-05-02T07:26:16.000Z</time>
      </trkpt>
      <trkpt lat="43.68282" lon="6.84151">
        <ele>696.1</ele>
        <time>2021-05-02T07:26:17.000Z</time>
      </trkpt>
      <trkpt lat="43.68277" lon="6.84149">
        <ele>696.1</ele>
        <time>2021-05-02T07:26:18.000Z</time>
      </trkpt>
      <trkpt lat="43.68272" lon="6.84148">
        <ele>695.7</ele>
        <time>2021-05-02T07:26:19.000Z</time>
      </trkpt>
      <trkpt lat="43.68267" lon="6.84147">
        <ele>694.8</ele>
        <time>2021-05-02T07:26:20.000Z</time>
      </trkpt>
      <trkpt lat="43.68261" lon="6.84146">
        <ele>694.4</ele>
        <time>2021-05-02T07:26:21.000Z</time>
      </trkpt>
      <trkpt lat="43.68255" lon="6.84145">
        <ele>694.4</ele>
        <time>2021-05-02T07:26:22.000Z</time>
      </trkpt>
      <trkpt lat="43.6825" lon="6.84144">
        <ele>694.2</ele>
        <time>2021-05-02T07:26:23.000Z</time>
      </trkpt>
      <trkpt lat="43.68245" lon="6.84142">
        <ele>693.6</ele>
        <time>2021-05-02T07:26:24.000Z</time>
      </trkpt>
      <trkpt lat="43.6824" lon="6.8414">
        <ele>693</ele>
        <time>2021-05-02T07:26:25.000Z</time>
      </trkpt>
      <trkpt lat="43.68235" lon="6.84138">
        <ele>692.7</ele>
        <time>2021-05-02T07:26:26.000Z</time>
      </trkpt>
      <trkpt lat="43.68232" lon="6.84136">
        <ele>692.8</ele>
        <time>2021-05-02T07:26:27.000Z</time>
      </trkpt>
      <trkpt lat="43.68229" lon="6.84134">
        <ele>693.1</ele>
        <time>2021-05-02T07:26:28.000Z</time>
      </trkpt>
      <trkpt lat="43.68225" lon="6.84131">
        <ele>692.2</ele>
        <time>2021-05-02T07:26:29.000Z</time>
      </trkpt>
      <trkpt lat="43.68222" lon="6.84129">
        <ele>691.9</ele>
        <time>2021-05-02T07:26:30.000Z</time>
      </trkpt>
      <trkpt lat="43.68218" lon="6.84127">
        <ele>692</ele>
        <time>2021-05-02T07:26:31.000Z</time>
      </trkpt>
      <trkpt lat="43.68214" lon="6.84124">
        <ele>691.3</ele>
        <time>2021-05-02T07:26:32.000Z</time>
      </trkpt>
      <trkpt lat="43.6821" lon="6.84122">
        <ele>691.3</ele>
        <time>2021-05-02T07:26:33.000Z</time>
      </trkpt>
      <trkpt lat="43.68206" lon="6.8412">
        <ele>690.6</ele>
        <time>2021-05-02T07:26:34.000Z</time>
      </trkpt>
      <trkpt lat="43.68202" lon="6.84118">
        <ele>689.9</ele>
        <time>2021-05-02T07:26:35.000Z</time>
      </trkpt>
      <trkpt lat="43.68197" lon="6.84116">
        <ele>688.6</ele>
        <time>2021-05-02T07:26:36.000Z</time>
      </trkpt>
      <trkpt lat="43.68192" lon="6.84114">
        <ele>687.7</ele>
        <time>2021-05-02T07:26:37.000Z</time>
      </trkpt>
      <trkpt lat="43.68186" lon="6.84112">
        <ele>686.5</ele>
        <time>2021-05-02T07:26:38.000Z</time>
      </trkpt>
      <trkpt lat="43.6818" lon="6.84109">
        <ele>685.6</ele>
        <time>2021-05-02T07:26:39.000Z</time>
      </trkpt>
      <trkpt lat="43.68175" lon="6.84107">
        <ele>685.4</ele>
        <time>2021-05-02T07:26:40.000Z</time>
      </trkpt>
      <trkpt lat="43.6817" lon="6.84105">
        <ele>685.2</ele>
        <time>2021-05-02T07:26:41.000Z</time>
      </trkpt>
      <trkpt lat="43.68164" lon="6.84104">
        <ele>684.6</ele>
        <time>2021-05-02T07:26:42.000Z</time>
      </trkpt>
      <trkpt lat="43.68159" lon="6.84102">
        <ele>684.5</ele>
        <time>2021-05-02T07:26:43.000Z</time>
      </trkpt>
      <trkpt lat="43.68155" lon="6.841">
        <ele>684.4</ele>
        <time>2021-05-02T07:26:44.000Z</time>
      </trkpt>
      <trkpt lat="43.68151" lon="6.84097">
        <ele>684.4</ele>
        <time>2021-05-02T07:26:45.000Z</time>
      </trkpt>
      <trkpt lat="43.68146" lon="6.84094">
        <ele>684.4</ele>
        <time>2021-05-02T07:26:46.000Z</time>
      </trkpt>
      <trkpt lat="43.68142" lon="6.84091">
        <ele>684.6</ele>
        <time>2021-05-02T07:26:47.000Z</time>
      </trkpt>
      <trkpt lat="43.68137" lon="6.84087">
        <ele>685.3</ele>
        <time>2021-05-02T07:26:48.000Z</time>
      </trkpt>
      <trkpt lat="43.68133" lon="6.84083">
        <ele>685.9</ele>
        <time>2021-05-02T07:26:49.000Z</time>
      </trkpt>
      <trkpt lat="43.68129" lon="6.8408">
        <ele>685.9</ele>
        <time>2021-05-02T07:26:50.000Z</time>
      </trkpt>
      <trkpt lat="43.68125" lon="6.84076">
        <ele>686.1</ele>
        <time>2021-05-02T07:26:51.000Z</time>
      </trkpt>
      <trkpt lat="43.6812" lon="6.84074">
        <ele>686.1</ele>
        <time>2021-05-02T07:26:52.000Z</time>
      </trkpt>
      <trkpt lat="43.68115" lon="6.84071">
        <ele>685</ele>
        <time>2021-05-02T07:26:53.000Z</time>
      </trkpt>
      <trkpt lat="43.6811" lon="6.84068">
        <ele>684.1</ele>
        <time>2021-05-02T07:26:54.000Z</time>
      </trkpt>
      <trkpt lat="43.68105" lon="6.84066">
        <ele>683.1</ele>
        <time>2021-05-02T07:26:55.000Z</time>
      </trkpt>
      <trkpt lat="43.68099" lon="6.84063">
        <ele>682.2</ele>
        <time>2021-05-02T07:26:56.000Z</time>
      </trkpt>
      <trkpt lat="43.68094" lon="6.8406">
        <ele>681.7</ele>
        <time>2021-05-02T07:26:57.000Z</time>
      </trkpt>
      <trkpt lat="43.68089" lon="6.84057">
        <ele>680.8</ele>
        <time>2021-05-02T07:26:58.000Z</time>
      </trkpt>
      <trkpt lat="43.68084" lon="6.84053">
        <ele>680.5</ele>
        <time>2021-05-02T07:26:59.000Z</time>
      </trkpt>
      <trkpt lat="43.68079" lon="6.8405">
        <ele>680.1</ele>
        <time>2021-05-02T07:27:00.000Z</time>
      </trkpt>
      <trkpt lat="43.68074" lon="6.84047">
        <ele>679.8</ele>
        <time>2021-05-02T07:27:01.000Z</time>
      </trkpt>
      <trkpt lat="43.68069" lon="6.84043">
        <ele>679.3</ele>
        <time>2021-05-02T07:27:02.000Z</time>
      </trkpt>
      <trkpt lat="43.68065" lon="6.84039">
        <ele>678.7</ele>
        <time>2021-05-02T07:27:03.000Z</time>
      </trkpt>
      <trkpt lat="43.6806" lon="6.84035">
        <ele>678.2</ele>
        <time>2021-05-02T07:27:04.000Z</time>
      </trkpt>
      <trkpt lat="43.68056" lon="6.84031">
        <ele>678.1</ele>
        <time>2021-05-02T07:27:05.000Z</time>
      </trkpt>
      <trkpt lat="43.68052" lon="6.84028">
        <ele>677.7</ele>
        <time>2021-05-02T07:27:06.000Z</time>
      </trkpt>
      <trkpt lat="43.68049" lon="6.84026">
        <ele>677.6</ele>
        <time>2021-05-02T07:27:07.000Z</time>
      </trkpt>
      <trkpt lat="43.68046" lon="6.84025">
        <ele>677.3</ele>
        <time>2021-05-02T07:27:08.000Z</time>
      </trkpt>
      <trkpt lat="43.68044" lon="6.84023">
        <ele>676.5</ele>
        <time>2021-05-02T07:27:09.000Z</time>
      </trkpt>
      <trkpt lat="43.68041" lon="6.84023">
        <ele>675.9</ele>
        <time>2021-05-02T07:27:10.000Z</time>
      </trkpt>
      <trkpt lat="43.68038" lon="6.84023">
        <ele>675.9</ele>
        <time>2021-05-02T07:27:11.000Z</time>
      </trkpt>
      <trkpt lat="43.68035" lon="6.84023">
        <ele>675.3</ele>
        <time>2021-05-02T07:27:12.000Z</time>
      </trkpt>
      <trkpt lat="43.68032" lon="6.84023">
        <ele>675.2</ele>
        <time>2021-05-02T07:27:13.000Z</time>
      </trkpt>
      <trkpt lat="43.68028" lon="6.84023">
        <ele>675.1</ele>
        <time>2021-05-02T07:27:14.000Z</time>
      </trkpt>
      <trkpt lat="43.68025" lon="6.84022">
        <ele>674.9</ele>
        <time>2021-05-02T07:27:15.000Z</time>
      </trkpt>
      <trkpt lat="43.68022" lon="6.84022">
        <ele>674.6</ele>
        <time>2021-05-02T07:27:16.000Z</time>
      </trkpt>
      <trkpt lat="43.6802" lon="6.84022">
        <ele>674.4</ele>
        <time>2021-05-02T07:27:17.000Z</time>
      </trkpt>
      <trkpt lat="43.68018" lon="6.84021">
        <ele>674.5</ele>
        <time>2021-05-02T07:27:18.000Z</time>
      </trkpt>
      <trkpt lat="43.68016" lon="6.84021">
        <ele>674.5</ele>
        <time>2021-05-02T07:27:19.000Z</time>
      </trkpt>
      <trkpt lat="43.68013" lon="6.8402">
        <ele>675.4</ele>
        <time>2021-05-02T07:27:32.000Z</time>
      </trkpt>
      <trkpt lat="43.68011" lon="6.84019">
        <ele>675.5</ele>
        <time>2021-05-02T07:27:33.000Z</time>
      </trkpt>
      <trkpt lat="43.68009" lon="6.84018">
        <ele>675.6</ele>
        <time>2021-05-02T07:27:34.000Z</time>
      </trkpt>
      <trkpt lat="43.68007" lon="6.84017">
        <ele>675.8</ele>
        <time>2021-05-02T07:27:35.000Z</time>
      </trkpt>
      <trkpt lat="43.68005" lon="6.84016">
        <ele>676</ele>
        <time>2021-05-02T07:27:36.000Z</time>
      </trkpt>
      <trkpt lat="43.68003" lon="6.84015">
        <ele>676.2</ele>
        <time>2021-05-02T07:27:37.000Z</time>
      </trkpt>
      <trkpt lat="43.68" lon="6.84014">
        <ele>676</ele>
        <time>2021-05-02T07:27:38.000Z</time>
      </trkpt>
      <trkpt lat="43.67998" lon="6.84013">
        <ele>676.1</ele>
        <time>2021-05-02T07:27:39.000Z</time>
      </trkpt>
      <trkpt lat="43.67997" lon="6.84012">
        <ele>676.2</ele>
        <time>2021-05-02T07:27:40.000Z</time>
      </trkpt>
      <trkpt lat="43.67994" lon="6.8401">
        <ele>675.9</ele>
        <time>2021-05-02T07:27:41.000Z</time>
      </trkpt>
      <trkpt lat="43.67992" lon="6.84009">
        <ele>676</ele>
        <time>2021-05-02T07:27:42.000Z</time>
      </trkpt>
      <trkpt lat="43.6799" lon="6.84008">
        <ele>676</ele>
        <time>2021-05-02T07:27:43.000Z</time>
      </trkpt>
      <trkpt lat="43.67988" lon="6.84007">
        <ele>676.1</ele>
        <time>2021-05-02T07:27:44.000Z</time>
      </trkpt>
      <trkpt lat="43.67986" lon="6.84006">
        <ele>675.9</ele>
        <time>2021-05-02T07:27:45.000Z</time>
      </trkpt>
      <trkpt lat="43.67983" lon="6.84005">
        <ele>676.1</ele>
        <time>2021-05-02T07:27:46.000Z</time>
      </trkpt>
      <trkpt lat="43.6798" lon="6.84003">
        <ele>676.3</ele>
        <time>2021-05-02T07:27:47.000Z</time>
      </trkpt>
      <trkpt lat="43.67978" lon="6.84001">
        <ele>676.1</ele>
        <time>2021-05-02T07:27:48.000Z</time>
      </trkpt>
      <trkpt lat="43.67976" lon="6.83999">
        <ele>676.4</ele>
        <time>2021-05-02T07:27:49.000Z</time>
      </trkpt>
      <trkpt lat="43.67973" lon="6.83996">
        <ele>676.3</ele>
        <time>2021-05-02T07:27:50.000Z</time>
      </trkpt>
      <trkpt lat="43.67971" lon="6.83994">
        <ele>676.4</ele>
        <time>2021-05-02T07:27:51.000Z</time>
      </trkpt>
      <trkpt lat="43.67968" lon="6.83992">
        <ele>676.6</ele>
        <time>2021-05-02T07:27:52.000Z</time>
      </trkpt>
      <trkpt lat="43.67965" lon="6.83991">
        <ele>676.8</ele>
        <time>2021-05-02T07:27:53.000Z</time>
      </trkpt>
      <trkpt lat="43.67962" lon="6.83991">
        <ele>676.2</ele>
        <time>2021-05-02T07:27:54.000Z</time>
      </trkpt>
      <trkpt lat="43.67959" lon="6.8399">
        <ele>676.2</ele>
        <time>2021-05-02T07:27:55.000Z</time>
      </trkpt>
      <trkpt lat="43.67957" lon="6.83988">
        <ele>676.8</ele>
        <time>2021-05-02T07:27:56.000Z</time>
      </trkpt>
      <trkpt lat="43.67954" lon="6.83986">
        <ele>677.2</ele>
        <time>2021-05-02T07:27:57.000Z</time>
      </trkpt>
      <trkpt lat="43.67952" lon="6.83985">
        <ele>677.2</ele>
        <time>2021-05-02T07:27:58.000Z</time>
      </trkpt>
      <trkpt lat="43.67949" lon="6.83984">
        <ele>677.2</ele>
        <time>2021-05-02T07:27:59.000Z</time>
      </trkpt>
      <trkpt lat="43.67947" lon="6.83981">
        <ele>677.6</ele>
        <time>2021-05-02T07:28:00.000Z</time>
      </trkpt>
      <trkpt lat="43.67945" lon="6.83978">
        <ele>677.8</ele>
        <time>2021-05-02T07:28:01.000Z</time>
      </trkpt>
      <trkpt lat="43.67943" lon="6.83975">
        <ele>677.7</ele>
        <time>2021-05-02T07:28:02.000Z</time>
      </trkpt>
      <trkpt lat="43.67941" lon="6.83973">
        <ele>677.7</ele>
        <time>2021-05-02T07:28:03.000Z</time>
      </trkpt>
      <trkpt lat="43.6794" lon="6.83971">
        <ele>678</ele>
        <time>2021-05-02T07:28:04.000Z</time>
      </trkpt>
      <trkpt lat="43.67939" lon="6.8397">
        <ele>678.2</ele>
        <time>2021-05-02T07:28:05.000Z</time>
      </trkpt>
      <trkpt lat="43.67933" lon="6.8396">
        <ele>678.5</ele>
        <time>2021-05-02T07:28:20.000Z</time>
      </trkpt>
      <trkpt lat="43.67929" lon="6.83955">
        <ele>678.7</ele>
        <time>2021-05-02T07:28:36.000Z</time>
      </trkpt>
      <trkpt lat="43.67928" lon="6.83954">
        <ele>678.6</ele>
        <time>2021-05-02T07:28:37.000Z</time>
      </trkpt>
      <trkpt lat="43.67926" lon="6.83952">
        <ele>678.7</ele>
        <time>2021-05-02T07:28:38.000Z</time>
      </trkpt>
      <trkpt lat="43.67925" lon="6.83951">
        <ele>678.6</ele>
        <time>2021-05-02T07:28:39.000Z</time>
      </trkpt>
      <trkpt lat="43.67923" lon="6.8395">
        <ele>678.5</ele>
        <time>2021-05-02T07:28:40.000Z</time>
      </trkpt>
      <trkpt lat="43.67922" lon="6.83948">
        <ele>678.3</ele>
        <time>2021-05-02T07:28:41.000Z</time>
      </trkpt>
      <trkpt lat="43.6792" lon="6.83947">
        <ele>678</ele>
        <time>2021-05-02T07:28:42.000Z</time>
      </trkpt>
      <trkpt lat="43.67918" lon="6.83946">
        <ele>677.8</ele>
        <time>2021-05-02T07:28:43.000Z</time>
      </trkpt>
      <trkpt lat="43.67916" lon="6.83945">
        <ele>677.8</ele>
        <time>2021-05-02T07:28:44.000Z</time>
      </trkpt>
      <trkpt lat="43.67914" lon="6.83943">
        <ele>677.4</ele>
        <time>2021-05-02T07:28:45.000Z</time>
      </trkpt>
      <trkpt lat="43.67912" lon="6.83942">
        <ele>677.2</ele>
        <time>2021-05-02T07:28:46.000Z</time>
      </trkpt>
      <trkpt lat="43.6791" lon="6.83941">
        <ele>676.8</ele>
        <time>2021-05-02T07:28:47.000Z</time>
      </trkpt>
      <trkpt lat="43.67908" lon="6.83939">
        <ele>676.5</ele>
        <time>2021-05-02T07:28:48.000Z</time>
      </trkpt>
      <trkpt lat="43.67906" lon="6.83938">
        <ele>676.3</ele>
        <time>2021-05-02T07:28:49.000Z</time>
      </trkpt>
      <trkpt lat="43.67904" lon="6.83937">
        <ele>676.1</ele>
        <time>2021-05-02T07:28:50.000Z</time>
      </trkpt>
      <trkpt lat="43.67902" lon="6.83936">
        <ele>675.8</ele>
        <time>2021-05-02T07:28:51.000Z</time>
      </trkpt>
      <trkpt lat="43.679" lon="6.83936">
        <ele>675.6</ele>
        <time>2021-05-02T07:28:52.000Z</time>
      </trkpt>
      <trkpt lat="43.67898" lon="6.83936">
        <ele>675.5</ele>
        <time>2021-05-02T07:28:53.000Z</time>
      </trkpt>
      <trkpt lat="43.67896" lon="6.83935">
        <ele>675.5</ele>
        <time>2021-05-02T07:28:54.000Z</time>
      </trkpt>
      <trkpt lat="43.67894" lon="6.83935">
        <ele>675.5</ele>
        <time>2021-05-02T07:28:55.000Z</time>
      </trkpt>
      <trkpt lat="43.67891" lon="6.83935">
        <ele>675.4</ele>
        <time>2021-05-02T07:28:56.000Z</time>
      </trkpt>
      <trkpt lat="43.67889" lon="6.83935">
        <ele>674.9</ele>
        <time>2021-05-02T07:28:57.000Z</time>
      </trkpt>
      <trkpt lat="43.67887" lon="6.83935">
        <ele>675.1</ele>
        <time>2021-05-02T07:28:58.000Z</time>
      </trkpt>
      <trkpt lat="43.67885" lon="6.83936">
        <ele>675.1</ele>
        <time>2021-05-02T07:28:59.000Z</time>
      </trkpt>
      <trkpt lat="43.67882" lon="6.83937">
        <ele>675.4</ele>
        <time>2021-05-02T07:29:00.000Z</time>
      </trkpt>
      <trkpt lat="43.67879" lon="6.83937">
        <ele>675.3</ele>
        <time>2021-05-02T07:29:01.000Z</time>
      </trkpt>
      <trkpt lat="43.67877" lon="6.83937">
        <ele>675.5</ele>
        <time>2021-05-02T07:29:02.000Z</time>
      </trkpt>
      <trkpt lat="43.67875" lon="6.83936">
        <ele>675.5</ele>
        <time>2021-05-02T07:29:03.000Z</time>
      </trkpt>
      <trkpt lat="43.67873" lon="6.83936">
        <ele>675.7</ele>
        <time>2021-05-02T07:29:04.000Z</time>
      </trkpt>
      <trkpt lat="43.67872" lon="6.83937">
        <ele>675.7</ele>
        <time>2021-05-02T07:29:05.000Z</time>
      </trkpt>
      <trkpt lat="43.6787" lon="6.83938">
        <ele>675.8</ele>
        <time>2021-05-02T07:29:06.000Z</time>
      </trkpt>
      <trkpt lat="43.6787" lon="6.8394">
        <ele>675.8</ele>
        <time>2021-05-02T07:29:08.000Z</time>
      </trkpt>
      <trkpt lat="43.67868" lon="6.83941">
        <ele>675.8</ele>
        <time>2021-05-02T07:29:16.000Z</time>
      </trkpt>
      <trkpt lat="43.67867" lon="6.83941">
        <ele>675.9</ele>
        <time>2021-05-02T07:29:18.000Z</time>
      </trkpt>
      <trkpt lat="43.67858" lon="6.8394">
        <ele>675.8</ele>
        <time>2021-05-02T07:29:28.000Z</time>
      </trkpt>
      <trkpt lat="43.67857" lon="6.83939">
        <ele>675.8</ele>
        <time>2021-05-02T07:29:29.000Z</time>
      </trkpt>
      <trkpt lat="43.67855" lon="6.83939">
        <ele>675.8</ele>
        <time>2021-05-02T07:29:30.000Z</time>
      </trkpt>
      <trkpt lat="43.67853" lon="6.83938">
        <ele>675.9</ele>
        <time>2021-05-02T07:29:31.000Z</time>
      </trkpt>
      <trkpt lat="43.67852" lon="6.83938">
        <ele>675.8</ele>
        <time>2021-05-02T07:29:32.000Z</time>
      </trkpt>
      <trkpt lat="43.6785" lon="6.83938">
        <ele>675.9</ele>
        <time>2021-05-02T07:29:33.000Z</time>
      </trkpt>
      <trkpt lat="43.67849" lon="6.83938">
        <ele>676</ele>
        <time>2021-05-02T07:29:34.000Z</time>
      </trkpt>
      <trkpt lat="43.67848" lon="6.83938">
        <ele>676</ele>
        <time>2021-05-02T07:29:35.000Z</time>
      </trkpt>
      <trkpt lat="43.67847" lon="6.83938">
        <ele>676</ele>
        <time>2021-05-02T07:29:37.000Z</time>
      </trkpt>
      <trkpt lat="43.67839" lon="6.83943">
        <ele>675.6</ele>
        <time>2021-05-02T07:29:54.000Z</time>
      </trkpt>
      <trkpt lat="43.67838" lon="6.83944">
        <ele>675.2</ele>
        <time>2021-05-02T07:29:55.000Z</time>
      </trkpt>
      <trkpt lat="43.67838" lon="6.83946">
        <ele>675.1</ele>
        <time>2021-05-02T07:29:56.000Z</time>
      </trkpt>
      <trkpt lat="43.67836" lon="6.83948">
        <ele>675</ele>
        <time>2021-05-02T07:29:57.000Z</time>
      </trkpt>
      <trkpt lat="43.67835" lon="6.83949">
        <ele>675</ele>
        <time>2021-05-02T07:29:58.000Z</time>
      </trkpt>
      <trkpt lat="43.67834" lon="6.8395">
        <ele>674.8</ele>
        <time>2021-05-02T07:29:59.000Z</time>
      </trkpt>
      <trkpt lat="43.67832" lon="6.83952">
        <ele>674.8</ele>
        <time>2021-05-02T07:30:00.000Z</time>
      </trkpt>
      <trkpt lat="43.67831" lon="6.83953">
        <ele>674.9</ele>
        <time>2021-05-02T07:30:01.000Z</time>
      </trkpt>
      <trkpt lat="43.6783" lon="6.83954">
        <ele>674.8</ele>
        <time>2021-05-02T07:30:02.000Z</time>
      </trkpt>
      <trkpt lat="43.67828" lon="6.83954">
        <ele>674.8</ele>
        <time>2021-05-02T07:30:04.000Z</time>
      </trkpt>
      <trkpt lat="43.67826" lon="6.83954">
        <ele>675</ele>
        <time>2021-05-02T07:30:05.000Z</time>
      </trkpt>
      <trkpt lat="43.67825" lon="6.83955">
        <ele>675</ele>
        <time>2021-05-02T07:30:06.000Z</time>
      </trkpt>
      <trkpt lat="43.67822" lon="6.83956">
        <ele>675.1</ele>
        <time>2021-05-02T07:30:07.000Z</time>
      </trkpt>
      <trkpt lat="43.6782" lon="6.83956">
        <ele>675</ele>
        <time>2021-05-02T07:30:08.000Z</time>
      </trkpt>
      <trkpt lat="43.67818" lon="6.83957">
        <ele>674.8</ele>
        <time>2021-05-02T07:30:09.000Z</time>
      </trkpt>
      <trkpt lat="43.67816" lon="6.83958">
        <ele>674.4</ele>
        <time>2021-05-02T07:30:10.000Z</time>
      </trkpt>
      <trkpt lat="43.67813" lon="6.83959">
        <ele>674.1</ele>
        <time>2021-05-02T07:30:11.000Z</time>
      </trkpt>
      <trkpt lat="43.67811" lon="6.83959">
        <ele>673.7</ele>
        <time>2021-05-02T07:30:12.000Z</time>
      </trkpt>
      <trkpt lat="43.67808" lon="6.8396">
        <ele>673.3</ele>
        <time>2021-05-02T07:30:13.000Z</time>
      </trkpt>
      <trkpt lat="43.67805" lon="6.83961">
        <ele>673</ele>
        <time>2021-05-02T07:30:14.000Z</time>
      </trkpt>
      <trkpt lat="43.67802" lon="6.83962">
        <ele>672.9</ele>
        <time>2021-05-02T07:30:15.000Z</time>
      </trkpt>
      <trkpt lat="43.678" lon="6.83962">
        <ele>673</ele>
        <time>2021-05-02T07:30:16.000Z</time>
      </trkpt>
      <trkpt lat="43.67797" lon="6.83963">
        <ele>672.7</ele>
        <time>2021-05-02T07:30:17.000Z</time>
      </trkpt>
      <trkpt lat="43.67794" lon="6.83963">
        <ele>672.8</ele>
        <time>2021-05-02T07:30:18.000Z</time>
      </trkpt>
      <trkpt lat="43.67791" lon="6.83964">
        <ele>673.1</ele>
        <time>2021-05-02T07:30:19.000Z</time>
      </trkpt>
      <trkpt lat="43.67788" lon="6.83965">
        <ele>673.5</ele>
        <time>2021-05-02T07:30:20.000Z</time>
      </trkpt>
      <trkpt lat="43.67785" lon="6.83965">
        <ele>673.8</ele>
        <time>2021-05-02T07:30:21.000Z</time>
      </trkpt>
      <trkpt lat="43.67782" lon="6.83965">
        <ele>674.2</ele>
        <time>2021-05-02T07:30:22.000Z</time>
      </trkpt>
      <trkpt lat="43.6778" lon="6.83966">
        <ele>674.5</ele>
        <time>2021-05-02T07:30:23.000Z</time>
      </trkpt>
      <trkpt lat="43.67777" lon="6.83966">
        <ele>674.3</ele>
        <time>2021-05-02T07:30:24.000Z</time>
      </trkpt>
      <trkpt lat="43.67774" lon="6.83966">
        <ele>674.1</ele>
        <time>2021-05-02T07:30:25.000Z</time>
      </trkpt>
      <trkpt lat="43.67772" lon="6.83966">
        <ele>673.8</ele>
        <time>2021-05-02T07:30:26.000Z</time>
      </trkpt>
      <trkpt lat="43.67769" lon="6.83966">
        <ele>673.6</ele>
        <time>2021-05-02T07:30:27.000Z</time>
      </trkpt>
      <trkpt lat="43.67767" lon="6.83967">
        <ele>673.7</ele>
        <time>2021-05-02T07:30:28.000Z</time>
      </trkpt>
      <trkpt lat="43.67765" lon="6.83967">
        <ele>674.1</ele>
        <time>2021-05-02T07:30:29.000Z</time>
      </trkpt>
      <trkpt lat="43.67762" lon="6.83968">
        <ele>674.5</ele>
        <time>2021-05-02T07:30:30.000Z</time>
      </trkpt>
      <trkpt lat="43.67759" lon="6.83968">
        <ele>675.3</ele>
        <time>2021-05-02T07:30:31.000Z</time>
      </trkpt>
      <trkpt lat="43.67755" lon="6.83969">
        <ele>675.3</ele>
        <time>2021-05-02T07:30:32.000Z</time>
      </trkpt>
      <trkpt lat="43.67751" lon="6.83969">
        <ele>675.7</ele>
        <time>2021-05-02T07:30:33.000Z</time>
      </trkpt>
      <trkpt lat="43.67748" lon="6.83968">
        <ele>675.9</ele>
        <time>2021-05-02T07:30:34.000Z</time>
      </trkpt>
      <trkpt lat="43.67744" lon="6.83968">
        <ele>675.8</ele>
        <time>2021-05-02T07:30:35.000Z</time>
      </trkpt>
      <trkpt lat="43.67739" lon="6.83968">
        <ele>675.5</ele>
        <time>2021-05-02T07:30:36.000Z</time>
      </trkpt>
      <trkpt lat="43.67735" lon="6.83969">
        <ele>675.4</ele>
        <time>2021-05-02T07:30:37.000Z</time>
      </trkpt>
      <trkpt lat="43.67731" lon="6.8397">
        <ele>675.4</ele>
        <time>2021-05-02T07:30:38.000Z</time>
      </trkpt>
      <trkpt lat="43.67728" lon="6.83971">
        <ele>675.4</ele>
        <time>2021-05-02T07:30:39.000Z</time>
      </trkpt>
      <trkpt lat="43.67725" lon="6.8397">
        <ele>676.6</ele>
        <time>2021-05-02T07:30:40.000Z</time>
      </trkpt>
      <trkpt lat="43.67723" lon="6.83969">
        <ele>677.3</ele>
        <time>2021-05-02T07:30:41.000Z</time>
      </trkpt>
      <trkpt lat="43.6772" lon="6.83969">
        <ele>677.8</ele>
        <time>2021-05-02T07:30:42.000Z</time>
      </trkpt>
      <trkpt lat="43.67718" lon="6.8397">
        <ele>678.2</ele>
        <time>2021-05-02T07:30:43.000Z</time>
      </trkpt>
      <trkpt lat="43.67716" lon="6.8397">
        <ele>678.7</ele>
        <time>2021-05-02T07:30:44.000Z</time>
      </trkpt>
      <trkpt lat="43.67714" lon="6.8397">
        <ele>679.1</ele>
        <time>2021-05-02T07:30:45.000Z</time>
      </trkpt>
      <trkpt lat="43.67712" lon="6.83971">
        <ele>679.6</ele>
        <time>2021-05-02T07:30:46.000Z</time>
      </trkpt>
      <trkpt lat="43.6771" lon="6.83971">
        <ele>680.1</ele>
        <time>2021-05-02T07:30:47.000Z</time>
      </trkpt>
      <trkpt lat="43.67707" lon="6.8397">
        <ele>680.5</ele>
        <time>2021-05-02T07:30:48.000Z</time>
      </trkpt>
      <trkpt lat="43.67705" lon="6.8397">
        <ele>680.9</ele>
        <time>2021-05-02T07:30:49.000Z</time>
      </trkpt>
      <trkpt lat="43.67702" lon="6.83969">
        <ele>681</ele>
        <time>2021-05-02T07:30:50.000Z</time>
      </trkpt>
      <trkpt lat="43.677" lon="6.8397">
        <ele>681.1</ele>
        <time>2021-05-02T07:30:51.000Z</time>
      </trkpt>
      <trkpt lat="43.67696" lon="6.83971">
        <ele>681.1</ele>
        <time>2021-05-02T07:30:52.000Z</time>
      </trkpt>
      <trkpt lat="43.67694" lon="6.83972">
        <ele>681.1</ele>
        <time>2021-05-02T07:30:53.000Z</time>
      </trkpt>
      <trkpt lat="43.67691" lon="6.83973">
        <ele>680.9</ele>
        <time>2021-05-02T07:30:54.000Z</time>
      </trkpt>
      <trkpt lat="43.67689" lon="6.83975">
        <ele>680.3</ele>
        <time>2021-05-02T07:30:55.000Z</time>
      </trkpt>
      <trkpt lat="43.67687" lon="6.83976">
        <ele>679.9</ele>
        <time>2021-05-02T07:30:56.000Z</time>
      </trkpt>
      <trkpt lat="43.67685" lon="6.83977">
        <ele>680</ele>
        <time>2021-05-02T07:30:57.000Z</time>
      </trkpt>
      <trkpt lat="43.67683" lon="6.83978">
        <ele>680</ele>
        <time>2021-05-02T07:30:58.000Z</time>
      </trkpt>
      <trkpt lat="43.67681" lon="6.83979">
        <ele>679.7</ele>
        <time>2021-05-02T07:30:59.000Z</time>
      </trkpt>
      <trkpt lat="43.67679" lon="6.83979">
        <ele>679.5</ele>
        <time>2021-05-02T07:31:00.000Z</time>
      </trkpt>
      <trkpt lat="43.67676" lon="6.8398">
        <ele>679.3</ele>
        <time>2021-05-02T07:31:01.000Z</time>
      </trkpt>
      <trkpt lat="43.67673" lon="6.8398">
        <ele>679.1</ele>
        <time>2021-05-02T07:31:02.000Z</time>
      </trkpt>
      <trkpt lat="43.67671" lon="6.83981">
        <ele>679</ele>
        <time>2021-05-02T07:31:03.000Z</time>
      </trkpt>
      <trkpt lat="43.6767" lon="6.83983">
        <ele>678.6</ele>
        <time>2021-05-02T07:31:04.000Z</time>
      </trkpt>
      <trkpt lat="43.67668" lon="6.83984">
        <ele>678.1</ele>
        <time>2021-05-02T07:31:05.000Z</time>
      </trkpt>
      <trkpt lat="43.67668" lon="6.83986">
        <ele>677.9</ele>
        <time>2021-05-02T07:31:06.000Z</time>
      </trkpt>
      <trkpt lat="43.67666" lon="6.83988">
        <ele>677.6</ele>
        <time>2021-05-02T07:31:07.000Z</time>
      </trkpt>
      <trkpt lat="43.67664" lon="6.83989">
        <ele>677.3</ele>
        <time>2021-05-02T07:31:08.000Z</time>
      </trkpt>
      <trkpt lat="43.67661" lon="6.83989">
        <ele>676.9</ele>
        <time>2021-05-02T07:31:09.000Z</time>
      </trkpt>
      <trkpt lat="43.67659" lon="6.83989">
        <ele>676.6</ele>
        <time>2021-05-02T07:31:10.000Z</time>
      </trkpt>
      <trkpt lat="43.67656" lon="6.83988">
        <ele>676.5</ele>
        <time>2021-05-02T07:31:11.000Z</time>
      </trkpt>
      <trkpt lat="43.67655" lon="6.83986">
        <ele>676.7</ele>
        <time>2021-05-02T07:31:12.000Z</time>
      </trkpt>
      <trkpt lat="43.67653" lon="6.83983">
        <ele>677</ele>
        <time>2021-05-02T07:31:13.000Z</time>
      </trkpt>
      <trkpt lat="43.67653" lon="6.8398">
        <ele>677.1</ele>
        <time>2021-05-02T07:31:14.000Z</time>
      </trkpt>
      <trkpt lat="43.67652" lon="6.83978">
        <ele>677.4</ele>
        <time>2021-05-02T07:31:15.000Z</time>
      </trkpt>
      <trkpt lat="43.67651" lon="6.83976">
        <ele>678</ele>
        <time>2021-05-02T07:31:16.000Z</time>
      </trkpt>
      <trkpt lat="43.67651" lon="6.83973">
        <ele>678</ele>
        <time>2021-05-02T07:31:17.000Z</time>
      </trkpt>
      <trkpt lat="43.6765" lon="6.83969">
        <ele>678.1</ele>
        <time>2021-05-02T07:31:18.000Z</time>
      </trkpt>
      <trkpt lat="43.67649" lon="6.83965">
        <ele>678.4</ele>
        <time>2021-05-02T07:31:19.000Z</time>
      </trkpt>
      <trkpt lat="43.67649" lon="6.83962">
        <ele>678.4</ele>
        <time>2021-05-02T07:31:20.000Z</time>
      </trkpt>
      <trkpt lat="43.67648" lon="6.83958">
        <ele>679.1</ele>
        <time>2021-05-02T07:31:21.000Z</time>
      </trkpt>
      <trkpt lat="43.67648" lon="6.83954">
        <ele>679.6</ele>
        <time>2021-05-02T07:31:22.000Z</time>
      </trkpt>
      <trkpt lat="43.67648" lon="6.8395">
        <ele>679.7</ele>
        <time>2021-05-02T07:31:23.000Z</time>
      </trkpt>
      <trkpt lat="43.67647" lon="6.83946">
        <ele>680.1</ele>
        <time>2021-05-02T07:31:24.000Z</time>
      </trkpt>
      <trkpt lat="43.67647" lon="6.83942">
        <ele>680.4</ele>
        <time>2021-05-02T07:31:25.000Z</time>
      </trkpt>
      <trkpt lat="43.67647" lon="6.83938">
        <ele>680.6</ele>
        <time>2021-05-02T07:31:26.000Z</time>
      </trkpt>
      <trkpt lat="43.67646" lon="6.83935">
        <ele>680.5</ele>
        <time>2021-05-02T07:31:27.000Z</time>
      </trkpt>
      <trkpt lat="43.67645" lon="6.83932">
        <ele>680.3</ele>
        <time>2021-05-02T07:31:28.000Z</time>
      </trkpt>
      <trkpt lat="43.67644" lon="6.83928">
        <ele>680.2</ele>
        <time>2021-05-02T07:31:29.000Z</time>
      </trkpt>
      <trkpt lat="43.67642" lon="6.83925">
        <ele>679.8</ele>
        <time>2021-05-02T07:31:30.000Z</time>
      </trkpt>
      <trkpt lat="43.67641" lon="6.83921">
        <ele>679.1</ele>
        <time>2021-05-02T07:31:31.000Z</time>
      </trkpt>
      <trkpt lat="43.6764" lon="6.83918">
        <ele>678.6</ele>
        <time>2021-05-02T07:31:32.000Z</time>
      </trkpt>
      <trkpt lat="43.67638" lon="6.83914">
        <ele>678.1</ele>
        <time>2021-05-02T07:31:33.000Z</time>
      </trkpt>
      <trkpt lat="43.67637" lon="6.83911">
        <ele>677.8</ele>
        <time>2021-05-02T07:31:34.000Z</time>
      </trkpt>
      <trkpt lat="43.67636" lon="6.83907">
        <ele>677.6</ele>
        <time>2021-05-02T07:31:35.000Z</time>
      </trkpt>
      <trkpt lat="43.67634" lon="6.83904">
        <ele>677.2</ele>
        <time>2021-05-02T07:31:36.000Z</time>
      </trkpt>
      <trkpt lat="43.67633" lon="6.839">
        <ele>677.2</ele>
        <time>2021-05-02T07:31:37.000Z</time>
      </trkpt>
      <trkpt lat="43.67631" lon="6.83896">
        <ele>676.8</ele>
        <time>2021-05-02T07:31:38.000Z</time>
      </trkpt>
      <trkpt lat="43.6763" lon="6.83892">
        <ele>676.6</ele>
        <time>2021-05-02T07:31:39.000Z</time>
      </trkpt>
      <trkpt lat="43.67629" lon="6.83887">
        <ele>676.2</ele>
        <time>2021-05-02T07:31:40.000Z</time>
      </trkpt>
      <trkpt lat="43.67628" lon="6.83883">
        <ele>676.1</ele>
        <time>2021-05-02T07:31:41.000Z</time>
      </trkpt>
      <trkpt lat="43.67628" lon="6.83879">
        <ele>676.1</ele>
        <time>2021-05-02T07:31:42.000Z</time>
      </trkpt>
      <trkpt lat="43.67628" lon="6.83875">
        <ele>675.8</ele>
        <time>2021-05-02T07:31:43.000Z</time>
      </trkpt>
      <trkpt lat="43.67628" lon="6.83871">
        <ele>676.2</ele>
        <time>2021-05-02T07:31:44.000Z</time>
      </trkpt>
      <trkpt lat="43.67627" lon="6.83866">
        <ele>676.2</ele>
        <time>2021-05-02T07:31:45.000Z</time>
      </trkpt>
      <trkpt lat="43.67627" lon="6.83862">
        <ele>676.1</ele>
        <time>2021-05-02T07:31:46.000Z</time>
      </trkpt>
      <trkpt lat="43.67626" lon="6.83858">
        <ele>676.2</ele>
        <time>2021-05-02T07:31:47.000Z</time>
      </trkpt>
      <trkpt lat="43.67624" lon="6.83854">
        <ele>676.5</ele>
        <time>2021-05-02T07:31:48.000Z</time>
      </trkpt>
      <trkpt lat="43.67622" lon="6.83851">
        <ele>676.4</ele>
        <time>2021-05-02T07:31:49.000Z</time>
      </trkpt>
      <trkpt lat="43.67621" lon="6.83848">
        <ele>676.5</ele>
        <time>2021-05-02T07:31:50.000Z</time>
      </trkpt>
      <trkpt lat="43.67618" lon="6.83844">
        <ele>676.4</ele>
        <time>2021-05-02T07:31:51.000Z</time>
      </trkpt>
      <trkpt lat="43.67616" lon="6.83842">
        <ele>676.4</ele>
        <time>2021-05-02T07:31:52.000Z</time>
      </trkpt>
      <trkpt lat="43.67613" lon="6.83839">
        <ele>676.5</ele>
        <time>2021-05-02T07:31:53.000Z</time>
      </trkpt>
      <trkpt lat="43.6761" lon="6.83837">
        <ele>676.8</ele>
        <time>2021-05-02T07:31:54.000Z</time>
      </trkpt>
      <trkpt lat="43.67607" lon="6.83835">
        <ele>677.8</ele>
        <time>2021-05-02T07:31:55.000Z</time>
      </trkpt>
      <trkpt lat="43.67604" lon="6.83832">
        <ele>678</ele>
        <time>2021-05-02T07:31:56.000Z</time>
      </trkpt>
      <trkpt lat="43.67601" lon="6.83829">
        <ele>677.9</ele>
        <time>2021-05-02T07:31:57.000Z</time>
      </trkpt>
      <trkpt lat="43.67598" lon="6.83827">
        <ele>677.6</ele>
        <time>2021-05-02T07:31:58.000Z</time>
      </trkpt>
      <trkpt lat="43.67595" lon="6.83824">
        <ele>677.4</ele>
        <time>2021-05-02T07:31:59.000Z</time>
      </trkpt>
      <trkpt lat="43.67592" lon="6.83822">
        <ele>677.6</ele>
        <time>2021-05-02T07:32:00.000Z</time>
      </trkpt>
      <trkpt lat="43.6759" lon="6.83819">
        <ele>678</ele>
        <time>2021-05-02T07:32:01.000Z</time>
      </trkpt>
      <trkpt lat="43.67587" lon="6.83816">
        <ele>678.4</ele>
        <time>2021-05-02T07:32:02.000Z</time>
      </trkpt>
      <trkpt lat="43.67584" lon="6.83813">
        <ele>678.9</ele>
        <time>2021-05-02T07:32:03.000Z</time>
      </trkpt>
      <trkpt lat="43.67582" lon="6.83811">
        <ele>679.2</ele>
        <time>2021-05-02T07:32:04.000Z</time>
      </trkpt>
      <trkpt lat="43.6758" lon="6.83808">
        <ele>679.4</ele>
        <time>2021-05-02T07:32:05.000Z</time>
      </trkpt>
      <trkpt lat="43.67577" lon="6.83805">
        <ele>679.2</ele>
        <time>2021-05-02T07:32:06.000Z</time>
      </trkpt>
      <trkpt lat="43.67575" lon="6.83802">
        <ele>679.4</ele>
        <time>2021-05-02T07:32:07.000Z</time>
      </trkpt>
      <trkpt lat="43.67573" lon="6.83799">
        <ele>679.2</ele>
        <time>2021-05-02T07:32:08.000Z</time>
      </trkpt>
      <trkpt lat="43.67571" lon="6.83796">
        <ele>679</ele>
        <time>2021-05-02T07:32:09.000Z</time>
      </trkpt>
      <trkpt lat="43.6757" lon="6.83793">
        <ele>679.1</ele>
        <time>2021-05-02T07:32:10.000Z</time>
      </trkpt>
      <trkpt lat="43.6757" lon="6.83789">
        <ele>679</ele>
        <time>2021-05-02T07:32:11.000Z</time>
      </trkpt>
      <trkpt lat="43.6757" lon="6.83786">
        <ele>679.1</ele>
        <time>2021-05-02T07:32:12.000Z</time>
      </trkpt>
      <trkpt lat="43.6757" lon="6.83782">
        <ele>679.5</ele>
        <time>2021-05-02T07:32:13.000Z</time>
      </trkpt>
      <trkpt lat="43.6757" lon="6.83779">
        <ele>679.8</ele>
        <time>2021-05-02T07:32:14.000Z</time>
      </trkpt>
      <trkpt lat="43.6757" lon="6.83776">
        <ele>680.3</ele>
        <time>2021-05-02T07:32:15.000Z</time>
      </trkpt>
      <trkpt lat="43.6757" lon="6.83773">
        <ele>680.8</ele>
        <time>2021-05-02T07:32:16.000Z</time>
      </trkpt>
      <trkpt lat="43.67571" lon="6.8377">
        <ele>681.1</ele>
        <time>2021-05-02T07:32:17.000Z</time>
      </trkpt>
      <trkpt lat="43.67571" lon="6.83767">
        <ele>682</ele>
        <time>2021-05-02T07:32:18.000Z</time>
      </trkpt>
      <trkpt lat="43.67571" lon="6.83764">
        <ele>682.6</ele>
        <time>2021-05-02T07:32:19.000Z</time>
      </trkpt>
      <trkpt lat="43.67571" lon="6.83762">
        <ele>683.4</ele>
        <time>2021-05-02T07:32:20.000Z</time>
      </trkpt>
      <trkpt lat="43.67571" lon="6.83759">
        <ele>684</ele>
        <time>2021-05-02T07:32:21.000Z</time>
      </trkpt>
      <trkpt lat="43.67571" lon="6.83757">
        <ele>684.5</ele>
        <time>2021-05-02T07:32:22.000Z</time>
      </trkpt>
      <trkpt lat="43.67571" lon="6.83754">
        <ele>684.4</ele>
        <time>2021-05-02T07:32:23.000Z</time>
      </trkpt>
      <trkpt lat="43.67571" lon="6.83751">
        <ele>684.3</ele>
        <time>2021-05-02T07:32:24.000Z</time>
      </trkpt>
      <trkpt lat="43.6757" lon="6.83748">
        <ele>684.2</ele>
        <time>2021-05-02T07:32:25.000Z</time>
      </trkpt>
      <trkpt lat="43.6757" lon="6.83745">
        <ele>685.1</ele>
        <time>2021-05-02T07:32:26.000Z</time>
      </trkpt>
      <trkpt lat="43.67569" lon="6.83743">
        <ele>685.6</ele>
        <time>2021-05-02T07:32:27.000Z</time>
      </trkpt>
      <trkpt lat="43.6757" lon="6.8374">
        <ele>686.2</ele>
        <time>2021-05-02T07:32:28.000Z</time>
      </trkpt>
      <trkpt lat="43.6757" lon="6.83738">
        <ele>686.9</ele>
        <time>2021-05-02T07:32:29.000Z</time>
      </trkpt>
      <trkpt lat="43.6757" lon="6.83735">
        <ele>686.9</ele>
        <time>2021-05-02T07:32:30.000Z</time>
      </trkpt>
      <trkpt lat="43.6757" lon="6.83732">
        <ele>687.2</ele>
        <time>2021-05-02T07:32:31.000Z</time>
      </trkpt>
      <trkpt lat="43.67571" lon="6.83729">
        <ele>687.4</ele>
        <time>2021-05-02T07:32:32.000Z</time>
      </trkpt>
      <trkpt lat="43.67571" lon="6.83726">
        <ele>687.6</ele>
        <time>2021-05-02T07:32:33.000Z</time>
      </trkpt>
      <trkpt lat="43.67571" lon="6.83723">
        <ele>688</ele>
        <time>2021-05-02T07:32:34.000Z</time>
      </trkpt>
      <trkpt lat="43.67571" lon="6.8372">
        <ele>688.3</ele>
        <time>2021-05-02T07:32:35.000Z</time>
      </trkpt>
      <trkpt lat="43.67572" lon="6.83716">
        <ele>688.7</ele>
        <time>2021-05-02T07:32:36.000Z</time>
      </trkpt>
      <trkpt lat="43.67572" lon="6.83713">
        <ele>689</ele>
        <time>2021-05-02T07:32:37.000Z</time>
      </trkpt>
      <trkpt lat="43.67572" lon="6.8371">
        <ele>689</ele>
        <time>2021-05-02T07:32:38.000Z</time>
      </trkpt>
      <trkpt lat="43.67572" lon="6.83707">
        <ele>689.4</ele>
        <time>2021-05-02T07:32:39.000Z</time>
      </trkpt>
      <trkpt lat="43.67572" lon="6.83705">
        <ele>690.1</ele>
        <time>2021-05-02T07:32:40.000Z</time>
      </trkpt>
      <trkpt lat="43.67572" lon="6.83702">
        <ele>690</ele>
        <time>2021-05-02T07:32:41.000Z</time>
      </trkpt>
      <trkpt lat="43.67572" lon="6.83699">
        <ele>689.8</ele>
        <time>2021-05-02T07:32:42.000Z</time>
      </trkpt>
      <trkpt lat="43.67572" lon="6.83696">
        <ele>690.3</ele>
        <time>2021-05-02T07:32:43.000Z</time>
      </trkpt>
      <trkpt lat="43.67573" lon="6.83693">
        <ele>690.5</ele>
        <time>2021-05-02T07:32:44.000Z</time>
      </trkpt>
      <trkpt lat="43.67573" lon="6.8369">
        <ele>690.5</ele>
        <time>2021-05-02T07:32:45.000Z</time>
      </trkpt>
      <trkpt lat="43.67573" lon="6.83687">
        <ele>690.4</ele>
        <time>2021-05-02T07:32:46.000Z</time>
      </trkpt>
      <trkpt lat="43.67574" lon="6.83684">
        <ele>690.7</ele>
        <time>2021-05-02T07:32:47.000Z</time>
      </trkpt>
      <trkpt lat="43.67573" lon="6.83681">
        <ele>690.8</ele>
        <time>2021-05-02T07:32:48.000Z</time>
      </trkpt>
      <trkpt lat="43.67573" lon="6.83678">
        <ele>690.9</ele>
        <time>2021-05-02T07:32:49.000Z</time>
      </trkpt>
      <trkpt lat="43.67573" lon="6.83674">
        <ele>690.5</ele>
        <time>2021-05-02T07:32:50.000Z</time>
      </trkpt>
      <trkpt lat="43.67573" lon="6.83672">
        <ele>690.8</ele>
        <time>2021-05-02T07:32:51.000Z</time>
      </trkpt>
      <trkpt lat="43.67573" lon="6.83669">
        <ele>691</ele>
        <time>2021-05-02T07:32:52.000Z</time>
      </trkpt>
      <trkpt lat="43.67574" lon="6.83666">
        <ele>690.6</ele>
        <time>2021-05-02T07:32:53.000Z</time>
      </trkpt>
      <trkpt lat="43.67574" lon="6.83663">
        <ele>690.4</ele>
        <time>2021-05-02T07:32:54.000Z</time>
      </trkpt>
      <trkpt lat="43.67574" lon="6.83659">
        <ele>690.2</ele>
        <time>2021-05-02T07:32:55.000Z</time>
      </trkpt>
      <trkpt lat="43.67575" lon="6.83656">
        <ele>690</ele>
        <time>2021-05-02T07:32:56.000Z</time>
      </trkpt>
      <trkpt lat="43.67575" lon="6.83653">
        <ele>689.6</ele>
        <time>2021-05-02T07:32:57.000Z</time>
      </trkpt>
      <trkpt lat="43.67575" lon="6.8365">
        <ele>689.2</ele>
        <time>2021-05-02T07:32:58.000Z</time>
      </trkpt>
      <trkpt lat="43.67575" lon="6.83648">
        <ele>688.9</ele>
        <time>2021-05-02T07:32:59.000Z</time>
      </trkpt>
      <trkpt lat="43.67575" lon="6.83645">
        <ele>688.7</ele>
        <time>2021-05-02T07:33:00.000Z</time>
      </trkpt>
      <trkpt lat="43.67575" lon="6.83642">
        <ele>688.5</ele>
        <time>2021-05-02T07:33:01.000Z</time>
      </trkpt>
      <trkpt lat="43.67575" lon="6.8364">
        <ele>688.5</ele>
        <time>2021-05-02T07:33:02.000Z</time>
      </trkpt>
      <trkpt lat="43.67575" lon="6.83637">
        <ele>688.7</ele>
        <time>2021-05-02T07:33:03.000Z</time>
      </trkpt>
      <trkpt lat="43.67575" lon="6.83634">
        <ele>689.2</ele>
        <time>2021-05-02T07:33:04.000Z</time>
      </trkpt>
      <trkpt lat="43.67575" lon="6.83631">
        <ele>689.3</ele>
        <time>2021-05-02T07:33:05.000Z</time>
      </trkpt>
      <trkpt lat="43.67575" lon="6.83628">
        <ele>689.8</ele>
        <time>2021-05-02T07:33:06.000Z</time>
      </trkpt>
      <trkpt lat="43.67575" lon="6.83626">
        <ele>689.9</ele>
        <time>2021-05-02T07:33:07.000Z</time>
      </trkpt>
      <trkpt lat="43.67575" lon="6.83623">
        <ele>690.5</ele>
        <time>2021-05-02T07:33:08.000Z</time>
      </trkpt>
      <trkpt lat="43.67575" lon="6.8362">
        <ele>690.8</ele>
        <time>2021-05-02T07:33:09.000Z</time>
      </trkpt>
      <trkpt lat="43.67575" lon="6.83617">
        <ele>691.3</ele>
        <time>2021-05-02T07:33:10.000Z</time>
      </trkpt>
      <trkpt lat="43.67575" lon="6.83615">
        <ele>691.7</ele>
        <time>2021-05-02T07:33:11.000Z</time>
      </trkpt>
      <trkpt lat="43.67575" lon="6.83612">
        <ele>692</ele>
        <time>2021-05-02T07:33:12.000Z</time>
      </trkpt>
      <trkpt lat="43.67575" lon="6.83609">
        <ele>692</ele>
        <time>2021-05-02T07:33:13.000Z</time>
      </trkpt>
      <trkpt lat="43.67575" lon="6.83606">
        <ele>692.2</ele>
        <time>2021-05-02T07:33:14.000Z</time>
      </trkpt>
      <trkpt lat="43.67575" lon="6.83604">
        <ele>692.7</ele>
        <time>2021-05-02T07:33:15.000Z</time>
      </trkpt>
      <trkpt lat="43.67576" lon="6.83601">
        <ele>693.2</ele>
        <time>2021-05-02T07:33:16.000Z</time>
      </trkpt>
      <trkpt lat="43.67576" lon="6.83598">
        <ele>693.5</ele>
        <time>2021-05-02T07:33:17.000Z</time>
      </trkpt>
      <trkpt lat="43.67576" lon="6.83596">
        <ele>693.6</ele>
        <time>2021-05-02T07:33:18.000Z</time>
      </trkpt>
      <trkpt lat="43.67576" lon="6.83594">
        <ele>693.7</ele>
        <time>2021-05-02T07:33:19.000Z</time>
      </trkpt>
      <trkpt lat="43.67576" lon="6.83591">
        <ele>693.7</ele>
        <time>2021-05-02T07:33:20.000Z</time>
      </trkpt>
      <trkpt lat="43.67575" lon="6.83588">
        <ele>693.7</ele>
        <time>2021-05-02T07:33:21.000Z</time>
      </trkpt>
      <trkpt lat="43.67575" lon="6.83586">
        <ele>693.9</ele>
        <time>2021-05-02T07:33:22.000Z</time>
      </trkpt>
      <trkpt lat="43.67576" lon="6.83583">
        <ele>694.1</ele>
        <time>2021-05-02T07:33:23.000Z</time>
      </trkpt>
      <trkpt lat="43.67576" lon="6.8358">
        <ele>694.1</ele>
        <time>2021-05-02T07:33:24.000Z</time>
      </trkpt>
      <trkpt lat="43.67577" lon="6.83578">
        <ele>694.1</ele>
        <time>2021-05-02T07:33:25.000Z</time>
      </trkpt>
      <trkpt lat="43.67577" lon="6.83575">
        <ele>694.2</ele>
        <time>2021-05-02T07:33:26.000Z</time>
      </trkpt>
      <trkpt lat="43.67578" lon="6.83572">
        <ele>694.4</ele>
        <time>2021-05-02T07:33:27.000Z</time>
      </trkpt>
      <trkpt lat="43.67578" lon="6.8357">
        <ele>694.9</ele>
        <time>2021-05-02T07:33:28.000Z</time>
      </trkpt>
      <trkpt lat="43.67578" lon="6.83567">
        <ele>695.1</ele>
        <time>2021-05-02T07:33:29.000Z</time>
      </trkpt>
      <trkpt lat="43.67579" lon="6.83565">
        <ele>695.3</ele>
        <time>2021-05-02T07:33:30.000Z</time>
      </trkpt>
      <trkpt lat="43.67579" lon="6.83562">
        <ele>695.4</ele>
        <time>2021-05-02T07:33:31.000Z</time>
      </trkpt>
      <trkpt lat="43.67579" lon="6.83559">
        <ele>695.5</ele>
        <time>2021-05-02T07:33:32.000Z</time>
      </trkpt>
      <trkpt lat="43.67579" lon="6.83556">
        <ele>695.4</ele>
        <time>2021-05-02T07:33:33.000Z</time>
      </trkpt>
      <trkpt lat="43.67578" lon="6.83554">
        <ele>695.3</ele>
        <time>2021-05-02T07:33:34.000Z</time>
      </trkpt>
      <trkpt lat="43.67578" lon="6.83551">
        <ele>695.4</ele>
        <time>2021-05-02T07:33:35.000Z</time>
      </trkpt>
      <trkpt lat="43.67578" lon="6.83549">
        <ele>695.4</ele>
        <time>2021-05-02T07:33:36.000Z</time>
      </trkpt>
      <trkpt lat="43.67578" lon="6.83546">
        <ele>695.2</ele>
        <time>2021-05-02T07:33:37.000Z</time>
      </trkpt>
      <trkpt lat="43.67578" lon="6.83544">
        <ele>695.4</ele>
        <time>2021-05-02T07:33:38.000Z</time>
      </trkpt>
      <trkpt lat="43.67578" lon="6.83541">
        <ele>695.4</ele>
        <time>2021-05-02T07:33:39.000Z</time>
      </trkpt>
      <trkpt lat="43.67578" lon="6.83539">
        <ele>695.4</ele>
        <time>2021-05-02T07:33:40.000Z</time>
      </trkpt>
      <trkpt lat="43.67578" lon="6.83537">
        <ele>695.3</ele>
        <time>2021-05-02T07:33:41.000Z</time>
      </trkpt>
      <trkpt lat="43.67578" lon="6.83534">
        <ele>695.5</ele>
        <time>2021-05-02T07:33:42.000Z</time>
      </trkpt>
      <trkpt lat="43.67578" lon="6.83532">
        <ele>695.5</ele>
        <time>2021-05-02T07:33:43.000Z</time>
      </trkpt>
      <trkpt lat="43.67578" lon="6.83529">
        <ele>695.5</ele>
        <time>2021-05-02T07:33:44.000Z</time>
      </trkpt>
      <trkpt lat="43.67578" lon="6.83527">
        <ele>695.6</ele>
        <time>2021-05-02T07:33:45.000Z</time>
      </trkpt>
      <trkpt lat="43.67578" lon="6.83524">
        <ele>695.8</ele>
        <time>2021-05-02T07:33:46.000Z</time>
      </trkpt>
      <trkpt lat="43.67578" lon="6.83522">
        <ele>696</ele>
        <time>2021-05-02T07:33:47.000Z</time>
      </trkpt>
      <trkpt lat="43.67577" lon="6.83519">
        <ele>696.2</ele>
        <time>2021-05-02T07:33:48.000Z</time>
      </trkpt>
      <trkpt lat="43.67577" lon="6.83516">
        <ele>696.2</ele>
        <time>2021-05-02T07:33:49.000Z</time>
      </trkpt>
      <trkpt lat="43.67577" lon="6.83514">
        <ele>696.5</ele>
        <time>2021-05-02T07:33:50.000Z</time>
      </trkpt>
      <trkpt lat="43.67576" lon="6.83512">
        <ele>696.9</ele>
        <time>2021-05-02T07:33:51.000Z</time>
      </trkpt>
      <trkpt lat="43.67576" lon="6.83509">
        <ele>697.4</ele>
        <time>2021-05-02T07:33:52.000Z</time>
      </trkpt>
      <trkpt lat="43.67575" lon="6.83507">
        <ele>697.6</ele>
        <time>2021-05-02T07:33:53.000Z</time>
      </trkpt>
      <trkpt lat="43.67575" lon="6.83505">
        <ele>697.8</ele>
        <time>2021-05-02T07:33:54.000Z</time>
      </trkpt>
      <trkpt lat="43.67575" lon="6.83502">
        <ele>698.2</ele>
        <time>2021-05-02T07:33:55.000Z</time>
      </trkpt>
      <trkpt lat="43.67575" lon="6.835">
        <ele>698.4</ele>
        <time>2021-05-02T07:33:56.000Z</time>
      </trkpt>
      <trkpt lat="43.67575" lon="6.83498">
        <ele>698.5</ele>
        <time>2021-05-02T07:33:57.000Z</time>
      </trkpt>
      <trkpt lat="43.67576" lon="6.83496">
        <ele>698.7</ele>
        <time>2021-05-02T07:33:58.000Z</time>
      </trkpt>
      <trkpt lat="43.67575" lon="6.83494">
        <ele>699</ele>
        <time>2021-05-02T07:33:59.000Z</time>
      </trkpt>
      <trkpt lat="43.67575" lon="6.83492">
        <ele>699.2</ele>
        <time>2021-05-02T07:34:00.000Z</time>
      </trkpt>
      <trkpt lat="43.67575" lon="6.8349">
        <ele>699.2</ele>
        <time>2021-05-02T07:34:01.000Z</time>
      </trkpt>
      <trkpt lat="43.67574" lon="6.83489">
        <ele>699.4</ele>
        <time>2021-05-02T07:34:02.000Z</time>
      </trkpt>
      <trkpt lat="43.67573" lon="6.83487">
        <ele>699.5</ele>
        <time>2021-05-02T07:34:03.000Z</time>
      </trkpt>
      <trkpt lat="43.67571" lon="6.83486">
        <ele>699.6</ele>
        <time>2021-05-02T07:34:04.000Z</time>
      </trkpt>
      <trkpt lat="43.6757" lon="6.83484">
        <ele>699.8</ele>
        <time>2021-05-02T07:34:05.000Z</time>
      </trkpt>
      <trkpt lat="43.67568" lon="6.83483">
        <ele>699.7</ele>
        <time>2021-05-02T07:34:06.000Z</time>
      </trkpt>
      <trkpt lat="43.67566" lon="6.83483">
        <ele>699.6</ele>
        <time>2021-05-02T07:34:07.000Z</time>
      </trkpt>
      <trkpt lat="43.67564" lon="6.83483">
        <ele>699.4</ele>
        <time>2021-05-02T07:34:08.000Z</time>
      </trkpt>
      <trkpt lat="43.67562" lon="6.83482">
        <ele>699.4</ele>
        <time>2021-05-02T07:34:09.000Z</time>
      </trkpt>
      <trkpt lat="43.6756" lon="6.83481">
        <ele>699.2</ele>
        <time>2021-05-02T07:34:10.000Z</time>
      </trkpt>
      <trkpt lat="43.67557" lon="6.8348">
        <ele>698.8</ele>
        <time>2021-05-02T07:34:11.000Z</time>
      </trkpt>
      <trkpt lat="43.67556" lon="6.83478">
        <ele>698.5</ele>
        <time>2021-05-02T07:34:12.000Z</time>
      </trkpt>
      <trkpt lat="43.67554" lon="6.83477">
        <ele>698</ele>
        <time>2021-05-02T07:34:13.000Z</time>
      </trkpt>
      <trkpt lat="43.67551" lon="6.83476">
        <ele>697.5</ele>
        <time>2021-05-02T07:34:14.000Z</time>
      </trkpt>
      <trkpt lat="43.67548" lon="6.83475">
        <ele>697.3</ele>
        <time>2021-05-02T07:34:15.000Z</time>
      </trkpt>
      <trkpt lat="43.67545" lon="6.83475">
        <ele>697.5</ele>
        <time>2021-05-02T07:34:16.000Z</time>
      </trkpt>
      <trkpt lat="43.67543" lon="6.83475">
        <ele>697.4</ele>
        <time>2021-05-02T07:34:17.000Z</time>
      </trkpt>
      <trkpt lat="43.6754" lon="6.83474">
        <ele>697.4</ele>
        <time>2021-05-02T07:34:18.000Z</time>
      </trkpt>
      <trkpt lat="43.67537" lon="6.83473">
        <ele>697.5</ele>
        <time>2021-05-02T07:34:19.000Z</time>
      </trkpt>
      <trkpt lat="43.67534" lon="6.83472">
        <ele>697.8</ele>
        <time>2021-05-02T07:34:20.000Z</time>
      </trkpt>
      <trkpt lat="43.67532" lon="6.8347">
        <ele>698.3</ele>
        <time>2021-05-02T07:34:21.000Z</time>
      </trkpt>
      <trkpt lat="43.6753" lon="6.83469">
        <ele>698.2</ele>
        <time>2021-05-02T07:34:22.000Z</time>
      </trkpt>
      <trkpt lat="43.67527" lon="6.83468">
        <ele>698.3</ele>
        <time>2021-05-02T07:34:23.000Z</time>
      </trkpt>
      <trkpt lat="43.67525" lon="6.83467">
        <ele>698.5</ele>
        <time>2021-05-02T07:34:24.000Z</time>
      </trkpt>
      <trkpt lat="43.67522" lon="6.83467">
        <ele>699</ele>
        <time>2021-05-02T07:34:25.000Z</time>
      </trkpt>
      <trkpt lat="43.67519" lon="6.83466">
        <ele>699.4</ele>
        <time>2021-05-02T07:34:26.000Z</time>
      </trkpt>
      <trkpt lat="43.67516" lon="6.83465">
        <ele>699.4</ele>
        <time>2021-05-02T07:34:27.000Z</time>
      </trkpt>
      <trkpt lat="43.67513" lon="6.83465">
        <ele>699.8</ele>
        <time>2021-05-02T07:34:28.000Z</time>
      </trkpt>
      <trkpt lat="43.6751" lon="6.83464">
        <ele>700.2</ele>
        <time>2021-05-02T07:34:29.000Z</time>
      </trkpt>
      <trkpt lat="43.67507" lon="6.83462">
        <ele>700.3</ele>
        <time>2021-05-02T07:34:30.000Z</time>
      </trkpt>
      <trkpt lat="43.67505" lon="6.83461">
        <ele>700.4</ele>
        <time>2021-05-02T07:34:31.000Z</time>
      </trkpt>
      <trkpt lat="43.67502" lon="6.8346">
        <ele>700.2</ele>
        <time>2021-05-02T07:34:32.000Z</time>
      </trkpt>
      <trkpt lat="43.67499" lon="6.83459">
        <ele>700.2</ele>
        <time>2021-05-02T07:34:33.000Z</time>
      </trkpt>
      <trkpt lat="43.67497" lon="6.83458">
        <ele>700.2</ele>
        <time>2021-05-02T07:34:34.000Z</time>
      </trkpt>
      <trkpt lat="43.67494" lon="6.83458">
        <ele>700.5</ele>
        <time>2021-05-02T07:34:35.000Z</time>
      </trkpt>
      <trkpt lat="43.67492" lon="6.83457">
        <ele>700.2</ele>
        <time>2021-05-02T07:34:36.000Z</time>
      </trkpt>
      <trkpt lat="43.6749" lon="6.83457">
        <ele>699.8</ele>
        <time>2021-05-02T07:34:37.000Z</time>
      </trkpt>
      <trkpt lat="43.67487" lon="6.83456">
        <ele>699.6</ele>
        <time>2021-05-02T07:34:38.000Z</time>
      </trkpt>
      <trkpt lat="43.67485" lon="6.83455">
        <ele>698.8</ele>
        <time>2021-05-02T07:34:39.000Z</time>
      </trkpt>
      <trkpt lat="43.67482" lon="6.83455">
        <ele>698.6</ele>
        <time>2021-05-02T07:34:40.000Z</time>
      </trkpt>
      <trkpt lat="43.6748" lon="6.83455">
        <ele>698.2</ele>
        <time>2021-05-02T07:34:41.000Z</time>
      </trkpt>
      <trkpt lat="43.67478" lon="6.83456">
        <ele>697.8</ele>
        <time>2021-05-02T07:34:42.000Z</time>
      </trkpt>
      <trkpt lat="43.67476" lon="6.83456">
        <ele>697.6</ele>
        <time>2021-05-02T07:34:43.000Z</time>
      </trkpt>
      <trkpt lat="43.67475" lon="6.83456">
        <ele>697.7</ele>
        <time>2021-05-02T07:34:44.000Z</time>
      </trkpt>
      <trkpt lat="43.67472" lon="6.83456">
        <ele>697.5</ele>
        <time>2021-05-02T07:34:45.000Z</time>
      </trkpt>
      <trkpt lat="43.6747" lon="6.83457">
        <ele>697.3</ele>
        <time>2021-05-02T07:34:46.000Z</time>
      </trkpt>
      <trkpt lat="43.67467" lon="6.83459">
        <ele>697.3</ele>
        <time>2021-05-02T07:34:47.000Z</time>
      </trkpt>
      <trkpt lat="43.67464" lon="6.83461">
        <ele>696.8</ele>
        <time>2021-05-02T07:34:48.000Z</time>
      </trkpt>
      <trkpt lat="43.67461" lon="6.83464">
        <ele>696.1</ele>
        <time>2021-05-02T07:34:49.000Z</time>
      </trkpt>
      <trkpt lat="43.67458" lon="6.83467">
        <ele>695.8</ele>
        <time>2021-05-02T07:34:50.000Z</time>
      </trkpt>
      <trkpt lat="43.67455" lon="6.8347">
        <ele>695.2</ele>
        <time>2021-05-02T07:34:51.000Z</time>
      </trkpt>
      <trkpt lat="43.67452" lon="6.83473">
        <ele>694.7</ele>
        <time>2021-05-02T07:34:52.000Z</time>
      </trkpt>
      <trkpt lat="43.67449" lon="6.83474">
        <ele>694.2</ele>
        <time>2021-05-02T07:34:53.000Z</time>
      </trkpt>
      <trkpt lat="43.67446" lon="6.83476">
        <ele>693.7</ele>
        <time>2021-05-02T07:34:54.000Z</time>
      </trkpt>
      <trkpt lat="43.67443" lon="6.83477">
        <ele>693.5</ele>
        <time>2021-05-02T07:34:55.000Z</time>
      </trkpt>
      <trkpt lat="43.6744" lon="6.83478">
        <ele>693.5</ele>
        <time>2021-05-02T07:34:56.000Z</time>
      </trkpt>
      <trkpt lat="43.67438" lon="6.83478">
        <ele>693.6</ele>
        <time>2021-05-02T07:34:57.000Z</time>
      </trkpt>
      <trkpt lat="43.67435" lon="6.83477">
        <ele>693.8</ele>
        <time>2021-05-02T07:34:58.000Z</time>
      </trkpt>
      <trkpt lat="43.67433" lon="6.83476">
        <ele>693.8</ele>
        <time>2021-05-02T07:34:59.000Z</time>
      </trkpt>
      <trkpt lat="43.6743" lon="6.83473">
        <ele>694.3</ele>
        <time>2021-05-02T07:35:00.000Z</time>
      </trkpt>
      <trkpt lat="43.67428" lon="6.83471">
        <ele>694.6</ele>
        <time>2021-05-02T07:35:01.000Z</time>
      </trkpt>
      <trkpt lat="43.67426" lon="6.83468">
        <ele>694.4</ele>
        <time>2021-05-02T07:35:02.000Z</time>
      </trkpt>
      <trkpt lat="43.67425" lon="6.83464">
        <ele>694.5</ele>
        <time>2021-05-02T07:35:03.000Z</time>
      </trkpt>
      <trkpt lat="43.67424" lon="6.8346">
        <ele>694.5</ele>
        <time>2021-05-02T07:35:04.000Z</time>
      </trkpt>
      <trkpt lat="43.67423" lon="6.83456">
        <ele>694.4</ele>
        <time>2021-05-02T07:35:05.000Z</time>
      </trkpt>
      <trkpt lat="43.67422" lon="6.83453">
        <ele>694.2</ele>
        <time>2021-05-02T07:35:06.000Z</time>
      </trkpt>
      <trkpt lat="43.67421" lon="6.83449">
        <ele>693.9</ele>
        <time>2021-05-02T07:35:07.000Z</time>
      </trkpt>
      <trkpt lat="43.6742" lon="6.83446">
        <ele>694</ele>
        <time>2021-05-02T07:35:08.000Z</time>
      </trkpt>
      <trkpt lat="43.67418" lon="6.83441">
        <ele>693.8</ele>
        <time>2021-05-02T07:35:09.000Z</time>
      </trkpt>
      <trkpt lat="43.67417" lon="6.83438">
        <ele>693.4</ele>
        <time>2021-05-02T07:35:10.000Z</time>
      </trkpt>
      <trkpt lat="43.67416" lon="6.83434">
        <ele>693.5</ele>
        <time>2021-05-02T07:35:11.000Z</time>
      </trkpt>
      <trkpt lat="43.67415" lon="6.83431">
        <ele>693.9</ele>
        <time>2021-05-02T07:35:12.000Z</time>
      </trkpt>
      <trkpt lat="43.67413" lon="6.83428">
        <ele>694.7</ele>
        <time>2021-05-02T07:35:13.000Z</time>
      </trkpt>
      <trkpt lat="43.67412" lon="6.83426">
        <ele>695</ele>
        <time>2021-05-02T07:35:14.000Z</time>
      </trkpt>
      <trkpt lat="43.6741" lon="6.83423">
        <ele>694.7</ele>
        <time>2021-05-02T07:35:15.000Z</time>
      </trkpt>
      <trkpt lat="43.67409" lon="6.8342">
        <ele>694.8</ele>
        <time>2021-05-02T07:35:16.000Z</time>
      </trkpt>
      <trkpt lat="43.67408" lon="6.83417">
        <ele>695.3</ele>
        <time>2021-05-02T07:35:17.000Z</time>
      </trkpt>
      <trkpt lat="43.67407" lon="6.83413">
        <ele>695.1</ele>
        <time>2021-05-02T07:35:18.000Z</time>
      </trkpt>
      <trkpt lat="43.67407" lon="6.8341">
        <ele>695</ele>
        <time>2021-05-02T07:35:19.000Z</time>
      </trkpt>
      <trkpt lat="43.67406" lon="6.83408">
        <ele>695.3</ele>
        <time>2021-05-02T07:35:20.000Z</time>
      </trkpt>
      <trkpt lat="43.67405" lon="6.83405">
        <ele>695.5</ele>
        <time>2021-05-02T07:35:21.000Z</time>
      </trkpt>
      <trkpt lat="43.67404" lon="6.83402">
        <ele>695.5</ele>
        <time>2021-05-02T07:35:22.000Z</time>
      </trkpt>
      <trkpt lat="43.67403" lon="6.834">
        <ele>695.6</ele>
        <time>2021-05-02T07:35:23.000Z</time>
      </trkpt>
      <trkpt lat="43.67403" lon="6.83397">
        <ele>695.8</ele>
        <time>2021-05-02T07:35:24.000Z</time>
      </trkpt>
      <trkpt lat="43.67402" lon="6.83395">
        <ele>696.4</ele>
        <time>2021-05-02T07:35:25.000Z</time>
      </trkpt>
      <trkpt lat="43.67402" lon="6.83392">
        <ele>696.7</ele>
        <time>2021-05-02T07:35:26.000Z</time>
      </trkpt>
      <trkpt lat="43.674" lon="6.8339">
        <ele>697</ele>
        <time>2021-05-02T07:35:27.000Z</time>
      </trkpt>
      <trkpt lat="43.67399" lon="6.83387">
        <ele>697.3</ele>
        <time>2021-05-02T07:35:28.000Z</time>
      </trkpt>
      <trkpt lat="43.67399" lon="6.83384">
        <ele>697.9</ele>
        <time>2021-05-02T07:35:29.000Z</time>
      </trkpt>
      <trkpt lat="43.67398" lon="6.83382">
        <ele>698.4</ele>
        <time>2021-05-02T07:35:30.000Z</time>
      </trkpt>
      <trkpt lat="43.67397" lon="6.8338">
        <ele>698.6</ele>
        <time>2021-05-02T07:35:31.000Z</time>
      </trkpt>
      <trkpt lat="43.67396" lon="6.83378">
        <ele>698.8</ele>
        <time>2021-05-02T07:35:32.000Z</time>
      </trkpt>
      <trkpt lat="43.67395" lon="6.83376">
        <ele>698.8</ele>
        <time>2021-05-02T07:35:33.000Z</time>
      </trkpt>
      <trkpt lat="43.67394" lon="6.83374">
        <ele>698.6</ele>
        <time>2021-05-02T07:35:34.000Z</time>
      </trkpt>
      <trkpt lat="43.67393" lon="6.83372">
        <ele>698.6</ele>
        <time>2021-05-02T07:35:35.000Z</time>
      </trkpt>
      <trkpt lat="43.67392" lon="6.8337">
        <ele>698.6</ele>
        <time>2021-05-02T07:35:36.000Z</time>
      </trkpt>
      <trkpt lat="43.67391" lon="6.83367">
        <ele>698.6</ele>
        <time>2021-05-02T07:35:37.000Z</time>
      </trkpt>
      <trkpt lat="43.6739" lon="6.83365">
        <ele>698.9</ele>
        <time>2021-05-02T07:35:38.000Z</time>
      </trkpt>
      <trkpt lat="43.6739" lon="6.83363">
        <ele>699</ele>
        <time>2021-05-02T07:35:39.000Z</time>
      </trkpt>
      <trkpt lat="43.67389" lon="6.83362">
        <ele>699.2</ele>
        <time>2021-05-02T07:35:40.000Z</time>
      </trkpt>
      <trkpt lat="43.67388" lon="6.8336">
        <ele>699.4</ele>
        <time>2021-05-02T07:35:41.000Z</time>
      </trkpt>
      <trkpt lat="43.67388" lon="6.83357">
        <ele>699.6</ele>
        <time>2021-05-02T07:35:42.000Z</time>
      </trkpt>
      <trkpt lat="43.67387" lon="6.83355">
        <ele>699.8</ele>
        <time>2021-05-02T07:35:43.000Z</time>
      </trkpt>
      <trkpt lat="43.67387" lon="6.83353">
        <ele>700</ele>
        <time>2021-05-02T07:35:44.000Z</time>
      </trkpt>
      <trkpt lat="43.67386" lon="6.83351">
        <ele>700.1</ele>
        <time>2021-05-02T07:35:45.000Z</time>
      </trkpt>
      <trkpt lat="43.67385" lon="6.83349">
        <ele>700.2</ele>
        <time>2021-05-02T07:35:46.000Z</time>
      </trkpt>
      <trkpt lat="43.67385" lon="6.83347">
        <ele>700.3</ele>
        <time>2021-05-02T07:35:47.000Z</time>
      </trkpt>
      <trkpt lat="43.67384" lon="6.83345">
        <ele>700.4</ele>
        <time>2021-05-02T07:35:48.000Z</time>
      </trkpt>
      <trkpt lat="43.67383" lon="6.83343">
        <ele>700.5</ele>
        <time>2021-05-02T07:35:49.000Z</time>
      </trkpt>
      <trkpt lat="43.67383" lon="6.83341">
        <ele>700.6</ele>
        <time>2021-05-02T07:35:50.000Z</time>
      </trkpt>
      <trkpt lat="43.67382" lon="6.83339">
        <ele>700.7</ele>
        <time>2021-05-02T07:35:51.000Z</time>
      </trkpt>
      <trkpt lat="43.67381" lon="6.83337">
        <ele>700.9</ele>
        <time>2021-05-02T07:35:52.000Z</time>
      </trkpt>
      <trkpt lat="43.6738" lon="6.83335">
        <ele>701.1</ele>
        <time>2021-05-02T07:35:53.000Z</time>
      </trkpt>
      <trkpt lat="43.67379" lon="6.83333">
        <ele>701.3</ele>
        <time>2021-05-02T07:35:54.000Z</time>
      </trkpt>
      <trkpt lat="43.67379" lon="6.8333">
        <ele>701.5</ele>
        <time>2021-05-02T07:35:55.000Z</time>
      </trkpt>
      <trkpt lat="43.67378" lon="6.83328">
        <ele>701.7</ele>
        <time>2021-05-02T07:35:56.000Z</time>
      </trkpt>
      <trkpt lat="43.67377" lon="6.83326">
        <ele>701.9</ele>
        <time>2021-05-02T07:35:57.000Z</time>
      </trkpt>
      <trkpt lat="43.67377" lon="6.83324">
        <ele>702</ele>
        <time>2021-05-02T07:35:58.000Z</time>
      </trkpt>
      <trkpt lat="43.67376" lon="6.83322">
        <ele>702.2</ele>
        <time>2021-05-02T07:35:59.000Z</time>
      </trkpt>
      <trkpt lat="43.67376" lon="6.83319">
        <ele>702.2</ele>
        <time>2021-05-02T07:36:00.000Z</time>
      </trkpt>
      <trkpt lat="43.67375" lon="6.83317">
        <ele>702.3</ele>
        <time>2021-05-02T07:36:01.000Z</time>
      </trkpt>
      <trkpt lat="43.67375" lon="6.83315">
        <ele>702.5</ele>
        <time>2021-05-02T07:36:02.000Z</time>
      </trkpt>
      <trkpt lat="43.67374" lon="6.83313">
        <ele>702.6</ele>
        <time>2021-05-02T07:36:03.000Z</time>
      </trkpt>
      <trkpt lat="43.67373" lon="6.83311">
        <ele>702.8</ele>
        <time>2021-05-02T07:36:04.000Z</time>
      </trkpt>
      <trkpt lat="43.67372" lon="6.83309">
        <ele>702.9</ele>
        <time>2021-05-02T07:36:05.000Z</time>
      </trkpt>
      <trkpt lat="43.67371" lon="6.83307">
        <ele>703.1</ele>
        <time>2021-05-02T07:36:06.000Z</time>
      </trkpt>
      <trkpt lat="43.67371" lon="6.83305">
        <ele>703.2</ele>
        <time>2021-05-02T07:36:07.000Z</time>
      </trkpt>
      <trkpt lat="43.6737" lon="6.83303">
        <ele>703.4</ele>
        <time>2021-05-02T07:36:08.000Z</time>
      </trkpt>
      <trkpt lat="43.6737" lon="6.833">
        <ele>703.7</ele>
        <time>2021-05-02T07:36:09.000Z</time>
      </trkpt>
      <trkpt lat="43.67369" lon="6.83298">
        <ele>704</ele>
        <time>2021-05-02T07:36:10.000Z</time>
      </trkpt>
      <trkpt lat="43.67369" lon="6.83296">
        <ele>704.1</ele>
        <time>2021-05-02T07:36:11.000Z</time>
      </trkpt>
      <trkpt lat="43.67368" lon="6.83293">
        <ele>704.1</ele>
        <time>2021-05-02T07:36:12.000Z</time>
      </trkpt>
      <trkpt lat="43.67367" lon="6.83291">
        <ele>704.1</ele>
        <time>2021-05-02T07:36:13.000Z</time>
      </trkpt>
      <trkpt lat="43.67367" lon="6.83289">
        <ele>704</ele>
        <time>2021-05-02T07:36:14.000Z</time>
      </trkpt>
      <trkpt lat="43.67366" lon="6.83287">
        <ele>704.3</ele>
        <time>2021-05-02T07:36:15.000Z</time>
      </trkpt>
      <trkpt lat="43.67365" lon="6.83284">
        <ele>704.4</ele>
        <time>2021-05-02T07:36:16.000Z</time>
      </trkpt>
      <trkpt lat="43.67364" lon="6.83282">
        <ele>704.4</ele>
        <time>2021-05-02T07:36:17.000Z</time>
      </trkpt>
      <trkpt lat="43.67363" lon="6.8328">
        <ele>704.5</ele>
        <time>2021-05-02T07:36:18.000Z</time>
      </trkpt>
      <trkpt lat="43.67362" lon="6.83278">
        <ele>704.5</ele>
        <time>2021-05-02T07:36:19.000Z</time>
      </trkpt>
      <trkpt lat="43.67361" lon="6.83276">
        <ele>704.5</ele>
        <time>2021-05-02T07:36:20.000Z</time>
      </trkpt>
      <trkpt lat="43.67361" lon="6.83273">
        <ele>704.6</ele>
        <time>2021-05-02T07:36:21.000Z</time>
      </trkpt>
      <trkpt lat="43.6736" lon="6.83271">
        <ele>704.7</ele>
        <time>2021-05-02T07:36:22.000Z</time>
      </trkpt>
      <trkpt lat="43.67359" lon="6.8327">
        <ele>704.8</ele>
        <time>2021-05-02T07:36:23.000Z</time>
      </trkpt>
      <trkpt lat="43.67358" lon="6.83268">
        <ele>704.9</ele>
        <time>2021-05-02T07:36:24.000Z</time>
      </trkpt>
      <trkpt lat="43.67358" lon="6.83266">
        <ele>705</ele>
        <time>2021-05-02T07:36:25.000Z</time>
      </trkpt>
      <trkpt lat="43.67357" lon="6.83264">
        <ele>705.1</ele>
        <time>2021-05-02T07:36:26.000Z</time>
      </trkpt>
      <trkpt lat="43.67356" lon="6.83262">
        <ele>705.3</ele>
        <time>2021-05-02T07:36:27.000Z</time>
      </trkpt>
      <trkpt lat="43.67355" lon="6.8326">
        <ele>705.3</ele>
        <time>2021-05-02T07:36:28.000Z</time>
      </trkpt>
      <trkpt lat="43.67354" lon="6.83259">
        <ele>705.3</ele>
        <time>2021-05-02T07:36:29.000Z</time>
      </trkpt>
      <trkpt lat="43.67354" lon="6.83257">
        <ele>705.5</ele>
        <time>2021-05-02T07:36:30.000Z</time>
      </trkpt>
      <trkpt lat="43.67353" lon="6.83256">
        <ele>705.5</ele>
        <time>2021-05-02T07:36:31.000Z</time>
      </trkpt>
      <trkpt lat="43.67349" lon="6.83255">
        <ele>703.1</ele>
        <time>2021-05-02T07:37:53.000Z</time>
      </trkpt>
      <trkpt lat="43.67347" lon="6.83257">
        <ele>702.9</ele>
        <time>2021-05-02T07:37:54.000Z</time>
      </trkpt>
      <trkpt lat="43.67344" lon="6.83259">
        <ele>702.8</ele>
        <time>2021-05-02T07:37:55.000Z</time>
      </trkpt>
      <trkpt lat="43.6734" lon="6.83259">
        <ele>702.5</ele>
        <time>2021-05-02T07:37:56.000Z</time>
      </trkpt>
      <trkpt lat="43.67337" lon="6.8326">
        <ele>702.1</ele>
        <time>2021-05-02T07:37:57.000Z</time>
      </trkpt>
      <trkpt lat="43.67334" lon="6.83263">
        <ele>701.5</ele>
        <time>2021-05-02T07:37:58.000Z</time>
      </trkpt>
      <trkpt lat="43.67332" lon="6.83264">
        <ele>701</ele>
        <time>2021-05-02T07:37:59.000Z</time>
      </trkpt>
      <trkpt lat="43.6733" lon="6.83263">
        <ele>700.9</ele>
        <time>2021-05-02T07:38:00.000Z</time>
      </trkpt>
      <trkpt lat="43.67329" lon="6.83261">
        <ele>700.7</ele>
        <time>2021-05-02T07:38:01.000Z</time>
      </trkpt>
      <trkpt lat="43.67326" lon="6.83259">
        <ele>700.3</ele>
        <time>2021-05-02T07:38:02.000Z</time>
      </trkpt>
      <trkpt lat="43.67325" lon="6.83256">
        <ele>700.2</ele>
        <time>2021-05-02T07:38:03.000Z</time>
      </trkpt>
      <trkpt lat="43.67323" lon="6.83254">
        <ele>699.9</ele>
        <time>2021-05-02T07:38:04.000Z</time>
      </trkpt>
      <trkpt lat="43.67321" lon="6.83253">
        <ele>699.3</ele>
        <time>2021-05-02T07:38:05.000Z</time>
      </trkpt>
      <trkpt lat="43.67319" lon="6.83254">
        <ele>699.1</ele>
        <time>2021-05-02T07:38:06.000Z</time>
      </trkpt>
      <trkpt lat="43.67317" lon="6.83257">
        <ele>698.2</ele>
        <time>2021-05-02T07:38:07.000Z</time>
      </trkpt>
      <trkpt lat="43.67315" lon="6.83259">
        <ele>697.7</ele>
        <time>2021-05-02T07:38:08.000Z</time>
      </trkpt>
      <trkpt lat="43.67312" lon="6.8326">
        <ele>697</ele>
        <time>2021-05-02T07:38:09.000Z</time>
      </trkpt>
      <trkpt lat="43.6731" lon="6.8326">
        <ele>696.2</ele>
        <time>2021-05-02T07:38:10.000Z</time>
      </trkpt>
      <trkpt lat="43.67308" lon="6.83261">
        <ele>695.8</ele>
        <time>2021-05-02T07:38:11.000Z</time>
      </trkpt>
      <trkpt lat="43.67306" lon="6.83264">
        <ele>695.4</ele>
        <time>2021-05-02T07:38:12.000Z</time>
      </trkpt>
      <trkpt lat="43.67305" lon="6.83267">
        <ele>694.8</ele>
        <time>2021-05-02T07:38:13.000Z</time>
      </trkpt>
      <trkpt lat="43.67305" lon="6.83271">
        <ele>694.8</ele>
        <time>2021-05-02T07:38:14.000Z</time>
      </trkpt>
      <trkpt lat="43.67306" lon="6.83276">
        <ele>694.4</ele>
        <time>2021-05-02T07:38:15.000Z</time>
      </trkpt>
      <trkpt lat="43.67306" lon="6.8328">
        <ele>694.2</ele>
        <time>2021-05-02T07:38:16.000Z</time>
      </trkpt>
      <trkpt lat="43.67305" lon="6.83285">
        <ele>694</ele>
        <time>2021-05-02T07:38:17.000Z</time>
      </trkpt>
      <trkpt lat="43.67304" lon="6.83289">
        <ele>693.6</ele>
        <time>2021-05-02T07:38:18.000Z</time>
      </trkpt>
      <trkpt lat="43.67302" lon="6.83293">
        <ele>693.7</ele>
        <time>2021-05-02T07:38:19.000Z</time>
      </trkpt>
      <trkpt lat="43.673" lon="6.83296">
        <ele>693.8</ele>
        <time>2021-05-02T07:38:20.000Z</time>
      </trkpt>
      <trkpt lat="43.67298" lon="6.83298">
        <ele>693.8</ele>
        <time>2021-05-02T07:38:21.000Z</time>
      </trkpt>
      <trkpt lat="43.67296" lon="6.83299">
        <ele>693.5</ele>
        <time>2021-05-02T07:38:22.000Z</time>
      </trkpt>
      <trkpt lat="43.67293" lon="6.833">
        <ele>693.2</ele>
        <time>2021-05-02T07:38:23.000Z</time>
      </trkpt>
      <trkpt lat="43.6729" lon="6.833">
        <ele>692.7</ele>
        <time>2021-05-02T07:38:24.000Z</time>
      </trkpt>
      <trkpt lat="43.67287" lon="6.833">
        <ele>692.2</ele>
        <time>2021-05-02T07:38:25.000Z</time>
      </trkpt>
      <trkpt lat="43.67286" lon="6.83299">
        <ele>692</ele>
        <time>2021-05-02T07:38:26.000Z</time>
      </trkpt>
      <trkpt lat="43.67285" lon="6.83298">
        <ele>692.5</ele>
        <time>2021-05-02T07:38:35.000Z</time>
      </trkpt>
      <trkpt lat="43.67283" lon="6.83297">
        <ele>692.5</ele>
        <time>2021-05-02T07:38:36.000Z</time>
      </trkpt>
      <trkpt lat="43.67281" lon="6.83295">
        <ele>692.4</ele>
        <time>2021-05-02T07:38:37.000Z</time>
      </trkpt>
      <trkpt lat="43.67278" lon="6.83293">
        <ele>692.1</ele>
        <time>2021-05-02T07:38:38.000Z</time>
      </trkpt>
      <trkpt lat="43.67274" lon="6.8329">
        <ele>691.8</ele>
        <time>2021-05-02T07:38:39.000Z</time>
      </trkpt>
      <trkpt lat="43.67271" lon="6.83286">
        <ele>691.7</ele>
        <time>2021-05-02T07:38:40.000Z</time>
      </trkpt>
      <trkpt lat="43.67267" lon="6.83282">
        <ele>691.3</ele>
        <time>2021-05-02T07:38:41.000Z</time>
      </trkpt>
      <trkpt lat="43.67263" lon="6.83277">
        <ele>691.4</ele>
        <time>2021-05-02T07:38:42.000Z</time>
      </trkpt>
      <trkpt lat="43.6726" lon="6.83272">
        <ele>691.4</ele>
        <time>2021-05-02T07:38:43.000Z</time>
      </trkpt>
      <trkpt lat="43.67257" lon="6.83266">
        <ele>690.3</ele>
        <time>2021-05-02T07:38:44.000Z</time>
      </trkpt>
      <trkpt lat="43.67255" lon="6.8326">
        <ele>689.4</ele>
        <time>2021-05-02T07:38:45.000Z</time>
      </trkpt>
      <trkpt lat="43.67252" lon="6.83255">
        <ele>688.6</ele>
        <time>2021-05-02T07:38:46.000Z</time>
      </trkpt>
      <trkpt lat="43.67248" lon="6.83252">
        <ele>687.6</ele>
        <time>2021-05-02T07:38:47.000Z</time>
      </trkpt>
      <trkpt lat="43.67245" lon="6.8325">
        <ele>686.4</ele>
        <time>2021-05-02T07:38:48.000Z</time>
      </trkpt>
      <trkpt lat="43.67241" lon="6.83251">
        <ele>685.3</ele>
        <time>2021-05-02T07:38:49.000Z</time>
      </trkpt>
      <trkpt lat="43.67237" lon="6.83254">
        <ele>684.5</ele>
        <time>2021-05-02T07:38:50.000Z</time>
      </trkpt>
      <trkpt lat="43.67234" lon="6.83259">
        <ele>683.7</ele>
        <time>2021-05-02T07:38:51.000Z</time>
      </trkpt>
      <trkpt lat="43.67232" lon="6.83266">
        <ele>683.2</ele>
        <time>2021-05-02T07:38:52.000Z</time>
      </trkpt>
      <trkpt lat="43.67231" lon="6.83274">
        <ele>682.7</ele>
        <time>2021-05-02T07:38:53.000Z</time>
      </trkpt>
      <trkpt lat="43.6723" lon="6.83282">
        <ele>682.3</ele>
        <time>2021-05-02T07:38:54.000Z</time>
      </trkpt>
      <trkpt lat="43.6723" lon="6.83289">
        <ele>682.1</ele>
        <time>2021-05-02T07:38:55.000Z</time>
      </trkpt>
      <trkpt lat="43.6723" lon="6.83294">
        <ele>681.4</ele>
        <time>2021-05-02T07:38:56.000Z</time>
      </trkpt>
      <trkpt lat="43.6723" lon="6.83298">
        <ele>680.8</ele>
        <time>2021-05-02T07:38:57.000Z</time>
      </trkpt>
      <trkpt lat="43.67229" lon="6.83299">
        <ele>680.7</ele>
        <time>2021-05-02T07:38:58.000Z</time>
      </trkpt>
      <trkpt lat="43.67225" lon="6.833">
        <ele>681.2</ele>
        <time>2021-05-02T07:39:17.000Z</time>
      </trkpt>
      <trkpt lat="43.67224" lon="6.83298">
        <ele>681.1</ele>
        <time>2021-05-02T07:39:18.000Z</time>
      </trkpt>
      <trkpt lat="43.67223" lon="6.83296">
        <ele>681.1</ele>
        <time>2021-05-02T07:39:19.000Z</time>
      </trkpt>
      <trkpt lat="43.67223" lon="6.83293">
        <ele>681.1</ele>
        <time>2021-05-02T07:39:20.000Z</time>
      </trkpt>
      <trkpt lat="43.67223" lon="6.8329">
        <ele>680.9</ele>
        <time>2021-05-02T07:39:21.000Z</time>
      </trkpt>
      <trkpt lat="43.67223" lon="6.83287">
        <ele>681</ele>
        <time>2021-05-02T07:39:22.000Z</time>
      </trkpt>
      <trkpt lat="43.67222" lon="6.83283">
        <ele>681.2</ele>
        <time>2021-05-02T07:39:23.000Z</time>
      </trkpt>
      <trkpt lat="43.6722" lon="6.83279">
        <ele>681</ele>
        <time>2021-05-02T07:39:24.000Z</time>
      </trkpt>
      <trkpt lat="43.67218" lon="6.83275">
        <ele>680.6</ele>
        <time>2021-05-02T07:39:25.000Z</time>
      </trkpt>
      <trkpt lat="43.67216" lon="6.83271">
        <ele>680.2</ele>
        <time>2021-05-02T07:39:26.000Z</time>
      </trkpt>
      <trkpt lat="43.67214" lon="6.83267">
        <ele>679.9</ele>
        <time>2021-05-02T07:39:27.000Z</time>
      </trkpt>
      <trkpt lat="43.67212" lon="6.83263">
        <ele>679.6</ele>
        <time>2021-05-02T07:39:28.000Z</time>
      </trkpt>
      <trkpt lat="43.6721" lon="6.83258">
        <ele>679.1</ele>
        <time>2021-05-02T07:39:29.000Z</time>
      </trkpt>
      <trkpt lat="43.67209" lon="6.83254">
        <ele>678.1</ele>
        <time>2021-05-02T07:39:30.000Z</time>
      </trkpt>
      <trkpt lat="43.67207" lon="6.83249">
        <ele>677.2</ele>
        <time>2021-05-02T07:39:31.000Z</time>
      </trkpt>
      <trkpt lat="43.67206" lon="6.83243">
        <ele>676.5</ele>
        <time>2021-05-02T07:39:32.000Z</time>
      </trkpt>
      <trkpt lat="43.67203" lon="6.83237">
        <ele>675.9</ele>
        <time>2021-05-02T07:39:33.000Z</time>
      </trkpt>
      <trkpt lat="43.67201" lon="6.83232">
        <ele>675</ele>
        <time>2021-05-02T07:39:34.000Z</time>
      </trkpt>
      <trkpt lat="43.67198" lon="6.83226">
        <ele>674.6</ele>
        <time>2021-05-02T07:39:35.000Z</time>
      </trkpt>
      <trkpt lat="43.67196" lon="6.83221">
        <ele>674.5</ele>
        <time>2021-05-02T07:39:36.000Z</time>
      </trkpt>
      <trkpt lat="43.67194" lon="6.83215">
        <ele>674.3</ele>
        <time>2021-05-02T07:39:37.000Z</time>
      </trkpt>
      <trkpt lat="43.67192" lon="6.8321">
        <ele>674</ele>
        <time>2021-05-02T07:39:38.000Z</time>
      </trkpt>
      <trkpt lat="43.67189" lon="6.83206">
        <ele>673.4</ele>
        <time>2021-05-02T07:39:39.000Z</time>
      </trkpt>
      <trkpt lat="43.67186" lon="6.83202">
        <ele>673.1</ele>
        <time>2021-05-02T07:39:40.000Z</time>
      </trkpt>
      <trkpt lat="43.67183" lon="6.83198">
        <ele>673.1</ele>
        <time>2021-05-02T07:39:41.000Z</time>
      </trkpt>
      <trkpt lat="43.6718" lon="6.83194">
        <ele>672.9</ele>
        <time>2021-05-02T07:39:42.000Z</time>
      </trkpt>
      <trkpt lat="43.67177" lon="6.83191">
        <ele>672.6</ele>
        <time>2021-05-02T07:39:43.000Z</time>
      </trkpt>
      <trkpt lat="43.67175" lon="6.83187">
        <ele>672.5</ele>
        <time>2021-05-02T07:39:44.000Z</time>
      </trkpt>
      <trkpt lat="43.67172" lon="6.83182">
        <ele>672.1</ele>
        <time>2021-05-02T07:39:45.000Z</time>
      </trkpt>
      <trkpt lat="43.6717" lon="6.83178">
        <ele>672</ele>
        <time>2021-05-02T07:39:46.000Z</time>
      </trkpt>
      <trkpt lat="43.67168" lon="6.83175">
        <ele>671.6</ele>
        <time>2021-05-02T07:39:47.000Z</time>
      </trkpt>
      <trkpt lat="43.67167" lon="6.83172">
        <ele>672</ele>
        <time>2021-05-02T07:39:48.000Z</time>
      </trkpt>
      <trkpt lat="43.67166" lon="6.8317">
        <ele>672</ele>
        <time>2021-05-02T07:39:49.000Z</time>
      </trkpt>
      <trkpt lat="43.67165" lon="6.83167">
        <ele>671.6</ele>
        <time>2021-05-02T07:39:50.000Z</time>
      </trkpt>
      <trkpt lat="43.67164" lon="6.83165">
        <ele>671.1</ele>
        <time>2021-05-02T07:39:51.000Z</time>
      </trkpt>
      <trkpt lat="43.67163" lon="6.83163">
        <ele>671.4</ele>
        <time>2021-05-02T07:39:52.000Z</time>
      </trkpt>
      <trkpt lat="43.67162" lon="6.83163">
        <ele>671.6</ele>
        <time>2021-05-02T07:39:55.000Z</time>
      </trkpt>
      <trkpt lat="43.67162" lon="6.83158">
        <ele>669.8</ele>
        <time>2021-05-02T07:40:17.000Z</time>
      </trkpt>
      <trkpt lat="43.67161" lon="6.83155">
        <ele>669.7</ele>
        <time>2021-05-02T07:40:18.000Z</time>
      </trkpt>
      <trkpt lat="43.67159" lon="6.83153">
        <ele>669.5</ele>
        <time>2021-05-02T07:40:19.000Z</time>
      </trkpt>
      <trkpt lat="43.67157" lon="6.83151">
        <ele>669.1</ele>
        <time>2021-05-02T07:40:20.000Z</time>
      </trkpt>
      <trkpt lat="43.67156" lon="6.83148">
        <ele>668.8</ele>
        <time>2021-05-02T07:40:21.000Z</time>
      </trkpt>
      <trkpt lat="43.67154" lon="6.83144">
        <ele>668.3</ele>
        <time>2021-05-02T07:40:22.000Z</time>
      </trkpt>
      <trkpt lat="43.67153" lon="6.8314">
        <ele>667.5</ele>
        <time>2021-05-02T07:40:23.000Z</time>
      </trkpt>
      <trkpt lat="43.67152" lon="6.83136">
        <ele>666.5</ele>
        <time>2021-05-02T07:40:24.000Z</time>
      </trkpt>
      <trkpt lat="43.6715" lon="6.83133">
        <ele>665.2</ele>
        <time>2021-05-02T07:40:25.000Z</time>
      </trkpt>
      <trkpt lat="43.67148" lon="6.83128">
        <ele>663.9</ele>
        <time>2021-05-02T07:40:26.000Z</time>
      </trkpt>
      <trkpt lat="43.67146" lon="6.83124">
        <ele>663.3</ele>
        <time>2021-05-02T07:40:27.000Z</time>
      </trkpt>
      <trkpt lat="43.67144" lon="6.8312">
        <ele>662.8</ele>
        <time>2021-05-02T07:40:28.000Z</time>
      </trkpt>
      <trkpt lat="43.67143" lon="6.83115">
        <ele>662.6</ele>
        <time>2021-05-02T07:40:29.000Z</time>
      </trkpt>
      <trkpt lat="43.67143" lon="6.83111">
        <ele>661.6</ele>
        <time>2021-05-02T07:40:30.000Z</time>
      </trkpt>
      <trkpt lat="43.67143" lon="6.83107">
        <ele>660.7</ele>
        <time>2021-05-02T07:40:31.000Z</time>
      </trkpt>
      <trkpt lat="43.67142" lon="6.83103">
        <ele>659.9</ele>
        <time>2021-05-02T07:40:32.000Z</time>
      </trkpt>
      <trkpt lat="43.67142" lon="6.83099">
        <ele>658.9</ele>
        <time>2021-05-02T07:40:33.000Z</time>
      </trkpt>
      <trkpt lat="43.67142" lon="6.83094">
        <ele>657.1</ele>
        <time>2021-05-02T07:40:34.000Z</time>
      </trkpt>
      <trkpt lat="43.67141" lon="6.8309">
        <ele>656.4</ele>
        <time>2021-05-02T07:40:35.000Z</time>
      </trkpt>
      <trkpt lat="43.6714" lon="6.83087">
        <ele>655.8</ele>
        <time>2021-05-02T07:40:36.000Z</time>
      </trkpt>
      <trkpt lat="43.67137" lon="6.83085">
        <ele>655</ele>
        <time>2021-05-02T07:40:37.000Z</time>
      </trkpt>
      <trkpt lat="43.67135" lon="6.83085">
        <ele>654.3</ele>
        <time>2021-05-02T07:40:38.000Z</time>
      </trkpt>
      <trkpt lat="43.67132" lon="6.83087">
        <ele>653.2</ele>
        <time>2021-05-02T07:40:39.000Z</time>
      </trkpt>
      <trkpt lat="43.67129" lon="6.83089">
        <ele>652.6</ele>
        <time>2021-05-02T07:40:40.000Z</time>
      </trkpt>
      <trkpt lat="43.67126" lon="6.83093">
        <ele>652.7</ele>
        <time>2021-05-02T07:40:41.000Z</time>
      </trkpt>
      <trkpt lat="43.67122" lon="6.83097">
        <ele>652.3</ele>
        <time>2021-05-02T07:40:42.000Z</time>
      </trkpt>
      <trkpt lat="43.67119" lon="6.83101">
        <ele>652.8</ele>
        <time>2021-05-02T07:40:43.000Z</time>
      </trkpt>
      <trkpt lat="43.67117" lon="6.83106">
        <ele>652.8</ele>
        <time>2021-05-02T07:40:44.000Z</time>
      </trkpt>
      <trkpt lat="43.67115" lon="6.83111">
        <ele>652.9</ele>
        <time>2021-05-02T07:40:45.000Z</time>
      </trkpt>
      <trkpt lat="43.67114" lon="6.83114">
        <ele>653.2</ele>
        <time>2021-05-02T07:40:46.000Z</time>
      </trkpt>
      <trkpt lat="43.67113" lon="6.83116">
        <ele>653.8</ele>
        <time>2021-05-02T07:40:47.000Z</time>
      </trkpt>
      <trkpt lat="43.67113" lon="6.8312">
        <ele>655.6</ele>
        <time>2021-05-02T07:41:34.000Z</time>
      </trkpt>
      <trkpt lat="43.67112" lon="6.83122">
        <ele>655.7</ele>
        <time>2021-05-02T07:41:35.000Z</time>
      </trkpt>
      <trkpt lat="43.67111" lon="6.83125">
        <ele>655.8</ele>
        <time>2021-05-02T07:41:36.000Z</time>
      </trkpt>
      <trkpt lat="43.67111" lon="6.83128">
        <ele>656.1</ele>
        <time>2021-05-02T07:41:37.000Z</time>
      </trkpt>
      <trkpt lat="43.67109" lon="6.83131">
        <ele>656.2</ele>
        <time>2021-05-02T07:41:38.000Z</time>
      </trkpt>
      <trkpt lat="43.67108" lon="6.83136">
        <ele>656</ele>
        <time>2021-05-02T07:41:39.000Z</time>
      </trkpt>
      <trkpt lat="43.67105" lon="6.8314">
        <ele>656.3</ele>
        <time>2021-05-02T07:41:40.000Z</time>
      </trkpt>
      <trkpt lat="43.67104" lon="6.83145">
        <ele>656.6</ele>
        <time>2021-05-02T07:41:41.000Z</time>
      </trkpt>
      <trkpt lat="43.67103" lon="6.8315">
        <ele>657.4</ele>
        <time>2021-05-02T07:41:42.000Z</time>
      </trkpt>
      <trkpt lat="43.67102" lon="6.83154">
        <ele>657.5</ele>
        <time>2021-05-02T07:41:43.000Z</time>
      </trkpt>
      <trkpt lat="43.67101" lon="6.83157">
        <ele>657.7</ele>
        <time>2021-05-02T07:41:44.000Z</time>
      </trkpt>
      <trkpt lat="43.671" lon="6.83161">
        <ele>657.3</ele>
        <time>2021-05-02T07:41:45.000Z</time>
      </trkpt>
      <trkpt lat="43.67099" lon="6.83165">
        <ele>657</ele>
        <time>2021-05-02T07:41:46.000Z</time>
      </trkpt>
      <trkpt lat="43.67099" lon="6.83169">
        <ele>656.2</ele>
        <time>2021-05-02T07:41:47.000Z</time>
      </trkpt>
      <trkpt lat="43.67098" lon="6.83174">
        <ele>655.6</ele>
        <time>2021-05-02T07:41:48.000Z</time>
      </trkpt>
      <trkpt lat="43.67097" lon="6.83179">
        <ele>655</ele>
        <time>2021-05-02T07:41:49.000Z</time>
      </trkpt>
      <trkpt lat="43.67096" lon="6.83185">
        <ele>654.3</ele>
        <time>2021-05-02T07:41:50.000Z</time>
      </trkpt>
      <trkpt lat="43.67096" lon="6.83191">
        <ele>653.5</ele>
        <time>2021-05-02T07:41:51.000Z</time>
      </trkpt>
      <trkpt lat="43.67096" lon="6.83198">
        <ele>652.4</ele>
        <time>2021-05-02T07:41:52.000Z</time>
      </trkpt>
      <trkpt lat="43.67096" lon="6.83204">
        <ele>651.5</ele>
        <time>2021-05-02T07:41:53.000Z</time>
      </trkpt>
      <trkpt lat="43.67096" lon="6.83211">
        <ele>650.1</ele>
        <time>2021-05-02T07:41:54.000Z</time>
      </trkpt>
      <trkpt lat="43.67096" lon="6.83217">
        <ele>649.8</ele>
        <time>2021-05-02T07:41:55.000Z</time>
      </trkpt>
      <trkpt lat="43.67096" lon="6.83222">
        <ele>648.9</ele>
        <time>2021-05-02T07:41:56.000Z</time>
      </trkpt>
      <trkpt lat="43.67096" lon="6.83227">
        <ele>648.6</ele>
        <time>2021-05-02T07:41:57.000Z</time>
      </trkpt>
      <trkpt lat="43.67095" lon="6.83231">
        <ele>647.9</ele>
        <time>2021-05-02T07:41:58.000Z</time>
      </trkpt>
      <trkpt lat="43.67094" lon="6.83234">
        <ele>647</ele>
        <time>2021-05-02T07:41:59.000Z</time>
      </trkpt>
      <trkpt lat="43.67092" lon="6.83236">
        <ele>646.6</ele>
        <time>2021-05-02T07:42:00.000Z</time>
      </trkpt>
      <trkpt lat="43.67091" lon="6.83238">
        <ele>646.9</ele>
        <time>2021-05-02T07:42:01.000Z</time>
      </trkpt>
      <trkpt lat="43.67089" lon="6.8324">
        <ele>647.1</ele>
        <time>2021-05-02T07:42:02.000Z</time>
      </trkpt>
      <trkpt lat="43.67087" lon="6.83242">
        <ele>647.6</ele>
        <time>2021-05-02T07:42:03.000Z</time>
      </trkpt>
      <trkpt lat="43.67085" lon="6.83245">
        <ele>647.1</ele>
        <time>2021-05-02T07:42:04.000Z</time>
      </trkpt>
      <trkpt lat="43.67083" lon="6.83248">
        <ele>646.8</ele>
        <time>2021-05-02T07:42:05.000Z</time>
      </trkpt>
      <trkpt lat="43.6708" lon="6.8325">
        <ele>646.4</ele>
        <time>2021-05-02T07:42:06.000Z</time>
      </trkpt>
      <trkpt lat="43.67079" lon="6.83254">
        <ele>646</ele>
        <time>2021-05-02T07:42:07.000Z</time>
      </trkpt>
      <trkpt lat="43.67077" lon="6.83257">
        <ele>646</ele>
        <time>2021-05-02T07:42:08.000Z</time>
      </trkpt>
      <trkpt lat="43.67075" lon="6.83261">
        <ele>646.1</ele>
        <time>2021-05-02T07:42:09.000Z</time>
      </trkpt>
      <trkpt lat="43.67072" lon="6.83265">
        <ele>646.4</ele>
        <time>2021-05-02T07:42:10.000Z</time>
      </trkpt>
      <trkpt lat="43.67071" lon="6.83269">
        <ele>646.1</ele>
        <time>2021-05-02T07:42:11.000Z</time>
      </trkpt>
      <trkpt lat="43.67069" lon="6.83274">
        <ele>646.3</ele>
        <time>2021-05-02T07:42:12.000Z</time>
      </trkpt>
      <trkpt lat="43.67068" lon="6.83278">
        <ele>646</ele>
        <time>2021-05-02T07:42:13.000Z</time>
      </trkpt>
      <trkpt lat="43.67067" lon="6.83282">
        <ele>645.6</ele>
        <time>2021-05-02T07:42:14.000Z</time>
      </trkpt>
      <trkpt lat="43.67065" lon="6.83286">
        <ele>645.6</ele>
        <time>2021-05-02T07:42:15.000Z</time>
      </trkpt>
      <trkpt lat="43.67063" lon="6.8329">
        <ele>645.4</ele>
        <time>2021-05-02T07:42:16.000Z</time>
      </trkpt>
      <trkpt lat="43.67061" lon="6.83294">
        <ele>645.1</ele>
        <time>2021-05-02T07:42:17.000Z</time>
      </trkpt>
      <trkpt lat="43.67059" lon="6.83298">
        <ele>645.2</ele>
        <time>2021-05-02T07:42:18.000Z</time>
      </trkpt>
      <trkpt lat="43.67056" lon="6.83302">
        <ele>645.2</ele>
        <time>2021-05-02T07:42:19.000Z</time>
      </trkpt>
      <trkpt lat="43.67053" lon="6.83306">
        <ele>645.1</ele>
        <time>2021-05-02T07:42:20.000Z</time>
      </trkpt>
      <trkpt lat="43.6705" lon="6.8331">
        <ele>645</ele>
        <time>2021-05-02T07:42:21.000Z</time>
      </trkpt>
      <trkpt lat="43.67047" lon="6.83315">
        <ele>644.7</ele>
        <time>2021-05-02T07:42:22.000Z</time>
      </trkpt>
      <trkpt lat="43.67045" lon="6.8332">
        <ele>644.2</ele>
        <time>2021-05-02T07:42:23.000Z</time>
      </trkpt>
      <trkpt lat="43.67042" lon="6.83324">
        <ele>643.5</ele>
        <time>2021-05-02T07:42:24.000Z</time>
      </trkpt>
      <trkpt lat="43.67039" lon="6.83327">
        <ele>642.5</ele>
        <time>2021-05-02T07:42:25.000Z</time>
      </trkpt>
      <trkpt lat="43.67036" lon="6.83329">
        <ele>641.5</ele>
        <time>2021-05-02T07:42:26.000Z</time>
      </trkpt>
      <trkpt lat="43.67032" lon="6.83331">
        <ele>640.7</ele>
        <time>2021-05-02T07:42:27.000Z</time>
      </trkpt>
      <trkpt lat="43.67028" lon="6.83332">
        <ele>639.8</ele>
        <time>2021-05-02T07:42:28.000Z</time>
      </trkpt>
      <trkpt lat="43.67024" lon="6.83332">
        <ele>638.7</ele>
        <time>2021-05-02T07:42:29.000Z</time>
      </trkpt>
      <trkpt lat="43.6702" lon="6.83332">
        <ele>637.5</ele>
        <time>2021-05-02T07:42:30.000Z</time>
      </trkpt>
      <trkpt lat="43.67016" lon="6.83333">
        <ele>636.4</ele>
        <time>2021-05-02T07:42:31.000Z</time>
      </trkpt>
      <trkpt lat="43.67012" lon="6.83334">
        <ele>636.2</ele>
        <time>2021-05-02T07:42:32.000Z</time>
      </trkpt>
      <trkpt lat="43.67009" lon="6.83336">
        <ele>635.5</ele>
        <time>2021-05-02T07:42:33.000Z</time>
      </trkpt>
      <trkpt lat="43.67006" lon="6.83338">
        <ele>634.7</ele>
        <time>2021-05-02T07:42:34.000Z</time>
      </trkpt>
      <trkpt lat="43.67003" lon="6.83339">
        <ele>633.8</ele>
        <time>2021-05-02T07:42:35.000Z</time>
      </trkpt>
      <trkpt lat="43.66999" lon="6.83339">
        <ele>632.9</ele>
        <time>2021-05-02T07:42:36.000Z</time>
      </trkpt>
      <trkpt lat="43.66995" lon="6.83339">
        <ele>631.8</ele>
        <time>2021-05-02T07:42:37.000Z</time>
      </trkpt>
      <trkpt lat="43.66991" lon="6.83337">
        <ele>631.2</ele>
        <time>2021-05-02T07:42:38.000Z</time>
      </trkpt>
      <trkpt lat="43.66987" lon="6.83335">
        <ele>630.5</ele>
        <time>2021-05-02T07:42:39.000Z</time>
      </trkpt>
      <trkpt lat="43.66982" lon="6.83334">
        <ele>629.7</ele>
        <time>2021-05-02T07:42:40.000Z</time>
      </trkpt>
      <trkpt lat="43.66978" lon="6.83333">
        <ele>628.8</ele>
        <time>2021-05-02T07:42:41.000Z</time>
      </trkpt>
      <trkpt lat="43.66974" lon="6.83331">
        <ele>628.3</ele>
        <time>2021-05-02T07:42:42.000Z</time>
      </trkpt>
      <trkpt lat="43.66971" lon="6.83329">
        <ele>627.4</ele>
        <time>2021-05-02T07:42:43.000Z</time>
      </trkpt>
      <trkpt lat="43.66967" lon="6.83328">
        <ele>626.3</ele>
        <time>2021-05-02T07:42:44.000Z</time>
      </trkpt>
      <trkpt lat="43.66963" lon="6.83326">
        <ele>625.3</ele>
        <time>2021-05-02T07:42:45.000Z</time>
      </trkpt>
      <trkpt lat="43.6696" lon="6.83324">
        <ele>624.3</ele>
        <time>2021-05-02T07:42:46.000Z</time>
      </trkpt>
      <trkpt lat="43.66956" lon="6.83322">
        <ele>622.9</ele>
        <time>2021-05-02T07:42:47.000Z</time>
      </trkpt>
      <trkpt lat="43.66952" lon="6.83319">
        <ele>622</ele>
        <time>2021-05-02T07:42:48.000Z</time>
      </trkpt>
      <trkpt lat="43.66949" lon="6.83316">
        <ele>621.4</ele>
        <time>2021-05-02T07:42:49.000Z</time>
      </trkpt>
      <trkpt lat="43.66946" lon="6.83313">
        <ele>620.8</ele>
        <time>2021-05-02T07:42:50.000Z</time>
      </trkpt>
      <trkpt lat="43.66943" lon="6.83309">
        <ele>620.1</ele>
        <time>2021-05-02T07:42:51.000Z</time>
      </trkpt>
      <trkpt lat="43.6694" lon="6.83305">
        <ele>619.3</ele>
        <time>2021-05-02T07:42:52.000Z</time>
      </trkpt>
      <trkpt lat="43.66936" lon="6.83301">
        <ele>619.3</ele>
        <time>2021-05-02T07:42:53.000Z</time>
      </trkpt>
      <trkpt lat="43.66932" lon="6.83298">
        <ele>619.5</ele>
        <time>2021-05-02T07:42:54.000Z</time>
      </trkpt>
      <trkpt lat="43.66928" lon="6.83297">
        <ele>619.3</ele>
        <time>2021-05-02T07:42:55.000Z</time>
      </trkpt>
      <trkpt lat="43.66926" lon="6.83297">
        <ele>618.8</ele>
        <time>2021-05-02T07:42:56.000Z</time>
      </trkpt>
      <trkpt lat="43.66925" lon="6.83297">
        <ele>618.9</ele>
        <time>2021-05-02T07:42:57.000Z</time>
      </trkpt>
      <trkpt lat="43.66923" lon="6.833">
        <ele>619.5</ele>
        <time>2021-05-02T07:46:40.000Z</time>
      </trkpt>
      <trkpt lat="43.66922" lon="6.83301">
        <ele>619.6</ele>
        <time>2021-05-02T07:46:41.000Z</time>
      </trkpt>
      <trkpt lat="43.6692" lon="6.83303">
        <ele>619.8</ele>
        <time>2021-05-02T07:46:42.000Z</time>
      </trkpt>
      <trkpt lat="43.66919" lon="6.83306">
        <ele>620</ele>
        <time>2021-05-02T07:46:43.000Z</time>
      </trkpt>
      <trkpt lat="43.66918" lon="6.83309">
        <ele>620.1</ele>
        <time>2021-05-02T07:46:44.000Z</time>
      </trkpt>
      <trkpt lat="43.66918" lon="6.83312">
        <ele>620.3</ele>
        <time>2021-05-02T07:46:45.000Z</time>
      </trkpt>
      <trkpt lat="43.66917" lon="6.83315">
        <ele>620.2</ele>
        <time>2021-05-02T07:46:46.000Z</time>
      </trkpt>
      <trkpt lat="43.66917" lon="6.83318">
        <ele>619.7</ele>
        <time>2021-05-02T07:46:47.000Z</time>
      </trkpt>
      <trkpt lat="43.66916" lon="6.83322">
        <ele>619.6</ele>
        <time>2021-05-02T07:46:48.000Z</time>
      </trkpt>
      <trkpt lat="43.66916" lon="6.83325">
        <ele>619.6</ele>
        <time>2021-05-02T07:46:49.000Z</time>
      </trkpt>
      <trkpt lat="43.66915" lon="6.83327">
        <ele>619.6</ele>
        <time>2021-05-02T07:46:50.000Z</time>
      </trkpt>
      <trkpt lat="43.66915" lon="6.8333">
        <ele>619.7</ele>
        <time>2021-05-02T07:46:51.000Z</time>
      </trkpt>
      <trkpt lat="43.66914" lon="6.83332">
        <ele>619.8</ele>
        <time>2021-05-02T07:46:52.000Z</time>
      </trkpt>
      <trkpt lat="43.66913" lon="6.83334">
        <ele>619.7</ele>
        <time>2021-05-02T07:46:53.000Z</time>
      </trkpt>
      <trkpt lat="43.66912" lon="6.83334">
        <ele>619.7</ele>
        <time>2021-05-02T07:46:54.000Z</time>
      </trkpt>
      <trkpt lat="43.6691" lon="6.83333">
        <ele>619.7</ele>
        <time>2021-05-02T07:46:55.000Z</time>
      </trkpt>
      <trkpt lat="43.66909" lon="6.83332">
        <ele>619.7</ele>
        <time>2021-05-02T07:46:56.000Z</time>
      </trkpt>
      <trkpt lat="43.66907" lon="6.83331">
        <ele>619.3</ele>
        <time>2021-05-02T07:46:57.000Z</time>
      </trkpt>
      <trkpt lat="43.66905" lon="6.8333">
        <ele>618.8</ele>
        <time>2021-05-02T07:46:58.000Z</time>
      </trkpt>
      <trkpt lat="43.66903" lon="6.83328">
        <ele>618.1</ele>
        <time>2021-05-02T07:46:59.000Z</time>
      </trkpt>
      <trkpt lat="43.66901" lon="6.83326">
        <ele>617.2</ele>
        <time>2021-05-02T07:47:00.000Z</time>
      </trkpt>
      <trkpt lat="43.66898" lon="6.83323">
        <ele>616.6</ele>
        <time>2021-05-02T07:47:01.000Z</time>
      </trkpt>
      <trkpt lat="43.66896" lon="6.8332">
        <ele>615.9</ele>
        <time>2021-05-02T07:47:02.000Z</time>
      </trkpt>
      <trkpt lat="43.66894" lon="6.83318">
        <ele>615.1</ele>
        <time>2021-05-02T07:47:03.000Z</time>
      </trkpt>
      <trkpt lat="43.6689" lon="6.83317">
        <ele>614.6</ele>
        <time>2021-05-02T07:47:04.000Z</time>
      </trkpt>
      <trkpt lat="43.66887" lon="6.83318">
        <ele>613.9</ele>
        <time>2021-05-02T07:47:05.000Z</time>
      </trkpt>
      <trkpt lat="43.66883" lon="6.83319">
        <ele>613.6</ele>
        <time>2021-05-02T07:47:06.000Z</time>
      </trkpt>
      <trkpt lat="43.6688" lon="6.8332">
        <ele>613.3</ele>
        <time>2021-05-02T07:47:07.000Z</time>
      </trkpt>
      <trkpt lat="43.66876" lon="6.83322">
        <ele>613.2</ele>
        <time>2021-05-02T07:47:08.000Z</time>
      </trkpt>
      <trkpt lat="43.66873" lon="6.83325">
        <ele>613.1</ele>
        <time>2021-05-02T07:47:09.000Z</time>
      </trkpt>
      <trkpt lat="43.6687" lon="6.83327">
        <ele>611.9</ele>
        <time>2021-05-02T07:47:10.000Z</time>
      </trkpt>
      <trkpt lat="43.66867" lon="6.8333">
        <ele>611.4</ele>
        <time>2021-05-02T07:47:11.000Z</time>
      </trkpt>
      <trkpt lat="43.66864" lon="6.83333">
        <ele>610.8</ele>
        <time>2021-05-02T07:47:12.000Z</time>
      </trkpt>
      <trkpt lat="43.66862" lon="6.83336">
        <ele>609.9</ele>
        <time>2021-05-02T07:47:13.000Z</time>
      </trkpt>
      <trkpt lat="43.6686" lon="6.83338">
        <ele>609.3</ele>
        <time>2021-05-02T07:47:14.000Z</time>
      </trkpt>
      <trkpt lat="43.66858" lon="6.8334">
        <ele>608.6</ele>
        <time>2021-05-02T07:47:15.000Z</time>
      </trkpt>
      <trkpt lat="43.66856" lon="6.83342">
        <ele>607.8</ele>
        <time>2021-05-02T07:47:16.000Z</time>
      </trkpt>
      <trkpt lat="43.66853" lon="6.83343">
        <ele>607.1</ele>
        <time>2021-05-02T07:47:17.000Z</time>
      </trkpt>
      <trkpt lat="43.66851" lon="6.83344">
        <ele>606</ele>
        <time>2021-05-02T07:47:18.000Z</time>
      </trkpt>
      <trkpt lat="43.66849" lon="6.83345">
        <ele>604.8</ele>
        <time>2021-05-02T07:47:19.000Z</time>
      </trkpt>
      <trkpt lat="43.66848" lon="6.83346">
        <ele>604.2</ele>
        <time>2021-05-02T07:47:20.000Z</time>
      </trkpt>
      <trkpt lat="43.66847" lon="6.83348">
        <ele>604.9</ele>
        <time>2021-05-02T07:47:35.000Z</time>
      </trkpt>
      <trkpt lat="43.66846" lon="6.83349">
        <ele>604.7</ele>
        <time>2021-05-02T07:47:36.000Z</time>
      </trkpt>
      <trkpt lat="43.66843" lon="6.83352">
        <ele>604.5</ele>
        <time>2021-05-02T07:47:37.000Z</time>
      </trkpt>
      <trkpt lat="43.66838" lon="6.83356">
        <ele>604.3</ele>
        <time>2021-05-02T07:47:38.000Z</time>
      </trkpt>
      <trkpt lat="43.66831" lon="6.8336">
        <ele>604.1</ele>
        <time>2021-05-02T07:47:39.000Z</time>
      </trkpt>
      <trkpt lat="43.66824" lon="6.83364">
        <ele>603.8</ele>
        <time>2021-05-02T07:47:40.000Z</time>
      </trkpt>
      <trkpt lat="43.66817" lon="6.83368">
        <ele>603.4</ele>
        <time>2021-05-02T07:47:41.000Z</time>
      </trkpt>
      <trkpt lat="43.6681" lon="6.83373">
        <ele>602.9</ele>
        <time>2021-05-02T07:47:42.000Z</time>
      </trkpt>
      <trkpt lat="43.66803" lon="6.83379">
        <ele>601.9</ele>
        <time>2021-05-02T07:47:43.000Z</time>
      </trkpt>
      <trkpt lat="43.66794" lon="6.83385">
        <ele>600.7</ele>
        <time>2021-05-02T07:47:44.000Z</time>
      </trkpt>
      <trkpt lat="43.66787" lon="6.83391">
        <ele>599</ele>
        <time>2021-05-02T07:47:45.000Z</time>
      </trkpt>
      <trkpt lat="43.6678" lon="6.83397">
        <ele>597.4</ele>
        <time>2021-05-02T07:47:46.000Z</time>
      </trkpt>
      <trkpt lat="43.66772" lon="6.83404">
        <ele>596.7</ele>
        <time>2021-05-02T07:47:47.000Z</time>
      </trkpt>
      <trkpt lat="43.66765" lon="6.8341">
        <ele>596.3</ele>
        <time>2021-05-02T07:47:48.000Z</time>
      </trkpt>
      <trkpt lat="43.66759" lon="6.83416">
        <ele>596.4</ele>
        <time>2021-05-02T07:47:49.000Z</time>
      </trkpt>
      <trkpt lat="43.66754" lon="6.83421">
        <ele>596.6</ele>
        <time>2021-05-02T07:47:50.000Z</time>
      </trkpt>
      <trkpt lat="43.6675" lon="6.83425">
        <ele>597.2</ele>
        <time>2021-05-02T07:47:51.000Z</time>
      </trkpt>
      <trkpt lat="43.66747" lon="6.83429">
        <ele>597.5</ele>
        <time>2021-05-02T07:47:52.000Z</time>
      </trkpt>
      <trkpt lat="43.66744" lon="6.83431">
        <ele>597.6</ele>
        <time>2021-05-02T07:47:53.000Z</time>
      </trkpt>
      <trkpt lat="43.66741" lon="6.83432">
        <ele>597.5</ele>
        <time>2021-05-02T07:47:54.000Z</time>
      </trkpt>
      <trkpt lat="43.66738" lon="6.83432">
        <ele>597</ele>
        <time>2021-05-02T07:47:55.000Z</time>
      </trkpt>
      <trkpt lat="43.66734" lon="6.83432">
        <ele>597.2</ele>
        <time>2021-05-02T07:47:56.000Z</time>
      </trkpt>
      <trkpt lat="43.66731" lon="6.83432">
        <ele>596.2</ele>
        <time>2021-05-02T07:47:57.000Z</time>
      </trkpt>
      <trkpt lat="43.66729" lon="6.8343">
        <ele>595.3</ele>
        <time>2021-05-02T07:47:58.000Z</time>
      </trkpt>
      <trkpt lat="43.66726" lon="6.83428">
        <ele>595.1</ele>
        <time>2021-05-02T07:47:59.000Z</time>
      </trkpt>
      <trkpt lat="43.66723" lon="6.83425">
        <ele>594.3</ele>
        <time>2021-05-02T07:48:00.000Z</time>
      </trkpt>
      <trkpt lat="43.66721" lon="6.83421">
        <ele>593.9</ele>
        <time>2021-05-02T07:48:01.000Z</time>
      </trkpt>
      <trkpt lat="43.66721" lon="6.83415">
        <ele>592.6</ele>
        <time>2021-05-02T07:48:02.000Z</time>
      </trkpt>
      <trkpt lat="43.66721" lon="6.8341">
        <ele>592.2</ele>
        <time>2021-05-02T07:48:03.000Z</time>
      </trkpt>
      <trkpt lat="43.66723" lon="6.83405">
        <ele>591.6</ele>
        <time>2021-05-02T07:48:04.000Z</time>
      </trkpt>
      <trkpt lat="43.66724" lon="6.834">
        <ele>591</ele>
        <time>2021-05-02T07:48:05.000Z</time>
      </trkpt>
      <trkpt lat="43.66724" lon="6.83394">
        <ele>590.4</ele>
        <time>2021-05-02T07:48:06.000Z</time>
      </trkpt>
      <trkpt lat="43.66723" lon="6.83389">
        <ele>590.3</ele>
        <time>2021-05-02T07:48:07.000Z</time>
      </trkpt>
      <trkpt lat="43.66723" lon="6.83384">
        <ele>590.5</ele>
        <time>2021-05-02T07:48:08.000Z</time>
      </trkpt>
      <trkpt lat="43.66723" lon="6.83381">
        <ele>589.9</ele>
        <time>2021-05-02T07:48:09.000Z</time>
      </trkpt>
      <trkpt lat="43.66723" lon="6.83377">
        <ele>589.5</ele>
        <time>2021-05-02T07:48:10.000Z</time>
      </trkpt>
      <trkpt lat="43.66723" lon="6.83373">
        <ele>589.5</ele>
        <time>2021-05-02T07:48:11.000Z</time>
      </trkpt>
      <trkpt lat="43.66723" lon="6.83368">
        <ele>589.5</ele>
        <time>2021-05-02T07:48:12.000Z</time>
      </trkpt>
      <trkpt lat="43.66723" lon="6.83363">
        <ele>589.4</ele>
        <time>2021-05-02T07:48:13.000Z</time>
      </trkpt>
      <trkpt lat="43.66724" lon="6.83358">
        <ele>588.4</ele>
        <time>2021-05-02T07:48:14.000Z</time>
      </trkpt>
      <trkpt lat="43.66725" lon="6.83351">
        <ele>587.7</ele>
        <time>2021-05-02T07:48:15.000Z</time>
      </trkpt>
      <trkpt lat="43.66727" lon="6.83345">
        <ele>587</ele>
        <time>2021-05-02T07:48:16.000Z</time>
      </trkpt>
      <trkpt lat="43.6673" lon="6.83338">
        <ele>586.2</ele>
        <time>2021-05-02T07:48:17.000Z</time>
      </trkpt>
      <trkpt lat="43.66732" lon="6.83331">
        <ele>585</ele>
        <time>2021-05-02T07:48:18.000Z</time>
      </trkpt>
      <trkpt lat="43.66734" lon="6.83324">
        <ele>584.1</ele>
        <time>2021-05-02T07:48:19.000Z</time>
      </trkpt>
      <trkpt lat="43.66735" lon="6.83318">
        <ele>582.7</ele>
        <time>2021-05-02T07:48:20.000Z</time>
      </trkpt>
      <trkpt lat="43.66736" lon="6.83311">
        <ele>582</ele>
        <time>2021-05-02T07:48:21.000Z</time>
      </trkpt>
      <trkpt lat="43.66736" lon="6.83304">
        <ele>581.9</ele>
        <time>2021-05-02T07:48:22.000Z</time>
      </trkpt>
      <trkpt lat="43.66736" lon="6.83297">
        <ele>581.3</ele>
        <time>2021-05-02T07:48:23.000Z</time>
      </trkpt>
      <trkpt lat="43.66736" lon="6.83291">
        <ele>580.8</ele>
        <time>2021-05-02T07:48:24.000Z</time>
      </trkpt>
      <trkpt lat="43.66736" lon="6.83284">
        <ele>579.4</ele>
        <time>2021-05-02T07:48:25.000Z</time>
      </trkpt>
      <trkpt lat="43.66736" lon="6.8328">
        <ele>578.5</ele>
        <time>2021-05-02T07:48:26.000Z</time>
      </trkpt>
      <trkpt lat="43.66736" lon="6.83274">
        <ele>577.9</ele>
        <time>2021-05-02T07:48:27.000Z</time>
      </trkpt>
      <trkpt lat="43.66735" lon="6.8327">
        <ele>578</ele>
        <time>2021-05-02T07:48:28.000Z</time>
      </trkpt>
      <trkpt lat="43.66736" lon="6.83264">
        <ele>577.6</ele>
        <time>2021-05-02T07:48:29.000Z</time>
      </trkpt>
      <trkpt lat="43.66736" lon="6.83259">
        <ele>578.1</ele>
        <time>2021-05-02T07:48:30.000Z</time>
      </trkpt>
      <trkpt lat="43.66735" lon="6.83255">
        <ele>578.7</ele>
        <time>2021-05-02T07:48:31.000Z</time>
      </trkpt>
      <trkpt lat="43.66732" lon="6.83252">
        <ele>578.7</ele>
        <time>2021-05-02T07:48:32.000Z</time>
      </trkpt>
      <trkpt lat="43.66729" lon="6.83251">
        <ele>578.6</ele>
        <time>2021-05-02T07:48:33.000Z</time>
      </trkpt>
      <trkpt lat="43.66725" lon="6.83251">
        <ele>578.6</ele>
        <time>2021-05-02T07:48:34.000Z</time>
      </trkpt>
      <trkpt lat="43.6672" lon="6.83252">
        <ele>578.3</ele>
        <time>2021-05-02T07:48:35.000Z</time>
      </trkpt>
      <trkpt lat="43.66715" lon="6.83253">
        <ele>578.2</ele>
        <time>2021-05-02T07:48:36.000Z</time>
      </trkpt>
      <trkpt lat="43.6671" lon="6.83256">
        <ele>578.3</ele>
        <time>2021-05-02T07:48:37.000Z</time>
      </trkpt>
      <trkpt lat="43.66706" lon="6.83259">
        <ele>578.1</ele>
        <time>2021-05-02T07:48:38.000Z</time>
      </trkpt>
      <trkpt lat="43.66703" lon="6.83262">
        <ele>577.7</ele>
        <time>2021-05-02T07:48:39.000Z</time>
      </trkpt>
      <trkpt lat="43.66702" lon="6.83264">
        <ele>577.5</ele>
        <time>2021-05-02T07:48:40.000Z</time>
      </trkpt>
      <trkpt lat="43.66701" lon="6.83266">
        <ele>577</ele>
        <time>2021-05-02T07:48:41.000Z</time>
      </trkpt>
      <trkpt lat="43.66699" lon="6.83267">
        <ele>577.7</ele>
        <time>2021-05-02T07:48:42.000Z</time>
      </trkpt>
      <trkpt lat="43.66698" lon="6.83269">
        <ele>578.6</ele>
        <time>2021-05-02T07:48:43.000Z</time>
      </trkpt>
      <trkpt lat="43.66696" lon="6.83271">
        <ele>578.8</ele>
        <time>2021-05-02T07:48:44.000Z</time>
      </trkpt>
      <trkpt lat="43.66695" lon="6.83273">
        <ele>579</ele>
        <time>2021-05-02T07:48:45.000Z</time>
      </trkpt>
      <trkpt lat="43.66694" lon="6.83275">
        <ele>579.1</ele>
        <time>2021-05-02T07:48:46.000Z</time>
      </trkpt>
      <trkpt lat="43.66694" lon="6.83277">
        <ele>579</ele>
        <time>2021-05-02T07:48:47.000Z</time>
      </trkpt>
      <trkpt lat="43.66694" lon="6.83279">
        <ele>579.7</ele>
        <time>2021-05-02T07:48:48.000Z</time>
      </trkpt>
      <trkpt lat="43.66692" lon="6.83281">
        <ele>580.2</ele>
        <time>2021-05-02T07:48:49.000Z</time>
      </trkpt>
      <trkpt lat="43.66691" lon="6.83282">
        <ele>580.1</ele>
        <time>2021-05-02T07:48:50.000Z</time>
      </trkpt>
      <trkpt lat="43.6669" lon="6.83282">
        <ele>580.1</ele>
        <time>2021-05-02T07:48:51.000Z</time>
      </trkpt>
      <trkpt lat="43.66688" lon="6.83283">
        <ele>580.4</ele>
        <time>2021-05-02T07:48:52.000Z</time>
      </trkpt>
      <trkpt lat="43.66686" lon="6.83283">
        <ele>580.5</ele>
        <time>2021-05-02T07:48:53.000Z</time>
      </trkpt>
      <trkpt lat="43.66685" lon="6.83284">
        <ele>580.7</ele>
        <time>2021-05-02T07:48:54.000Z</time>
      </trkpt>
      <trkpt lat="43.66683" lon="6.83285">
        <ele>580.8</ele>
        <time>2021-05-02T07:48:55.000Z</time>
      </trkpt>
      <trkpt lat="43.66682" lon="6.83286">
        <ele>581</ele>
        <time>2021-05-02T07:48:56.000Z</time>
      </trkpt>
      <trkpt lat="43.6668" lon="6.83286">
        <ele>581.2</ele>
        <time>2021-05-02T07:48:57.000Z</time>
      </trkpt>
      <trkpt lat="43.66677" lon="6.83287">
        <ele>581.3</ele>
        <time>2021-05-02T07:48:58.000Z</time>
      </trkpt>
      <trkpt lat="43.66676" lon="6.83287">
        <ele>581.1</ele>
        <time>2021-05-02T07:48:59.000Z</time>
      </trkpt>
      <trkpt lat="43.66674" lon="6.83287">
        <ele>580.4</ele>
        <time>2021-05-02T07:49:00.000Z</time>
      </trkpt>
      <trkpt lat="43.66672" lon="6.83287">
        <ele>579.8</ele>
        <time>2021-05-02T07:49:01.000Z</time>
      </trkpt>
      <trkpt lat="43.6667" lon="6.83286">
        <ele>579.5</ele>
        <time>2021-05-02T07:49:02.000Z</time>
      </trkpt>
      <trkpt lat="43.6667" lon="6.83285">
        <ele>580</ele>
        <time>2021-05-02T07:49:04.000Z</time>
      </trkpt>
      <trkpt lat="43.66668" lon="6.83287">
        <ele>578.8</ele>
        <time>2021-05-02T07:49:48.000Z</time>
      </trkpt>
      <trkpt lat="43.66666" lon="6.83285">
        <ele>578.7</ele>
        <time>2021-05-02T07:49:49.000Z</time>
      </trkpt>
      <trkpt lat="43.66664" lon="6.83282">
        <ele>578.6</ele>
        <time>2021-05-02T07:49:50.000Z</time>
      </trkpt>
      <trkpt lat="43.66662" lon="6.83279">
        <ele>578.4</ele>
        <time>2021-05-02T07:49:51.000Z</time>
      </trkpt>
      <trkpt lat="43.66659" lon="6.83275">
        <ele>578.2</ele>
        <time>2021-05-02T07:49:52.000Z</time>
      </trkpt>
      <trkpt lat="43.66656" lon="6.83271">
        <ele>577.9</ele>
        <time>2021-05-02T07:49:53.000Z</time>
      </trkpt>
      <trkpt lat="43.66654" lon="6.83267">
        <ele>577.7</ele>
        <time>2021-05-02T07:49:54.000Z</time>
      </trkpt>
      <trkpt lat="43.6665" lon="6.83263">
        <ele>577.5</ele>
        <time>2021-05-02T07:49:55.000Z</time>
      </trkpt>
      <trkpt lat="43.66647" lon="6.83258">
        <ele>577</ele>
        <time>2021-05-02T07:49:56.000Z</time>
      </trkpt>
      <trkpt lat="43.66643" lon="6.83253">
        <ele>576.5</ele>
        <time>2021-05-02T07:49:57.000Z</time>
      </trkpt>
      <trkpt lat="43.6664" lon="6.83247">
        <ele>576.2</ele>
        <time>2021-05-02T07:49:58.000Z</time>
      </trkpt>
      <trkpt lat="43.66637" lon="6.83241">
        <ele>575.7</ele>
        <time>2021-05-02T07:49:59.000Z</time>
      </trkpt>
      <trkpt lat="43.66636" lon="6.83234">
        <ele>574.9</ele>
        <time>2021-05-02T07:50:00.000Z</time>
      </trkpt>
      <trkpt lat="43.66634" lon="6.83228">
        <ele>574.6</ele>
        <time>2021-05-02T07:50:01.000Z</time>
      </trkpt>
      <trkpt lat="43.66632" lon="6.83222">
        <ele>574</ele>
        <time>2021-05-02T07:50:02.000Z</time>
      </trkpt>
      <trkpt lat="43.6663" lon="6.83217">
        <ele>573.9</ele>
        <time>2021-05-02T07:50:03.000Z</time>
      </trkpt>
      <trkpt lat="43.66628" lon="6.83212">
        <ele>574.4</ele>
        <time>2021-05-02T07:50:04.000Z</time>
      </trkpt>
      <trkpt lat="43.66626" lon="6.83209">
        <ele>574.5</ele>
        <time>2021-05-02T07:50:05.000Z</time>
      </trkpt>
      <trkpt lat="43.66622" lon="6.83207">
        <ele>573.8</ele>
        <time>2021-05-02T07:50:06.000Z</time>
      </trkpt>
      <trkpt lat="43.66618" lon="6.83206">
        <ele>573.4</ele>
        <time>2021-05-02T07:50:07.000Z</time>
      </trkpt>
      <trkpt lat="43.66614" lon="6.83205">
        <ele>572.7</ele>
        <time>2021-05-02T07:50:08.000Z</time>
      </trkpt>
      <trkpt lat="43.6661" lon="6.83205">
        <ele>573.3</ele>
        <time>2021-05-02T07:50:09.000Z</time>
      </trkpt>
      <trkpt lat="43.66607" lon="6.83206">
        <ele>573.3</ele>
        <time>2021-05-02T07:50:10.000Z</time>
      </trkpt>
      <trkpt lat="43.66604" lon="6.83206">
        <ele>573.1</ele>
        <time>2021-05-02T07:50:11.000Z</time>
      </trkpt>
      <trkpt lat="43.66601" lon="6.83206">
        <ele>572.5</ele>
        <time>2021-05-02T07:50:12.000Z</time>
      </trkpt>
      <trkpt lat="43.66599" lon="6.83206">
        <ele>572</ele>
        <time>2021-05-02T07:50:13.000Z</time>
      </trkpt>
      <trkpt lat="43.66596" lon="6.83206">
        <ele>570.7</ele>
        <time>2021-05-02T07:50:14.000Z</time>
      </trkpt>
      <trkpt lat="43.66593" lon="6.83206">
        <ele>570.6</ele>
        <time>2021-05-02T07:50:15.000Z</time>
      </trkpt>
      <trkpt lat="43.66591" lon="6.83206">
        <ele>570.5</ele>
        <time>2021-05-02T07:50:16.000Z</time>
      </trkpt>
      <trkpt lat="43.66589" lon="6.83206">
        <ele>571.1</ele>
        <time>2021-05-02T07:50:17.000Z</time>
      </trkpt>
      <trkpt lat="43.66584" lon="6.83206">
        <ele>572.2</ele>
        <time>2021-05-02T07:50:35.000Z</time>
      </trkpt>
      <trkpt lat="43.66583" lon="6.83207">
        <ele>572.3</ele>
        <time>2021-05-02T07:50:36.000Z</time>
      </trkpt>
      <trkpt lat="43.6658" lon="6.83208">
        <ele>572.4</ele>
        <time>2021-05-02T07:50:37.000Z</time>
      </trkpt>
      <trkpt lat="43.66578" lon="6.83208">
        <ele>572.6</ele>
        <time>2021-05-02T07:50:38.000Z</time>
      </trkpt>
      <trkpt lat="43.66576" lon="6.83209">
        <ele>572.6</ele>
        <time>2021-05-02T07:50:39.000Z</time>
      </trkpt>
      <trkpt lat="43.66574" lon="6.8321">
        <ele>572.7</ele>
        <time>2021-05-02T07:50:40.000Z</time>
      </trkpt>
      <trkpt lat="43.66572" lon="6.8321">
        <ele>572.4</ele>
        <time>2021-05-02T07:50:41.000Z</time>
      </trkpt>
      <trkpt lat="43.6657" lon="6.8321">
        <ele>572.1</ele>
        <time>2021-05-02T07:50:42.000Z</time>
      </trkpt>
      <trkpt lat="43.66567" lon="6.83211">
        <ele>572.3</ele>
        <time>2021-05-02T07:50:43.000Z</time>
      </trkpt>
      <trkpt lat="43.66565" lon="6.83212">
        <ele>571.8</ele>
        <time>2021-05-02T07:50:44.000Z</time>
      </trkpt>
      <trkpt lat="43.66563" lon="6.83213">
        <ele>571.4</ele>
        <time>2021-05-02T07:50:45.000Z</time>
      </trkpt>
      <trkpt lat="43.66561" lon="6.83215">
        <ele>571.1</ele>
        <time>2021-05-02T07:50:46.000Z</time>
      </trkpt>
      <trkpt lat="43.6656" lon="6.83215">
        <ele>571.1</ele>
        <time>2021-05-02T07:50:47.000Z</time>
      </trkpt>
      <trkpt lat="43.66559" lon="6.83216">
        <ele>570.7</ele>
        <time>2021-05-02T07:50:48.000Z</time>
      </trkpt>
      <trkpt lat="43.66558" lon="6.83218">
        <ele>569.8</ele>
        <time>2021-05-02T07:50:49.000Z</time>
      </trkpt>
      <trkpt lat="43.66556" lon="6.83219">
        <ele>569.1</ele>
        <time>2021-05-02T07:50:50.000Z</time>
      </trkpt>
      <trkpt lat="43.66554" lon="6.8322">
        <ele>568.8</ele>
        <time>2021-05-02T07:50:51.000Z</time>
      </trkpt>
      <trkpt lat="43.66552" lon="6.83221">
        <ele>568.3</ele>
        <time>2021-05-02T07:50:52.000Z</time>
      </trkpt>
      <trkpt lat="43.66551" lon="6.83223">
        <ele>567.9</ele>
        <time>2021-05-02T07:50:53.000Z</time>
      </trkpt>
      <trkpt lat="43.6655" lon="6.83224">
        <ele>566.6</ele>
        <time>2021-05-02T07:50:54.000Z</time>
      </trkpt>
      <trkpt lat="43.66548" lon="6.83225">
        <ele>565.8</ele>
        <time>2021-05-02T07:50:55.000Z</time>
      </trkpt>
      <trkpt lat="43.66547" lon="6.83227">
        <ele>565.4</ele>
        <time>2021-05-02T07:50:56.000Z</time>
      </trkpt>
      <trkpt lat="43.66545" lon="6.83228">
        <ele>565.3</ele>
        <time>2021-05-02T07:50:57.000Z</time>
      </trkpt>
      <trkpt lat="43.66543" lon="6.8323">
        <ele>564.9</ele>
        <time>2021-05-02T07:50:58.000Z</time>
      </trkpt>
      <trkpt lat="43.66541" lon="6.83231">
        <ele>564.3</ele>
        <time>2021-05-02T07:50:59.000Z</time>
      </trkpt>
      <trkpt lat="43.66538" lon="6.83233">
        <ele>564</ele>
        <time>2021-05-02T07:51:00.000Z</time>
      </trkpt>
      <trkpt lat="43.66536" lon="6.83236">
        <ele>563.5</ele>
        <time>2021-05-02T07:51:01.000Z</time>
      </trkpt>
      <trkpt lat="43.66534" lon="6.83238">
        <ele>563</ele>
        <time>2021-05-02T07:51:02.000Z</time>
      </trkpt>
      <trkpt lat="43.66532" lon="6.83241">
        <ele>562.7</ele>
        <time>2021-05-02T07:51:03.000Z</time>
      </trkpt>
      <trkpt lat="43.66531" lon="6.83244">
        <ele>562.1</ele>
        <time>2021-05-02T07:51:04.000Z</time>
      </trkpt>
      <trkpt lat="43.66531" lon="6.83248">
        <ele>561.2</ele>
        <time>2021-05-02T07:51:05.000Z</time>
      </trkpt>
      <trkpt lat="43.6653" lon="6.8325">
        <ele>560</ele>
        <time>2021-05-02T07:51:06.000Z</time>
      </trkpt>
      <trkpt lat="43.66528" lon="6.83252">
        <ele>559.4</ele>
        <time>2021-05-02T07:51:07.000Z</time>
      </trkpt>
      <trkpt lat="43.66528" lon="6.83254">
        <ele>558.7</ele>
        <time>2021-05-02T07:51:08.000Z</time>
      </trkpt>
      <trkpt lat="43.66527" lon="6.83256">
        <ele>558.1</ele>
        <time>2021-05-02T07:51:09.000Z</time>
      </trkpt>
      <trkpt lat="43.66526" lon="6.83259">
        <ele>557.3</ele>
        <time>2021-05-02T07:51:10.000Z</time>
      </trkpt>
      <trkpt lat="43.66525" lon="6.83261">
        <ele>556.6</ele>
        <time>2021-05-02T07:51:11.000Z</time>
      </trkpt>
      <trkpt lat="43.66525" lon="6.83263">
        <ele>556.2</ele>
        <time>2021-05-02T07:51:12.000Z</time>
      </trkpt>
      <trkpt lat="43.66525" lon="6.83265">
        <ele>555.8</ele>
        <time>2021-05-02T07:51:13.000Z</time>
      </trkpt>
      <trkpt lat="43.66525" lon="6.83268">
        <ele>555.1</ele>
        <time>2021-05-02T07:51:14.000Z</time>
      </trkpt>
      <trkpt lat="43.66524" lon="6.8327">
        <ele>554.6</ele>
        <time>2021-05-02T07:51:15.000Z</time>
      </trkpt>
      <trkpt lat="43.66524" lon="6.83272">
        <ele>554.2</ele>
        <time>2021-05-02T07:51:16.000Z</time>
      </trkpt>
      <trkpt lat="43.66523" lon="6.83274">
        <ele>553.6</ele>
        <time>2021-05-02T07:51:17.000Z</time>
      </trkpt>
      <trkpt lat="43.66522" lon="6.83276">
        <ele>552.9</ele>
        <time>2021-05-02T07:51:18.000Z</time>
      </trkpt>
      <trkpt lat="43.66521" lon="6.83279">
        <ele>552.6</ele>
        <time>2021-05-02T07:51:19.000Z</time>
      </trkpt>
      <trkpt lat="43.66519" lon="6.83282">
        <ele>552.3</ele>
        <time>2021-05-02T07:51:20.000Z</time>
      </trkpt>
      <trkpt lat="43.66517" lon="6.83284">
        <ele>551.9</ele>
        <time>2021-05-02T07:51:21.000Z</time>
      </trkpt>
      <trkpt lat="43.66515" lon="6.83286">
        <ele>551.2</ele>
        <time>2021-05-02T07:51:22.000Z</time>
      </trkpt>
      <trkpt lat="43.66512" lon="6.83287">
        <ele>550.3</ele>
        <time>2021-05-02T07:51:23.000Z</time>
      </trkpt>
      <trkpt lat="43.6651" lon="6.83287">
        <ele>550.1</ele>
        <time>2021-05-02T07:51:24.000Z</time>
      </trkpt>
      <trkpt lat="43.66509" lon="6.83287">
        <ele>549.3</ele>
        <time>2021-05-02T07:51:25.000Z</time>
      </trkpt>
      <trkpt lat="43.66508" lon="6.83286">
        <ele>549</ele>
        <time>2021-05-02T07:51:26.000Z</time>
      </trkpt>
      <trkpt lat="43.66505" lon="6.83286">
        <ele>548.5</ele>
        <time>2021-05-02T07:51:27.000Z</time>
      </trkpt>
      <trkpt lat="43.66504" lon="6.83285">
        <ele>548.3</ele>
        <time>2021-05-02T07:51:28.000Z</time>
      </trkpt>
      <trkpt lat="43.66503" lon="6.83284">
        <ele>548</ele>
        <time>2021-05-02T07:51:29.000Z</time>
      </trkpt>
      <trkpt lat="43.66501" lon="6.83283">
        <ele>547.9</ele>
        <time>2021-05-02T07:51:30.000Z</time>
      </trkpt>
      <trkpt lat="43.665" lon="6.83281">
        <ele>547.7</ele>
        <time>2021-05-02T07:51:31.000Z</time>
      </trkpt>
      <trkpt lat="43.66499" lon="6.8328">
        <ele>548</ele>
        <time>2021-05-02T07:51:32.000Z</time>
      </trkpt>
      <trkpt lat="43.66497" lon="6.83272">
        <ele>548.6</ele>
        <time>2021-05-02T07:51:46.000Z</time>
      </trkpt>
      <trkpt lat="43.66496" lon="6.83269">
        <ele>548.6</ele>
        <time>2021-05-02T07:51:47.000Z</time>
      </trkpt>
      <trkpt lat="43.66496" lon="6.83266">
        <ele>548.6</ele>
        <time>2021-05-02T07:51:48.000Z</time>
      </trkpt>
      <trkpt lat="43.66495" lon="6.83262">
        <ele>548.5</ele>
        <time>2021-05-02T07:51:49.000Z</time>
      </trkpt>
      <trkpt lat="43.66495" lon="6.83259">
        <ele>548.5</ele>
        <time>2021-05-02T07:51:50.000Z</time>
      </trkpt>
      <trkpt lat="43.66495" lon="6.83257">
        <ele>548.5</ele>
        <time>2021-05-02T07:51:51.000Z</time>
      </trkpt>
      <trkpt lat="43.66496" lon="6.83257">
        <ele>548.4</ele>
        <time>2021-05-02T07:52:22.000Z</time>
      </trkpt>
      <trkpt lat="43.66497" lon="6.83258">
        <ele>547.9</ele>
        <time>2021-05-02T07:52:24.000Z</time>
      </trkpt>
      <trkpt lat="43.66498" lon="6.83256">
        <ele>545.4</ele>
        <time>2021-05-02T07:52:57.000Z</time>
      </trkpt>
      <trkpt lat="43.66497" lon="6.83252">
        <ele>545.6</ele>
        <time>2021-05-02T07:52:58.000Z</time>
      </trkpt>
      <trkpt lat="43.66497" lon="6.83246">
        <ele>545.7</ele>
        <time>2021-05-02T07:52:59.000Z</time>
      </trkpt>
      <trkpt lat="43.66496" lon="6.8324">
        <ele>546</ele>
        <time>2021-05-02T07:53:00.000Z</time>
      </trkpt>
      <trkpt lat="43.66496" lon="6.83235">
        <ele>546.2</ele>
        <time>2021-05-02T07:53:01.000Z</time>
      </trkpt>
      <trkpt lat="43.66496" lon="6.8323">
        <ele>546.2</ele>
        <time>2021-05-02T07:53:02.000Z</time>
      </trkpt>
      <trkpt lat="43.66496" lon="6.83224">
        <ele>546.2</ele>
        <time>2021-05-02T07:53:03.000Z</time>
      </trkpt>
      <trkpt lat="43.66497" lon="6.83218">
        <ele>546.7</ele>
        <time>2021-05-02T07:53:04.000Z</time>
      </trkpt>
      <trkpt lat="43.66497" lon="6.83213">
        <ele>546.9</ele>
        <time>2021-05-02T07:53:05.000Z</time>
      </trkpt>
      <trkpt lat="43.66494" lon="6.83209">
        <ele>548</ele>
        <time>2021-05-02T07:53:06.000Z</time>
      </trkpt>
      <trkpt lat="43.66492" lon="6.83204">
        <ele>549.5</ele>
        <time>2021-05-02T07:53:07.000Z</time>
      </trkpt>
      <trkpt lat="43.66492" lon="6.83201">
        <ele>550</ele>
        <time>2021-05-02T07:53:08.000Z</time>
      </trkpt>
      <trkpt lat="43.66491" lon="6.83197">
        <ele>550.8</ele>
        <time>2021-05-02T07:53:09.000Z</time>
      </trkpt>
      <trkpt lat="43.6649" lon="6.83193">
        <ele>551.5</ele>
        <time>2021-05-02T07:53:10.000Z</time>
      </trkpt>
      <trkpt lat="43.66489" lon="6.8319">
        <ele>551.2</ele>
        <time>2021-05-02T07:53:11.000Z</time>
      </trkpt>
      <trkpt lat="43.66488" lon="6.83186">
        <ele>550.7</ele>
        <time>2021-05-02T07:53:12.000Z</time>
      </trkpt>
      <trkpt lat="43.66488" lon="6.83183">
        <ele>551.4</ele>
        <time>2021-05-02T07:53:13.000Z</time>
      </trkpt>
      <trkpt lat="43.66487" lon="6.8318">
        <ele>551.4</ele>
        <time>2021-05-02T07:53:14.000Z</time>
      </trkpt>
      <trkpt lat="43.66487" lon="6.83177">
        <ele>551.1</ele>
        <time>2021-05-02T07:53:15.000Z</time>
      </trkpt>
      <trkpt lat="43.66486" lon="6.83174">
        <ele>550.2</ele>
        <time>2021-05-02T07:53:16.000Z</time>
      </trkpt>
      <trkpt lat="43.66485" lon="6.83171">
        <ele>549.6</ele>
        <time>2021-05-02T07:53:17.000Z</time>
      </trkpt>
      <trkpt lat="43.66484" lon="6.83168">
        <ele>548.7</ele>
        <time>2021-05-02T07:53:18.000Z</time>
      </trkpt>
      <trkpt lat="43.66484" lon="6.83165">
        <ele>548.2</ele>
        <time>2021-05-02T07:53:19.000Z</time>
      </trkpt>
      <trkpt lat="43.66483" lon="6.83161">
        <ele>547.2</ele>
        <time>2021-05-02T07:53:20.000Z</time>
      </trkpt>
      <trkpt lat="43.66484" lon="6.83157">
        <ele>547.3</ele>
        <time>2021-05-02T07:53:21.000Z</time>
      </trkpt>
      <trkpt lat="43.66485" lon="6.83153">
        <ele>546.8</ele>
        <time>2021-05-02T07:53:22.000Z</time>
      </trkpt>
      <trkpt lat="43.66486" lon="6.83148">
        <ele>546.7</ele>
        <time>2021-05-02T07:53:23.000Z</time>
      </trkpt>
      <trkpt lat="43.66488" lon="6.83143">
        <ele>546.1</ele>
        <time>2021-05-02T07:53:24.000Z</time>
      </trkpt>
      <trkpt lat="43.6649" lon="6.83138">
        <ele>545.6</ele>
        <time>2021-05-02T07:53:25.000Z</time>
      </trkpt>
      <trkpt lat="43.66492" lon="6.83133">
        <ele>545.2</ele>
        <time>2021-05-02T07:53:26.000Z</time>
      </trkpt>
      <trkpt lat="43.66494" lon="6.83128">
        <ele>544.2</ele>
        <time>2021-05-02T07:53:27.000Z</time>
      </trkpt>
      <trkpt lat="43.66496" lon="6.83123">
        <ele>544</ele>
        <time>2021-05-02T07:53:28.000Z</time>
      </trkpt>
      <trkpt lat="43.66498" lon="6.83119">
        <ele>543.4</ele>
        <time>2021-05-02T07:53:29.000Z</time>
      </trkpt>
      <trkpt lat="43.665" lon="6.83115">
        <ele>543.5</ele>
        <time>2021-05-02T07:53:30.000Z</time>
      </trkpt>
      <trkpt lat="43.66502" lon="6.8311">
        <ele>543.8</ele>
        <time>2021-05-02T07:53:31.000Z</time>
      </trkpt>
      <trkpt lat="43.66505" lon="6.83106">
        <ele>543.8</ele>
        <time>2021-05-02T07:53:32.000Z</time>
      </trkpt>
      <trkpt lat="43.66507" lon="6.83102">
        <ele>543.6</ele>
        <time>2021-05-02T07:53:33.000Z</time>
      </trkpt>
      <trkpt lat="43.6651" lon="6.83098">
        <ele>543.5</ele>
        <time>2021-05-02T07:53:34.000Z</time>
      </trkpt>
      <trkpt lat="43.66513" lon="6.83095">
        <ele>543.4</ele>
        <time>2021-05-02T07:53:35.000Z</time>
      </trkpt>
      <trkpt lat="43.66517" lon="6.83092">
        <ele>543.2</ele>
        <time>2021-05-02T07:53:36.000Z</time>
      </trkpt>
      <trkpt lat="43.6652" lon="6.83089">
        <ele>542.9</ele>
        <time>2021-05-02T07:53:37.000Z</time>
      </trkpt>
      <trkpt lat="43.66524" lon="6.83086">
        <ele>542.9</ele>
        <time>2021-05-02T07:53:38.000Z</time>
      </trkpt>
      <trkpt lat="43.66528" lon="6.83084">
        <ele>543.3</ele>
        <time>2021-05-02T07:53:39.000Z</time>
      </trkpt>
      <trkpt lat="43.66531" lon="6.8308">
        <ele>544.4</ele>
        <time>2021-05-02T07:53:40.000Z</time>
      </trkpt>
      <trkpt lat="43.66533" lon="6.83077">
        <ele>544.9</ele>
        <time>2021-05-02T07:53:41.000Z</time>
      </trkpt>
      <trkpt lat="43.66536" lon="6.83074">
        <ele>545.5</ele>
        <time>2021-05-02T07:53:42.000Z</time>
      </trkpt>
      <trkpt lat="43.66539" lon="6.83071">
        <ele>545.5</ele>
        <time>2021-05-02T07:53:43.000Z</time>
      </trkpt>
      <trkpt lat="43.66541" lon="6.83069">
        <ele>545.8</ele>
        <time>2021-05-02T07:53:44.000Z</time>
      </trkpt>
      <trkpt lat="43.66543" lon="6.83065">
        <ele>546.1</ele>
        <time>2021-05-02T07:53:45.000Z</time>
      </trkpt>
      <trkpt lat="43.66545" lon="6.83062">
        <ele>546.4</ele>
        <time>2021-05-02T07:53:46.000Z</time>
      </trkpt>
      <trkpt lat="43.66548" lon="6.83059">
        <ele>546.5</ele>
        <time>2021-05-02T07:53:47.000Z</time>
      </trkpt>
      <trkpt lat="43.6655" lon="6.83055">
        <ele>546.1</ele>
        <time>2021-05-02T07:53:48.000Z</time>
      </trkpt>
      <trkpt lat="43.66554" lon="6.83052">
        <ele>545.2</ele>
        <time>2021-05-02T07:53:49.000Z</time>
      </trkpt>
      <trkpt lat="43.66558" lon="6.83049">
        <ele>544</ele>
        <time>2021-05-02T07:53:50.000Z</time>
      </trkpt>
      <trkpt lat="43.66561" lon="6.83046">
        <ele>543.3</ele>
        <time>2021-05-02T07:53:51.000Z</time>
      </trkpt>
      <trkpt lat="43.66565" lon="6.83043">
        <ele>542.1</ele>
        <time>2021-05-02T07:53:52.000Z</time>
      </trkpt>
      <trkpt lat="43.66568" lon="6.83042">
        <ele>541</ele>
        <time>2021-05-02T07:53:53.000Z</time>
      </trkpt>
      <trkpt lat="43.66571" lon="6.83041">
        <ele>540.6</ele>
        <time>2021-05-02T07:53:54.000Z</time>
      </trkpt>
      <trkpt lat="43.66574" lon="6.83039">
        <ele>540.2</ele>
        <time>2021-05-02T07:53:55.000Z</time>
      </trkpt>
      <trkpt lat="43.66576" lon="6.83037">
        <ele>539.2</ele>
        <time>2021-05-02T07:53:56.000Z</time>
      </trkpt>
      <trkpt lat="43.66578" lon="6.83035">
        <ele>538.6</ele>
        <time>2021-05-02T07:53:57.000Z</time>
      </trkpt>
      <trkpt lat="43.66581" lon="6.83033">
        <ele>538.1</ele>
        <time>2021-05-02T07:53:58.000Z</time>
      </trkpt>
      <trkpt lat="43.66584" lon="6.8303">
        <ele>537.5</ele>
        <time>2021-05-02T07:53:59.000Z</time>
      </trkpt>
      <trkpt lat="43.66587" lon="6.83027">
        <ele>536.8</ele>
        <time>2021-05-02T07:54:00.000Z</time>
      </trkpt>
      <trkpt lat="43.66589" lon="6.83025">
        <ele>536.1</ele>
        <time>2021-05-02T07:54:01.000Z</time>
      </trkpt>
      <trkpt lat="43.66592" lon="6.83023">
        <ele>536</ele>
        <time>2021-05-02T07:54:02.000Z</time>
      </trkpt>
      <trkpt lat="43.66594" lon="6.83022">
        <ele>535.2</ele>
        <time>2021-05-02T07:54:03.000Z</time>
      </trkpt>
      <trkpt lat="43.66597" lon="6.8302">
        <ele>535.2</ele>
        <time>2021-05-02T07:54:04.000Z</time>
      </trkpt>
      <trkpt lat="43.66599" lon="6.83019">
        <ele>535.6</ele>
        <time>2021-05-02T07:54:05.000Z</time>
      </trkpt>
      <trkpt lat="43.66601" lon="6.83017">
        <ele>536</ele>
        <time>2021-05-02T07:54:06.000Z</time>
      </trkpt>
      <trkpt lat="43.66603" lon="6.83015">
        <ele>536.2</ele>
        <time>2021-05-02T07:54:07.000Z</time>
      </trkpt>
      <trkpt lat="43.66605" lon="6.83014">
        <ele>536.2</ele>
        <time>2021-05-02T07:54:08.000Z</time>
      </trkpt>
      <trkpt lat="43.66607" lon="6.83014">
        <ele>535.8</ele>
        <time>2021-05-02T07:54:09.000Z</time>
      </trkpt>
      <trkpt lat="43.66609" lon="6.83012">
        <ele>536.1</ele>
        <time>2021-05-02T07:54:10.000Z</time>
      </trkpt>
      <trkpt lat="43.66612" lon="6.8301">
        <ele>536.3</ele>
        <time>2021-05-02T07:54:11.000Z</time>
      </trkpt>
      <trkpt lat="43.66613" lon="6.83009">
        <ele>535.5</ele>
        <time>2021-05-02T07:54:12.000Z</time>
      </trkpt>
      <trkpt lat="43.66615" lon="6.83008">
        <ele>535.2</ele>
        <time>2021-05-02T07:54:13.000Z</time>
      </trkpt>
      <trkpt lat="43.66617" lon="6.83007">
        <ele>535.3</ele>
        <time>2021-05-02T07:54:14.000Z</time>
      </trkpt>
      <trkpt lat="43.66619" lon="6.83006">
        <ele>535.2</ele>
        <time>2021-05-02T07:54:15.000Z</time>
      </trkpt>
      <trkpt lat="43.66621" lon="6.83005">
        <ele>535.8</ele>
        <time>2021-05-02T07:54:16.000Z</time>
      </trkpt>
      <trkpt lat="43.66623" lon="6.83005">
        <ele>536.2</ele>
        <time>2021-05-02T07:54:17.000Z</time>
      </trkpt>
      <trkpt lat="43.66627" lon="6.83003">
        <ele>536.6</ele>
        <time>2021-05-02T07:54:18.000Z</time>
      </trkpt>
      <trkpt lat="43.66628" lon="6.83002">
        <ele>536.6</ele>
        <time>2021-05-02T07:54:19.000Z</time>
      </trkpt>
      <trkpt lat="43.6663" lon="6.83002">
        <ele>536.2</ele>
        <time>2021-05-02T07:54:20.000Z</time>
      </trkpt>
      <trkpt lat="43.66631" lon="6.83002">
        <ele>536</ele>
        <time>2021-05-02T07:54:21.000Z</time>
      </trkpt>
      <trkpt lat="43.66632" lon="6.83002">
        <ele>535.8</ele>
        <time>2021-05-02T07:54:22.000Z</time>
      </trkpt>
      <trkpt lat="43.66635" lon="6.82999">
        <ele>535.4</ele>
        <time>2021-05-02T07:54:25.000Z</time>
      </trkpt>
      <trkpt lat="43.66635" lon="6.82998">
        <ele>535.3</ele>
        <time>2021-05-02T07:54:26.000Z</time>
      </trkpt>
      <trkpt lat="43.66636" lon="6.82996">
        <ele>535</ele>
        <time>2021-05-02T07:54:27.000Z</time>
      </trkpt>
      <trkpt lat="43.66637" lon="6.82994">
        <ele>534.5</ele>
        <time>2021-05-02T07:54:28.000Z</time>
      </trkpt>
      <trkpt lat="43.66638" lon="6.82992">
        <ele>534.1</ele>
        <time>2021-05-02T07:54:29.000Z</time>
      </trkpt>
      <trkpt lat="43.66639" lon="6.8299">
        <ele>533.6</ele>
        <time>2021-05-02T07:54:30.000Z</time>
      </trkpt>
      <trkpt lat="43.6664" lon="6.82988">
        <ele>533.2</ele>
        <time>2021-05-02T07:54:31.000Z</time>
      </trkpt>
      <trkpt lat="43.66641" lon="6.82987">
        <ele>532.7</ele>
        <time>2021-05-02T07:54:32.000Z</time>
      </trkpt>
      <trkpt lat="43.66642" lon="6.82987">
        <ele>532.2</ele>
        <time>2021-05-02T07:54:33.000Z</time>
      </trkpt>
      <trkpt lat="43.66643" lon="6.82986">
        <ele>531.7</ele>
        <time>2021-05-02T07:54:34.000Z</time>
      </trkpt>
      <trkpt lat="43.66644" lon="6.82985">
        <ele>531.1</ele>
        <time>2021-05-02T07:54:35.000Z</time>
      </trkpt>
      <trkpt lat="43.66645" lon="6.82983">
        <ele>530.8</ele>
        <time>2021-05-02T07:54:36.000Z</time>
      </trkpt>
      <trkpt lat="43.66647" lon="6.82981">
        <ele>530.2</ele>
        <time>2021-05-02T07:54:37.000Z</time>
      </trkpt>
      <trkpt lat="43.66648" lon="6.82979">
        <ele>529.6</ele>
        <time>2021-05-02T07:54:38.000Z</time>
      </trkpt>
      <trkpt lat="43.66649" lon="6.82978">
        <ele>529.1</ele>
        <time>2021-05-02T07:54:39.000Z</time>
      </trkpt>
      <trkpt lat="43.66651" lon="6.82975">
        <ele>528.6</ele>
        <time>2021-05-02T07:54:40.000Z</time>
      </trkpt>
      <trkpt lat="43.66652" lon="6.82973">
        <ele>528</ele>
        <time>2021-05-02T07:54:41.000Z</time>
      </trkpt>
      <trkpt lat="43.66654" lon="6.8297">
        <ele>527.5</ele>
        <time>2021-05-02T07:54:42.000Z</time>
      </trkpt>
      <trkpt lat="43.66655" lon="6.82965">
        <ele>526.8</ele>
        <time>2021-05-02T07:54:43.000Z</time>
      </trkpt>
      <trkpt lat="43.66656" lon="6.82961">
        <ele>526.1</ele>
        <time>2021-05-02T07:54:44.000Z</time>
      </trkpt>
      <trkpt lat="43.66658" lon="6.82956">
        <ele>525.5</ele>
        <time>2021-05-02T07:54:45.000Z</time>
      </trkpt>
      <trkpt lat="43.6666" lon="6.8295">
        <ele>524.7</ele>
        <time>2021-05-02T07:54:46.000Z</time>
      </trkpt>
      <trkpt lat="43.6666" lon="6.82945">
        <ele>524.5</ele>
        <time>2021-05-02T07:54:47.000Z</time>
      </trkpt>
      <trkpt lat="43.66661" lon="6.82941">
        <ele>524</ele>
        <time>2021-05-02T07:54:48.000Z</time>
      </trkpt>
      <trkpt lat="43.66664" lon="6.82939">
        <ele>524.1</ele>
        <time>2021-05-02T07:54:49.000Z</time>
      </trkpt>
      <trkpt lat="43.66665" lon="6.82937">
        <ele>523.5</ele>
        <time>2021-05-02T07:54:50.000Z</time>
      </trkpt>
      <trkpt lat="43.66666" lon="6.82931">
        <ele>522.6</ele>
        <time>2021-05-02T07:54:51.000Z</time>
      </trkpt>
      <trkpt lat="43.66667" lon="6.82926">
        <ele>521.4</ele>
        <time>2021-05-02T07:54:52.000Z</time>
      </trkpt>
      <trkpt lat="43.66667" lon="6.82922">
        <ele>519.7</ele>
        <time>2021-05-02T07:54:53.000Z</time>
      </trkpt>
      <trkpt lat="43.66668" lon="6.82918">
        <ele>518.5</ele>
        <time>2021-05-02T07:54:54.000Z</time>
      </trkpt>
      <trkpt lat="43.66668" lon="6.82915">
        <ele>517.6</ele>
        <time>2021-05-02T07:54:55.000Z</time>
      </trkpt>
      <trkpt lat="43.66669" lon="6.82912">
        <ele>516.7</ele>
        <time>2021-05-02T07:54:56.000Z</time>
      </trkpt>
      <trkpt lat="43.66671" lon="6.82909">
        <ele>516.9</ele>
        <time>2021-05-02T07:54:57.000Z</time>
      </trkpt>
      <trkpt lat="43.66672" lon="6.82906">
        <ele>516.2</ele>
        <time>2021-05-02T07:54:58.000Z</time>
      </trkpt>
      <trkpt lat="43.66673" lon="6.82903">
        <ele>515.9</ele>
        <time>2021-05-02T07:54:59.000Z</time>
      </trkpt>
      <trkpt lat="43.66673" lon="6.829">
        <ele>515.5</ele>
        <time>2021-05-02T07:55:00.000Z</time>
      </trkpt>
      <trkpt lat="43.66674" lon="6.82898">
        <ele>515.3</ele>
        <time>2021-05-02T07:55:01.000Z</time>
      </trkpt>
      <trkpt lat="43.66676" lon="6.82894">
        <ele>515.7</ele>
        <time>2021-05-02T07:55:02.000Z</time>
      </trkpt>
      <trkpt lat="43.66676" lon="6.82892">
        <ele>515.2</ele>
        <time>2021-05-02T07:55:03.000Z</time>
      </trkpt>
      <trkpt lat="43.66678" lon="6.82889">
        <ele>514.7</ele>
        <time>2021-05-02T07:55:04.000Z</time>
      </trkpt>
      <trkpt lat="43.66679" lon="6.82885">
        <ele>513.8</ele>
        <time>2021-05-02T07:55:05.000Z</time>
      </trkpt>
      <trkpt lat="43.6668" lon="6.82883">
        <ele>514</ele>
        <time>2021-05-02T07:55:06.000Z</time>
      </trkpt>
      <trkpt lat="43.6668" lon="6.8288">
        <ele>513.5</ele>
        <time>2021-05-02T07:55:07.000Z</time>
      </trkpt>
      <trkpt lat="43.66681" lon="6.82878">
        <ele>515.2</ele>
        <time>2021-05-02T07:55:08.000Z</time>
      </trkpt>
      <trkpt lat="43.66681" lon="6.82876">
        <ele>514.7</ele>
        <time>2021-05-02T07:55:09.000Z</time>
      </trkpt>
      <trkpt lat="43.66681" lon="6.82874">
        <ele>514.3</ele>
        <time>2021-05-02T07:55:10.000Z</time>
      </trkpt>
      <trkpt lat="43.6668" lon="6.82872">
        <ele>513.5</ele>
        <time>2021-05-02T07:55:12.000Z</time>
      </trkpt>
      <trkpt lat="43.6668" lon="6.8287">
        <ele>513.9</ele>
        <time>2021-05-02T07:55:14.000Z</time>
      </trkpt>
      <trkpt lat="43.66682" lon="6.82864">
        <ele>514.7</ele>
        <time>2021-05-02T07:55:15.000Z</time>
      </trkpt>
      <trkpt lat="43.66682" lon="6.8286">
        <ele>516.2</ele>
        <time>2021-05-02T07:55:16.000Z</time>
      </trkpt>
      <trkpt lat="43.66683" lon="6.82857">
        <ele>516.7</ele>
        <time>2021-05-02T07:55:17.000Z</time>
      </trkpt>
      <trkpt lat="43.66684" lon="6.82853">
        <ele>517.2</ele>
        <time>2021-05-02T07:55:18.000Z</time>
      </trkpt>
      <trkpt lat="43.66684" lon="6.82851">
        <ele>517.4</ele>
        <time>2021-05-02T07:55:19.000Z</time>
      </trkpt>
      <trkpt lat="43.66686" lon="6.82847">
        <ele>517.5</ele>
        <time>2021-05-02T07:55:20.000Z</time>
      </trkpt>
      <trkpt lat="43.66687" lon="6.82844">
        <ele>518.2</ele>
        <time>2021-05-02T07:55:21.000Z</time>
      </trkpt>
      <trkpt lat="43.66689" lon="6.82839">
        <ele>519.2</ele>
        <time>2021-05-02T07:55:22.000Z</time>
      </trkpt>
      <trkpt lat="43.6669" lon="6.82836">
        <ele>519.3</ele>
        <time>2021-05-02T07:55:23.000Z</time>
      </trkpt>
      <trkpt lat="43.66691" lon="6.82832">
        <ele>519.8</ele>
        <time>2021-05-02T07:55:24.000Z</time>
      </trkpt>
      <trkpt lat="43.66692" lon="6.82829">
        <ele>519.6</ele>
        <time>2021-05-02T07:55:25.000Z</time>
      </trkpt>
      <trkpt lat="43.66694" lon="6.82825">
        <ele>519.6</ele>
        <time>2021-05-02T07:55:26.000Z</time>
      </trkpt>
      <trkpt lat="43.66695" lon="6.82822">
        <ele>520.7</ele>
        <time>2021-05-02T07:55:27.000Z</time>
      </trkpt>
      <trkpt lat="43.66695" lon="6.82819">
        <ele>521.4</ele>
        <time>2021-05-02T07:55:28.000Z</time>
      </trkpt>
      <trkpt lat="43.66695" lon="6.82816">
        <ele>521.8</ele>
        <time>2021-05-02T07:55:29.000Z</time>
      </trkpt>
      <trkpt lat="43.66696" lon="6.82812">
        <ele>522</ele>
        <time>2021-05-02T07:55:30.000Z</time>
      </trkpt>
      <trkpt lat="43.66696" lon="6.82807">
        <ele>522.1</ele>
        <time>2021-05-02T07:55:31.000Z</time>
      </trkpt>
      <trkpt lat="43.66696" lon="6.82802">
        <ele>523</ele>
        <time>2021-05-02T07:55:32.000Z</time>
      </trkpt>
      <trkpt lat="43.66696" lon="6.82797">
        <ele>523.3</ele>
        <time>2021-05-02T07:55:33.000Z</time>
      </trkpt>
      <trkpt lat="43.66697" lon="6.82791">
        <ele>523.8</ele>
        <time>2021-05-02T07:55:34.000Z</time>
      </trkpt>
      <trkpt lat="43.66698" lon="6.82786">
        <ele>523.6</ele>
        <time>2021-05-02T07:55:35.000Z</time>
      </trkpt>
      <trkpt lat="43.66702" lon="6.82776">
        <ele>523.8</ele>
        <time>2021-05-02T07:55:37.000Z</time>
      </trkpt>
      <trkpt lat="43.66704" lon="6.82772">
        <ele>524</ele>
        <time>2021-05-02T07:55:38.000Z</time>
      </trkpt>
      <trkpt lat="43.66706" lon="6.82766">
        <ele>525.1</ele>
        <time>2021-05-02T07:55:39.000Z</time>
      </trkpt>
      <trkpt lat="43.66708" lon="6.8276">
        <ele>526.2</ele>
        <time>2021-05-02T07:55:40.000Z</time>
      </trkpt>
      <trkpt lat="43.66709" lon="6.82754">
        <ele>527.5</ele>
        <time>2021-05-02T07:55:41.000Z</time>
      </trkpt>
      <trkpt lat="43.6671" lon="6.82749">
        <ele>528.5</ele>
        <time>2021-05-02T07:55:42.000Z</time>
      </trkpt>
      <trkpt lat="43.66711" lon="6.82744">
        <ele>529.3</ele>
        <time>2021-05-02T07:55:43.000Z</time>
      </trkpt>
      <trkpt lat="43.66712" lon="6.82739">
        <ele>531.3</ele>
        <time>2021-05-02T07:55:44.000Z</time>
      </trkpt>
      <trkpt lat="43.66712" lon="6.82734">
        <ele>534.3</ele>
        <time>2021-05-02T07:55:45.000Z</time>
      </trkpt>
      <trkpt lat="43.66714" lon="6.82729">
        <ele>538.9</ele>
        <time>2021-05-02T07:55:46.000Z</time>
      </trkpt>
      <trkpt lat="43.66715" lon="6.82722">
        <ele>540.3</ele>
        <time>2021-05-02T07:55:48.000Z</time>
      </trkpt>
      <trkpt lat="43.66715" lon="6.82719">
        <ele>541.2</ele>
        <time>2021-05-02T07:55:49.000Z</time>
      </trkpt>
      <trkpt lat="43.66716" lon="6.82716">
        <ele>542</ele>
        <time>2021-05-02T07:55:50.000Z</time>
      </trkpt>
      <trkpt lat="43.66716" lon="6.82713">
        <ele>542.5</ele>
        <time>2021-05-02T07:55:51.000Z</time>
      </trkpt>
      <trkpt lat="43.66717" lon="6.82706">
        <ele>546.2</ele>
        <time>2021-05-02T07:55:53.000Z</time>
      </trkpt>
      <trkpt lat="43.66719" lon="6.82704">
        <ele>546.8</ele>
        <time>2021-05-02T07:55:54.000Z</time>
      </trkpt>
      <trkpt lat="43.6672" lon="6.82702">
        <ele>547.3</ele>
        <time>2021-05-02T07:55:55.000Z</time>
      </trkpt>
      <trkpt lat="43.66722" lon="6.82701">
        <ele>547.7</ele>
        <time>2021-05-02T07:55:56.000Z</time>
      </trkpt>
      <trkpt lat="43.66723" lon="6.827">
        <ele>548.2</ele>
        <time>2021-05-02T07:55:57.000Z</time>
      </trkpt>
      <trkpt lat="43.66725" lon="6.82697">
        <ele>549</ele>
        <time>2021-05-02T07:55:59.000Z</time>
      </trkpt>
      <trkpt lat="43.66726" lon="6.82695">
        <ele>549</ele>
        <time>2021-05-02T07:56:00.000Z</time>
      </trkpt>
      <trkpt lat="43.66728" lon="6.82691">
        <ele>549.3</ele>
        <time>2021-05-02T07:56:02.000Z</time>
      </trkpt>
      <trkpt lat="43.66729" lon="6.82687">
        <ele>550</ele>
        <time>2021-05-02T07:56:04.000Z</time>
      </trkpt>
      <trkpt lat="43.66728" lon="6.82684">
        <ele>550.6</ele>
        <time>2021-05-02T07:56:05.000Z</time>
      </trkpt>
      <trkpt lat="43.66728" lon="6.82682">
        <ele>550.7</ele>
        <time>2021-05-02T07:56:06.000Z</time>
      </trkpt>
      <trkpt lat="43.66728" lon="6.82679">
        <ele>550.7</ele>
        <time>2021-05-02T07:56:07.000Z</time>
      </trkpt>
      <trkpt lat="43.66729" lon="6.82677">
        <ele>551</ele>
        <time>2021-05-02T07:56:08.000Z</time>
      </trkpt>
      <trkpt lat="43.66731" lon="6.82672">
        <ele>550.6</ele>
        <time>2021-05-02T07:56:10.000Z</time>
      </trkpt>
      <trkpt lat="43.66732" lon="6.82671">
        <ele>550.2</ele>
        <time>2021-05-02T07:56:11.000Z</time>
      </trkpt>
      <trkpt lat="43.66733" lon="6.82669">
        <ele>550</ele>
        <time>2021-05-02T07:56:12.000Z</time>
      </trkpt>
      <trkpt lat="43.66735" lon="6.82666">
        <ele>549.5</ele>
        <time>2021-05-02T07:56:14.000Z</time>
      </trkpt>
      <trkpt lat="43.66737" lon="6.82661">
        <ele>549.2</ele>
        <time>2021-05-02T07:56:16.000Z</time>
      </trkpt>
      <trkpt lat="43.66738" lon="6.82658">
        <ele>549</ele>
        <time>2021-05-02T07:56:17.000Z</time>
      </trkpt>
      <trkpt lat="43.6674" lon="6.82655">
        <ele>548.7</ele>
        <time>2021-05-02T07:56:18.000Z</time>
      </trkpt>
      <trkpt lat="43.66743" lon="6.82649">
        <ele>548.2</ele>
        <time>2021-05-02T07:56:20.000Z</time>
      </trkpt>
      <trkpt lat="43.66744" lon="6.82642">
        <ele>547.3</ele>
        <time>2021-05-02T07:56:22.000Z</time>
      </trkpt>
      <trkpt lat="43.66745" lon="6.82639">
        <ele>547.1</ele>
        <time>2021-05-02T07:56:23.000Z</time>
      </trkpt>
      <trkpt lat="43.66745" lon="6.82635">
        <ele>547.4</ele>
        <time>2021-05-02T07:56:24.000Z</time>
      </trkpt>
      <trkpt lat="43.66746" lon="6.82627">
        <ele>547.4</ele>
        <time>2021-05-02T07:56:26.000Z</time>
      </trkpt>
      <trkpt lat="43.66746" lon="6.82621">
        <ele>547</ele>
        <time>2021-05-02T07:56:28.000Z</time>
      </trkpt>
      <trkpt lat="43.66747" lon="6.82617">
        <ele>547</ele>
        <time>2021-05-02T07:56:29.000Z</time>
      </trkpt>
      <trkpt lat="43.66748" lon="6.82614">
        <ele>546.9</ele>
        <time>2021-05-02T07:56:30.000Z</time>
      </trkpt>
      <trkpt lat="43.66749" lon="6.82607">
        <ele>546.8</ele>
        <time>2021-05-02T07:56:32.000Z</time>
      </trkpt>
      <trkpt lat="43.6675" lon="6.82601">
        <ele>546.1</ele>
        <time>2021-05-02T07:56:34.000Z</time>
      </trkpt>
      <trkpt lat="43.66751" lon="6.82598">
        <ele>545.7</ele>
        <time>2021-05-02T07:56:35.000Z</time>
      </trkpt>
      <trkpt lat="43.66749" lon="6.82593">
        <ele>545.6</ele>
        <time>2021-05-02T07:56:36.000Z</time>
      </trkpt>
      <trkpt lat="43.66748" lon="6.82585">
        <ele>544.7</ele>
        <time>2021-05-02T07:56:38.000Z</time>
      </trkpt>
      <trkpt lat="43.66748" lon="6.82579">
        <ele>543.5</ele>
        <time>2021-05-02T07:56:40.000Z</time>
      </trkpt>
      <trkpt lat="43.66748" lon="6.82576">
        <ele>543</ele>
        <time>2021-05-02T07:56:41.000Z</time>
      </trkpt>
      <trkpt lat="43.66749" lon="6.82573">
        <ele>542.9</ele>
        <time>2021-05-02T07:56:42.000Z</time>
      </trkpt>
      <trkpt lat="43.6675" lon="6.82567">
        <ele>543.1</ele>
        <time>2021-05-02T07:56:44.000Z</time>
      </trkpt>
      <trkpt lat="43.6675" lon="6.82561">
        <ele>543.6</ele>
        <time>2021-05-02T07:56:46.000Z</time>
      </trkpt>
      <trkpt lat="43.66751" lon="6.82558">
        <ele>544</ele>
        <time>2021-05-02T07:56:47.000Z</time>
      </trkpt>
      <trkpt lat="43.66752" lon="6.82555">
        <ele>544</ele>
        <time>2021-05-02T07:56:48.000Z</time>
      </trkpt>
      <trkpt lat="43.66753" lon="6.82552">
        <ele>544.1</ele>
        <time>2021-05-02T07:56:49.000Z</time>
      </trkpt>
      <trkpt lat="43.66754" lon="6.82549">
        <ele>543.8</ele>
        <time>2021-05-02T07:56:50.000Z</time>
      </trkpt>
      <trkpt lat="43.66756" lon="6.82541">
        <ele>543.4</ele>
        <time>2021-05-02T07:56:52.000Z</time>
      </trkpt>
      <trkpt lat="43.66757" lon="6.82538">
        <ele>543.2</ele>
        <time>2021-05-02T07:56:53.000Z</time>
      </trkpt>
      <trkpt lat="43.66758" lon="6.82534">
        <ele>542.6</ele>
        <time>2021-05-02T07:56:54.000Z</time>
      </trkpt>
      <trkpt lat="43.66761" lon="6.82528">
        <ele>542</ele>
        <time>2021-05-02T07:56:56.000Z</time>
      </trkpt>
      <trkpt lat="43.66765" lon="6.82522">
        <ele>541.2</ele>
        <time>2021-05-02T07:56:58.000Z</time>
      </trkpt>
      <trkpt lat="43.66767" lon="6.82519">
        <ele>540.3</ele>
        <time>2021-05-02T07:56:59.000Z</time>
      </trkpt>
      <trkpt lat="43.66769" lon="6.82516">
        <ele>539.7</ele>
        <time>2021-05-02T07:57:00.000Z</time>
      </trkpt>
      <trkpt lat="43.66771" lon="6.82514">
        <ele>539.6</ele>
        <time>2021-05-02T07:57:01.000Z</time>
      </trkpt>
      <trkpt lat="43.66774" lon="6.8251">
        <ele>539.2</ele>
        <time>2021-05-02T07:57:02.000Z</time>
      </trkpt>
      <trkpt lat="43.66779" lon="6.82504">
        <ele>539.9</ele>
        <time>2021-05-02T07:57:04.000Z</time>
      </trkpt>
      <trkpt lat="43.66781" lon="6.825">
        <ele>540.1</ele>
        <time>2021-05-02T07:57:05.000Z</time>
      </trkpt>
      <trkpt lat="43.66782" lon="6.82496">
        <ele>540.4</ele>
        <time>2021-05-02T07:57:06.000Z</time>
      </trkpt>
      <trkpt lat="43.66783" lon="6.82492">
        <ele>540.2</ele>
        <time>2021-05-02T07:57:07.000Z</time>
      </trkpt>
      <trkpt lat="43.66783" lon="6.82487">
        <ele>539.8</ele>
        <time>2021-05-02T07:57:08.000Z</time>
      </trkpt>
      <trkpt lat="43.66783" lon="6.82477">
        <ele>538.7</ele>
        <time>2021-05-02T07:57:10.000Z</time>
      </trkpt>
      <trkpt lat="43.66784" lon="6.82471">
        <ele>538.3</ele>
        <time>2021-05-02T07:57:11.000Z</time>
      </trkpt>
      <trkpt lat="43.66783" lon="6.82465">
        <ele>538.6</ele>
        <time>2021-05-02T07:57:12.000Z</time>
      </trkpt>
      <trkpt lat="43.66784" lon="6.82461">
        <ele>539</ele>
        <time>2021-05-02T07:57:13.000Z</time>
      </trkpt>
      <trkpt lat="43.66785" lon="6.82457">
        <ele>540</ele>
        <time>2021-05-02T07:57:14.000Z</time>
      </trkpt>
      <trkpt lat="43.66786" lon="6.8245">
        <ele>540.3</ele>
        <time>2021-05-02T07:57:16.000Z</time>
      </trkpt>
      <trkpt lat="43.66786" lon="6.82447">
        <ele>540.7</ele>
        <time>2021-05-02T07:57:17.000Z</time>
      </trkpt>
      <trkpt lat="43.66785" lon="6.82444">
        <ele>540.6</ele>
        <time>2021-05-02T07:57:18.000Z</time>
      </trkpt>
      <trkpt lat="43.66785" lon="6.8244">
        <ele>540.4</ele>
        <time>2021-05-02T07:57:19.000Z</time>
      </trkpt>
      <trkpt lat="43.66785" lon="6.82437">
        <ele>540.3</ele>
        <time>2021-05-02T07:57:20.000Z</time>
      </trkpt>
      <trkpt lat="43.66786" lon="6.82429">
        <ele>539.5</ele>
        <time>2021-05-02T07:57:22.000Z</time>
      </trkpt>
      <trkpt lat="43.66787" lon="6.82426">
        <ele>539.5</ele>
        <time>2021-05-02T07:57:23.000Z</time>
      </trkpt>
      <trkpt lat="43.66787" lon="6.82423">
        <ele>538.9</ele>
        <time>2021-05-02T07:57:24.000Z</time>
      </trkpt>
      <trkpt lat="43.66788" lon="6.8242">
        <ele>538.7</ele>
        <time>2021-05-02T07:57:25.000Z</time>
      </trkpt>
      <trkpt lat="43.66789" lon="6.82416">
        <ele>538.4</ele>
        <time>2021-05-02T07:57:26.000Z</time>
      </trkpt>
      <trkpt lat="43.66794" lon="6.82409">
        <ele>537</ele>
        <time>2021-05-02T07:57:28.000Z</time>
      </trkpt>
      <trkpt lat="43.66796" lon="6.82404">
        <ele>535.9</ele>
        <time>2021-05-02T07:57:29.000Z</time>
      </trkpt>
      <trkpt lat="43.66798" lon="6.82399">
        <ele>534.2</ele>
        <time>2021-05-02T07:57:30.000Z</time>
      </trkpt>
      <trkpt lat="43.668" lon="6.82394">
        <ele>533.8</ele>
        <time>2021-05-02T07:57:31.000Z</time>
      </trkpt>
      <trkpt lat="43.66802" lon="6.82389">
        <ele>532.6</ele>
        <time>2021-05-02T07:57:32.000Z</time>
      </trkpt>
      <trkpt lat="43.66804" lon="6.82377">
        <ele>531.5</ele>
        <time>2021-05-02T07:57:34.000Z</time>
      </trkpt>
      <trkpt lat="43.66805" lon="6.82371">
        <ele>531.6</ele>
        <time>2021-05-02T07:57:35.000Z</time>
      </trkpt>
      <trkpt lat="43.66807" lon="6.82366">
        <ele>531.5</ele>
        <time>2021-05-02T07:57:36.000Z</time>
      </trkpt>
      <trkpt lat="43.66808" lon="6.82361">
        <ele>531.2</ele>
        <time>2021-05-02T07:57:37.000Z</time>
      </trkpt>
      <trkpt lat="43.66807" lon="6.82356">
        <ele>531.8</ele>
        <time>2021-05-02T07:57:38.000Z</time>
      </trkpt>
      <trkpt lat="43.66806" lon="6.8235">
        <ele>531.7</ele>
        <time>2021-05-02T07:57:40.000Z</time>
      </trkpt>
      <trkpt lat="43.66806" lon="6.82347">
        <ele>532.3</ele>
        <time>2021-05-02T07:57:41.000Z</time>
      </trkpt>
      <trkpt lat="43.66807" lon="6.82345">
        <ele>532.2</ele>
        <time>2021-05-02T07:57:42.000Z</time>
      </trkpt>
      <trkpt lat="43.66807" lon="6.82342">
        <ele>532.3</ele>
        <time>2021-05-02T07:57:43.000Z</time>
      </trkpt>
      <trkpt lat="43.66807" lon="6.8234">
        <ele>532.3</ele>
        <time>2021-05-02T07:57:44.000Z</time>
      </trkpt>
      <trkpt lat="43.66808" lon="6.82336">
        <ele>533.8</ele>
        <time>2021-05-02T07:57:46.000Z</time>
      </trkpt>
      <trkpt lat="43.66809" lon="6.82334">
        <ele>534.6</ele>
        <time>2021-05-02T07:57:47.000Z</time>
      </trkpt>
      <trkpt lat="43.6681" lon="6.82333">
        <ele>534.6</ele>
        <time>2021-05-02T07:57:48.000Z</time>
      </trkpt>
      <trkpt lat="43.6681" lon="6.82331">
        <ele>536.6</ele>
        <time>2021-05-02T07:57:49.000Z</time>
      </trkpt>
      <trkpt lat="43.66811" lon="6.82329">
        <ele>537.9</ele>
        <time>2021-05-02T07:57:50.000Z</time>
      </trkpt>
      <trkpt lat="43.66813" lon="6.82325">
        <ele>540</ele>
        <time>2021-05-02T07:57:52.000Z</time>
      </trkpt>
      <trkpt lat="43.66814" lon="6.82324">
        <ele>540.5</ele>
        <time>2021-05-02T07:57:53.000Z</time>
      </trkpt>
      <trkpt lat="43.66815" lon="6.82322">
        <ele>540.7</ele>
        <time>2021-05-02T07:57:54.000Z</time>
      </trkpt>
      <trkpt lat="43.66817" lon="6.8232">
        <ele>541</ele>
        <time>2021-05-02T07:57:55.000Z</time>
      </trkpt>
      <trkpt lat="43.66818" lon="6.82317">
        <ele>541.2</ele>
        <time>2021-05-02T07:57:56.000Z</time>
      </trkpt>
      <trkpt lat="43.6682" lon="6.82313">
        <ele>541.6</ele>
        <time>2021-05-02T07:57:58.000Z</time>
      </trkpt>
      <trkpt lat="43.66821" lon="6.8231">
        <ele>542.5</ele>
        <time>2021-05-02T07:57:59.000Z</time>
      </trkpt>
      <trkpt lat="43.66821" lon="6.82307">
        <ele>543.2</ele>
        <time>2021-05-02T07:58:00.000Z</time>
      </trkpt>
      <trkpt lat="43.66821" lon="6.82304">
        <ele>543.6</ele>
        <time>2021-05-02T07:58:01.000Z</time>
      </trkpt>
      <trkpt lat="43.66821" lon="6.82301">
        <ele>544.6</ele>
        <time>2021-05-02T07:58:02.000Z</time>
      </trkpt>
      <trkpt lat="43.66821" lon="6.82296">
        <ele>546</ele>
        <time>2021-05-02T07:58:04.000Z</time>
      </trkpt>
      <trkpt lat="43.66822" lon="6.82293">
        <ele>546.9</ele>
        <time>2021-05-02T07:58:05.000Z</time>
      </trkpt>
      <trkpt lat="43.66822" lon="6.82291">
        <ele>547.6</ele>
        <time>2021-05-02T07:58:06.000Z</time>
      </trkpt>
      <trkpt lat="43.66822" lon="6.82289">
        <ele>548.2</ele>
        <time>2021-05-02T07:58:07.000Z</time>
      </trkpt>
      <trkpt lat="43.66822" lon="6.82286">
        <ele>548.6</ele>
        <time>2021-05-02T07:58:08.000Z</time>
      </trkpt>
      <trkpt lat="43.66821" lon="6.82282">
        <ele>549.3</ele>
        <time>2021-05-02T07:58:10.000Z</time>
      </trkpt>
      <trkpt lat="43.6682" lon="6.8228">
        <ele>549.6</ele>
        <time>2021-05-02T07:58:11.000Z</time>
      </trkpt>
      <trkpt lat="43.6682" lon="6.82278">
        <ele>549.8</ele>
        <time>2021-05-02T07:58:12.000Z</time>
      </trkpt>
      <trkpt lat="43.66819" lon="6.82276">
        <ele>550</ele>
        <time>2021-05-02T07:58:13.000Z</time>
      </trkpt>
      <trkpt lat="43.66818" lon="6.82274">
        <ele>550.1</ele>
        <time>2021-05-02T07:58:14.000Z</time>
      </trkpt>
      <trkpt lat="43.66817" lon="6.82268">
        <ele>550.1</ele>
        <time>2021-05-02T07:58:16.000Z</time>
      </trkpt>
      <trkpt lat="43.66818" lon="6.82266">
        <ele>550.3</ele>
        <time>2021-05-02T07:58:17.000Z</time>
      </trkpt>
      <trkpt lat="43.66818" lon="6.82263">
        <ele>550.4</ele>
        <time>2021-05-02T07:58:18.000Z</time>
      </trkpt>
      <trkpt lat="43.66818" lon="6.82259">
        <ele>550.1</ele>
        <time>2021-05-02T07:58:19.000Z</time>
      </trkpt>
      <trkpt lat="43.66818" lon="6.82255">
        <ele>550.2</ele>
        <time>2021-05-02T07:58:20.000Z</time>
      </trkpt>
      <trkpt lat="43.66816" lon="6.82247">
        <ele>550.4</ele>
        <time>2021-05-02T07:58:22.000Z</time>
      </trkpt>
      <trkpt lat="43.66815" lon="6.82243">
        <ele>550.4</ele>
        <time>2021-05-02T07:58:23.000Z</time>
      </trkpt>
      <trkpt lat="43.66813" lon="6.8224">
        <ele>550.6</ele>
        <time>2021-05-02T07:58:24.000Z</time>
      </trkpt>
      <trkpt lat="43.66812" lon="6.82237">
        <ele>550.6</ele>
        <time>2021-05-02T07:58:25.000Z</time>
      </trkpt>
      <trkpt lat="43.66812" lon="6.82235">
        <ele>550.4</ele>
        <time>2021-05-02T07:58:26.000Z</time>
      </trkpt>
      <trkpt lat="43.66812" lon="6.8223">
        <ele>550.4</ele>
        <time>2021-05-02T07:58:28.000Z</time>
      </trkpt>
      <trkpt lat="43.66812" lon="6.82228">
        <ele>550</ele>
        <time>2021-05-02T07:58:29.000Z</time>
      </trkpt>
      <trkpt lat="43.66813" lon="6.82225">
        <ele>549.7</ele>
        <time>2021-05-02T07:58:30.000Z</time>
      </trkpt>
      <trkpt lat="43.66814" lon="6.82222">
        <ele>549.5</ele>
        <time>2021-05-02T07:58:31.000Z</time>
      </trkpt>
      <trkpt lat="43.66815" lon="6.82219">
        <ele>550</ele>
        <time>2021-05-02T07:58:32.000Z</time>
      </trkpt>
      <trkpt lat="43.66817" lon="6.82212">
        <ele>550.5</ele>
        <time>2021-05-02T07:58:34.000Z</time>
      </trkpt>
      <trkpt lat="43.66817" lon="6.82208">
        <ele>550.9</ele>
        <time>2021-05-02T07:58:35.000Z</time>
      </trkpt>
      <trkpt lat="43.66817" lon="6.82204">
        <ele>551.2</ele>
        <time>2021-05-02T07:58:36.000Z</time>
      </trkpt>
      <trkpt lat="43.66816" lon="6.82201">
        <ele>551.3</ele>
        <time>2021-05-02T07:58:37.000Z</time>
      </trkpt>
      <trkpt lat="43.66816" lon="6.82198">
        <ele>551.6</ele>
        <time>2021-05-02T07:58:38.000Z</time>
      </trkpt>
      <trkpt lat="43.66816" lon="6.82192">
        <ele>551.9</ele>
        <time>2021-05-02T07:58:40.000Z</time>
      </trkpt>
      <trkpt lat="43.66816" lon="6.82189">
        <ele>552</ele>
        <time>2021-05-02T07:58:41.000Z</time>
      </trkpt>
      <trkpt lat="43.66816" lon="6.82186">
        <ele>553.1</ele>
        <time>2021-05-02T07:58:42.000Z</time>
      </trkpt>
      <trkpt lat="43.66816" lon="6.82184">
        <ele>553.3</ele>
        <time>2021-05-02T07:58:43.000Z</time>
      </trkpt>
      <trkpt lat="43.66816" lon="6.82182">
        <ele>553.5</ele>
        <time>2021-05-02T07:58:44.000Z</time>
      </trkpt>
      <trkpt lat="43.66817" lon="6.82179">
        <ele>554</ele>
        <time>2021-05-02T07:58:46.000Z</time>
      </trkpt>
      <trkpt lat="43.66817" lon="6.82177">
        <ele>554.2</ele>
        <time>2021-05-02T07:58:47.000Z</time>
      </trkpt>
      <trkpt lat="43.66818" lon="6.82175">
        <ele>554.2</ele>
        <time>2021-05-02T07:58:48.000Z</time>
      </trkpt>
      <trkpt lat="43.66819" lon="6.82173">
        <ele>554.1</ele>
        <time>2021-05-02T07:58:49.000Z</time>
      </trkpt>
      <trkpt lat="43.6682" lon="6.82171">
        <ele>554</ele>
        <time>2021-05-02T07:58:50.000Z</time>
      </trkpt>
      <trkpt lat="43.66822" lon="6.82168">
        <ele>554.4</ele>
        <time>2021-05-02T07:58:52.000Z</time>
      </trkpt>
      <trkpt lat="43.66824" lon="6.82166">
        <ele>554.4</ele>
        <time>2021-05-02T07:58:53.000Z</time>
      </trkpt>
      <trkpt lat="43.66825" lon="6.82165">
        <ele>554.3</ele>
        <time>2021-05-02T07:58:54.000Z</time>
      </trkpt>
      <trkpt lat="43.66827" lon="6.82164">
        <ele>554.1</ele>
        <time>2021-05-02T07:58:55.000Z</time>
      </trkpt>
      <trkpt lat="43.66829" lon="6.82163">
        <ele>553.7</ele>
        <time>2021-05-02T07:58:56.000Z</time>
      </trkpt>
      <trkpt lat="43.66834" lon="6.82159">
        <ele>552.2</ele>
        <time>2021-05-02T07:58:58.000Z</time>
      </trkpt>
      <trkpt lat="43.66836" lon="6.82155">
        <ele>551.1</ele>
        <time>2021-05-02T07:58:59.000Z</time>
      </trkpt>
      <trkpt lat="43.66837" lon="6.82151">
        <ele>549.3</ele>
        <time>2021-05-02T07:59:00.000Z</time>
      </trkpt>
      <trkpt lat="43.66838" lon="6.82147">
        <ele>548.3</ele>
        <time>2021-05-02T07:59:01.000Z</time>
      </trkpt>
      <trkpt lat="43.66839" lon="6.82143">
        <ele>547.8</ele>
        <time>2021-05-02T07:59:02.000Z</time>
      </trkpt>
      <trkpt lat="43.6684" lon="6.82134">
        <ele>546.9</ele>
        <time>2021-05-02T07:59:04.000Z</time>
      </trkpt>
      <trkpt lat="43.66841" lon="6.8213">
        <ele>546.2</ele>
        <time>2021-05-02T07:59:05.000Z</time>
      </trkpt>
      <trkpt lat="43.6684" lon="6.82126">
        <ele>545.5</ele>
        <time>2021-05-02T07:59:06.000Z</time>
      </trkpt>
      <trkpt lat="43.6684" lon="6.82123">
        <ele>545.7</ele>
        <time>2021-05-02T07:59:07.000Z</time>
      </trkpt>
      <trkpt lat="43.6684" lon="6.82121">
        <ele>546</ele>
        <time>2021-05-02T07:59:08.000Z</time>
      </trkpt>
      <trkpt lat="43.6684" lon="6.82118">
        <ele>545.7</ele>
        <time>2021-05-02T07:59:10.000Z</time>
      </trkpt>
      <trkpt lat="43.6684" lon="6.82115">
        <ele>546.2</ele>
        <time>2021-05-02T07:59:11.000Z</time>
      </trkpt>
      <trkpt lat="43.6684" lon="6.82113">
        <ele>546.9</ele>
        <time>2021-05-02T07:59:12.000Z</time>
      </trkpt>
      <trkpt lat="43.6684" lon="6.82111">
        <ele>547</ele>
        <time>2021-05-02T07:59:13.000Z</time>
      </trkpt>
      <trkpt lat="43.6684" lon="6.82108">
        <ele>547.2</ele>
        <time>2021-05-02T07:59:14.000Z</time>
      </trkpt>
      <trkpt lat="43.66839" lon="6.82104">
        <ele>546.9</ele>
        <time>2021-05-02T07:59:16.000Z</time>
      </trkpt>
      <trkpt lat="43.66839" lon="6.82101">
        <ele>546.8</ele>
        <time>2021-05-02T07:59:17.000Z</time>
      </trkpt>
      <trkpt lat="43.66839" lon="6.82099">
        <ele>546.6</ele>
        <time>2021-05-02T07:59:18.000Z</time>
      </trkpt>
      <trkpt lat="43.66839" lon="6.82097">
        <ele>546.4</ele>
        <time>2021-05-02T07:59:19.000Z</time>
      </trkpt>
      <trkpt lat="43.66839" lon="6.82096">
        <ele>546.3</ele>
        <time>2021-05-02T07:59:20.000Z</time>
      </trkpt>
      <trkpt lat="43.66839" lon="6.82094">
        <ele>546.3</ele>
        <time>2021-05-02T07:59:21.000Z</time>
      </trkpt>
      <trkpt lat="43.66839" lon="6.82091">
        <ele>545.8</ele>
        <time>2021-05-02T07:59:23.000Z</time>
      </trkpt>
      <trkpt lat="43.66839" lon="6.82089">
        <ele>545.6</ele>
        <time>2021-05-02T07:59:24.000Z</time>
      </trkpt>
      <trkpt lat="43.6684" lon="6.82087">
        <ele>545.5</ele>
        <time>2021-05-02T07:59:25.000Z</time>
      </trkpt>
      <trkpt lat="43.6684" lon="6.82085">
        <ele>545.2</ele>
        <time>2021-05-02T07:59:26.000Z</time>
      </trkpt>
      <trkpt lat="43.6684" lon="6.82083">
        <ele>545.3</ele>
        <time>2021-05-02T07:59:27.000Z</time>
      </trkpt>
      <trkpt lat="43.66841" lon="6.82081">
        <ele>545.2</ele>
        <time>2021-05-02T07:59:28.000Z</time>
      </trkpt>
      <trkpt lat="43.66841" lon="6.82078">
        <ele>545.1</ele>
        <time>2021-05-02T07:59:29.000Z</time>
      </trkpt>
      <trkpt lat="43.66841" lon="6.82076">
        <ele>545.1</ele>
        <time>2021-05-02T07:59:30.000Z</time>
      </trkpt>
      <trkpt lat="43.66841" lon="6.82074">
        <ele>545.1</ele>
        <time>2021-05-02T07:59:31.000Z</time>
      </trkpt>
      <trkpt lat="43.66842" lon="6.82073">
        <ele>545.2</ele>
        <time>2021-05-02T07:59:32.000Z</time>
      </trkpt>
      <trkpt lat="43.66842" lon="6.82071">
        <ele>545.3</ele>
        <time>2021-05-02T07:59:33.000Z</time>
      </trkpt>
      <trkpt lat="43.66842" lon="6.82069">
        <ele>545.6</ele>
        <time>2021-05-02T07:59:34.000Z</time>
      </trkpt>
      <trkpt lat="43.66842" lon="6.82067">
        <ele>545.7</ele>
        <time>2021-05-02T07:59:35.000Z</time>
      </trkpt>
      <trkpt lat="43.66842" lon="6.82065">
        <ele>545.6</ele>
        <time>2021-05-02T07:59:36.000Z</time>
      </trkpt>
      <trkpt lat="43.66843" lon="6.82063">
        <ele>545.6</ele>
        <time>2021-05-02T07:59:37.000Z</time>
      </trkpt>
      <trkpt lat="43.66842" lon="6.82061">
        <ele>545.6</ele>
        <time>2021-05-02T07:59:38.000Z</time>
      </trkpt>
      <trkpt lat="43.66843" lon="6.82059">
        <ele>545.7</ele>
        <time>2021-05-02T07:59:39.000Z</time>
      </trkpt>
      <trkpt lat="43.66843" lon="6.82057">
        <ele>545.9</ele>
        <time>2021-05-02T07:59:40.000Z</time>
      </trkpt>
      <trkpt lat="43.66843" lon="6.82055">
        <ele>546</ele>
        <time>2021-05-02T07:59:41.000Z</time>
      </trkpt>
      <trkpt lat="43.66843" lon="6.82053">
        <ele>546.2</ele>
        <time>2021-05-02T07:59:42.000Z</time>
      </trkpt>
      <trkpt lat="43.66843" lon="6.82052">
        <ele>546.3</ele>
        <time>2021-05-02T07:59:43.000Z</time>
      </trkpt>
      <trkpt lat="43.66844" lon="6.82049">
        <ele>546.8</ele>
        <time>2021-05-02T07:59:44.000Z</time>
      </trkpt>
      <trkpt lat="43.66844" lon="6.82047">
        <ele>547.1</ele>
        <time>2021-05-02T07:59:45.000Z</time>
      </trkpt>
      <trkpt lat="43.66844" lon="6.82045">
        <ele>547.4</ele>
        <time>2021-05-02T07:59:46.000Z</time>
      </trkpt>
      <trkpt lat="43.66843" lon="6.82042">
        <ele>548.2</ele>
        <time>2021-05-02T07:59:47.000Z</time>
      </trkpt>
      <trkpt lat="43.66842" lon="6.82039">
        <ele>548.3</ele>
        <time>2021-05-02T07:59:48.000Z</time>
      </trkpt>
      <trkpt lat="43.66842" lon="6.82037">
        <ele>548.2</ele>
        <time>2021-05-02T07:59:49.000Z</time>
      </trkpt>
      <trkpt lat="43.66842" lon="6.82034">
        <ele>548.2</ele>
        <time>2021-05-02T07:59:50.000Z</time>
      </trkpt>
      <trkpt lat="43.66843" lon="6.82031">
        <ele>548.2</ele>
        <time>2021-05-02T07:59:51.000Z</time>
      </trkpt>
      <trkpt lat="43.66843" lon="6.82029">
        <ele>548.4</ele>
        <time>2021-05-02T07:59:52.000Z</time>
      </trkpt>
      <trkpt lat="43.66843" lon="6.82026">
        <ele>548.6</ele>
        <time>2021-05-02T07:59:53.000Z</time>
      </trkpt>
      <trkpt lat="43.66843" lon="6.82024">
        <ele>548.9</ele>
        <time>2021-05-02T07:59:54.000Z</time>
      </trkpt>
      <trkpt lat="43.66844" lon="6.82021">
        <ele>549</ele>
        <time>2021-05-02T07:59:55.000Z</time>
      </trkpt>
      <trkpt lat="43.66844" lon="6.82018">
        <ele>549.3</ele>
        <time>2021-05-02T07:59:56.000Z</time>
      </trkpt>
      <trkpt lat="43.66844" lon="6.82016">
        <ele>549.7</ele>
        <time>2021-05-02T07:59:57.000Z</time>
      </trkpt>
      <trkpt lat="43.66843" lon="6.82014">
        <ele>549.8</ele>
        <time>2021-05-02T07:59:58.000Z</time>
      </trkpt>
      <trkpt lat="43.66844" lon="6.82011">
        <ele>549.8</ele>
        <time>2021-05-02T07:59:59.000Z</time>
      </trkpt>
      <trkpt lat="43.66844" lon="6.82009">
        <ele>550.3</ele>
        <time>2021-05-02T08:00:00.000Z</time>
      </trkpt>
      <trkpt lat="43.66845" lon="6.82006">
        <ele>550.7</ele>
        <time>2021-05-02T08:00:01.000Z</time>
      </trkpt>
      <trkpt lat="43.66846" lon="6.82004">
        <ele>550.9</ele>
        <time>2021-05-02T08:00:02.000Z</time>
      </trkpt>
      <trkpt lat="43.66847" lon="6.82001">
        <ele>551.1</ele>
        <time>2021-05-02T08:00:03.000Z</time>
      </trkpt>
      <trkpt lat="43.66849" lon="6.81998">
        <ele>551</ele>
        <time>2021-05-02T08:00:04.000Z</time>
      </trkpt>
      <trkpt lat="43.6685" lon="6.81995">
        <ele>551.3</ele>
        <time>2021-05-02T08:00:05.000Z</time>
      </trkpt>
      <trkpt lat="43.66851" lon="6.81992">
        <ele>551.4</ele>
        <time>2021-05-02T08:00:06.000Z</time>
      </trkpt>
      <trkpt lat="43.66853" lon="6.81988">
        <ele>551.4</ele>
        <time>2021-05-02T08:00:07.000Z</time>
      </trkpt>
      <trkpt lat="43.66854" lon="6.81986">
        <ele>551.7</ele>
        <time>2021-05-02T08:00:08.000Z</time>
      </trkpt>
      <trkpt lat="43.66855" lon="6.81984">
        <ele>552</ele>
        <time>2021-05-02T08:00:09.000Z</time>
      </trkpt>
      <trkpt lat="43.66856" lon="6.81982">
        <ele>552.3</ele>
        <time>2021-05-02T08:00:10.000Z</time>
      </trkpt>
      <trkpt lat="43.66857" lon="6.8198">
        <ele>552.1</ele>
        <time>2021-05-02T08:00:11.000Z</time>
      </trkpt>
      <trkpt lat="43.66858" lon="6.81979">
        <ele>552.1</ele>
        <time>2021-05-02T08:00:12.000Z</time>
      </trkpt>
      <trkpt lat="43.6686" lon="6.81978">
        <ele>552.2</ele>
        <time>2021-05-02T08:00:13.000Z</time>
      </trkpt>
      <trkpt lat="43.66861" lon="6.81977">
        <ele>552.2</ele>
        <time>2021-05-02T08:00:14.000Z</time>
      </trkpt>
      <trkpt lat="43.66862" lon="6.81976">
        <ele>552.2</ele>
        <time>2021-05-02T08:00:15.000Z</time>
      </trkpt>
      <trkpt lat="43.66864" lon="6.81975">
        <ele>552.3</ele>
        <time>2021-05-02T08:00:16.000Z</time>
      </trkpt>
      <trkpt lat="43.66865" lon="6.81974">
        <ele>552.3</ele>
        <time>2021-05-02T08:00:17.000Z</time>
      </trkpt>
      <trkpt lat="43.66867" lon="6.81973">
        <ele>552.4</ele>
        <time>2021-05-02T08:00:18.000Z</time>
      </trkpt>
      <trkpt lat="43.66869" lon="6.81971">
        <ele>552.1</ele>
        <time>2021-05-02T08:00:19.000Z</time>
      </trkpt>
      <trkpt lat="43.66871" lon="6.81969">
        <ele>551.9</ele>
        <time>2021-05-02T08:00:20.000Z</time>
      </trkpt>
      <trkpt lat="43.66873" lon="6.81968">
        <ele>551.4</ele>
        <time>2021-05-02T08:00:21.000Z</time>
      </trkpt>
      <trkpt lat="43.66875" lon="6.81967">
        <ele>551.1</ele>
        <time>2021-05-02T08:00:22.000Z</time>
      </trkpt>
      <trkpt lat="43.66877" lon="6.81966">
        <ele>550.8</ele>
        <time>2021-05-02T08:00:23.000Z</time>
      </trkpt>
      <trkpt lat="43.66879" lon="6.81965">
        <ele>550.1</ele>
        <time>2021-05-02T08:00:24.000Z</time>
      </trkpt>
      <trkpt lat="43.66882" lon="6.81965">
        <ele>549.5</ele>
        <time>2021-05-02T08:00:25.000Z</time>
      </trkpt>
      <trkpt lat="43.66885" lon="6.81963">
        <ele>548.7</ele>
        <time>2021-05-02T08:00:26.000Z</time>
      </trkpt>
      <trkpt lat="43.66888" lon="6.81962">
        <ele>547.9</ele>
        <time>2021-05-02T08:00:27.000Z</time>
      </trkpt>
      <trkpt lat="43.6689" lon="6.81959">
        <ele>546.7</ele>
        <time>2021-05-02T08:00:28.000Z</time>
      </trkpt>
      <trkpt lat="43.66892" lon="6.81957">
        <ele>545.7</ele>
        <time>2021-05-02T08:00:29.000Z</time>
      </trkpt>
      <trkpt lat="43.66894" lon="6.81954">
        <ele>544.9</ele>
        <time>2021-05-02T08:00:30.000Z</time>
      </trkpt>
      <trkpt lat="43.66897" lon="6.81951">
        <ele>543.9</ele>
        <time>2021-05-02T08:00:31.000Z</time>
      </trkpt>
      <trkpt lat="43.669" lon="6.81947">
        <ele>542.7</ele>
        <time>2021-05-02T08:00:32.000Z</time>
      </trkpt>
      <trkpt lat="43.66902" lon="6.81944">
        <ele>540.9</ele>
        <time>2021-05-02T08:00:33.000Z</time>
      </trkpt>
      <trkpt lat="43.66906" lon="6.81941">
        <ele>539.1</ele>
        <time>2021-05-02T08:00:34.000Z</time>
      </trkpt>
      <trkpt lat="43.66909" lon="6.81938">
        <ele>536.9</ele>
        <time>2021-05-02T08:00:35.000Z</time>
      </trkpt>
      <trkpt lat="43.66911" lon="6.81936">
        <ele>535.3</ele>
        <time>2021-05-02T08:00:36.000Z</time>
      </trkpt>
      <trkpt lat="43.66912" lon="6.81934">
        <ele>533.8</ele>
        <time>2021-05-02T08:00:37.000Z</time>
      </trkpt>
      <trkpt lat="43.66914" lon="6.81931">
        <ele>532.4</ele>
        <time>2021-05-02T08:00:38.000Z</time>
      </trkpt>
      <trkpt lat="43.66916" lon="6.81928">
        <ele>530.2</ele>
        <time>2021-05-02T08:00:39.000Z</time>
      </trkpt>
      <trkpt lat="43.66918" lon="6.81926">
        <ele>528.7</ele>
        <time>2021-05-02T08:00:40.000Z</time>
      </trkpt>
      <trkpt lat="43.66919" lon="6.81922">
        <ele>527.2</ele>
        <time>2021-05-02T08:00:41.000Z</time>
      </trkpt>
      <trkpt lat="43.66921" lon="6.81919">
        <ele>525.7</ele>
        <time>2021-05-02T08:00:42.000Z</time>
      </trkpt>
      <trkpt lat="43.66922" lon="6.81915">
        <ele>524.9</ele>
        <time>2021-05-02T08:00:43.000Z</time>
      </trkpt>
      <trkpt lat="43.66923" lon="6.81912">
        <ele>523.5</ele>
        <time>2021-05-02T08:00:44.000Z</time>
      </trkpt>
      <trkpt lat="43.66923" lon="6.81909">
        <ele>522.2</ele>
        <time>2021-05-02T08:00:45.000Z</time>
      </trkpt>
      <trkpt lat="43.66924" lon="6.81906">
        <ele>520.6</ele>
        <time>2021-05-02T08:00:46.000Z</time>
      </trkpt>
      <trkpt lat="43.66925" lon="6.81903">
        <ele>520.9</ele>
        <time>2021-05-02T08:00:47.000Z</time>
      </trkpt>
      <trkpt lat="43.66926" lon="6.819">
        <ele>519.9</ele>
        <time>2021-05-02T08:00:48.000Z</time>
      </trkpt>
      <trkpt lat="43.66927" lon="6.81896">
        <ele>518.5</ele>
        <time>2021-05-02T08:00:49.000Z</time>
      </trkpt>
      <trkpt lat="43.6693" lon="6.81892">
        <ele>516.7</ele>
        <time>2021-05-02T08:00:50.000Z</time>
      </trkpt>
      <trkpt lat="43.66932" lon="6.81889">
        <ele>515.7</ele>
        <time>2021-05-02T08:00:51.000Z</time>
      </trkpt>
      <trkpt lat="43.66934" lon="6.81886">
        <ele>514.5</ele>
        <time>2021-05-02T08:00:52.000Z</time>
      </trkpt>
      <trkpt lat="43.66936" lon="6.81882">
        <ele>512.6</ele>
        <time>2021-05-02T08:00:53.000Z</time>
      </trkpt>
      <trkpt lat="43.66936" lon="6.81879">
        <ele>511.4</ele>
        <time>2021-05-02T08:00:54.000Z</time>
      </trkpt>
      <trkpt lat="43.66937" lon="6.81876">
        <ele>510.1</ele>
        <time>2021-05-02T08:00:55.000Z</time>
      </trkpt>
      <trkpt lat="43.66937" lon="6.81873">
        <ele>508.5</ele>
        <time>2021-05-02T08:00:56.000Z</time>
      </trkpt>
      <trkpt lat="43.66937" lon="6.81869">
        <ele>506.8</ele>
        <time>2021-05-02T08:00:57.000Z</time>
      </trkpt>
      <trkpt lat="43.66937" lon="6.81865">
        <ele>506</ele>
        <time>2021-05-02T08:00:58.000Z</time>
      </trkpt>
      <trkpt lat="43.66937" lon="6.8186">
        <ele>505.1</ele>
        <time>2021-05-02T08:00:59.000Z</time>
      </trkpt>
      <trkpt lat="43.66937" lon="6.81855">
        <ele>504.6</ele>
        <time>2021-05-02T08:01:00.000Z</time>
      </trkpt>
      <trkpt lat="43.66937" lon="6.8185">
        <ele>503.6</ele>
        <time>2021-05-02T08:01:01.000Z</time>
      </trkpt>
      <trkpt lat="43.66938" lon="6.81845">
        <ele>502.8</ele>
        <time>2021-05-02T08:01:02.000Z</time>
      </trkpt>
      <trkpt lat="43.66938" lon="6.8184">
        <ele>502</ele>
        <time>2021-05-02T08:01:03.000Z</time>
      </trkpt>
      <trkpt lat="43.6694" lon="6.81836">
        <ele>501.5</ele>
        <time>2021-05-02T08:01:04.000Z</time>
      </trkpt>
      <trkpt lat="43.6694" lon="6.81832">
        <ele>501.9</ele>
        <time>2021-05-02T08:01:05.000Z</time>
      </trkpt>
      <trkpt lat="43.66942" lon="6.81829">
        <ele>500.9</ele>
        <time>2021-05-02T08:01:06.000Z</time>
      </trkpt>
      <trkpt lat="43.66943" lon="6.81826">
        <ele>500</ele>
        <time>2021-05-02T08:01:07.000Z</time>
      </trkpt>
      <trkpt lat="43.66945" lon="6.81823">
        <ele>499.5</ele>
        <time>2021-05-02T08:01:08.000Z</time>
      </trkpt>
      <trkpt lat="43.66946" lon="6.8182">
        <ele>498.7</ele>
        <time>2021-05-02T08:01:09.000Z</time>
      </trkpt>
      <trkpt lat="43.66948" lon="6.81817">
        <ele>497.7</ele>
        <time>2021-05-02T08:01:10.000Z</time>
      </trkpt>
      <trkpt lat="43.66949" lon="6.81814">
        <ele>496.9</ele>
        <time>2021-05-02T08:01:11.000Z</time>
      </trkpt>
      <trkpt lat="43.66951" lon="6.8181">
        <ele>495.9</ele>
        <time>2021-05-02T08:01:12.000Z</time>
      </trkpt>
      <trkpt lat="43.66952" lon="6.81807">
        <ele>494.8</ele>
        <time>2021-05-02T08:01:13.000Z</time>
      </trkpt>
      <trkpt lat="43.66953" lon="6.81803">
        <ele>494.1</ele>
        <time>2021-05-02T08:01:14.000Z</time>
      </trkpt>
      <trkpt lat="43.66954" lon="6.818">
        <ele>492.9</ele>
        <time>2021-05-02T08:01:15.000Z</time>
      </trkpt>
      <trkpt lat="43.66955" lon="6.81797">
        <ele>491.7</ele>
        <time>2021-05-02T08:01:16.000Z</time>
      </trkpt>
      <trkpt lat="43.66956" lon="6.81794">
        <ele>491.3</ele>
        <time>2021-05-02T08:01:17.000Z</time>
      </trkpt>
      <trkpt lat="43.66958" lon="6.81791">
        <ele>490.8</ele>
        <time>2021-05-02T08:01:18.000Z</time>
      </trkpt>
      <trkpt lat="43.6696" lon="6.8179">
        <ele>490.1</ele>
        <time>2021-05-02T08:01:19.000Z</time>
      </trkpt>
      <trkpt lat="43.66962" lon="6.81787">
        <ele>489.6</ele>
        <time>2021-05-02T08:01:20.000Z</time>
      </trkpt>
      <trkpt lat="43.66964" lon="6.81784">
        <ele>489.5</ele>
        <time>2021-05-02T08:01:21.000Z</time>
      </trkpt>
      <trkpt lat="43.66966" lon="6.8178">
        <ele>489.9</ele>
        <time>2021-05-02T08:01:22.000Z</time>
      </trkpt>
      <trkpt lat="43.66967" lon="6.81777">
        <ele>489.9</ele>
        <time>2021-05-02T08:01:23.000Z</time>
      </trkpt>
      <trkpt lat="43.66968" lon="6.81773">
        <ele>490.6</ele>
        <time>2021-05-02T08:01:24.000Z</time>
      </trkpt>
      <trkpt lat="43.66968" lon="6.8177">
        <ele>490.8</ele>
        <time>2021-05-02T08:01:25.000Z</time>
      </trkpt>
      <trkpt lat="43.66968" lon="6.81767">
        <ele>491.1</ele>
        <time>2021-05-02T08:01:26.000Z</time>
      </trkpt>
      <trkpt lat="43.66968" lon="6.81764">
        <ele>491.3</ele>
        <time>2021-05-02T08:01:27.000Z</time>
      </trkpt>
      <trkpt lat="43.66968" lon="6.81761">
        <ele>491.5</ele>
        <time>2021-05-02T08:01:28.000Z</time>
      </trkpt>
      <trkpt lat="43.66969" lon="6.81758">
        <ele>492.2</ele>
        <time>2021-05-02T08:01:29.000Z</time>
      </trkpt>
      <trkpt lat="43.66969" lon="6.81755">
        <ele>492.6</ele>
        <time>2021-05-02T08:01:30.000Z</time>
      </trkpt>
      <trkpt lat="43.6697" lon="6.81752">
        <ele>493.5</ele>
        <time>2021-05-02T08:01:31.000Z</time>
      </trkpt>
      <trkpt lat="43.66971" lon="6.8175">
        <ele>493.9</ele>
        <time>2021-05-02T08:01:32.000Z</time>
      </trkpt>
      <trkpt lat="43.66972" lon="6.81748">
        <ele>494.2</ele>
        <time>2021-05-02T08:01:33.000Z</time>
      </trkpt>
      <trkpt lat="43.66973" lon="6.81747">
        <ele>494.2</ele>
        <time>2021-05-02T08:01:34.000Z</time>
      </trkpt>
      <trkpt lat="43.66974" lon="6.81746">
        <ele>493.7</ele>
        <time>2021-05-02T08:01:35.000Z</time>
      </trkpt>
      <trkpt lat="43.66975" lon="6.81744">
        <ele>493.4</ele>
        <time>2021-05-02T08:01:36.000Z</time>
      </trkpt>
      <trkpt lat="43.66976" lon="6.81741">
        <ele>492.6</ele>
        <time>2021-05-02T08:01:38.000Z</time>
      </trkpt>
      <trkpt lat="43.66976" lon="6.81739">
        <ele>493.2</ele>
        <time>2021-05-02T08:01:39.000Z</time>
      </trkpt>
      <trkpt lat="43.66977" lon="6.81738">
        <ele>493.7</ele>
        <time>2021-05-02T08:01:40.000Z</time>
      </trkpt>
      <trkpt lat="43.66981" lon="6.81728">
        <ele>494.8</ele>
        <time>2021-05-02T08:02:07.000Z</time>
      </trkpt>
      <trkpt lat="43.66982" lon="6.81726">
        <ele>494.7</ele>
        <time>2021-05-02T08:02:08.000Z</time>
      </trkpt>
      <trkpt lat="43.66983" lon="6.81723">
        <ele>494.7</ele>
        <time>2021-05-02T08:02:09.000Z</time>
      </trkpt>
      <trkpt lat="43.66983" lon="6.8172">
        <ele>494.7</ele>
        <time>2021-05-02T08:02:10.000Z</time>
      </trkpt>
      <trkpt lat="43.66984" lon="6.81718">
        <ele>494.6</ele>
        <time>2021-05-02T08:02:11.000Z</time>
      </trkpt>
      <trkpt lat="43.66985" lon="6.81714">
        <ele>494.7</ele>
        <time>2021-05-02T08:02:12.000Z</time>
      </trkpt>
      <trkpt lat="43.66987" lon="6.8171">
        <ele>494.7</ele>
        <time>2021-05-02T08:02:13.000Z</time>
      </trkpt>
      <trkpt lat="43.66988" lon="6.81707">
        <ele>494.6</ele>
        <time>2021-05-02T08:02:14.000Z</time>
      </trkpt>
      <trkpt lat="43.66989" lon="6.81703">
        <ele>494.4</ele>
        <time>2021-05-02T08:02:15.000Z</time>
      </trkpt>
      <trkpt lat="43.6699" lon="6.81699">
        <ele>494.2</ele>
        <time>2021-05-02T08:02:16.000Z</time>
      </trkpt>
      <trkpt lat="43.66991" lon="6.81695">
        <ele>494.4</ele>
        <time>2021-05-02T08:02:17.000Z</time>
      </trkpt>
      <trkpt lat="43.66992" lon="6.81693">
        <ele>494.4</ele>
        <time>2021-05-02T08:02:18.000Z</time>
      </trkpt>
      <trkpt lat="43.66993" lon="6.81689">
        <ele>495.5</ele>
        <time>2021-05-02T08:02:19.000Z</time>
      </trkpt>
      <trkpt lat="43.66994" lon="6.81685">
        <ele>495.2</ele>
        <time>2021-05-02T08:02:20.000Z</time>
      </trkpt>
      <trkpt lat="43.66995" lon="6.81682">
        <ele>495.3</ele>
        <time>2021-05-02T08:02:21.000Z</time>
      </trkpt>
      <trkpt lat="43.66996" lon="6.81679">
        <ele>494.9</ele>
        <time>2021-05-02T08:02:22.000Z</time>
      </trkpt>
      <trkpt lat="43.66997" lon="6.81676">
        <ele>494.5</ele>
        <time>2021-05-02T08:02:23.000Z</time>
      </trkpt>
      <trkpt lat="43.66998" lon="6.81673">
        <ele>494.5</ele>
        <time>2021-05-02T08:02:24.000Z</time>
      </trkpt>
      <trkpt lat="43.66998" lon="6.8167">
        <ele>495.1</ele>
        <time>2021-05-02T08:02:25.000Z</time>
      </trkpt>
      <trkpt lat="43.67" lon="6.81666">
        <ele>496.1</ele>
        <time>2021-05-02T08:02:26.000Z</time>
      </trkpt>
      <trkpt lat="43.67001" lon="6.81663">
        <ele>496.6</ele>
        <time>2021-05-02T08:02:27.000Z</time>
      </trkpt>
      <trkpt lat="43.67003" lon="6.8166">
        <ele>496.8</ele>
        <time>2021-05-02T08:02:28.000Z</time>
      </trkpt>
      <trkpt lat="43.67006" lon="6.81656">
        <ele>496.5</ele>
        <time>2021-05-02T08:02:29.000Z</time>
      </trkpt>
      <trkpt lat="43.67009" lon="6.81653">
        <ele>495.8</ele>
        <time>2021-05-02T08:02:30.000Z</time>
      </trkpt>
      <trkpt lat="43.67011" lon="6.8165">
        <ele>495.2</ele>
        <time>2021-05-02T08:02:31.000Z</time>
      </trkpt>
      <trkpt lat="43.67013" lon="6.81648">
        <ele>495.1</ele>
        <time>2021-05-02T08:02:32.000Z</time>
      </trkpt>
      <trkpt lat="43.67015" lon="6.81646">
        <ele>494.6</ele>
        <time>2021-05-02T08:02:33.000Z</time>
      </trkpt>
      <trkpt lat="43.67018" lon="6.81643">
        <ele>494</ele>
        <time>2021-05-02T08:02:34.000Z</time>
      </trkpt>
      <trkpt lat="43.6702" lon="6.8164">
        <ele>493.6</ele>
        <time>2021-05-02T08:02:35.000Z</time>
      </trkpt>
      <trkpt lat="43.67022" lon="6.81637">
        <ele>493.4</ele>
        <time>2021-05-02T08:02:36.000Z</time>
      </trkpt>
      <trkpt lat="43.67023" lon="6.81634">
        <ele>493.6</ele>
        <time>2021-05-02T08:02:37.000Z</time>
      </trkpt>
      <trkpt lat="43.67025" lon="6.81632">
        <ele>493.6</ele>
        <time>2021-05-02T08:02:38.000Z</time>
      </trkpt>
      <trkpt lat="43.67027" lon="6.81629">
        <ele>494.7</ele>
        <time>2021-05-02T08:02:39.000Z</time>
      </trkpt>
      <trkpt lat="43.67028" lon="6.81627">
        <ele>495.2</ele>
        <time>2021-05-02T08:02:40.000Z</time>
      </trkpt>
      <trkpt lat="43.6703" lon="6.81625">
        <ele>495.3</ele>
        <time>2021-05-02T08:02:41.000Z</time>
      </trkpt>
      <trkpt lat="43.67031" lon="6.81623">
        <ele>495.7</ele>
        <time>2021-05-02T08:02:42.000Z</time>
      </trkpt>
      <trkpt lat="43.67032" lon="6.81621">
        <ele>495.4</ele>
        <time>2021-05-02T08:02:43.000Z</time>
      </trkpt>
      <trkpt lat="43.67033" lon="6.81619">
        <ele>495.3</ele>
        <time>2021-05-02T08:02:44.000Z</time>
      </trkpt>
      <trkpt lat="43.67035" lon="6.81616">
        <ele>495</ele>
        <time>2021-05-02T08:02:45.000Z</time>
      </trkpt>
      <trkpt lat="43.67036" lon="6.81613">
        <ele>496.1</ele>
        <time>2021-05-02T08:02:46.000Z</time>
      </trkpt>
      <trkpt lat="43.67037" lon="6.8161">
        <ele>496.4</ele>
        <time>2021-05-02T08:02:47.000Z</time>
      </trkpt>
      <trkpt lat="43.67037" lon="6.81607">
        <ele>497.5</ele>
        <time>2021-05-02T08:02:48.000Z</time>
      </trkpt>
      <trkpt lat="43.67038" lon="6.81604">
        <ele>498.2</ele>
        <time>2021-05-02T08:02:49.000Z</time>
      </trkpt>
      <trkpt lat="43.67038" lon="6.81601">
        <ele>499.1</ele>
        <time>2021-05-02T08:02:50.000Z</time>
      </trkpt>
      <trkpt lat="43.67039" lon="6.81598">
        <ele>500.4</ele>
        <time>2021-05-02T08:02:51.000Z</time>
      </trkpt>
      <trkpt lat="43.67041" lon="6.81595">
        <ele>501.2</ele>
        <time>2021-05-02T08:02:52.000Z</time>
      </trkpt>
      <trkpt lat="43.67044" lon="6.81592">
        <ele>501.3</ele>
        <time>2021-05-02T08:02:53.000Z</time>
      </trkpt>
      <trkpt lat="43.67046" lon="6.81589">
        <ele>501.6</ele>
        <time>2021-05-02T08:02:54.000Z</time>
      </trkpt>
      <trkpt lat="43.67048" lon="6.81587">
        <ele>502.1</ele>
        <time>2021-05-02T08:02:55.000Z</time>
      </trkpt>
      <trkpt lat="43.6705" lon="6.81584">
        <ele>502.8</ele>
        <time>2021-05-02T08:02:56.000Z</time>
      </trkpt>
      <trkpt lat="43.67051" lon="6.81581">
        <ele>503.6</ele>
        <time>2021-05-02T08:02:57.000Z</time>
      </trkpt>
      <trkpt lat="43.67052" lon="6.81579">
        <ele>504.4</ele>
        <time>2021-05-02T08:02:58.000Z</time>
      </trkpt>
      <trkpt lat="43.67053" lon="6.81575">
        <ele>505.9</ele>
        <time>2021-05-02T08:02:59.000Z</time>
      </trkpt>
      <trkpt lat="43.67053" lon="6.81571">
        <ele>507</ele>
        <time>2021-05-02T08:03:00.000Z</time>
      </trkpt>
      <trkpt lat="43.67052" lon="6.81568">
        <ele>507.3</ele>
        <time>2021-05-02T08:03:01.000Z</time>
      </trkpt>
      <trkpt lat="43.67051" lon="6.81565">
        <ele>508.2</ele>
        <time>2021-05-02T08:03:02.000Z</time>
      </trkpt>
      <trkpt lat="43.6705" lon="6.81562">
        <ele>508.7</ele>
        <time>2021-05-02T08:03:03.000Z</time>
      </trkpt>
      <trkpt lat="43.67049" lon="6.8156">
        <ele>508.9</ele>
        <time>2021-05-02T08:03:04.000Z</time>
      </trkpt>
      <trkpt lat="43.67049" lon="6.81559">
        <ele>509</ele>
        <time>2021-05-02T08:03:05.000Z</time>
      </trkpt>
      <trkpt lat="43.67048" lon="6.81558">
        <ele>509.1</ele>
        <time>2021-05-02T08:03:06.000Z</time>
      </trkpt>
      <trkpt lat="43.67046" lon="6.81545">
        <ele>509.6</ele>
        <time>2021-05-02T08:03:15.000Z</time>
      </trkpt>
      <trkpt lat="43.67047" lon="6.81543">
        <ele>509.6</ele>
        <time>2021-05-02T08:03:16.000Z</time>
      </trkpt>
      <trkpt lat="43.67048" lon="6.8154">
        <ele>509.6</ele>
        <time>2021-05-02T08:03:17.000Z</time>
      </trkpt>
      <trkpt lat="43.67048" lon="6.81538">
        <ele>509.7</ele>
        <time>2021-05-02T08:03:18.000Z</time>
      </trkpt>
      <trkpt lat="43.6705" lon="6.81535">
        <ele>510.2</ele>
        <time>2021-05-02T08:03:19.000Z</time>
      </trkpt>
      <trkpt lat="43.67052" lon="6.81532">
        <ele>510.2</ele>
        <time>2021-05-02T08:03:20.000Z</time>
      </trkpt>
      <trkpt lat="43.67054" lon="6.81528">
        <ele>510.5</ele>
        <time>2021-05-02T08:03:21.000Z</time>
      </trkpt>
      <trkpt lat="43.67054" lon="6.81524">
        <ele>511.2</ele>
        <time>2021-05-02T08:03:22.000Z</time>
      </trkpt>
      <trkpt lat="43.67054" lon="6.8152">
        <ele>511.3</ele>
        <time>2021-05-02T08:03:23.000Z</time>
      </trkpt>
      <trkpt lat="43.67054" lon="6.81517">
        <ele>511.5</ele>
        <time>2021-05-02T08:03:24.000Z</time>
      </trkpt>
      <trkpt lat="43.67052" lon="6.81513">
        <ele>511.9</ele>
        <time>2021-05-02T08:03:25.000Z</time>
      </trkpt>
      <trkpt lat="43.6705" lon="6.8151">
        <ele>511.9</ele>
        <time>2021-05-02T08:03:26.000Z</time>
      </trkpt>
      <trkpt lat="43.67049" lon="6.81507">
        <ele>512.5</ele>
        <time>2021-05-02T08:03:27.000Z</time>
      </trkpt>
      <trkpt lat="43.67049" lon="6.81504">
        <ele>512.8</ele>
        <time>2021-05-02T08:03:28.000Z</time>
      </trkpt>
      <trkpt lat="43.67048" lon="6.81501">
        <ele>513.6</ele>
        <time>2021-05-02T08:03:29.000Z</time>
      </trkpt>
      <trkpt lat="43.67048" lon="6.81497">
        <ele>514.9</ele>
        <time>2021-05-02T08:03:30.000Z</time>
      </trkpt>
      <trkpt lat="43.67048" lon="6.81493">
        <ele>515.7</ele>
        <time>2021-05-02T08:03:31.000Z</time>
      </trkpt>
      <trkpt lat="43.67047" lon="6.8149">
        <ele>516.4</ele>
        <time>2021-05-02T08:03:32.000Z</time>
      </trkpt>
      <trkpt lat="43.67047" lon="6.81486">
        <ele>516.9</ele>
        <time>2021-05-02T08:03:33.000Z</time>
      </trkpt>
      <trkpt lat="43.67047" lon="6.81483">
        <ele>517.4</ele>
        <time>2021-05-02T08:03:34.000Z</time>
      </trkpt>
      <trkpt lat="43.67047" lon="6.81479">
        <ele>517.5</ele>
        <time>2021-05-02T08:03:35.000Z</time>
      </trkpt>
      <trkpt lat="43.67047" lon="6.81475">
        <ele>518.4</ele>
        <time>2021-05-02T08:03:36.000Z</time>
      </trkpt>
      <trkpt lat="43.67048" lon="6.81471">
        <ele>518.9</ele>
        <time>2021-05-02T08:03:37.000Z</time>
      </trkpt>
      <trkpt lat="43.67048" lon="6.81468">
        <ele>520</ele>
        <time>2021-05-02T08:03:38.000Z</time>
      </trkpt>
      <trkpt lat="43.67048" lon="6.81463">
        <ele>521.1</ele>
        <time>2021-05-02T08:03:39.000Z</time>
      </trkpt>
      <trkpt lat="43.67048" lon="6.81459">
        <ele>521.4</ele>
        <time>2021-05-02T08:03:40.000Z</time>
      </trkpt>
      <trkpt lat="43.67048" lon="6.81455">
        <ele>521.4</ele>
        <time>2021-05-02T08:03:41.000Z</time>
      </trkpt>
      <trkpt lat="43.67047" lon="6.81453">
        <ele>522.1</ele>
        <time>2021-05-02T08:03:42.000Z</time>
      </trkpt>
      <trkpt lat="43.67047" lon="6.8145">
        <ele>522.3</ele>
        <time>2021-05-02T08:03:43.000Z</time>
      </trkpt>
      <trkpt lat="43.67047" lon="6.81448">
        <ele>522.3</ele>
        <time>2021-05-02T08:03:44.000Z</time>
      </trkpt>
      <trkpt lat="43.67046" lon="6.81445">
        <ele>522.7</ele>
        <time>2021-05-02T08:03:45.000Z</time>
      </trkpt>
      <trkpt lat="43.67045" lon="6.81442">
        <ele>522.8</ele>
        <time>2021-05-02T08:03:46.000Z</time>
      </trkpt>
      <trkpt lat="43.67044" lon="6.81439">
        <ele>523</ele>
        <time>2021-05-02T08:03:47.000Z</time>
      </trkpt>
      <trkpt lat="43.67042" lon="6.81437">
        <ele>523.3</ele>
        <time>2021-05-02T08:03:48.000Z</time>
      </trkpt>
      <trkpt lat="43.67042" lon="6.81435">
        <ele>523.5</ele>
        <time>2021-05-02T08:03:49.000Z</time>
      </trkpt>
      <trkpt lat="43.6704" lon="6.81433">
        <ele>523.9</ele>
        <time>2021-05-02T08:03:50.000Z</time>
      </trkpt>
      <trkpt lat="43.6704" lon="6.81431">
        <ele>524.3</ele>
        <time>2021-05-02T08:03:51.000Z</time>
      </trkpt>
      <trkpt lat="43.67039" lon="6.81429">
        <ele>524.7</ele>
        <time>2021-05-02T08:03:52.000Z</time>
      </trkpt>
      <trkpt lat="43.67038" lon="6.81427">
        <ele>525.2</ele>
        <time>2021-05-02T08:03:53.000Z</time>
      </trkpt>
      <trkpt lat="43.67038" lon="6.81426">
        <ele>525.4</ele>
        <time>2021-05-02T08:03:54.000Z</time>
      </trkpt>
      <trkpt lat="43.67037" lon="6.81423">
        <ele>525.7</ele>
        <time>2021-05-02T08:03:55.000Z</time>
      </trkpt>
      <trkpt lat="43.67037" lon="6.81421">
        <ele>525.9</ele>
        <time>2021-05-02T08:03:56.000Z</time>
      </trkpt>
      <trkpt lat="43.67036" lon="6.8142">
        <ele>526.1</ele>
        <time>2021-05-02T08:03:57.000Z</time>
      </trkpt>
      <trkpt lat="43.67035" lon="6.81419">
        <ele>526.2</ele>
        <time>2021-05-02T08:03:58.000Z</time>
      </trkpt>
      <trkpt lat="43.67035" lon="6.81417">
        <ele>526.3</ele>
        <time>2021-05-02T08:03:59.000Z</time>
      </trkpt>
      <trkpt lat="43.67033" lon="6.81415">
        <ele>526.8</ele>
        <time>2021-05-02T08:04:00.000Z</time>
      </trkpt>
      <trkpt lat="43.67032" lon="6.81413">
        <ele>526.9</ele>
        <time>2021-05-02T08:04:01.000Z</time>
      </trkpt>
      <trkpt lat="43.67031" lon="6.81409">
        <ele>527.3</ele>
        <time>2021-05-02T08:04:02.000Z</time>
      </trkpt>
      <trkpt lat="43.6703" lon="6.81407">
        <ele>527.9</ele>
        <time>2021-05-02T08:04:03.000Z</time>
      </trkpt>
      <trkpt lat="43.67028" lon="6.81404">
        <ele>528.4</ele>
        <time>2021-05-02T08:04:04.000Z</time>
      </trkpt>
      <trkpt lat="43.67028" lon="6.81401">
        <ele>528.7</ele>
        <time>2021-05-02T08:04:05.000Z</time>
      </trkpt>
      <trkpt lat="43.67027" lon="6.81398">
        <ele>529.2</ele>
        <time>2021-05-02T08:04:06.000Z</time>
      </trkpt>
      <trkpt lat="43.67026" lon="6.81396">
        <ele>529.5</ele>
        <time>2021-05-02T08:04:07.000Z</time>
      </trkpt>
      <trkpt lat="43.67025" lon="6.81394">
        <ele>529.8</ele>
        <time>2021-05-02T08:04:08.000Z</time>
      </trkpt>
      <trkpt lat="43.67025" lon="6.8139">
        <ele>529.9</ele>
        <time>2021-05-02T08:04:09.000Z</time>
      </trkpt>
      <trkpt lat="43.67024" lon="6.81388">
        <ele>529.7</ele>
        <time>2021-05-02T08:04:10.000Z</time>
      </trkpt>
      <trkpt lat="43.67023" lon="6.81385">
        <ele>529.7</ele>
        <time>2021-05-02T08:04:11.000Z</time>
      </trkpt>
      <trkpt lat="43.67021" lon="6.81381">
        <ele>529.8</ele>
        <time>2021-05-02T08:04:12.000Z</time>
      </trkpt>
      <trkpt lat="43.67019" lon="6.81376">
        <ele>530</ele>
        <time>2021-05-02T08:04:13.000Z</time>
      </trkpt>
      <trkpt lat="43.67017" lon="6.81372">
        <ele>529.9</ele>
        <time>2021-05-02T08:04:14.000Z</time>
      </trkpt>
      <trkpt lat="43.67015" lon="6.81369">
        <ele>530</ele>
        <time>2021-05-02T08:04:15.000Z</time>
      </trkpt>
      <trkpt lat="43.67014" lon="6.81366">
        <ele>530.2</ele>
        <time>2021-05-02T08:04:16.000Z</time>
      </trkpt>
      <trkpt lat="43.67012" lon="6.81363">
        <ele>530.2</ele>
        <time>2021-05-02T08:04:17.000Z</time>
      </trkpt>
      <trkpt lat="43.67012" lon="6.81359">
        <ele>529.9</ele>
        <time>2021-05-02T08:04:18.000Z</time>
      </trkpt>
      <trkpt lat="43.67012" lon="6.81355">
        <ele>529.4</ele>
        <time>2021-05-02T08:04:19.000Z</time>
      </trkpt>
      <trkpt lat="43.67012" lon="6.81351">
        <ele>529.1</ele>
        <time>2021-05-02T08:04:20.000Z</time>
      </trkpt>
      <trkpt lat="43.67012" lon="6.81348">
        <ele>529.1</ele>
        <time>2021-05-02T08:04:21.000Z</time>
      </trkpt>
      <trkpt lat="43.67012" lon="6.81345">
        <ele>529.2</ele>
        <time>2021-05-02T08:04:22.000Z</time>
      </trkpt>
      <trkpt lat="43.67011" lon="6.81342">
        <ele>529.4</ele>
        <time>2021-05-02T08:04:23.000Z</time>
      </trkpt>
      <trkpt lat="43.67009" lon="6.81339">
        <ele>529.4</ele>
        <time>2021-05-02T08:04:24.000Z</time>
      </trkpt>
      <trkpt lat="43.67009" lon="6.81336">
        <ele>529.8</ele>
        <time>2021-05-02T08:04:25.000Z</time>
      </trkpt>
      <trkpt lat="43.67008" lon="6.81334">
        <ele>530.1</ele>
        <time>2021-05-02T08:04:26.000Z</time>
      </trkpt>
      <trkpt lat="43.67006" lon="6.81331">
        <ele>529.8</ele>
        <time>2021-05-02T08:04:27.000Z</time>
      </trkpt>
      <trkpt lat="43.67005" lon="6.81328">
        <ele>529.6</ele>
        <time>2021-05-02T08:04:28.000Z</time>
      </trkpt>
      <trkpt lat="43.67003" lon="6.81325">
        <ele>529</ele>
        <time>2021-05-02T08:04:29.000Z</time>
      </trkpt>
      <trkpt lat="43.67002" lon="6.81322">
        <ele>528.5</ele>
        <time>2021-05-02T08:04:30.000Z</time>
      </trkpt>
      <trkpt lat="43.67" lon="6.81318">
        <ele>528.1</ele>
        <time>2021-05-02T08:04:31.000Z</time>
      </trkpt>
      <trkpt lat="43.66999" lon="6.81315">
        <ele>527.5</ele>
        <time>2021-05-02T08:04:32.000Z</time>
      </trkpt>
      <trkpt lat="43.66997" lon="6.81312">
        <ele>527.2</ele>
        <time>2021-05-02T08:04:33.000Z</time>
      </trkpt>
      <trkpt lat="43.66996" lon="6.81309">
        <ele>526.3</ele>
        <time>2021-05-02T08:04:34.000Z</time>
      </trkpt>
      <trkpt lat="43.66994" lon="6.81308">
        <ele>525.4</ele>
        <time>2021-05-02T08:04:35.000Z</time>
      </trkpt>
      <trkpt lat="43.66993" lon="6.81306">
        <ele>524.4</ele>
        <time>2021-05-02T08:04:36.000Z</time>
      </trkpt>
      <trkpt lat="43.66992" lon="6.81305">
        <ele>523.9</ele>
        <time>2021-05-02T08:04:37.000Z</time>
      </trkpt>
      <trkpt lat="43.6699" lon="6.81303">
        <ele>523.3</ele>
        <time>2021-05-02T08:04:38.000Z</time>
      </trkpt>
      <trkpt lat="43.66988" lon="6.81301">
        <ele>522.9</ele>
        <time>2021-05-02T08:04:39.000Z</time>
      </trkpt>
      <trkpt lat="43.66986" lon="6.81299">
        <ele>522.7</ele>
        <time>2021-05-02T08:04:40.000Z</time>
      </trkpt>
      <trkpt lat="43.66985" lon="6.81296">
        <ele>521.5</ele>
        <time>2021-05-02T08:04:41.000Z</time>
      </trkpt>
      <trkpt lat="43.66983" lon="6.81294">
        <ele>520.9</ele>
        <time>2021-05-02T08:04:42.000Z</time>
      </trkpt>
      <trkpt lat="43.66983" lon="6.8129">
        <ele>519.4</ele>
        <time>2021-05-02T08:04:43.000Z</time>
      </trkpt>
      <trkpt lat="43.66983" lon="6.81287">
        <ele>518.1</ele>
        <time>2021-05-02T08:04:44.000Z</time>
      </trkpt>
      <trkpt lat="43.66983" lon="6.81285">
        <ele>517.1</ele>
        <time>2021-05-02T08:04:45.000Z</time>
      </trkpt>
      <trkpt lat="43.66982" lon="6.8128">
        <ele>515.4</ele>
        <time>2021-05-02T08:04:46.000Z</time>
      </trkpt>
      <trkpt lat="43.66981" lon="6.81277">
        <ele>514.1</ele>
        <time>2021-05-02T08:04:47.000Z</time>
      </trkpt>
      <trkpt lat="43.66981" lon="6.81273">
        <ele>512.6</ele>
        <time>2021-05-02T08:04:48.000Z</time>
      </trkpt>
      <trkpt lat="43.6698" lon="6.81268">
        <ele>511.1</ele>
        <time>2021-05-02T08:04:49.000Z</time>
      </trkpt>
      <trkpt lat="43.6698" lon="6.81265">
        <ele>509.9</ele>
        <time>2021-05-02T08:04:50.000Z</time>
      </trkpt>
      <trkpt lat="43.66979" lon="6.81261">
        <ele>508.5</ele>
        <time>2021-05-02T08:04:51.000Z</time>
      </trkpt>
      <trkpt lat="43.66979" lon="6.81257">
        <ele>507.5</ele>
        <time>2021-05-02T08:04:52.000Z</time>
      </trkpt>
      <trkpt lat="43.66979" lon="6.81253">
        <ele>506.5</ele>
        <time>2021-05-02T08:04:53.000Z</time>
      </trkpt>
      <trkpt lat="43.6698" lon="6.81249">
        <ele>505.6</ele>
        <time>2021-05-02T08:04:54.000Z</time>
      </trkpt>
      <trkpt lat="43.6698" lon="6.81245">
        <ele>504.8</ele>
        <time>2021-05-02T08:04:55.000Z</time>
      </trkpt>
      <trkpt lat="43.66979" lon="6.8124">
        <ele>505.2</ele>
        <time>2021-05-02T08:04:56.000Z</time>
      </trkpt>
      <trkpt lat="43.66978" lon="6.81235">
        <ele>505.6</ele>
        <time>2021-05-02T08:04:57.000Z</time>
      </trkpt>
      <trkpt lat="43.66977" lon="6.81231">
        <ele>505.6</ele>
        <time>2021-05-02T08:04:58.000Z</time>
      </trkpt>
      <trkpt lat="43.66976" lon="6.81227">
        <ele>505.3</ele>
        <time>2021-05-02T08:04:59.000Z</time>
      </trkpt>
      <trkpt lat="43.66975" lon="6.81224">
        <ele>505.8</ele>
        <time>2021-05-02T08:05:00.000Z</time>
      </trkpt>
      <trkpt lat="43.66973" lon="6.81221">
        <ele>505.4</ele>
        <time>2021-05-02T08:05:01.000Z</time>
      </trkpt>
      <trkpt lat="43.66973" lon="6.81218">
        <ele>505.3</ele>
        <time>2021-05-02T08:05:02.000Z</time>
      </trkpt>
      <trkpt lat="43.66971" lon="6.81215">
        <ele>505.5</ele>
        <time>2021-05-02T08:05:03.000Z</time>
      </trkpt>
      <trkpt lat="43.6697" lon="6.81212">
        <ele>505.2</ele>
        <time>2021-05-02T08:05:04.000Z</time>
      </trkpt>
      <trkpt lat="43.6697" lon="6.81208">
        <ele>505.2</ele>
        <time>2021-05-02T08:05:05.000Z</time>
      </trkpt>
      <trkpt lat="43.66971" lon="6.81204">
        <ele>505.4</ele>
        <time>2021-05-02T08:05:06.000Z</time>
      </trkpt>
      <trkpt lat="43.6697" lon="6.81201">
        <ele>506.3</ele>
        <time>2021-05-02T08:05:07.000Z</time>
      </trkpt>
      <trkpt lat="43.6697" lon="6.81197">
        <ele>506.5</ele>
        <time>2021-05-02T08:05:08.000Z</time>
      </trkpt>
      <trkpt lat="43.6697" lon="6.81195">
        <ele>506.7</ele>
        <time>2021-05-02T08:05:09.000Z</time>
      </trkpt>
      <trkpt lat="43.6697" lon="6.81192">
        <ele>506.7</ele>
        <time>2021-05-02T08:05:10.000Z</time>
      </trkpt>
      <trkpt lat="43.6697" lon="6.81189">
        <ele>506.9</ele>
        <time>2021-05-02T08:05:11.000Z</time>
      </trkpt>
      <trkpt lat="43.66971" lon="6.81186">
        <ele>507</ele>
        <time>2021-05-02T08:05:12.000Z</time>
      </trkpt>
      <trkpt lat="43.66971" lon="6.81183">
        <ele>507</ele>
        <time>2021-05-02T08:05:13.000Z</time>
      </trkpt>
      <trkpt lat="43.66971" lon="6.8118">
        <ele>507</ele>
        <time>2021-05-02T08:05:14.000Z</time>
      </trkpt>
      <trkpt lat="43.66972" lon="6.81177">
        <ele>507.1</ele>
        <time>2021-05-02T08:05:15.000Z</time>
      </trkpt>
      <trkpt lat="43.66972" lon="6.81175">
        <ele>507.5</ele>
        <time>2021-05-02T08:05:16.000Z</time>
      </trkpt>
      <trkpt lat="43.66972" lon="6.81172">
        <ele>507.7</ele>
        <time>2021-05-02T08:05:17.000Z</time>
      </trkpt>
      <trkpt lat="43.66971" lon="6.81169">
        <ele>507.9</ele>
        <time>2021-05-02T08:05:18.000Z</time>
      </trkpt>
      <trkpt lat="43.66971" lon="6.81166">
        <ele>508.4</ele>
        <time>2021-05-02T08:05:19.000Z</time>
      </trkpt>
      <trkpt lat="43.66971" lon="6.81163">
        <ele>508.7</ele>
        <time>2021-05-02T08:05:20.000Z</time>
      </trkpt>
      <trkpt lat="43.66971" lon="6.81161">
        <ele>508.8</ele>
        <time>2021-05-02T08:05:21.000Z</time>
      </trkpt>
      <trkpt lat="43.66971" lon="6.81159">
        <ele>508.7</ele>
        <time>2021-05-02T08:05:22.000Z</time>
      </trkpt>
      <trkpt lat="43.66971" lon="6.81156">
        <ele>508.2</ele>
        <time>2021-05-02T08:05:24.000Z</time>
      </trkpt>
      <trkpt lat="43.66971" lon="6.81154">
        <ele>508.2</ele>
        <time>2021-05-02T08:05:25.000Z</time>
      </trkpt>
      <trkpt lat="43.66969" lon="6.8115">
        <ele>508.7</ele>
        <time>2021-05-02T08:05:26.000Z</time>
      </trkpt>
      <trkpt lat="43.66968" lon="6.81147">
        <ele>509.3</ele>
        <time>2021-05-02T08:05:27.000Z</time>
      </trkpt>
      <trkpt lat="43.66968" lon="6.81144">
        <ele>509.5</ele>
        <time>2021-05-02T08:05:28.000Z</time>
      </trkpt>
      <trkpt lat="43.66967" lon="6.81143">
        <ele>509.4</ele>
        <time>2021-05-02T08:05:29.000Z</time>
      </trkpt>
      <trkpt lat="43.66967" lon="6.81142">
        <ele>509.4</ele>
        <time>2021-05-02T08:05:30.000Z</time>
      </trkpt>
      <trkpt lat="43.66959" lon="6.81135">
        <ele>505.6</ele>
        <time>2021-05-02T08:05:55.000Z</time>
      </trkpt>
      <trkpt lat="43.66958" lon="6.81135">
        <ele>505.4</ele>
        <time>2021-05-02T08:05:57.000Z</time>
      </trkpt>
      <trkpt lat="43.6695" lon="6.81128">
        <ele>493.6</ele>
        <time>2021-05-02T08:06:39.000Z</time>
      </trkpt>
      <trkpt lat="43.66951" lon="6.81123">
        <ele>495.3</ele>
        <time>2021-05-02T08:06:53.000Z</time>
      </trkpt>
      <trkpt lat="43.6695" lon="6.81122">
        <ele>495.8</ele>
        <time>2021-05-02T08:06:54.000Z</time>
      </trkpt>
      <trkpt lat="43.6695" lon="6.8112">
        <ele>496.2</ele>
        <time>2021-05-02T08:06:55.000Z</time>
      </trkpt>
      <trkpt lat="43.6695" lon="6.81119">
        <ele>496.7</ele>
        <time>2021-05-02T08:06:56.000Z</time>
      </trkpt>
      <trkpt lat="43.66949" lon="6.81117">
        <ele>497.1</ele>
        <time>2021-05-02T08:06:57.000Z</time>
      </trkpt>
      <trkpt lat="43.66949" lon="6.81115">
        <ele>497.4</ele>
        <time>2021-05-02T08:06:58.000Z</time>
      </trkpt>
      <trkpt lat="43.66949" lon="6.81113">
        <ele>498.3</ele>
        <time>2021-05-02T08:06:59.000Z</time>
      </trkpt>
      <trkpt lat="43.66949" lon="6.81111">
        <ele>498.8</ele>
        <time>2021-05-02T08:07:00.000Z</time>
      </trkpt>
      <trkpt lat="43.66949" lon="6.81109">
        <ele>499.3</ele>
        <time>2021-05-02T08:07:01.000Z</time>
      </trkpt>
      <trkpt lat="43.66949" lon="6.81108">
        <ele>499.7</ele>
        <time>2021-05-02T08:07:02.000Z</time>
      </trkpt>
      <trkpt lat="43.6695" lon="6.81106">
        <ele>500.1</ele>
        <time>2021-05-02T08:07:03.000Z</time>
      </trkpt>
      <trkpt lat="43.6695" lon="6.81105">
        <ele>500.9</ele>
        <time>2021-05-02T08:07:04.000Z</time>
      </trkpt>
      <trkpt lat="43.66951" lon="6.81102">
        <ele>501</ele>
        <time>2021-05-02T08:07:05.000Z</time>
      </trkpt>
      <trkpt lat="43.66952" lon="6.81098">
        <ele>501.6</ele>
        <time>2021-05-02T08:07:06.000Z</time>
      </trkpt>
      <trkpt lat="43.66953" lon="6.81095">
        <ele>502.2</ele>
        <time>2021-05-02T08:07:07.000Z</time>
      </trkpt>
      <trkpt lat="43.66954" lon="6.81093">
        <ele>502.7</ele>
        <time>2021-05-02T08:07:08.000Z</time>
      </trkpt>
      <trkpt lat="43.66954" lon="6.81091">
        <ele>503.2</ele>
        <time>2021-05-02T08:07:09.000Z</time>
      </trkpt>
      <trkpt lat="43.66955" lon="6.81088">
        <ele>503.7</ele>
        <time>2021-05-02T08:07:10.000Z</time>
      </trkpt>
      <trkpt lat="43.66955" lon="6.81085">
        <ele>504.7</ele>
        <time>2021-05-02T08:07:11.000Z</time>
      </trkpt>
      <trkpt lat="43.66956" lon="6.81082">
        <ele>505.6</ele>
        <time>2021-05-02T08:07:12.000Z</time>
      </trkpt>
      <trkpt lat="43.66957" lon="6.8108">
        <ele>506.4</ele>
        <time>2021-05-02T08:07:13.000Z</time>
      </trkpt>
      <trkpt lat="43.66957" lon="6.81077">
        <ele>507.2</ele>
        <time>2021-05-02T08:07:14.000Z</time>
      </trkpt>
      <trkpt lat="43.66956" lon="6.81075">
        <ele>508.2</ele>
        <time>2021-05-02T08:07:15.000Z</time>
      </trkpt>
      <trkpt lat="43.66956" lon="6.81073">
        <ele>508.8</ele>
        <time>2021-05-02T08:07:16.000Z</time>
      </trkpt>
      <trkpt lat="43.66956" lon="6.81071">
        <ele>509.3</ele>
        <time>2021-05-02T08:07:17.000Z</time>
      </trkpt>
      <trkpt lat="43.66956" lon="6.8107">
        <ele>510.1</ele>
        <time>2021-05-02T08:07:18.000Z</time>
      </trkpt>
      <trkpt lat="43.66956" lon="6.81068">
        <ele>510.9</ele>
        <time>2021-05-02T08:07:19.000Z</time>
      </trkpt>
      <trkpt lat="43.66956" lon="6.81065">
        <ele>512</ele>
        <time>2021-05-02T08:07:21.000Z</time>
      </trkpt>
      <trkpt lat="43.66955" lon="6.81053">
        <ele>515.3</ele>
        <time>2021-05-02T08:07:29.000Z</time>
      </trkpt>
      <trkpt lat="43.66955" lon="6.81051">
        <ele>515.8</ele>
        <time>2021-05-02T08:07:30.000Z</time>
      </trkpt>
      <trkpt lat="43.66955" lon="6.81049">
        <ele>516.3</ele>
        <time>2021-05-02T08:07:31.000Z</time>
      </trkpt>
      <trkpt lat="43.66955" lon="6.81047">
        <ele>516.7</ele>
        <time>2021-05-02T08:07:32.000Z</time>
      </trkpt>
      <trkpt lat="43.66955" lon="6.81045">
        <ele>517.2</ele>
        <time>2021-05-02T08:07:33.000Z</time>
      </trkpt>
      <trkpt lat="43.66955" lon="6.81043">
        <ele>517.6</ele>
        <time>2021-05-02T08:07:34.000Z</time>
      </trkpt>
      <trkpt lat="43.66955" lon="6.81041">
        <ele>518.1</ele>
        <time>2021-05-02T08:07:35.000Z</time>
      </trkpt>
      <trkpt lat="43.66954" lon="6.81039">
        <ele>518.6</ele>
        <time>2021-05-02T08:07:36.000Z</time>
      </trkpt>
      <trkpt lat="43.66954" lon="6.81036">
        <ele>519</ele>
        <time>2021-05-02T08:07:37.000Z</time>
      </trkpt>
      <trkpt lat="43.66954" lon="6.81033">
        <ele>519.5</ele>
        <time>2021-05-02T08:07:38.000Z</time>
      </trkpt>
      <trkpt lat="43.66955" lon="6.8103">
        <ele>520.2</ele>
        <time>2021-05-02T08:07:39.000Z</time>
      </trkpt>
      <trkpt lat="43.66955" lon="6.81027">
        <ele>520.6</ele>
        <time>2021-05-02T08:07:40.000Z</time>
      </trkpt>
      <trkpt lat="43.66955" lon="6.81025">
        <ele>521.1</ele>
        <time>2021-05-02T08:07:41.000Z</time>
      </trkpt>
      <trkpt lat="43.66953" lon="6.81021">
        <ele>521.6</ele>
        <time>2021-05-02T08:07:42.000Z</time>
      </trkpt>
      <trkpt lat="43.66952" lon="6.81018">
        <ele>522.1</ele>
        <time>2021-05-02T08:07:43.000Z</time>
      </trkpt>
      <trkpt lat="43.66951" lon="6.81014">
        <ele>522.6</ele>
        <time>2021-05-02T08:07:44.000Z</time>
      </trkpt>
      <trkpt lat="43.6695" lon="6.81013">
        <ele>523</ele>
        <time>2021-05-02T08:07:45.000Z</time>
      </trkpt>
      <trkpt lat="43.66949" lon="6.81011">
        <ele>523.4</ele>
        <time>2021-05-02T08:07:46.000Z</time>
      </trkpt>
      <trkpt lat="43.66947" lon="6.81007">
        <ele>523.8</ele>
        <time>2021-05-02T08:07:47.000Z</time>
      </trkpt>
      <trkpt lat="43.66946" lon="6.81004">
        <ele>524.3</ele>
        <time>2021-05-02T08:07:48.000Z</time>
      </trkpt>
      <trkpt lat="43.66945" lon="6.81001">
        <ele>524.8</ele>
        <time>2021-05-02T08:07:49.000Z</time>
      </trkpt>
      <trkpt lat="43.66943" lon="6.80998">
        <ele>525.4</ele>
        <time>2021-05-02T08:07:50.000Z</time>
      </trkpt>
      <trkpt lat="43.66942" lon="6.80995">
        <ele>525.9</ele>
        <time>2021-05-02T08:07:51.000Z</time>
      </trkpt>
      <trkpt lat="43.66941" lon="6.80991">
        <ele>526.5</ele>
        <time>2021-05-02T08:07:52.000Z</time>
      </trkpt>
      <trkpt lat="43.6694" lon="6.80987">
        <ele>527</ele>
        <time>2021-05-02T08:07:53.000Z</time>
      </trkpt>
      <trkpt lat="43.66939" lon="6.80984">
        <ele>527.6</ele>
        <time>2021-05-02T08:07:54.000Z</time>
      </trkpt>
      <trkpt lat="43.66938" lon="6.8098">
        <ele>528.2</ele>
        <time>2021-05-02T08:07:55.000Z</time>
      </trkpt>
      <trkpt lat="43.66938" lon="6.80977">
        <ele>528.2</ele>
        <time>2021-05-02T08:07:56.000Z</time>
      </trkpt>
      <trkpt lat="43.66937" lon="6.80974">
        <ele>528.4</ele>
        <time>2021-05-02T08:07:57.000Z</time>
      </trkpt>
      <trkpt lat="43.66936" lon="6.80971">
        <ele>528.9</ele>
        <time>2021-05-02T08:07:58.000Z</time>
      </trkpt>
      <trkpt lat="43.66936" lon="6.80968">
        <ele>529.4</ele>
        <time>2021-05-02T08:07:59.000Z</time>
      </trkpt>
      <trkpt lat="43.66935" lon="6.80966">
        <ele>529.7</ele>
        <time>2021-05-02T08:08:00.000Z</time>
      </trkpt>
      <trkpt lat="43.66935" lon="6.80963">
        <ele>529.9</ele>
        <time>2021-05-02T08:08:01.000Z</time>
      </trkpt>
      <trkpt lat="43.66934" lon="6.80959">
        <ele>530.1</ele>
        <time>2021-05-02T08:08:02.000Z</time>
      </trkpt>
      <trkpt lat="43.66933" lon="6.80956">
        <ele>530.3</ele>
        <time>2021-05-02T08:08:03.000Z</time>
      </trkpt>
      <trkpt lat="43.66932" lon="6.80953">
        <ele>530.3</ele>
        <time>2021-05-02T08:08:04.000Z</time>
      </trkpt>
      <trkpt lat="43.6693" lon="6.80949">
        <ele>530.5</ele>
        <time>2021-05-02T08:08:05.000Z</time>
      </trkpt>
      <trkpt lat="43.66929" lon="6.80946">
        <ele>530.9</ele>
        <time>2021-05-02T08:08:06.000Z</time>
      </trkpt>
      <trkpt lat="43.66928" lon="6.80942">
        <ele>531.2</ele>
        <time>2021-05-02T08:08:07.000Z</time>
      </trkpt>
      <trkpt lat="43.66926" lon="6.80938">
        <ele>531.6</ele>
        <time>2021-05-02T08:08:08.000Z</time>
      </trkpt>
      <trkpt lat="43.66926" lon="6.80934">
        <ele>531.6</ele>
        <time>2021-05-02T08:08:09.000Z</time>
      </trkpt>
      <trkpt lat="43.66926" lon="6.80929">
        <ele>532</ele>
        <time>2021-05-02T08:08:10.000Z</time>
      </trkpt>
      <trkpt lat="43.66926" lon="6.80925">
        <ele>531.9</ele>
        <time>2021-05-02T08:08:11.000Z</time>
      </trkpt>
      <trkpt lat="43.66926" lon="6.80922">
        <ele>531.9</ele>
        <time>2021-05-02T08:08:12.000Z</time>
      </trkpt>
      <trkpt lat="43.66925" lon="6.80918">
        <ele>532.3</ele>
        <time>2021-05-02T08:08:13.000Z</time>
      </trkpt>
      <trkpt lat="43.66926" lon="6.80912">
        <ele>532.4</ele>
        <time>2021-05-02T08:08:14.000Z</time>
      </trkpt>
      <trkpt lat="43.66925" lon="6.80909">
        <ele>532.5</ele>
        <time>2021-05-02T08:08:15.000Z</time>
      </trkpt>
      <trkpt lat="43.66925" lon="6.80906">
        <ele>532.5</ele>
        <time>2021-05-02T08:08:16.000Z</time>
      </trkpt>
      <trkpt lat="43.66925" lon="6.80903">
        <ele>532.6</ele>
        <time>2021-05-02T08:08:17.000Z</time>
      </trkpt>
      <trkpt lat="43.66925" lon="6.809">
        <ele>532.9</ele>
        <time>2021-05-02T08:08:18.000Z</time>
      </trkpt>
      <trkpt lat="43.66925" lon="6.80897">
        <ele>533.2</ele>
        <time>2021-05-02T08:08:19.000Z</time>
      </trkpt>
      <trkpt lat="43.66925" lon="6.80894">
        <ele>533.3</ele>
        <time>2021-05-02T08:08:20.000Z</time>
      </trkpt>
      <trkpt lat="43.66924" lon="6.80891">
        <ele>533.3</ele>
        <time>2021-05-02T08:08:21.000Z</time>
      </trkpt>
      <trkpt lat="43.66923" lon="6.80888">
        <ele>533.8</ele>
        <time>2021-05-02T08:08:22.000Z</time>
      </trkpt>
      <trkpt lat="43.66922" lon="6.80884">
        <ele>534.1</ele>
        <time>2021-05-02T08:08:23.000Z</time>
      </trkpt>
      <trkpt lat="43.66922" lon="6.80881">
        <ele>534.5</ele>
        <time>2021-05-02T08:08:24.000Z</time>
      </trkpt>
      <trkpt lat="43.66921" lon="6.80879">
        <ele>534.9</ele>
        <time>2021-05-02T08:08:25.000Z</time>
      </trkpt>
      <trkpt lat="43.6692" lon="6.80878">
        <ele>535.2</ele>
        <time>2021-05-02T08:08:26.000Z</time>
      </trkpt>
      <trkpt lat="43.66918" lon="6.80873">
        <ele>536.6</ele>
        <time>2021-05-02T08:08:27.000Z</time>
      </trkpt>
      <trkpt lat="43.66916" lon="6.80871">
        <ele>537.2</ele>
        <time>2021-05-02T08:08:28.000Z</time>
      </trkpt>
      <trkpt lat="43.66915" lon="6.80868">
        <ele>537.6</ele>
        <time>2021-05-02T08:08:29.000Z</time>
      </trkpt>
      <trkpt lat="43.66913" lon="6.80866">
        <ele>537.7</ele>
        <time>2021-05-02T08:08:30.000Z</time>
      </trkpt>
      <trkpt lat="43.66912" lon="6.80864">
        <ele>537.8</ele>
        <time>2021-05-02T08:08:31.000Z</time>
      </trkpt>
      <trkpt lat="43.66911" lon="6.80862">
        <ele>537.9</ele>
        <time>2021-05-02T08:08:32.000Z</time>
      </trkpt>
      <trkpt lat="43.66909" lon="6.80859">
        <ele>538</ele>
        <time>2021-05-02T08:08:33.000Z</time>
      </trkpt>
      <trkpt lat="43.66908" lon="6.80857">
        <ele>538.1</ele>
        <time>2021-05-02T08:08:34.000Z</time>
      </trkpt>
      <trkpt lat="43.66908" lon="6.80854">
        <ele>538.3</ele>
        <time>2021-05-02T08:08:35.000Z</time>
      </trkpt>
      <trkpt lat="43.66907" lon="6.80851">
        <ele>538.7</ele>
        <time>2021-05-02T08:08:36.000Z</time>
      </trkpt>
      <trkpt lat="43.66905" lon="6.80849">
        <ele>538.9</ele>
        <time>2021-05-02T08:08:37.000Z</time>
      </trkpt>
      <trkpt lat="43.66904" lon="6.80847">
        <ele>539</ele>
        <time>2021-05-02T08:08:38.000Z</time>
      </trkpt>
      <trkpt lat="43.66902" lon="6.80845">
        <ele>539</ele>
        <time>2021-05-02T08:08:39.000Z</time>
      </trkpt>
      <trkpt lat="43.66901" lon="6.80843">
        <ele>539.1</ele>
        <time>2021-05-02T08:08:40.000Z</time>
      </trkpt>
      <trkpt lat="43.669" lon="6.80841">
        <ele>539.2</ele>
        <time>2021-05-02T08:08:41.000Z</time>
      </trkpt>
      <trkpt lat="43.66899" lon="6.80839">
        <ele>539</ele>
        <time>2021-05-02T08:08:42.000Z</time>
      </trkpt>
      <trkpt lat="43.66899" lon="6.80836">
        <ele>539.1</ele>
        <time>2021-05-02T08:08:43.000Z</time>
      </trkpt>
      <trkpt lat="43.66898" lon="6.80834">
        <ele>539.2</ele>
        <time>2021-05-02T08:08:44.000Z</time>
      </trkpt>
      <trkpt lat="43.66897" lon="6.80831">
        <ele>539.3</ele>
        <time>2021-05-02T08:08:45.000Z</time>
      </trkpt>
      <trkpt lat="43.66896" lon="6.80825">
        <ele>541.7</ele>
        <time>2021-05-02T08:08:46.000Z</time>
      </trkpt>
      <trkpt lat="43.66895" lon="6.80823">
        <ele>541.8</ele>
        <time>2021-05-02T08:08:47.000Z</time>
      </trkpt>
      <trkpt lat="43.66894" lon="6.80821">
        <ele>541.9</ele>
        <time>2021-05-02T08:08:48.000Z</time>
      </trkpt>
      <trkpt lat="43.66893" lon="6.8082">
        <ele>541.9</ele>
        <time>2021-05-02T08:08:49.000Z</time>
      </trkpt>
      <trkpt lat="43.66891" lon="6.80818">
        <ele>541.9</ele>
        <time>2021-05-02T08:08:50.000Z</time>
      </trkpt>
      <trkpt lat="43.66889" lon="6.80816">
        <ele>542.1</ele>
        <time>2021-05-02T08:08:51.000Z</time>
      </trkpt>
      <trkpt lat="43.66888" lon="6.80814">
        <ele>542.3</ele>
        <time>2021-05-02T08:08:52.000Z</time>
      </trkpt>
      <trkpt lat="43.66887" lon="6.80813">
        <ele>542.2</ele>
        <time>2021-05-02T08:08:53.000Z</time>
      </trkpt>
      <trkpt lat="43.66886" lon="6.80812">
        <ele>542.3</ele>
        <time>2021-05-02T08:08:54.000Z</time>
      </trkpt>
      <trkpt lat="43.66884" lon="6.8081">
        <ele>542.6</ele>
        <time>2021-05-02T08:08:55.000Z</time>
      </trkpt>
      <trkpt lat="43.66882" lon="6.80809">
        <ele>542.7</ele>
        <time>2021-05-02T08:08:56.000Z</time>
      </trkpt>
      <trkpt lat="43.66881" lon="6.80807">
        <ele>542.5</ele>
        <time>2021-05-02T08:08:57.000Z</time>
      </trkpt>
      <trkpt lat="43.66879" lon="6.80806">
        <ele>542.7</ele>
        <time>2021-05-02T08:08:58.000Z</time>
      </trkpt>
      <trkpt lat="43.66877" lon="6.80805">
        <ele>542.8</ele>
        <time>2021-05-02T08:08:59.000Z</time>
      </trkpt>
      <trkpt lat="43.66875" lon="6.80804">
        <ele>542.9</ele>
        <time>2021-05-02T08:09:00.000Z</time>
      </trkpt>
      <trkpt lat="43.66873" lon="6.80803">
        <ele>542.7</ele>
        <time>2021-05-02T08:09:01.000Z</time>
      </trkpt>
      <trkpt lat="43.66871" lon="6.80803">
        <ele>542.9</ele>
        <time>2021-05-02T08:09:02.000Z</time>
      </trkpt>
      <trkpt lat="43.66869" lon="6.80804">
        <ele>543</ele>
        <time>2021-05-02T08:09:03.000Z</time>
      </trkpt>
      <trkpt lat="43.66866" lon="6.80804">
        <ele>542.8</ele>
        <time>2021-05-02T08:09:04.000Z</time>
      </trkpt>
      <trkpt lat="43.66863" lon="6.80805">
        <ele>542.5</ele>
        <time>2021-05-02T08:09:05.000Z</time>
      </trkpt>
      <trkpt lat="43.66861" lon="6.80805">
        <ele>542.5</ele>
        <time>2021-05-02T08:09:06.000Z</time>
      </trkpt>
      <trkpt lat="43.66859" lon="6.80805">
        <ele>542.3</ele>
        <time>2021-05-02T08:09:07.000Z</time>
      </trkpt>
      <trkpt lat="43.66856" lon="6.80804">
        <ele>542</ele>
        <time>2021-05-02T08:09:08.000Z</time>
      </trkpt>
      <trkpt lat="43.66854" lon="6.80804">
        <ele>542</ele>
        <time>2021-05-02T08:09:09.000Z</time>
      </trkpt>
      <trkpt lat="43.66852" lon="6.80803">
        <ele>542.1</ele>
        <time>2021-05-02T08:09:10.000Z</time>
      </trkpt>
      <trkpt lat="43.66849" lon="6.80801">
        <ele>542.4</ele>
        <time>2021-05-02T08:09:11.000Z</time>
      </trkpt>
      <trkpt lat="43.66846" lon="6.80799">
        <ele>542.3</ele>
        <time>2021-05-02T08:09:12.000Z</time>
      </trkpt>
      <trkpt lat="43.66843" lon="6.80798">
        <ele>542.2</ele>
        <time>2021-05-02T08:09:13.000Z</time>
      </trkpt>
      <trkpt lat="43.6684" lon="6.80796">
        <ele>541.6</ele>
        <time>2021-05-02T08:09:14.000Z</time>
      </trkpt>
      <trkpt lat="43.66838" lon="6.80795">
        <ele>541.1</ele>
        <time>2021-05-02T08:09:15.000Z</time>
      </trkpt>
      <trkpt lat="43.66835" lon="6.80792">
        <ele>540.7</ele>
        <time>2021-05-02T08:09:16.000Z</time>
      </trkpt>
      <trkpt lat="43.66832" lon="6.8079">
        <ele>540.3</ele>
        <time>2021-05-02T08:09:17.000Z</time>
      </trkpt>
      <trkpt lat="43.66829" lon="6.80787">
        <ele>539.8</ele>
        <time>2021-05-02T08:09:18.000Z</time>
      </trkpt>
      <trkpt lat="43.66827" lon="6.80784">
        <ele>539.3</ele>
        <time>2021-05-02T08:09:19.000Z</time>
      </trkpt>
      <trkpt lat="43.66825" lon="6.80782">
        <ele>538.5</ele>
        <time>2021-05-02T08:09:20.000Z</time>
      </trkpt>
      <trkpt lat="43.66821" lon="6.80781">
        <ele>538.5</ele>
        <time>2021-05-02T08:09:21.000Z</time>
      </trkpt>
      <trkpt lat="43.66818" lon="6.80781">
        <ele>538.8</ele>
        <time>2021-05-02T08:09:22.000Z</time>
      </trkpt>
      <trkpt lat="43.66815" lon="6.80781">
        <ele>539.2</ele>
        <time>2021-05-02T08:09:23.000Z</time>
      </trkpt>
      <trkpt lat="43.66812" lon="6.8078">
        <ele>539.6</ele>
        <time>2021-05-02T08:09:24.000Z</time>
      </trkpt>
      <trkpt lat="43.6681" lon="6.80779">
        <ele>539.9</ele>
        <time>2021-05-02T08:09:25.000Z</time>
      </trkpt>
      <trkpt lat="43.66809" lon="6.80779">
        <ele>540.3</ele>
        <time>2021-05-02T08:09:26.000Z</time>
      </trkpt>
      <trkpt lat="43.66801" lon="6.80771">
        <ele>535.2</ele>
        <time>2021-05-02T08:10:01.000Z</time>
      </trkpt>
      <trkpt lat="43.66803" lon="6.80771">
        <ele>534.7</ele>
        <time>2021-05-02T08:11:04.000Z</time>
      </trkpt>
      <trkpt lat="43.66803" lon="6.80774">
        <ele>534.7</ele>
        <time>2021-05-02T08:11:05.000Z</time>
      </trkpt>
      <trkpt lat="43.66803" lon="6.80775">
        <ele>534.9</ele>
        <time>2021-05-02T08:11:06.000Z</time>
      </trkpt>
      <trkpt lat="43.66803" lon="6.80778">
        <ele>535</ele>
        <time>2021-05-02T08:11:07.000Z</time>
      </trkpt>
      <trkpt lat="43.66803" lon="6.8078">
        <ele>535.1</ele>
        <time>2021-05-02T08:11:08.000Z</time>
      </trkpt>
      <trkpt lat="43.66803" lon="6.80783">
        <ele>535.2</ele>
        <time>2021-05-02T08:11:09.000Z</time>
      </trkpt>
      <trkpt lat="43.66803" lon="6.80785">
        <ele>535.3</ele>
        <time>2021-05-02T08:11:10.000Z</time>
      </trkpt>
      <trkpt lat="43.66803" lon="6.80788">
        <ele>535.5</ele>
        <time>2021-05-02T08:11:11.000Z</time>
      </trkpt>
      <trkpt lat="43.66803" lon="6.8079">
        <ele>535.7</ele>
        <time>2021-05-02T08:11:12.000Z</time>
      </trkpt>
      <trkpt lat="43.66804" lon="6.80793">
        <ele>536</ele>
        <time>2021-05-02T08:11:13.000Z</time>
      </trkpt>
      <trkpt lat="43.66804" lon="6.80796">
        <ele>536.2</ele>
        <time>2021-05-02T08:11:14.000Z</time>
      </trkpt>
      <trkpt lat="43.66805" lon="6.80799">
        <ele>536.4</ele>
        <time>2021-05-02T08:11:15.000Z</time>
      </trkpt>
      <trkpt lat="43.66806" lon="6.80801">
        <ele>537</ele>
        <time>2021-05-02T08:11:16.000Z</time>
      </trkpt>
      <trkpt lat="43.66806" lon="6.80804">
        <ele>537.6</ele>
        <time>2021-05-02T08:11:17.000Z</time>
      </trkpt>
      <trkpt lat="43.66807" lon="6.80807">
        <ele>538.3</ele>
        <time>2021-05-02T08:11:18.000Z</time>
      </trkpt>
      <trkpt lat="43.66807" lon="6.80809">
        <ele>539.2</ele>
        <time>2021-05-02T08:11:19.000Z</time>
      </trkpt>
      <trkpt lat="43.66807" lon="6.80812">
        <ele>540</ele>
        <time>2021-05-02T08:11:20.000Z</time>
      </trkpt>
      <trkpt lat="43.66808" lon="6.80815">
        <ele>540.9</ele>
        <time>2021-05-02T08:11:21.000Z</time>
      </trkpt>
      <trkpt lat="43.66808" lon="6.80817">
        <ele>541.7</ele>
        <time>2021-05-02T08:11:22.000Z</time>
      </trkpt>
      <trkpt lat="43.66809" lon="6.8082">
        <ele>542.3</ele>
        <time>2021-05-02T08:11:23.000Z</time>
      </trkpt>
      <trkpt lat="43.66809" lon="6.80823">
        <ele>543</ele>
        <time>2021-05-02T08:11:24.000Z</time>
      </trkpt>
      <trkpt lat="43.66809" lon="6.80826">
        <ele>543.7</ele>
        <time>2021-05-02T08:11:25.000Z</time>
      </trkpt>
      <trkpt lat="43.66808" lon="6.80829">
        <ele>544.4</ele>
        <time>2021-05-02T08:11:26.000Z</time>
      </trkpt>
      <trkpt lat="43.66807" lon="6.80831">
        <ele>545</ele>
        <time>2021-05-02T08:11:27.000Z</time>
      </trkpt>
      <trkpt lat="43.66806" lon="6.80834">
        <ele>545.6</ele>
        <time>2021-05-02T08:11:28.000Z</time>
      </trkpt>
      <trkpt lat="43.66806" lon="6.80836">
        <ele>546.1</ele>
        <time>2021-05-02T08:11:29.000Z</time>
      </trkpt>
      <trkpt lat="43.66806" lon="6.80839">
        <ele>546.7</ele>
        <time>2021-05-02T08:11:30.000Z</time>
      </trkpt>
      <trkpt lat="43.66806" lon="6.80842">
        <ele>547.3</ele>
        <time>2021-05-02T08:11:31.000Z</time>
      </trkpt>
      <trkpt lat="43.66806" lon="6.80846">
        <ele>547.7</ele>
        <time>2021-05-02T08:11:32.000Z</time>
      </trkpt>
      <trkpt lat="43.66806" lon="6.80849">
        <ele>548.3</ele>
        <time>2021-05-02T08:11:33.000Z</time>
      </trkpt>
      <trkpt lat="43.66807" lon="6.80853">
        <ele>548.8</ele>
        <time>2021-05-02T08:11:34.000Z</time>
      </trkpt>
      <trkpt lat="43.66807" lon="6.80857">
        <ele>549.4</ele>
        <time>2021-05-02T08:11:35.000Z</time>
      </trkpt>
      <trkpt lat="43.66807" lon="6.80861">
        <ele>550.2</ele>
        <time>2021-05-02T08:11:36.000Z</time>
      </trkpt>
      <trkpt lat="43.66807" lon="6.80865">
        <ele>551.1</ele>
        <time>2021-05-02T08:11:37.000Z</time>
      </trkpt>
      <trkpt lat="43.66806" lon="6.80868">
        <ele>552</ele>
        <time>2021-05-02T08:11:38.000Z</time>
      </trkpt>
      <trkpt lat="43.66805" lon="6.80872">
        <ele>552.4</ele>
        <time>2021-05-02T08:11:39.000Z</time>
      </trkpt>
      <trkpt lat="43.66805" lon="6.80875">
        <ele>552.7</ele>
        <time>2021-05-02T08:11:40.000Z</time>
      </trkpt>
      <trkpt lat="43.66806" lon="6.80879">
        <ele>552.8</ele>
        <time>2021-05-02T08:11:41.000Z</time>
      </trkpt>
      <trkpt lat="43.66806" lon="6.80882">
        <ele>553.2</ele>
        <time>2021-05-02T08:11:42.000Z</time>
      </trkpt>
      <trkpt lat="43.66806" lon="6.80885">
        <ele>553.7</ele>
        <time>2021-05-02T08:11:43.000Z</time>
      </trkpt>
      <trkpt lat="43.66807" lon="6.80887">
        <ele>554</ele>
        <time>2021-05-02T08:11:44.000Z</time>
      </trkpt>
      <trkpt lat="43.66808" lon="6.8089">
        <ele>554</ele>
        <time>2021-05-02T08:11:45.000Z</time>
      </trkpt>
      <trkpt lat="43.66808" lon="6.80893">
        <ele>553.9</ele>
        <time>2021-05-02T08:11:46.000Z</time>
      </trkpt>
      <trkpt lat="43.66809" lon="6.80896">
        <ele>553.7</ele>
        <time>2021-05-02T08:11:47.000Z</time>
      </trkpt>
      <trkpt lat="43.66809" lon="6.80899">
        <ele>553.5</ele>
        <time>2021-05-02T08:11:48.000Z</time>
      </trkpt>
      <trkpt lat="43.66809" lon="6.80902">
        <ele>553.1</ele>
        <time>2021-05-02T08:11:49.000Z</time>
      </trkpt>
      <trkpt lat="43.66809" lon="6.80905">
        <ele>552.7</ele>
        <time>2021-05-02T08:11:50.000Z</time>
      </trkpt>
      <trkpt lat="43.6681" lon="6.80908">
        <ele>552.6</ele>
        <time>2021-05-02T08:11:51.000Z</time>
      </trkpt>
      <trkpt lat="43.6681" lon="6.80911">
        <ele>552.4</ele>
        <time>2021-05-02T08:11:52.000Z</time>
      </trkpt>
      <trkpt lat="43.6681" lon="6.80914">
        <ele>552.3</ele>
        <time>2021-05-02T08:11:53.000Z</time>
      </trkpt>
      <trkpt lat="43.66809" lon="6.80917">
        <ele>552.4</ele>
        <time>2021-05-02T08:11:54.000Z</time>
      </trkpt>
      <trkpt lat="43.66809" lon="6.8092">
        <ele>552.1</ele>
        <time>2021-05-02T08:11:55.000Z</time>
      </trkpt>
      <trkpt lat="43.66808" lon="6.80923">
        <ele>552</ele>
        <time>2021-05-02T08:11:56.000Z</time>
      </trkpt>
      <trkpt lat="43.66808" lon="6.80926">
        <ele>551.9</ele>
        <time>2021-05-02T08:11:57.000Z</time>
      </trkpt>
      <trkpt lat="43.66807" lon="6.80929">
        <ele>552</ele>
        <time>2021-05-02T08:11:58.000Z</time>
      </trkpt>
      <trkpt lat="43.66808" lon="6.80932">
        <ele>551.8</ele>
        <time>2021-05-02T08:11:59.000Z</time>
      </trkpt>
      <trkpt lat="43.66808" lon="6.80937">
        <ele>551.6</ele>
        <time>2021-05-02T08:12:00.000Z</time>
      </trkpt>
      <trkpt lat="43.66808" lon="6.8094">
        <ele>551.8</ele>
        <time>2021-05-02T08:12:01.000Z</time>
      </trkpt>
      <trkpt lat="43.66809" lon="6.80944">
        <ele>551.8</ele>
        <time>2021-05-02T08:12:02.000Z</time>
      </trkpt>
      <trkpt lat="43.66809" lon="6.80948">
        <ele>551.6</ele>
        <time>2021-05-02T08:12:03.000Z</time>
      </trkpt>
      <trkpt lat="43.6681" lon="6.80951">
        <ele>551.7</ele>
        <time>2021-05-02T08:12:04.000Z</time>
      </trkpt>
      <trkpt lat="43.66811" lon="6.80955">
        <ele>551.1</ele>
        <time>2021-05-02T08:12:05.000Z</time>
      </trkpt>
      <trkpt lat="43.66811" lon="6.80958">
        <ele>551</ele>
        <time>2021-05-02T08:12:06.000Z</time>
      </trkpt>
      <trkpt lat="43.6681" lon="6.80961">
        <ele>551</ele>
        <time>2021-05-02T08:12:07.000Z</time>
      </trkpt>
      <trkpt lat="43.6681" lon="6.80964">
        <ele>550.9</ele>
        <time>2021-05-02T08:12:08.000Z</time>
      </trkpt>
      <trkpt lat="43.66809" lon="6.80966">
        <ele>551.3</ele>
        <time>2021-05-02T08:12:09.000Z</time>
      </trkpt>
      <trkpt lat="43.66808" lon="6.80968">
        <ele>550.8</ele>
        <time>2021-05-02T08:12:10.000Z</time>
      </trkpt>
      <trkpt lat="43.66807" lon="6.8097">
        <ele>550.8</ele>
        <time>2021-05-02T08:12:11.000Z</time>
      </trkpt>
      <trkpt lat="43.66806" lon="6.80971">
        <ele>551.4</ele>
        <time>2021-05-02T08:12:12.000Z</time>
      </trkpt>
      <trkpt lat="43.66805" lon="6.80973">
        <ele>552</ele>
        <time>2021-05-02T08:12:13.000Z</time>
      </trkpt>
      <trkpt lat="43.66804" lon="6.80974">
        <ele>553</ele>
        <time>2021-05-02T08:12:14.000Z</time>
      </trkpt>
      <trkpt lat="43.66803" lon="6.80974">
        <ele>553.6</ele>
        <time>2021-05-02T08:12:15.000Z</time>
      </trkpt>
      <trkpt lat="43.66802" lon="6.80974">
        <ele>554.5</ele>
        <time>2021-05-02T08:12:16.000Z</time>
      </trkpt>
      <trkpt lat="43.66801" lon="6.80974">
        <ele>555.2</ele>
        <time>2021-05-02T08:12:17.000Z</time>
      </trkpt>
      <trkpt lat="43.668" lon="6.80974">
        <ele>555.7</ele>
        <time>2021-05-02T08:12:18.000Z</time>
      </trkpt>
      <trkpt lat="43.66798" lon="6.80974">
        <ele>556</ele>
        <time>2021-05-02T08:12:19.000Z</time>
      </trkpt>
      <trkpt lat="43.66797" lon="6.80975">
        <ele>556.4</ele>
        <time>2021-05-02T08:12:20.000Z</time>
      </trkpt>
      <trkpt lat="43.66795" lon="6.80975">
        <ele>556.6</ele>
        <time>2021-05-02T08:12:21.000Z</time>
      </trkpt>
      <trkpt lat="43.66794" lon="6.80975">
        <ele>556.9</ele>
        <time>2021-05-02T08:12:22.000Z</time>
      </trkpt>
      <trkpt lat="43.66793" lon="6.80974">
        <ele>557.2</ele>
        <time>2021-05-02T08:12:23.000Z</time>
      </trkpt>
      <trkpt lat="43.66791" lon="6.80974">
        <ele>557.6</ele>
        <time>2021-05-02T08:12:24.000Z</time>
      </trkpt>
      <trkpt lat="43.6679" lon="6.80975">
        <ele>557.8</ele>
        <time>2021-05-02T08:12:25.000Z</time>
      </trkpt>
      <trkpt lat="43.66789" lon="6.80975">
        <ele>558.2</ele>
        <time>2021-05-02T08:12:26.000Z</time>
      </trkpt>
      <trkpt lat="43.66788" lon="6.80976">
        <ele>558.4</ele>
        <time>2021-05-02T08:12:27.000Z</time>
      </trkpt>
      <trkpt lat="43.66786" lon="6.80977">
        <ele>558.2</ele>
        <time>2021-05-02T08:12:28.000Z</time>
      </trkpt>
      <trkpt lat="43.66784" lon="6.80978">
        <ele>558.3</ele>
        <time>2021-05-02T08:12:29.000Z</time>
      </trkpt>
      <trkpt lat="43.66783" lon="6.80979">
        <ele>558.6</ele>
        <time>2021-05-02T08:12:30.000Z</time>
      </trkpt>
      <trkpt lat="43.66781" lon="6.8098">
        <ele>558.9</ele>
        <time>2021-05-02T08:12:31.000Z</time>
      </trkpt>
      <trkpt lat="43.6678" lon="6.8098">
        <ele>559.1</ele>
        <time>2021-05-02T08:12:32.000Z</time>
      </trkpt>
      <trkpt lat="43.66778" lon="6.8098">
        <ele>559.3</ele>
        <time>2021-05-02T08:12:33.000Z</time>
      </trkpt>
      <trkpt lat="43.66776" lon="6.8098">
        <ele>559.7</ele>
        <time>2021-05-02T08:12:34.000Z</time>
      </trkpt>
      <trkpt lat="43.66775" lon="6.8098">
        <ele>560</ele>
        <time>2021-05-02T08:12:35.000Z</time>
      </trkpt>
      <trkpt lat="43.66773" lon="6.80979">
        <ele>560</ele>
        <time>2021-05-02T08:12:36.000Z</time>
      </trkpt>
      <trkpt lat="43.66766" lon="6.8099">
        <ele>554.3</ele>
        <time>2021-05-02T08:13:09.000Z</time>
      </trkpt>
      <trkpt lat="43.66764" lon="6.8099">
        <ele>554</ele>
        <time>2021-05-02T08:13:10.000Z</time>
      </trkpt>
      <trkpt lat="43.66763" lon="6.80991">
        <ele>553.7</ele>
        <time>2021-05-02T08:13:11.000Z</time>
      </trkpt>
      <trkpt lat="43.66762" lon="6.80991">
        <ele>553.5</ele>
        <time>2021-05-02T08:13:12.000Z</time>
      </trkpt>
      <trkpt lat="43.6676" lon="6.80991">
        <ele>553.3</ele>
        <time>2021-05-02T08:13:13.000Z</time>
      </trkpt>
      <trkpt lat="43.66759" lon="6.8099">
        <ele>553.2</ele>
        <time>2021-05-02T08:13:14.000Z</time>
      </trkpt>
      <trkpt lat="43.66758" lon="6.80989">
        <ele>553.3</ele>
        <time>2021-05-02T08:13:15.000Z</time>
      </trkpt>
      <trkpt lat="43.66756" lon="6.80988">
        <ele>553.5</ele>
        <time>2021-05-02T08:13:16.000Z</time>
      </trkpt>
      <trkpt lat="43.66754" lon="6.80987">
        <ele>553.5</ele>
        <time>2021-05-02T08:13:17.000Z</time>
      </trkpt>
      <trkpt lat="43.66752" lon="6.80986">
        <ele>553.8</ele>
        <time>2021-05-02T08:13:18.000Z</time>
      </trkpt>
      <trkpt lat="43.6675" lon="6.80984">
        <ele>554</ele>
        <time>2021-05-02T08:13:19.000Z</time>
      </trkpt>
      <trkpt lat="43.66747" lon="6.80983">
        <ele>554.5</ele>
        <time>2021-05-02T08:13:20.000Z</time>
      </trkpt>
      <trkpt lat="43.66745" lon="6.80982">
        <ele>555.2</ele>
        <time>2021-05-02T08:13:21.000Z</time>
      </trkpt>
      <trkpt lat="43.66743" lon="6.80982">
        <ele>555.9</ele>
        <time>2021-05-02T08:13:22.000Z</time>
      </trkpt>
      <trkpt lat="43.6674" lon="6.8098">
        <ele>556.5</ele>
        <time>2021-05-02T08:13:23.000Z</time>
      </trkpt>
      <trkpt lat="43.66738" lon="6.80978">
        <ele>556.9</ele>
        <time>2021-05-02T08:13:24.000Z</time>
      </trkpt>
      <trkpt lat="43.66737" lon="6.80974">
        <ele>557.3</ele>
        <time>2021-05-02T08:13:25.000Z</time>
      </trkpt>
      <trkpt lat="43.66735" lon="6.80971">
        <ele>557.7</ele>
        <time>2021-05-02T08:13:26.000Z</time>
      </trkpt>
      <trkpt lat="43.66733" lon="6.80969">
        <ele>558.3</ele>
        <time>2021-05-02T08:13:27.000Z</time>
      </trkpt>
      <trkpt lat="43.66731" lon="6.80968">
        <ele>558.6</ele>
        <time>2021-05-02T08:13:28.000Z</time>
      </trkpt>
      <trkpt lat="43.66729" lon="6.80968">
        <ele>558.8</ele>
        <time>2021-05-02T08:13:29.000Z</time>
      </trkpt>
      <trkpt lat="43.66727" lon="6.80967">
        <ele>558.7</ele>
        <time>2021-05-02T08:13:30.000Z</time>
      </trkpt>
      <trkpt lat="43.66725" lon="6.80966">
        <ele>558.8</ele>
        <time>2021-05-02T08:13:31.000Z</time>
      </trkpt>
      <trkpt lat="43.66723" lon="6.80966">
        <ele>558.9</ele>
        <time>2021-05-02T08:13:32.000Z</time>
      </trkpt>
      <trkpt lat="43.66721" lon="6.80965">
        <ele>558.9</ele>
        <time>2021-05-02T08:13:33.000Z</time>
      </trkpt>
      <trkpt lat="43.6672" lon="6.80964">
        <ele>558.8</ele>
        <time>2021-05-02T08:13:34.000Z</time>
      </trkpt>
      <trkpt lat="43.66717" lon="6.80963">
        <ele>558.6</ele>
        <time>2021-05-02T08:13:35.000Z</time>
      </trkpt>
      <trkpt lat="43.66716" lon="6.80962">
        <ele>558.6</ele>
        <time>2021-05-02T08:13:36.000Z</time>
      </trkpt>
      <trkpt lat="43.66714" lon="6.80961">
        <ele>558.6</ele>
        <time>2021-05-02T08:13:37.000Z</time>
      </trkpt>
      <trkpt lat="43.66713" lon="6.8096">
        <ele>558.1</ele>
        <time>2021-05-02T08:13:38.000Z</time>
      </trkpt>
      <trkpt lat="43.66711" lon="6.80959">
        <ele>558.1</ele>
        <time>2021-05-02T08:13:39.000Z</time>
      </trkpt>
      <trkpt lat="43.6671" lon="6.8096">
        <ele>557.8</ele>
        <time>2021-05-02T08:13:40.000Z</time>
      </trkpt>
      <trkpt lat="43.66708" lon="6.80959">
        <ele>557.2</ele>
        <time>2021-05-02T08:13:41.000Z</time>
      </trkpt>
      <trkpt lat="43.66702" lon="6.80962">
        <ele>557</ele>
        <time>2021-05-02T08:14:05.000Z</time>
      </trkpt>
      <trkpt lat="43.667" lon="6.80963">
        <ele>557.4</ele>
        <time>2021-05-02T08:14:06.000Z</time>
      </trkpt>
      <trkpt lat="43.66698" lon="6.80964">
        <ele>557.7</ele>
        <time>2021-05-02T08:14:07.000Z</time>
      </trkpt>
      <trkpt lat="43.66696" lon="6.80964">
        <ele>558</ele>
        <time>2021-05-02T08:14:08.000Z</time>
      </trkpt>
      <trkpt lat="43.66694" lon="6.80964">
        <ele>558.3</ele>
        <time>2021-05-02T08:14:09.000Z</time>
      </trkpt>
      <trkpt lat="43.66692" lon="6.80964">
        <ele>558.5</ele>
        <time>2021-05-02T08:14:10.000Z</time>
      </trkpt>
      <trkpt lat="43.66689" lon="6.80965">
        <ele>558.9</ele>
        <time>2021-05-02T08:14:11.000Z</time>
      </trkpt>
      <trkpt lat="43.66687" lon="6.80965">
        <ele>559.3</ele>
        <time>2021-05-02T08:14:12.000Z</time>
      </trkpt>
      <trkpt lat="43.66685" lon="6.80967">
        <ele>559.9</ele>
        <time>2021-05-02T08:14:13.000Z</time>
      </trkpt>
      <trkpt lat="43.66683" lon="6.80969">
        <ele>560.5</ele>
        <time>2021-05-02T08:14:14.000Z</time>
      </trkpt>
      <trkpt lat="43.66682" lon="6.80971">
        <ele>561</ele>
        <time>2021-05-02T08:14:15.000Z</time>
      </trkpt>
      <trkpt lat="43.6668" lon="6.80974">
        <ele>560.9</ele>
        <time>2021-05-02T08:14:16.000Z</time>
      </trkpt>
      <trkpt lat="43.66678" lon="6.80976">
        <ele>561.3</ele>
        <time>2021-05-02T08:14:17.000Z</time>
      </trkpt>
      <trkpt lat="43.66676" lon="6.80978">
        <ele>561.6</ele>
        <time>2021-05-02T08:14:18.000Z</time>
      </trkpt>
      <trkpt lat="43.66674" lon="6.8098">
        <ele>561.9</ele>
        <time>2021-05-02T08:14:19.000Z</time>
      </trkpt>
      <trkpt lat="43.66673" lon="6.80982">
        <ele>561.9</ele>
        <time>2021-05-02T08:14:20.000Z</time>
      </trkpt>
      <trkpt lat="43.66671" lon="6.80983">
        <ele>562.1</ele>
        <time>2021-05-02T08:14:21.000Z</time>
      </trkpt>
      <trkpt lat="43.66669" lon="6.80985">
        <ele>562.3</ele>
        <time>2021-05-02T08:14:22.000Z</time>
      </trkpt>
      <trkpt lat="43.66668" lon="6.80988">
        <ele>562.2</ele>
        <time>2021-05-02T08:14:23.000Z</time>
      </trkpt>
      <trkpt lat="43.66667" lon="6.8099">
        <ele>562.2</ele>
        <time>2021-05-02T08:14:24.000Z</time>
      </trkpt>
      <trkpt lat="43.66666" lon="6.80993">
        <ele>561.9</ele>
        <time>2021-05-02T08:14:25.000Z</time>
      </trkpt>
      <trkpt lat="43.66665" lon="6.80995">
        <ele>561.9</ele>
        <time>2021-05-02T08:14:26.000Z</time>
      </trkpt>
      <trkpt lat="43.66665" lon="6.80996">
        <ele>562.1</ele>
        <time>2021-05-02T08:14:27.000Z</time>
      </trkpt>
      <trkpt lat="43.66664" lon="6.80999">
        <ele>562.1</ele>
        <time>2021-05-02T08:14:28.000Z</time>
      </trkpt>
      <trkpt lat="43.66664" lon="6.81001">
        <ele>562.4</ele>
        <time>2021-05-02T08:14:29.000Z</time>
      </trkpt>
      <trkpt lat="43.66664" lon="6.81004">
        <ele>562.7</ele>
        <time>2021-05-02T08:14:30.000Z</time>
      </trkpt>
      <trkpt lat="43.66664" lon="6.81006">
        <ele>563</ele>
        <time>2021-05-02T08:14:31.000Z</time>
      </trkpt>
      <trkpt lat="43.66664" lon="6.81008">
        <ele>563.2</ele>
        <time>2021-05-02T08:14:32.000Z</time>
      </trkpt>
      <trkpt lat="43.66664" lon="6.81011">
        <ele>563.3</ele>
        <time>2021-05-02T08:14:33.000Z</time>
      </trkpt>
      <trkpt lat="43.66664" lon="6.81013">
        <ele>563.4</ele>
        <time>2021-05-02T08:14:34.000Z</time>
      </trkpt>
      <trkpt lat="43.66663" lon="6.81015">
        <ele>563.8</ele>
        <time>2021-05-02T08:14:35.000Z</time>
      </trkpt>
      <trkpt lat="43.66662" lon="6.81016">
        <ele>564</ele>
        <time>2021-05-02T08:14:36.000Z</time>
      </trkpt>
      <trkpt lat="43.66661" lon="6.81018">
        <ele>564.3</ele>
        <time>2021-05-02T08:14:37.000Z</time>
      </trkpt>
      <trkpt lat="43.6666" lon="6.81019">
        <ele>564.4</ele>
        <time>2021-05-02T08:14:38.000Z</time>
      </trkpt>
      <trkpt lat="43.66659" lon="6.81021">
        <ele>564.4</ele>
        <time>2021-05-02T08:14:39.000Z</time>
      </trkpt>
      <trkpt lat="43.66657" lon="6.81021">
        <ele>565.2</ele>
        <time>2021-05-02T08:14:41.000Z</time>
      </trkpt>
      <trkpt lat="43.66656" lon="6.81022">
        <ele>566</ele>
        <time>2021-05-02T08:14:43.000Z</time>
      </trkpt>
      <trkpt lat="43.66655" lon="6.81022">
        <ele>566.4</ele>
        <time>2021-05-02T08:14:44.000Z</time>
      </trkpt>
      <trkpt lat="43.66653" lon="6.81023">
        <ele>566.7</ele>
        <time>2021-05-02T08:14:45.000Z</time>
      </trkpt>
      <trkpt lat="43.66652" lon="6.81024">
        <ele>567.7</ele>
        <time>2021-05-02T08:14:46.000Z</time>
      </trkpt>
      <trkpt lat="43.66652" lon="6.81025">
        <ele>568.2</ele>
        <time>2021-05-02T08:14:47.000Z</time>
      </trkpt>
      <trkpt lat="43.66651" lon="6.81027">
        <ele>568.8</ele>
        <time>2021-05-02T08:14:48.000Z</time>
      </trkpt>
      <trkpt lat="43.66651" lon="6.81028">
        <ele>569.3</ele>
        <time>2021-05-02T08:14:49.000Z</time>
      </trkpt>
      <trkpt lat="43.6665" lon="6.81029">
        <ele>569.8</ele>
        <time>2021-05-02T08:14:50.000Z</time>
      </trkpt>
      <trkpt lat="43.6665" lon="6.81037">
        <ele>570.5</ele>
        <time>2021-05-02T08:15:04.000Z</time>
      </trkpt>
      <trkpt lat="43.6665" lon="6.8104">
        <ele>570.5</ele>
        <time>2021-05-02T08:15:05.000Z</time>
      </trkpt>
      <trkpt lat="43.6665" lon="6.81042">
        <ele>570.5</ele>
        <time>2021-05-02T08:15:06.000Z</time>
      </trkpt>
      <trkpt lat="43.6665" lon="6.81044">
        <ele>570.6</ele>
        <time>2021-05-02T08:15:07.000Z</time>
      </trkpt>
      <trkpt lat="43.6665" lon="6.81047">
        <ele>570.7</ele>
        <time>2021-05-02T08:15:08.000Z</time>
      </trkpt>
      <trkpt lat="43.66649" lon="6.8105">
        <ele>570.7</ele>
        <time>2021-05-02T08:15:09.000Z</time>
      </trkpt>
      <trkpt lat="43.66649" lon="6.81052">
        <ele>570.8</ele>
        <time>2021-05-02T08:15:10.000Z</time>
      </trkpt>
      <trkpt lat="43.66649" lon="6.81054">
        <ele>570.9</ele>
        <time>2021-05-02T08:15:11.000Z</time>
      </trkpt>
      <trkpt lat="43.66649" lon="6.81056">
        <ele>571</ele>
        <time>2021-05-02T08:15:12.000Z</time>
      </trkpt>
      <trkpt lat="43.66648" lon="6.81059">
        <ele>571.1</ele>
        <time>2021-05-02T08:15:13.000Z</time>
      </trkpt>
      <trkpt lat="43.66648" lon="6.81062">
        <ele>571.2</ele>
        <time>2021-05-02T08:15:14.000Z</time>
      </trkpt>
      <trkpt lat="43.66648" lon="6.81064">
        <ele>571.3</ele>
        <time>2021-05-02T08:15:15.000Z</time>
      </trkpt>
      <trkpt lat="43.66648" lon="6.81066">
        <ele>571.6</ele>
        <time>2021-05-02T08:15:16.000Z</time>
      </trkpt>
      <trkpt lat="43.66648" lon="6.81069">
        <ele>572</ele>
        <time>2021-05-02T08:15:17.000Z</time>
      </trkpt>
      <trkpt lat="43.66648" lon="6.81071">
        <ele>572.3</ele>
        <time>2021-05-02T08:15:18.000Z</time>
      </trkpt>
      <trkpt lat="43.66647" lon="6.81074">
        <ele>572.6</ele>
        <time>2021-05-02T08:15:19.000Z</time>
      </trkpt>
      <trkpt lat="43.66648" lon="6.81076">
        <ele>573</ele>
        <time>2021-05-02T08:15:20.000Z</time>
      </trkpt>
      <trkpt lat="43.66648" lon="6.81078">
        <ele>573.4</ele>
        <time>2021-05-02T08:15:21.000Z</time>
      </trkpt>
      <trkpt lat="43.66649" lon="6.8108">
        <ele>573.8</ele>
        <time>2021-05-02T08:15:22.000Z</time>
      </trkpt>
      <trkpt lat="43.66649" lon="6.81081">
        <ele>574.2</ele>
        <time>2021-05-02T08:15:23.000Z</time>
      </trkpt>
      <trkpt lat="43.6665" lon="6.81083">
        <ele>574.5</ele>
        <time>2021-05-02T08:15:24.000Z</time>
      </trkpt>
      <trkpt lat="43.6665" lon="6.81086">
        <ele>574.7</ele>
        <time>2021-05-02T08:15:25.000Z</time>
      </trkpt>
      <trkpt lat="43.66651" lon="6.81088">
        <ele>574.8</ele>
        <time>2021-05-02T08:15:26.000Z</time>
      </trkpt>
      <trkpt lat="43.66652" lon="6.8109">
        <ele>575.1</ele>
        <time>2021-05-02T08:15:27.000Z</time>
      </trkpt>
      <trkpt lat="43.66652" lon="6.81092">
        <ele>575.2</ele>
        <time>2021-05-02T08:15:28.000Z</time>
      </trkpt>
      <trkpt lat="43.66653" lon="6.81095">
        <ele>575.5</ele>
        <time>2021-05-02T08:15:29.000Z</time>
      </trkpt>
      <trkpt lat="43.66653" lon="6.81098">
        <ele>575.7</ele>
        <time>2021-05-02T08:15:30.000Z</time>
      </trkpt>
      <trkpt lat="43.66654" lon="6.811">
        <ele>576.1</ele>
        <time>2021-05-02T08:15:31.000Z</time>
      </trkpt>
      <trkpt lat="43.66654" lon="6.81102">
        <ele>576.5</ele>
        <time>2021-05-02T08:15:32.000Z</time>
      </trkpt>
      <trkpt lat="43.66654" lon="6.81105">
        <ele>576.8</ele>
        <time>2021-05-02T08:15:33.000Z</time>
      </trkpt>
      <trkpt lat="43.66655" lon="6.81107">
        <ele>577.2</ele>
        <time>2021-05-02T08:15:34.000Z</time>
      </trkpt>
      <trkpt lat="43.66655" lon="6.81109">
        <ele>577.5</ele>
        <time>2021-05-02T08:15:35.000Z</time>
      </trkpt>
      <trkpt lat="43.66655" lon="6.81112">
        <ele>577.9</ele>
        <time>2021-05-02T08:15:36.000Z</time>
      </trkpt>
      <trkpt lat="43.66655" lon="6.81115">
        <ele>578.2</ele>
        <time>2021-05-02T08:15:37.000Z</time>
      </trkpt>
      <trkpt lat="43.66655" lon="6.81118">
        <ele>578.5</ele>
        <time>2021-05-02T08:15:38.000Z</time>
      </trkpt>
      <trkpt lat="43.66655" lon="6.8112">
        <ele>578.6</ele>
        <time>2021-05-02T08:15:39.000Z</time>
      </trkpt>
      <trkpt lat="43.66656" lon="6.81122">
        <ele>578.8</ele>
        <time>2021-05-02T08:15:40.000Z</time>
      </trkpt>
      <trkpt lat="43.66656" lon="6.81125">
        <ele>579</ele>
        <time>2021-05-02T08:15:41.000Z</time>
      </trkpt>
      <trkpt lat="43.66656" lon="6.81127">
        <ele>579.2</ele>
        <time>2021-05-02T08:15:42.000Z</time>
      </trkpt>
      <trkpt lat="43.66656" lon="6.81129">
        <ele>579.4</ele>
        <time>2021-05-02T08:15:43.000Z</time>
      </trkpt>
      <trkpt lat="43.66656" lon="6.81131">
        <ele>579.6</ele>
        <time>2021-05-02T08:15:44.000Z</time>
      </trkpt>
      <trkpt lat="43.66656" lon="6.81133">
        <ele>579.7</ele>
        <time>2021-05-02T08:15:45.000Z</time>
      </trkpt>
      <trkpt lat="43.66656" lon="6.81135">
        <ele>580.1</ele>
        <time>2021-05-02T08:15:46.000Z</time>
      </trkpt>
      <trkpt lat="43.66656" lon="6.81137">
        <ele>580.2</ele>
        <time>2021-05-02T08:15:47.000Z</time>
      </trkpt>
      <trkpt lat="43.66656" lon="6.81139">
        <ele>580.7</ele>
        <time>2021-05-02T08:15:48.000Z</time>
      </trkpt>
      <trkpt lat="43.66656" lon="6.81141">
        <ele>581.1</ele>
        <time>2021-05-02T08:15:49.000Z</time>
      </trkpt>
      <trkpt lat="43.66656" lon="6.81142">
        <ele>581.2</ele>
        <time>2021-05-02T08:15:50.000Z</time>
      </trkpt>
      <trkpt lat="43.66655" lon="6.81144">
        <ele>581.4</ele>
        <time>2021-05-02T08:15:51.000Z</time>
      </trkpt>
      <trkpt lat="43.66656" lon="6.81146">
        <ele>581.8</ele>
        <time>2021-05-02T08:15:53.000Z</time>
      </trkpt>
      <trkpt lat="43.66651" lon="6.81157">
        <ele>581.4</ele>
        <time>2021-05-02T08:16:12.000Z</time>
      </trkpt>
      <trkpt lat="43.6665" lon="6.81158">
        <ele>581.5</ele>
        <time>2021-05-02T08:16:13.000Z</time>
      </trkpt>
      <trkpt lat="43.6665" lon="6.81159">
        <ele>581.5</ele>
        <time>2021-05-02T08:16:14.000Z</time>
      </trkpt>
      <trkpt lat="43.66642" lon="6.81164">
        <ele>582.1</ele>
        <time>2021-05-02T08:16:35.000Z</time>
      </trkpt>
      <trkpt lat="43.66642" lon="6.81165">
        <ele>582.2</ele>
        <time>2021-05-02T08:16:36.000Z</time>
      </trkpt>
      <trkpt lat="43.66641" lon="6.81166">
        <ele>582.3</ele>
        <time>2021-05-02T08:16:37.000Z</time>
      </trkpt>
      <trkpt lat="43.66641" lon="6.81168">
        <ele>582.4</ele>
        <time>2021-05-02T08:16:38.000Z</time>
      </trkpt>
      <trkpt lat="43.6664" lon="6.81169">
        <ele>582.6</ele>
        <time>2021-05-02T08:16:39.000Z</time>
      </trkpt>
      <trkpt lat="43.66641" lon="6.81171">
        <ele>582.7</ele>
        <time>2021-05-02T08:16:40.000Z</time>
      </trkpt>
      <trkpt lat="43.66641" lon="6.81173">
        <ele>582.9</ele>
        <time>2021-05-02T08:16:41.000Z</time>
      </trkpt>
      <trkpt lat="43.66641" lon="6.81174">
        <ele>583.1</ele>
        <time>2021-05-02T08:16:42.000Z</time>
      </trkpt>
      <trkpt lat="43.66641" lon="6.81176">
        <ele>583.2</ele>
        <time>2021-05-02T08:16:43.000Z</time>
      </trkpt>
      <trkpt lat="43.66641" lon="6.81178">
        <ele>583.6</ele>
        <time>2021-05-02T08:16:45.000Z</time>
      </trkpt>
      <trkpt lat="43.66637" lon="6.8119">
        <ele>585.7</ele>
        <time>2021-05-02T08:16:58.000Z</time>
      </trkpt>
      <trkpt lat="43.66636" lon="6.81191">
        <ele>586.1</ele>
        <time>2021-05-02T08:17:00.000Z</time>
      </trkpt>
      <trkpt lat="43.66628" lon="6.81199">
        <ele>587.1</ele>
        <time>2021-05-02T08:17:19.000Z</time>
      </trkpt>
      <trkpt lat="43.66626" lon="6.81199">
        <ele>587.1</ele>
        <time>2021-05-02T08:17:21.000Z</time>
      </trkpt>
      <trkpt lat="43.66623" lon="6.812">
        <ele>587.4</ele>
        <time>2021-05-02T08:17:24.000Z</time>
      </trkpt>
      <trkpt lat="43.66622" lon="6.81202">
        <ele>587.5</ele>
        <time>2021-05-02T08:17:25.000Z</time>
      </trkpt>
      <trkpt lat="43.66621" lon="6.81202">
        <ele>587.6</ele>
        <time>2021-05-02T08:17:26.000Z</time>
      </trkpt>
      <trkpt lat="43.6662" lon="6.81204">
        <ele>587.7</ele>
        <time>2021-05-02T08:17:27.000Z</time>
      </trkpt>
      <trkpt lat="43.66619" lon="6.81205">
        <ele>587.7</ele>
        <time>2021-05-02T08:17:28.000Z</time>
      </trkpt>
      <trkpt lat="43.66618" lon="6.81205">
        <ele>587.8</ele>
        <time>2021-05-02T08:17:29.000Z</time>
      </trkpt>
      <trkpt lat="43.66616" lon="6.81205">
        <ele>588.1</ele>
        <time>2021-05-02T08:17:31.000Z</time>
      </trkpt>
      <trkpt lat="43.66615" lon="6.81205">
        <ele>588.2</ele>
        <time>2021-05-02T08:17:32.000Z</time>
      </trkpt>
      <trkpt lat="43.66614" lon="6.81204">
        <ele>588.4</ele>
        <time>2021-05-02T08:17:33.000Z</time>
      </trkpt>
      <trkpt lat="43.66613" lon="6.81204">
        <ele>588.7</ele>
        <time>2021-05-02T08:17:34.000Z</time>
      </trkpt>
      <trkpt lat="43.66612" lon="6.81204">
        <ele>588.6</ele>
        <time>2021-05-02T08:17:35.000Z</time>
      </trkpt>
      <trkpt lat="43.6661" lon="6.81204">
        <ele>588.8</ele>
        <time>2021-05-02T08:17:37.000Z</time>
      </trkpt>
      <trkpt lat="43.66601" lon="6.81198">
        <ele>590.9</ele>
        <time>2021-05-02T08:17:49.000Z</time>
      </trkpt>
      <trkpt lat="43.666" lon="6.81198">
        <ele>590.9</ele>
        <time>2021-05-02T08:17:50.000Z</time>
      </trkpt>
      <trkpt lat="43.66598" lon="6.81198">
        <ele>591.2</ele>
        <time>2021-05-02T08:17:51.000Z</time>
      </trkpt>
      <trkpt lat="43.66596" lon="6.81198">
        <ele>591.6</ele>
        <time>2021-05-02T08:17:52.000Z</time>
      </trkpt>
      <trkpt lat="43.66593" lon="6.81198">
        <ele>592.4</ele>
        <time>2021-05-02T08:17:53.000Z</time>
      </trkpt>
      <trkpt lat="43.66592" lon="6.81198">
        <ele>593.2</ele>
        <time>2021-05-02T08:17:54.000Z</time>
      </trkpt>
      <trkpt lat="43.6659" lon="6.81198">
        <ele>593.7</ele>
        <time>2021-05-02T08:17:55.000Z</time>
      </trkpt>
      <trkpt lat="43.66589" lon="6.81198">
        <ele>594.3</ele>
        <time>2021-05-02T08:17:57.000Z</time>
      </trkpt>
      <trkpt lat="43.66581" lon="6.81197">
        <ele>595.9</ele>
        <time>2021-05-02T08:18:02.000Z</time>
      </trkpt>
      <trkpt lat="43.6658" lon="6.81197">
        <ele>596.2</ele>
        <time>2021-05-02T08:18:03.000Z</time>
      </trkpt>
      <trkpt lat="43.66578" lon="6.81196">
        <ele>596.4</ele>
        <time>2021-05-02T08:18:04.000Z</time>
      </trkpt>
      <trkpt lat="43.66577" lon="6.81197">
        <ele>596.6</ele>
        <time>2021-05-02T08:18:05.000Z</time>
      </trkpt>
      <trkpt lat="43.66576" lon="6.81197">
        <ele>597</ele>
        <time>2021-05-02T08:18:07.000Z</time>
      </trkpt>
      <trkpt lat="43.66575" lon="6.81198">
        <ele>597.3</ele>
        <time>2021-05-02T08:18:08.000Z</time>
      </trkpt>
      <trkpt lat="43.66571" lon="6.81202">
        <ele>598.1</ele>
        <time>2021-05-02T08:18:11.000Z</time>
      </trkpt>
      <trkpt lat="43.66569" lon="6.81204">
        <ele>598.5</ele>
        <time>2021-05-02T08:18:12.000Z</time>
      </trkpt>
      <trkpt lat="43.66568" lon="6.81206">
        <ele>598.7</ele>
        <time>2021-05-02T08:18:13.000Z</time>
      </trkpt>
      <trkpt lat="43.66567" lon="6.81208">
        <ele>599</ele>
        <time>2021-05-02T08:18:14.000Z</time>
      </trkpt>
      <trkpt lat="43.66566" lon="6.81209">
        <ele>599.1</ele>
        <time>2021-05-02T08:18:15.000Z</time>
      </trkpt>
      <trkpt lat="43.66565" lon="6.8121">
        <ele>599.2</ele>
        <time>2021-05-02T08:18:17.000Z</time>
      </trkpt>
      <trkpt lat="43.66557" lon="6.81217">
        <ele>599.7</ele>
        <time>2021-05-02T08:18:39.000Z</time>
      </trkpt>
      <trkpt lat="43.66555" lon="6.81217">
        <ele>599.6</ele>
        <time>2021-05-02T08:18:41.000Z</time>
      </trkpt>
      <trkpt lat="43.66546" lon="6.81222">
        <ele>598.9</ele>
        <time>2021-05-02T08:19:08.000Z</time>
      </trkpt>
      <trkpt lat="43.66546" lon="6.81223">
        <ele>598.8</ele>
        <time>2021-05-02T08:19:10.000Z</time>
      </trkpt>
      <trkpt lat="43.66545" lon="6.81224">
        <ele>598.7</ele>
        <time>2021-05-02T08:19:11.000Z</time>
      </trkpt>
      <trkpt lat="43.66537" lon="6.8123">
        <ele>598.1</ele>
        <time>2021-05-02T08:19:25.000Z</time>
      </trkpt>
      <trkpt lat="43.66535" lon="6.81231">
        <ele>597.8</ele>
        <time>2021-05-02T08:19:27.000Z</time>
      </trkpt>
      <trkpt lat="43.66526" lon="6.81232">
        <ele>596.7</ele>
        <time>2021-05-02T08:19:42.000Z</time>
      </trkpt>
      <trkpt lat="43.66521" lon="6.81233">
        <ele>596.7</ele>
        <time>2021-05-02T08:19:51.000Z</time>
      </trkpt>
      <trkpt lat="43.66519" lon="6.81233">
        <ele>596.7</ele>
        <time>2021-05-02T08:19:52.000Z</time>
      </trkpt>
      <trkpt lat="43.66518" lon="6.81234">
        <ele>596.7</ele>
        <time>2021-05-02T08:19:53.000Z</time>
      </trkpt>
      <trkpt lat="43.66516" lon="6.81234">
        <ele>596.8</ele>
        <time>2021-05-02T08:19:54.000Z</time>
      </trkpt>
      <trkpt lat="43.66515" lon="6.81235">
        <ele>596.8</ele>
        <time>2021-05-02T08:19:55.000Z</time>
      </trkpt>
      <trkpt lat="43.66513" lon="6.81235">
        <ele>596.9</ele>
        <time>2021-05-02T08:19:56.000Z</time>
      </trkpt>
      <trkpt lat="43.66512" lon="6.81236">
        <ele>597</ele>
        <time>2021-05-02T08:19:57.000Z</time>
      </trkpt>
      <trkpt lat="43.6651" lon="6.81237">
        <ele>597.1</ele>
        <time>2021-05-02T08:19:58.000Z</time>
      </trkpt>
      <trkpt lat="43.66509" lon="6.81239">
        <ele>597.1</ele>
        <time>2021-05-02T08:19:59.000Z</time>
      </trkpt>
      <trkpt lat="43.66507" lon="6.8124">
        <ele>597.1</ele>
        <time>2021-05-02T08:20:00.000Z</time>
      </trkpt>
      <trkpt lat="43.66506" lon="6.81241">
        <ele>597.4</ele>
        <time>2021-05-02T08:20:01.000Z</time>
      </trkpt>
      <trkpt lat="43.66504" lon="6.81242">
        <ele>597.8</ele>
        <time>2021-05-02T08:20:02.000Z</time>
      </trkpt>
      <trkpt lat="43.66503" lon="6.81243">
        <ele>598.1</ele>
        <time>2021-05-02T08:20:03.000Z</time>
      </trkpt>
      <trkpt lat="43.66501" lon="6.81244">
        <ele>598.3</ele>
        <time>2021-05-02T08:20:04.000Z</time>
      </trkpt>
      <trkpt lat="43.66499" lon="6.81245">
        <ele>598.5</ele>
        <time>2021-05-02T08:20:05.000Z</time>
      </trkpt>
      <trkpt lat="43.66498" lon="6.81245">
        <ele>598.7</ele>
        <time>2021-05-02T08:20:06.000Z</time>
      </trkpt>
      <trkpt lat="43.66496" lon="6.81247">
        <ele>599.1</ele>
        <time>2021-05-02T08:20:07.000Z</time>
      </trkpt>
      <trkpt lat="43.66495" lon="6.81248">
        <ele>599.3</ele>
        <time>2021-05-02T08:20:08.000Z</time>
      </trkpt>
      <trkpt lat="43.66493" lon="6.81249">
        <ele>599.5</ele>
        <time>2021-05-02T08:20:09.000Z</time>
      </trkpt>
      <trkpt lat="43.66492" lon="6.8125">
        <ele>599.8</ele>
        <time>2021-05-02T08:20:10.000Z</time>
      </trkpt>
      <trkpt lat="43.66491" lon="6.81251">
        <ele>600.2</ele>
        <time>2021-05-02T08:20:11.000Z</time>
      </trkpt>
      <trkpt lat="43.66489" lon="6.81252">
        <ele>600.5</ele>
        <time>2021-05-02T08:20:12.000Z</time>
      </trkpt>
      <trkpt lat="43.66488" lon="6.81253">
        <ele>601</ele>
        <time>2021-05-02T08:20:13.000Z</time>
      </trkpt>
      <trkpt lat="43.66486" lon="6.81254">
        <ele>601.2</ele>
        <time>2021-05-02T08:20:14.000Z</time>
      </trkpt>
      <trkpt lat="43.66485" lon="6.81255">
        <ele>601.6</ele>
        <time>2021-05-02T08:20:15.000Z</time>
      </trkpt>
      <trkpt lat="43.66483" lon="6.81257">
        <ele>602.2</ele>
        <time>2021-05-02T08:20:16.000Z</time>
      </trkpt>
      <trkpt lat="43.66482" lon="6.81258">
        <ele>602.7</ele>
        <time>2021-05-02T08:20:17.000Z</time>
      </trkpt>
      <trkpt lat="43.6648" lon="6.8126">
        <ele>602.9</ele>
        <time>2021-05-02T08:20:18.000Z</time>
      </trkpt>
      <trkpt lat="43.66478" lon="6.81261">
        <ele>603.1</ele>
        <time>2021-05-02T08:20:19.000Z</time>
      </trkpt>
      <trkpt lat="43.66477" lon="6.81263">
        <ele>603.3</ele>
        <time>2021-05-02T08:20:20.000Z</time>
      </trkpt>
      <trkpt lat="43.66475" lon="6.81264">
        <ele>603.3</ele>
        <time>2021-05-02T08:20:21.000Z</time>
      </trkpt>
      <trkpt lat="43.66474" lon="6.81266">
        <ele>603.6</ele>
        <time>2021-05-02T08:20:22.000Z</time>
      </trkpt>
      <trkpt lat="43.66473" lon="6.81267">
        <ele>603.9</ele>
        <time>2021-05-02T08:20:23.000Z</time>
      </trkpt>
      <trkpt lat="43.66471" lon="6.81268">
        <ele>604.5</ele>
        <time>2021-05-02T08:20:24.000Z</time>
      </trkpt>
      <trkpt lat="43.6647" lon="6.8127">
        <ele>604.9</ele>
        <time>2021-05-02T08:20:25.000Z</time>
      </trkpt>
      <trkpt lat="43.66469" lon="6.81271">
        <ele>605.4</ele>
        <time>2021-05-02T08:20:26.000Z</time>
      </trkpt>
      <trkpt lat="43.66468" lon="6.81272">
        <ele>605.7</ele>
        <time>2021-05-02T08:20:27.000Z</time>
      </trkpt>
      <trkpt lat="43.66467" lon="6.81274">
        <ele>606</ele>
        <time>2021-05-02T08:20:28.000Z</time>
      </trkpt>
      <trkpt lat="43.66466" lon="6.81275">
        <ele>606.2</ele>
        <time>2021-05-02T08:20:29.000Z</time>
      </trkpt>
      <trkpt lat="43.66465" lon="6.81277">
        <ele>606.2</ele>
        <time>2021-05-02T08:20:30.000Z</time>
      </trkpt>
      <trkpt lat="43.66464" lon="6.81279">
        <ele>606.4</ele>
        <time>2021-05-02T08:20:31.000Z</time>
      </trkpt>
      <trkpt lat="43.66463" lon="6.8128">
        <ele>606.8</ele>
        <time>2021-05-02T08:20:32.000Z</time>
      </trkpt>
      <trkpt lat="43.66461" lon="6.81281">
        <ele>606.8</ele>
        <time>2021-05-02T08:20:33.000Z</time>
      </trkpt>
      <trkpt lat="43.6646" lon="6.81283">
        <ele>607.1</ele>
        <time>2021-05-02T08:20:34.000Z</time>
      </trkpt>
      <trkpt lat="43.66459" lon="6.81285">
        <ele>607.3</ele>
        <time>2021-05-02T08:20:35.000Z</time>
      </trkpt>
      <trkpt lat="43.66458" lon="6.81287">
        <ele>607.6</ele>
        <time>2021-05-02T08:20:36.000Z</time>
      </trkpt>
      <trkpt lat="43.66457" lon="6.81289">
        <ele>607.8</ele>
        <time>2021-05-02T08:20:37.000Z</time>
      </trkpt>
      <trkpt lat="43.66456" lon="6.81291">
        <ele>608.3</ele>
        <time>2021-05-02T08:20:38.000Z</time>
      </trkpt>
      <trkpt lat="43.66455" lon="6.81293">
        <ele>608.6</ele>
        <time>2021-05-02T08:20:39.000Z</time>
      </trkpt>
      <trkpt lat="43.66453" lon="6.81294">
        <ele>608.8</ele>
        <time>2021-05-02T08:20:40.000Z</time>
      </trkpt>
      <trkpt lat="43.66452" lon="6.81296">
        <ele>609</ele>
        <time>2021-05-02T08:20:41.000Z</time>
      </trkpt>
      <trkpt lat="43.66451" lon="6.81298">
        <ele>609.2</ele>
        <time>2021-05-02T08:20:42.000Z</time>
      </trkpt>
      <trkpt lat="43.6645" lon="6.813">
        <ele>609.4</ele>
        <time>2021-05-02T08:20:43.000Z</time>
      </trkpt>
      <trkpt lat="43.6645" lon="6.81303">
        <ele>609.8</ele>
        <time>2021-05-02T08:20:44.000Z</time>
      </trkpt>
      <trkpt lat="43.6645" lon="6.81305">
        <ele>609.9</ele>
        <time>2021-05-02T08:20:45.000Z</time>
      </trkpt>
      <trkpt lat="43.66449" lon="6.81308">
        <ele>609.9</ele>
        <time>2021-05-02T08:20:46.000Z</time>
      </trkpt>
      <trkpt lat="43.66449" lon="6.8131">
        <ele>610.2</ele>
        <time>2021-05-02T08:20:47.000Z</time>
      </trkpt>
      <trkpt lat="43.66448" lon="6.81312">
        <ele>610.4</ele>
        <time>2021-05-02T08:20:48.000Z</time>
      </trkpt>
      <trkpt lat="43.66447" lon="6.81314">
        <ele>610.7</ele>
        <time>2021-05-02T08:20:49.000Z</time>
      </trkpt>
      <trkpt lat="43.66447" lon="6.81316">
        <ele>611.1</ele>
        <time>2021-05-02T08:20:50.000Z</time>
      </trkpt>
      <trkpt lat="43.66446" lon="6.81318">
        <ele>611.3</ele>
        <time>2021-05-02T08:20:51.000Z</time>
      </trkpt>
      <trkpt lat="43.66444" lon="6.81319">
        <ele>611.7</ele>
        <time>2021-05-02T08:20:52.000Z</time>
      </trkpt>
      <trkpt lat="43.66443" lon="6.81321">
        <ele>611.8</ele>
        <time>2021-05-02T08:20:53.000Z</time>
      </trkpt>
      <trkpt lat="43.66443" lon="6.81323">
        <ele>612</ele>
        <time>2021-05-02T08:20:54.000Z</time>
      </trkpt>
      <trkpt lat="43.66443" lon="6.81325">
        <ele>612.3</ele>
        <time>2021-05-02T08:20:55.000Z</time>
      </trkpt>
      <trkpt lat="43.66442" lon="6.81327">
        <ele>612.5</ele>
        <time>2021-05-02T08:20:56.000Z</time>
      </trkpt>
      <trkpt lat="43.66442" lon="6.81329">
        <ele>612.7</ele>
        <time>2021-05-02T08:20:57.000Z</time>
      </trkpt>
      <trkpt lat="43.66441" lon="6.81331">
        <ele>612.8</ele>
        <time>2021-05-02T08:20:58.000Z</time>
      </trkpt>
      <trkpt lat="43.6644" lon="6.81333">
        <ele>612.9</ele>
        <time>2021-05-02T08:20:59.000Z</time>
      </trkpt>
      <trkpt lat="43.66439" lon="6.81335">
        <ele>613</ele>
        <time>2021-05-02T08:21:00.000Z</time>
      </trkpt>
      <trkpt lat="43.66438" lon="6.81336">
        <ele>613.2</ele>
        <time>2021-05-02T08:21:01.000Z</time>
      </trkpt>
      <trkpt lat="43.66437" lon="6.81338">
        <ele>613.4</ele>
        <time>2021-05-02T08:21:02.000Z</time>
      </trkpt>
      <trkpt lat="43.66435" lon="6.8134">
        <ele>613.8</ele>
        <time>2021-05-02T08:21:03.000Z</time>
      </trkpt>
      <trkpt lat="43.66434" lon="6.81342">
        <ele>614.1</ele>
        <time>2021-05-02T08:21:04.000Z</time>
      </trkpt>
      <trkpt lat="43.66433" lon="6.81344">
        <ele>614.2</ele>
        <time>2021-05-02T08:21:05.000Z</time>
      </trkpt>
      <trkpt lat="43.66432" lon="6.81346">
        <ele>614.4</ele>
        <time>2021-05-02T08:21:06.000Z</time>
      </trkpt>
      <trkpt lat="43.66431" lon="6.81348">
        <ele>614.6</ele>
        <time>2021-05-02T08:21:07.000Z</time>
      </trkpt>
      <trkpt lat="43.66431" lon="6.8135">
        <ele>614.8</ele>
        <time>2021-05-02T08:21:08.000Z</time>
      </trkpt>
      <trkpt lat="43.66432" lon="6.81351">
        <ele>615.1</ele>
        <time>2021-05-02T08:21:09.000Z</time>
      </trkpt>
      <trkpt lat="43.66432" lon="6.81353">
        <ele>615.3</ele>
        <time>2021-05-02T08:21:10.000Z</time>
      </trkpt>
      <trkpt lat="43.66432" lon="6.81355">
        <ele>615.7</ele>
        <time>2021-05-02T08:21:11.000Z</time>
      </trkpt>
      <trkpt lat="43.66433" lon="6.81356">
        <ele>616.4</ele>
        <time>2021-05-02T08:21:13.000Z</time>
      </trkpt>
      <trkpt lat="43.66441" lon="6.81364">
        <ele>618.6</ele>
        <time>2021-05-02T08:21:31.000Z</time>
      </trkpt>
      <trkpt lat="43.66441" lon="6.81366">
        <ele>618.7</ele>
        <time>2021-05-02T08:21:32.000Z</time>
      </trkpt>
      <trkpt lat="43.66441" lon="6.81368">
        <ele>618.9</ele>
        <time>2021-05-02T08:21:33.000Z</time>
      </trkpt>
      <trkpt lat="43.66442" lon="6.81375">
        <ele>619.4</ele>
        <time>2021-05-02T08:21:38.000Z</time>
      </trkpt>
      <trkpt lat="43.66442" lon="6.81377">
        <ele>619.5</ele>
        <time>2021-05-02T08:21:39.000Z</time>
      </trkpt>
      <trkpt lat="43.66443" lon="6.81379">
        <ele>619.7</ele>
        <time>2021-05-02T08:21:40.000Z</time>
      </trkpt>
      <trkpt lat="43.66443" lon="6.8138">
        <ele>619.8</ele>
        <time>2021-05-02T08:21:41.000Z</time>
      </trkpt>
      <trkpt lat="43.66444" lon="6.81382">
        <ele>619.8</ele>
        <time>2021-05-02T08:21:42.000Z</time>
      </trkpt>
      <trkpt lat="43.66445" lon="6.81383">
        <ele>620</ele>
        <time>2021-05-02T08:21:43.000Z</time>
      </trkpt>
      <trkpt lat="43.66445" lon="6.81385">
        <ele>620.1</ele>
        <time>2021-05-02T08:21:44.000Z</time>
      </trkpt>
      <trkpt lat="43.66447" lon="6.81386">
        <ele>620.3</ele>
        <time>2021-05-02T08:21:45.000Z</time>
      </trkpt>
      <trkpt lat="43.66448" lon="6.81388">
        <ele>620.5</ele>
        <time>2021-05-02T08:21:46.000Z</time>
      </trkpt>
      <trkpt lat="43.6645" lon="6.81389">
        <ele>620.7</ele>
        <time>2021-05-02T08:21:47.000Z</time>
      </trkpt>
      <trkpt lat="43.66451" lon="6.8139">
        <ele>620.7</ele>
        <time>2021-05-02T08:21:48.000Z</time>
      </trkpt>
      <trkpt lat="43.66452" lon="6.81392">
        <ele>620.7</ele>
        <time>2021-05-02T08:21:49.000Z</time>
      </trkpt>
      <trkpt lat="43.66453" lon="6.81395">
        <ele>620.8</ele>
        <time>2021-05-02T08:21:50.000Z</time>
      </trkpt>
      <trkpt lat="43.66454" lon="6.81397">
        <ele>620.8</ele>
        <time>2021-05-02T08:21:51.000Z</time>
      </trkpt>
      <trkpt lat="43.66455" lon="6.81398">
        <ele>620.7</ele>
        <time>2021-05-02T08:21:52.000Z</time>
      </trkpt>
      <trkpt lat="43.66455" lon="6.81399">
        <ele>620.9</ele>
        <time>2021-05-02T08:21:53.000Z</time>
      </trkpt>
      <trkpt lat="43.66456" lon="6.81401">
        <ele>620.9</ele>
        <time>2021-05-02T08:21:54.000Z</time>
      </trkpt>
      <trkpt lat="43.66457" lon="6.81402">
        <ele>621.1</ele>
        <time>2021-05-02T08:21:55.000Z</time>
      </trkpt>
      <trkpt lat="43.66458" lon="6.81404">
        <ele>621.3</ele>
        <time>2021-05-02T08:21:56.000Z</time>
      </trkpt>
      <trkpt lat="43.66459" lon="6.81406">
        <ele>621.5</ele>
        <time>2021-05-02T08:21:57.000Z</time>
      </trkpt>
      <trkpt lat="43.6646" lon="6.81407">
        <ele>621.7</ele>
        <time>2021-05-02T08:21:58.000Z</time>
      </trkpt>
      <trkpt lat="43.66461" lon="6.81409">
        <ele>621.9</ele>
        <time>2021-05-02T08:21:59.000Z</time>
      </trkpt>
      <trkpt lat="43.66462" lon="6.8141">
        <ele>622.2</ele>
        <time>2021-05-02T08:22:00.000Z</time>
      </trkpt>
      <trkpt lat="43.66463" lon="6.81412">
        <ele>622.5</ele>
        <time>2021-05-02T08:22:01.000Z</time>
      </trkpt>
      <trkpt lat="43.66464" lon="6.81414">
        <ele>622.9</ele>
        <time>2021-05-02T08:22:02.000Z</time>
      </trkpt>
      <trkpt lat="43.66465" lon="6.81416">
        <ele>623.3</ele>
        <time>2021-05-02T08:22:03.000Z</time>
      </trkpt>
      <trkpt lat="43.66466" lon="6.81418">
        <ele>623.5</ele>
        <time>2021-05-02T08:22:04.000Z</time>
      </trkpt>
      <trkpt lat="43.66467" lon="6.8142">
        <ele>623.8</ele>
        <time>2021-05-02T08:22:05.000Z</time>
      </trkpt>
      <trkpt lat="43.66468" lon="6.81421">
        <ele>624.1</ele>
        <time>2021-05-02T08:22:06.000Z</time>
      </trkpt>
      <trkpt lat="43.66469" lon="6.81423">
        <ele>624.4</ele>
        <time>2021-05-02T08:22:07.000Z</time>
      </trkpt>
      <trkpt lat="43.6647" lon="6.81424">
        <ele>624.5</ele>
        <time>2021-05-02T08:22:08.000Z</time>
      </trkpt>
      <trkpt lat="43.66472" lon="6.81426">
        <ele>624.6</ele>
        <time>2021-05-02T08:22:09.000Z</time>
      </trkpt>
      <trkpt lat="43.66473" lon="6.81427">
        <ele>624.5</ele>
        <time>2021-05-02T08:22:10.000Z</time>
      </trkpt>
      <trkpt lat="43.66475" lon="6.81428">
        <ele>624.7</ele>
        <time>2021-05-02T08:22:11.000Z</time>
      </trkpt>
      <trkpt lat="43.66476" lon="6.8143">
        <ele>625</ele>
        <time>2021-05-02T08:22:12.000Z</time>
      </trkpt>
      <trkpt lat="43.66477" lon="6.81432">
        <ele>625.3</ele>
        <time>2021-05-02T08:22:13.000Z</time>
      </trkpt>
      <trkpt lat="43.66478" lon="6.81434">
        <ele>625.7</ele>
        <time>2021-05-02T08:22:14.000Z</time>
      </trkpt>
      <trkpt lat="43.66479" lon="6.81435">
        <ele>626.1</ele>
        <time>2021-05-02T08:22:15.000Z</time>
      </trkpt>
      <trkpt lat="43.6648" lon="6.81436">
        <ele>626.5</ele>
        <time>2021-05-02T08:22:16.000Z</time>
      </trkpt>
      <trkpt lat="43.66482" lon="6.81438">
        <ele>626.6</ele>
        <time>2021-05-02T08:22:17.000Z</time>
      </trkpt>
      <trkpt lat="43.66483" lon="6.81439">
        <ele>626.9</ele>
        <time>2021-05-02T08:22:18.000Z</time>
      </trkpt>
      <trkpt lat="43.66484" lon="6.8144">
        <ele>627.2</ele>
        <time>2021-05-02T08:22:19.000Z</time>
      </trkpt>
      <trkpt lat="43.66485" lon="6.81441">
        <ele>627.6</ele>
        <time>2021-05-02T08:22:20.000Z</time>
      </trkpt>
      <trkpt lat="43.66487" lon="6.81443">
        <ele>628</ele>
        <time>2021-05-02T08:22:21.000Z</time>
      </trkpt>
      <trkpt lat="43.66488" lon="6.81446">
        <ele>628.3</ele>
        <time>2021-05-02T08:22:22.000Z</time>
      </trkpt>
      <trkpt lat="43.6649" lon="6.81448">
        <ele>628.9</ele>
        <time>2021-05-02T08:22:23.000Z</time>
      </trkpt>
      <trkpt lat="43.66491" lon="6.8145">
        <ele>628.9</ele>
        <time>2021-05-02T08:22:24.000Z</time>
      </trkpt>
      <trkpt lat="43.66492" lon="6.81452">
        <ele>628.9</ele>
        <time>2021-05-02T08:22:25.000Z</time>
      </trkpt>
      <trkpt lat="43.66493" lon="6.81454">
        <ele>629.2</ele>
        <time>2021-05-02T08:22:26.000Z</time>
      </trkpt>
      <trkpt lat="43.66494" lon="6.81458">
        <ele>629.6</ele>
        <time>2021-05-02T08:22:27.000Z</time>
      </trkpt>
      <trkpt lat="43.66495" lon="6.81462">
        <ele>630.1</ele>
        <time>2021-05-02T08:22:28.000Z</time>
      </trkpt>
      <trkpt lat="43.66496" lon="6.81466">
        <ele>630.4</ele>
        <time>2021-05-02T08:22:29.000Z</time>
      </trkpt>
      <trkpt lat="43.66497" lon="6.81469">
        <ele>630.8</ele>
        <time>2021-05-02T08:22:30.000Z</time>
      </trkpt>
      <trkpt lat="43.66498" lon="6.81473">
        <ele>631.3</ele>
        <time>2021-05-02T08:22:31.000Z</time>
      </trkpt>
      <trkpt lat="43.66499" lon="6.81477">
        <ele>631.7</ele>
        <time>2021-05-02T08:22:32.000Z</time>
      </trkpt>
      <trkpt lat="43.665" lon="6.8148">
        <ele>632</ele>
        <time>2021-05-02T08:22:33.000Z</time>
      </trkpt>
      <trkpt lat="43.66501" lon="6.81483">
        <ele>632.2</ele>
        <time>2021-05-02T08:22:34.000Z</time>
      </trkpt>
      <trkpt lat="43.66502" lon="6.81486">
        <ele>632.3</ele>
        <time>2021-05-02T08:22:35.000Z</time>
      </trkpt>
      <trkpt lat="43.66504" lon="6.81489">
        <ele>632.7</ele>
        <time>2021-05-02T08:22:36.000Z</time>
      </trkpt>
      <trkpt lat="43.66505" lon="6.81493">
        <ele>632.3</ele>
        <time>2021-05-02T08:22:37.000Z</time>
      </trkpt>
      <trkpt lat="43.66506" lon="6.81496">
        <ele>632.5</ele>
        <time>2021-05-02T08:22:38.000Z</time>
      </trkpt>
      <trkpt lat="43.66507" lon="6.81499">
        <ele>632.4</ele>
        <time>2021-05-02T08:22:39.000Z</time>
      </trkpt>
      <trkpt lat="43.66508" lon="6.81501">
        <ele>632.4</ele>
        <time>2021-05-02T08:22:40.000Z</time>
      </trkpt>
      <trkpt lat="43.66508" lon="6.81504">
        <ele>632.5</ele>
        <time>2021-05-02T08:22:41.000Z</time>
      </trkpt>
      <trkpt lat="43.66509" lon="6.81507">
        <ele>632.5</ele>
        <time>2021-05-02T08:22:42.000Z</time>
      </trkpt>
      <trkpt lat="43.6651" lon="6.81509">
        <ele>632.4</ele>
        <time>2021-05-02T08:22:43.000Z</time>
      </trkpt>
      <trkpt lat="43.66511" lon="6.8151">
        <ele>632.2</ele>
        <time>2021-05-02T08:22:44.000Z</time>
      </trkpt>
      <trkpt lat="43.66513" lon="6.81511">
        <ele>631.9</ele>
        <time>2021-05-02T08:22:45.000Z</time>
      </trkpt>
      <trkpt lat="43.66517" lon="6.81511">
        <ele>630.9</ele>
        <time>2021-05-02T08:22:46.000Z</time>
      </trkpt>
      <trkpt lat="43.66519" lon="6.8151">
        <ele>630.2</ele>
        <time>2021-05-02T08:22:47.000Z</time>
      </trkpt>
      <trkpt lat="43.66522" lon="6.8151">
        <ele>629.9</ele>
        <time>2021-05-02T08:22:48.000Z</time>
      </trkpt>
      <trkpt lat="43.66524" lon="6.81511">
        <ele>630.2</ele>
        <time>2021-05-02T08:22:49.000Z</time>
      </trkpt>
      <trkpt lat="43.66526" lon="6.81513">
        <ele>630.4</ele>
        <time>2021-05-02T08:22:50.000Z</time>
      </trkpt>
      <trkpt lat="43.66527" lon="6.81516">
        <ele>630.4</ele>
        <time>2021-05-02T08:22:51.000Z</time>
      </trkpt>
      <trkpt lat="43.66528" lon="6.8152">
        <ele>630.1</ele>
        <time>2021-05-02T08:22:52.000Z</time>
      </trkpt>
      <trkpt lat="43.66528" lon="6.81523">
        <ele>630</ele>
        <time>2021-05-02T08:22:53.000Z</time>
      </trkpt>
      <trkpt lat="43.66529" lon="6.81526">
        <ele>629.9</ele>
        <time>2021-05-02T08:22:54.000Z</time>
      </trkpt>
      <trkpt lat="43.66529" lon="6.81529">
        <ele>630.1</ele>
        <time>2021-05-02T08:22:55.000Z</time>
      </trkpt>
      <trkpt lat="43.66528" lon="6.81531">
        <ele>630.1</ele>
        <time>2021-05-02T08:22:56.000Z</time>
      </trkpt>
      <trkpt lat="43.66528" lon="6.81534">
        <ele>629.9</ele>
        <time>2021-05-02T08:22:57.000Z</time>
      </trkpt>
      <trkpt lat="43.66528" lon="6.81536">
        <ele>629.9</ele>
        <time>2021-05-02T08:22:58.000Z</time>
      </trkpt>
      <trkpt lat="43.66527" lon="6.81538">
        <ele>629.7</ele>
        <time>2021-05-02T08:22:59.000Z</time>
      </trkpt>
      <trkpt lat="43.66527" lon="6.8154">
        <ele>629.7</ele>
        <time>2021-05-02T08:23:00.000Z</time>
      </trkpt>
      <trkpt lat="43.66525" lon="6.81543">
        <ele>629.6</ele>
        <time>2021-05-02T08:23:01.000Z</time>
      </trkpt>
      <trkpt lat="43.66524" lon="6.81546">
        <ele>629.5</ele>
        <time>2021-05-02T08:23:02.000Z</time>
      </trkpt>
      <trkpt lat="43.66523" lon="6.81548">
        <ele>629.4</ele>
        <time>2021-05-02T08:23:03.000Z</time>
      </trkpt>
      <trkpt lat="43.66522" lon="6.8155">
        <ele>629.7</ele>
        <time>2021-05-02T08:23:04.000Z</time>
      </trkpt>
      <trkpt lat="43.66521" lon="6.81553">
        <ele>630.3</ele>
        <time>2021-05-02T08:23:05.000Z</time>
      </trkpt>
      <trkpt lat="43.66519" lon="6.81557">
        <ele>631.1</ele>
        <time>2021-05-02T08:23:06.000Z</time>
      </trkpt>
      <trkpt lat="43.66518" lon="6.8156">
        <ele>631.4</ele>
        <time>2021-05-02T08:23:07.000Z</time>
      </trkpt>
      <trkpt lat="43.66517" lon="6.81563">
        <ele>631.7</ele>
        <time>2021-05-02T08:23:08.000Z</time>
      </trkpt>
      <trkpt lat="43.66517" lon="6.81566">
        <ele>632.5</ele>
        <time>2021-05-02T08:23:09.000Z</time>
      </trkpt>
      <trkpt lat="43.66516" lon="6.81568">
        <ele>633</ele>
        <time>2021-05-02T08:23:10.000Z</time>
      </trkpt>
      <trkpt lat="43.66516" lon="6.8157">
        <ele>633.6</ele>
        <time>2021-05-02T08:23:11.000Z</time>
      </trkpt>
      <trkpt lat="43.66515" lon="6.81572">
        <ele>634.2</ele>
        <time>2021-05-02T08:23:12.000Z</time>
      </trkpt>
      <trkpt lat="43.66514" lon="6.81574">
        <ele>634.7</ele>
        <time>2021-05-02T08:23:13.000Z</time>
      </trkpt>
      <trkpt lat="43.66513" lon="6.81577">
        <ele>635.8</ele>
        <time>2021-05-02T08:23:14.000Z</time>
      </trkpt>
      <trkpt lat="43.66514" lon="6.81579">
        <ele>636.4</ele>
        <time>2021-05-02T08:23:15.000Z</time>
      </trkpt>
      <trkpt lat="43.66514" lon="6.81581">
        <ele>637</ele>
        <time>2021-05-02T08:23:16.000Z</time>
      </trkpt>
      <trkpt lat="43.66515" lon="6.81583">
        <ele>637.6</ele>
        <time>2021-05-02T08:23:17.000Z</time>
      </trkpt>
      <trkpt lat="43.66515" lon="6.81585">
        <ele>638.2</ele>
        <time>2021-05-02T08:23:18.000Z</time>
      </trkpt>
      <trkpt lat="43.66515" lon="6.81588">
        <ele>638.7</ele>
        <time>2021-05-02T08:23:19.000Z</time>
      </trkpt>
      <trkpt lat="43.66515" lon="6.8159">
        <ele>639.1</ele>
        <time>2021-05-02T08:23:20.000Z</time>
      </trkpt>
      <trkpt lat="43.66514" lon="6.81593">
        <ele>639.4</ele>
        <time>2021-05-02T08:23:21.000Z</time>
      </trkpt>
      <trkpt lat="43.66514" lon="6.81595">
        <ele>639.9</ele>
        <time>2021-05-02T08:23:22.000Z</time>
      </trkpt>
      <trkpt lat="43.66514" lon="6.81597">
        <ele>640.4</ele>
        <time>2021-05-02T08:23:23.000Z</time>
      </trkpt>
      <trkpt lat="43.66514" lon="6.81599">
        <ele>640.8</ele>
        <time>2021-05-02T08:23:24.000Z</time>
      </trkpt>
      <trkpt lat="43.66513" lon="6.81601">
        <ele>641.3</ele>
        <time>2021-05-02T08:23:25.000Z</time>
      </trkpt>
      <trkpt lat="43.66513" lon="6.81602">
        <ele>641.6</ele>
        <time>2021-05-02T08:23:26.000Z</time>
      </trkpt>
      <trkpt lat="43.66512" lon="6.81604">
        <ele>642.3</ele>
        <time>2021-05-02T08:23:27.000Z</time>
      </trkpt>
      <trkpt lat="43.66512" lon="6.81606">
        <ele>643.1</ele>
        <time>2021-05-02T08:23:28.000Z</time>
      </trkpt>
      <trkpt lat="43.66512" lon="6.81609">
        <ele>643.8</ele>
        <time>2021-05-02T08:23:29.000Z</time>
      </trkpt>
      <trkpt lat="43.66512" lon="6.81611">
        <ele>644.6</ele>
        <time>2021-05-02T08:23:30.000Z</time>
      </trkpt>
      <trkpt lat="43.66512" lon="6.81613">
        <ele>645.2</ele>
        <time>2021-05-02T08:23:31.000Z</time>
      </trkpt>
      <trkpt lat="43.66513" lon="6.81615">
        <ele>645.7</ele>
        <time>2021-05-02T08:23:32.000Z</time>
      </trkpt>
      <trkpt lat="43.66513" lon="6.81617">
        <ele>646.2</ele>
        <time>2021-05-02T08:23:33.000Z</time>
      </trkpt>
      <trkpt lat="43.66513" lon="6.8162">
        <ele>646.7</ele>
        <time>2021-05-02T08:23:34.000Z</time>
      </trkpt>
      <trkpt lat="43.66513" lon="6.81622">
        <ele>646.6</ele>
        <time>2021-05-02T08:23:35.000Z</time>
      </trkpt>
      <trkpt lat="43.66514" lon="6.81624">
        <ele>646.6</ele>
        <time>2021-05-02T08:23:36.000Z</time>
      </trkpt>
      <trkpt lat="43.66515" lon="6.81626">
        <ele>646.6</ele>
        <time>2021-05-02T08:23:37.000Z</time>
      </trkpt>
      <trkpt lat="43.66515" lon="6.81628">
        <ele>646.8</ele>
        <time>2021-05-02T08:23:38.000Z</time>
      </trkpt>
      <trkpt lat="43.66515" lon="6.81631">
        <ele>646.9</ele>
        <time>2021-05-02T08:23:39.000Z</time>
      </trkpt>
      <trkpt lat="43.66516" lon="6.81633">
        <ele>647.1</ele>
        <time>2021-05-02T08:23:40.000Z</time>
      </trkpt>
      <trkpt lat="43.66516" lon="6.81635">
        <ele>647.2</ele>
        <time>2021-05-02T08:23:41.000Z</time>
      </trkpt>
      <trkpt lat="43.66517" lon="6.81638">
        <ele>647.4</ele>
        <time>2021-05-02T08:23:42.000Z</time>
      </trkpt>
      <trkpt lat="43.66517" lon="6.8164">
        <ele>647.5</ele>
        <time>2021-05-02T08:23:43.000Z</time>
      </trkpt>
      <trkpt lat="43.66517" lon="6.81642">
        <ele>647.7</ele>
        <time>2021-05-02T08:23:44.000Z</time>
      </trkpt>
      <trkpt lat="43.66517" lon="6.81645">
        <ele>647.8</ele>
        <time>2021-05-02T08:23:45.000Z</time>
      </trkpt>
      <trkpt lat="43.66518" lon="6.81646">
        <ele>648.3</ele>
        <time>2021-05-02T08:23:46.000Z</time>
      </trkpt>
      <trkpt lat="43.6652" lon="6.81659">
        <ele>648.8</ele>
        <time>2021-05-02T08:24:49.000Z</time>
      </trkpt>
      <trkpt lat="43.66518" lon="6.81671">
        <ele>649.7</ele>
        <time>2021-05-02T08:25:19.000Z</time>
      </trkpt>
      <trkpt lat="43.66518" lon="6.81673">
        <ele>649.6</ele>
        <time>2021-05-02T08:25:20.000Z</time>
      </trkpt>
      <trkpt lat="43.66519" lon="6.81676">
        <ele>649.8</ele>
        <time>2021-05-02T08:25:22.000Z</time>
      </trkpt>
      <trkpt lat="43.66525" lon="6.81685">
        <ele>650.4</ele>
        <time>2021-05-02T08:25:31.000Z</time>
      </trkpt>
      <trkpt lat="43.66526" lon="6.81685">
        <ele>650.4</ele>
        <time>2021-05-02T08:25:32.000Z</time>
      </trkpt>
      <trkpt lat="43.66527" lon="6.81687">
        <ele>650.4</ele>
        <time>2021-05-02T08:25:34.000Z</time>
      </trkpt>
      <trkpt lat="43.6653" lon="6.81699">
        <ele>646.9</ele>
        <time>2021-05-02T08:26:35.000Z</time>
      </trkpt>
      <trkpt lat="43.66528" lon="6.81712">
        <ele>650.5</ele>
        <time>2021-05-02T08:27:10.000Z</time>
      </trkpt>
      <trkpt lat="43.66527" lon="6.81713">
        <ele>651.2</ele>
        <time>2021-05-02T08:27:13.000Z</time>
      </trkpt>
      <trkpt lat="43.66526" lon="6.81725">
        <ele>653.3</ele>
        <time>2021-05-02T08:27:28.000Z</time>
      </trkpt>
      <trkpt lat="43.66526" lon="6.81727">
        <ele>653.5</ele>
        <time>2021-05-02T08:27:29.000Z</time>
      </trkpt>
      <trkpt lat="43.66527" lon="6.81728">
        <ele>653.7</ele>
        <time>2021-05-02T08:27:31.000Z</time>
      </trkpt>
      <trkpt lat="43.66531" lon="6.8174">
        <ele>655.7</ele>
        <time>2021-05-02T08:27:45.000Z</time>
      </trkpt>
      <trkpt lat="43.66531" lon="6.81742">
        <ele>656</ele>
        <time>2021-05-02T08:27:47.000Z</time>
      </trkpt>
      <trkpt lat="43.66535" lon="6.81756">
        <ele>657.5</ele>
        <time>2021-05-02T08:27:58.000Z</time>
      </trkpt>
      <trkpt lat="43.66535" lon="6.81758">
        <ele>657.7</ele>
        <time>2021-05-02T08:27:59.000Z</time>
      </trkpt>
      <trkpt lat="43.66537" lon="6.81759">
        <ele>657.6</ele>
        <time>2021-05-02T08:28:00.000Z</time>
      </trkpt>
      <trkpt lat="43.66537" lon="6.81761">
        <ele>657.5</ele>
        <time>2021-05-02T08:28:01.000Z</time>
      </trkpt>
      <trkpt lat="43.66536" lon="6.81763">
        <ele>657.5</ele>
        <time>2021-05-02T08:28:02.000Z</time>
      </trkpt>
      <trkpt lat="43.66534" lon="6.81764">
        <ele>657.5</ele>
        <time>2021-05-02T08:28:03.000Z</time>
      </trkpt>
      <trkpt lat="43.66533" lon="6.81766">
        <ele>657.4</ele>
        <time>2021-05-02T08:28:04.000Z</time>
      </trkpt>
      <trkpt lat="43.66532" lon="6.81767">
        <ele>657.6</ele>
        <time>2021-05-02T08:28:05.000Z</time>
      </trkpt>
      <trkpt lat="43.66531" lon="6.81768">
        <ele>657.8</ele>
        <time>2021-05-02T08:28:06.000Z</time>
      </trkpt>
      <trkpt lat="43.6653" lon="6.8177">
        <ele>657.9</ele>
        <time>2021-05-02T08:28:07.000Z</time>
      </trkpt>
      <trkpt lat="43.66529" lon="6.81771">
        <ele>658</ele>
        <time>2021-05-02T08:28:08.000Z</time>
      </trkpt>
      <trkpt lat="43.66528" lon="6.81772">
        <ele>658.1</ele>
        <time>2021-05-02T08:28:09.000Z</time>
      </trkpt>
      <trkpt lat="43.66527" lon="6.81774">
        <ele>658.2</ele>
        <time>2021-05-02T08:28:10.000Z</time>
      </trkpt>
      <trkpt lat="43.66527" lon="6.81776">
        <ele>658.2</ele>
        <time>2021-05-02T08:28:11.000Z</time>
      </trkpt>
      <trkpt lat="43.66527" lon="6.81778">
        <ele>658.4</ele>
        <time>2021-05-02T08:28:12.000Z</time>
      </trkpt>
      <trkpt lat="43.66527" lon="6.8178">
        <ele>658.5</ele>
        <time>2021-05-02T08:28:13.000Z</time>
      </trkpt>
      <trkpt lat="43.66526" lon="6.81781">
        <ele>658.6</ele>
        <time>2021-05-02T08:28:14.000Z</time>
      </trkpt>
      <trkpt lat="43.66525" lon="6.8179">
        <ele>659.6</ele>
        <time>2021-05-02T08:28:18.000Z</time>
      </trkpt>
      <trkpt lat="43.66525" lon="6.81795">
        <ele>659.8</ele>
        <time>2021-05-02T08:28:19.000Z</time>
      </trkpt>
      <trkpt lat="43.66524" lon="6.81799">
        <ele>660.3</ele>
        <time>2021-05-02T08:28:20.000Z</time>
      </trkpt>
      <trkpt lat="43.66522" lon="6.818">
        <ele>660.8</ele>
        <time>2021-05-02T08:28:21.000Z</time>
      </trkpt>
      <trkpt lat="43.66521" lon="6.81801">
        <ele>660.9</ele>
        <time>2021-05-02T08:28:22.000Z</time>
      </trkpt>
      <trkpt lat="43.66521" lon="6.81816">
        <ele>663.6</ele>
        <time>2021-05-02T08:28:34.000Z</time>
      </trkpt>
      <trkpt lat="43.66521" lon="6.81818">
        <ele>663.8</ele>
        <time>2021-05-02T08:28:35.000Z</time>
      </trkpt>
      <trkpt lat="43.6652" lon="6.81819">
        <ele>663.8</ele>
        <time>2021-05-02T08:28:36.000Z</time>
      </trkpt>
      <trkpt lat="43.6652" lon="6.81821">
        <ele>664</ele>
        <time>2021-05-02T08:28:37.000Z</time>
      </trkpt>
      <trkpt lat="43.66519" lon="6.81827">
        <ele>664.3</ele>
        <time>2021-05-02T08:28:40.000Z</time>
      </trkpt>
      <trkpt lat="43.66519" lon="6.81829">
        <ele>664.3</ele>
        <time>2021-05-02T08:28:41.000Z</time>
      </trkpt>
      <trkpt lat="43.66518" lon="6.81831">
        <ele>664.1</ele>
        <time>2021-05-02T08:28:42.000Z</time>
      </trkpt>
      <trkpt lat="43.66518" lon="6.81833">
        <ele>664.3</ele>
        <time>2021-05-02T08:28:43.000Z</time>
      </trkpt>
      <trkpt lat="43.66518" lon="6.81836">
        <ele>664.5</ele>
        <time>2021-05-02T08:28:44.000Z</time>
      </trkpt>
      <trkpt lat="43.66517" lon="6.81838">
        <ele>664.6</ele>
        <time>2021-05-02T08:28:45.000Z</time>
      </trkpt>
      <trkpt lat="43.66515" lon="6.8184">
        <ele>664.6</ele>
        <time>2021-05-02T08:28:46.000Z</time>
      </trkpt>
      <trkpt lat="43.66514" lon="6.81842">
        <ele>664.6</ele>
        <time>2021-05-02T08:28:47.000Z</time>
      </trkpt>
      <trkpt lat="43.66514" lon="6.81844">
        <ele>664.8</ele>
        <time>2021-05-02T08:28:48.000Z</time>
      </trkpt>
      <trkpt lat="43.66514" lon="6.81846">
        <ele>664.8</ele>
        <time>2021-05-02T08:28:49.000Z</time>
      </trkpt>
      <trkpt lat="43.66514" lon="6.81849">
        <ele>664.8</ele>
        <time>2021-05-02T08:28:50.000Z</time>
      </trkpt>
      <trkpt lat="43.66514" lon="6.81852">
        <ele>664.9</ele>
        <time>2021-05-02T08:28:51.000Z</time>
      </trkpt>
      <trkpt lat="43.66514" lon="6.81854">
        <ele>665</ele>
        <time>2021-05-02T08:28:52.000Z</time>
      </trkpt>
      <trkpt lat="43.66513" lon="6.81857">
        <ele>665.4</ele>
        <time>2021-05-02T08:28:53.000Z</time>
      </trkpt>
      <trkpt lat="43.66512" lon="6.8186">
        <ele>665.9</ele>
        <time>2021-05-02T08:28:54.000Z</time>
      </trkpt>
      <trkpt lat="43.66512" lon="6.81863">
        <ele>666.1</ele>
        <time>2021-05-02T08:28:55.000Z</time>
      </trkpt>
      <trkpt lat="43.66512" lon="6.81866">
        <ele>666.4</ele>
        <time>2021-05-02T08:28:56.000Z</time>
      </trkpt>
      <trkpt lat="43.66512" lon="6.81868">
        <ele>666.5</ele>
        <time>2021-05-02T08:28:57.000Z</time>
      </trkpt>
      <trkpt lat="43.66512" lon="6.81871">
        <ele>666.7</ele>
        <time>2021-05-02T08:28:58.000Z</time>
      </trkpt>
      <trkpt lat="43.66512" lon="6.81874">
        <ele>666.5</ele>
        <time>2021-05-02T08:28:59.000Z</time>
      </trkpt>
      <trkpt lat="43.66512" lon="6.81876">
        <ele>666.2</ele>
        <time>2021-05-02T08:29:00.000Z</time>
      </trkpt>
      <trkpt lat="43.6651" lon="6.81877">
        <ele>666</ele>
        <time>2021-05-02T08:29:01.000Z</time>
      </trkpt>
      <trkpt lat="43.66509" lon="6.81879">
        <ele>666.3</ele>
        <time>2021-05-02T08:29:02.000Z</time>
      </trkpt>
      <trkpt lat="43.66509" lon="6.81881">
        <ele>666.3</ele>
        <time>2021-05-02T08:29:03.000Z</time>
      </trkpt>
      <trkpt lat="43.66508" lon="6.81882">
        <ele>665.7</ele>
        <time>2021-05-02T08:29:04.000Z</time>
      </trkpt>
      <trkpt lat="43.66507" lon="6.81884">
        <ele>665.6</ele>
        <time>2021-05-02T08:29:05.000Z</time>
      </trkpt>
      <trkpt lat="43.66505" lon="6.81885">
        <ele>665.4</ele>
        <time>2021-05-02T08:29:06.000Z</time>
      </trkpt>
      <trkpt lat="43.66505" lon="6.81887">
        <ele>665.2</ele>
        <time>2021-05-02T08:29:07.000Z</time>
      </trkpt>
      <trkpt lat="43.66503" lon="6.81888">
        <ele>665.3</ele>
        <time>2021-05-02T08:29:08.000Z</time>
      </trkpt>
      <trkpt lat="43.66502" lon="6.8189">
        <ele>665.2</ele>
        <time>2021-05-02T08:29:09.000Z</time>
      </trkpt>
      <trkpt lat="43.66501" lon="6.81891">
        <ele>665.3</ele>
        <time>2021-05-02T08:29:10.000Z</time>
      </trkpt>
      <trkpt lat="43.665" lon="6.81892">
        <ele>665.4</ele>
        <time>2021-05-02T08:29:11.000Z</time>
      </trkpt>
      <trkpt lat="43.66499" lon="6.81893">
        <ele>665.4</ele>
        <time>2021-05-02T08:29:12.000Z</time>
      </trkpt>
      <trkpt lat="43.66497" lon="6.81896">
        <ele>665.6</ele>
        <time>2021-05-02T08:29:14.000Z</time>
      </trkpt>
      <trkpt lat="43.66495" lon="6.81898">
        <ele>666.1</ele>
        <time>2021-05-02T08:29:15.000Z</time>
      </trkpt>
      <trkpt lat="43.66494" lon="6.81899">
        <ele>666.3</ele>
        <time>2021-05-02T08:29:16.000Z</time>
      </trkpt>
      <trkpt lat="43.66493" lon="6.81901">
        <ele>666.5</ele>
        <time>2021-05-02T08:29:17.000Z</time>
      </trkpt>
      <trkpt lat="43.66492" lon="6.81903">
        <ele>666.8</ele>
        <time>2021-05-02T08:29:18.000Z</time>
      </trkpt>
      <trkpt lat="43.6649" lon="6.81904">
        <ele>667.2</ele>
        <time>2021-05-02T08:29:19.000Z</time>
      </trkpt>
      <trkpt lat="43.66489" lon="6.81906">
        <ele>667.3</ele>
        <time>2021-05-02T08:29:20.000Z</time>
      </trkpt>
      <trkpt lat="43.66488" lon="6.81908">
        <ele>667.6</ele>
        <time>2021-05-02T08:29:21.000Z</time>
      </trkpt>
      <trkpt lat="43.66487" lon="6.8191">
        <ele>667.7</ele>
        <time>2021-05-02T08:29:22.000Z</time>
      </trkpt>
      <trkpt lat="43.66486" lon="6.81911">
        <ele>668</ele>
        <time>2021-05-02T08:29:23.000Z</time>
      </trkpt>
      <trkpt lat="43.66485" lon="6.81914">
        <ele>668.1</ele>
        <time>2021-05-02T08:29:24.000Z</time>
      </trkpt>
      <trkpt lat="43.66484" lon="6.81915">
        <ele>668.1</ele>
        <time>2021-05-02T08:29:25.000Z</time>
      </trkpt>
      <trkpt lat="43.66483" lon="6.81918">
        <ele>668.1</ele>
        <time>2021-05-02T08:29:26.000Z</time>
      </trkpt>
      <trkpt lat="43.66482" lon="6.8192">
        <ele>668.2</ele>
        <time>2021-05-02T08:29:27.000Z</time>
      </trkpt>
      <trkpt lat="43.66481" lon="6.81923">
        <ele>668.2</ele>
        <time>2021-05-02T08:29:28.000Z</time>
      </trkpt>
      <trkpt lat="43.6648" lon="6.81925">
        <ele>668.1</ele>
        <time>2021-05-02T08:29:29.000Z</time>
      </trkpt>
      <trkpt lat="43.6648" lon="6.81927">
        <ele>668</ele>
        <time>2021-05-02T08:29:30.000Z</time>
      </trkpt>
      <trkpt lat="43.66479" lon="6.8193">
        <ele>668.1</ele>
        <time>2021-05-02T08:29:31.000Z</time>
      </trkpt>
      <trkpt lat="43.66478" lon="6.81932">
        <ele>667.9</ele>
        <time>2021-05-02T08:29:32.000Z</time>
      </trkpt>
      <trkpt lat="43.66477" lon="6.81934">
        <ele>667.5</ele>
        <time>2021-05-02T08:29:33.000Z</time>
      </trkpt>
      <trkpt lat="43.66477" lon="6.81936">
        <ele>667.3</ele>
        <time>2021-05-02T08:29:34.000Z</time>
      </trkpt>
      <trkpt lat="43.66477" lon="6.81939">
        <ele>666.7</ele>
        <time>2021-05-02T08:29:35.000Z</time>
      </trkpt>
      <trkpt lat="43.66476" lon="6.81941">
        <ele>666.6</ele>
        <time>2021-05-02T08:29:36.000Z</time>
      </trkpt>
      <trkpt lat="43.66475" lon="6.81942">
        <ele>666.3</ele>
        <time>2021-05-02T08:29:37.000Z</time>
      </trkpt>
      <trkpt lat="43.66474" lon="6.81943">
        <ele>666.1</ele>
        <time>2021-05-02T08:29:38.000Z</time>
      </trkpt>
      <trkpt lat="43.66469" lon="6.81948">
        <ele>665.6</ele>
        <time>2021-05-02T08:29:42.000Z</time>
      </trkpt>
      <trkpt lat="43.66468" lon="6.8195">
        <ele>665.7</ele>
        <time>2021-05-02T08:29:43.000Z</time>
      </trkpt>
      <trkpt lat="43.66467" lon="6.81951">
        <ele>665.8</ele>
        <time>2021-05-02T08:29:44.000Z</time>
      </trkpt>
      <trkpt lat="43.66466" lon="6.81954">
        <ele>666</ele>
        <time>2021-05-02T08:29:45.000Z</time>
      </trkpt>
      <trkpt lat="43.66464" lon="6.81959">
        <ele>665.9</ele>
        <time>2021-05-02T08:29:47.000Z</time>
      </trkpt>
      <trkpt lat="43.66463" lon="6.81961">
        <ele>666</ele>
        <time>2021-05-02T08:29:48.000Z</time>
      </trkpt>
      <trkpt lat="43.66462" lon="6.81963">
        <ele>665.9</ele>
        <time>2021-05-02T08:29:49.000Z</time>
      </trkpt>
      <trkpt lat="43.66461" lon="6.81967">
        <ele>665.8</ele>
        <time>2021-05-02T08:29:50.000Z</time>
      </trkpt>
      <trkpt lat="43.6646" lon="6.81969">
        <ele>665.8</ele>
        <time>2021-05-02T08:29:51.000Z</time>
      </trkpt>
      <trkpt lat="43.6646" lon="6.81971">
        <ele>665.5</ele>
        <time>2021-05-02T08:29:52.000Z</time>
      </trkpt>
      <trkpt lat="43.6646" lon="6.81972">
        <ele>665.3</ele>
        <time>2021-05-02T08:29:53.000Z</time>
      </trkpt>
      <trkpt lat="43.66455" lon="6.81986">
        <ele>662.6</ele>
        <time>2021-05-02T08:30:01.000Z</time>
      </trkpt>
      <trkpt lat="43.66455" lon="6.81987">
        <ele>662.3</ele>
        <time>2021-05-02T08:30:02.000Z</time>
      </trkpt>
      <trkpt lat="43.66454" lon="6.81989">
        <ele>661.8</ele>
        <time>2021-05-02T08:30:03.000Z</time>
      </trkpt>
      <trkpt lat="43.66453" lon="6.8199">
        <ele>661.6</ele>
        <time>2021-05-02T08:30:04.000Z</time>
      </trkpt>
      <trkpt lat="43.6645" lon="6.81998">
        <ele>660.2</ele>
        <time>2021-05-02T08:30:07.000Z</time>
      </trkpt>
      <trkpt lat="43.66449" lon="6.82">
        <ele>659.9</ele>
        <time>2021-05-02T08:30:08.000Z</time>
      </trkpt>
      <trkpt lat="43.66448" lon="6.82003">
        <ele>659.5</ele>
        <time>2021-05-02T08:30:10.000Z</time>
      </trkpt>
      <trkpt lat="43.66444" lon="6.82015">
        <ele>658.3</ele>
        <time>2021-05-02T08:30:16.000Z</time>
      </trkpt>
      <trkpt lat="43.66443" lon="6.82017">
        <ele>658.1</ele>
        <time>2021-05-02T08:30:17.000Z</time>
      </trkpt>
      <trkpt lat="43.66443" lon="6.82019">
        <ele>657.9</ele>
        <time>2021-05-02T08:30:18.000Z</time>
      </trkpt>
      <trkpt lat="43.66441" lon="6.82022">
        <ele>657.8</ele>
        <time>2021-05-02T08:30:19.000Z</time>
      </trkpt>
      <trkpt lat="43.66437" lon="6.82032">
        <ele>658</ele>
        <time>2021-05-02T08:30:23.000Z</time>
      </trkpt>
      <trkpt lat="43.66436" lon="6.82033">
        <ele>657.8</ele>
        <time>2021-05-02T08:30:24.000Z</time>
      </trkpt>
      <trkpt lat="43.66436" lon="6.82034">
        <ele>657.8</ele>
        <time>2021-05-02T08:30:25.000Z</time>
      </trkpt>
      <trkpt lat="43.66435" lon="6.82036">
        <ele>657.8</ele>
        <time>2021-05-02T08:30:26.000Z</time>
      </trkpt>
      <trkpt lat="43.66432" lon="6.82045">
        <ele>657.6</ele>
        <time>2021-05-02T08:30:30.000Z</time>
      </trkpt>
      <trkpt lat="43.66432" lon="6.82047">
        <ele>657.6</ele>
        <time>2021-05-02T08:30:31.000Z</time>
      </trkpt>
      <trkpt lat="43.66432" lon="6.82049">
        <ele>657.3</ele>
        <time>2021-05-02T08:30:32.000Z</time>
      </trkpt>
      <trkpt lat="43.66431" lon="6.82051">
        <ele>657.3</ele>
        <time>2021-05-02T08:30:33.000Z</time>
      </trkpt>
      <trkpt lat="43.66428" lon="6.82056">
        <ele>657.4</ele>
        <time>2021-05-02T08:30:35.000Z</time>
      </trkpt>
      <trkpt lat="43.66427" lon="6.82059">
        <ele>657.1</ele>
        <time>2021-05-02T08:30:36.000Z</time>
      </trkpt>
      <trkpt lat="43.66426" lon="6.82062">
        <ele>657.2</ele>
        <time>2021-05-02T08:30:37.000Z</time>
      </trkpt>
      <trkpt lat="43.66426" lon="6.82064">
        <ele>657.8</ele>
        <time>2021-05-02T08:30:38.000Z</time>
      </trkpt>
      <trkpt lat="43.66425" lon="6.82066">
        <ele>657.7</ele>
        <time>2021-05-02T08:30:40.000Z</time>
      </trkpt>
      <trkpt lat="43.66419" lon="6.82079">
        <ele>657.6</ele>
        <time>2021-05-02T08:30:49.000Z</time>
      </trkpt>
      <trkpt lat="43.66418" lon="6.8208">
        <ele>657.6</ele>
        <time>2021-05-02T08:30:50.000Z</time>
      </trkpt>
      <trkpt lat="43.66418" lon="6.82082">
        <ele>657.5</ele>
        <time>2021-05-02T08:30:51.000Z</time>
      </trkpt>
      <trkpt lat="43.66417" lon="6.82084">
        <ele>657.4</ele>
        <time>2021-05-02T08:30:52.000Z</time>
      </trkpt>
      <trkpt lat="43.66416" lon="6.82087">
        <ele>657.9</ele>
        <time>2021-05-02T08:30:53.000Z</time>
      </trkpt>
      <trkpt lat="43.66415" lon="6.82091">
        <ele>658.2</ele>
        <time>2021-05-02T08:30:54.000Z</time>
      </trkpt>
      <trkpt lat="43.66414" lon="6.82095">
        <ele>657.9</ele>
        <time>2021-05-02T08:30:55.000Z</time>
      </trkpt>
      <trkpt lat="43.66414" lon="6.82096">
        <ele>657.9</ele>
        <time>2021-05-02T08:30:56.000Z</time>
      </trkpt>
      <trkpt lat="43.66412" lon="6.82099">
        <ele>658</ele>
        <time>2021-05-02T08:30:57.000Z</time>
      </trkpt>
      <trkpt lat="43.66411" lon="6.82101">
        <ele>657.6</ele>
        <time>2021-05-02T08:30:58.000Z</time>
      </trkpt>
      <trkpt lat="43.6641" lon="6.82103">
        <ele>657.2</ele>
        <time>2021-05-02T08:31:00.000Z</time>
      </trkpt>
      <trkpt lat="43.66406" lon="6.82112">
        <ele>657.1</ele>
        <time>2021-05-02T08:31:07.000Z</time>
      </trkpt>
      <trkpt lat="43.66405" lon="6.82114">
        <ele>657.1</ele>
        <time>2021-05-02T08:31:08.000Z</time>
      </trkpt>
      <trkpt lat="43.66405" lon="6.82116">
        <ele>657.1</ele>
        <time>2021-05-02T08:31:10.000Z</time>
      </trkpt>
      <trkpt lat="43.66401" lon="6.82125">
        <ele>657.4</ele>
        <time>2021-05-02T08:31:14.000Z</time>
      </trkpt>
      <trkpt lat="43.664" lon="6.82128">
        <ele>657.4</ele>
        <time>2021-05-02T08:31:15.000Z</time>
      </trkpt>
      <trkpt lat="43.66399" lon="6.8213">
        <ele>657.6</ele>
        <time>2021-05-02T08:31:16.000Z</time>
      </trkpt>
      <trkpt lat="43.66399" lon="6.82132">
        <ele>657.8</ele>
        <time>2021-05-02T08:31:17.000Z</time>
      </trkpt>
      <trkpt lat="43.66399" lon="6.82134">
        <ele>658.1</ele>
        <time>2021-05-02T08:31:18.000Z</time>
      </trkpt>
      <trkpt lat="43.664" lon="6.82142">
        <ele>658.2</ele>
        <time>2021-05-02T08:31:29.000Z</time>
      </trkpt>
      <trkpt lat="43.66399" lon="6.82145">
        <ele>658</ele>
        <time>2021-05-02T08:31:30.000Z</time>
      </trkpt>
      <trkpt lat="43.66399" lon="6.82148">
        <ele>658.1</ele>
        <time>2021-05-02T08:31:31.000Z</time>
      </trkpt>
      <trkpt lat="43.66399" lon="6.82151">
        <ele>658</ele>
        <time>2021-05-02T08:31:32.000Z</time>
      </trkpt>
      <trkpt lat="43.66399" lon="6.82152">
        <ele>658.1</ele>
        <time>2021-05-02T08:31:33.000Z</time>
      </trkpt>
      <trkpt lat="43.66398" lon="6.82154">
        <ele>658</ele>
        <time>2021-05-02T08:31:34.000Z</time>
      </trkpt>
      <trkpt lat="43.66398" lon="6.82156">
        <ele>657.9</ele>
        <time>2021-05-02T08:31:35.000Z</time>
      </trkpt>
      <trkpt lat="43.66397" lon="6.82157">
        <ele>658</ele>
        <time>2021-05-02T08:31:36.000Z</time>
      </trkpt>
      <trkpt lat="43.66396" lon="6.82163">
        <ele>657.8</ele>
        <time>2021-05-02T08:31:39.000Z</time>
      </trkpt>
      <trkpt lat="43.66395" lon="6.82166">
        <ele>657.9</ele>
        <time>2021-05-02T08:31:40.000Z</time>
      </trkpt>
      <trkpt lat="43.66394" lon="6.82169">
        <ele>658.2</ele>
        <time>2021-05-02T08:31:41.000Z</time>
      </trkpt>
      <trkpt lat="43.66393" lon="6.8217">
        <ele>658.2</ele>
        <time>2021-05-02T08:31:42.000Z</time>
      </trkpt>
      <trkpt lat="43.66392" lon="6.82172">
        <ele>658.2</ele>
        <time>2021-05-02T08:31:43.000Z</time>
      </trkpt>
      <trkpt lat="43.66392" lon="6.82174">
        <ele>658.2</ele>
        <time>2021-05-02T08:31:44.000Z</time>
      </trkpt>
      <trkpt lat="43.6639" lon="6.82176">
        <ele>658.7</ele>
        <time>2021-05-02T08:31:45.000Z</time>
      </trkpt>
      <trkpt lat="43.66389" lon="6.82178">
        <ele>658.9</ele>
        <time>2021-05-02T08:31:46.000Z</time>
      </trkpt>
      <trkpt lat="43.66388" lon="6.8218">
        <ele>659.2</ele>
        <time>2021-05-02T08:31:47.000Z</time>
      </trkpt>
      <trkpt lat="43.66386" lon="6.82183">
        <ele>659.8</ele>
        <time>2021-05-02T08:31:48.000Z</time>
      </trkpt>
      <trkpt lat="43.66385" lon="6.82185">
        <ele>660.2</ele>
        <time>2021-05-02T08:31:49.000Z</time>
      </trkpt>
      <trkpt lat="43.66385" lon="6.82187">
        <ele>660.6</ele>
        <time>2021-05-02T08:31:50.000Z</time>
      </trkpt>
      <trkpt lat="43.66384" lon="6.82189">
        <ele>660.8</ele>
        <time>2021-05-02T08:31:51.000Z</time>
      </trkpt>
      <trkpt lat="43.66383" lon="6.82192">
        <ele>660.9</ele>
        <time>2021-05-02T08:31:52.000Z</time>
      </trkpt>
      <trkpt lat="43.66383" lon="6.82194">
        <ele>660.9</ele>
        <time>2021-05-02T08:31:53.000Z</time>
      </trkpt>
      <trkpt lat="43.66382" lon="6.82196">
        <ele>661.1</ele>
        <time>2021-05-02T08:31:54.000Z</time>
      </trkpt>
      <trkpt lat="43.66381" lon="6.822">
        <ele>661.3</ele>
        <time>2021-05-02T08:31:55.000Z</time>
      </trkpt>
      <trkpt lat="43.66381" lon="6.82202">
        <ele>661.3</ele>
        <time>2021-05-02T08:31:56.000Z</time>
      </trkpt>
      <trkpt lat="43.6638" lon="6.82204">
        <ele>661.5</ele>
        <time>2021-05-02T08:31:58.000Z</time>
      </trkpt>
      <trkpt lat="43.6638" lon="6.82211">
        <ele>660.8</ele>
        <time>2021-05-02T08:32:01.000Z</time>
      </trkpt>
      <trkpt lat="43.66379" lon="6.82214">
        <ele>660.8</ele>
        <time>2021-05-02T08:32:02.000Z</time>
      </trkpt>
      <trkpt lat="43.66378" lon="6.82217">
        <ele>661</ele>
        <time>2021-05-02T08:32:03.000Z</time>
      </trkpt>
      <trkpt lat="43.66378" lon="6.8222">
        <ele>660.9</ele>
        <time>2021-05-02T08:32:04.000Z</time>
      </trkpt>
      <trkpt lat="43.66377" lon="6.82222">
        <ele>660.9</ele>
        <time>2021-05-02T08:32:05.000Z</time>
      </trkpt>
      <trkpt lat="43.66377" lon="6.82224">
        <ele>660.7</ele>
        <time>2021-05-02T08:32:06.000Z</time>
      </trkpt>
      <trkpt lat="43.66375" lon="6.82237">
        <ele>659.3</ele>
        <time>2021-05-02T08:33:04.000Z</time>
      </trkpt>
      <trkpt lat="43.66375" lon="6.82239">
        <ele>659.2</ele>
        <time>2021-05-02T08:33:05.000Z</time>
      </trkpt>
      <trkpt lat="43.66374" lon="6.8224">
        <ele>659.1</ele>
        <time>2021-05-02T08:33:06.000Z</time>
      </trkpt>
      <trkpt lat="43.66373" lon="6.82241">
        <ele>659.1</ele>
        <time>2021-05-02T08:33:07.000Z</time>
      </trkpt>
      <trkpt lat="43.66372" lon="6.82243">
        <ele>659.1</ele>
        <time>2021-05-02T08:33:08.000Z</time>
      </trkpt>
      <trkpt lat="43.66371" lon="6.82244">
        <ele>659.1</ele>
        <time>2021-05-02T08:33:09.000Z</time>
      </trkpt>
      <trkpt lat="43.6637" lon="6.82246">
        <ele>659</ele>
        <time>2021-05-02T08:33:10.000Z</time>
      </trkpt>
      <trkpt lat="43.6637" lon="6.82248">
        <ele>659</ele>
        <time>2021-05-02T08:33:11.000Z</time>
      </trkpt>
      <trkpt lat="43.66369" lon="6.82249">
        <ele>659.1</ele>
        <time>2021-05-02T08:33:12.000Z</time>
      </trkpt>
      <trkpt lat="43.66368" lon="6.82251">
        <ele>659.2</ele>
        <time>2021-05-02T08:33:14.000Z</time>
      </trkpt>
      <trkpt lat="43.66366" lon="6.82259">
        <ele>660.3</ele>
        <time>2021-05-02T08:33:19.000Z</time>
      </trkpt>
      <trkpt lat="43.66365" lon="6.82262">
        <ele>660.7</ele>
        <time>2021-05-02T08:33:20.000Z</time>
      </trkpt>
      <trkpt lat="43.66365" lon="6.82264">
        <ele>661</ele>
        <time>2021-05-02T08:33:21.000Z</time>
      </trkpt>
      <trkpt lat="43.66363" lon="6.82267">
        <ele>661.3</ele>
        <time>2021-05-02T08:33:22.000Z</time>
      </trkpt>
      <trkpt lat="43.66362" lon="6.82271">
        <ele>661.7</ele>
        <time>2021-05-02T08:33:23.000Z</time>
      </trkpt>
      <trkpt lat="43.6636" lon="6.82274">
        <ele>661.9</ele>
        <time>2021-05-02T08:33:24.000Z</time>
      </trkpt>
      <trkpt lat="43.66359" lon="6.82276">
        <ele>662</ele>
        <time>2021-05-02T08:33:25.000Z</time>
      </trkpt>
      <trkpt lat="43.66357" lon="6.82279">
        <ele>662.1</ele>
        <time>2021-05-02T08:33:26.000Z</time>
      </trkpt>
      <trkpt lat="43.66355" lon="6.82282">
        <ele>662.4</ele>
        <time>2021-05-02T08:33:27.000Z</time>
      </trkpt>
      <trkpt lat="43.66354" lon="6.82285">
        <ele>662.3</ele>
        <time>2021-05-02T08:33:28.000Z</time>
      </trkpt>
      <trkpt lat="43.66353" lon="6.82288">
        <ele>662.1</ele>
        <time>2021-05-02T08:33:29.000Z</time>
      </trkpt>
      <trkpt lat="43.66352" lon="6.82292">
        <ele>661.7</ele>
        <time>2021-05-02T08:33:30.000Z</time>
      </trkpt>
      <trkpt lat="43.66351" lon="6.82294">
        <ele>661.7</ele>
        <time>2021-05-02T08:33:31.000Z</time>
      </trkpt>
      <trkpt lat="43.6635" lon="6.82297">
        <ele>661.7</ele>
        <time>2021-05-02T08:33:32.000Z</time>
      </trkpt>
      <trkpt lat="43.66349" lon="6.82298">
        <ele>661.6</ele>
        <time>2021-05-02T08:33:33.000Z</time>
      </trkpt>
      <trkpt lat="43.66348" lon="6.82299">
        <ele>661.5</ele>
        <time>2021-05-02T08:33:34.000Z</time>
      </trkpt>
      <trkpt lat="43.66346" lon="6.82312">
        <ele>659.8</ele>
        <time>2021-05-02T08:33:53.000Z</time>
      </trkpt>
      <trkpt lat="43.66346" lon="6.82315">
        <ele>659.4</ele>
        <time>2021-05-02T08:33:54.000Z</time>
      </trkpt>
      <trkpt lat="43.66347" lon="6.82317">
        <ele>658.9</ele>
        <time>2021-05-02T08:33:55.000Z</time>
      </trkpt>
      <trkpt lat="43.66347" lon="6.8232">
        <ele>658.4</ele>
        <time>2021-05-02T08:33:56.000Z</time>
      </trkpt>
      <trkpt lat="43.66347" lon="6.82323">
        <ele>658</ele>
        <time>2021-05-02T08:33:57.000Z</time>
      </trkpt>
      <trkpt lat="43.66346" lon="6.82325">
        <ele>657.6</ele>
        <time>2021-05-02T08:33:58.000Z</time>
      </trkpt>
      <trkpt lat="43.66345" lon="6.82327">
        <ele>657.2</ele>
        <time>2021-05-02T08:33:59.000Z</time>
      </trkpt>
      <trkpt lat="43.66344" lon="6.8233">
        <ele>656.9</ele>
        <time>2021-05-02T08:34:00.000Z</time>
      </trkpt>
      <trkpt lat="43.66343" lon="6.82332">
        <ele>656.5</ele>
        <time>2021-05-02T08:34:01.000Z</time>
      </trkpt>
      <trkpt lat="43.66342" lon="6.82336">
        <ele>656.1</ele>
        <time>2021-05-02T08:34:02.000Z</time>
      </trkpt>
      <trkpt lat="43.66342" lon="6.82339">
        <ele>655.8</ele>
        <time>2021-05-02T08:34:03.000Z</time>
      </trkpt>
      <trkpt lat="43.66341" lon="6.82341">
        <ele>655.5</ele>
        <time>2021-05-02T08:34:04.000Z</time>
      </trkpt>
      <trkpt lat="43.66341" lon="6.82344">
        <ele>655.2</ele>
        <time>2021-05-02T08:34:05.000Z</time>
      </trkpt>
      <trkpt lat="43.66341" lon="6.82347">
        <ele>654.7</ele>
        <time>2021-05-02T08:34:06.000Z</time>
      </trkpt>
      <trkpt lat="43.6634" lon="6.8235">
        <ele>654.3</ele>
        <time>2021-05-02T08:34:07.000Z</time>
      </trkpt>
      <trkpt lat="43.66339" lon="6.82354">
        <ele>653.8</ele>
        <time>2021-05-02T08:34:08.000Z</time>
      </trkpt>
      <trkpt lat="43.66339" lon="6.82357">
        <ele>653.5</ele>
        <time>2021-05-02T08:34:09.000Z</time>
      </trkpt>
      <trkpt lat="43.66338" lon="6.8236">
        <ele>653.4</ele>
        <time>2021-05-02T08:34:10.000Z</time>
      </trkpt>
      <trkpt lat="43.66337" lon="6.82362">
        <ele>653.5</ele>
        <time>2021-05-02T08:34:11.000Z</time>
      </trkpt>
      <trkpt lat="43.66337" lon="6.82364">
        <ele>653.4</ele>
        <time>2021-05-02T08:34:12.000Z</time>
      </trkpt>
      <trkpt lat="43.66337" lon="6.82367">
        <ele>653.6</ele>
        <time>2021-05-02T08:34:13.000Z</time>
      </trkpt>
      <trkpt lat="43.66338" lon="6.82369">
        <ele>653.8</ele>
        <time>2021-05-02T08:34:14.000Z</time>
      </trkpt>
      <trkpt lat="43.66339" lon="6.82371">
        <ele>654.1</ele>
        <time>2021-05-02T08:34:15.000Z</time>
      </trkpt>
      <trkpt lat="43.6634" lon="6.82373">
        <ele>654.2</ele>
        <time>2021-05-02T08:34:16.000Z</time>
      </trkpt>
      <trkpt lat="43.66341" lon="6.82374">
        <ele>654.3</ele>
        <time>2021-05-02T08:34:17.000Z</time>
      </trkpt>
      <trkpt lat="43.66342" lon="6.82376">
        <ele>654.5</ele>
        <time>2021-05-02T08:34:18.000Z</time>
      </trkpt>
      <trkpt lat="43.66343" lon="6.82379">
        <ele>654.5</ele>
        <time>2021-05-02T08:34:19.000Z</time>
      </trkpt>
      <trkpt lat="43.66343" lon="6.82381">
        <ele>654.8</ele>
        <time>2021-05-02T08:34:20.000Z</time>
      </trkpt>
      <trkpt lat="43.66344" lon="6.82383">
        <ele>654.9</ele>
        <time>2021-05-02T08:34:21.000Z</time>
      </trkpt>
      <trkpt lat="43.66346" lon="6.82385">
        <ele>655</ele>
        <time>2021-05-02T08:34:22.000Z</time>
      </trkpt>
      <trkpt lat="43.66347" lon="6.82387">
        <ele>655.1</ele>
        <time>2021-05-02T08:34:23.000Z</time>
      </trkpt>
      <trkpt lat="43.66348" lon="6.82389">
        <ele>655.1</ele>
        <time>2021-05-02T08:34:24.000Z</time>
      </trkpt>
      <trkpt lat="43.66349" lon="6.82391">
        <ele>655.4</ele>
        <time>2021-05-02T08:34:25.000Z</time>
      </trkpt>
      <trkpt lat="43.66349" lon="6.82392">
        <ele>655.4</ele>
        <time>2021-05-02T08:34:26.000Z</time>
      </trkpt>
      <trkpt lat="43.6635" lon="6.82393">
        <ele>655.4</ele>
        <time>2021-05-02T08:34:27.000Z</time>
      </trkpt>
      <trkpt lat="43.66353" lon="6.82394">
        <ele>655.6</ele>
        <time>2021-05-02T08:34:29.000Z</time>
      </trkpt>
      <trkpt lat="43.66354" lon="6.82395">
        <ele>655.8</ele>
        <time>2021-05-02T08:34:30.000Z</time>
      </trkpt>
      <trkpt lat="43.66356" lon="6.82396">
        <ele>655.7</ele>
        <time>2021-05-02T08:34:31.000Z</time>
      </trkpt>
      <trkpt lat="43.66358" lon="6.82397">
        <ele>655.8</ele>
        <time>2021-05-02T08:34:32.000Z</time>
      </trkpt>
      <trkpt lat="43.66359" lon="6.82399">
        <ele>655.8</ele>
        <time>2021-05-02T08:34:33.000Z</time>
      </trkpt>
      <trkpt lat="43.6636" lon="6.824">
        <ele>655.8</ele>
        <time>2021-05-02T08:34:34.000Z</time>
      </trkpt>
      <trkpt lat="43.66361" lon="6.82401">
        <ele>655.9</ele>
        <time>2021-05-02T08:34:35.000Z</time>
      </trkpt>
      <trkpt lat="43.66362" lon="6.82403">
        <ele>656</ele>
        <time>2021-05-02T08:34:36.000Z</time>
      </trkpt>
      <trkpt lat="43.66363" lon="6.82406">
        <ele>656.2</ele>
        <time>2021-05-02T08:34:37.000Z</time>
      </trkpt>
      <trkpt lat="43.66364" lon="6.8241">
        <ele>656.4</ele>
        <time>2021-05-02T08:34:38.000Z</time>
      </trkpt>
      <trkpt lat="43.66364" lon="6.82413">
        <ele>656.7</ele>
        <time>2021-05-02T08:34:39.000Z</time>
      </trkpt>
      <trkpt lat="43.66365" lon="6.82415">
        <ele>656.9</ele>
        <time>2021-05-02T08:34:40.000Z</time>
      </trkpt>
      <trkpt lat="43.66365" lon="6.82417">
        <ele>656.9</ele>
        <time>2021-05-02T08:34:41.000Z</time>
      </trkpt>
      <trkpt lat="43.66365" lon="6.82418">
        <ele>656.9</ele>
        <time>2021-05-02T08:34:42.000Z</time>
      </trkpt>
      <trkpt lat="43.66365" lon="6.82419">
        <ele>656.8</ele>
        <time>2021-05-02T08:34:43.000Z</time>
      </trkpt>
      <trkpt lat="43.66365" lon="6.82421">
        <ele>656.5</ele>
        <time>2021-05-02T08:34:45.000Z</time>
      </trkpt>
      <trkpt lat="43.66364" lon="6.82422">
        <ele>656.5</ele>
        <time>2021-05-02T08:34:46.000Z</time>
      </trkpt>
      <trkpt lat="43.66364" lon="6.82424">
        <ele>656.3</ele>
        <time>2021-05-02T08:34:47.000Z</time>
      </trkpt>
      <trkpt lat="43.66362" lon="6.82426">
        <ele>656.5</ele>
        <time>2021-05-02T08:34:48.000Z</time>
      </trkpt>
      <trkpt lat="43.66361" lon="6.82429">
        <ele>656.8</ele>
        <time>2021-05-02T08:34:49.000Z</time>
      </trkpt>
      <trkpt lat="43.66359" lon="6.82432">
        <ele>657.2</ele>
        <time>2021-05-02T08:34:50.000Z</time>
      </trkpt>
      <trkpt lat="43.66358" lon="6.82434">
        <ele>657.2</ele>
        <time>2021-05-02T08:34:51.000Z</time>
      </trkpt>
      <trkpt lat="43.66358" lon="6.82437">
        <ele>657.5</ele>
        <time>2021-05-02T08:34:52.000Z</time>
      </trkpt>
      <trkpt lat="43.66358" lon="6.82441">
        <ele>657.8</ele>
        <time>2021-05-02T08:34:53.000Z</time>
      </trkpt>
      <trkpt lat="43.66358" lon="6.82444">
        <ele>658.1</ele>
        <time>2021-05-02T08:34:54.000Z</time>
      </trkpt>
      <trkpt lat="43.66357" lon="6.82447">
        <ele>658.2</ele>
        <time>2021-05-02T08:34:55.000Z</time>
      </trkpt>
      <trkpt lat="43.66356" lon="6.82451">
        <ele>658.6</ele>
        <time>2021-05-02T08:34:56.000Z</time>
      </trkpt>
      <trkpt lat="43.66355" lon="6.82454">
        <ele>658.6</ele>
        <time>2021-05-02T08:34:57.000Z</time>
      </trkpt>
      <trkpt lat="43.66353" lon="6.82458">
        <ele>658.5</ele>
        <time>2021-05-02T08:34:58.000Z</time>
      </trkpt>
      <trkpt lat="43.66352" lon="6.82463">
        <ele>658.9</ele>
        <time>2021-05-02T08:34:59.000Z</time>
      </trkpt>
      <trkpt lat="43.6635" lon="6.82468">
        <ele>659.1</ele>
        <time>2021-05-02T08:35:00.000Z</time>
      </trkpt>
      <trkpt lat="43.66349" lon="6.82473">
        <ele>659.5</ele>
        <time>2021-05-02T08:35:01.000Z</time>
      </trkpt>
      <trkpt lat="43.66347" lon="6.82477">
        <ele>660.1</ele>
        <time>2021-05-02T08:35:02.000Z</time>
      </trkpt>
      <trkpt lat="43.66345" lon="6.82482">
        <ele>660.5</ele>
        <time>2021-05-02T08:35:03.000Z</time>
      </trkpt>
      <trkpt lat="43.66343" lon="6.82488">
        <ele>660.1</ele>
        <time>2021-05-02T08:35:04.000Z</time>
      </trkpt>
      <trkpt lat="43.66341" lon="6.82494">
        <ele>659.1</ele>
        <time>2021-05-02T08:35:05.000Z</time>
      </trkpt>
      <trkpt lat="43.66339" lon="6.82499">
        <ele>659</ele>
        <time>2021-05-02T08:35:06.000Z</time>
      </trkpt>
      <trkpt lat="43.66337" lon="6.82504">
        <ele>658.9</ele>
        <time>2021-05-02T08:35:07.000Z</time>
      </trkpt>
      <trkpt lat="43.66336" lon="6.8251">
        <ele>658.1</ele>
        <time>2021-05-02T08:35:08.000Z</time>
      </trkpt>
      <trkpt lat="43.66334" lon="6.82515">
        <ele>657.2</ele>
        <time>2021-05-02T08:35:09.000Z</time>
      </trkpt>
      <trkpt lat="43.66332" lon="6.8252">
        <ele>656.8</ele>
        <time>2021-05-02T08:35:10.000Z</time>
      </trkpt>
      <trkpt lat="43.6633" lon="6.82526">
        <ele>655.4</ele>
        <time>2021-05-02T08:35:11.000Z</time>
      </trkpt>
      <trkpt lat="43.66328" lon="6.82532">
        <ele>654.8</ele>
        <time>2021-05-02T08:35:12.000Z</time>
      </trkpt>
      <trkpt lat="43.66325" lon="6.82537">
        <ele>654</ele>
        <time>2021-05-02T08:35:13.000Z</time>
      </trkpt>
      <trkpt lat="43.66322" lon="6.82543">
        <ele>653</ele>
        <time>2021-05-02T08:35:14.000Z</time>
      </trkpt>
      <trkpt lat="43.66319" lon="6.8255">
        <ele>652.4</ele>
        <time>2021-05-02T08:35:15.000Z</time>
      </trkpt>
      <trkpt lat="43.66316" lon="6.82556">
        <ele>651.7</ele>
        <time>2021-05-02T08:35:16.000Z</time>
      </trkpt>
      <trkpt lat="43.66315" lon="6.82563">
        <ele>650.2</ele>
        <time>2021-05-02T08:35:17.000Z</time>
      </trkpt>
      <trkpt lat="43.66314" lon="6.8257">
        <ele>648.3</ele>
        <time>2021-05-02T08:35:18.000Z</time>
      </trkpt>
      <trkpt lat="43.66313" lon="6.82577">
        <ele>646.5</ele>
        <time>2021-05-02T08:35:19.000Z</time>
      </trkpt>
      <trkpt lat="43.66313" lon="6.82583">
        <ele>645.1</ele>
        <time>2021-05-02T08:35:20.000Z</time>
      </trkpt>
      <trkpt lat="43.66311" lon="6.82589">
        <ele>642.9</ele>
        <time>2021-05-02T08:35:21.000Z</time>
      </trkpt>
      <trkpt lat="43.66308" lon="6.82597">
        <ele>640.9</ele>
        <time>2021-05-02T08:35:22.000Z</time>
      </trkpt>
      <trkpt lat="43.66305" lon="6.82604">
        <ele>639.8</ele>
        <time>2021-05-02T08:35:23.000Z</time>
      </trkpt>
      <trkpt lat="43.66301" lon="6.82613">
        <ele>638.2</ele>
        <time>2021-05-02T08:35:24.000Z</time>
      </trkpt>
      <trkpt lat="43.66298" lon="6.82621">
        <ele>637.6</ele>
        <time>2021-05-02T08:35:25.000Z</time>
      </trkpt>
      <trkpt lat="43.66295" lon="6.82629">
        <ele>637.3</ele>
        <time>2021-05-02T08:35:26.000Z</time>
      </trkpt>
      <trkpt lat="43.66293" lon="6.82638">
        <ele>636.4</ele>
        <time>2021-05-02T08:35:27.000Z</time>
      </trkpt>
      <trkpt lat="43.66292" lon="6.82646">
        <ele>636</ele>
        <time>2021-05-02T08:35:28.000Z</time>
      </trkpt>
      <trkpt lat="43.66292" lon="6.82654">
        <ele>635.8</ele>
        <time>2021-05-02T08:35:29.000Z</time>
      </trkpt>
      <trkpt lat="43.6629" lon="6.82662">
        <ele>635.8</ele>
        <time>2021-05-02T08:35:30.000Z</time>
      </trkpt>
      <trkpt lat="43.66289" lon="6.82671">
        <ele>635.5</ele>
        <time>2021-05-02T08:35:31.000Z</time>
      </trkpt>
      <trkpt lat="43.66285" lon="6.82679">
        <ele>635.6</ele>
        <time>2021-05-02T08:35:32.000Z</time>
      </trkpt>
      <trkpt lat="43.66283" lon="6.82687">
        <ele>635.7</ele>
        <time>2021-05-02T08:35:33.000Z</time>
      </trkpt>
      <trkpt lat="43.66282" lon="6.82694">
        <ele>635.6</ele>
        <time>2021-05-02T08:35:34.000Z</time>
      </trkpt>
      <trkpt lat="43.66282" lon="6.82701">
        <ele>635.5</ele>
        <time>2021-05-02T08:35:35.000Z</time>
      </trkpt>
      <trkpt lat="43.66282" lon="6.82706">
        <ele>635.5</ele>
        <time>2021-05-02T08:35:36.000Z</time>
      </trkpt>
      <trkpt lat="43.66281" lon="6.82711">
        <ele>635.2</ele>
        <time>2021-05-02T08:35:37.000Z</time>
      </trkpt>
      <trkpt lat="43.66279" lon="6.82716">
        <ele>635.5</ele>
        <time>2021-05-02T08:35:38.000Z</time>
      </trkpt>
      <trkpt lat="43.66277" lon="6.82721">
        <ele>635.6</ele>
        <time>2021-05-02T08:35:39.000Z</time>
      </trkpt>
      <trkpt lat="43.66274" lon="6.82725">
        <ele>636.4</ele>
        <time>2021-05-02T08:35:40.000Z</time>
      </trkpt>
      <trkpt lat="43.66271" lon="6.82728">
        <ele>635.5</ele>
        <time>2021-05-02T08:35:41.000Z</time>
      </trkpt>
      <trkpt lat="43.66267" lon="6.82732">
        <ele>635.1</ele>
        <time>2021-05-02T08:35:42.000Z</time>
      </trkpt>
      <trkpt lat="43.66264" lon="6.82733">
        <ele>635.2</ele>
        <time>2021-05-02T08:35:43.000Z</time>
      </trkpt>
      <trkpt lat="43.66262" lon="6.82734">
        <ele>635.7</ele>
        <time>2021-05-02T08:35:44.000Z</time>
      </trkpt>
      <trkpt lat="43.66261" lon="6.82735">
        <ele>635.5</ele>
        <time>2021-05-02T08:35:46.000Z</time>
      </trkpt>
      <trkpt lat="43.6626" lon="6.82735">
        <ele>634.5</ele>
        <time>2021-05-02T08:37:14.000Z</time>
      </trkpt>
      <trkpt lat="43.66257" lon="6.82734">
        <ele>634.5</ele>
        <time>2021-05-02T08:37:15.000Z</time>
      </trkpt>
      <trkpt lat="43.66255" lon="6.82734">
        <ele>634.5</ele>
        <time>2021-05-02T08:37:16.000Z</time>
      </trkpt>
      <trkpt lat="43.66253" lon="6.82733">
        <ele>634.5</ele>
        <time>2021-05-02T08:37:17.000Z</time>
      </trkpt>
      <trkpt lat="43.66251" lon="6.82731">
        <ele>634.4</ele>
        <time>2021-05-02T08:37:18.000Z</time>
      </trkpt>
      <trkpt lat="43.66249" lon="6.82731">
        <ele>634.5</ele>
        <time>2021-05-02T08:37:19.000Z</time>
      </trkpt>
      <trkpt lat="43.66247" lon="6.8273">
        <ele>634.5</ele>
        <time>2021-05-02T08:37:20.000Z</time>
      </trkpt>
      <trkpt lat="43.66245" lon="6.8273">
        <ele>634.6</ele>
        <time>2021-05-02T08:37:21.000Z</time>
      </trkpt>
      <trkpt lat="43.66243" lon="6.82732">
        <ele>634.6</ele>
        <time>2021-05-02T08:37:22.000Z</time>
      </trkpt>
      <trkpt lat="43.66241" lon="6.82734">
        <ele>634.4</ele>
        <time>2021-05-02T08:37:23.000Z</time>
      </trkpt>
      <trkpt lat="43.66238" lon="6.82737">
        <ele>634.2</ele>
        <time>2021-05-02T08:37:24.000Z</time>
      </trkpt>
      <trkpt lat="43.66237" lon="6.8274">
        <ele>634.1</ele>
        <time>2021-05-02T08:37:25.000Z</time>
      </trkpt>
      <trkpt lat="43.66237" lon="6.82742">
        <ele>634</ele>
        <time>2021-05-02T08:37:26.000Z</time>
      </trkpt>
      <trkpt lat="43.66237" lon="6.82745">
        <ele>634.2</ele>
        <time>2021-05-02T08:37:27.000Z</time>
      </trkpt>
      <trkpt lat="43.66236" lon="6.82749">
        <ele>634.2</ele>
        <time>2021-05-02T08:37:28.000Z</time>
      </trkpt>
      <trkpt lat="43.66236" lon="6.82752">
        <ele>633.6</ele>
        <time>2021-05-02T08:37:29.000Z</time>
      </trkpt>
      <trkpt lat="43.66237" lon="6.82756">
        <ele>633.5</ele>
        <time>2021-05-02T08:37:30.000Z</time>
      </trkpt>
      <trkpt lat="43.66236" lon="6.82763">
        <ele>632.5</ele>
        <time>2021-05-02T08:37:31.000Z</time>
      </trkpt>
      <trkpt lat="43.66235" lon="6.82767">
        <ele>632.3</ele>
        <time>2021-05-02T08:37:32.000Z</time>
      </trkpt>
      <trkpt lat="43.66234" lon="6.82771">
        <ele>632.7</ele>
        <time>2021-05-02T08:37:33.000Z</time>
      </trkpt>
      <trkpt lat="43.66233" lon="6.82776">
        <ele>632</ele>
        <time>2021-05-02T08:37:34.000Z</time>
      </trkpt>
      <trkpt lat="43.66232" lon="6.8278">
        <ele>631.7</ele>
        <time>2021-05-02T08:37:35.000Z</time>
      </trkpt>
      <trkpt lat="43.66231" lon="6.82783">
        <ele>631.1</ele>
        <time>2021-05-02T08:37:36.000Z</time>
      </trkpt>
      <trkpt lat="43.6623" lon="6.82787">
        <ele>631</ele>
        <time>2021-05-02T08:37:37.000Z</time>
      </trkpt>
      <trkpt lat="43.66229" lon="6.8279">
        <ele>631</ele>
        <time>2021-05-02T08:37:38.000Z</time>
      </trkpt>
      <trkpt lat="43.66228" lon="6.82793">
        <ele>631.5</ele>
        <time>2021-05-02T08:37:39.000Z</time>
      </trkpt>
      <trkpt lat="43.66226" lon="6.82795">
        <ele>632.2</ele>
        <time>2021-05-02T08:37:40.000Z</time>
      </trkpt>
      <trkpt lat="43.66226" lon="6.82798">
        <ele>632</ele>
        <time>2021-05-02T08:37:41.000Z</time>
      </trkpt>
      <trkpt lat="43.66225" lon="6.82801">
        <ele>632.6</ele>
        <time>2021-05-02T08:37:42.000Z</time>
      </trkpt>
      <trkpt lat="43.66225" lon="6.82803">
        <ele>632.8</ele>
        <time>2021-05-02T08:37:43.000Z</time>
      </trkpt>
      <trkpt lat="43.66224" lon="6.82806">
        <ele>632.5</ele>
        <time>2021-05-02T08:37:44.000Z</time>
      </trkpt>
      <trkpt lat="43.66223" lon="6.8281">
        <ele>632.5</ele>
        <time>2021-05-02T08:37:45.000Z</time>
      </trkpt>
      <trkpt lat="43.66223" lon="6.82813">
        <ele>632.2</ele>
        <time>2021-05-02T08:37:46.000Z</time>
      </trkpt>
      <trkpt lat="43.66224" lon="6.82812">
        <ele>632.3</ele>
        <time>2021-05-02T08:38:04.000Z</time>
      </trkpt>
      <trkpt lat="43.66223" lon="6.82812">
        <ele>631.9</ele>
        <time>2021-05-02T08:38:07.000Z</time>
      </trkpt>
      <trkpt lat="43.66216" lon="6.82819">
        <ele>632.5</ele>
        <time>2021-05-02T08:38:23.000Z</time>
      </trkpt>
      <trkpt lat="43.66214" lon="6.8282">
        <ele>632.6</ele>
        <time>2021-05-02T08:38:24.000Z</time>
      </trkpt>
      <trkpt lat="43.66213" lon="6.82821">
        <ele>632.6</ele>
        <time>2021-05-02T08:38:25.000Z</time>
      </trkpt>
      <trkpt lat="43.66212" lon="6.82821">
        <ele>632.7</ele>
        <time>2021-05-02T08:38:26.000Z</time>
      </trkpt>
      <trkpt lat="43.66211" lon="6.82822">
        <ele>632.8</ele>
        <time>2021-05-02T08:38:27.000Z</time>
      </trkpt>
      <trkpt lat="43.66208" lon="6.82823">
        <ele>633.2</ele>
        <time>2021-05-02T08:38:29.000Z</time>
      </trkpt>
      <trkpt lat="43.66207" lon="6.82825">
        <ele>633.3</ele>
        <time>2021-05-02T08:38:30.000Z</time>
      </trkpt>
      <trkpt lat="43.66206" lon="6.82827">
        <ele>633.5</ele>
        <time>2021-05-02T08:38:31.000Z</time>
      </trkpt>
      <trkpt lat="43.66205" lon="6.82828">
        <ele>633.6</ele>
        <time>2021-05-02T08:38:32.000Z</time>
      </trkpt>
      <trkpt lat="43.66203" lon="6.8283">
        <ele>633.7</ele>
        <time>2021-05-02T08:38:33.000Z</time>
      </trkpt>
      <trkpt lat="43.66201" lon="6.82831">
        <ele>633.9</ele>
        <time>2021-05-02T08:38:34.000Z</time>
      </trkpt>
      <trkpt lat="43.662" lon="6.82833">
        <ele>634</ele>
        <time>2021-05-02T08:38:35.000Z</time>
      </trkpt>
      <trkpt lat="43.66199" lon="6.82836">
        <ele>633.9</ele>
        <time>2021-05-02T08:38:36.000Z</time>
      </trkpt>
      <trkpt lat="43.66197" lon="6.82839">
        <ele>634.1</ele>
        <time>2021-05-02T08:38:37.000Z</time>
      </trkpt>
      <trkpt lat="43.66195" lon="6.82842">
        <ele>634.1</ele>
        <time>2021-05-02T08:38:38.000Z</time>
      </trkpt>
      <trkpt lat="43.66194" lon="6.82846">
        <ele>634.2</ele>
        <time>2021-05-02T08:38:39.000Z</time>
      </trkpt>
      <trkpt lat="43.66193" lon="6.82849">
        <ele>634.2</ele>
        <time>2021-05-02T08:38:40.000Z</time>
      </trkpt>
      <trkpt lat="43.66192" lon="6.82852">
        <ele>634.4</ele>
        <time>2021-05-02T08:38:41.000Z</time>
      </trkpt>
      <trkpt lat="43.6619" lon="6.82854">
        <ele>634.5</ele>
        <time>2021-05-02T08:38:42.000Z</time>
      </trkpt>
      <trkpt lat="43.66189" lon="6.82857">
        <ele>634.9</ele>
        <time>2021-05-02T08:38:43.000Z</time>
      </trkpt>
      <trkpt lat="43.66188" lon="6.82859">
        <ele>635.1</ele>
        <time>2021-05-02T08:38:44.000Z</time>
      </trkpt>
      <trkpt lat="43.66186" lon="6.82862">
        <ele>635</ele>
        <time>2021-05-02T08:38:45.000Z</time>
      </trkpt>
      <trkpt lat="43.66184" lon="6.82864">
        <ele>635.1</ele>
        <time>2021-05-02T08:38:46.000Z</time>
      </trkpt>
      <trkpt lat="43.66183" lon="6.82866">
        <ele>634.6</ele>
        <time>2021-05-02T08:38:47.000Z</time>
      </trkpt>
      <trkpt lat="43.66182" lon="6.82867">
        <ele>634.1</ele>
        <time>2021-05-02T08:38:48.000Z</time>
      </trkpt>
      <trkpt lat="43.6618" lon="6.82869">
        <ele>633.7</ele>
        <time>2021-05-02T08:38:49.000Z</time>
      </trkpt>
      <trkpt lat="43.66178" lon="6.82872">
        <ele>633.2</ele>
        <time>2021-05-02T08:38:50.000Z</time>
      </trkpt>
      <trkpt lat="43.66176" lon="6.82875">
        <ele>633</ele>
        <time>2021-05-02T08:38:51.000Z</time>
      </trkpt>
      <trkpt lat="43.66174" lon="6.82877">
        <ele>633</ele>
        <time>2021-05-02T08:38:52.000Z</time>
      </trkpt>
      <trkpt lat="43.66173" lon="6.82878">
        <ele>633</ele>
        <time>2021-05-02T08:38:53.000Z</time>
      </trkpt>
      <trkpt lat="43.66171" lon="6.82879">
        <ele>633</ele>
        <time>2021-05-02T08:38:54.000Z</time>
      </trkpt>
      <trkpt lat="43.66168" lon="6.82879">
        <ele>632.8</ele>
        <time>2021-05-02T08:38:55.000Z</time>
      </trkpt>
      <trkpt lat="43.66166" lon="6.82878">
        <ele>632.4</ele>
        <time>2021-05-02T08:38:56.000Z</time>
      </trkpt>
      <trkpt lat="43.66164" lon="6.82878">
        <ele>632.4</ele>
        <time>2021-05-02T08:38:57.000Z</time>
      </trkpt>
      <trkpt lat="43.66161" lon="6.82877">
        <ele>633.3</ele>
        <time>2021-05-02T08:38:58.000Z</time>
      </trkpt>
      <trkpt lat="43.6616" lon="6.82878">
        <ele>633.2</ele>
        <time>2021-05-02T08:38:59.000Z</time>
      </trkpt>
      <trkpt lat="43.66158" lon="6.82879">
        <ele>633.1</ele>
        <time>2021-05-02T08:39:00.000Z</time>
      </trkpt>
      <trkpt lat="43.66157" lon="6.8288">
        <ele>632.7</ele>
        <time>2021-05-02T08:39:01.000Z</time>
      </trkpt>
      <trkpt lat="43.66156" lon="6.82881">
        <ele>632.3</ele>
        <time>2021-05-02T08:39:02.000Z</time>
      </trkpt>
      <trkpt lat="43.66155" lon="6.82881">
        <ele>632.4</ele>
        <time>2021-05-02T08:39:03.000Z</time>
      </trkpt>
      <trkpt lat="43.66154" lon="6.82882">
        <ele>632.3</ele>
        <time>2021-05-02T08:39:04.000Z</time>
      </trkpt>
      <trkpt lat="43.66153" lon="6.82884">
        <ele>632.5</ele>
        <time>2021-05-02T08:39:05.000Z</time>
      </trkpt>
      <trkpt lat="43.66152" lon="6.82887">
        <ele>632.6</ele>
        <time>2021-05-02T08:39:06.000Z</time>
      </trkpt>
      <trkpt lat="43.66151" lon="6.82889">
        <ele>633.1</ele>
        <time>2021-05-02T08:39:07.000Z</time>
      </trkpt>
      <trkpt lat="43.6615" lon="6.82892">
        <ele>633.1</ele>
        <time>2021-05-02T08:39:08.000Z</time>
      </trkpt>
      <trkpt lat="43.66148" lon="6.82895">
        <ele>633.1</ele>
        <time>2021-05-02T08:39:09.000Z</time>
      </trkpt>
      <trkpt lat="43.66147" lon="6.82898">
        <ele>633.4</ele>
        <time>2021-05-02T08:39:10.000Z</time>
      </trkpt>
      <trkpt lat="43.66145" lon="6.82901">
        <ele>634</ele>
        <time>2021-05-02T08:39:11.000Z</time>
      </trkpt>
      <trkpt lat="43.66142" lon="6.82904">
        <ele>634.8</ele>
        <time>2021-05-02T08:39:12.000Z</time>
      </trkpt>
      <trkpt lat="43.6614" lon="6.82908">
        <ele>635.6</ele>
        <time>2021-05-02T08:39:13.000Z</time>
      </trkpt>
      <trkpt lat="43.66138" lon="6.82911">
        <ele>636</ele>
        <time>2021-05-02T08:39:14.000Z</time>
      </trkpt>
      <trkpt lat="43.66135" lon="6.82914">
        <ele>636.3</ele>
        <time>2021-05-02T08:39:15.000Z</time>
      </trkpt>
      <trkpt lat="43.66133" lon="6.82917">
        <ele>636.7</ele>
        <time>2021-05-02T08:39:16.000Z</time>
      </trkpt>
      <trkpt lat="43.66131" lon="6.8292">
        <ele>636.9</ele>
        <time>2021-05-02T08:39:17.000Z</time>
      </trkpt>
      <trkpt lat="43.66129" lon="6.82923">
        <ele>636.8</ele>
        <time>2021-05-02T08:39:18.000Z</time>
      </trkpt>
      <trkpt lat="43.66128" lon="6.82925">
        <ele>636.8</ele>
        <time>2021-05-02T08:39:19.000Z</time>
      </trkpt>
      <trkpt lat="43.66126" lon="6.82928">
        <ele>636.7</ele>
        <time>2021-05-02T08:39:20.000Z</time>
      </trkpt>
      <trkpt lat="43.66126" lon="6.8293">
        <ele>637.2</ele>
        <time>2021-05-02T08:39:21.000Z</time>
      </trkpt>
      <trkpt lat="43.66124" lon="6.82931">
        <ele>637.4</ele>
        <time>2021-05-02T08:39:22.000Z</time>
      </trkpt>
      <trkpt lat="43.66123" lon="6.82932">
        <ele>637.9</ele>
        <time>2021-05-02T08:39:23.000Z</time>
      </trkpt>
      <trkpt lat="43.66122" lon="6.82934">
        <ele>638.3</ele>
        <time>2021-05-02T08:39:24.000Z</time>
      </trkpt>
      <trkpt lat="43.66121" lon="6.82935">
        <ele>638.6</ele>
        <time>2021-05-02T08:39:25.000Z</time>
      </trkpt>
      <trkpt lat="43.6612" lon="6.82938">
        <ele>638.7</ele>
        <time>2021-05-02T08:39:26.000Z</time>
      </trkpt>
      <trkpt lat="43.6612" lon="6.82941">
        <ele>638.6</ele>
        <time>2021-05-02T08:39:27.000Z</time>
      </trkpt>
      <trkpt lat="43.6612" lon="6.82944">
        <ele>638.7</ele>
        <time>2021-05-02T08:39:28.000Z</time>
      </trkpt>
      <trkpt lat="43.66118" lon="6.82947">
        <ele>638.9</ele>
        <time>2021-05-02T08:39:29.000Z</time>
      </trkpt>
      <trkpt lat="43.66116" lon="6.82951">
        <ele>638.8</ele>
        <time>2021-05-02T08:39:30.000Z</time>
      </trkpt>
      <trkpt lat="43.66115" lon="6.82954">
        <ele>638.8</ele>
        <time>2021-05-02T08:39:31.000Z</time>
      </trkpt>
      <trkpt lat="43.66113" lon="6.82957">
        <ele>638.8</ele>
        <time>2021-05-02T08:39:32.000Z</time>
      </trkpt>
      <trkpt lat="43.66112" lon="6.8296">
        <ele>638.8</ele>
        <time>2021-05-02T08:39:33.000Z</time>
      </trkpt>
      <trkpt lat="43.66111" lon="6.82963">
        <ele>639.1</ele>
        <time>2021-05-02T08:39:34.000Z</time>
      </trkpt>
      <trkpt lat="43.66109" lon="6.82966">
        <ele>638.7</ele>
        <time>2021-05-02T08:39:35.000Z</time>
      </trkpt>
      <trkpt lat="43.66107" lon="6.82969">
        <ele>639.2</ele>
        <time>2021-05-02T08:39:36.000Z</time>
      </trkpt>
      <trkpt lat="43.66106" lon="6.82973">
        <ele>638.7</ele>
        <time>2021-05-02T08:39:37.000Z</time>
      </trkpt>
      <trkpt lat="43.66104" lon="6.82976">
        <ele>638.6</ele>
        <time>2021-05-02T08:39:38.000Z</time>
      </trkpt>
      <trkpt lat="43.66103" lon="6.8298">
        <ele>638.3</ele>
        <time>2021-05-02T08:39:39.000Z</time>
      </trkpt>
      <trkpt lat="43.66102" lon="6.82984">
        <ele>638.1</ele>
        <time>2021-05-02T08:39:40.000Z</time>
      </trkpt>
      <trkpt lat="43.66101" lon="6.82987">
        <ele>636.9</ele>
        <time>2021-05-02T08:39:41.000Z</time>
      </trkpt>
      <trkpt lat="43.661" lon="6.82991">
        <ele>635.5</ele>
        <time>2021-05-02T08:39:42.000Z</time>
      </trkpt>
      <trkpt lat="43.66097" lon="6.82995">
        <ele>634.3</ele>
        <time>2021-05-02T08:39:43.000Z</time>
      </trkpt>
      <trkpt lat="43.66095" lon="6.83">
        <ele>633.8</ele>
        <time>2021-05-02T08:39:44.000Z</time>
      </trkpt>
      <trkpt lat="43.66093" lon="6.83006">
        <ele>633</ele>
        <time>2021-05-02T08:39:45.000Z</time>
      </trkpt>
      <trkpt lat="43.6609" lon="6.83012">
        <ele>632.6</ele>
        <time>2021-05-02T08:39:46.000Z</time>
      </trkpt>
      <trkpt lat="43.66089" lon="6.83017">
        <ele>632.4</ele>
        <time>2021-05-02T08:39:47.000Z</time>
      </trkpt>
      <trkpt lat="43.66087" lon="6.83022">
        <ele>632.7</ele>
        <time>2021-05-02T08:39:48.000Z</time>
      </trkpt>
      <trkpt lat="43.66085" lon="6.83028">
        <ele>632.3</ele>
        <time>2021-05-02T08:39:49.000Z</time>
      </trkpt>
      <trkpt lat="43.66084" lon="6.83033">
        <ele>631.4</ele>
        <time>2021-05-02T08:39:50.000Z</time>
      </trkpt>
      <trkpt lat="43.66083" lon="6.83038">
        <ele>630.7</ele>
        <time>2021-05-02T08:39:51.000Z</time>
      </trkpt>
      <trkpt lat="43.66082" lon="6.83042">
        <ele>630.4</ele>
        <time>2021-05-02T08:39:52.000Z</time>
      </trkpt>
      <trkpt lat="43.66081" lon="6.83047">
        <ele>629.5</ele>
        <time>2021-05-02T08:39:53.000Z</time>
      </trkpt>
      <trkpt lat="43.66079" lon="6.83051">
        <ele>628.8</ele>
        <time>2021-05-02T08:39:54.000Z</time>
      </trkpt>
      <trkpt lat="43.66076" lon="6.83056">
        <ele>627.6</ele>
        <time>2021-05-02T08:39:55.000Z</time>
      </trkpt>
      <trkpt lat="43.66073" lon="6.83062">
        <ele>626.6</ele>
        <time>2021-05-02T08:39:56.000Z</time>
      </trkpt>
      <trkpt lat="43.66069" lon="6.83068">
        <ele>625.9</ele>
        <time>2021-05-02T08:39:57.000Z</time>
      </trkpt>
      <trkpt lat="43.66067" lon="6.83073">
        <ele>625.2</ele>
        <time>2021-05-02T08:39:58.000Z</time>
      </trkpt>
      <trkpt lat="43.66063" lon="6.83078">
        <ele>624.6</ele>
        <time>2021-05-02T08:39:59.000Z</time>
      </trkpt>
      <trkpt lat="43.66061" lon="6.83083">
        <ele>624</ele>
        <time>2021-05-02T08:40:00.000Z</time>
      </trkpt>
      <trkpt lat="43.66058" lon="6.83089">
        <ele>623.4</ele>
        <time>2021-05-02T08:40:01.000Z</time>
      </trkpt>
      <trkpt lat="43.66055" lon="6.83094">
        <ele>623</ele>
        <time>2021-05-02T08:40:02.000Z</time>
      </trkpt>
      <trkpt lat="43.66053" lon="6.83099">
        <ele>622.6</ele>
        <time>2021-05-02T08:40:03.000Z</time>
      </trkpt>
      <trkpt lat="43.66051" lon="6.83106">
        <ele>621.7</ele>
        <time>2021-05-02T08:40:04.000Z</time>
      </trkpt>
      <trkpt lat="43.6605" lon="6.83112">
        <ele>620.7</ele>
        <time>2021-05-02T08:40:05.000Z</time>
      </trkpt>
      <trkpt lat="43.66048" lon="6.83119">
        <ele>619.3</ele>
        <time>2021-05-02T08:40:06.000Z</time>
      </trkpt>
      <trkpt lat="43.66045" lon="6.83125">
        <ele>619.4</ele>
        <time>2021-05-02T08:40:07.000Z</time>
      </trkpt>
      <trkpt lat="43.66043" lon="6.83131">
        <ele>619</ele>
        <time>2021-05-02T08:40:08.000Z</time>
      </trkpt>
      <trkpt lat="43.66041" lon="6.83137">
        <ele>618.1</ele>
        <time>2021-05-02T08:40:09.000Z</time>
      </trkpt>
      <trkpt lat="43.66039" lon="6.83143">
        <ele>616.7</ele>
        <time>2021-05-02T08:40:10.000Z</time>
      </trkpt>
      <trkpt lat="43.66037" lon="6.83148">
        <ele>615.8</ele>
        <time>2021-05-02T08:40:11.000Z</time>
      </trkpt>
      <trkpt lat="43.66036" lon="6.83153">
        <ele>614.9</ele>
        <time>2021-05-02T08:40:12.000Z</time>
      </trkpt>
      <trkpt lat="43.66034" lon="6.83157">
        <ele>614.3</ele>
        <time>2021-05-02T08:40:13.000Z</time>
      </trkpt>
      <trkpt lat="43.66033" lon="6.83159">
        <ele>614</ele>
        <time>2021-05-02T08:40:14.000Z</time>
      </trkpt>
      <trkpt lat="43.66033" lon="6.8316">
        <ele>613.4</ele>
        <time>2021-05-02T08:40:15.000Z</time>
      </trkpt>
      <trkpt lat="43.66029" lon="6.83169">
        <ele>612.5</ele>
        <time>2021-05-02T08:41:17.000Z</time>
      </trkpt>
      <trkpt lat="43.66028" lon="6.83172">
        <ele>612.4</ele>
        <time>2021-05-02T08:41:18.000Z</time>
      </trkpt>
      <trkpt lat="43.66027" lon="6.83174">
        <ele>612.3</ele>
        <time>2021-05-02T08:41:19.000Z</time>
      </trkpt>
      <trkpt lat="43.66027" lon="6.83176">
        <ele>612.2</ele>
        <time>2021-05-02T08:41:20.000Z</time>
      </trkpt>
      <trkpt lat="43.66027" lon="6.83178">
        <ele>612.1</ele>
        <time>2021-05-02T08:41:21.000Z</time>
      </trkpt>
      <trkpt lat="43.66028" lon="6.8318">
        <ele>612</ele>
        <time>2021-05-02T08:41:22.000Z</time>
      </trkpt>
      <trkpt lat="43.66028" lon="6.83184">
        <ele>611.9</ele>
        <time>2021-05-02T08:41:23.000Z</time>
      </trkpt>
      <trkpt lat="43.66027" lon="6.83187">
        <ele>611.9</ele>
        <time>2021-05-02T08:41:24.000Z</time>
      </trkpt>
      <trkpt lat="43.66026" lon="6.83191">
        <ele>611.7</ele>
        <time>2021-05-02T08:41:25.000Z</time>
      </trkpt>
      <trkpt lat="43.66025" lon="6.83195">
        <ele>611.5</ele>
        <time>2021-05-02T08:41:26.000Z</time>
      </trkpt>
      <trkpt lat="43.66022" lon="6.832">
        <ele>611.1</ele>
        <time>2021-05-02T08:41:27.000Z</time>
      </trkpt>
      <trkpt lat="43.66019" lon="6.83203">
        <ele>610.7</ele>
        <time>2021-05-02T08:41:28.000Z</time>
      </trkpt>
      <trkpt lat="43.66017" lon="6.83206">
        <ele>610.1</ele>
        <time>2021-05-02T08:41:29.000Z</time>
      </trkpt>
      <trkpt lat="43.66015" lon="6.83208">
        <ele>609.7</ele>
        <time>2021-05-02T08:41:30.000Z</time>
      </trkpt>
      <trkpt lat="43.66012" lon="6.8321">
        <ele>609.4</ele>
        <time>2021-05-02T08:41:31.000Z</time>
      </trkpt>
      <trkpt lat="43.66009" lon="6.83213">
        <ele>608.8</ele>
        <time>2021-05-02T08:41:32.000Z</time>
      </trkpt>
      <trkpt lat="43.66006" lon="6.83216">
        <ele>608.5</ele>
        <time>2021-05-02T08:41:33.000Z</time>
      </trkpt>
      <trkpt lat="43.66001" lon="6.83222">
        <ele>607.8</ele>
        <time>2021-05-02T08:41:34.000Z</time>
      </trkpt>
      <trkpt lat="43.65995" lon="6.83227">
        <ele>607.4</ele>
        <time>2021-05-02T08:41:35.000Z</time>
      </trkpt>
      <trkpt lat="43.6599" lon="6.83234">
        <ele>607.4</ele>
        <time>2021-05-02T08:41:36.000Z</time>
      </trkpt>
      <trkpt lat="43.65985" lon="6.83241">
        <ele>607.2</ele>
        <time>2021-05-02T08:41:37.000Z</time>
      </trkpt>
      <trkpt lat="43.65981" lon="6.83246">
        <ele>607</ele>
        <time>2021-05-02T08:41:38.000Z</time>
      </trkpt>
      <trkpt lat="43.65976" lon="6.83251">
        <ele>607.1</ele>
        <time>2021-05-02T08:41:39.000Z</time>
      </trkpt>
      <trkpt lat="43.65972" lon="6.83256">
        <ele>607.2</ele>
        <time>2021-05-02T08:41:40.000Z</time>
      </trkpt>
      <trkpt lat="43.65968" lon="6.83261">
        <ele>607.3</ele>
        <time>2021-05-02T08:41:41.000Z</time>
      </trkpt>
      <trkpt lat="43.65964" lon="6.83266">
        <ele>607.8</ele>
        <time>2021-05-02T08:41:42.000Z</time>
      </trkpt>
      <trkpt lat="43.65961" lon="6.8327">
        <ele>608</ele>
        <time>2021-05-02T08:41:43.000Z</time>
      </trkpt>
      <trkpt lat="43.65957" lon="6.83273">
        <ele>608.2</ele>
        <time>2021-05-02T08:41:44.000Z</time>
      </trkpt>
      <trkpt lat="43.65954" lon="6.83275">
        <ele>608</ele>
        <time>2021-05-02T08:41:45.000Z</time>
      </trkpt>
      <trkpt lat="43.6595" lon="6.83277">
        <ele>607.7</ele>
        <time>2021-05-02T08:41:46.000Z</time>
      </trkpt>
      <trkpt lat="43.65946" lon="6.83279">
        <ele>607.8</ele>
        <time>2021-05-02T08:41:47.000Z</time>
      </trkpt>
      <trkpt lat="43.65943" lon="6.8328">
        <ele>607.7</ele>
        <time>2021-05-02T08:41:48.000Z</time>
      </trkpt>
      <trkpt lat="43.65939" lon="6.83281">
        <ele>607.2</ele>
        <time>2021-05-02T08:41:49.000Z</time>
      </trkpt>
      <trkpt lat="43.65935" lon="6.83281">
        <ele>607.1</ele>
        <time>2021-05-02T08:41:50.000Z</time>
      </trkpt>
      <trkpt lat="43.65932" lon="6.83284">
        <ele>606.7</ele>
        <time>2021-05-02T08:41:51.000Z</time>
      </trkpt>
      <trkpt lat="43.65929" lon="6.83286">
        <ele>606.4</ele>
        <time>2021-05-02T08:41:52.000Z</time>
      </trkpt>
      <trkpt lat="43.65926" lon="6.83288">
        <ele>606.7</ele>
        <time>2021-05-02T08:41:53.000Z</time>
      </trkpt>
      <trkpt lat="43.65924" lon="6.83289">
        <ele>606</ele>
        <time>2021-05-02T08:41:54.000Z</time>
      </trkpt>
      <trkpt lat="43.65922" lon="6.8329">
        <ele>605.2</ele>
        <time>2021-05-02T08:41:55.000Z</time>
      </trkpt>
      <trkpt lat="43.6592" lon="6.8329">
        <ele>604.7</ele>
        <time>2021-05-02T08:41:56.000Z</time>
      </trkpt>
      <trkpt lat="43.65918" lon="6.8329">
        <ele>604.5</ele>
        <time>2021-05-02T08:41:57.000Z</time>
      </trkpt>
      <trkpt lat="43.65915" lon="6.8329">
        <ele>604.1</ele>
        <time>2021-05-02T08:41:58.000Z</time>
      </trkpt>
      <trkpt lat="43.65913" lon="6.83289">
        <ele>603.3</ele>
        <time>2021-05-02T08:41:59.000Z</time>
      </trkpt>
      <trkpt lat="43.65912" lon="6.83289">
        <ele>602.4</ele>
        <time>2021-05-02T08:42:00.000Z</time>
      </trkpt>
      <trkpt lat="43.6591" lon="6.83289">
        <ele>602</ele>
        <time>2021-05-02T08:42:01.000Z</time>
      </trkpt>
      <trkpt lat="43.65908" lon="6.83289">
        <ele>601.5</ele>
        <time>2021-05-02T08:42:02.000Z</time>
      </trkpt>
      <trkpt lat="43.65907" lon="6.8329">
        <ele>600.9</ele>
        <time>2021-05-02T08:42:03.000Z</time>
      </trkpt>
      <trkpt lat="43.65905" lon="6.8329">
        <ele>600.5</ele>
        <time>2021-05-02T08:42:04.000Z</time>
      </trkpt>
      <trkpt lat="43.65904" lon="6.8329">
        <ele>600.2</ele>
        <time>2021-05-02T08:42:05.000Z</time>
      </trkpt>
      <trkpt lat="43.65902" lon="6.83291">
        <ele>599.7</ele>
        <time>2021-05-02T08:42:06.000Z</time>
      </trkpt>
      <trkpt lat="43.659" lon="6.83291">
        <ele>599.4</ele>
        <time>2021-05-02T08:42:07.000Z</time>
      </trkpt>
      <trkpt lat="43.65898" lon="6.8329">
        <ele>599</ele>
        <time>2021-05-02T08:42:08.000Z</time>
      </trkpt>
      <trkpt lat="43.65896" lon="6.8329">
        <ele>598.5</ele>
        <time>2021-05-02T08:42:09.000Z</time>
      </trkpt>
      <trkpt lat="43.65893" lon="6.8329">
        <ele>598.1</ele>
        <time>2021-05-02T08:42:10.000Z</time>
      </trkpt>
      <trkpt lat="43.65892" lon="6.8329">
        <ele>597.3</ele>
        <time>2021-05-02T08:42:11.000Z</time>
      </trkpt>
      <trkpt lat="43.6589" lon="6.8329">
        <ele>596.9</ele>
        <time>2021-05-02T08:42:12.000Z</time>
      </trkpt>
      <trkpt lat="43.65889" lon="6.83291">
        <ele>595.6</ele>
        <time>2021-05-02T08:42:14.000Z</time>
      </trkpt>
      <trkpt lat="43.65888" lon="6.83291">
        <ele>594.4</ele>
        <time>2021-05-02T08:42:16.000Z</time>
      </trkpt>
      <trkpt lat="43.6588" lon="6.8329">
        <ele>591</ele>
        <time>2021-05-02T08:43:05.000Z</time>
      </trkpt>
      <trkpt lat="43.65879" lon="6.83289">
        <ele>591</ele>
        <time>2021-05-02T08:43:06.000Z</time>
      </trkpt>
      <trkpt lat="43.65876" lon="6.83288">
        <ele>591.1</ele>
        <time>2021-05-02T08:43:07.000Z</time>
      </trkpt>
      <trkpt lat="43.65874" lon="6.83286">
        <ele>591</ele>
        <time>2021-05-02T08:43:08.000Z</time>
      </trkpt>
      <trkpt lat="43.65872" lon="6.83285">
        <ele>590.9</ele>
        <time>2021-05-02T08:43:09.000Z</time>
      </trkpt>
      <trkpt lat="43.6587" lon="6.83284">
        <ele>590.8</ele>
        <time>2021-05-02T08:43:10.000Z</time>
      </trkpt>
      <trkpt lat="43.65868" lon="6.83283">
        <ele>590.7</ele>
        <time>2021-05-02T08:43:11.000Z</time>
      </trkpt>
      <trkpt lat="43.65867" lon="6.83283">
        <ele>590.7</ele>
        <time>2021-05-02T08:43:12.000Z</time>
      </trkpt>
      <trkpt lat="43.65866" lon="6.83282">
        <ele>590.6</ele>
        <time>2021-05-02T08:43:13.000Z</time>
      </trkpt>
      <trkpt lat="43.65863" lon="6.83282">
        <ele>590.4</ele>
        <time>2021-05-02T08:43:14.000Z</time>
      </trkpt>
      <trkpt lat="43.65858" lon="6.83282">
        <ele>590.2</ele>
        <time>2021-05-02T08:43:15.000Z</time>
      </trkpt>
      <trkpt lat="43.65854" lon="6.83281">
        <ele>589.8</ele>
        <time>2021-05-02T08:43:16.000Z</time>
      </trkpt>
      <trkpt lat="43.65851" lon="6.83281">
        <ele>589.5</ele>
        <time>2021-05-02T08:43:17.000Z</time>
      </trkpt>
      <trkpt lat="43.65848" lon="6.83281">
        <ele>589.1</ele>
        <time>2021-05-02T08:43:18.000Z</time>
      </trkpt>
      <trkpt lat="43.65844" lon="6.8328">
        <ele>588.8</ele>
        <time>2021-05-02T08:43:19.000Z</time>
      </trkpt>
      <trkpt lat="43.65841" lon="6.83281">
        <ele>588</ele>
        <time>2021-05-02T08:43:20.000Z</time>
      </trkpt>
      <trkpt lat="43.65838" lon="6.83281">
        <ele>587.2</ele>
        <time>2021-05-02T08:43:21.000Z</time>
      </trkpt>
      <trkpt lat="43.65833" lon="6.83281">
        <ele>585.9</ele>
        <time>2021-05-02T08:43:22.000Z</time>
      </trkpt>
      <trkpt lat="43.6583" lon="6.83281">
        <ele>584.6</ele>
        <time>2021-05-02T08:43:23.000Z</time>
      </trkpt>
      <trkpt lat="43.65827" lon="6.83281">
        <ele>582.6</ele>
        <time>2021-05-02T08:43:24.000Z</time>
      </trkpt>
      <trkpt lat="43.65824" lon="6.8328">
        <ele>581.4</ele>
        <time>2021-05-02T08:43:25.000Z</time>
      </trkpt>
      <trkpt lat="43.65821" lon="6.83278">
        <ele>579.6</ele>
        <time>2021-05-02T08:43:26.000Z</time>
      </trkpt>
      <trkpt lat="43.65819" lon="6.83277">
        <ele>577.7</ele>
        <time>2021-05-02T08:43:27.000Z</time>
      </trkpt>
      <trkpt lat="43.65816" lon="6.83276">
        <ele>577.7</ele>
        <time>2021-05-02T08:43:28.000Z</time>
      </trkpt>
      <trkpt lat="43.65813" lon="6.83275">
        <ele>577.5</ele>
        <time>2021-05-02T08:43:29.000Z</time>
      </trkpt>
      <trkpt lat="43.65811" lon="6.83272">
        <ele>576.9</ele>
        <time>2021-05-02T08:43:30.000Z</time>
      </trkpt>
      <trkpt lat="43.65809" lon="6.83269">
        <ele>577.3</ele>
        <time>2021-05-02T08:43:31.000Z</time>
      </trkpt>
      <trkpt lat="43.65807" lon="6.83267">
        <ele>576.7</ele>
        <time>2021-05-02T08:43:32.000Z</time>
      </trkpt>
      <trkpt lat="43.65805" lon="6.83267">
        <ele>575.9</ele>
        <time>2021-05-02T08:43:33.000Z</time>
      </trkpt>
      <trkpt lat="43.65804" lon="6.83266">
        <ele>575</ele>
        <time>2021-05-02T08:43:34.000Z</time>
      </trkpt>
      <trkpt lat="43.65801" lon="6.83266">
        <ele>574.8</ele>
        <time>2021-05-02T08:43:35.000Z</time>
      </trkpt>
      <trkpt lat="43.65799" lon="6.83266">
        <ele>574.6</ele>
        <time>2021-05-02T08:43:36.000Z</time>
      </trkpt>
      <trkpt lat="43.65796" lon="6.83266">
        <ele>575.7</ele>
        <time>2021-05-02T08:43:37.000Z</time>
      </trkpt>
      <trkpt lat="43.65794" lon="6.83267">
        <ele>576.1</ele>
        <time>2021-05-02T08:43:38.000Z</time>
      </trkpt>
      <trkpt lat="43.65793" lon="6.83266">
        <ele>576.2</ele>
        <time>2021-05-02T08:43:39.000Z</time>
      </trkpt>
      <trkpt lat="43.65793" lon="6.83265">
        <ele>577.2</ele>
        <time>2021-05-02T08:43:41.000Z</time>
      </trkpt>
      <trkpt lat="43.65789" lon="6.83252">
        <ele>579.9</ele>
        <time>2021-05-02T08:49:54.000Z</time>
      </trkpt>
      <trkpt lat="43.65788" lon="6.83251">
        <ele>580.4</ele>
        <time>2021-05-02T08:49:55.000Z</time>
      </trkpt>
      <trkpt lat="43.65786" lon="6.8325">
        <ele>580.9</ele>
        <time>2021-05-02T08:49:56.000Z</time>
      </trkpt>
      <trkpt lat="43.65784" lon="6.83248">
        <ele>581.4</ele>
        <time>2021-05-02T08:49:57.000Z</time>
      </trkpt>
      <trkpt lat="43.65782" lon="6.83247">
        <ele>582.2</ele>
        <time>2021-05-02T08:49:58.000Z</time>
      </trkpt>
      <trkpt lat="43.6578" lon="6.83247">
        <ele>582.9</ele>
        <time>2021-05-02T08:49:59.000Z</time>
      </trkpt>
      <trkpt lat="43.65777" lon="6.83246">
        <ele>583.8</ele>
        <time>2021-05-02T08:50:00.000Z</time>
      </trkpt>
      <trkpt lat="43.65774" lon="6.83246">
        <ele>584.6</ele>
        <time>2021-05-02T08:50:01.000Z</time>
      </trkpt>
      <trkpt lat="43.65771" lon="6.83245">
        <ele>585.5</ele>
        <time>2021-05-02T08:50:02.000Z</time>
      </trkpt>
      <trkpt lat="43.65769" lon="6.83244">
        <ele>586.7</ele>
        <time>2021-05-02T08:50:03.000Z</time>
      </trkpt>
      <trkpt lat="43.65767" lon="6.83243">
        <ele>587.9</ele>
        <time>2021-05-02T08:50:04.000Z</time>
      </trkpt>
      <trkpt lat="43.65765" lon="6.83241">
        <ele>589.3</ele>
        <time>2021-05-02T08:50:05.000Z</time>
      </trkpt>
      <trkpt lat="43.65764" lon="6.83239">
        <ele>590.7</ele>
        <time>2021-05-02T08:50:06.000Z</time>
      </trkpt>
      <trkpt lat="43.65762" lon="6.83238">
        <ele>592.3</ele>
        <time>2021-05-02T08:50:07.000Z</time>
      </trkpt>
      <trkpt lat="43.65761" lon="6.83237">
        <ele>593.6</ele>
        <time>2021-05-02T08:50:08.000Z</time>
      </trkpt>
      <trkpt lat="43.6576" lon="6.83235">
        <ele>595.4</ele>
        <time>2021-05-02T08:50:09.000Z</time>
      </trkpt>
      <trkpt lat="43.65758" lon="6.83233">
        <ele>596.9</ele>
        <time>2021-05-02T08:50:10.000Z</time>
      </trkpt>
      <trkpt lat="43.65755" lon="6.83231">
        <ele>597.8</ele>
        <time>2021-05-02T08:50:11.000Z</time>
      </trkpt>
      <trkpt lat="43.65753" lon="6.83229">
        <ele>598.7</ele>
        <time>2021-05-02T08:50:12.000Z</time>
      </trkpt>
      <trkpt lat="43.65751" lon="6.83227">
        <ele>599.9</ele>
        <time>2021-05-02T08:50:13.000Z</time>
      </trkpt>
      <trkpt lat="43.6575" lon="6.83224">
        <ele>601.2</ele>
        <time>2021-05-02T08:50:14.000Z</time>
      </trkpt>
      <trkpt lat="43.65748" lon="6.83221">
        <ele>602.3</ele>
        <time>2021-05-02T08:50:15.000Z</time>
      </trkpt>
      <trkpt lat="43.65747" lon="6.83219">
        <ele>602.9</ele>
        <time>2021-05-02T08:50:16.000Z</time>
      </trkpt>
      <trkpt lat="43.65746" lon="6.83216">
        <ele>604.1</ele>
        <time>2021-05-02T08:50:17.000Z</time>
      </trkpt>
      <trkpt lat="43.65746" lon="6.83213">
        <ele>604.8</ele>
        <time>2021-05-02T08:50:18.000Z</time>
      </trkpt>
      <trkpt lat="43.65744" lon="6.8321">
        <ele>604.8</ele>
        <time>2021-05-02T08:50:19.000Z</time>
      </trkpt>
      <trkpt lat="43.65741" lon="6.83206">
        <ele>603.8</ele>
        <time>2021-05-02T08:50:20.000Z</time>
      </trkpt>
      <trkpt lat="43.65739" lon="6.83203">
        <ele>602.9</ele>
        <time>2021-05-02T08:50:21.000Z</time>
      </trkpt>
      <trkpt lat="43.65738" lon="6.832">
        <ele>602.3</ele>
        <time>2021-05-02T08:50:22.000Z</time>
      </trkpt>
      <trkpt lat="43.65737" lon="6.83197">
        <ele>601.7</ele>
        <time>2021-05-02T08:50:23.000Z</time>
      </trkpt>
      <trkpt lat="43.65736" lon="6.83193">
        <ele>601.3</ele>
        <time>2021-05-02T08:50:24.000Z</time>
      </trkpt>
      <trkpt lat="43.65734" lon="6.8319">
        <ele>600.5</ele>
        <time>2021-05-02T08:50:25.000Z</time>
      </trkpt>
      <trkpt lat="43.65733" lon="6.83186">
        <ele>599.9</ele>
        <time>2021-05-02T08:50:26.000Z</time>
      </trkpt>
      <trkpt lat="43.65731" lon="6.83182">
        <ele>598.9</ele>
        <time>2021-05-02T08:50:27.000Z</time>
      </trkpt>
      <trkpt lat="43.65729" lon="6.83178">
        <ele>598.3</ele>
        <time>2021-05-02T08:50:28.000Z</time>
      </trkpt>
      <trkpt lat="43.65728" lon="6.83175">
        <ele>598.1</ele>
        <time>2021-05-02T08:50:29.000Z</time>
      </trkpt>
      <trkpt lat="43.65727" lon="6.83173">
        <ele>597.7</ele>
        <time>2021-05-02T08:50:30.000Z</time>
      </trkpt>
      <trkpt lat="43.65725" lon="6.83172">
        <ele>597.3</ele>
        <time>2021-05-02T08:50:31.000Z</time>
      </trkpt>
      <trkpt lat="43.65726" lon="6.83165">
        <ele>597.3</ele>
        <time>2021-05-02T08:50:59.000Z</time>
      </trkpt>
      <trkpt lat="43.65726" lon="6.83163">
        <ele>597.1</ele>
        <time>2021-05-02T08:51:00.000Z</time>
      </trkpt>
      <trkpt lat="43.65726" lon="6.8316">
        <ele>596.9</ele>
        <time>2021-05-02T08:51:01.000Z</time>
      </trkpt>
      <trkpt lat="43.65726" lon="6.83159">
        <ele>596.6</ele>
        <time>2021-05-02T08:51:02.000Z</time>
      </trkpt>
      <trkpt lat="43.65725" lon="6.83157">
        <ele>596.2</ele>
        <time>2021-05-02T08:51:03.000Z</time>
      </trkpt>
      <trkpt lat="43.65723" lon="6.83155">
        <ele>595.8</ele>
        <time>2021-05-02T08:51:04.000Z</time>
      </trkpt>
      <trkpt lat="43.65721" lon="6.83155">
        <ele>595.5</ele>
        <time>2021-05-02T08:51:05.000Z</time>
      </trkpt>
      <trkpt lat="43.65717" lon="6.83156">
        <ele>595</ele>
        <time>2021-05-02T08:51:06.000Z</time>
      </trkpt>
      <trkpt lat="43.65714" lon="6.83156">
        <ele>594.6</ele>
        <time>2021-05-02T08:51:07.000Z</time>
      </trkpt>
      <trkpt lat="43.65712" lon="6.83158">
        <ele>594.3</ele>
        <time>2021-05-02T08:51:08.000Z</time>
      </trkpt>
      <trkpt lat="43.6571" lon="6.83161">
        <ele>594</ele>
        <time>2021-05-02T08:51:09.000Z</time>
      </trkpt>
      <trkpt lat="43.65708" lon="6.83163">
        <ele>593.6</ele>
        <time>2021-05-02T08:51:10.000Z</time>
      </trkpt>
      <trkpt lat="43.65707" lon="6.83164">
        <ele>592.9</ele>
        <time>2021-05-02T08:51:11.000Z</time>
      </trkpt>
      <trkpt lat="43.65705" lon="6.83165">
        <ele>592.6</ele>
        <time>2021-05-02T08:51:12.000Z</time>
      </trkpt>
      <trkpt lat="43.65703" lon="6.83167">
        <ele>592.4</ele>
        <time>2021-05-02T08:51:13.000Z</time>
      </trkpt>
      <trkpt lat="43.65701" lon="6.83169">
        <ele>592.2</ele>
        <time>2021-05-02T08:51:14.000Z</time>
      </trkpt>
      <trkpt lat="43.65699" lon="6.83171">
        <ele>591.4</ele>
        <time>2021-05-02T08:51:15.000Z</time>
      </trkpt>
      <trkpt lat="43.65698" lon="6.83173">
        <ele>590.6</ele>
        <time>2021-05-02T08:51:16.000Z</time>
      </trkpt>
      <trkpt lat="43.65696" lon="6.83175">
        <ele>589.9</ele>
        <time>2021-05-02T08:51:17.000Z</time>
      </trkpt>
      <trkpt lat="43.65693" lon="6.83176">
        <ele>589.2</ele>
        <time>2021-05-02T08:51:18.000Z</time>
      </trkpt>
      <trkpt lat="43.6569" lon="6.83176">
        <ele>588.5</ele>
        <time>2021-05-02T08:51:19.000Z</time>
      </trkpt>
      <trkpt lat="43.65688" lon="6.83175">
        <ele>588.3</ele>
        <time>2021-05-02T08:51:20.000Z</time>
      </trkpt>
      <trkpt lat="43.65685" lon="6.83176">
        <ele>588.1</ele>
        <time>2021-05-02T08:51:21.000Z</time>
      </trkpt>
      <trkpt lat="43.65683" lon="6.83179">
        <ele>587.4</ele>
        <time>2021-05-02T08:51:22.000Z</time>
      </trkpt>
      <trkpt lat="43.65682" lon="6.8318">
        <ele>587.1</ele>
        <time>2021-05-02T08:51:23.000Z</time>
      </trkpt>
      <trkpt lat="43.6568" lon="6.83181">
        <ele>586.6</ele>
        <time>2021-05-02T08:51:24.000Z</time>
      </trkpt>
      <trkpt lat="43.65677" lon="6.83183">
        <ele>584.6</ele>
        <time>2021-05-02T08:51:25.000Z</time>
      </trkpt>
      <trkpt lat="43.65675" lon="6.83186">
        <ele>583</ele>
        <time>2021-05-02T08:51:26.000Z</time>
      </trkpt>
      <trkpt lat="43.65672" lon="6.83189">
        <ele>582.7</ele>
        <time>2021-05-02T08:51:27.000Z</time>
      </trkpt>
      <trkpt lat="43.6567" lon="6.83191">
        <ele>582.7</ele>
        <time>2021-05-02T08:51:28.000Z</time>
      </trkpt>
      <trkpt lat="43.65668" lon="6.83194">
        <ele>582.7</ele>
        <time>2021-05-02T08:51:29.000Z</time>
      </trkpt>
      <trkpt lat="43.65666" lon="6.83197">
        <ele>582.8</ele>
        <time>2021-05-02T08:51:30.000Z</time>
      </trkpt>
      <trkpt lat="43.65664" lon="6.832">
        <ele>583</ele>
        <time>2021-05-02T08:51:31.000Z</time>
      </trkpt>
      <trkpt lat="43.65662" lon="6.83203">
        <ele>583.3</ele>
        <time>2021-05-02T08:51:32.000Z</time>
      </trkpt>
      <trkpt lat="43.65661" lon="6.83205">
        <ele>582.8</ele>
        <time>2021-05-02T08:51:33.000Z</time>
      </trkpt>
      <trkpt lat="43.65659" lon="6.83208">
        <ele>582.7</ele>
        <time>2021-05-02T08:51:34.000Z</time>
      </trkpt>
      <trkpt lat="43.65658" lon="6.83211">
        <ele>581.9</ele>
        <time>2021-05-02T08:51:35.000Z</time>
      </trkpt>
      <trkpt lat="43.65656" lon="6.83214">
        <ele>581.5</ele>
        <time>2021-05-02T08:51:36.000Z</time>
      </trkpt>
      <trkpt lat="43.65654" lon="6.83217">
        <ele>581.7</ele>
        <time>2021-05-02T08:51:37.000Z</time>
      </trkpt>
      <trkpt lat="43.65653" lon="6.8322">
        <ele>582</ele>
        <time>2021-05-02T08:51:38.000Z</time>
      </trkpt>
      <trkpt lat="43.65651" lon="6.83223">
        <ele>581.8</ele>
        <time>2021-05-02T08:51:39.000Z</time>
      </trkpt>
      <trkpt lat="43.6565" lon="6.83226">
        <ele>582.3</ele>
        <time>2021-05-02T08:51:40.000Z</time>
      </trkpt>
      <trkpt lat="43.6565" lon="6.8323">
        <ele>582.9</ele>
        <time>2021-05-02T08:51:41.000Z</time>
      </trkpt>
      <trkpt lat="43.65649" lon="6.83233">
        <ele>583.8</ele>
        <time>2021-05-02T08:51:42.000Z</time>
      </trkpt>
      <trkpt lat="43.65648" lon="6.83236">
        <ele>584.2</ele>
        <time>2021-05-02T08:51:43.000Z</time>
      </trkpt>
      <trkpt lat="43.65647" lon="6.83237">
        <ele>584</ele>
        <time>2021-05-02T08:51:44.000Z</time>
      </trkpt>
      <trkpt lat="43.65645" lon="6.83238">
        <ele>583.1</ele>
        <time>2021-05-02T08:51:45.000Z</time>
      </trkpt>
      <trkpt lat="43.65642" lon="6.8324">
        <ele>582.3</ele>
        <time>2021-05-02T08:51:46.000Z</time>
      </trkpt>
      <trkpt lat="43.6564" lon="6.8324">
        <ele>582.6</ele>
        <time>2021-05-02T08:51:47.000Z</time>
      </trkpt>
      <trkpt lat="43.65638" lon="6.83242">
        <ele>583.1</ele>
        <time>2021-05-02T08:51:48.000Z</time>
      </trkpt>
      <trkpt lat="43.65635" lon="6.83245">
        <ele>583.6</ele>
        <time>2021-05-02T08:51:49.000Z</time>
      </trkpt>
      <trkpt lat="43.65632" lon="6.83247">
        <ele>584.1</ele>
        <time>2021-05-02T08:51:50.000Z</time>
      </trkpt>
      <trkpt lat="43.6563" lon="6.8325">
        <ele>584.7</ele>
        <time>2021-05-02T08:51:51.000Z</time>
      </trkpt>
      <trkpt lat="43.65627" lon="6.83254">
        <ele>585.1</ele>
        <time>2021-05-02T08:51:52.000Z</time>
      </trkpt>
      <trkpt lat="43.65625" lon="6.83258">
        <ele>585.9</ele>
        <time>2021-05-02T08:51:53.000Z</time>
      </trkpt>
      <trkpt lat="43.65623" lon="6.83262">
        <ele>586.1</ele>
        <time>2021-05-02T08:51:54.000Z</time>
      </trkpt>
      <trkpt lat="43.65622" lon="6.83265">
        <ele>586.3</ele>
        <time>2021-05-02T08:51:55.000Z</time>
      </trkpt>
      <trkpt lat="43.65621" lon="6.83267">
        <ele>586.6</ele>
        <time>2021-05-02T08:51:56.000Z</time>
      </trkpt>
      <trkpt lat="43.6562" lon="6.83269">
        <ele>587</ele>
        <time>2021-05-02T08:51:57.000Z</time>
      </trkpt>
      <trkpt lat="43.65619" lon="6.83271">
        <ele>587.2</ele>
        <time>2021-05-02T08:51:58.000Z</time>
      </trkpt>
      <trkpt lat="43.65619" lon="6.83272">
        <ele>587.3</ele>
        <time>2021-05-02T08:51:59.000Z</time>
      </trkpt>
      <trkpt lat="43.65617" lon="6.83281">
        <ele>586.8</ele>
        <time>2021-05-02T08:52:15.000Z</time>
      </trkpt>
      <trkpt lat="43.65615" lon="6.83285">
        <ele>586.5</ele>
        <time>2021-05-02T08:52:16.000Z</time>
      </trkpt>
      <trkpt lat="43.65613" lon="6.83289">
        <ele>586.3</ele>
        <time>2021-05-02T08:52:17.000Z</time>
      </trkpt>
      <trkpt lat="43.65612" lon="6.83292">
        <ele>586.1</ele>
        <time>2021-05-02T08:52:18.000Z</time>
      </trkpt>
      <trkpt lat="43.65611" lon="6.83295">
        <ele>585.9</ele>
        <time>2021-05-02T08:52:19.000Z</time>
      </trkpt>
      <trkpt lat="43.6561" lon="6.83298">
        <ele>585.8</ele>
        <time>2021-05-02T08:52:20.000Z</time>
      </trkpt>
      <trkpt lat="43.65608" lon="6.833">
        <ele>585.8</ele>
        <time>2021-05-02T08:52:21.000Z</time>
      </trkpt>
      <trkpt lat="43.65606" lon="6.83302">
        <ele>585.8</ele>
        <time>2021-05-02T08:52:22.000Z</time>
      </trkpt>
      <trkpt lat="43.65604" lon="6.83305">
        <ele>585.6</ele>
        <time>2021-05-02T08:52:23.000Z</time>
      </trkpt>
      <trkpt lat="43.65602" lon="6.83307">
        <ele>585.5</ele>
        <time>2021-05-02T08:52:24.000Z</time>
      </trkpt>
      <trkpt lat="43.656" lon="6.83308">
        <ele>585.2</ele>
        <time>2021-05-02T08:52:25.000Z</time>
      </trkpt>
      <trkpt lat="43.65598" lon="6.8331">
        <ele>584.8</ele>
        <time>2021-05-02T08:52:26.000Z</time>
      </trkpt>
      <trkpt lat="43.65596" lon="6.83313">
        <ele>584.5</ele>
        <time>2021-05-02T08:52:27.000Z</time>
      </trkpt>
      <trkpt lat="43.65594" lon="6.83315">
        <ele>584.2</ele>
        <time>2021-05-02T08:52:28.000Z</time>
      </trkpt>
      <trkpt lat="43.65592" lon="6.83316">
        <ele>583.7</ele>
        <time>2021-05-02T08:52:29.000Z</time>
      </trkpt>
      <trkpt lat="43.65589" lon="6.83318">
        <ele>583.2</ele>
        <time>2021-05-02T08:52:30.000Z</time>
      </trkpt>
      <trkpt lat="43.65587" lon="6.8332">
        <ele>583</ele>
        <time>2021-05-02T08:52:31.000Z</time>
      </trkpt>
      <trkpt lat="43.65585" lon="6.83322">
        <ele>583</ele>
        <time>2021-05-02T08:52:32.000Z</time>
      </trkpt>
      <trkpt lat="43.65583" lon="6.83323">
        <ele>583.3</ele>
        <time>2021-05-02T08:52:33.000Z</time>
      </trkpt>
      <trkpt lat="43.65582" lon="6.83325">
        <ele>583.4</ele>
        <time>2021-05-02T08:52:34.000Z</time>
      </trkpt>
      <trkpt lat="43.65581" lon="6.83327">
        <ele>583.1</ele>
        <time>2021-05-02T08:52:35.000Z</time>
      </trkpt>
      <trkpt lat="43.65579" lon="6.83329">
        <ele>583</ele>
        <time>2021-05-02T08:52:36.000Z</time>
      </trkpt>
      <trkpt lat="43.65578" lon="6.83332">
        <ele>582.7</ele>
        <time>2021-05-02T08:52:37.000Z</time>
      </trkpt>
      <trkpt lat="43.65576" lon="6.83335">
        <ele>582.3</ele>
        <time>2021-05-02T08:52:38.000Z</time>
      </trkpt>
      <trkpt lat="43.65574" lon="6.83339">
        <ele>583.5</ele>
        <time>2021-05-02T08:52:39.000Z</time>
      </trkpt>
      <trkpt lat="43.65572" lon="6.83343">
        <ele>584</ele>
        <time>2021-05-02T08:52:40.000Z</time>
      </trkpt>
      <trkpt lat="43.65569" lon="6.83346">
        <ele>584.6</ele>
        <time>2021-05-02T08:52:41.000Z</time>
      </trkpt>
      <trkpt lat="43.65566" lon="6.8335">
        <ele>584.8</ele>
        <time>2021-05-02T08:52:42.000Z</time>
      </trkpt>
      <trkpt lat="43.6556" lon="6.83355">
        <ele>584.9</ele>
        <time>2021-05-02T08:52:44.000Z</time>
      </trkpt>
      <trkpt lat="43.65557" lon="6.83358">
        <ele>585.2</ele>
        <time>2021-05-02T08:52:45.000Z</time>
      </trkpt>
      <trkpt lat="43.65553" lon="6.8336">
        <ele>585.1</ele>
        <time>2021-05-02T08:52:46.000Z</time>
      </trkpt>
      <trkpt lat="43.6555" lon="6.83363">
        <ele>585.2</ele>
        <time>2021-05-02T08:52:47.000Z</time>
      </trkpt>
      <trkpt lat="43.65547" lon="6.83366">
        <ele>585.4</ele>
        <time>2021-05-02T08:52:48.000Z</time>
      </trkpt>
      <trkpt lat="43.65545" lon="6.8337">
        <ele>585.6</ele>
        <time>2021-05-02T08:52:49.000Z</time>
      </trkpt>
      <trkpt lat="43.65543" lon="6.83374">
        <ele>586.6</ele>
        <time>2021-05-02T08:52:50.000Z</time>
      </trkpt>
      <trkpt lat="43.6554" lon="6.83378">
        <ele>587.5</ele>
        <time>2021-05-02T08:52:51.000Z</time>
      </trkpt>
      <trkpt lat="43.65539" lon="6.83383">
        <ele>588.2</ele>
        <time>2021-05-02T08:52:52.000Z</time>
      </trkpt>
      <trkpt lat="43.65537" lon="6.83387">
        <ele>588.7</ele>
        <time>2021-05-02T08:52:53.000Z</time>
      </trkpt>
      <trkpt lat="43.65535" lon="6.83392">
        <ele>589.8</ele>
        <time>2021-05-02T08:52:54.000Z</time>
      </trkpt>
      <trkpt lat="43.65533" lon="6.83397">
        <ele>590.1</ele>
        <time>2021-05-02T08:52:55.000Z</time>
      </trkpt>
      <trkpt lat="43.65531" lon="6.83402">
        <ele>590.4</ele>
        <time>2021-05-02T08:52:56.000Z</time>
      </trkpt>
      <trkpt lat="43.65529" lon="6.83405">
        <ele>590.3</ele>
        <time>2021-05-02T08:52:57.000Z</time>
      </trkpt>
      <trkpt lat="43.65526" lon="6.83409">
        <ele>589.9</ele>
        <time>2021-05-02T08:52:58.000Z</time>
      </trkpt>
      <trkpt lat="43.65523" lon="6.83411">
        <ele>589.3</ele>
        <time>2021-05-02T08:52:59.000Z</time>
      </trkpt>
      <trkpt lat="43.6552" lon="6.83413">
        <ele>588.7</ele>
        <time>2021-05-02T08:53:00.000Z</time>
      </trkpt>
      <trkpt lat="43.65517" lon="6.83414">
        <ele>587.9</ele>
        <time>2021-05-02T08:53:01.000Z</time>
      </trkpt>
      <trkpt lat="43.65514" lon="6.83415">
        <ele>587.5</ele>
        <time>2021-05-02T08:53:02.000Z</time>
      </trkpt>
      <trkpt lat="43.65511" lon="6.83416">
        <ele>586.8</ele>
        <time>2021-05-02T08:53:03.000Z</time>
      </trkpt>
      <trkpt lat="43.65508" lon="6.83418">
        <ele>586.4</ele>
        <time>2021-05-02T08:53:04.000Z</time>
      </trkpt>
      <trkpt lat="43.65505" lon="6.83419">
        <ele>585.7</ele>
        <time>2021-05-02T08:53:05.000Z</time>
      </trkpt>
      <trkpt lat="43.65502" lon="6.83421">
        <ele>585.1</ele>
        <time>2021-05-02T08:53:06.000Z</time>
      </trkpt>
      <trkpt lat="43.65499" lon="6.83423">
        <ele>585</ele>
        <time>2021-05-02T08:53:07.000Z</time>
      </trkpt>
      <trkpt lat="43.65495" lon="6.83424">
        <ele>584.8</ele>
        <time>2021-05-02T08:53:08.000Z</time>
      </trkpt>
      <trkpt lat="43.65492" lon="6.83425">
        <ele>584.6</ele>
        <time>2021-05-02T08:53:09.000Z</time>
      </trkpt>
      <trkpt lat="43.65489" lon="6.83426">
        <ele>584.2</ele>
        <time>2021-05-02T08:53:10.000Z</time>
      </trkpt>
      <trkpt lat="43.65485" lon="6.83427">
        <ele>583.8</ele>
        <time>2021-05-02T08:53:11.000Z</time>
      </trkpt>
      <trkpt lat="43.65481" lon="6.8343">
        <ele>583.1</ele>
        <time>2021-05-02T08:53:12.000Z</time>
      </trkpt>
      <trkpt lat="43.65477" lon="6.83434">
        <ele>582.6</ele>
        <time>2021-05-02T08:53:13.000Z</time>
      </trkpt>
      <trkpt lat="43.65472" lon="6.8344">
        <ele>582.1</ele>
        <time>2021-05-02T08:53:14.000Z</time>
      </trkpt>
      <trkpt lat="43.65468" lon="6.83448">
        <ele>581.1</ele>
        <time>2021-05-02T08:53:15.000Z</time>
      </trkpt>
      <trkpt lat="43.65464" lon="6.83456">
        <ele>580.7</ele>
        <time>2021-05-02T08:53:16.000Z</time>
      </trkpt>
      <trkpt lat="43.65459" lon="6.83465">
        <ele>579.7</ele>
        <time>2021-05-02T08:53:17.000Z</time>
      </trkpt>
      <trkpt lat="43.65454" lon="6.83473">
        <ele>579</ele>
        <time>2021-05-02T08:53:18.000Z</time>
      </trkpt>
      <trkpt lat="43.6545" lon="6.83482">
        <ele>578.9</ele>
        <time>2021-05-02T08:53:19.000Z</time>
      </trkpt>
      <trkpt lat="43.65446" lon="6.83492">
        <ele>578.6</ele>
        <time>2021-05-02T08:53:20.000Z</time>
      </trkpt>
      <trkpt lat="43.65442" lon="6.83502">
        <ele>579.6</ele>
        <time>2021-05-02T08:53:21.000Z</time>
      </trkpt>
      <trkpt lat="43.6544" lon="6.83512">
        <ele>579.7</ele>
        <time>2021-05-02T08:53:22.000Z</time>
      </trkpt>
      <trkpt lat="43.65438" lon="6.83523">
        <ele>579.7</ele>
        <time>2021-05-02T08:53:23.000Z</time>
      </trkpt>
      <trkpt lat="43.65436" lon="6.83533">
        <ele>579.7</ele>
        <time>2021-05-02T08:53:24.000Z</time>
      </trkpt>
      <trkpt lat="43.65435" lon="6.83544">
        <ele>579.1</ele>
        <time>2021-05-02T08:53:25.000Z</time>
      </trkpt>
      <trkpt lat="43.65433" lon="6.83554">
        <ele>578.3</ele>
        <time>2021-05-02T08:53:26.000Z</time>
      </trkpt>
      <trkpt lat="43.6543" lon="6.83562">
        <ele>577.6</ele>
        <time>2021-05-02T08:53:27.000Z</time>
      </trkpt>
      <trkpt lat="43.65428" lon="6.83568">
        <ele>577</ele>
        <time>2021-05-02T08:53:28.000Z</time>
      </trkpt>
      <trkpt lat="43.65425" lon="6.83572">
        <ele>576.4</ele>
        <time>2021-05-02T08:53:29.000Z</time>
      </trkpt>
      <trkpt lat="43.65421" lon="6.83575">
        <ele>575.6</ele>
        <time>2021-05-02T08:53:30.000Z</time>
      </trkpt>
      <trkpt lat="43.65417" lon="6.83576">
        <ele>574.7</ele>
        <time>2021-05-02T08:53:31.000Z</time>
      </trkpt>
      <trkpt lat="43.65413" lon="6.83578">
        <ele>573.7</ele>
        <time>2021-05-02T08:53:32.000Z</time>
      </trkpt>
      <trkpt lat="43.65409" lon="6.8358">
        <ele>573.2</ele>
        <time>2021-05-02T08:53:33.000Z</time>
      </trkpt>
      <trkpt lat="43.65406" lon="6.83583">
        <ele>572.5</ele>
        <time>2021-05-02T08:53:34.000Z</time>
      </trkpt>
      <trkpt lat="43.65403" lon="6.83585">
        <ele>572.1</ele>
        <time>2021-05-02T08:53:35.000Z</time>
      </trkpt>
      <trkpt lat="43.65399" lon="6.83588">
        <ele>571.8</ele>
        <time>2021-05-02T08:53:36.000Z</time>
      </trkpt>
      <trkpt lat="43.65396" lon="6.8359">
        <ele>571.3</ele>
        <time>2021-05-02T08:53:37.000Z</time>
      </trkpt>
      <trkpt lat="43.65392" lon="6.83592">
        <ele>571.5</ele>
        <time>2021-05-02T08:53:38.000Z</time>
      </trkpt>
      <trkpt lat="43.65389" lon="6.83594">
        <ele>571.7</ele>
        <time>2021-05-02T08:53:39.000Z</time>
      </trkpt>
      <trkpt lat="43.65387" lon="6.83597">
        <ele>571.8</ele>
        <time>2021-05-02T08:53:40.000Z</time>
      </trkpt>
      <trkpt lat="43.65385" lon="6.836">
        <ele>571.6</ele>
        <time>2021-05-02T08:53:41.000Z</time>
      </trkpt>
      <trkpt lat="43.65382" lon="6.83602">
        <ele>571.6</ele>
        <time>2021-05-02T08:53:42.000Z</time>
      </trkpt>
      <trkpt lat="43.65379" lon="6.83604">
        <ele>571.6</ele>
        <time>2021-05-02T08:53:43.000Z</time>
      </trkpt>
      <trkpt lat="43.65376" lon="6.83605">
        <ele>571.1</ele>
        <time>2021-05-02T08:53:44.000Z</time>
      </trkpt>
      <trkpt lat="43.65373" lon="6.83606">
        <ele>571</ele>
        <time>2021-05-02T08:53:45.000Z</time>
      </trkpt>
      <trkpt lat="43.6537" lon="6.83606">
        <ele>570.8</ele>
        <time>2021-05-02T08:53:46.000Z</time>
      </trkpt>
      <trkpt lat="43.65368" lon="6.83606">
        <ele>570.6</ele>
        <time>2021-05-02T08:53:47.000Z</time>
      </trkpt>
      <trkpt lat="43.65366" lon="6.83605">
        <ele>570.8</ele>
        <time>2021-05-02T08:53:48.000Z</time>
      </trkpt>
      <trkpt lat="43.65364" lon="6.83604">
        <ele>570.7</ele>
        <time>2021-05-02T08:53:49.000Z</time>
      </trkpt>
      <trkpt lat="43.65362" lon="6.83604">
        <ele>570.6</ele>
        <time>2021-05-02T08:53:50.000Z</time>
      </trkpt>
      <trkpt lat="43.65361" lon="6.83606">
        <ele>570.7</ele>
        <time>2021-05-02T08:54:21.000Z</time>
      </trkpt>
      <trkpt lat="43.65359" lon="6.83605">
        <ele>570.5</ele>
        <time>2021-05-02T08:54:22.000Z</time>
      </trkpt>
      <trkpt lat="43.65356" lon="6.83604">
        <ele>570.2</ele>
        <time>2021-05-02T08:54:23.000Z</time>
      </trkpt>
      <trkpt lat="43.65353" lon="6.83604">
        <ele>569.9</ele>
        <time>2021-05-02T08:54:24.000Z</time>
      </trkpt>
      <trkpt lat="43.6535" lon="6.83604">
        <ele>569.4</ele>
        <time>2021-05-02T08:54:25.000Z</time>
      </trkpt>
      <trkpt lat="43.65346" lon="6.83605">
        <ele>568.9</ele>
        <time>2021-05-02T08:54:26.000Z</time>
      </trkpt>
      <trkpt lat="43.65344" lon="6.83605">
        <ele>568.5</ele>
        <time>2021-05-02T08:54:27.000Z</time>
      </trkpt>
      <trkpt lat="43.65341" lon="6.83605">
        <ele>568.1</ele>
        <time>2021-05-02T08:54:28.000Z</time>
      </trkpt>
      <trkpt lat="43.65339" lon="6.83604">
        <ele>567.8</ele>
        <time>2021-05-02T08:54:29.000Z</time>
      </trkpt>
      <trkpt lat="43.65337" lon="6.83603">
        <ele>567.6</ele>
        <time>2021-05-02T08:54:30.000Z</time>
      </trkpt>
      <trkpt lat="43.65334" lon="6.83602">
        <ele>568.2</ele>
        <time>2021-05-02T08:54:31.000Z</time>
      </trkpt>
      <trkpt lat="43.65331" lon="6.83602">
        <ele>568.1</ele>
        <time>2021-05-02T08:54:32.000Z</time>
      </trkpt>
      <trkpt lat="43.65328" lon="6.83601">
        <ele>568.2</ele>
        <time>2021-05-02T08:54:33.000Z</time>
      </trkpt>
      <trkpt lat="43.65324" lon="6.83602">
        <ele>568.5</ele>
        <time>2021-05-02T08:54:34.000Z</time>
      </trkpt>
      <trkpt lat="43.65321" lon="6.83603">
        <ele>568.5</ele>
        <time>2021-05-02T08:54:35.000Z</time>
      </trkpt>
      <trkpt lat="43.65317" lon="6.83604">
        <ele>568.6</ele>
        <time>2021-05-02T08:54:36.000Z</time>
      </trkpt>
      <trkpt lat="43.65314" lon="6.83605">
        <ele>568.4</ele>
        <time>2021-05-02T08:54:37.000Z</time>
      </trkpt>
      <trkpt lat="43.65311" lon="6.83606">
        <ele>568</ele>
        <time>2021-05-02T08:54:38.000Z</time>
      </trkpt>
      <trkpt lat="43.65307" lon="6.83607">
        <ele>567.5</ele>
        <time>2021-05-02T08:54:39.000Z</time>
      </trkpt>
      <trkpt lat="43.65304" lon="6.83608">
        <ele>566.9</ele>
        <time>2021-05-02T08:54:40.000Z</time>
      </trkpt>
      <trkpt lat="43.653" lon="6.83609">
        <ele>565.9</ele>
        <time>2021-05-02T08:54:41.000Z</time>
      </trkpt>
      <trkpt lat="43.65296" lon="6.8361">
        <ele>564.2</ele>
        <time>2021-05-02T08:54:42.000Z</time>
      </trkpt>
      <trkpt lat="43.65291" lon="6.83611">
        <ele>563.8</ele>
        <time>2021-05-02T08:54:43.000Z</time>
      </trkpt>
      <trkpt lat="43.65286" lon="6.83612">
        <ele>563.2</ele>
        <time>2021-05-02T08:54:44.000Z</time>
      </trkpt>
      <trkpt lat="43.65281" lon="6.83612">
        <ele>562.5</ele>
        <time>2021-05-02T08:54:45.000Z</time>
      </trkpt>
      <trkpt lat="43.65275" lon="6.83613">
        <ele>562.1</ele>
        <time>2021-05-02T08:54:46.000Z</time>
      </trkpt>
      <trkpt lat="43.6527" lon="6.83613">
        <ele>562.3</ele>
        <time>2021-05-02T08:54:47.000Z</time>
      </trkpt>
      <trkpt lat="43.65264" lon="6.83615">
        <ele>562.3</ele>
        <time>2021-05-02T08:54:48.000Z</time>
      </trkpt>
      <trkpt lat="43.6526" lon="6.83616">
        <ele>562</ele>
        <time>2021-05-02T08:54:49.000Z</time>
      </trkpt>
      <trkpt lat="43.65255" lon="6.83617">
        <ele>562</ele>
        <time>2021-05-02T08:54:50.000Z</time>
      </trkpt>
      <trkpt lat="43.65251" lon="6.83619">
        <ele>561.6</ele>
        <time>2021-05-02T08:54:51.000Z</time>
      </trkpt>
      <trkpt lat="43.65249" lon="6.8362">
        <ele>561.8</ele>
        <time>2021-05-02T08:54:52.000Z</time>
      </trkpt>
      <trkpt lat="43.65247" lon="6.83621">
        <ele>561.6</ele>
        <time>2021-05-02T08:54:53.000Z</time>
      </trkpt>
      <trkpt lat="43.65245" lon="6.83621">
        <ele>561.6</ele>
        <time>2021-05-02T08:54:54.000Z</time>
      </trkpt>
      <trkpt lat="43.65244" lon="6.8362">
        <ele>562.6</ele>
        <time>2021-05-02T08:54:57.000Z</time>
      </trkpt>
      <trkpt lat="43.6524" lon="6.83622">
        <ele>563</ele>
        <time>2021-05-02T08:55:15.000Z</time>
      </trkpt>
      <trkpt lat="43.65239" lon="6.83623">
        <ele>562.7</ele>
        <time>2021-05-02T08:55:16.000Z</time>
      </trkpt>
      <trkpt lat="43.65237" lon="6.83622">
        <ele>562.3</ele>
        <time>2021-05-02T08:55:17.000Z</time>
      </trkpt>
      <trkpt lat="43.65235" lon="6.83622">
        <ele>562</ele>
        <time>2021-05-02T08:55:18.000Z</time>
      </trkpt>
      <trkpt lat="43.65233" lon="6.83622">
        <ele>561.5</ele>
        <time>2021-05-02T08:55:19.000Z</time>
      </trkpt>
      <trkpt lat="43.65229" lon="6.83623">
        <ele>561</ele>
        <time>2021-05-02T08:55:20.000Z</time>
      </trkpt>
      <trkpt lat="43.65226" lon="6.83622">
        <ele>560.4</ele>
        <time>2021-05-02T08:55:21.000Z</time>
      </trkpt>
      <trkpt lat="43.65221" lon="6.83622">
        <ele>559.7</ele>
        <time>2021-05-02T08:55:22.000Z</time>
      </trkpt>
      <trkpt lat="43.65216" lon="6.83623">
        <ele>558.8</ele>
        <time>2021-05-02T08:55:23.000Z</time>
      </trkpt>
      <trkpt lat="43.65211" lon="6.83626">
        <ele>558.1</ele>
        <time>2021-05-02T08:55:24.000Z</time>
      </trkpt>
      <trkpt lat="43.65206" lon="6.83629">
        <ele>556.7</ele>
        <time>2021-05-02T08:55:25.000Z</time>
      </trkpt>
      <trkpt lat="43.65201" lon="6.83632">
        <ele>555.3</ele>
        <time>2021-05-02T08:55:26.000Z</time>
      </trkpt>
      <trkpt lat="43.65197" lon="6.83636">
        <ele>553.6</ele>
        <time>2021-05-02T08:55:27.000Z</time>
      </trkpt>
      <trkpt lat="43.65192" lon="6.8364">
        <ele>552.1</ele>
        <time>2021-05-02T08:55:28.000Z</time>
      </trkpt>
      <trkpt lat="43.65187" lon="6.83645">
        <ele>549.8</ele>
        <time>2021-05-02T08:55:29.000Z</time>
      </trkpt>
      <trkpt lat="43.65182" lon="6.83649">
        <ele>547.9</ele>
        <time>2021-05-02T08:55:30.000Z</time>
      </trkpt>
      <trkpt lat="43.65176" lon="6.83655">
        <ele>546</ele>
        <time>2021-05-02T08:55:31.000Z</time>
      </trkpt>
      <trkpt lat="43.65172" lon="6.83659">
        <ele>544</ele>
        <time>2021-05-02T08:55:32.000Z</time>
      </trkpt>
      <trkpt lat="43.65167" lon="6.83664">
        <ele>542.7</ele>
        <time>2021-05-02T08:55:33.000Z</time>
      </trkpt>
      <trkpt lat="43.65162" lon="6.83668">
        <ele>540.8</ele>
        <time>2021-05-02T08:55:34.000Z</time>
      </trkpt>
      <trkpt lat="43.65158" lon="6.83671">
        <ele>539.7</ele>
        <time>2021-05-02T08:55:35.000Z</time>
      </trkpt>
      <trkpt lat="43.65154" lon="6.83674">
        <ele>538.8</ele>
        <time>2021-05-02T08:55:36.000Z</time>
      </trkpt>
      <trkpt lat="43.6515" lon="6.83677">
        <ele>537.8</ele>
        <time>2021-05-02T08:55:37.000Z</time>
      </trkpt>
      <trkpt lat="43.65146" lon="6.83681">
        <ele>536.8</ele>
        <time>2021-05-02T08:55:38.000Z</time>
      </trkpt>
      <trkpt lat="43.65144" lon="6.83685">
        <ele>535.4</ele>
        <time>2021-05-02T08:55:39.000Z</time>
      </trkpt>
      <trkpt lat="43.6514" lon="6.83687">
        <ele>535.6</ele>
        <time>2021-05-02T08:55:40.000Z</time>
      </trkpt>
      <trkpt lat="43.65136" lon="6.83693">
        <ele>536.1</ele>
        <time>2021-05-02T08:55:41.000Z</time>
      </trkpt>
      <trkpt lat="43.65132" lon="6.83698">
        <ele>536.8</ele>
        <time>2021-05-02T08:55:42.000Z</time>
      </trkpt>
      <trkpt lat="43.65128" lon="6.83702">
        <ele>537.2</ele>
        <time>2021-05-02T08:55:43.000Z</time>
      </trkpt>
      <trkpt lat="43.65125" lon="6.83706">
        <ele>537.4</ele>
        <time>2021-05-02T08:55:44.000Z</time>
      </trkpt>
      <trkpt lat="43.65123" lon="6.8371">
        <ele>538.2</ele>
        <time>2021-05-02T08:55:45.000Z</time>
      </trkpt>
      <trkpt lat="43.65121" lon="6.83714">
        <ele>539.1</ele>
        <time>2021-05-02T08:55:46.000Z</time>
      </trkpt>
      <trkpt lat="43.65119" lon="6.83717">
        <ele>539.5</ele>
        <time>2021-05-02T08:55:47.000Z</time>
      </trkpt>
      <trkpt lat="43.65117" lon="6.8372">
        <ele>539.7</ele>
        <time>2021-05-02T08:55:48.000Z</time>
      </trkpt>
      <trkpt lat="43.65114" lon="6.83723">
        <ele>540</ele>
        <time>2021-05-02T08:55:49.000Z</time>
      </trkpt>
      <trkpt lat="43.65113" lon="6.83728">
        <ele>540.5</ele>
        <time>2021-05-02T08:55:50.000Z</time>
      </trkpt>
      <trkpt lat="43.65112" lon="6.83733">
        <ele>541</ele>
        <time>2021-05-02T08:55:51.000Z</time>
      </trkpt>
      <trkpt lat="43.6511" lon="6.83737">
        <ele>542.1</ele>
        <time>2021-05-02T08:55:52.000Z</time>
      </trkpt>
      <trkpt lat="43.6511" lon="6.83741">
        <ele>543.5</ele>
        <time>2021-05-02T08:55:53.000Z</time>
      </trkpt>
      <trkpt lat="43.65111" lon="6.83747">
        <ele>543.3</ele>
        <time>2021-05-02T08:55:54.000Z</time>
      </trkpt>
      <trkpt lat="43.65112" lon="6.83751">
        <ele>543.5</ele>
        <time>2021-05-02T08:55:55.000Z</time>
      </trkpt>
      <trkpt lat="43.65112" lon="6.83756">
        <ele>543.8</ele>
        <time>2021-05-02T08:55:56.000Z</time>
      </trkpt>
      <trkpt lat="43.65113" lon="6.83762">
        <ele>544.6</ele>
        <time>2021-05-02T08:55:57.000Z</time>
      </trkpt>
      <trkpt lat="43.65114" lon="6.83767">
        <ele>545.8</ele>
        <time>2021-05-02T08:55:58.000Z</time>
      </trkpt>
      <trkpt lat="43.65115" lon="6.83771">
        <ele>547</ele>
        <time>2021-05-02T08:55:59.000Z</time>
      </trkpt>
      <trkpt lat="43.65117" lon="6.83776">
        <ele>547.9</ele>
        <time>2021-05-02T08:56:00.000Z</time>
      </trkpt>
      <trkpt lat="43.65118" lon="6.8378">
        <ele>548.8</ele>
        <time>2021-05-02T08:56:01.000Z</time>
      </trkpt>
      <trkpt lat="43.65122" lon="6.83787">
        <ele>550.1</ele>
        <time>2021-05-02T08:56:02.000Z</time>
      </trkpt>
      <trkpt lat="43.65126" lon="6.83794">
        <ele>551.7</ele>
        <time>2021-05-02T08:56:03.000Z</time>
      </trkpt>
      <trkpt lat="43.65129" lon="6.83799">
        <ele>552.6</ele>
        <time>2021-05-02T08:56:04.000Z</time>
      </trkpt>
      <trkpt lat="43.65132" lon="6.83805">
        <ele>553.8</ele>
        <time>2021-05-02T08:56:05.000Z</time>
      </trkpt>
      <trkpt lat="43.65135" lon="6.83811">
        <ele>554.6</ele>
        <time>2021-05-02T08:56:06.000Z</time>
      </trkpt>
      <trkpt lat="43.65138" lon="6.83818">
        <ele>558.4</ele>
        <time>2021-05-02T08:56:07.000Z</time>
      </trkpt>
      <trkpt lat="43.65139" lon="6.83824">
        <ele>561.1</ele>
        <time>2021-05-02T08:56:08.000Z</time>
      </trkpt>
      <trkpt lat="43.65141" lon="6.83831">
        <ele>562.2</ele>
        <time>2021-05-02T08:56:09.000Z</time>
      </trkpt>
      <trkpt lat="43.65143" lon="6.83837">
        <ele>563.7</ele>
        <time>2021-05-02T08:56:10.000Z</time>
      </trkpt>
      <trkpt lat="43.65146" lon="6.83842">
        <ele>564.9</ele>
        <time>2021-05-02T08:56:11.000Z</time>
      </trkpt>
      <trkpt lat="43.65148" lon="6.83847">
        <ele>565.7</ele>
        <time>2021-05-02T08:56:12.000Z</time>
      </trkpt>
      <trkpt lat="43.6515" lon="6.83851">
        <ele>566.5</ele>
        <time>2021-05-02T08:56:13.000Z</time>
      </trkpt>
      <trkpt lat="43.65151" lon="6.83857">
        <ele>567.4</ele>
        <time>2021-05-02T08:56:14.000Z</time>
      </trkpt>
      <trkpt lat="43.65152" lon="6.83862">
        <ele>568.2</ele>
        <time>2021-05-02T08:56:15.000Z</time>
      </trkpt>
      <trkpt lat="43.65153" lon="6.83866">
        <ele>568.5</ele>
        <time>2021-05-02T08:56:16.000Z</time>
      </trkpt>
      <trkpt lat="43.65154" lon="6.83871">
        <ele>569.3</ele>
        <time>2021-05-02T08:56:17.000Z</time>
      </trkpt>
      <trkpt lat="43.65155" lon="6.83876">
        <ele>569.8</ele>
        <time>2021-05-02T08:56:18.000Z</time>
      </trkpt>
      <trkpt lat="43.65156" lon="6.8388">
        <ele>569.8</ele>
        <time>2021-05-02T08:56:19.000Z</time>
      </trkpt>
      <trkpt lat="43.65157" lon="6.83885">
        <ele>569.9</ele>
        <time>2021-05-02T08:56:20.000Z</time>
      </trkpt>
      <trkpt lat="43.65158" lon="6.83889">
        <ele>569.8</ele>
        <time>2021-05-02T08:56:21.000Z</time>
      </trkpt>
      <trkpt lat="43.6516" lon="6.83893">
        <ele>569.7</ele>
        <time>2021-05-02T08:56:22.000Z</time>
      </trkpt>
      <trkpt lat="43.65161" lon="6.83897">
        <ele>569.8</ele>
        <time>2021-05-02T08:56:23.000Z</time>
      </trkpt>
      <trkpt lat="43.65162" lon="6.83902">
        <ele>569.1</ele>
        <time>2021-05-02T08:56:24.000Z</time>
      </trkpt>
      <trkpt lat="43.65164" lon="6.83907">
        <ele>568.7</ele>
        <time>2021-05-02T08:56:25.000Z</time>
      </trkpt>
      <trkpt lat="43.65165" lon="6.83912">
        <ele>568.5</ele>
        <time>2021-05-02T08:56:26.000Z</time>
      </trkpt>
      <trkpt lat="43.65166" lon="6.83916">
        <ele>568.5</ele>
        <time>2021-05-02T08:56:27.000Z</time>
      </trkpt>
      <trkpt lat="43.65166" lon="6.83921">
        <ele>569</ele>
        <time>2021-05-02T08:56:28.000Z</time>
      </trkpt>
      <trkpt lat="43.65167" lon="6.83925">
        <ele>569.5</ele>
        <time>2021-05-02T08:56:29.000Z</time>
      </trkpt>
      <trkpt lat="43.65166" lon="6.8393">
        <ele>569.9</ele>
        <time>2021-05-02T08:56:30.000Z</time>
      </trkpt>
      <trkpt lat="43.65166" lon="6.83935">
        <ele>570.2</ele>
        <time>2021-05-02T08:56:31.000Z</time>
      </trkpt>
      <trkpt lat="43.65165" lon="6.83939">
        <ele>570.9</ele>
        <time>2021-05-02T08:56:32.000Z</time>
      </trkpt>
      <trkpt lat="43.65165" lon="6.83944">
        <ele>571.4</ele>
        <time>2021-05-02T08:56:33.000Z</time>
      </trkpt>
      <trkpt lat="43.65164" lon="6.83949">
        <ele>572.6</ele>
        <time>2021-05-02T08:56:34.000Z</time>
      </trkpt>
      <trkpt lat="43.65164" lon="6.83954">
        <ele>573.3</ele>
        <time>2021-05-02T08:56:35.000Z</time>
      </trkpt>
      <trkpt lat="43.65163" lon="6.83957">
        <ele>573.6</ele>
        <time>2021-05-02T08:56:36.000Z</time>
      </trkpt>
      <trkpt lat="43.65162" lon="6.83961">
        <ele>574.1</ele>
        <time>2021-05-02T08:56:37.000Z</time>
      </trkpt>
      <trkpt lat="43.65161" lon="6.83965">
        <ele>574.6</ele>
        <time>2021-05-02T08:56:38.000Z</time>
      </trkpt>
      <trkpt lat="43.6516" lon="6.8397">
        <ele>575.1</ele>
        <time>2021-05-02T08:56:39.000Z</time>
      </trkpt>
      <trkpt lat="43.65159" lon="6.83974">
        <ele>575.1</ele>
        <time>2021-05-02T08:56:40.000Z</time>
      </trkpt>
      <trkpt lat="43.65158" lon="6.8398">
        <ele>575.1</ele>
        <time>2021-05-02T08:56:41.000Z</time>
      </trkpt>
      <trkpt lat="43.65158" lon="6.83986">
        <ele>574.5</ele>
        <time>2021-05-02T08:56:42.000Z</time>
      </trkpt>
      <trkpt lat="43.65158" lon="6.83991">
        <ele>573.8</ele>
        <time>2021-05-02T08:56:43.000Z</time>
      </trkpt>
      <trkpt lat="43.65157" lon="6.83997">
        <ele>572.7</ele>
        <time>2021-05-02T08:56:44.000Z</time>
      </trkpt>
      <trkpt lat="43.65156" lon="6.84002">
        <ele>571.5</ele>
        <time>2021-05-02T08:56:45.000Z</time>
      </trkpt>
      <trkpt lat="43.65156" lon="6.84008">
        <ele>571.1</ele>
        <time>2021-05-02T08:56:46.000Z</time>
      </trkpt>
      <trkpt lat="43.65156" lon="6.84012">
        <ele>570.7</ele>
        <time>2021-05-02T08:56:47.000Z</time>
      </trkpt>
      <trkpt lat="43.65155" lon="6.84017">
        <ele>570.1</ele>
        <time>2021-05-02T08:56:48.000Z</time>
      </trkpt>
      <trkpt lat="43.65155" lon="6.84021">
        <ele>569.9</ele>
        <time>2021-05-02T08:56:49.000Z</time>
      </trkpt>
      <trkpt lat="43.65155" lon="6.84025">
        <ele>569.5</ele>
        <time>2021-05-02T08:56:50.000Z</time>
      </trkpt>
      <trkpt lat="43.65154" lon="6.84031">
        <ele>569.4</ele>
        <time>2021-05-02T08:56:51.000Z</time>
      </trkpt>
      <trkpt lat="43.65154" lon="6.84036">
        <ele>569</ele>
        <time>2021-05-02T08:56:52.000Z</time>
      </trkpt>
      <trkpt lat="43.65152" lon="6.84041">
        <ele>568.9</ele>
        <time>2021-05-02T08:56:53.000Z</time>
      </trkpt>
      <trkpt lat="43.65152" lon="6.84046">
        <ele>568.8</ele>
        <time>2021-05-02T08:56:54.000Z</time>
      </trkpt>
      <trkpt lat="43.65151" lon="6.84051">
        <ele>569.7</ele>
        <time>2021-05-02T08:56:55.000Z</time>
      </trkpt>
      <trkpt lat="43.6515" lon="6.84057">
        <ele>570</ele>
        <time>2021-05-02T08:56:56.000Z</time>
      </trkpt>
      <trkpt lat="43.6515" lon="6.84062">
        <ele>570.7</ele>
        <time>2021-05-02T08:56:57.000Z</time>
      </trkpt>
      <trkpt lat="43.65149" lon="6.84067">
        <ele>570.8</ele>
        <time>2021-05-02T08:56:58.000Z</time>
      </trkpt>
      <trkpt lat="43.65148" lon="6.84072">
        <ele>571.3</ele>
        <time>2021-05-02T08:56:59.000Z</time>
      </trkpt>
      <trkpt lat="43.65148" lon="6.84077">
        <ele>571.6</ele>
        <time>2021-05-02T08:57:00.000Z</time>
      </trkpt>
      <trkpt lat="43.65147" lon="6.84081">
        <ele>571.7</ele>
        <time>2021-05-02T08:57:01.000Z</time>
      </trkpt>
      <trkpt lat="43.65147" lon="6.84086">
        <ele>571.7</ele>
        <time>2021-05-02T08:57:02.000Z</time>
      </trkpt>
      <trkpt lat="43.65146" lon="6.8409">
        <ele>571.5</ele>
        <time>2021-05-02T08:57:03.000Z</time>
      </trkpt>
      <trkpt lat="43.65146" lon="6.84095">
        <ele>571.3</ele>
        <time>2021-05-02T08:57:04.000Z</time>
      </trkpt>
      <trkpt lat="43.65145" lon="6.841">
        <ele>571.5</ele>
        <time>2021-05-02T08:57:05.000Z</time>
      </trkpt>
      <trkpt lat="43.65144" lon="6.84105">
        <ele>571.4</ele>
        <time>2021-05-02T08:57:06.000Z</time>
      </trkpt>
      <trkpt lat="43.65144" lon="6.8411">
        <ele>570.6</ele>
        <time>2021-05-02T08:57:07.000Z</time>
      </trkpt>
      <trkpt lat="43.65143" lon="6.84115">
        <ele>570.4</ele>
        <time>2021-05-02T08:57:08.000Z</time>
      </trkpt>
      <trkpt lat="43.65143" lon="6.8412">
        <ele>570.3</ele>
        <time>2021-05-02T08:57:09.000Z</time>
      </trkpt>
      <trkpt lat="43.65143" lon="6.84125">
        <ele>570.9</ele>
        <time>2021-05-02T08:57:10.000Z</time>
      </trkpt>
      <trkpt lat="43.65142" lon="6.8413">
        <ele>570.4</ele>
        <time>2021-05-02T08:57:11.000Z</time>
      </trkpt>
      <trkpt lat="43.65141" lon="6.84134">
        <ele>570.9</ele>
        <time>2021-05-02T08:57:12.000Z</time>
      </trkpt>
      <trkpt lat="43.6514" lon="6.84139">
        <ele>571.3</ele>
        <time>2021-05-02T08:57:13.000Z</time>
      </trkpt>
      <trkpt lat="43.65139" lon="6.84143">
        <ele>571.9</ele>
        <time>2021-05-02T08:57:14.000Z</time>
      </trkpt>
      <trkpt lat="43.65138" lon="6.84148">
        <ele>572.3</ele>
        <time>2021-05-02T08:57:15.000Z</time>
      </trkpt>
      <trkpt lat="43.65137" lon="6.84152">
        <ele>572.6</ele>
        <time>2021-05-02T08:57:16.000Z</time>
      </trkpt>
      <trkpt lat="43.65136" lon="6.84156">
        <ele>572.5</ele>
        <time>2021-05-02T08:57:17.000Z</time>
      </trkpt>
      <trkpt lat="43.65135" lon="6.84161">
        <ele>572.3</ele>
        <time>2021-05-02T08:57:18.000Z</time>
      </trkpt>
      <trkpt lat="43.65133" lon="6.84165">
        <ele>572.6</ele>
        <time>2021-05-02T08:57:19.000Z</time>
      </trkpt>
      <trkpt lat="43.65132" lon="6.84168">
        <ele>573.1</ele>
        <time>2021-05-02T08:57:20.000Z</time>
      </trkpt>
      <trkpt lat="43.6513" lon="6.84172">
        <ele>573.9</ele>
        <time>2021-05-02T08:57:21.000Z</time>
      </trkpt>
      <trkpt lat="43.65127" lon="6.84175">
        <ele>574.5</ele>
        <time>2021-05-02T08:57:22.000Z</time>
      </trkpt>
      <trkpt lat="43.65125" lon="6.84178">
        <ele>575.3</ele>
        <time>2021-05-02T08:57:23.000Z</time>
      </trkpt>
      <trkpt lat="43.65122" lon="6.84182">
        <ele>575.9</ele>
        <time>2021-05-02T08:57:24.000Z</time>
      </trkpt>
      <trkpt lat="43.65121" lon="6.84185">
        <ele>576.4</ele>
        <time>2021-05-02T08:57:25.000Z</time>
      </trkpt>
      <trkpt lat="43.65119" lon="6.84188">
        <ele>577</ele>
        <time>2021-05-02T08:57:26.000Z</time>
      </trkpt>
      <trkpt lat="43.65117" lon="6.8419">
        <ele>577.3</ele>
        <time>2021-05-02T08:57:27.000Z</time>
      </trkpt>
      <trkpt lat="43.65116" lon="6.84193">
        <ele>577.5</ele>
        <time>2021-05-02T08:57:28.000Z</time>
      </trkpt>
      <trkpt lat="43.65114" lon="6.84196">
        <ele>577.8</ele>
        <time>2021-05-02T08:57:29.000Z</time>
      </trkpt>
      <trkpt lat="43.65113" lon="6.842">
        <ele>577.3</ele>
        <time>2021-05-02T08:57:30.000Z</time>
      </trkpt>
      <trkpt lat="43.65112" lon="6.84203">
        <ele>577.7</ele>
        <time>2021-05-02T08:57:31.000Z</time>
      </trkpt>
      <trkpt lat="43.65111" lon="6.84207">
        <ele>578</ele>
        <time>2021-05-02T08:57:32.000Z</time>
      </trkpt>
      <trkpt lat="43.6511" lon="6.8421">
        <ele>577.9</ele>
        <time>2021-05-02T08:57:33.000Z</time>
      </trkpt>
      <trkpt lat="43.65109" lon="6.84213">
        <ele>578.2</ele>
        <time>2021-05-02T08:57:34.000Z</time>
      </trkpt>
      <trkpt lat="43.65107" lon="6.84216">
        <ele>578.6</ele>
        <time>2021-05-02T08:57:35.000Z</time>
      </trkpt>
      <trkpt lat="43.65105" lon="6.84219">
        <ele>578.9</ele>
        <time>2021-05-02T08:57:36.000Z</time>
      </trkpt>
      <trkpt lat="43.65103" lon="6.84221">
        <ele>579</ele>
        <time>2021-05-02T08:57:37.000Z</time>
      </trkpt>
      <trkpt lat="43.65102" lon="6.84224">
        <ele>579.1</ele>
        <time>2021-05-02T08:57:38.000Z</time>
      </trkpt>
      <trkpt lat="43.651" lon="6.84226">
        <ele>579.7</ele>
        <time>2021-05-02T08:57:39.000Z</time>
      </trkpt>
      <trkpt lat="43.65098" lon="6.84229">
        <ele>579.6</ele>
        <time>2021-05-02T08:57:40.000Z</time>
      </trkpt>
      <trkpt lat="43.65095" lon="6.84232">
        <ele>580</ele>
        <time>2021-05-02T08:57:41.000Z</time>
      </trkpt>
      <trkpt lat="43.65093" lon="6.84234">
        <ele>580.2</ele>
        <time>2021-05-02T08:57:42.000Z</time>
      </trkpt>
      <trkpt lat="43.6509" lon="6.84237">
        <ele>580.1</ele>
        <time>2021-05-02T08:57:43.000Z</time>
      </trkpt>
      <trkpt lat="43.65088" lon="6.84239">
        <ele>579.7</ele>
        <time>2021-05-02T08:57:44.000Z</time>
      </trkpt>
      <trkpt lat="43.65086" lon="6.84241">
        <ele>579.7</ele>
        <time>2021-05-02T08:57:45.000Z</time>
      </trkpt>
      <trkpt lat="43.65083" lon="6.84243">
        <ele>579.6</ele>
        <time>2021-05-02T08:57:46.000Z</time>
      </trkpt>
      <trkpt lat="43.6508" lon="6.84245">
        <ele>579.1</ele>
        <time>2021-05-02T08:57:47.000Z</time>
      </trkpt>
      <trkpt lat="43.65077" lon="6.84247">
        <ele>579</ele>
        <time>2021-05-02T08:57:48.000Z</time>
      </trkpt>
      <trkpt lat="43.65075" lon="6.84249">
        <ele>578.7</ele>
        <time>2021-05-02T08:57:49.000Z</time>
      </trkpt>
      <trkpt lat="43.65073" lon="6.84251">
        <ele>578.4</ele>
        <time>2021-05-02T08:57:50.000Z</time>
      </trkpt>
      <trkpt lat="43.65071" lon="6.84254">
        <ele>578.6</ele>
        <time>2021-05-02T08:57:51.000Z</time>
      </trkpt>
      <trkpt lat="43.65069" lon="6.84255">
        <ele>578.8</ele>
        <time>2021-05-02T08:57:52.000Z</time>
      </trkpt>
      <trkpt lat="43.65068" lon="6.84257">
        <ele>578.8</ele>
        <time>2021-05-02T08:57:53.000Z</time>
      </trkpt>
      <trkpt lat="43.65066" lon="6.84259">
        <ele>578.4</ele>
        <time>2021-05-02T08:57:54.000Z</time>
      </trkpt>
      <trkpt lat="43.65064" lon="6.84261">
        <ele>577.3</ele>
        <time>2021-05-02T08:57:55.000Z</time>
      </trkpt>
      <trkpt lat="43.65061" lon="6.84264">
        <ele>576.9</ele>
        <time>2021-05-02T08:57:56.000Z</time>
      </trkpt>
      <trkpt lat="43.65059" lon="6.84267">
        <ele>575.8</ele>
        <time>2021-05-02T08:57:57.000Z</time>
      </trkpt>
      <trkpt lat="43.65057" lon="6.84269">
        <ele>575.7</ele>
        <time>2021-05-02T08:57:58.000Z</time>
      </trkpt>
      <trkpt lat="43.65054" lon="6.84271">
        <ele>575.6</ele>
        <time>2021-05-02T08:57:59.000Z</time>
      </trkpt>
      <trkpt lat="43.65052" lon="6.84273">
        <ele>575.4</ele>
        <time>2021-05-02T08:58:00.000Z</time>
      </trkpt>
      <trkpt lat="43.65051" lon="6.84275">
        <ele>574.5</ele>
        <time>2021-05-02T08:58:01.000Z</time>
      </trkpt>
      <trkpt lat="43.65049" lon="6.84276">
        <ele>574.2</ele>
        <time>2021-05-02T08:58:02.000Z</time>
      </trkpt>
      <trkpt lat="43.65047" lon="6.84279">
        <ele>574.6</ele>
        <time>2021-05-02T08:58:03.000Z</time>
      </trkpt>
      <trkpt lat="43.65045" lon="6.84281">
        <ele>575</ele>
        <time>2021-05-02T08:58:04.000Z</time>
      </trkpt>
      <trkpt lat="43.65043" lon="6.84284">
        <ele>575.1</ele>
        <time>2021-05-02T08:58:05.000Z</time>
      </trkpt>
      <trkpt lat="43.65041" lon="6.84285">
        <ele>575</ele>
        <time>2021-05-02T08:58:06.000Z</time>
      </trkpt>
      <trkpt lat="43.65038" lon="6.84287">
        <ele>574.9</ele>
        <time>2021-05-02T08:58:07.000Z</time>
      </trkpt>
      <trkpt lat="43.65036" lon="6.8429">
        <ele>574.6</ele>
        <time>2021-05-02T08:58:08.000Z</time>
      </trkpt>
      <trkpt lat="43.65034" lon="6.84292">
        <ele>574.2</ele>
        <time>2021-05-02T08:58:09.000Z</time>
      </trkpt>
      <trkpt lat="43.65032" lon="6.84294">
        <ele>574.1</ele>
        <time>2021-05-02T08:58:10.000Z</time>
      </trkpt>
      <trkpt lat="43.6503" lon="6.84296">
        <ele>573.8</ele>
        <time>2021-05-02T08:58:11.000Z</time>
      </trkpt>
      <trkpt lat="43.65028" lon="6.84297">
        <ele>573.4</ele>
        <time>2021-05-02T08:58:12.000Z</time>
      </trkpt>
      <trkpt lat="43.65026" lon="6.84299">
        <ele>573.9</ele>
        <time>2021-05-02T08:58:13.000Z</time>
      </trkpt>
      <trkpt lat="43.65024" lon="6.84301">
        <ele>574.4</ele>
        <time>2021-05-02T08:58:14.000Z</time>
      </trkpt>
      <trkpt lat="43.65021" lon="6.84303">
        <ele>575</ele>
        <time>2021-05-02T08:58:15.000Z</time>
      </trkpt>
      <trkpt lat="43.65019" lon="6.84304">
        <ele>575.1</ele>
        <time>2021-05-02T08:58:16.000Z</time>
      </trkpt>
      <trkpt lat="43.65017" lon="6.84306">
        <ele>575.5</ele>
        <time>2021-05-02T08:58:17.000Z</time>
      </trkpt>
      <trkpt lat="43.65015" lon="6.84308">
        <ele>576.2</ele>
        <time>2021-05-02T08:58:18.000Z</time>
      </trkpt>
      <trkpt lat="43.65014" lon="6.84309">
        <ele>577.5</ele>
        <time>2021-05-02T08:58:19.000Z</time>
      </trkpt>
      <trkpt lat="43.65012" lon="6.8431">
        <ele>578.4</ele>
        <time>2021-05-02T08:58:20.000Z</time>
      </trkpt>
      <trkpt lat="43.6501" lon="6.84311">
        <ele>579.1</ele>
        <time>2021-05-02T08:58:21.000Z</time>
      </trkpt>
      <trkpt lat="43.65008" lon="6.84312">
        <ele>580.1</ele>
        <time>2021-05-02T08:58:22.000Z</time>
      </trkpt>
      <trkpt lat="43.65006" lon="6.84314">
        <ele>580.7</ele>
        <time>2021-05-02T08:58:23.000Z</time>
      </trkpt>
      <trkpt lat="43.65004" lon="6.84315">
        <ele>581.1</ele>
        <time>2021-05-02T08:58:24.000Z</time>
      </trkpt>
      <trkpt lat="43.65001" lon="6.84316">
        <ele>581.4</ele>
        <time>2021-05-02T08:58:25.000Z</time>
      </trkpt>
      <trkpt lat="43.64999" lon="6.84317">
        <ele>581.7</ele>
        <time>2021-05-02T08:58:26.000Z</time>
      </trkpt>
      <trkpt lat="43.64997" lon="6.84319">
        <ele>582.6</ele>
        <time>2021-05-02T08:58:27.000Z</time>
      </trkpt>
      <trkpt lat="43.64995" lon="6.8432">
        <ele>582.6</ele>
        <time>2021-05-02T08:58:28.000Z</time>
      </trkpt>
      <trkpt lat="43.64993" lon="6.84322">
        <ele>583.1</ele>
        <time>2021-05-02T08:58:29.000Z</time>
      </trkpt>
      <trkpt lat="43.64991" lon="6.84324">
        <ele>583.7</ele>
        <time>2021-05-02T08:58:30.000Z</time>
      </trkpt>
      <trkpt lat="43.6499" lon="6.84326">
        <ele>584.2</ele>
        <time>2021-05-02T08:58:31.000Z</time>
      </trkpt>
      <trkpt lat="43.64989" lon="6.84329">
        <ele>584.7</ele>
        <time>2021-05-02T08:58:32.000Z</time>
      </trkpt>
      <trkpt lat="43.64988" lon="6.8433">
        <ele>584.9</ele>
        <time>2021-05-02T08:58:33.000Z</time>
      </trkpt>
      <trkpt lat="43.64986" lon="6.84332">
        <ele>585.3</ele>
        <time>2021-05-02T08:58:34.000Z</time>
      </trkpt>
      <trkpt lat="43.64985" lon="6.84334">
        <ele>584.9</ele>
        <time>2021-05-02T08:58:35.000Z</time>
      </trkpt>
      <trkpt lat="43.64983" lon="6.84335">
        <ele>584.8</ele>
        <time>2021-05-02T08:58:36.000Z</time>
      </trkpt>
      <trkpt lat="43.64981" lon="6.84336">
        <ele>584.9</ele>
        <time>2021-05-02T08:58:37.000Z</time>
      </trkpt>
      <trkpt lat="43.64978" lon="6.84338">
        <ele>585.5</ele>
        <time>2021-05-02T08:58:38.000Z</time>
      </trkpt>
      <trkpt lat="43.64976" lon="6.84339">
        <ele>586</ele>
        <time>2021-05-02T08:58:39.000Z</time>
      </trkpt>
      <trkpt lat="43.64973" lon="6.84341">
        <ele>586.5</ele>
        <time>2021-05-02T08:58:40.000Z</time>
      </trkpt>
      <trkpt lat="43.64971" lon="6.84343">
        <ele>586.7</ele>
        <time>2021-05-02T08:58:41.000Z</time>
      </trkpt>
      <trkpt lat="43.6497" lon="6.84344">
        <ele>586.9</ele>
        <time>2021-05-02T08:58:42.000Z</time>
      </trkpt>
      <trkpt lat="43.64968" lon="6.84345">
        <ele>587.4</ele>
        <time>2021-05-02T08:58:43.000Z</time>
      </trkpt>
      <trkpt lat="43.64967" lon="6.84345">
        <ele>587.8</ele>
        <time>2021-05-02T08:58:44.000Z</time>
      </trkpt>
      <trkpt lat="43.64966" lon="6.84347">
        <ele>588.1</ele>
        <time>2021-05-02T08:58:45.000Z</time>
      </trkpt>
      <trkpt lat="43.64964" lon="6.84349">
        <ele>588.7</ele>
        <time>2021-05-02T08:58:46.000Z</time>
      </trkpt>
      <trkpt lat="43.64963" lon="6.84351">
        <ele>588.9</ele>
        <time>2021-05-02T08:58:47.000Z</time>
      </trkpt>
      <trkpt lat="43.64962" lon="6.84354">
        <ele>589.2</ele>
        <time>2021-05-02T08:58:48.000Z</time>
      </trkpt>
      <trkpt lat="43.64959" lon="6.84358">
        <ele>588.8</ele>
        <time>2021-05-02T08:58:49.000Z</time>
      </trkpt>
      <trkpt lat="43.64957" lon="6.84361">
        <ele>588.8</ele>
        <time>2021-05-02T08:58:50.000Z</time>
      </trkpt>
      <trkpt lat="43.64954" lon="6.84364">
        <ele>588.8</ele>
        <time>2021-05-02T08:58:51.000Z</time>
      </trkpt>
      <trkpt lat="43.64952" lon="6.84366">
        <ele>589</ele>
        <time>2021-05-02T08:58:52.000Z</time>
      </trkpt>
      <trkpt lat="43.64949" lon="6.84369">
        <ele>589.4</ele>
        <time>2021-05-02T08:58:53.000Z</time>
      </trkpt>
      <trkpt lat="43.64947" lon="6.84371">
        <ele>589.3</ele>
        <time>2021-05-02T08:58:54.000Z</time>
      </trkpt>
      <trkpt lat="43.64944" lon="6.84373">
        <ele>589.4</ele>
        <time>2021-05-02T08:58:55.000Z</time>
      </trkpt>
      <trkpt lat="43.64942" lon="6.84376">
        <ele>589.7</ele>
        <time>2021-05-02T08:58:56.000Z</time>
      </trkpt>
      <trkpt lat="43.6494" lon="6.84378">
        <ele>589.9</ele>
        <time>2021-05-02T08:58:57.000Z</time>
      </trkpt>
      <trkpt lat="43.64938" lon="6.8438">
        <ele>590.3</ele>
        <time>2021-05-02T08:58:58.000Z</time>
      </trkpt>
      <trkpt lat="43.64936" lon="6.84382">
        <ele>590.7</ele>
        <time>2021-05-02T08:58:59.000Z</time>
      </trkpt>
      <trkpt lat="43.64934" lon="6.84384">
        <ele>590.7</ele>
        <time>2021-05-02T08:59:00.000Z</time>
      </trkpt>
      <trkpt lat="43.64932" lon="6.84386">
        <ele>590.3</ele>
        <time>2021-05-02T08:59:01.000Z</time>
      </trkpt>
      <trkpt lat="43.6493" lon="6.84387">
        <ele>589.9</ele>
        <time>2021-05-02T08:59:02.000Z</time>
      </trkpt>
      <trkpt lat="43.64928" lon="6.84389">
        <ele>589.6</ele>
        <time>2021-05-02T08:59:03.000Z</time>
      </trkpt>
      <trkpt lat="43.64927" lon="6.8439">
        <ele>589.5</ele>
        <time>2021-05-02T08:59:04.000Z</time>
      </trkpt>
      <trkpt lat="43.64925" lon="6.84392">
        <ele>588.7</ele>
        <time>2021-05-02T08:59:05.000Z</time>
      </trkpt>
      <trkpt lat="43.64923" lon="6.84393">
        <ele>589.6</ele>
        <time>2021-05-02T08:59:06.000Z</time>
      </trkpt>
      <trkpt lat="43.64922" lon="6.84394">
        <ele>589.7</ele>
        <time>2021-05-02T08:59:07.000Z</time>
      </trkpt>
      <trkpt lat="43.6492" lon="6.84396">
        <ele>590.1</ele>
        <time>2021-05-02T08:59:08.000Z</time>
      </trkpt>
      <trkpt lat="43.64919" lon="6.84397">
        <ele>590.2</ele>
        <time>2021-05-02T08:59:09.000Z</time>
      </trkpt>
      <trkpt lat="43.64917" lon="6.84399">
        <ele>590.6</ele>
        <time>2021-05-02T08:59:10.000Z</time>
      </trkpt>
      <trkpt lat="43.64915" lon="6.84401">
        <ele>591.5</ele>
        <time>2021-05-02T08:59:11.000Z</time>
      </trkpt>
      <trkpt lat="43.64913" lon="6.84403">
        <ele>592</ele>
        <time>2021-05-02T08:59:12.000Z</time>
      </trkpt>
      <trkpt lat="43.64911" lon="6.84405">
        <ele>592.1</ele>
        <time>2021-05-02T08:59:13.000Z</time>
      </trkpt>
      <trkpt lat="43.64909" lon="6.84408">
        <ele>592.4</ele>
        <time>2021-05-02T08:59:14.000Z</time>
      </trkpt>
      <trkpt lat="43.64907" lon="6.8441">
        <ele>592.5</ele>
        <time>2021-05-02T08:59:15.000Z</time>
      </trkpt>
      <trkpt lat="43.64906" lon="6.84412">
        <ele>592.8</ele>
        <time>2021-05-02T08:59:16.000Z</time>
      </trkpt>
      <trkpt lat="43.64906" lon="6.84415">
        <ele>593.2</ele>
        <time>2021-05-02T08:59:17.000Z</time>
      </trkpt>
      <trkpt lat="43.64905" lon="6.84417">
        <ele>593.7</ele>
        <time>2021-05-02T08:59:18.000Z</time>
      </trkpt>
      <trkpt lat="43.64904" lon="6.84419">
        <ele>594.2</ele>
        <time>2021-05-02T08:59:19.000Z</time>
      </trkpt>
      <trkpt lat="43.64903" lon="6.84422">
        <ele>594.8</ele>
        <time>2021-05-02T08:59:20.000Z</time>
      </trkpt>
      <trkpt lat="43.64902" lon="6.84425">
        <ele>595.4</ele>
        <time>2021-05-02T08:59:21.000Z</time>
      </trkpt>
      <trkpt lat="43.64898" lon="6.84426">
        <ele>595.6</ele>
        <time>2021-05-02T08:59:22.000Z</time>
      </trkpt>
      <trkpt lat="43.64896" lon="6.84429">
        <ele>596</ele>
        <time>2021-05-02T08:59:23.000Z</time>
      </trkpt>
      <trkpt lat="43.64896" lon="6.84432">
        <ele>596</ele>
        <time>2021-05-02T08:59:24.000Z</time>
      </trkpt>
      <trkpt lat="43.64896" lon="6.84434">
        <ele>596.6</ele>
        <time>2021-05-02T08:59:25.000Z</time>
      </trkpt>
      <trkpt lat="43.64897" lon="6.84437">
        <ele>597.1</ele>
        <time>2021-05-02T08:59:26.000Z</time>
      </trkpt>
      <trkpt lat="43.64898" lon="6.84438">
        <ele>598.1</ele>
        <time>2021-05-02T08:59:27.000Z</time>
      </trkpt>
      <trkpt lat="43.64899" lon="6.84437">
        <ele>598.4</ele>
        <time>2021-05-02T08:59:28.000Z</time>
      </trkpt>
      <trkpt lat="43.64901" lon="6.84438">
        <ele>598.7</ele>
        <time>2021-05-02T08:59:29.000Z</time>
      </trkpt>
      <trkpt lat="43.64903" lon="6.84438">
        <ele>599</ele>
        <time>2021-05-02T08:59:30.000Z</time>
      </trkpt>
      <trkpt lat="43.64905" lon="6.84439">
        <ele>599.4</ele>
        <time>2021-05-02T08:59:31.000Z</time>
      </trkpt>
      <trkpt lat="43.64905" lon="6.8444">
        <ele>600.1</ele>
        <time>2021-05-02T08:59:33.000Z</time>
      </trkpt>
      <trkpt lat="43.64911" lon="6.84442">
        <ele>600.2</ele>
        <time>2021-05-02T08:59:45.000Z</time>
      </trkpt>
      <trkpt lat="43.64912" lon="6.84442">
        <ele>600.1</ele>
        <time>2021-05-02T08:59:46.000Z</time>
      </trkpt>
      <trkpt lat="43.64915" lon="6.84442">
        <ele>600.1</ele>
        <time>2021-05-02T08:59:47.000Z</time>
      </trkpt>
      <trkpt lat="43.64917" lon="6.84443">
        <ele>600.2</ele>
        <time>2021-05-02T08:59:48.000Z</time>
      </trkpt>
      <trkpt lat="43.64919" lon="6.84443">
        <ele>600.1</ele>
        <time>2021-05-02T08:59:49.000Z</time>
      </trkpt>
      <trkpt lat="43.64922" lon="6.84443">
        <ele>600</ele>
        <time>2021-05-02T08:59:50.000Z</time>
      </trkpt>
      <trkpt lat="43.64924" lon="6.84443">
        <ele>600</ele>
        <time>2021-05-02T08:59:51.000Z</time>
      </trkpt>
      <trkpt lat="43.64926" lon="6.84443">
        <ele>599.9</ele>
        <time>2021-05-02T08:59:52.000Z</time>
      </trkpt>
      <trkpt lat="43.64928" lon="6.84442">
        <ele>599.9</ele>
        <time>2021-05-02T08:59:53.000Z</time>
      </trkpt>
      <trkpt lat="43.64931" lon="6.84443">
        <ele>599.8</ele>
        <time>2021-05-02T08:59:54.000Z</time>
      </trkpt>
      <trkpt lat="43.64934" lon="6.84443">
        <ele>599.9</ele>
        <time>2021-05-02T08:59:55.000Z</time>
      </trkpt>
      <trkpt lat="43.64937" lon="6.84442">
        <ele>600.3</ele>
        <time>2021-05-02T08:59:56.000Z</time>
      </trkpt>
      <trkpt lat="43.64941" lon="6.84441">
        <ele>600.6</ele>
        <time>2021-05-02T08:59:57.000Z</time>
      </trkpt>
      <trkpt lat="43.64944" lon="6.84439">
        <ele>600.9</ele>
        <time>2021-05-02T08:59:58.000Z</time>
      </trkpt>
      <trkpt lat="43.64947" lon="6.84437">
        <ele>600.9</ele>
        <time>2021-05-02T08:59:59.000Z</time>
      </trkpt>
      <trkpt lat="43.6495" lon="6.84434">
        <ele>601.1</ele>
        <time>2021-05-02T09:00:00.000Z</time>
      </trkpt>
      <trkpt lat="43.64953" lon="6.84432">
        <ele>601.3</ele>
        <time>2021-05-02T09:00:01.000Z</time>
      </trkpt>
      <trkpt lat="43.64956" lon="6.8443">
        <ele>601.5</ele>
        <time>2021-05-02T09:00:02.000Z</time>
      </trkpt>
      <trkpt lat="43.64959" lon="6.84429">
        <ele>601.7</ele>
        <time>2021-05-02T09:00:03.000Z</time>
      </trkpt>
      <trkpt lat="43.64963" lon="6.84428">
        <ele>602.1</ele>
        <time>2021-05-02T09:00:04.000Z</time>
      </trkpt>
      <trkpt lat="43.64966" lon="6.84426">
        <ele>602.4</ele>
        <time>2021-05-02T09:00:05.000Z</time>
      </trkpt>
      <trkpt lat="43.64968" lon="6.84426">
        <ele>602.8</ele>
        <time>2021-05-02T09:00:06.000Z</time>
      </trkpt>
      <trkpt lat="43.6497" lon="6.84426">
        <ele>602.9</ele>
        <time>2021-05-02T09:00:07.000Z</time>
      </trkpt>
      <trkpt lat="43.64973" lon="6.84426">
        <ele>603.2</ele>
        <time>2021-05-02T09:00:08.000Z</time>
      </trkpt>
      <trkpt lat="43.64975" lon="6.84428">
        <ele>603.7</ele>
        <time>2021-05-02T09:00:09.000Z</time>
      </trkpt>
      <trkpt lat="43.64978" lon="6.84429">
        <ele>604.2</ele>
        <time>2021-05-02T09:00:10.000Z</time>
      </trkpt>
      <trkpt lat="43.6498" lon="6.8443">
        <ele>604.7</ele>
        <time>2021-05-02T09:00:11.000Z</time>
      </trkpt>
      <trkpt lat="43.64982" lon="6.84431">
        <ele>605.2</ele>
        <time>2021-05-02T09:00:12.000Z</time>
      </trkpt>
      <trkpt lat="43.64985" lon="6.84432">
        <ele>605.5</ele>
        <time>2021-05-02T09:00:13.000Z</time>
      </trkpt>
      <trkpt lat="43.64987" lon="6.84433">
        <ele>606</ele>
        <time>2021-05-02T09:00:14.000Z</time>
      </trkpt>
      <trkpt lat="43.6499" lon="6.84435">
        <ele>606.9</ele>
        <time>2021-05-02T09:00:15.000Z</time>
      </trkpt>
      <trkpt lat="43.64992" lon="6.84437">
        <ele>607.4</ele>
        <time>2021-05-02T09:00:16.000Z</time>
      </trkpt>
      <trkpt lat="43.64994" lon="6.84437">
        <ele>607.9</ele>
        <time>2021-05-02T09:00:17.000Z</time>
      </trkpt>
      <trkpt lat="43.64996" lon="6.84439">
        <ele>608.5</ele>
        <time>2021-05-02T09:00:18.000Z</time>
      </trkpt>
      <trkpt lat="43.64999" lon="6.8444">
        <ele>608.8</ele>
        <time>2021-05-02T09:00:19.000Z</time>
      </trkpt>
      <trkpt lat="43.65001" lon="6.8444">
        <ele>609.2</ele>
        <time>2021-05-02T09:00:20.000Z</time>
      </trkpt>
      <trkpt lat="43.65003" lon="6.84442">
        <ele>609.7</ele>
        <time>2021-05-02T09:00:21.000Z</time>
      </trkpt>
      <trkpt lat="43.65006" lon="6.84444">
        <ele>610.2</ele>
        <time>2021-05-02T09:00:22.000Z</time>
      </trkpt>
      <trkpt lat="43.65009" lon="6.84445">
        <ele>610.6</ele>
        <time>2021-05-02T09:00:23.000Z</time>
      </trkpt>
      <trkpt lat="43.65012" lon="6.84446">
        <ele>610.9</ele>
        <time>2021-05-02T09:00:24.000Z</time>
      </trkpt>
      <trkpt lat="43.65016" lon="6.84448">
        <ele>611.4</ele>
        <time>2021-05-02T09:00:25.000Z</time>
      </trkpt>
      <trkpt lat="43.65018" lon="6.8445">
        <ele>611.7</ele>
        <time>2021-05-02T09:00:26.000Z</time>
      </trkpt>
      <trkpt lat="43.65021" lon="6.84451">
        <ele>612.1</ele>
        <time>2021-05-02T09:00:27.000Z</time>
      </trkpt>
      <trkpt lat="43.65025" lon="6.84452">
        <ele>612.5</ele>
        <time>2021-05-02T09:00:28.000Z</time>
      </trkpt>
      <trkpt lat="43.65028" lon="6.84452">
        <ele>612.9</ele>
        <time>2021-05-02T09:00:29.000Z</time>
      </trkpt>
      <trkpt lat="43.65031" lon="6.84454">
        <ele>613.1</ele>
        <time>2021-05-02T09:00:30.000Z</time>
      </trkpt>
      <trkpt lat="43.65033" lon="6.84455">
        <ele>613.4</ele>
        <time>2021-05-02T09:00:31.000Z</time>
      </trkpt>
      <trkpt lat="43.65037" lon="6.84454">
        <ele>613.5</ele>
        <time>2021-05-02T09:00:32.000Z</time>
      </trkpt>
      <trkpt lat="43.6504" lon="6.84454">
        <ele>613.3</ele>
        <time>2021-05-02T09:00:33.000Z</time>
      </trkpt>
      <trkpt lat="43.65042" lon="6.84455">
        <ele>613.2</ele>
        <time>2021-05-02T09:00:34.000Z</time>
      </trkpt>
      <trkpt lat="43.65045" lon="6.84456">
        <ele>613.3</ele>
        <time>2021-05-02T09:00:35.000Z</time>
      </trkpt>
      <trkpt lat="43.65046" lon="6.84456">
        <ele>613.4</ele>
        <time>2021-05-02T09:00:36.000Z</time>
      </trkpt>
      <trkpt lat="43.65049" lon="6.84455">
        <ele>613.4</ele>
        <time>2021-05-02T09:00:37.000Z</time>
      </trkpt>
      <trkpt lat="43.65052" lon="6.84455">
        <ele>613.4</ele>
        <time>2021-05-02T09:00:38.000Z</time>
      </trkpt>
      <trkpt lat="43.65056" lon="6.84456">
        <ele>613.4</ele>
        <time>2021-05-02T09:00:39.000Z</time>
      </trkpt>
      <trkpt lat="43.6506" lon="6.84456">
        <ele>613.3</ele>
        <time>2021-05-02T09:00:40.000Z</time>
      </trkpt>
      <trkpt lat="43.65063" lon="6.84457">
        <ele>613.2</ele>
        <time>2021-05-02T09:00:41.000Z</time>
      </trkpt>
      <trkpt lat="43.65066" lon="6.84457">
        <ele>613.7</ele>
        <time>2021-05-02T09:00:42.000Z</time>
      </trkpt>
      <trkpt lat="43.65069" lon="6.84457">
        <ele>614</ele>
        <time>2021-05-02T09:00:43.000Z</time>
      </trkpt>
      <trkpt lat="43.65076" lon="6.84456">
        <ele>613.7</ele>
        <time>2021-05-02T09:00:44.000Z</time>
      </trkpt>
      <trkpt lat="43.65079" lon="6.84456">
        <ele>613.9</ele>
        <time>2021-05-02T09:00:45.000Z</time>
      </trkpt>
      <trkpt lat="43.65082" lon="6.84457">
        <ele>614.2</ele>
        <time>2021-05-02T09:00:46.000Z</time>
      </trkpt>
      <trkpt lat="43.65086" lon="6.84457">
        <ele>614.3</ele>
        <time>2021-05-02T09:00:47.000Z</time>
      </trkpt>
      <trkpt lat="43.6509" lon="6.84457">
        <ele>614.5</ele>
        <time>2021-05-02T09:00:48.000Z</time>
      </trkpt>
      <trkpt lat="43.65095" lon="6.84459">
        <ele>615.2</ele>
        <time>2021-05-02T09:00:49.000Z</time>
      </trkpt>
      <trkpt lat="43.65099" lon="6.8446">
        <ele>615.7</ele>
        <time>2021-05-02T09:00:50.000Z</time>
      </trkpt>
      <trkpt lat="43.65103" lon="6.8446">
        <ele>615.9</ele>
        <time>2021-05-02T09:00:51.000Z</time>
      </trkpt>
      <trkpt lat="43.65106" lon="6.8446">
        <ele>616</ele>
        <time>2021-05-02T09:00:52.000Z</time>
      </trkpt>
      <trkpt lat="43.65111" lon="6.84461">
        <ele>616.5</ele>
        <time>2021-05-02T09:00:53.000Z</time>
      </trkpt>
      <trkpt lat="43.65115" lon="6.84462">
        <ele>617.7</ele>
        <time>2021-05-02T09:00:54.000Z</time>
      </trkpt>
      <trkpt lat="43.65119" lon="6.84462">
        <ele>618.3</ele>
        <time>2021-05-02T09:00:55.000Z</time>
      </trkpt>
      <trkpt lat="43.65122" lon="6.8446">
        <ele>618.7</ele>
        <time>2021-05-02T09:00:56.000Z</time>
      </trkpt>
      <trkpt lat="43.65125" lon="6.84459">
        <ele>619.2</ele>
        <time>2021-05-02T09:00:57.000Z</time>
      </trkpt>
      <trkpt lat="43.65129" lon="6.84459">
        <ele>619.3</ele>
        <time>2021-05-02T09:00:58.000Z</time>
      </trkpt>
      <trkpt lat="43.65132" lon="6.84458">
        <ele>619.2</ele>
        <time>2021-05-02T09:00:59.000Z</time>
      </trkpt>
      <trkpt lat="43.65136" lon="6.84458">
        <ele>618.9</ele>
        <time>2021-05-02T09:01:00.000Z</time>
      </trkpt>
      <trkpt lat="43.6514" lon="6.84458">
        <ele>618.8</ele>
        <time>2021-05-02T09:01:01.000Z</time>
      </trkpt>
      <trkpt lat="43.65144" lon="6.84459">
        <ele>618.8</ele>
        <time>2021-05-02T09:01:02.000Z</time>
      </trkpt>
      <trkpt lat="43.65147" lon="6.8446">
        <ele>619</ele>
        <time>2021-05-02T09:01:03.000Z</time>
      </trkpt>
      <trkpt lat="43.6515" lon="6.84461">
        <ele>619.1</ele>
        <time>2021-05-02T09:01:04.000Z</time>
      </trkpt>
      <trkpt lat="43.65154" lon="6.84461">
        <ele>618.5</ele>
        <time>2021-05-02T09:01:05.000Z</time>
      </trkpt>
      <trkpt lat="43.65159" lon="6.84461">
        <ele>617.9</ele>
        <time>2021-05-02T09:01:06.000Z</time>
      </trkpt>
      <trkpt lat="43.65162" lon="6.8446">
        <ele>617.3</ele>
        <time>2021-05-02T09:01:07.000Z</time>
      </trkpt>
      <trkpt lat="43.65165" lon="6.84461">
        <ele>617.8</ele>
        <time>2021-05-02T09:01:08.000Z</time>
      </trkpt>
      <trkpt lat="43.65169" lon="6.84461">
        <ele>617.8</ele>
        <time>2021-05-02T09:01:09.000Z</time>
      </trkpt>
      <trkpt lat="43.65172" lon="6.8446">
        <ele>617.5</ele>
        <time>2021-05-02T09:01:10.000Z</time>
      </trkpt>
      <trkpt lat="43.65175" lon="6.84459">
        <ele>616.2</ele>
        <time>2021-05-02T09:01:11.000Z</time>
      </trkpt>
      <trkpt lat="43.65179" lon="6.84458">
        <ele>615.2</ele>
        <time>2021-05-02T09:01:12.000Z</time>
      </trkpt>
      <trkpt lat="43.65183" lon="6.84457">
        <ele>614.5</ele>
        <time>2021-05-02T09:01:13.000Z</time>
      </trkpt>
      <trkpt lat="43.65186" lon="6.84456">
        <ele>613.2</ele>
        <time>2021-05-02T09:01:14.000Z</time>
      </trkpt>
      <trkpt lat="43.65189" lon="6.84455">
        <ele>612.6</ele>
        <time>2021-05-02T09:01:15.000Z</time>
      </trkpt>
      <trkpt lat="43.65195" lon="6.84454">
        <ele>610.4</ele>
        <time>2021-05-02T09:01:16.000Z</time>
      </trkpt>
      <trkpt lat="43.65199" lon="6.84454">
        <ele>608.9</ele>
        <time>2021-05-02T09:01:17.000Z</time>
      </trkpt>
      <trkpt lat="43.65202" lon="6.84453">
        <ele>607.5</ele>
        <time>2021-05-02T09:01:18.000Z</time>
      </trkpt>
      <trkpt lat="43.65204" lon="6.84452">
        <ele>606.8</ele>
        <time>2021-05-02T09:01:19.000Z</time>
      </trkpt>
      <trkpt lat="43.65207" lon="6.84452">
        <ele>607</ele>
        <time>2021-05-02T09:01:20.000Z</time>
      </trkpt>
      <trkpt lat="43.6521" lon="6.84451">
        <ele>606.4</ele>
        <time>2021-05-02T09:01:21.000Z</time>
      </trkpt>
      <trkpt lat="43.65213" lon="6.84451">
        <ele>606.2</ele>
        <time>2021-05-02T09:01:22.000Z</time>
      </trkpt>
      <trkpt lat="43.65216" lon="6.84451">
        <ele>604.5</ele>
        <time>2021-05-02T09:01:23.000Z</time>
      </trkpt>
      <trkpt lat="43.65219" lon="6.8445">
        <ele>603.8</ele>
        <time>2021-05-02T09:01:24.000Z</time>
      </trkpt>
      <trkpt lat="43.65223" lon="6.84449">
        <ele>603.4</ele>
        <time>2021-05-02T09:01:25.000Z</time>
      </trkpt>
      <trkpt lat="43.65226" lon="6.84448">
        <ele>602.6</ele>
        <time>2021-05-02T09:01:26.000Z</time>
      </trkpt>
      <trkpt lat="43.65229" lon="6.84447">
        <ele>603.1</ele>
        <time>2021-05-02T09:01:27.000Z</time>
      </trkpt>
      <trkpt lat="43.65232" lon="6.84446">
        <ele>603.8</ele>
        <time>2021-05-02T09:01:28.000Z</time>
      </trkpt>
      <trkpt lat="43.65237" lon="6.84444">
        <ele>603.5</ele>
        <time>2021-05-02T09:01:29.000Z</time>
      </trkpt>
      <trkpt lat="43.6524" lon="6.84443">
        <ele>604.3</ele>
        <time>2021-05-02T09:01:30.000Z</time>
      </trkpt>
      <trkpt lat="43.65242" lon="6.84443">
        <ele>606.8</ele>
        <time>2021-05-02T09:01:31.000Z</time>
      </trkpt>
      <trkpt lat="43.65245" lon="6.84442">
        <ele>606.8</ele>
        <time>2021-05-02T09:01:32.000Z</time>
      </trkpt>
      <trkpt lat="43.65248" lon="6.84441">
        <ele>607.4</ele>
        <time>2021-05-02T09:01:33.000Z</time>
      </trkpt>
      <trkpt lat="43.6525" lon="6.8444">
        <ele>607.6</ele>
        <time>2021-05-02T09:01:34.000Z</time>
      </trkpt>
      <trkpt lat="43.65254" lon="6.84438">
        <ele>606.1</ele>
        <time>2021-05-02T09:01:35.000Z</time>
      </trkpt>
      <trkpt lat="43.65256" lon="6.84436">
        <ele>605.7</ele>
        <time>2021-05-02T09:01:36.000Z</time>
      </trkpt>
      <trkpt lat="43.65258" lon="6.84435">
        <ele>605.8</ele>
        <time>2021-05-02T09:01:37.000Z</time>
      </trkpt>
      <trkpt lat="43.65259" lon="6.84434">
        <ele>605.4</ele>
        <time>2021-05-02T09:01:38.000Z</time>
      </trkpt>
      <trkpt lat="43.65261" lon="6.84433">
        <ele>604.9</ele>
        <time>2021-05-02T09:01:39.000Z</time>
      </trkpt>
      <trkpt lat="43.65263" lon="6.84431">
        <ele>604.2</ele>
        <time>2021-05-02T09:01:40.000Z</time>
      </trkpt>
      <trkpt lat="43.65265" lon="6.84429">
        <ele>604.3</ele>
        <time>2021-05-02T09:01:41.000Z</time>
      </trkpt>
      <trkpt lat="43.65267" lon="6.84428">
        <ele>604.3</ele>
        <time>2021-05-02T09:01:42.000Z</time>
      </trkpt>
      <trkpt lat="43.65269" lon="6.84427">
        <ele>603.7</ele>
        <time>2021-05-02T09:01:43.000Z</time>
      </trkpt>
      <trkpt lat="43.65271" lon="6.84426">
        <ele>603.8</ele>
        <time>2021-05-02T09:01:44.000Z</time>
      </trkpt>
      <trkpt lat="43.65272" lon="6.84425">
        <ele>603.9</ele>
        <time>2021-05-02T09:01:45.000Z</time>
      </trkpt>
      <trkpt lat="43.65273" lon="6.84423">
        <ele>604.2</ele>
        <time>2021-05-02T09:01:46.000Z</time>
      </trkpt>
      <trkpt lat="43.65274" lon="6.84421">
        <ele>604</ele>
        <time>2021-05-02T09:01:47.000Z</time>
      </trkpt>
      <trkpt lat="43.65276" lon="6.8442">
        <ele>603.7</ele>
        <time>2021-05-02T09:01:48.000Z</time>
      </trkpt>
      <trkpt lat="43.65281" lon="6.84418">
        <ele>602.3</ele>
        <time>2021-05-02T09:01:50.000Z</time>
      </trkpt>
      <trkpt lat="43.65285" lon="6.84418">
        <ele>601</ele>
        <time>2021-05-02T09:01:51.000Z</time>
      </trkpt>
      <trkpt lat="43.65287" lon="6.84419">
        <ele>601</ele>
        <time>2021-05-02T09:01:52.000Z</time>
      </trkpt>
      <trkpt lat="43.6529" lon="6.84419">
        <ele>600.2</ele>
        <time>2021-05-02T09:01:53.000Z</time>
      </trkpt>
      <trkpt lat="43.65295" lon="6.84417">
        <ele>598.7</ele>
        <time>2021-05-02T09:01:54.000Z</time>
      </trkpt>
      <trkpt lat="43.65299" lon="6.84417">
        <ele>597.5</ele>
        <time>2021-05-02T09:01:55.000Z</time>
      </trkpt>
      <trkpt lat="43.65302" lon="6.84415">
        <ele>596.7</ele>
        <time>2021-05-02T09:01:56.000Z</time>
      </trkpt>
      <trkpt lat="43.65306" lon="6.84415">
        <ele>596.2</ele>
        <time>2021-05-02T09:01:57.000Z</time>
      </trkpt>
      <trkpt lat="43.65308" lon="6.84414">
        <ele>597</ele>
        <time>2021-05-02T09:01:58.000Z</time>
      </trkpt>
      <trkpt lat="43.6531" lon="6.84414">
        <ele>597.3</ele>
        <time>2021-05-02T09:01:59.000Z</time>
      </trkpt>
      <trkpt lat="43.65312" lon="6.84414">
        <ele>598.1</ele>
        <time>2021-05-02T09:02:00.000Z</time>
      </trkpt>
      <trkpt lat="43.65314" lon="6.84413">
        <ele>598.6</ele>
        <time>2021-05-02T09:02:01.000Z</time>
      </trkpt>
      <trkpt lat="43.65316" lon="6.84412">
        <ele>598.8</ele>
        <time>2021-05-02T09:02:02.000Z</time>
      </trkpt>
      <trkpt lat="43.65319" lon="6.84409">
        <ele>600.4</ele>
        <time>2021-05-02T09:02:07.000Z</time>
      </trkpt>
      <trkpt lat="43.65321" lon="6.84408">
        <ele>601.4</ele>
        <time>2021-05-02T09:02:08.000Z</time>
      </trkpt>
      <trkpt lat="43.65324" lon="6.84406">
        <ele>601.7</ele>
        <time>2021-05-02T09:02:09.000Z</time>
      </trkpt>
      <trkpt lat="43.65328" lon="6.84404">
        <ele>602.2</ele>
        <time>2021-05-02T09:02:10.000Z</time>
      </trkpt>
      <trkpt lat="43.65334" lon="6.844">
        <ele>602.1</ele>
        <time>2021-05-02T09:02:11.000Z</time>
      </trkpt>
      <trkpt lat="43.65339" lon="6.84397">
        <ele>602.4</ele>
        <time>2021-05-02T09:02:12.000Z</time>
      </trkpt>
      <trkpt lat="43.65344" lon="6.84393">
        <ele>603</ele>
        <time>2021-05-02T09:02:13.000Z</time>
      </trkpt>
      <trkpt lat="43.65349" lon="6.8439">
        <ele>602.6</ele>
        <time>2021-05-02T09:02:14.000Z</time>
      </trkpt>
      <trkpt lat="43.65354" lon="6.84389">
        <ele>602.6</ele>
        <time>2021-05-02T09:02:15.000Z</time>
      </trkpt>
      <trkpt lat="43.65359" lon="6.84389">
        <ele>602.5</ele>
        <time>2021-05-02T09:02:16.000Z</time>
      </trkpt>
      <trkpt lat="43.65366" lon="6.84389">
        <ele>602.3</ele>
        <time>2021-05-02T09:02:17.000Z</time>
      </trkpt>
      <trkpt lat="43.65373" lon="6.8439">
        <ele>601.6</ele>
        <time>2021-05-02T09:02:18.000Z</time>
      </trkpt>
      <trkpt lat="43.65379" lon="6.84391">
        <ele>601.6</ele>
        <time>2021-05-02T09:02:19.000Z</time>
      </trkpt>
      <trkpt lat="43.65384" lon="6.84393">
        <ele>601.7</ele>
        <time>2021-05-02T09:02:20.000Z</time>
      </trkpt>
      <trkpt lat="43.65389" lon="6.84395">
        <ele>601.8</ele>
        <time>2021-05-02T09:02:21.000Z</time>
      </trkpt>
      <trkpt lat="43.65394" lon="6.84397">
        <ele>602.5</ele>
        <time>2021-05-02T09:02:22.000Z</time>
      </trkpt>
      <trkpt lat="43.65398" lon="6.84398">
        <ele>603.3</ele>
        <time>2021-05-02T09:02:23.000Z</time>
      </trkpt>
      <trkpt lat="43.65402" lon="6.84399">
        <ele>603.6</ele>
        <time>2021-05-02T09:02:24.000Z</time>
      </trkpt>
      <trkpt lat="43.65405" lon="6.84399">
        <ele>603.8</ele>
        <time>2021-05-02T09:02:25.000Z</time>
      </trkpt>
      <trkpt lat="43.65408" lon="6.84399">
        <ele>603.7</ele>
        <time>2021-05-02T09:02:26.000Z</time>
      </trkpt>
      <trkpt lat="43.65411" lon="6.84399">
        <ele>603.9</ele>
        <time>2021-05-02T09:02:27.000Z</time>
      </trkpt>
      <trkpt lat="43.65413" lon="6.84398">
        <ele>603.7</ele>
        <time>2021-05-02T09:02:28.000Z</time>
      </trkpt>
      <trkpt lat="43.65416" lon="6.84398">
        <ele>603.7</ele>
        <time>2021-05-02T09:02:29.000Z</time>
      </trkpt>
      <trkpt lat="43.65419" lon="6.84398">
        <ele>603.9</ele>
        <time>2021-05-02T09:02:30.000Z</time>
      </trkpt>
      <trkpt lat="43.65422" lon="6.84398">
        <ele>603.3</ele>
        <time>2021-05-02T09:02:31.000Z</time>
      </trkpt>
      <trkpt lat="43.65425" lon="6.84398">
        <ele>603.3</ele>
        <time>2021-05-02T09:02:32.000Z</time>
      </trkpt>
      <trkpt lat="43.65427" lon="6.84398">
        <ele>603.5</ele>
        <time>2021-05-02T09:02:33.000Z</time>
      </trkpt>
      <trkpt lat="43.6543" lon="6.84398">
        <ele>604.2</ele>
        <time>2021-05-02T09:02:34.000Z</time>
      </trkpt>
      <trkpt lat="43.65433" lon="6.84399">
        <ele>604.7</ele>
        <time>2021-05-02T09:02:35.000Z</time>
      </trkpt>
      <trkpt lat="43.65436" lon="6.84399">
        <ele>604.4</ele>
        <time>2021-05-02T09:02:36.000Z</time>
      </trkpt>
      <trkpt lat="43.65439" lon="6.84399">
        <ele>604.7</ele>
        <time>2021-05-02T09:02:37.000Z</time>
      </trkpt>
      <trkpt lat="43.65443" lon="6.844">
        <ele>604.1</ele>
        <time>2021-05-02T09:02:38.000Z</time>
      </trkpt>
      <trkpt lat="43.65447" lon="6.84399">
        <ele>603.8</ele>
        <time>2021-05-02T09:02:39.000Z</time>
      </trkpt>
      <trkpt lat="43.6545" lon="6.84399">
        <ele>603.3</ele>
        <time>2021-05-02T09:02:40.000Z</time>
      </trkpt>
      <trkpt lat="43.65454" lon="6.84398">
        <ele>602.3</ele>
        <time>2021-05-02T09:02:41.000Z</time>
      </trkpt>
      <trkpt lat="43.65456" lon="6.84398">
        <ele>602.7</ele>
        <time>2021-05-02T09:02:42.000Z</time>
      </trkpt>
      <trkpt lat="43.65459" lon="6.84399">
        <ele>603.4</ele>
        <time>2021-05-02T09:02:43.000Z</time>
      </trkpt>
      <trkpt lat="43.65462" lon="6.84399">
        <ele>603.3</ele>
        <time>2021-05-02T09:02:44.000Z</time>
      </trkpt>
      <trkpt lat="43.65465" lon="6.84399">
        <ele>602.8</ele>
        <time>2021-05-02T09:02:45.000Z</time>
      </trkpt>
      <trkpt lat="43.65467" lon="6.84399">
        <ele>603.1</ele>
        <time>2021-05-02T09:02:46.000Z</time>
      </trkpt>
      <trkpt lat="43.65469" lon="6.84399">
        <ele>604.6</ele>
        <time>2021-05-02T09:02:47.000Z</time>
      </trkpt>
      <trkpt lat="43.65472" lon="6.844">
        <ele>605.3</ele>
        <time>2021-05-02T09:02:48.000Z</time>
      </trkpt>
      <trkpt lat="43.65476" lon="6.84399">
        <ele>605.5</ele>
        <time>2021-05-02T09:02:49.000Z</time>
      </trkpt>
      <trkpt lat="43.65479" lon="6.84398">
        <ele>605.6</ele>
        <time>2021-05-02T09:02:50.000Z</time>
      </trkpt>
      <trkpt lat="43.65482" lon="6.84396">
        <ele>604.6</ele>
        <time>2021-05-02T09:02:51.000Z</time>
      </trkpt>
      <trkpt lat="43.65485" lon="6.84396">
        <ele>604.2</ele>
        <time>2021-05-02T09:02:52.000Z</time>
      </trkpt>
      <trkpt lat="43.65488" lon="6.84395">
        <ele>603.8</ele>
        <time>2021-05-02T09:02:53.000Z</time>
      </trkpt>
      <trkpt lat="43.65491" lon="6.84395">
        <ele>604.2</ele>
        <time>2021-05-02T09:02:54.000Z</time>
      </trkpt>
      <trkpt lat="43.65495" lon="6.84394">
        <ele>603.6</ele>
        <time>2021-05-02T09:02:55.000Z</time>
      </trkpt>
      <trkpt lat="43.65497" lon="6.84393">
        <ele>603.2</ele>
        <time>2021-05-02T09:02:56.000Z</time>
      </trkpt>
      <trkpt lat="43.655" lon="6.84393">
        <ele>603.2</ele>
        <time>2021-05-02T09:02:57.000Z</time>
      </trkpt>
      <trkpt lat="43.65503" lon="6.84394">
        <ele>602.4</ele>
        <time>2021-05-02T09:02:58.000Z</time>
      </trkpt>
      <trkpt lat="43.65505" lon="6.84394">
        <ele>602.1</ele>
        <time>2021-05-02T09:02:59.000Z</time>
      </trkpt>
      <trkpt lat="43.65508" lon="6.84395">
        <ele>601.7</ele>
        <time>2021-05-02T09:03:00.000Z</time>
      </trkpt>
      <trkpt lat="43.65511" lon="6.84396">
        <ele>602.1</ele>
        <time>2021-05-02T09:03:01.000Z</time>
      </trkpt>
      <trkpt lat="43.65514" lon="6.84396">
        <ele>602.3</ele>
        <time>2021-05-02T09:03:02.000Z</time>
      </trkpt>
      <trkpt lat="43.65516" lon="6.84395">
        <ele>602.4</ele>
        <time>2021-05-02T09:03:03.000Z</time>
      </trkpt>
      <trkpt lat="43.65521" lon="6.84395">
        <ele>601.7</ele>
        <time>2021-05-02T09:03:04.000Z</time>
      </trkpt>
      <trkpt lat="43.65524" lon="6.84394">
        <ele>602.2</ele>
        <time>2021-05-02T09:03:05.000Z</time>
      </trkpt>
      <trkpt lat="43.65527" lon="6.84395">
        <ele>603</ele>
        <time>2021-05-02T09:03:06.000Z</time>
      </trkpt>
      <trkpt lat="43.65531" lon="6.84395">
        <ele>602.1</ele>
        <time>2021-05-02T09:03:07.000Z</time>
      </trkpt>
      <trkpt lat="43.65533" lon="6.84397">
        <ele>602.2</ele>
        <time>2021-05-02T09:03:08.000Z</time>
      </trkpt>
      <trkpt lat="43.65535" lon="6.84399">
        <ele>601.8</ele>
        <time>2021-05-02T09:03:09.000Z</time>
      </trkpt>
      <trkpt lat="43.65537" lon="6.84401">
        <ele>602.1</ele>
        <time>2021-05-02T09:03:10.000Z</time>
      </trkpt>
      <trkpt lat="43.65539" lon="6.84404">
        <ele>601.6</ele>
        <time>2021-05-02T09:03:11.000Z</time>
      </trkpt>
      <trkpt lat="43.6554" lon="6.84405">
        <ele>601.8</ele>
        <time>2021-05-02T09:03:12.000Z</time>
      </trkpt>
      <trkpt lat="43.65542" lon="6.84406">
        <ele>601.9</ele>
        <time>2021-05-02T09:03:13.000Z</time>
      </trkpt>
      <trkpt lat="43.65545" lon="6.84407">
        <ele>602.4</ele>
        <time>2021-05-02T09:03:14.000Z</time>
      </trkpt>
      <trkpt lat="43.65547" lon="6.84408">
        <ele>603.6</ele>
        <time>2021-05-02T09:03:15.000Z</time>
      </trkpt>
      <trkpt lat="43.65549" lon="6.84409">
        <ele>603.7</ele>
        <time>2021-05-02T09:03:16.000Z</time>
      </trkpt>
      <trkpt lat="43.65552" lon="6.84409">
        <ele>604.1</ele>
        <time>2021-05-02T09:03:17.000Z</time>
      </trkpt>
      <trkpt lat="43.65554" lon="6.84409">
        <ele>604.2</ele>
        <time>2021-05-02T09:03:18.000Z</time>
      </trkpt>
      <trkpt lat="43.65557" lon="6.8441">
        <ele>605.6</ele>
        <time>2021-05-02T09:03:19.000Z</time>
      </trkpt>
      <trkpt lat="43.6556" lon="6.84411">
        <ele>606.7</ele>
        <time>2021-05-02T09:03:20.000Z</time>
      </trkpt>
      <trkpt lat="43.65562" lon="6.84412">
        <ele>607.1</ele>
        <time>2021-05-02T09:03:21.000Z</time>
      </trkpt>
      <trkpt lat="43.65564" lon="6.84412">
        <ele>607.8</ele>
        <time>2021-05-02T09:03:22.000Z</time>
      </trkpt>
      <trkpt lat="43.65567" lon="6.84412">
        <ele>607.5</ele>
        <time>2021-05-02T09:03:23.000Z</time>
      </trkpt>
      <trkpt lat="43.6557" lon="6.84412">
        <ele>608.3</ele>
        <time>2021-05-02T09:03:24.000Z</time>
      </trkpt>
      <trkpt lat="43.65572" lon="6.84411">
        <ele>608.5</ele>
        <time>2021-05-02T09:03:25.000Z</time>
      </trkpt>
      <trkpt lat="43.65574" lon="6.84411">
        <ele>608.7</ele>
        <time>2021-05-02T09:03:26.000Z</time>
      </trkpt>
      <trkpt lat="43.65576" lon="6.84411">
        <ele>608.8</ele>
        <time>2021-05-02T09:03:27.000Z</time>
      </trkpt>
      <trkpt lat="43.65578" lon="6.84412">
        <ele>608.7</ele>
        <time>2021-05-02T09:03:28.000Z</time>
      </trkpt>
      <trkpt lat="43.6558" lon="6.84412">
        <ele>608.8</ele>
        <time>2021-05-02T09:03:29.000Z</time>
      </trkpt>
      <trkpt lat="43.65582" lon="6.84412">
        <ele>609</ele>
        <time>2021-05-02T09:03:30.000Z</time>
      </trkpt>
      <trkpt lat="43.65585" lon="6.84412">
        <ele>609</ele>
        <time>2021-05-02T09:03:31.000Z</time>
      </trkpt>
      <trkpt lat="43.65587" lon="6.84412">
        <ele>609.2</ele>
        <time>2021-05-02T09:03:32.000Z</time>
      </trkpt>
      <trkpt lat="43.65589" lon="6.84412">
        <ele>609.1</ele>
        <time>2021-05-02T09:03:33.000Z</time>
      </trkpt>
      <trkpt lat="43.65591" lon="6.84412">
        <ele>609.7</ele>
        <time>2021-05-02T09:03:34.000Z</time>
      </trkpt>
      <trkpt lat="43.65593" lon="6.84414">
        <ele>610.2</ele>
        <time>2021-05-02T09:03:35.000Z</time>
      </trkpt>
      <trkpt lat="43.65595" lon="6.84415">
        <ele>610.5</ele>
        <time>2021-05-02T09:03:36.000Z</time>
      </trkpt>
      <trkpt lat="43.65597" lon="6.84417">
        <ele>610.6</ele>
        <time>2021-05-02T09:03:37.000Z</time>
      </trkpt>
      <trkpt lat="43.65599" lon="6.84418">
        <ele>610.3</ele>
        <time>2021-05-02T09:03:38.000Z</time>
      </trkpt>
      <trkpt lat="43.65602" lon="6.8442">
        <ele>610.1</ele>
        <time>2021-05-02T09:03:39.000Z</time>
      </trkpt>
      <trkpt lat="43.65604" lon="6.84422">
        <ele>609.7</ele>
        <time>2021-05-02T09:03:40.000Z</time>
      </trkpt>
      <trkpt lat="43.65606" lon="6.84424">
        <ele>609.8</ele>
        <time>2021-05-02T09:03:41.000Z</time>
      </trkpt>
      <trkpt lat="43.65608" lon="6.84426">
        <ele>610</ele>
        <time>2021-05-02T09:03:42.000Z</time>
      </trkpt>
      <trkpt lat="43.6561" lon="6.84427">
        <ele>610.4</ele>
        <time>2021-05-02T09:03:43.000Z</time>
      </trkpt>
      <trkpt lat="43.65612" lon="6.84428">
        <ele>610.2</ele>
        <time>2021-05-02T09:03:44.000Z</time>
      </trkpt>
      <trkpt lat="43.65614" lon="6.8443">
        <ele>610.2</ele>
        <time>2021-05-02T09:03:45.000Z</time>
      </trkpt>
      <trkpt lat="43.65615" lon="6.84432">
        <ele>610.3</ele>
        <time>2021-05-02T09:03:46.000Z</time>
      </trkpt>
      <trkpt lat="43.65616" lon="6.84434">
        <ele>610.7</ele>
        <time>2021-05-02T09:03:47.000Z</time>
      </trkpt>
      <trkpt lat="43.65617" lon="6.84436">
        <ele>611.4</ele>
        <time>2021-05-02T09:03:48.000Z</time>
      </trkpt>
      <trkpt lat="43.65618" lon="6.84438">
        <ele>611.6</ele>
        <time>2021-05-02T09:03:49.000Z</time>
      </trkpt>
      <trkpt lat="43.6562" lon="6.8444">
        <ele>611.8</ele>
        <time>2021-05-02T09:03:50.000Z</time>
      </trkpt>
      <trkpt lat="43.65621" lon="6.84442">
        <ele>612.1</ele>
        <time>2021-05-02T09:03:51.000Z</time>
      </trkpt>
      <trkpt lat="43.65622" lon="6.84443">
        <ele>612.4</ele>
        <time>2021-05-02T09:03:52.000Z</time>
      </trkpt>
      <trkpt lat="43.65622" lon="6.84445">
        <ele>612.8</ele>
        <time>2021-05-02T09:03:53.000Z</time>
      </trkpt>
      <trkpt lat="43.65622" lon="6.84446">
        <ele>612.9</ele>
        <time>2021-05-02T09:03:54.000Z</time>
      </trkpt>
      <trkpt lat="43.65621" lon="6.84448">
        <ele>613.3</ele>
        <time>2021-05-02T09:03:55.000Z</time>
      </trkpt>
      <trkpt lat="43.65619" lon="6.84451">
        <ele>613.7</ele>
        <time>2021-05-02T09:03:56.000Z</time>
      </trkpt>
      <trkpt lat="43.65617" lon="6.84453">
        <ele>614.3</ele>
        <time>2021-05-02T09:03:57.000Z</time>
      </trkpt>
      <trkpt lat="43.65615" lon="6.84456">
        <ele>614.8</ele>
        <time>2021-05-02T09:03:58.000Z</time>
      </trkpt>
      <trkpt lat="43.65614" lon="6.84458">
        <ele>615.4</ele>
        <time>2021-05-02T09:03:59.000Z</time>
      </trkpt>
      <trkpt lat="43.65613" lon="6.84461">
        <ele>616.2</ele>
        <time>2021-05-02T09:04:00.000Z</time>
      </trkpt>
      <trkpt lat="43.65612" lon="6.84464">
        <ele>617</ele>
        <time>2021-05-02T09:04:01.000Z</time>
      </trkpt>
      <trkpt lat="43.6561" lon="6.84466">
        <ele>617.7</ele>
        <time>2021-05-02T09:04:02.000Z</time>
      </trkpt>
      <trkpt lat="43.65608" lon="6.84468">
        <ele>618.4</ele>
        <time>2021-05-02T09:04:03.000Z</time>
      </trkpt>
      <trkpt lat="43.65607" lon="6.84471">
        <ele>618.9</ele>
        <time>2021-05-02T09:04:04.000Z</time>
      </trkpt>
      <trkpt lat="43.65606" lon="6.84474">
        <ele>619.6</ele>
        <time>2021-05-02T09:04:05.000Z</time>
      </trkpt>
      <trkpt lat="43.65605" lon="6.84477">
        <ele>620.4</ele>
        <time>2021-05-02T09:04:06.000Z</time>
      </trkpt>
      <trkpt lat="43.65604" lon="6.8448">
        <ele>621.4</ele>
        <time>2021-05-02T09:04:07.000Z</time>
      </trkpt>
      <trkpt lat="43.65603" lon="6.84483">
        <ele>622.2</ele>
        <time>2021-05-02T09:04:08.000Z</time>
      </trkpt>
      <trkpt lat="43.65602" lon="6.84485">
        <ele>623.1</ele>
        <time>2021-05-02T09:04:09.000Z</time>
      </trkpt>
      <trkpt lat="43.65601" lon="6.84488">
        <ele>624.1</ele>
        <time>2021-05-02T09:04:10.000Z</time>
      </trkpt>
      <trkpt lat="43.65599" lon="6.84491">
        <ele>624.5</ele>
        <time>2021-05-02T09:04:11.000Z</time>
      </trkpt>
      <trkpt lat="43.65597" lon="6.84498">
        <ele>625.6</ele>
        <time>2021-05-02T09:04:13.000Z</time>
      </trkpt>
      <trkpt lat="43.65596" lon="6.84502">
        <ele>625.7</ele>
        <time>2021-05-02T09:04:14.000Z</time>
      </trkpt>
      <trkpt lat="43.65596" lon="6.84506">
        <ele>625.6</ele>
        <time>2021-05-02T09:04:15.000Z</time>
      </trkpt>
      <trkpt lat="43.65596" lon="6.84511">
        <ele>625.6</ele>
        <time>2021-05-02T09:04:16.000Z</time>
      </trkpt>
      <trkpt lat="43.65595" lon="6.84516">
        <ele>625.8</ele>
        <time>2021-05-02T09:04:17.000Z</time>
      </trkpt>
      <trkpt lat="43.65595" lon="6.84521">
        <ele>626.1</ele>
        <time>2021-05-02T09:04:18.000Z</time>
      </trkpt>
      <trkpt lat="43.65596" lon="6.84525">
        <ele>625.9</ele>
        <time>2021-05-02T09:04:19.000Z</time>
      </trkpt>
      <trkpt lat="43.65598" lon="6.8453">
        <ele>624.6</ele>
        <time>2021-05-02T09:04:20.000Z</time>
      </trkpt>
      <trkpt lat="43.65599" lon="6.84534">
        <ele>624.2</ele>
        <time>2021-05-02T09:04:21.000Z</time>
      </trkpt>
      <trkpt lat="43.656" lon="6.84539">
        <ele>624.4</ele>
        <time>2021-05-02T09:04:22.000Z</time>
      </trkpt>
      <trkpt lat="43.65602" lon="6.84543">
        <ele>623.6</ele>
        <time>2021-05-02T09:04:23.000Z</time>
      </trkpt>
      <trkpt lat="43.65604" lon="6.84546">
        <ele>622.8</ele>
        <time>2021-05-02T09:04:24.000Z</time>
      </trkpt>
      <trkpt lat="43.65605" lon="6.8455">
        <ele>622.6</ele>
        <time>2021-05-02T09:04:25.000Z</time>
      </trkpt>
      <trkpt lat="43.65609" lon="6.84554">
        <ele>620.7</ele>
        <time>2021-05-02T09:04:26.000Z</time>
      </trkpt>
      <trkpt lat="43.65611" lon="6.84558">
        <ele>619</ele>
        <time>2021-05-02T09:04:27.000Z</time>
      </trkpt>
      <trkpt lat="43.65614" lon="6.84561">
        <ele>617.5</ele>
        <time>2021-05-02T09:04:28.000Z</time>
      </trkpt>
      <trkpt lat="43.65617" lon="6.84564">
        <ele>617</ele>
        <time>2021-05-02T09:04:29.000Z</time>
      </trkpt>
      <trkpt lat="43.65619" lon="6.84566">
        <ele>615.9</ele>
        <time>2021-05-02T09:04:30.000Z</time>
      </trkpt>
      <trkpt lat="43.65623" lon="6.84569">
        <ele>615</ele>
        <time>2021-05-02T09:04:31.000Z</time>
      </trkpt>
      <trkpt lat="43.65626" lon="6.84571">
        <ele>614.6</ele>
        <time>2021-05-02T09:04:32.000Z</time>
      </trkpt>
      <trkpt lat="43.65629" lon="6.84573">
        <ele>613.8</ele>
        <time>2021-05-02T09:04:33.000Z</time>
      </trkpt>
      <trkpt lat="43.65631" lon="6.84576">
        <ele>613.1</ele>
        <time>2021-05-02T09:04:34.000Z</time>
      </trkpt>
      <trkpt lat="43.65636" lon="6.8458">
        <ele>614.4</ele>
        <time>2021-05-02T09:04:36.000Z</time>
      </trkpt>
      <trkpt lat="43.65639" lon="6.84581">
        <ele>614</ele>
        <time>2021-05-02T09:04:37.000Z</time>
      </trkpt>
      <trkpt lat="43.65641" lon="6.84583">
        <ele>614.6</ele>
        <time>2021-05-02T09:04:38.000Z</time>
      </trkpt>
      <trkpt lat="43.65644" lon="6.84584">
        <ele>615.3</ele>
        <time>2021-05-02T09:04:39.000Z</time>
      </trkpt>
      <trkpt lat="43.65645" lon="6.84585">
        <ele>615.7</ele>
        <time>2021-05-02T09:04:40.000Z</time>
      </trkpt>
      <trkpt lat="43.65647" lon="6.84586">
        <ele>615.6</ele>
        <time>2021-05-02T09:04:41.000Z</time>
      </trkpt>
      <trkpt lat="43.65651" lon="6.84588">
        <ele>615.6</ele>
        <time>2021-05-02T09:04:43.000Z</time>
      </trkpt>
      <trkpt lat="43.65652" lon="6.8459">
        <ele>615.9</ele>
        <time>2021-05-02T09:04:44.000Z</time>
      </trkpt>
      <trkpt lat="43.65652" lon="6.84592">
        <ele>615.9</ele>
        <time>2021-05-02T09:04:45.000Z</time>
      </trkpt>
      <trkpt lat="43.65653" lon="6.84594">
        <ele>616</ele>
        <time>2021-05-02T09:04:46.000Z</time>
      </trkpt>
      <trkpt lat="43.65653" lon="6.84596">
        <ele>616.1</ele>
        <time>2021-05-02T09:04:47.000Z</time>
      </trkpt>
      <trkpt lat="43.65653" lon="6.84598">
        <ele>616</ele>
        <time>2021-05-02T09:04:48.000Z</time>
      </trkpt>
      <trkpt lat="43.65654" lon="6.84602">
        <ele>616.1</ele>
        <time>2021-05-02T09:04:50.000Z</time>
      </trkpt>
      <trkpt lat="43.65654" lon="6.84607">
        <ele>616.4</ele>
        <time>2021-05-02T09:04:52.000Z</time>
      </trkpt>
      <trkpt lat="43.65654" lon="6.84609">
        <ele>616.6</ele>
        <time>2021-05-02T09:04:53.000Z</time>
      </trkpt>
      <trkpt lat="43.65655" lon="6.8461">
        <ele>616.7</ele>
        <time>2021-05-02T09:04:54.000Z</time>
      </trkpt>
      <trkpt lat="43.65655" lon="6.84612">
        <ele>617</ele>
        <time>2021-05-02T09:04:55.000Z</time>
      </trkpt>
      <trkpt lat="43.65654" lon="6.84614">
        <ele>617.1</ele>
        <time>2021-05-02T09:04:56.000Z</time>
      </trkpt>
      <trkpt lat="43.65654" lon="6.84615">
        <ele>617.3</ele>
        <time>2021-05-02T09:04:57.000Z</time>
      </trkpt>
      <trkpt lat="43.65654" lon="6.84618">
        <ele>617.6</ele>
        <time>2021-05-02T09:04:59.000Z</time>
      </trkpt>
      <trkpt lat="43.65654" lon="6.8462">
        <ele>617.7</ele>
        <time>2021-05-02T09:05:00.000Z</time>
      </trkpt>
      <trkpt lat="43.65656" lon="6.84623">
        <ele>617.7</ele>
        <time>2021-05-02T09:05:02.000Z</time>
      </trkpt>
      <trkpt lat="43.65658" lon="6.84626">
        <ele>618.2</ele>
        <time>2021-05-02T09:05:04.000Z</time>
      </trkpt>
      <trkpt lat="43.65659" lon="6.84628">
        <ele>618.5</ele>
        <time>2021-05-02T09:05:05.000Z</time>
      </trkpt>
      <trkpt lat="43.6566" lon="6.8463">
        <ele>618.7</ele>
        <time>2021-05-02T09:05:06.000Z</time>
      </trkpt>
      <trkpt lat="43.65664" lon="6.84632">
        <ele>619.6</ele>
        <time>2021-05-02T09:05:08.000Z</time>
      </trkpt>
      <trkpt lat="43.65668" lon="6.84637">
        <ele>620.7</ele>
        <time>2021-05-02T09:05:10.000Z</time>
      </trkpt>
      <trkpt lat="43.65669" lon="6.84639">
        <ele>621.8</ele>
        <time>2021-05-02T09:05:11.000Z</time>
      </trkpt>
      <trkpt lat="43.65671" lon="6.84642">
        <ele>622.3</ele>
        <time>2021-05-02T09:05:13.000Z</time>
      </trkpt>
      <trkpt lat="43.65675" lon="6.84643">
        <ele>623.1</ele>
        <time>2021-05-02T09:05:16.000Z</time>
      </trkpt>
      <trkpt lat="43.65677" lon="6.84645">
        <ele>623.3</ele>
        <time>2021-05-02T09:05:17.000Z</time>
      </trkpt>
      <trkpt lat="43.65679" lon="6.84645">
        <ele>623.1</ele>
        <time>2021-05-02T09:05:18.000Z</time>
      </trkpt>
      <trkpt lat="43.65682" lon="6.84646">
        <ele>623.2</ele>
        <time>2021-05-02T09:05:19.000Z</time>
      </trkpt>
      <trkpt lat="43.65685" lon="6.84645">
        <ele>623</ele>
        <time>2021-05-02T09:05:20.000Z</time>
      </trkpt>
      <trkpt lat="43.6569" lon="6.84644">
        <ele>623.6</ele>
        <time>2021-05-02T09:05:22.000Z</time>
      </trkpt>
      <trkpt lat="43.65692" lon="6.84645">
        <ele>623.3</ele>
        <time>2021-05-02T09:05:23.000Z</time>
      </trkpt>
      <trkpt lat="43.65694" lon="6.84646">
        <ele>623.1</ele>
        <time>2021-05-02T09:05:24.000Z</time>
      </trkpt>
      <trkpt lat="43.65696" lon="6.84647">
        <ele>623</ele>
        <time>2021-05-02T09:05:25.000Z</time>
      </trkpt>
      <trkpt lat="43.65698" lon="6.84647">
        <ele>622.9</ele>
        <time>2021-05-02T09:05:26.000Z</time>
      </trkpt>
      <trkpt lat="43.65702" lon="6.84646">
        <ele>622.4</ele>
        <time>2021-05-02T09:05:28.000Z</time>
      </trkpt>
      <trkpt lat="43.65705" lon="6.84646">
        <ele>622.5</ele>
        <time>2021-05-02T09:05:30.000Z</time>
      </trkpt>
      <trkpt lat="43.65706" lon="6.84646">
        <ele>622.7</ele>
        <time>2021-05-02T09:05:31.000Z</time>
      </trkpt>
      <trkpt lat="43.65707" lon="6.84647">
        <ele>622.8</ele>
        <time>2021-05-02T09:05:32.000Z</time>
      </trkpt>
      <trkpt lat="43.65709" lon="6.84649">
        <ele>622.8</ele>
        <time>2021-05-02T09:05:34.000Z</time>
      </trkpt>
      <trkpt lat="43.65712" lon="6.84651">
        <ele>623.2</ele>
        <time>2021-05-02T09:05:36.000Z</time>
      </trkpt>
      <trkpt lat="43.65714" lon="6.84653">
        <ele>623.4</ele>
        <time>2021-05-02T09:05:37.000Z</time>
      </trkpt>
      <trkpt lat="43.65716" lon="6.84655">
        <ele>624.3</ele>
        <time>2021-05-02T09:05:38.000Z</time>
      </trkpt>
      <trkpt lat="43.6572" lon="6.84659">
        <ele>624.9</ele>
        <time>2021-05-02T09:05:40.000Z</time>
      </trkpt>
      <trkpt lat="43.65722" lon="6.8466">
        <ele>625.3</ele>
        <time>2021-05-02T09:05:41.000Z</time>
      </trkpt>
      <trkpt lat="43.65723" lon="6.84662">
        <ele>625.4</ele>
        <time>2021-05-02T09:05:42.000Z</time>
      </trkpt>
      <trkpt lat="43.65725" lon="6.84663">
        <ele>625.6</ele>
        <time>2021-05-02T09:05:43.000Z</time>
      </trkpt>
      <trkpt lat="43.65726" lon="6.84664">
        <ele>626</ele>
        <time>2021-05-02T09:05:44.000Z</time>
      </trkpt>
      <trkpt lat="43.65729" lon="6.84667">
        <ele>625.9</ele>
        <time>2021-05-02T09:05:46.000Z</time>
      </trkpt>
      <trkpt lat="43.6573" lon="6.84668">
        <ele>625.9</ele>
        <time>2021-05-02T09:05:47.000Z</time>
      </trkpt>
      <trkpt lat="43.65731" lon="6.8467">
        <ele>625.8</ele>
        <time>2021-05-02T09:05:48.000Z</time>
      </trkpt>
      <trkpt lat="43.65732" lon="6.84672">
        <ele>625.8</ele>
        <time>2021-05-02T09:05:49.000Z</time>
      </trkpt>
      <trkpt lat="43.65733" lon="6.84674">
        <ele>626</ele>
        <time>2021-05-02T09:05:50.000Z</time>
      </trkpt>
      <trkpt lat="43.65734" lon="6.84675">
        <ele>626.5</ele>
        <time>2021-05-02T09:05:52.000Z</time>
      </trkpt>
      <trkpt lat="43.6574" lon="6.84685">
        <ele>627.9</ele>
        <time>2021-05-02T09:06:07.000Z</time>
      </trkpt>
      <trkpt lat="43.65742" lon="6.84687">
        <ele>628</ele>
        <time>2021-05-02T09:06:08.000Z</time>
      </trkpt>
      <trkpt lat="43.65746" lon="6.84688">
        <ele>627.6</ele>
        <time>2021-05-02T09:06:10.000Z</time>
      </trkpt>
      <trkpt lat="43.65749" lon="6.84688">
        <ele>627.7</ele>
        <time>2021-05-02T09:06:11.000Z</time>
      </trkpt>
      <trkpt lat="43.65752" lon="6.84689">
        <ele>626.9</ele>
        <time>2021-05-02T09:06:12.000Z</time>
      </trkpt>
      <trkpt lat="43.65755" lon="6.84691">
        <ele>626.3</ele>
        <time>2021-05-02T09:06:13.000Z</time>
      </trkpt>
      <trkpt lat="43.65757" lon="6.84693">
        <ele>626</ele>
        <time>2021-05-02T09:06:14.000Z</time>
      </trkpt>
      <trkpt lat="43.6576" lon="6.84695">
        <ele>625.4</ele>
        <time>2021-05-02T09:06:16.000Z</time>
      </trkpt>
      <trkpt lat="43.65761" lon="6.84697">
        <ele>625.3</ele>
        <time>2021-05-02T09:06:17.000Z</time>
      </trkpt>
      <trkpt lat="43.65762" lon="6.84699">
        <ele>625.3</ele>
        <time>2021-05-02T09:06:18.000Z</time>
      </trkpt>
      <trkpt lat="43.65763" lon="6.847">
        <ele>625.4</ele>
        <time>2021-05-02T09:06:19.000Z</time>
      </trkpt>
      <trkpt lat="43.65763" lon="6.847">
        <ele>625.4</ele>
        <time>2021-05-02T09:06:20.000Z</time>
      </trkpt>
      <trkpt lat="43.65764" lon="6.84701">
        <ele>625.4</ele>
        <time>2021-05-02T09:06:22.000Z</time>
      </trkpt>
      <trkpt lat="43.65773" lon="6.84704">
        <ele>626.1</ele>
        <time>2021-05-02T09:06:59.000Z</time>
      </trkpt>
      <trkpt lat="43.65775" lon="6.84704">
        <ele>626</ele>
        <time>2021-05-02T09:07:01.000Z</time>
      </trkpt>
      <trkpt lat="43.65777" lon="6.84705">
        <ele>625.9</ele>
        <time>2021-05-02T09:07:02.000Z</time>
      </trkpt>
      <trkpt lat="43.65779" lon="6.84707">
        <ele>625.8</ele>
        <time>2021-05-02T09:07:04.000Z</time>
      </trkpt>
      <trkpt lat="43.65781" lon="6.84708">
        <ele>625.7</ele>
        <time>2021-05-02T09:07:05.000Z</time>
      </trkpt>
      <trkpt lat="43.65782" lon="6.84708">
        <ele>625.6</ele>
        <time>2021-05-02T09:07:06.000Z</time>
      </trkpt>
      <trkpt lat="43.65784" lon="6.8471">
        <ele>625.5</ele>
        <time>2021-05-02T09:07:07.000Z</time>
      </trkpt>
      <trkpt lat="43.65786" lon="6.84712">
        <ele>625.4</ele>
        <time>2021-05-02T09:07:08.000Z</time>
      </trkpt>
      <trkpt lat="43.65789" lon="6.84714">
        <ele>625.1</ele>
        <time>2021-05-02T09:07:10.000Z</time>
      </trkpt>
      <trkpt lat="43.6579" lon="6.84714">
        <ele>625</ele>
        <time>2021-05-02T09:07:11.000Z</time>
      </trkpt>
      <trkpt lat="43.65792" lon="6.84715">
        <ele>624.9</ele>
        <time>2021-05-02T09:07:12.000Z</time>
      </trkpt>
      <trkpt lat="43.65793" lon="6.84715">
        <ele>624.8</ele>
        <time>2021-05-02T09:07:13.000Z</time>
      </trkpt>
      <trkpt lat="43.65795" lon="6.84716">
        <ele>624.8</ele>
        <time>2021-05-02T09:07:14.000Z</time>
      </trkpt>
      <trkpt lat="43.65798" lon="6.84719">
        <ele>624.9</ele>
        <time>2021-05-02T09:07:16.000Z</time>
      </trkpt>
      <trkpt lat="43.658" lon="6.84719">
        <ele>624.8</ele>
        <time>2021-05-02T09:07:17.000Z</time>
      </trkpt>
      <trkpt lat="43.65802" lon="6.8472">
        <ele>625</ele>
        <time>2021-05-02T09:07:18.000Z</time>
      </trkpt>
      <trkpt lat="43.65803" lon="6.84721">
        <ele>625.3</ele>
        <time>2021-05-02T09:07:19.000Z</time>
      </trkpt>
      <trkpt lat="43.65805" lon="6.84722">
        <ele>625.8</ele>
        <time>2021-05-02T09:07:20.000Z</time>
      </trkpt>
      <trkpt lat="43.6581" lon="6.84725">
        <ele>626.9</ele>
        <time>2021-05-02T09:07:22.000Z</time>
      </trkpt>
      <trkpt lat="43.65811" lon="6.84725">
        <ele>627.3</ele>
        <time>2021-05-02T09:07:23.000Z</time>
      </trkpt>
      <trkpt lat="43.65813" lon="6.84725">
        <ele>627.6</ele>
        <time>2021-05-02T09:07:24.000Z</time>
      </trkpt>
      <trkpt lat="43.65815" lon="6.84725">
        <ele>628.1</ele>
        <time>2021-05-02T09:07:25.000Z</time>
      </trkpt>
      <trkpt lat="43.65817" lon="6.84726">
        <ele>628.6</ele>
        <time>2021-05-02T09:07:26.000Z</time>
      </trkpt>
      <trkpt lat="43.65821" lon="6.84728">
        <ele>629.2</ele>
        <time>2021-05-02T09:07:28.000Z</time>
      </trkpt>
      <trkpt lat="43.65824" lon="6.84729">
        <ele>629.5</ele>
        <time>2021-05-02T09:07:29.000Z</time>
      </trkpt>
      <trkpt lat="43.65825" lon="6.8473">
        <ele>629.9</ele>
        <time>2021-05-02T09:07:30.000Z</time>
      </trkpt>
      <trkpt lat="43.65827" lon="6.84731">
        <ele>630.4</ele>
        <time>2021-05-02T09:07:31.000Z</time>
      </trkpt>
      <trkpt lat="43.65828" lon="6.84733">
        <ele>630.5</ele>
        <time>2021-05-02T09:07:32.000Z</time>
      </trkpt>
      <trkpt lat="43.65832" lon="6.84735">
        <ele>630.7</ele>
        <time>2021-05-02T09:07:34.000Z</time>
      </trkpt>
      <trkpt lat="43.65834" lon="6.84735">
        <ele>630.8</ele>
        <time>2021-05-02T09:07:35.000Z</time>
      </trkpt>
      <trkpt lat="43.65836" lon="6.84736">
        <ele>630.9</ele>
        <time>2021-05-02T09:07:36.000Z</time>
      </trkpt>
      <trkpt lat="43.65837" lon="6.84736">
        <ele>631.1</ele>
        <time>2021-05-02T09:07:37.000Z</time>
      </trkpt>
      <trkpt lat="43.65839" lon="6.84737">
        <ele>631.3</ele>
        <time>2021-05-02T09:07:38.000Z</time>
      </trkpt>
      <trkpt lat="43.65841" lon="6.84738">
        <ele>631.7</ele>
        <time>2021-05-02T09:07:40.000Z</time>
      </trkpt>
      <trkpt lat="43.65843" lon="6.84738">
        <ele>631.9</ele>
        <time>2021-05-02T09:07:41.000Z</time>
      </trkpt>
      <trkpt lat="43.65845" lon="6.84738">
        <ele>632.3</ele>
        <time>2021-05-02T09:07:42.000Z</time>
      </trkpt>
      <trkpt lat="43.65848" lon="6.84738">
        <ele>632.5</ele>
        <time>2021-05-02T09:07:43.000Z</time>
      </trkpt>
      <trkpt lat="43.6585" lon="6.84737">
        <ele>632.8</ele>
        <time>2021-05-02T09:07:44.000Z</time>
      </trkpt>
      <trkpt lat="43.65855" lon="6.84738">
        <ele>633.5</ele>
        <time>2021-05-02T09:07:46.000Z</time>
      </trkpt>
      <trkpt lat="43.65857" lon="6.84738">
        <ele>634</ele>
        <time>2021-05-02T09:07:47.000Z</time>
      </trkpt>
      <trkpt lat="43.65859" lon="6.84738">
        <ele>634.3</ele>
        <time>2021-05-02T09:07:48.000Z</time>
      </trkpt>
      <trkpt lat="43.65861" lon="6.84738">
        <ele>635.1</ele>
        <time>2021-05-02T09:07:49.000Z</time>
      </trkpt>
      <trkpt lat="43.65862" lon="6.84738">
        <ele>635.4</ele>
        <time>2021-05-02T09:07:50.000Z</time>
      </trkpt>
      <trkpt lat="43.65864" lon="6.84738">
        <ele>636.1</ele>
        <time>2021-05-02T09:07:52.000Z</time>
      </trkpt>
      <trkpt lat="43.65865" lon="6.84739">
        <ele>636.3</ele>
        <time>2021-05-02T09:07:53.000Z</time>
      </trkpt>
      <trkpt lat="43.65866" lon="6.84739">
        <ele>636.7</ele>
        <time>2021-05-02T09:07:54.000Z</time>
      </trkpt>
      <trkpt lat="43.65868" lon="6.84739">
        <ele>637.1</ele>
        <time>2021-05-02T09:07:55.000Z</time>
      </trkpt>
      <trkpt lat="43.6587" lon="6.84739">
        <ele>637.5</ele>
        <time>2021-05-02T09:07:56.000Z</time>
      </trkpt>
      <trkpt lat="43.65874" lon="6.84736">
        <ele>638.2</ele>
        <time>2021-05-02T09:07:58.000Z</time>
      </trkpt>
      <trkpt lat="43.65875" lon="6.84734">
        <ele>638.1</ele>
        <time>2021-05-02T09:07:59.000Z</time>
      </trkpt>
      <trkpt lat="43.65876" lon="6.84732">
        <ele>638.1</ele>
        <time>2021-05-02T09:08:00.000Z</time>
      </trkpt>
      <trkpt lat="43.65878" lon="6.84732">
        <ele>638.1</ele>
        <time>2021-05-02T09:08:01.000Z</time>
      </trkpt>
      <trkpt lat="43.6588" lon="6.84731">
        <ele>638.2</ele>
        <time>2021-05-02T09:08:02.000Z</time>
      </trkpt>
      <trkpt lat="43.65882" lon="6.84731">
        <ele>638.1</ele>
        <time>2021-05-02T09:08:03.000Z</time>
      </trkpt>
      <trkpt lat="43.65884" lon="6.84731">
        <ele>637.9</ele>
        <time>2021-05-02T09:08:04.000Z</time>
      </trkpt>
      <trkpt lat="43.65886" lon="6.84732">
        <ele>637.9</ele>
        <time>2021-05-02T09:08:05.000Z</time>
      </trkpt>
      <trkpt lat="43.65888" lon="6.84733">
        <ele>638.2</ele>
        <time>2021-05-02T09:08:06.000Z</time>
      </trkpt>
      <trkpt lat="43.6589" lon="6.84733">
        <ele>638.7</ele>
        <time>2021-05-02T09:08:07.000Z</time>
      </trkpt>
      <trkpt lat="43.65892" lon="6.84733">
        <ele>639.3</ele>
        <time>2021-05-02T09:08:08.000Z</time>
      </trkpt>
      <trkpt lat="43.65895" lon="6.84733">
        <ele>639.8</ele>
        <time>2021-05-02T09:08:09.000Z</time>
      </trkpt>
      <trkpt lat="43.65896" lon="6.84732">
        <ele>640</ele>
        <time>2021-05-02T09:08:10.000Z</time>
      </trkpt>
      <trkpt lat="43.65898" lon="6.84732">
        <ele>640.3</ele>
        <time>2021-05-02T09:08:11.000Z</time>
      </trkpt>
      <trkpt lat="43.65901" lon="6.84731">
        <ele>640.5</ele>
        <time>2021-05-02T09:08:12.000Z</time>
      </trkpt>
      <trkpt lat="43.65903" lon="6.84731">
        <ele>640.8</ele>
        <time>2021-05-02T09:08:13.000Z</time>
      </trkpt>
      <trkpt lat="43.65904" lon="6.84732">
        <ele>641</ele>
        <time>2021-05-02T09:08:14.000Z</time>
      </trkpt>
      <trkpt lat="43.65906" lon="6.84733">
        <ele>641.5</ele>
        <time>2021-05-02T09:08:16.000Z</time>
      </trkpt>
      <trkpt lat="43.65908" lon="6.84733">
        <ele>641.7</ele>
        <time>2021-05-02T09:08:18.000Z</time>
      </trkpt>
      <trkpt lat="43.65909" lon="6.84733">
        <ele>642.1</ele>
        <time>2021-05-02T09:08:19.000Z</time>
      </trkpt>
      <trkpt lat="43.65911" lon="6.84734">
        <ele>642.3</ele>
        <time>2021-05-02T09:08:20.000Z</time>
      </trkpt>
      <trkpt lat="43.65912" lon="6.84735">
        <ele>642.6</ele>
        <time>2021-05-02T09:08:21.000Z</time>
      </trkpt>
      <trkpt lat="43.65914" lon="6.84736">
        <ele>642.8</ele>
        <time>2021-05-02T09:08:22.000Z</time>
      </trkpt>
      <trkpt lat="43.65915" lon="6.84736">
        <ele>643</ele>
        <time>2021-05-02T09:08:23.000Z</time>
      </trkpt>
      <trkpt lat="43.65916" lon="6.84737">
        <ele>643.4</ele>
        <time>2021-05-02T09:08:24.000Z</time>
      </trkpt>
      <trkpt lat="43.65918" lon="6.84737">
        <ele>643.8</ele>
        <time>2021-05-02T09:08:25.000Z</time>
      </trkpt>
      <trkpt lat="43.6592" lon="6.84738">
        <ele>644.3</ele>
        <time>2021-05-02T09:08:26.000Z</time>
      </trkpt>
      <trkpt lat="43.65921" lon="6.84738">
        <ele>644.6</ele>
        <time>2021-05-02T09:08:27.000Z</time>
      </trkpt>
      <trkpt lat="43.65922" lon="6.84739">
        <ele>645.3</ele>
        <time>2021-05-02T09:08:28.000Z</time>
      </trkpt>
      <trkpt lat="43.65923" lon="6.8474">
        <ele>645.7</ele>
        <time>2021-05-02T09:08:29.000Z</time>
      </trkpt>
      <trkpt lat="43.65925" lon="6.8474">
        <ele>646</ele>
        <time>2021-05-02T09:08:30.000Z</time>
      </trkpt>
      <trkpt lat="43.65926" lon="6.8474">
        <ele>646.3</ele>
        <time>2021-05-02T09:08:31.000Z</time>
      </trkpt>
      <trkpt lat="43.65927" lon="6.84739">
        <ele>646.5</ele>
        <time>2021-05-02T09:08:32.000Z</time>
      </trkpt>
      <trkpt lat="43.65928" lon="6.84738">
        <ele>647</ele>
        <time>2021-05-02T09:08:33.000Z</time>
      </trkpt>
      <trkpt lat="43.65931" lon="6.84738">
        <ele>647.2</ele>
        <time>2021-05-02T09:08:34.000Z</time>
      </trkpt>
      <trkpt lat="43.65932" lon="6.84737">
        <ele>647.4</ele>
        <time>2021-05-02T09:08:35.000Z</time>
      </trkpt>
      <trkpt lat="43.65933" lon="6.84736">
        <ele>647.8</ele>
        <time>2021-05-02T09:08:37.000Z</time>
      </trkpt>
      <trkpt lat="43.6594" lon="6.84727">
        <ele>644.7</ele>
        <time>2021-05-02T09:10:22.000Z</time>
      </trkpt>
      <trkpt lat="43.65941" lon="6.84727">
        <ele>644.2</ele>
        <time>2021-05-02T09:10:25.000Z</time>
      </trkpt>
      <trkpt lat="43.65944" lon="6.84724">
        <ele>643.4</ele>
        <time>2021-05-02T09:11:07.000Z</time>
      </trkpt>
      <trkpt lat="43.65945" lon="6.84722">
        <ele>643.2</ele>
        <time>2021-05-02T09:11:08.000Z</time>
      </trkpt>
      <trkpt lat="43.65947" lon="6.8472">
        <ele>642.6</ele>
        <time>2021-05-02T09:11:09.000Z</time>
      </trkpt>
      <trkpt lat="43.65948" lon="6.84719">
        <ele>641.6</ele>
        <time>2021-05-02T09:11:10.000Z</time>
      </trkpt>
      <trkpt lat="43.6595" lon="6.84718">
        <ele>641.2</ele>
        <time>2021-05-02T09:11:11.000Z</time>
      </trkpt>
      <trkpt lat="43.65953" lon="6.84717">
        <ele>640.7</ele>
        <time>2021-05-02T09:11:12.000Z</time>
      </trkpt>
      <trkpt lat="43.65955" lon="6.84716">
        <ele>640.4</ele>
        <time>2021-05-02T09:11:13.000Z</time>
      </trkpt>
      <trkpt lat="43.65957" lon="6.84714">
        <ele>639.6</ele>
        <time>2021-05-02T09:11:14.000Z</time>
      </trkpt>
      <trkpt lat="43.65958" lon="6.84713">
        <ele>638.7</ele>
        <time>2021-05-02T09:11:15.000Z</time>
      </trkpt>
      <trkpt lat="43.6596" lon="6.8471">
        <ele>637.8</ele>
        <time>2021-05-02T09:11:16.000Z</time>
      </trkpt>
      <trkpt lat="43.65962" lon="6.84708">
        <ele>637.3</ele>
        <time>2021-05-02T09:11:17.000Z</time>
      </trkpt>
      <trkpt lat="43.65964" lon="6.84707">
        <ele>637.2</ele>
        <time>2021-05-02T09:11:18.000Z</time>
      </trkpt>
      <trkpt lat="43.65966" lon="6.84705">
        <ele>637.2</ele>
        <time>2021-05-02T09:11:19.000Z</time>
      </trkpt>
      <trkpt lat="43.65967" lon="6.84704">
        <ele>637.3</ele>
        <time>2021-05-02T09:11:20.000Z</time>
      </trkpt>
      <trkpt lat="43.65969" lon="6.84702">
        <ele>637.2</ele>
        <time>2021-05-02T09:11:21.000Z</time>
      </trkpt>
      <trkpt lat="43.6597" lon="6.84701">
        <ele>636.8</ele>
        <time>2021-05-02T09:11:22.000Z</time>
      </trkpt>
      <trkpt lat="43.65971" lon="6.84699">
        <ele>636.9</ele>
        <time>2021-05-02T09:11:23.000Z</time>
      </trkpt>
      <trkpt lat="43.65974" lon="6.84697">
        <ele>636.9</ele>
        <time>2021-05-02T09:11:24.000Z</time>
      </trkpt>
      <trkpt lat="43.65975" lon="6.84695">
        <ele>637.2</ele>
        <time>2021-05-02T09:11:25.000Z</time>
      </trkpt>
      <trkpt lat="43.65977" lon="6.84693">
        <ele>637.5</ele>
        <time>2021-05-02T09:11:26.000Z</time>
      </trkpt>
      <trkpt lat="43.65979" lon="6.84691">
        <ele>637.8</ele>
        <time>2021-05-02T09:11:27.000Z</time>
      </trkpt>
      <trkpt lat="43.6598" lon="6.84689">
        <ele>637.9</ele>
        <time>2021-05-02T09:11:28.000Z</time>
      </trkpt>
      <trkpt lat="43.65982" lon="6.84687">
        <ele>638.2</ele>
        <time>2021-05-02T09:11:29.000Z</time>
      </trkpt>
      <trkpt lat="43.65984" lon="6.84685">
        <ele>638.2</ele>
        <time>2021-05-02T09:11:30.000Z</time>
      </trkpt>
      <trkpt lat="43.65986" lon="6.84684">
        <ele>638.6</ele>
        <time>2021-05-02T09:11:31.000Z</time>
      </trkpt>
      <trkpt lat="43.65988" lon="6.84683">
        <ele>639.1</ele>
        <time>2021-05-02T09:11:32.000Z</time>
      </trkpt>
      <trkpt lat="43.6599" lon="6.84683">
        <ele>640</ele>
        <time>2021-05-02T09:11:34.000Z</time>
      </trkpt>
      <trkpt lat="43.65992" lon="6.84684">
        <ele>640.3</ele>
        <time>2021-05-02T09:11:35.000Z</time>
      </trkpt>
      <trkpt lat="43.65993" lon="6.84684">
        <ele>640.5</ele>
        <time>2021-05-02T09:11:36.000Z</time>
      </trkpt>
      <trkpt lat="43.65995" lon="6.84685">
        <ele>640.7</ele>
        <time>2021-05-02T09:11:37.000Z</time>
      </trkpt>
      <trkpt lat="43.65997" lon="6.84686">
        <ele>640.9</ele>
        <time>2021-05-02T09:11:38.000Z</time>
      </trkpt>
      <trkpt lat="43.65999" lon="6.84687">
        <ele>641.2</ele>
        <time>2021-05-02T09:11:39.000Z</time>
      </trkpt>
      <trkpt lat="43.66001" lon="6.84687">
        <ele>641.4</ele>
        <time>2021-05-02T09:11:40.000Z</time>
      </trkpt>
      <trkpt lat="43.66003" lon="6.84688">
        <ele>641.6</ele>
        <time>2021-05-02T09:11:41.000Z</time>
      </trkpt>
      <trkpt lat="43.66005" lon="6.84688">
        <ele>642.2</ele>
        <time>2021-05-02T09:11:42.000Z</time>
      </trkpt>
      <trkpt lat="43.66007" lon="6.84687">
        <ele>642.1</ele>
        <time>2021-05-02T09:11:43.000Z</time>
      </trkpt>
      <trkpt lat="43.66009" lon="6.84685">
        <ele>642</ele>
        <time>2021-05-02T09:11:44.000Z</time>
      </trkpt>
      <trkpt lat="43.66011" lon="6.84682">
        <ele>640.7</ele>
        <time>2021-05-02T09:11:45.000Z</time>
      </trkpt>
      <trkpt lat="43.66012" lon="6.8468">
        <ele>640.5</ele>
        <time>2021-05-02T09:11:46.000Z</time>
      </trkpt>
      <trkpt lat="43.66015" lon="6.84677">
        <ele>640.6</ele>
        <time>2021-05-02T09:11:47.000Z</time>
      </trkpt>
      <trkpt lat="43.66017" lon="6.84675">
        <ele>640.2</ele>
        <time>2021-05-02T09:11:48.000Z</time>
      </trkpt>
      <trkpt lat="43.66019" lon="6.84673">
        <ele>639.5</ele>
        <time>2021-05-02T09:11:49.000Z</time>
      </trkpt>
      <trkpt lat="43.66021" lon="6.84672">
        <ele>639.2</ele>
        <time>2021-05-02T09:11:50.000Z</time>
      </trkpt>
      <trkpt lat="43.66023" lon="6.84672">
        <ele>639.2</ele>
        <time>2021-05-02T09:11:51.000Z</time>
      </trkpt>
      <trkpt lat="43.66024" lon="6.84671">
        <ele>638.8</ele>
        <time>2021-05-02T09:11:52.000Z</time>
      </trkpt>
      <trkpt lat="43.66027" lon="6.8467">
        <ele>638.5</ele>
        <time>2021-05-02T09:11:53.000Z</time>
      </trkpt>
      <trkpt lat="43.66029" lon="6.8467">
        <ele>638.3</ele>
        <time>2021-05-02T09:11:54.000Z</time>
      </trkpt>
      <trkpt lat="43.66031" lon="6.84669">
        <ele>638.2</ele>
        <time>2021-05-02T09:11:55.000Z</time>
      </trkpt>
      <trkpt lat="43.66032" lon="6.84669">
        <ele>637.9</ele>
        <time>2021-05-02T09:11:56.000Z</time>
      </trkpt>
      <trkpt lat="43.66034" lon="6.84669">
        <ele>637.4</ele>
        <time>2021-05-02T09:11:57.000Z</time>
      </trkpt>
      <trkpt lat="43.66036" lon="6.84669">
        <ele>637.2</ele>
        <time>2021-05-02T09:11:58.000Z</time>
      </trkpt>
      <trkpt lat="43.66038" lon="6.84669">
        <ele>636.9</ele>
        <time>2021-05-02T09:11:59.000Z</time>
      </trkpt>
      <trkpt lat="43.6604" lon="6.84668">
        <ele>636.7</ele>
        <time>2021-05-02T09:12:00.000Z</time>
      </trkpt>
      <trkpt lat="43.66041" lon="6.84669">
        <ele>636.5</ele>
        <time>2021-05-02T09:12:01.000Z</time>
      </trkpt>
      <trkpt lat="43.66043" lon="6.84668">
        <ele>636.5</ele>
        <time>2021-05-02T09:12:03.000Z</time>
      </trkpt>
      <trkpt lat="43.66044" lon="6.84668">
        <ele>636.1</ele>
        <time>2021-05-02T09:12:04.000Z</time>
      </trkpt>
      <trkpt lat="43.66047" lon="6.84668">
        <ele>635.5</ele>
        <time>2021-05-02T09:12:05.000Z</time>
      </trkpt>
      <trkpt lat="43.6605" lon="6.84668">
        <ele>635.2</ele>
        <time>2021-05-02T09:12:06.000Z</time>
      </trkpt>
      <trkpt lat="43.66052" lon="6.84669">
        <ele>634.9</ele>
        <time>2021-05-02T09:12:08.000Z</time>
      </trkpt>
      <trkpt lat="43.66055" lon="6.84669">
        <ele>634.7</ele>
        <time>2021-05-02T09:12:09.000Z</time>
      </trkpt>
      <trkpt lat="43.66056" lon="6.8467">
        <ele>634.5</ele>
        <time>2021-05-02T09:12:10.000Z</time>
      </trkpt>
      <trkpt lat="43.66059" lon="6.8467">
        <ele>634.7</ele>
        <time>2021-05-02T09:12:11.000Z</time>
      </trkpt>
      <trkpt lat="43.66062" lon="6.8467">
        <ele>634.4</ele>
        <time>2021-05-02T09:12:12.000Z</time>
      </trkpt>
      <trkpt lat="43.66065" lon="6.8467">
        <ele>634.1</ele>
        <time>2021-05-02T09:12:13.000Z</time>
      </trkpt>
      <trkpt lat="43.66069" lon="6.8467">
        <ele>634</ele>
        <time>2021-05-02T09:12:14.000Z</time>
      </trkpt>
      <trkpt lat="43.66072" lon="6.8467">
        <ele>633.9</ele>
        <time>2021-05-02T09:12:15.000Z</time>
      </trkpt>
      <trkpt lat="43.66075" lon="6.84669">
        <ele>633.8</ele>
        <time>2021-05-02T09:12:16.000Z</time>
      </trkpt>
      <trkpt lat="43.66077" lon="6.84669">
        <ele>634</ele>
        <time>2021-05-02T09:12:17.000Z</time>
      </trkpt>
      <trkpt lat="43.6608" lon="6.8467">
        <ele>633.9</ele>
        <time>2021-05-02T09:12:18.000Z</time>
      </trkpt>
      <trkpt lat="43.66082" lon="6.8467">
        <ele>634</ele>
        <time>2021-05-02T09:12:19.000Z</time>
      </trkpt>
      <trkpt lat="43.66084" lon="6.84671">
        <ele>633.8</ele>
        <time>2021-05-02T09:12:20.000Z</time>
      </trkpt>
      <trkpt lat="43.66086" lon="6.84671">
        <ele>634.7</ele>
        <time>2021-05-02T09:12:21.000Z</time>
      </trkpt>
      <trkpt lat="43.66088" lon="6.84671">
        <ele>635</ele>
        <time>2021-05-02T09:12:22.000Z</time>
      </trkpt>
      <trkpt lat="43.6609" lon="6.84671">
        <ele>635.1</ele>
        <time>2021-05-02T09:12:23.000Z</time>
      </trkpt>
      <trkpt lat="43.66092" lon="6.84671">
        <ele>635.1</ele>
        <time>2021-05-02T09:12:24.000Z</time>
      </trkpt>
      <trkpt lat="43.66094" lon="6.84672">
        <ele>635</ele>
        <time>2021-05-02T09:12:25.000Z</time>
      </trkpt>
      <trkpt lat="43.66095" lon="6.84672">
        <ele>634.5</ele>
        <time>2021-05-02T09:12:26.000Z</time>
      </trkpt>
      <trkpt lat="43.66096" lon="6.84672">
        <ele>634.3</ele>
        <time>2021-05-02T09:12:27.000Z</time>
      </trkpt>
      <trkpt lat="43.66097" lon="6.84672">
        <ele>634.1</ele>
        <time>2021-05-02T09:12:28.000Z</time>
      </trkpt>
      <trkpt lat="43.66099" lon="6.84671">
        <ele>634.3</ele>
        <time>2021-05-02T09:12:30.000Z</time>
      </trkpt>
      <trkpt lat="43.661" lon="6.84671">
        <ele>634.6</ele>
        <time>2021-05-02T09:12:31.000Z</time>
      </trkpt>
      <trkpt lat="43.66102" lon="6.8467">
        <ele>634.9</ele>
        <time>2021-05-02T09:12:32.000Z</time>
      </trkpt>
      <trkpt lat="43.66104" lon="6.84669">
        <ele>634.9</ele>
        <time>2021-05-02T09:12:33.000Z</time>
      </trkpt>
      <trkpt lat="43.66106" lon="6.84669">
        <ele>634.8</ele>
        <time>2021-05-02T09:12:34.000Z</time>
      </trkpt>
      <trkpt lat="43.66108" lon="6.84669">
        <ele>635</ele>
        <time>2021-05-02T09:12:35.000Z</time>
      </trkpt>
      <trkpt lat="43.66109" lon="6.8467">
        <ele>635.3</ele>
        <time>2021-05-02T09:12:36.000Z</time>
      </trkpt>
      <trkpt lat="43.66112" lon="6.8467">
        <ele>635.4</ele>
        <time>2021-05-02T09:12:37.000Z</time>
      </trkpt>
      <trkpt lat="43.66114" lon="6.84671">
        <ele>635.4</ele>
        <time>2021-05-02T09:12:38.000Z</time>
      </trkpt>
      <trkpt lat="43.66117" lon="6.84671">
        <ele>636</ele>
        <time>2021-05-02T09:12:39.000Z</time>
      </trkpt>
      <trkpt lat="43.66119" lon="6.84671">
        <ele>636.2</ele>
        <time>2021-05-02T09:12:40.000Z</time>
      </trkpt>
      <trkpt lat="43.66123" lon="6.8467">
        <ele>636.1</ele>
        <time>2021-05-02T09:12:41.000Z</time>
      </trkpt>
      <trkpt lat="43.66125" lon="6.8467">
        <ele>636</ele>
        <time>2021-05-02T09:12:42.000Z</time>
      </trkpt>
      <trkpt lat="43.66128" lon="6.8467">
        <ele>635.3</ele>
        <time>2021-05-02T09:12:43.000Z</time>
      </trkpt>
      <trkpt lat="43.66131" lon="6.84669">
        <ele>634.4</ele>
        <time>2021-05-02T09:12:44.000Z</time>
      </trkpt>
      <trkpt lat="43.66134" lon="6.84667">
        <ele>634.1</ele>
        <time>2021-05-02T09:12:45.000Z</time>
      </trkpt>
      <trkpt lat="43.66137" lon="6.84666">
        <ele>633.5</ele>
        <time>2021-05-02T09:12:46.000Z</time>
      </trkpt>
      <trkpt lat="43.6614" lon="6.84665">
        <ele>633.2</ele>
        <time>2021-05-02T09:12:47.000Z</time>
      </trkpt>
      <trkpt lat="43.66142" lon="6.84666">
        <ele>632.8</ele>
        <time>2021-05-02T09:12:48.000Z</time>
      </trkpt>
      <trkpt lat="43.66145" lon="6.84667">
        <ele>632.4</ele>
        <time>2021-05-02T09:12:49.000Z</time>
      </trkpt>
      <trkpt lat="43.66148" lon="6.84668">
        <ele>632.2</ele>
        <time>2021-05-02T09:12:50.000Z</time>
      </trkpt>
      <trkpt lat="43.6615" lon="6.84667">
        <ele>632.3</ele>
        <time>2021-05-02T09:12:51.000Z</time>
      </trkpt>
      <trkpt lat="43.66151" lon="6.84665">
        <ele>632.8</ele>
        <time>2021-05-02T09:12:52.000Z</time>
      </trkpt>
      <trkpt lat="43.66153" lon="6.84663">
        <ele>632.8</ele>
        <time>2021-05-02T09:12:53.000Z</time>
      </trkpt>
      <trkpt lat="43.66155" lon="6.84662">
        <ele>632.7</ele>
        <time>2021-05-02T09:12:54.000Z</time>
      </trkpt>
      <trkpt lat="43.66157" lon="6.84662">
        <ele>633</ele>
        <time>2021-05-02T09:12:55.000Z</time>
      </trkpt>
      <trkpt lat="43.66159" lon="6.84662">
        <ele>632.9</ele>
        <time>2021-05-02T09:12:56.000Z</time>
      </trkpt>
      <trkpt lat="43.66162" lon="6.84661">
        <ele>633</ele>
        <time>2021-05-02T09:12:57.000Z</time>
      </trkpt>
      <trkpt lat="43.66164" lon="6.84661">
        <ele>633.4</ele>
        <time>2021-05-02T09:12:58.000Z</time>
      </trkpt>
      <trkpt lat="43.66166" lon="6.84662">
        <ele>633.7</ele>
        <time>2021-05-02T09:12:59.000Z</time>
      </trkpt>
      <trkpt lat="43.66167" lon="6.84662">
        <ele>634</ele>
        <time>2021-05-02T09:13:00.000Z</time>
      </trkpt>
      <trkpt lat="43.66168" lon="6.84664">
        <ele>634.4</ele>
        <time>2021-05-02T09:13:02.000Z</time>
      </trkpt>
      <trkpt lat="43.66169" lon="6.84665">
        <ele>634.7</ele>
        <time>2021-05-02T09:13:03.000Z</time>
      </trkpt>
      <trkpt lat="43.6617" lon="6.84667">
        <ele>635.2</ele>
        <time>2021-05-02T09:13:04.000Z</time>
      </trkpt>
      <trkpt lat="43.66171" lon="6.84669">
        <ele>635.6</ele>
        <time>2021-05-02T09:13:05.000Z</time>
      </trkpt>
      <trkpt lat="43.66172" lon="6.84671">
        <ele>635.7</ele>
        <time>2021-05-02T09:13:06.000Z</time>
      </trkpt>
      <trkpt lat="43.66173" lon="6.84672">
        <ele>636.1</ele>
        <time>2021-05-02T09:13:07.000Z</time>
      </trkpt>
      <trkpt lat="43.66174" lon="6.84673">
        <ele>636.3</ele>
        <time>2021-05-02T09:13:08.000Z</time>
      </trkpt>
      <trkpt lat="43.66176" lon="6.84674">
        <ele>636.7</ele>
        <time>2021-05-02T09:13:09.000Z</time>
      </trkpt>
      <trkpt lat="43.66177" lon="6.84674">
        <ele>636.9</ele>
        <time>2021-05-02T09:13:10.000Z</time>
      </trkpt>
      <trkpt lat="43.66179" lon="6.84674">
        <ele>636.9</ele>
        <time>2021-05-02T09:13:11.000Z</time>
      </trkpt>
      <trkpt lat="43.66181" lon="6.84674">
        <ele>636.9</ele>
        <time>2021-05-02T09:13:12.000Z</time>
      </trkpt>
      <trkpt lat="43.66182" lon="6.84675">
        <ele>636.8</ele>
        <time>2021-05-02T09:13:13.000Z</time>
      </trkpt>
      <trkpt lat="43.66184" lon="6.84677">
        <ele>636.9</ele>
        <time>2021-05-02T09:13:14.000Z</time>
      </trkpt>
      <trkpt lat="43.66185" lon="6.84678">
        <ele>636.9</ele>
        <time>2021-05-02T09:13:15.000Z</time>
      </trkpt>
      <trkpt lat="43.66187" lon="6.84679">
        <ele>636.9</ele>
        <time>2021-05-02T09:13:16.000Z</time>
      </trkpt>
      <trkpt lat="43.66189" lon="6.8468">
        <ele>636.8</ele>
        <time>2021-05-02T09:13:17.000Z</time>
      </trkpt>
      <trkpt lat="43.66192" lon="6.8468">
        <ele>636.7</ele>
        <time>2021-05-02T09:13:18.000Z</time>
      </trkpt>
      <trkpt lat="43.66193" lon="6.84681">
        <ele>636.7</ele>
        <time>2021-05-02T09:13:19.000Z</time>
      </trkpt>
      <trkpt lat="43.66194" lon="6.84682">
        <ele>636.9</ele>
        <time>2021-05-02T09:13:20.000Z</time>
      </trkpt>
      <trkpt lat="43.66196" lon="6.84683">
        <ele>637</ele>
        <time>2021-05-02T09:13:21.000Z</time>
      </trkpt>
      <trkpt lat="43.66198" lon="6.84683">
        <ele>637</ele>
        <time>2021-05-02T09:13:22.000Z</time>
      </trkpt>
      <trkpt lat="43.662" lon="6.84683">
        <ele>637</ele>
        <time>2021-05-02T09:13:23.000Z</time>
      </trkpt>
      <trkpt lat="43.66201" lon="6.84683">
        <ele>637</ele>
        <time>2021-05-02T09:13:24.000Z</time>
      </trkpt>
      <trkpt lat="43.66203" lon="6.84683">
        <ele>637.3</ele>
        <time>2021-05-02T09:13:25.000Z</time>
      </trkpt>
      <trkpt lat="43.66205" lon="6.84683">
        <ele>637.5</ele>
        <time>2021-05-02T09:13:26.000Z</time>
      </trkpt>
      <trkpt lat="43.66207" lon="6.84684">
        <ele>637.7</ele>
        <time>2021-05-02T09:13:27.000Z</time>
      </trkpt>
      <trkpt lat="43.66209" lon="6.84684">
        <ele>637.7</ele>
        <time>2021-05-02T09:13:28.000Z</time>
      </trkpt>
      <trkpt lat="43.6621" lon="6.84685">
        <ele>638</ele>
        <time>2021-05-02T09:13:29.000Z</time>
      </trkpt>
      <trkpt lat="43.66212" lon="6.84686">
        <ele>638.4</ele>
        <time>2021-05-02T09:13:30.000Z</time>
      </trkpt>
      <trkpt lat="43.66214" lon="6.84686">
        <ele>638.8</ele>
        <time>2021-05-02T09:13:31.000Z</time>
      </trkpt>
      <trkpt lat="43.66216" lon="6.84688">
        <ele>639.1</ele>
        <time>2021-05-02T09:13:32.000Z</time>
      </trkpt>
      <trkpt lat="43.66218" lon="6.84689">
        <ele>639.3</ele>
        <time>2021-05-02T09:13:33.000Z</time>
      </trkpt>
      <trkpt lat="43.6622" lon="6.8469">
        <ele>639.6</ele>
        <time>2021-05-02T09:13:34.000Z</time>
      </trkpt>
      <trkpt lat="43.66222" lon="6.84691">
        <ele>639.9</ele>
        <time>2021-05-02T09:13:35.000Z</time>
      </trkpt>
      <trkpt lat="43.66225" lon="6.84693">
        <ele>640.1</ele>
        <time>2021-05-02T09:13:36.000Z</time>
      </trkpt>
      <trkpt lat="43.66227" lon="6.84694">
        <ele>640.6</ele>
        <time>2021-05-02T09:13:37.000Z</time>
      </trkpt>
      <trkpt lat="43.6623" lon="6.84695">
        <ele>641</ele>
        <time>2021-05-02T09:13:38.000Z</time>
      </trkpt>
      <trkpt lat="43.66233" lon="6.84696">
        <ele>641.2</ele>
        <time>2021-05-02T09:13:39.000Z</time>
      </trkpt>
      <trkpt lat="43.66235" lon="6.84697">
        <ele>641.7</ele>
        <time>2021-05-02T09:13:40.000Z</time>
      </trkpt>
      <trkpt lat="43.66238" lon="6.84698">
        <ele>642.2</ele>
        <time>2021-05-02T09:13:41.000Z</time>
      </trkpt>
      <trkpt lat="43.6624" lon="6.84698">
        <ele>642.8</ele>
        <time>2021-05-02T09:13:42.000Z</time>
      </trkpt>
      <trkpt lat="43.66243" lon="6.84699">
        <ele>643.3</ele>
        <time>2021-05-02T09:13:43.000Z</time>
      </trkpt>
      <trkpt lat="43.66245" lon="6.847">
        <ele>643.6</ele>
        <time>2021-05-02T09:13:44.000Z</time>
      </trkpt>
      <trkpt lat="43.66247" lon="6.84701">
        <ele>643.7</ele>
        <time>2021-05-02T09:13:45.000Z</time>
      </trkpt>
      <trkpt lat="43.66249" lon="6.84702">
        <ele>644</ele>
        <time>2021-05-02T09:13:46.000Z</time>
      </trkpt>
      <trkpt lat="43.6625" lon="6.84704">
        <ele>643.9</ele>
        <time>2021-05-02T09:13:47.000Z</time>
      </trkpt>
      <trkpt lat="43.66252" lon="6.84705">
        <ele>643.7</ele>
        <time>2021-05-02T09:13:48.000Z</time>
      </trkpt>
      <trkpt lat="43.66254" lon="6.84707">
        <ele>643.7</ele>
        <time>2021-05-02T09:13:49.000Z</time>
      </trkpt>
      <trkpt lat="43.66256" lon="6.84708">
        <ele>643.6</ele>
        <time>2021-05-02T09:13:50.000Z</time>
      </trkpt>
      <trkpt lat="43.66258" lon="6.84709">
        <ele>643.7</ele>
        <time>2021-05-02T09:13:51.000Z</time>
      </trkpt>
      <trkpt lat="43.6626" lon="6.84709">
        <ele>643.9</ele>
        <time>2021-05-02T09:13:52.000Z</time>
      </trkpt>
      <trkpt lat="43.66262" lon="6.8471">
        <ele>644.2</ele>
        <time>2021-05-02T09:13:53.000Z</time>
      </trkpt>
      <trkpt lat="43.66263" lon="6.84711">
        <ele>644.5</ele>
        <time>2021-05-02T09:13:54.000Z</time>
      </trkpt>
      <trkpt lat="43.66265" lon="6.84712">
        <ele>645.1</ele>
        <time>2021-05-02T09:13:55.000Z</time>
      </trkpt>
      <trkpt lat="43.66267" lon="6.84712">
        <ele>645.5</ele>
        <time>2021-05-02T09:13:56.000Z</time>
      </trkpt>
      <trkpt lat="43.6627" lon="6.84713">
        <ele>646.2</ele>
        <time>2021-05-02T09:13:57.000Z</time>
      </trkpt>
      <trkpt lat="43.66272" lon="6.84713">
        <ele>646.6</ele>
        <time>2021-05-02T09:13:58.000Z</time>
      </trkpt>
      <trkpt lat="43.66275" lon="6.84713">
        <ele>646.5</ele>
        <time>2021-05-02T09:13:59.000Z</time>
      </trkpt>
      <trkpt lat="43.66277" lon="6.84712">
        <ele>646.8</ele>
        <time>2021-05-02T09:14:00.000Z</time>
      </trkpt>
      <trkpt lat="43.66279" lon="6.84712">
        <ele>647</ele>
        <time>2021-05-02T09:14:01.000Z</time>
      </trkpt>
      <trkpt lat="43.66282" lon="6.84711">
        <ele>647.1</ele>
        <time>2021-05-02T09:14:02.000Z</time>
      </trkpt>
      <trkpt lat="43.66284" lon="6.84712">
        <ele>647</ele>
        <time>2021-05-02T09:14:03.000Z</time>
      </trkpt>
      <trkpt lat="43.66286" lon="6.84712">
        <ele>647</ele>
        <time>2021-05-02T09:14:04.000Z</time>
      </trkpt>
      <trkpt lat="43.66288" lon="6.84713">
        <ele>646.9</ele>
        <time>2021-05-02T09:14:05.000Z</time>
      </trkpt>
      <trkpt lat="43.66291" lon="6.84714">
        <ele>646.8</ele>
        <time>2021-05-02T09:14:06.000Z</time>
      </trkpt>
      <trkpt lat="43.66294" lon="6.84715">
        <ele>647</ele>
        <time>2021-05-02T09:14:07.000Z</time>
      </trkpt>
      <trkpt lat="43.66297" lon="6.84716">
        <ele>646.8</ele>
        <time>2021-05-02T09:14:08.000Z</time>
      </trkpt>
      <trkpt lat="43.663" lon="6.84717">
        <ele>646.5</ele>
        <time>2021-05-02T09:14:09.000Z</time>
      </trkpt>
      <trkpt lat="43.66304" lon="6.84718">
        <ele>645.8</ele>
        <time>2021-05-02T09:14:10.000Z</time>
      </trkpt>
      <trkpt lat="43.66308" lon="6.84719">
        <ele>645.3</ele>
        <time>2021-05-02T09:14:11.000Z</time>
      </trkpt>
      <trkpt lat="43.66312" lon="6.84721">
        <ele>644.7</ele>
        <time>2021-05-02T09:14:12.000Z</time>
      </trkpt>
      <trkpt lat="43.66315" lon="6.84723">
        <ele>644.2</ele>
        <time>2021-05-02T09:14:13.000Z</time>
      </trkpt>
      <trkpt lat="43.66319" lon="6.84726">
        <ele>643.7</ele>
        <time>2021-05-02T09:14:14.000Z</time>
      </trkpt>
      <trkpt lat="43.66322" lon="6.84728">
        <ele>643.6</ele>
        <time>2021-05-02T09:14:15.000Z</time>
      </trkpt>
      <trkpt lat="43.66327" lon="6.8473">
        <ele>643.2</ele>
        <time>2021-05-02T09:14:16.000Z</time>
      </trkpt>
      <trkpt lat="43.66332" lon="6.84732">
        <ele>642.6</ele>
        <time>2021-05-02T09:14:17.000Z</time>
      </trkpt>
      <trkpt lat="43.66337" lon="6.84734">
        <ele>642.3</ele>
        <time>2021-05-02T09:14:18.000Z</time>
      </trkpt>
      <trkpt lat="43.66343" lon="6.84736">
        <ele>641.7</ele>
        <time>2021-05-02T09:14:19.000Z</time>
      </trkpt>
      <trkpt lat="43.66348" lon="6.84738">
        <ele>640.7</ele>
        <time>2021-05-02T09:14:20.000Z</time>
      </trkpt>
      <trkpt lat="43.66354" lon="6.8474">
        <ele>639.7</ele>
        <time>2021-05-02T09:14:21.000Z</time>
      </trkpt>
      <trkpt lat="43.6636" lon="6.84742">
        <ele>639.4</ele>
        <time>2021-05-02T09:14:22.000Z</time>
      </trkpt>
      <trkpt lat="43.66366" lon="6.84744">
        <ele>638.5</ele>
        <time>2021-05-02T09:14:23.000Z</time>
      </trkpt>
      <trkpt lat="43.66371" lon="6.84746">
        <ele>638.1</ele>
        <time>2021-05-02T09:14:24.000Z</time>
      </trkpt>
      <trkpt lat="43.66376" lon="6.84747">
        <ele>637.6</ele>
        <time>2021-05-02T09:14:25.000Z</time>
      </trkpt>
      <trkpt lat="43.66381" lon="6.84749">
        <ele>637</ele>
        <time>2021-05-02T09:14:26.000Z</time>
      </trkpt>
      <trkpt lat="43.66385" lon="6.8475">
        <ele>636.7</ele>
        <time>2021-05-02T09:14:27.000Z</time>
      </trkpt>
      <trkpt lat="43.66389" lon="6.84753">
        <ele>635.9</ele>
        <time>2021-05-02T09:14:28.000Z</time>
      </trkpt>
      <trkpt lat="43.66393" lon="6.84754">
        <ele>635.5</ele>
        <time>2021-05-02T09:14:29.000Z</time>
      </trkpt>
      <trkpt lat="43.66396" lon="6.84753">
        <ele>635.5</ele>
        <time>2021-05-02T09:14:30.000Z</time>
      </trkpt>
      <trkpt lat="43.66401" lon="6.84751">
        <ele>634.5</ele>
        <time>2021-05-02T09:14:31.000Z</time>
      </trkpt>
      <trkpt lat="43.66405" lon="6.84749">
        <ele>633.9</ele>
        <time>2021-05-02T09:14:32.000Z</time>
      </trkpt>
      <trkpt lat="43.66409" lon="6.84748">
        <ele>633.1</ele>
        <time>2021-05-02T09:14:33.000Z</time>
      </trkpt>
      <trkpt lat="43.66413" lon="6.84749">
        <ele>632.8</ele>
        <time>2021-05-02T09:14:34.000Z</time>
      </trkpt>
      <trkpt lat="43.66416" lon="6.84749">
        <ele>632.5</ele>
        <time>2021-05-02T09:14:35.000Z</time>
      </trkpt>
      <trkpt lat="43.6642" lon="6.8475">
        <ele>632.2</ele>
        <time>2021-05-02T09:14:36.000Z</time>
      </trkpt>
      <trkpt lat="43.66424" lon="6.84751">
        <ele>632.2</ele>
        <time>2021-05-02T09:14:37.000Z</time>
      </trkpt>
      <trkpt lat="43.66427" lon="6.84752">
        <ele>632.3</ele>
        <time>2021-05-02T09:14:38.000Z</time>
      </trkpt>
      <trkpt lat="43.66431" lon="6.84752">
        <ele>632</ele>
        <time>2021-05-02T09:14:39.000Z</time>
      </trkpt>
      <trkpt lat="43.66436" lon="6.84753">
        <ele>631.7</ele>
        <time>2021-05-02T09:14:40.000Z</time>
      </trkpt>
      <trkpt lat="43.6644" lon="6.84754">
        <ele>630.9</ele>
        <time>2021-05-02T09:14:41.000Z</time>
      </trkpt>
      <trkpt lat="43.66444" lon="6.84755">
        <ele>630.6</ele>
        <time>2021-05-02T09:14:42.000Z</time>
      </trkpt>
      <trkpt lat="43.66448" lon="6.84756">
        <ele>630.3</ele>
        <time>2021-05-02T09:14:43.000Z</time>
      </trkpt>
      <trkpt lat="43.66452" lon="6.84758">
        <ele>629.9</ele>
        <time>2021-05-02T09:14:44.000Z</time>
      </trkpt>
      <trkpt lat="43.66456" lon="6.8476">
        <ele>629.4</ele>
        <time>2021-05-02T09:14:45.000Z</time>
      </trkpt>
      <trkpt lat="43.6646" lon="6.84762">
        <ele>629</ele>
        <time>2021-05-02T09:14:46.000Z</time>
      </trkpt>
      <trkpt lat="43.66463" lon="6.84765">
        <ele>628.9</ele>
        <time>2021-05-02T09:14:47.000Z</time>
      </trkpt>
      <trkpt lat="43.66466" lon="6.84767">
        <ele>628.8</ele>
        <time>2021-05-02T09:14:48.000Z</time>
      </trkpt>
      <trkpt lat="43.66469" lon="6.8477">
        <ele>628.7</ele>
        <time>2021-05-02T09:14:49.000Z</time>
      </trkpt>
      <trkpt lat="43.66472" lon="6.84773">
        <ele>628.7</ele>
        <time>2021-05-02T09:14:50.000Z</time>
      </trkpt>
      <trkpt lat="43.66474" lon="6.84776">
        <ele>628.1</ele>
        <time>2021-05-02T09:14:51.000Z</time>
      </trkpt>
      <trkpt lat="43.66477" lon="6.84779">
        <ele>628.4</ele>
        <time>2021-05-02T09:14:52.000Z</time>
      </trkpt>
      <trkpt lat="43.6648" lon="6.84782">
        <ele>628.4</ele>
        <time>2021-05-02T09:14:53.000Z</time>
      </trkpt>
      <trkpt lat="43.66482" lon="6.84787">
        <ele>628.8</ele>
        <time>2021-05-02T09:14:54.000Z</time>
      </trkpt>
      <trkpt lat="43.66484" lon="6.84791">
        <ele>628.3</ele>
        <time>2021-05-02T09:14:55.000Z</time>
      </trkpt>
      <trkpt lat="43.66487" lon="6.84795">
        <ele>628.1</ele>
        <time>2021-05-02T09:14:56.000Z</time>
      </trkpt>
      <trkpt lat="43.66491" lon="6.848">
        <ele>627.7</ele>
        <time>2021-05-02T09:14:57.000Z</time>
      </trkpt>
      <trkpt lat="43.66494" lon="6.84805">
        <ele>627.4</ele>
        <time>2021-05-02T09:14:58.000Z</time>
      </trkpt>
      <trkpt lat="43.66498" lon="6.84811">
        <ele>626.6</ele>
        <time>2021-05-02T09:14:59.000Z</time>
      </trkpt>
      <trkpt lat="43.66502" lon="6.84817">
        <ele>626.6</ele>
        <time>2021-05-02T09:15:00.000Z</time>
      </trkpt>
      <trkpt lat="43.66507" lon="6.84823">
        <ele>627.2</ele>
        <time>2021-05-02T09:15:01.000Z</time>
      </trkpt>
      <trkpt lat="43.66512" lon="6.84827">
        <ele>627.5</ele>
        <time>2021-05-02T09:15:02.000Z</time>
      </trkpt>
      <trkpt lat="43.66517" lon="6.84831">
        <ele>627.8</ele>
        <time>2021-05-02T09:15:03.000Z</time>
      </trkpt>
      <trkpt lat="43.66522" lon="6.84835">
        <ele>628.7</ele>
        <time>2021-05-02T09:15:04.000Z</time>
      </trkpt>
      <trkpt lat="43.66528" lon="6.84837">
        <ele>629</ele>
        <time>2021-05-02T09:15:05.000Z</time>
      </trkpt>
      <trkpt lat="43.66533" lon="6.8484">
        <ele>629</ele>
        <time>2021-05-02T09:15:06.000Z</time>
      </trkpt>
      <trkpt lat="43.66539" lon="6.84843">
        <ele>629.1</ele>
        <time>2021-05-02T09:15:07.000Z</time>
      </trkpt>
      <trkpt lat="43.66544" lon="6.84846">
        <ele>629.2</ele>
        <time>2021-05-02T09:15:08.000Z</time>
      </trkpt>
      <trkpt lat="43.66549" lon="6.84848">
        <ele>629.5</ele>
        <time>2021-05-02T09:15:09.000Z</time>
      </trkpt>
      <trkpt lat="43.66555" lon="6.84849">
        <ele>630</ele>
        <time>2021-05-02T09:15:10.000Z</time>
      </trkpt>
      <trkpt lat="43.6656" lon="6.84851">
        <ele>630.4</ele>
        <time>2021-05-02T09:15:11.000Z</time>
      </trkpt>
      <trkpt lat="43.66566" lon="6.84853">
        <ele>630.6</ele>
        <time>2021-05-02T09:15:12.000Z</time>
      </trkpt>
      <trkpt lat="43.66571" lon="6.84855">
        <ele>630.3</ele>
        <time>2021-05-02T09:15:13.000Z</time>
      </trkpt>
      <trkpt lat="43.66575" lon="6.84857">
        <ele>630.5</ele>
        <time>2021-05-02T09:15:14.000Z</time>
      </trkpt>
      <trkpt lat="43.66579" lon="6.84857">
        <ele>630.5</ele>
        <time>2021-05-02T09:15:15.000Z</time>
      </trkpt>
      <trkpt lat="43.66583" lon="6.84858">
        <ele>630.3</ele>
        <time>2021-05-02T09:15:16.000Z</time>
      </trkpt>
      <trkpt lat="43.66585" lon="6.84858">
        <ele>630.7</ele>
        <time>2021-05-02T09:15:17.000Z</time>
      </trkpt>
      <trkpt lat="43.66588" lon="6.84859">
        <ele>631</ele>
        <time>2021-05-02T09:15:18.000Z</time>
      </trkpt>
      <trkpt lat="43.66591" lon="6.84858">
        <ele>631.5</ele>
        <time>2021-05-02T09:15:19.000Z</time>
      </trkpt>
      <trkpt lat="43.66593" lon="6.84858">
        <ele>631.7</ele>
        <time>2021-05-02T09:15:20.000Z</time>
      </trkpt>
      <trkpt lat="43.66596" lon="6.84857">
        <ele>631.2</ele>
        <time>2021-05-02T09:15:21.000Z</time>
      </trkpt>
      <trkpt lat="43.66597" lon="6.84857">
        <ele>631.1</ele>
        <time>2021-05-02T09:15:22.000Z</time>
      </trkpt>
      <trkpt lat="43.66598" lon="6.84856">
        <ele>630.9</ele>
        <time>2021-05-02T09:15:23.000Z</time>
      </trkpt>
      <trkpt lat="43.66599" lon="6.84856">
        <ele>631.3</ele>
        <time>2021-05-02T09:15:24.000Z</time>
      </trkpt>
      <trkpt lat="43.666" lon="6.84856">
        <ele>631.6</ele>
        <time>2021-05-02T09:15:25.000Z</time>
      </trkpt>
      <trkpt lat="43.66605" lon="6.8485">
        <ele>631.4</ele>
        <time>2021-05-02T09:16:26.000Z</time>
      </trkpt>
      <trkpt lat="43.66609" lon="6.84851">
        <ele>631.2</ele>
        <time>2021-05-02T09:16:27.000Z</time>
      </trkpt>
      <trkpt lat="43.66613" lon="6.84853">
        <ele>630.7</ele>
        <time>2021-05-02T09:16:28.000Z</time>
      </trkpt>
      <trkpt lat="43.66618" lon="6.84856">
        <ele>630.3</ele>
        <time>2021-05-02T09:16:29.000Z</time>
      </trkpt>
      <trkpt lat="43.66624" lon="6.84859">
        <ele>629.7</ele>
        <time>2021-05-02T09:16:30.000Z</time>
      </trkpt>
      <trkpt lat="43.6663" lon="6.84864">
        <ele>629.1</ele>
        <time>2021-05-02T09:16:31.000Z</time>
      </trkpt>
      <trkpt lat="43.66635" lon="6.8487">
        <ele>628.1</ele>
        <time>2021-05-02T09:16:32.000Z</time>
      </trkpt>
      <trkpt lat="43.6664" lon="6.84875">
        <ele>626.7</ele>
        <time>2021-05-02T09:16:33.000Z</time>
      </trkpt>
      <trkpt lat="43.66645" lon="6.84879">
        <ele>626.1</ele>
        <time>2021-05-02T09:16:34.000Z</time>
      </trkpt>
      <trkpt lat="43.6665" lon="6.84882">
        <ele>625.1</ele>
        <time>2021-05-02T09:16:35.000Z</time>
      </trkpt>
      <trkpt lat="43.66655" lon="6.84885">
        <ele>623.7</ele>
        <time>2021-05-02T09:16:36.000Z</time>
      </trkpt>
      <trkpt lat="43.66658" lon="6.84889">
        <ele>622.7</ele>
        <time>2021-05-02T09:16:37.000Z</time>
      </trkpt>
      <trkpt lat="43.66661" lon="6.84893">
        <ele>621.5</ele>
        <time>2021-05-02T09:16:38.000Z</time>
      </trkpt>
      <trkpt lat="43.66664" lon="6.84897">
        <ele>620.1</ele>
        <time>2021-05-02T09:16:39.000Z</time>
      </trkpt>
      <trkpt lat="43.6667" lon="6.84902">
        <ele>618.4</ele>
        <time>2021-05-02T09:16:40.000Z</time>
      </trkpt>
      <trkpt lat="43.66675" lon="6.84906">
        <ele>617.2</ele>
        <time>2021-05-02T09:16:41.000Z</time>
      </trkpt>
      <trkpt lat="43.66682" lon="6.84911">
        <ele>616.6</ele>
        <time>2021-05-02T09:16:42.000Z</time>
      </trkpt>
      <trkpt lat="43.66687" lon="6.84914">
        <ele>615.7</ele>
        <time>2021-05-02T09:16:43.000Z</time>
      </trkpt>
      <trkpt lat="43.66692" lon="6.84916">
        <ele>614.5</ele>
        <time>2021-05-02T09:16:44.000Z</time>
      </trkpt>
      <trkpt lat="43.66697" lon="6.84917">
        <ele>614</ele>
        <time>2021-05-02T09:16:45.000Z</time>
      </trkpt>
      <trkpt lat="43.66701" lon="6.8492">
        <ele>614.1</ele>
        <time>2021-05-02T09:16:46.000Z</time>
      </trkpt>
      <trkpt lat="43.66705" lon="6.84922">
        <ele>614.2</ele>
        <time>2021-05-02T09:16:47.000Z</time>
      </trkpt>
      <trkpt lat="43.66708" lon="6.84925">
        <ele>614.1</ele>
        <time>2021-05-02T09:16:48.000Z</time>
      </trkpt>
      <trkpt lat="43.66711" lon="6.84929">
        <ele>613.5</ele>
        <time>2021-05-02T09:16:49.000Z</time>
      </trkpt>
      <trkpt lat="43.66715" lon="6.84931">
        <ele>613.5</ele>
        <time>2021-05-02T09:16:50.000Z</time>
      </trkpt>
      <trkpt lat="43.6672" lon="6.84934">
        <ele>613.7</ele>
        <time>2021-05-02T09:16:51.000Z</time>
      </trkpt>
      <trkpt lat="43.66724" lon="6.84938">
        <ele>613.1</ele>
        <time>2021-05-02T09:16:52.000Z</time>
      </trkpt>
      <trkpt lat="43.66729" lon="6.84942">
        <ele>612.8</ele>
        <time>2021-05-02T09:16:53.000Z</time>
      </trkpt>
      <trkpt lat="43.66734" lon="6.84946">
        <ele>612.1</ele>
        <time>2021-05-02T09:16:54.000Z</time>
      </trkpt>
      <trkpt lat="43.66738" lon="6.84951">
        <ele>610.5</ele>
        <time>2021-05-02T09:16:55.000Z</time>
      </trkpt>
      <trkpt lat="43.66741" lon="6.84955">
        <ele>610.6</ele>
        <time>2021-05-02T09:16:56.000Z</time>
      </trkpt>
      <trkpt lat="43.66743" lon="6.84956">
        <ele>609.8</ele>
        <time>2021-05-02T09:16:57.000Z</time>
      </trkpt>
      <trkpt lat="43.66747" lon="6.84956">
        <ele>609.9</ele>
        <time>2021-05-02T09:16:58.000Z</time>
      </trkpt>
      <trkpt lat="43.66751" lon="6.84957">
        <ele>609.7</ele>
        <time>2021-05-02T09:16:59.000Z</time>
      </trkpt>
      <trkpt lat="43.66755" lon="6.84957">
        <ele>610.9</ele>
        <time>2021-05-02T09:17:00.000Z</time>
      </trkpt>
      <trkpt lat="43.66758" lon="6.84959">
        <ele>611.2</ele>
        <time>2021-05-02T09:17:01.000Z</time>
      </trkpt>
      <trkpt lat="43.66761" lon="6.8496">
        <ele>611.6</ele>
        <time>2021-05-02T09:17:02.000Z</time>
      </trkpt>
      <trkpt lat="43.66764" lon="6.84962">
        <ele>613</ele>
        <time>2021-05-02T09:17:03.000Z</time>
      </trkpt>
      <trkpt lat="43.66767" lon="6.84963">
        <ele>613.5</ele>
        <time>2021-05-02T09:17:04.000Z</time>
      </trkpt>
      <trkpt lat="43.66769" lon="6.84965">
        <ele>614</ele>
        <time>2021-05-02T09:17:05.000Z</time>
      </trkpt>
      <trkpt lat="43.66772" lon="6.84967">
        <ele>614.5</ele>
        <time>2021-05-02T09:17:06.000Z</time>
      </trkpt>
      <trkpt lat="43.66774" lon="6.84969">
        <ele>615.4</ele>
        <time>2021-05-02T09:17:07.000Z</time>
      </trkpt>
      <trkpt lat="43.66775" lon="6.84971">
        <ele>616.6</ele>
        <time>2021-05-02T09:17:08.000Z</time>
      </trkpt>
      <trkpt lat="43.66776" lon="6.84973">
        <ele>617.8</ele>
        <time>2021-05-02T09:17:09.000Z</time>
      </trkpt>
      <trkpt lat="43.66776" lon="6.84974">
        <ele>619.8</ele>
        <time>2021-05-02T09:17:10.000Z</time>
      </trkpt>
      <trkpt lat="43.66778" lon="6.84975">
        <ele>621.3</ele>
        <time>2021-05-02T09:17:11.000Z</time>
      </trkpt>
      <trkpt lat="43.6678" lon="6.84977">
        <ele>621.4</ele>
        <time>2021-05-02T09:17:12.000Z</time>
      </trkpt>
      <trkpt lat="43.66782" lon="6.84979">
        <ele>621.9</ele>
        <time>2021-05-02T09:17:13.000Z</time>
      </trkpt>
      <trkpt lat="43.66784" lon="6.8498">
        <ele>622.9</ele>
        <time>2021-05-02T09:17:14.000Z</time>
      </trkpt>
      <trkpt lat="43.66786" lon="6.84981">
        <ele>623.8</ele>
        <time>2021-05-02T09:17:15.000Z</time>
      </trkpt>
      <trkpt lat="43.66787" lon="6.84982">
        <ele>624.9</ele>
        <time>2021-05-02T09:17:16.000Z</time>
      </trkpt>
      <trkpt lat="43.66789" lon="6.84983">
        <ele>625.9</ele>
        <time>2021-05-02T09:17:17.000Z</time>
      </trkpt>
      <trkpt lat="43.66791" lon="6.84984">
        <ele>626.3</ele>
        <time>2021-05-02T09:17:18.000Z</time>
      </trkpt>
      <trkpt lat="43.66793" lon="6.84986">
        <ele>626.7</ele>
        <time>2021-05-02T09:17:19.000Z</time>
      </trkpt>
      <trkpt lat="43.66795" lon="6.84988">
        <ele>627.3</ele>
        <time>2021-05-02T09:17:20.000Z</time>
      </trkpt>
      <trkpt lat="43.66796" lon="6.84989">
        <ele>628.1</ele>
        <time>2021-05-02T09:17:21.000Z</time>
      </trkpt>
      <trkpt lat="43.66799" lon="6.8499">
        <ele>628.8</ele>
        <time>2021-05-02T09:17:22.000Z</time>
      </trkpt>
      <trkpt lat="43.66801" lon="6.84992">
        <ele>629.5</ele>
        <time>2021-05-02T09:17:23.000Z</time>
      </trkpt>
      <trkpt lat="43.66803" lon="6.84994">
        <ele>630.4</ele>
        <time>2021-05-02T09:17:24.000Z</time>
      </trkpt>
      <trkpt lat="43.66806" lon="6.84996">
        <ele>630.6</ele>
        <time>2021-05-02T09:17:25.000Z</time>
      </trkpt>
      <trkpt lat="43.66809" lon="6.84998">
        <ele>631.1</ele>
        <time>2021-05-02T09:17:26.000Z</time>
      </trkpt>
      <trkpt lat="43.66811" lon="6.85">
        <ele>631.8</ele>
        <time>2021-05-02T09:17:27.000Z</time>
      </trkpt>
      <trkpt lat="43.66814" lon="6.85003">
        <ele>632.4</ele>
        <time>2021-05-02T09:17:28.000Z</time>
      </trkpt>
      <trkpt lat="43.66817" lon="6.85005">
        <ele>632.8</ele>
        <time>2021-05-02T09:17:29.000Z</time>
      </trkpt>
      <trkpt lat="43.66819" lon="6.85007">
        <ele>633.1</ele>
        <time>2021-05-02T09:17:30.000Z</time>
      </trkpt>
      <trkpt lat="43.66822" lon="6.85009">
        <ele>633.7</ele>
        <time>2021-05-02T09:17:31.000Z</time>
      </trkpt>
      <trkpt lat="43.66824" lon="6.85011">
        <ele>634.3</ele>
        <time>2021-05-02T09:17:32.000Z</time>
      </trkpt>
      <trkpt lat="43.66826" lon="6.85013">
        <ele>634.8</ele>
        <time>2021-05-02T09:17:33.000Z</time>
      </trkpt>
      <trkpt lat="43.66829" lon="6.85015">
        <ele>635.2</ele>
        <time>2021-05-02T09:17:34.000Z</time>
      </trkpt>
      <trkpt lat="43.66832" lon="6.85016">
        <ele>635.6</ele>
        <time>2021-05-02T09:17:35.000Z</time>
      </trkpt>
      <trkpt lat="43.66834" lon="6.85018">
        <ele>636.3</ele>
        <time>2021-05-02T09:17:36.000Z</time>
      </trkpt>
      <trkpt lat="43.66836" lon="6.8502">
        <ele>637.5</ele>
        <time>2021-05-02T09:17:37.000Z</time>
      </trkpt>
      <trkpt lat="43.66839" lon="6.85022">
        <ele>638.3</ele>
        <time>2021-05-02T09:17:38.000Z</time>
      </trkpt>
      <trkpt lat="43.66843" lon="6.85024">
        <ele>638.8</ele>
        <time>2021-05-02T09:17:39.000Z</time>
      </trkpt>
      <trkpt lat="43.66845" lon="6.85027">
        <ele>639.7</ele>
        <time>2021-05-02T09:17:40.000Z</time>
      </trkpt>
      <trkpt lat="43.66848" lon="6.8503">
        <ele>639.9</ele>
        <time>2021-05-02T09:17:41.000Z</time>
      </trkpt>
      <trkpt lat="43.66852" lon="6.85033">
        <ele>640.3</ele>
        <time>2021-05-02T09:17:42.000Z</time>
      </trkpt>
      <trkpt lat="43.66855" lon="6.85036">
        <ele>640.3</ele>
        <time>2021-05-02T09:17:43.000Z</time>
      </trkpt>
      <trkpt lat="43.66858" lon="6.85038">
        <ele>640.6</ele>
        <time>2021-05-02T09:17:44.000Z</time>
      </trkpt>
      <trkpt lat="43.6686" lon="6.85041">
        <ele>641.1</ele>
        <time>2021-05-02T09:17:45.000Z</time>
      </trkpt>
      <trkpt lat="43.66863" lon="6.85043">
        <ele>641.8</ele>
        <time>2021-05-02T09:17:46.000Z</time>
      </trkpt>
      <trkpt lat="43.66867" lon="6.85045">
        <ele>641.9</ele>
        <time>2021-05-02T09:17:47.000Z</time>
      </trkpt>
      <trkpt lat="43.6687" lon="6.85048">
        <ele>641.7</ele>
        <time>2021-05-02T09:17:48.000Z</time>
      </trkpt>
      <trkpt lat="43.66872" lon="6.8505">
        <ele>642.3</ele>
        <time>2021-05-02T09:17:49.000Z</time>
      </trkpt>
      <trkpt lat="43.66875" lon="6.85052">
        <ele>642.8</ele>
        <time>2021-05-02T09:17:50.000Z</time>
      </trkpt>
      <trkpt lat="43.66878" lon="6.85054">
        <ele>642</ele>
        <time>2021-05-02T09:17:51.000Z</time>
      </trkpt>
      <trkpt lat="43.66882" lon="6.85057">
        <ele>641.4</ele>
        <time>2021-05-02T09:17:52.000Z</time>
      </trkpt>
      <trkpt lat="43.66884" lon="6.85059">
        <ele>640.4</ele>
        <time>2021-05-02T09:17:53.000Z</time>
      </trkpt>
      <trkpt lat="43.66887" lon="6.85061">
        <ele>639.5</ele>
        <time>2021-05-02T09:17:54.000Z</time>
      </trkpt>
      <trkpt lat="43.6689" lon="6.85063">
        <ele>638.4</ele>
        <time>2021-05-02T09:17:55.000Z</time>
      </trkpt>
      <trkpt lat="43.66892" lon="6.85065">
        <ele>637.9</ele>
        <time>2021-05-02T09:17:56.000Z</time>
      </trkpt>
      <trkpt lat="43.66895" lon="6.85066">
        <ele>637.6</ele>
        <time>2021-05-02T09:17:57.000Z</time>
      </trkpt>
      <trkpt lat="43.66897" lon="6.85068">
        <ele>636.4</ele>
        <time>2021-05-02T09:17:58.000Z</time>
      </trkpt>
      <trkpt lat="43.669" lon="6.85069">
        <ele>636.1</ele>
        <time>2021-05-02T09:17:59.000Z</time>
      </trkpt>
      <trkpt lat="43.66902" lon="6.8507">
        <ele>636.3</ele>
        <time>2021-05-02T09:18:00.000Z</time>
      </trkpt>
      <trkpt lat="43.66905" lon="6.85071">
        <ele>636.7</ele>
        <time>2021-05-02T09:18:01.000Z</time>
      </trkpt>
      <trkpt lat="43.66907" lon="6.85072">
        <ele>637.4</ele>
        <time>2021-05-02T09:18:02.000Z</time>
      </trkpt>
      <trkpt lat="43.6691" lon="6.85072">
        <ele>638.1</ele>
        <time>2021-05-02T09:18:03.000Z</time>
      </trkpt>
      <trkpt lat="43.66913" lon="6.85072">
        <ele>638.3</ele>
        <time>2021-05-02T09:18:04.000Z</time>
      </trkpt>
      <trkpt lat="43.66916" lon="6.85071">
        <ele>637.9</ele>
        <time>2021-05-02T09:18:05.000Z</time>
      </trkpt>
      <trkpt lat="43.66919" lon="6.85069">
        <ele>638.1</ele>
        <time>2021-05-02T09:18:06.000Z</time>
      </trkpt>
      <trkpt lat="43.66922" lon="6.85067">
        <ele>638.2</ele>
        <time>2021-05-02T09:18:07.000Z</time>
      </trkpt>
      <trkpt lat="43.66925" lon="6.85064">
        <ele>638.2</ele>
        <time>2021-05-02T09:18:08.000Z</time>
      </trkpt>
      <trkpt lat="43.66929" lon="6.85062">
        <ele>637.7</ele>
        <time>2021-05-02T09:18:09.000Z</time>
      </trkpt>
      <trkpt lat="43.66933" lon="6.85059">
        <ele>636.6</ele>
        <time>2021-05-02T09:18:10.000Z</time>
      </trkpt>
      <trkpt lat="43.66936" lon="6.85058">
        <ele>636.1</ele>
        <time>2021-05-02T09:18:11.000Z</time>
      </trkpt>
      <trkpt lat="43.6694" lon="6.85056">
        <ele>635.5</ele>
        <time>2021-05-02T09:18:12.000Z</time>
      </trkpt>
      <trkpt lat="43.66944" lon="6.85054">
        <ele>635</ele>
        <time>2021-05-02T09:18:13.000Z</time>
      </trkpt>
      <trkpt lat="43.66948" lon="6.85052">
        <ele>635.3</ele>
        <time>2021-05-02T09:18:14.000Z</time>
      </trkpt>
      <trkpt lat="43.66953" lon="6.85051">
        <ele>635.2</ele>
        <time>2021-05-02T09:18:15.000Z</time>
      </trkpt>
      <trkpt lat="43.66956" lon="6.8505">
        <ele>635.7</ele>
        <time>2021-05-02T09:18:16.000Z</time>
      </trkpt>
      <trkpt lat="43.6696" lon="6.85048">
        <ele>637</ele>
        <time>2021-05-02T09:18:17.000Z</time>
      </trkpt>
      <trkpt lat="43.66963" lon="6.85047">
        <ele>637.8</ele>
        <time>2021-05-02T09:18:18.000Z</time>
      </trkpt>
      <trkpt lat="43.66966" lon="6.85046">
        <ele>637.7</ele>
        <time>2021-05-02T09:18:19.000Z</time>
      </trkpt>
      <trkpt lat="43.66969" lon="6.85046">
        <ele>637.3</ele>
        <time>2021-05-02T09:18:20.000Z</time>
      </trkpt>
      <trkpt lat="43.66971" lon="6.85045">
        <ele>637.3</ele>
        <time>2021-05-02T09:18:21.000Z</time>
      </trkpt>
      <trkpt lat="43.66974" lon="6.85044">
        <ele>637.3</ele>
        <time>2021-05-02T09:18:22.000Z</time>
      </trkpt>
      <trkpt lat="43.66976" lon="6.85044">
        <ele>637.1</ele>
        <time>2021-05-02T09:18:23.000Z</time>
      </trkpt>
      <trkpt lat="43.66978" lon="6.85045">
        <ele>637.1</ele>
        <time>2021-05-02T09:18:24.000Z</time>
      </trkpt>
      <trkpt lat="43.66981" lon="6.85045">
        <ele>637.6</ele>
        <time>2021-05-02T09:18:25.000Z</time>
      </trkpt>
      <trkpt lat="43.66983" lon="6.85045">
        <ele>638.1</ele>
        <time>2021-05-02T09:18:26.000Z</time>
      </trkpt>
      <trkpt lat="43.66986" lon="6.85045">
        <ele>638.6</ele>
        <time>2021-05-02T09:18:27.000Z</time>
      </trkpt>
      <trkpt lat="43.66988" lon="6.85046">
        <ele>638.8</ele>
        <time>2021-05-02T09:18:28.000Z</time>
      </trkpt>
      <trkpt lat="43.6699" lon="6.85047">
        <ele>639</ele>
        <time>2021-05-02T09:18:29.000Z</time>
      </trkpt>
      <trkpt lat="43.66993" lon="6.85049">
        <ele>639.2</ele>
        <time>2021-05-02T09:18:30.000Z</time>
      </trkpt>
      <trkpt lat="43.66996" lon="6.8505">
        <ele>639</ele>
        <time>2021-05-02T09:18:31.000Z</time>
      </trkpt>
      <trkpt lat="43.66999" lon="6.85052">
        <ele>639</ele>
        <time>2021-05-02T09:18:32.000Z</time>
      </trkpt>
      <trkpt lat="43.67001" lon="6.85053">
        <ele>639.2</ele>
        <time>2021-05-02T09:18:33.000Z</time>
      </trkpt>
      <trkpt lat="43.67004" lon="6.85054">
        <ele>639.1</ele>
        <time>2021-05-02T09:18:34.000Z</time>
      </trkpt>
      <trkpt lat="43.67007" lon="6.85055">
        <ele>639.5</ele>
        <time>2021-05-02T09:18:35.000Z</time>
      </trkpt>
      <trkpt lat="43.67009" lon="6.85056">
        <ele>640.2</ele>
        <time>2021-05-02T09:18:36.000Z</time>
      </trkpt>
      <trkpt lat="43.67012" lon="6.85056">
        <ele>640.3</ele>
        <time>2021-05-02T09:18:37.000Z</time>
      </trkpt>
      <trkpt lat="43.67014" lon="6.85057">
        <ele>640.5</ele>
        <time>2021-05-02T09:18:38.000Z</time>
      </trkpt>
      <trkpt lat="43.67016" lon="6.85057">
        <ele>640.8</ele>
        <time>2021-05-02T09:18:39.000Z</time>
      </trkpt>
      <trkpt lat="43.67019" lon="6.85057">
        <ele>640.4</ele>
        <time>2021-05-02T09:18:40.000Z</time>
      </trkpt>
      <trkpt lat="43.67023" lon="6.85057">
        <ele>640.6</ele>
        <time>2021-05-02T09:18:41.000Z</time>
      </trkpt>
      <trkpt lat="43.67026" lon="6.85057">
        <ele>640.8</ele>
        <time>2021-05-02T09:18:42.000Z</time>
      </trkpt>
      <trkpt lat="43.67028" lon="6.85057">
        <ele>641</ele>
        <time>2021-05-02T09:18:43.000Z</time>
      </trkpt>
      <trkpt lat="43.67031" lon="6.85057">
        <ele>641</ele>
        <time>2021-05-02T09:18:44.000Z</time>
      </trkpt>
      <trkpt lat="43.67033" lon="6.85057">
        <ele>641.2</ele>
        <time>2021-05-02T09:18:45.000Z</time>
      </trkpt>
      <trkpt lat="43.67035" lon="6.85057">
        <ele>641.6</ele>
        <time>2021-05-02T09:18:46.000Z</time>
      </trkpt>
      <trkpt lat="43.67038" lon="6.85055">
        <ele>640.8</ele>
        <time>2021-05-02T09:18:47.000Z</time>
      </trkpt>
      <trkpt lat="43.67041" lon="6.85054">
        <ele>640.7</ele>
        <time>2021-05-02T09:18:48.000Z</time>
      </trkpt>
      <trkpt lat="43.67043" lon="6.85054">
        <ele>640.5</ele>
        <time>2021-05-02T09:18:49.000Z</time>
      </trkpt>
      <trkpt lat="43.67046" lon="6.85054">
        <ele>641</ele>
        <time>2021-05-02T09:18:50.000Z</time>
      </trkpt>
      <trkpt lat="43.67048" lon="6.85054">
        <ele>641.4</ele>
        <time>2021-05-02T09:18:51.000Z</time>
      </trkpt>
      <trkpt lat="43.67051" lon="6.85053">
        <ele>642.2</ele>
        <time>2021-05-02T09:18:52.000Z</time>
      </trkpt>
      <trkpt lat="43.67054" lon="6.85053">
        <ele>642.8</ele>
        <time>2021-05-02T09:18:53.000Z</time>
      </trkpt>
      <trkpt lat="43.67056" lon="6.85052">
        <ele>643.2</ele>
        <time>2021-05-02T09:18:54.000Z</time>
      </trkpt>
      <trkpt lat="43.67058" lon="6.8505">
        <ele>643.2</ele>
        <time>2021-05-02T09:18:55.000Z</time>
      </trkpt>
      <trkpt lat="43.67061" lon="6.85049">
        <ele>643.4</ele>
        <time>2021-05-02T09:18:56.000Z</time>
      </trkpt>
      <trkpt lat="43.67063" lon="6.85048">
        <ele>643.7</ele>
        <time>2021-05-02T09:18:57.000Z</time>
      </trkpt>
      <trkpt lat="43.67066" lon="6.85047">
        <ele>643.9</ele>
        <time>2021-05-02T09:18:58.000Z</time>
      </trkpt>
      <trkpt lat="43.67068" lon="6.85046">
        <ele>644.7</ele>
        <time>2021-05-02T09:18:59.000Z</time>
      </trkpt>
      <trkpt lat="43.67071" lon="6.85045">
        <ele>644.9</ele>
        <time>2021-05-02T09:19:00.000Z</time>
      </trkpt>
      <trkpt lat="43.67073" lon="6.85044">
        <ele>644.6</ele>
        <time>2021-05-02T09:19:01.000Z</time>
      </trkpt>
      <trkpt lat="43.67076" lon="6.85044">
        <ele>644.6</ele>
        <time>2021-05-02T09:19:02.000Z</time>
      </trkpt>
      <trkpt lat="43.67078" lon="6.85043">
        <ele>644.1</ele>
        <time>2021-05-02T09:19:03.000Z</time>
      </trkpt>
      <trkpt lat="43.6708" lon="6.85043">
        <ele>643.7</ele>
        <time>2021-05-02T09:19:04.000Z</time>
      </trkpt>
      <trkpt lat="43.67082" lon="6.85043">
        <ele>643.7</ele>
        <time>2021-05-02T09:19:05.000Z</time>
      </trkpt>
      <trkpt lat="43.67085" lon="6.85043">
        <ele>643.6</ele>
        <time>2021-05-02T09:19:06.000Z</time>
      </trkpt>
      <trkpt lat="43.67087" lon="6.85044">
        <ele>643.4</ele>
        <time>2021-05-02T09:19:07.000Z</time>
      </trkpt>
      <trkpt lat="43.6709" lon="6.85044">
        <ele>643.3</ele>
        <time>2021-05-02T09:19:08.000Z</time>
      </trkpt>
      <trkpt lat="43.67092" lon="6.85044">
        <ele>643.3</ele>
        <time>2021-05-02T09:19:09.000Z</time>
      </trkpt>
      <trkpt lat="43.67094" lon="6.85045">
        <ele>643.2</ele>
        <time>2021-05-02T09:19:10.000Z</time>
      </trkpt>
      <trkpt lat="43.67096" lon="6.85046">
        <ele>643.2</ele>
        <time>2021-05-02T09:19:11.000Z</time>
      </trkpt>
      <trkpt lat="43.67097" lon="6.85047">
        <ele>643.1</ele>
        <time>2021-05-02T09:19:12.000Z</time>
      </trkpt>
      <trkpt lat="43.67099" lon="6.85049">
        <ele>642.8</ele>
        <time>2021-05-02T09:19:13.000Z</time>
      </trkpt>
      <trkpt lat="43.671" lon="6.85051">
        <ele>642.4</ele>
        <time>2021-05-02T09:19:14.000Z</time>
      </trkpt>
      <trkpt lat="43.67102" lon="6.85053">
        <ele>641.8</ele>
        <time>2021-05-02T09:19:15.000Z</time>
      </trkpt>
      <trkpt lat="43.67103" lon="6.85055">
        <ele>640.6</ele>
        <time>2021-05-02T09:19:16.000Z</time>
      </trkpt>
      <trkpt lat="43.67105" lon="6.85057">
        <ele>639.5</ele>
        <time>2021-05-02T09:19:17.000Z</time>
      </trkpt>
      <trkpt lat="43.67106" lon="6.85059">
        <ele>638.9</ele>
        <time>2021-05-02T09:19:18.000Z</time>
      </trkpt>
      <trkpt lat="43.67108" lon="6.8506">
        <ele>637.9</ele>
        <time>2021-05-02T09:19:19.000Z</time>
      </trkpt>
      <trkpt lat="43.6711" lon="6.8506">
        <ele>637.2</ele>
        <time>2021-05-02T09:19:20.000Z</time>
      </trkpt>
      <trkpt lat="43.67111" lon="6.85061">
        <ele>637.3</ele>
        <time>2021-05-02T09:19:21.000Z</time>
      </trkpt>
      <trkpt lat="43.67113" lon="6.85062">
        <ele>637.4</ele>
        <time>2021-05-02T09:19:22.000Z</time>
      </trkpt>
      <trkpt lat="43.67115" lon="6.85063">
        <ele>637.5</ele>
        <time>2021-05-02T09:19:23.000Z</time>
      </trkpt>
      <trkpt lat="43.67116" lon="6.85063">
        <ele>637.9</ele>
        <time>2021-05-02T09:19:24.000Z</time>
      </trkpt>
      <trkpt lat="43.67118" lon="6.85063">
        <ele>637.8</ele>
        <time>2021-05-02T09:19:25.000Z</time>
      </trkpt>
      <trkpt lat="43.67119" lon="6.85063">
        <ele>638</ele>
        <time>2021-05-02T09:19:26.000Z</time>
      </trkpt>
      <trkpt lat="43.6712" lon="6.85063">
        <ele>637.7</ele>
        <time>2021-05-02T09:19:27.000Z</time>
      </trkpt>
      <trkpt lat="43.67122" lon="6.85064">
        <ele>637.3</ele>
        <time>2021-05-02T09:19:29.000Z</time>
      </trkpt>
      <trkpt lat="43.67123" lon="6.85064">
        <ele>637.2</ele>
        <time>2021-05-02T09:19:30.000Z</time>
      </trkpt>
      <trkpt lat="43.67124" lon="6.85065">
        <ele>637.2</ele>
        <time>2021-05-02T09:19:32.000Z</time>
      </trkpt>
      <trkpt lat="43.67125" lon="6.85066">
        <ele>637.2</ele>
        <time>2021-05-02T09:19:33.000Z</time>
      </trkpt>
      <trkpt lat="43.67126" lon="6.85067">
        <ele>637.3</ele>
        <time>2021-05-02T09:19:34.000Z</time>
      </trkpt>
      <trkpt lat="43.67136" lon="6.85066">
        <ele>636.7</ele>
        <time>2021-05-02T09:19:51.000Z</time>
      </trkpt>
      <trkpt lat="43.6714" lon="6.8507">
        <ele>636.6</ele>
        <time>2021-05-02T09:20:08.000Z</time>
      </trkpt>
      <trkpt lat="43.67141" lon="6.85071">
        <ele>636.7</ele>
        <time>2021-05-02T09:20:09.000Z</time>
      </trkpt>
      <trkpt lat="43.67142" lon="6.85073">
        <ele>636.7</ele>
        <time>2021-05-02T09:20:10.000Z</time>
      </trkpt>
      <trkpt lat="43.67143" lon="6.85075">
        <ele>636.7</ele>
        <time>2021-05-02T09:20:11.000Z</time>
      </trkpt>
      <trkpt lat="43.67144" lon="6.85077">
        <ele>636.8</ele>
        <time>2021-05-02T09:20:12.000Z</time>
      </trkpt>
      <trkpt lat="43.67146" lon="6.85078">
        <ele>636.9</ele>
        <time>2021-05-02T09:20:13.000Z</time>
      </trkpt>
      <trkpt lat="43.67147" lon="6.8508">
        <ele>637.1</ele>
        <time>2021-05-02T09:20:14.000Z</time>
      </trkpt>
      <trkpt lat="43.67149" lon="6.85082">
        <ele>637.3</ele>
        <time>2021-05-02T09:20:15.000Z</time>
      </trkpt>
      <trkpt lat="43.6715" lon="6.85083">
        <ele>637.3</ele>
        <time>2021-05-02T09:20:16.000Z</time>
      </trkpt>
      <trkpt lat="43.67152" lon="6.85084">
        <ele>637.4</ele>
        <time>2021-05-02T09:20:17.000Z</time>
      </trkpt>
      <trkpt lat="43.67154" lon="6.85084">
        <ele>637.8</ele>
        <time>2021-05-02T09:20:18.000Z</time>
      </trkpt>
      <trkpt lat="43.67156" lon="6.85084">
        <ele>638.1</ele>
        <time>2021-05-02T09:20:19.000Z</time>
      </trkpt>
      <trkpt lat="43.67157" lon="6.85084">
        <ele>638.3</ele>
        <time>2021-05-02T09:20:20.000Z</time>
      </trkpt>
      <trkpt lat="43.67159" lon="6.85085">
        <ele>638.7</ele>
        <time>2021-05-02T09:20:21.000Z</time>
      </trkpt>
      <trkpt lat="43.6716" lon="6.85085">
        <ele>639.1</ele>
        <time>2021-05-02T09:20:22.000Z</time>
      </trkpt>
      <trkpt lat="43.67162" lon="6.85084">
        <ele>639.5</ele>
        <time>2021-05-02T09:20:23.000Z</time>
      </trkpt>
      <trkpt lat="43.67163" lon="6.85084">
        <ele>639.8</ele>
        <time>2021-05-02T09:20:24.000Z</time>
      </trkpt>
      <trkpt lat="43.67165" lon="6.85085">
        <ele>640</ele>
        <time>2021-05-02T09:20:25.000Z</time>
      </trkpt>
      <trkpt lat="43.67166" lon="6.85085">
        <ele>640.4</ele>
        <time>2021-05-02T09:20:26.000Z</time>
      </trkpt>
      <trkpt lat="43.67168" lon="6.85085">
        <ele>640.8</ele>
        <time>2021-05-02T09:20:27.000Z</time>
      </trkpt>
      <trkpt lat="43.6717" lon="6.85086">
        <ele>641.1</ele>
        <time>2021-05-02T09:20:28.000Z</time>
      </trkpt>
      <trkpt lat="43.67171" lon="6.85087">
        <ele>641.3</ele>
        <time>2021-05-02T09:20:29.000Z</time>
      </trkpt>
      <trkpt lat="43.67174" lon="6.85087">
        <ele>641.7</ele>
        <time>2021-05-02T09:20:30.000Z</time>
      </trkpt>
      <trkpt lat="43.67176" lon="6.85088">
        <ele>642.3</ele>
        <time>2021-05-02T09:20:31.000Z</time>
      </trkpt>
      <trkpt lat="43.67177" lon="6.85087">
        <ele>642.7</ele>
        <time>2021-05-02T09:20:32.000Z</time>
      </trkpt>
      <trkpt lat="43.6718" lon="6.85087">
        <ele>643.2</ele>
        <time>2021-05-02T09:20:33.000Z</time>
      </trkpt>
      <trkpt lat="43.67181" lon="6.85086">
        <ele>643.9</ele>
        <time>2021-05-02T09:20:34.000Z</time>
      </trkpt>
      <trkpt lat="43.67184" lon="6.85085">
        <ele>644.6</ele>
        <time>2021-05-02T09:20:35.000Z</time>
      </trkpt>
      <trkpt lat="43.67186" lon="6.85085">
        <ele>645.3</ele>
        <time>2021-05-02T09:20:36.000Z</time>
      </trkpt>
      <trkpt lat="43.67188" lon="6.85084">
        <ele>646.2</ele>
        <time>2021-05-02T09:20:37.000Z</time>
      </trkpt>
      <trkpt lat="43.67189" lon="6.85084">
        <ele>646.5</ele>
        <time>2021-05-02T09:20:38.000Z</time>
      </trkpt>
      <trkpt lat="43.67191" lon="6.85083">
        <ele>646.9</ele>
        <time>2021-05-02T09:20:39.000Z</time>
      </trkpt>
      <trkpt lat="43.67193" lon="6.85083">
        <ele>647.6</ele>
        <time>2021-05-02T09:20:40.000Z</time>
      </trkpt>
      <trkpt lat="43.67195" lon="6.85082">
        <ele>648</ele>
        <time>2021-05-02T09:20:41.000Z</time>
      </trkpt>
      <trkpt lat="43.67197" lon="6.8508">
        <ele>648.7</ele>
        <time>2021-05-02T09:20:42.000Z</time>
      </trkpt>
      <trkpt lat="43.67198" lon="6.85078">
        <ele>649</ele>
        <time>2021-05-02T09:20:43.000Z</time>
      </trkpt>
      <trkpt lat="43.672" lon="6.85077">
        <ele>649.2</ele>
        <time>2021-05-02T09:20:44.000Z</time>
      </trkpt>
      <trkpt lat="43.67201" lon="6.85076">
        <ele>649.2</ele>
        <time>2021-05-02T09:20:45.000Z</time>
      </trkpt>
      <trkpt lat="43.67201" lon="6.85074">
        <ele>649.4</ele>
        <time>2021-05-02T09:20:46.000Z</time>
      </trkpt>
      <trkpt lat="43.67202" lon="6.85073">
        <ele>649.4</ele>
        <time>2021-05-02T09:20:47.000Z</time>
      </trkpt>
      <trkpt lat="43.67204" lon="6.85071">
        <ele>649.4</ele>
        <time>2021-05-02T09:20:48.000Z</time>
      </trkpt>
      <trkpt lat="43.67205" lon="6.85071">
        <ele>649.4</ele>
        <time>2021-05-02T09:20:49.000Z</time>
      </trkpt>
      <trkpt lat="43.67207" lon="6.8507">
        <ele>649</ele>
        <time>2021-05-02T09:20:50.000Z</time>
      </trkpt>
      <trkpt lat="43.67209" lon="6.8507">
        <ele>648.7</ele>
        <time>2021-05-02T09:20:51.000Z</time>
      </trkpt>
      <trkpt lat="43.67211" lon="6.85069">
        <ele>648.3</ele>
        <time>2021-05-02T09:20:52.000Z</time>
      </trkpt>
      <trkpt lat="43.67213" lon="6.85068">
        <ele>648.1</ele>
        <time>2021-05-02T09:20:53.000Z</time>
      </trkpt>
      <trkpt lat="43.67214" lon="6.85067">
        <ele>648.1</ele>
        <time>2021-05-02T09:20:54.000Z</time>
      </trkpt>
      <trkpt lat="43.67216" lon="6.85067">
        <ele>648.2</ele>
        <time>2021-05-02T09:20:55.000Z</time>
      </trkpt>
      <trkpt lat="43.67217" lon="6.85067">
        <ele>648.2</ele>
        <time>2021-05-02T09:20:56.000Z</time>
      </trkpt>
      <trkpt lat="43.67218" lon="6.85066">
        <ele>648</ele>
        <time>2021-05-02T09:20:57.000Z</time>
      </trkpt>
      <trkpt lat="43.6722" lon="6.85065">
        <ele>648</ele>
        <time>2021-05-02T09:20:58.000Z</time>
      </trkpt>
      <trkpt lat="43.67221" lon="6.85064">
        <ele>647.9</ele>
        <time>2021-05-02T09:20:59.000Z</time>
      </trkpt>
      <trkpt lat="43.67223" lon="6.85064">
        <ele>647.8</ele>
        <time>2021-05-02T09:21:00.000Z</time>
      </trkpt>
      <trkpt lat="43.67225" lon="6.85063">
        <ele>647.9</ele>
        <time>2021-05-02T09:21:01.000Z</time>
      </trkpt>
      <trkpt lat="43.67226" lon="6.85062">
        <ele>648.2</ele>
        <time>2021-05-02T09:21:02.000Z</time>
      </trkpt>
      <trkpt lat="43.67228" lon="6.85061">
        <ele>648.2</ele>
        <time>2021-05-02T09:21:03.000Z</time>
      </trkpt>
      <trkpt lat="43.6723" lon="6.8506">
        <ele>648.3</ele>
        <time>2021-05-02T09:21:04.000Z</time>
      </trkpt>
      <trkpt lat="43.67231" lon="6.85059">
        <ele>648.1</ele>
        <time>2021-05-02T09:21:05.000Z</time>
      </trkpt>
      <trkpt lat="43.67232" lon="6.85057">
        <ele>648.2</ele>
        <time>2021-05-02T09:21:06.000Z</time>
      </trkpt>
      <trkpt lat="43.67234" lon="6.85056">
        <ele>648.4</ele>
        <time>2021-05-02T09:21:07.000Z</time>
      </trkpt>
      <trkpt lat="43.67235" lon="6.85056">
        <ele>648.6</ele>
        <time>2021-05-02T09:21:08.000Z</time>
      </trkpt>
      <trkpt lat="43.67237" lon="6.85056">
        <ele>648.9</ele>
        <time>2021-05-02T09:21:09.000Z</time>
      </trkpt>
      <trkpt lat="43.67238" lon="6.85056">
        <ele>649</ele>
        <time>2021-05-02T09:21:11.000Z</time>
      </trkpt>
      <trkpt lat="43.67242" lon="6.85053">
        <ele>647.7</ele>
        <time>2021-05-02T09:21:18.000Z</time>
      </trkpt>
      <trkpt lat="43.67244" lon="6.85053">
        <ele>647.4</ele>
        <time>2021-05-02T09:21:19.000Z</time>
      </trkpt>
      <trkpt lat="43.67246" lon="6.85052">
        <ele>647.1</ele>
        <time>2021-05-02T09:21:20.000Z</time>
      </trkpt>
      <trkpt lat="43.67248" lon="6.85051">
        <ele>646.8</ele>
        <time>2021-05-02T09:21:21.000Z</time>
      </trkpt>
      <trkpt lat="43.67251" lon="6.85051">
        <ele>646.5</ele>
        <time>2021-05-02T09:21:22.000Z</time>
      </trkpt>
      <trkpt lat="43.67253" lon="6.85051">
        <ele>646.3</ele>
        <time>2021-05-02T09:21:23.000Z</time>
      </trkpt>
      <trkpt lat="43.67255" lon="6.85051">
        <ele>646.1</ele>
        <time>2021-05-02T09:21:24.000Z</time>
      </trkpt>
      <trkpt lat="43.67256" lon="6.85051">
        <ele>645.9</ele>
        <time>2021-05-02T09:21:25.000Z</time>
      </trkpt>
      <trkpt lat="43.67258" lon="6.85051">
        <ele>645.9</ele>
        <time>2021-05-02T09:21:26.000Z</time>
      </trkpt>
      <trkpt lat="43.6726" lon="6.85051">
        <ele>645.7</ele>
        <time>2021-05-02T09:21:27.000Z</time>
      </trkpt>
      <trkpt lat="43.67261" lon="6.85052">
        <ele>645.6</ele>
        <time>2021-05-02T09:21:28.000Z</time>
      </trkpt>
      <trkpt lat="43.67262" lon="6.85052">
        <ele>645.4</ele>
        <time>2021-05-02T09:21:29.000Z</time>
      </trkpt>
      <trkpt lat="43.67264" lon="6.85053">
        <ele>645.4</ele>
        <time>2021-05-02T09:21:30.000Z</time>
      </trkpt>
      <trkpt lat="43.67265" lon="6.85053">
        <ele>645.2</ele>
        <time>2021-05-02T09:21:31.000Z</time>
      </trkpt>
      <trkpt lat="43.67267" lon="6.85054">
        <ele>645</ele>
        <time>2021-05-02T09:21:32.000Z</time>
      </trkpt>
      <trkpt lat="43.67269" lon="6.85055">
        <ele>644.8</ele>
        <time>2021-05-02T09:21:33.000Z</time>
      </trkpt>
      <trkpt lat="43.67271" lon="6.85056">
        <ele>644.6</ele>
        <time>2021-05-02T09:21:34.000Z</time>
      </trkpt>
      <trkpt lat="43.67272" lon="6.85056">
        <ele>644.5</ele>
        <time>2021-05-02T09:21:35.000Z</time>
      </trkpt>
      <trkpt lat="43.67274" lon="6.85057">
        <ele>644.4</ele>
        <time>2021-05-02T09:21:36.000Z</time>
      </trkpt>
      <trkpt lat="43.67276" lon="6.85057">
        <ele>644.6</ele>
        <time>2021-05-02T09:21:37.000Z</time>
      </trkpt>
      <trkpt lat="43.67279" lon="6.85057">
        <ele>644.8</ele>
        <time>2021-05-02T09:21:38.000Z</time>
      </trkpt>
      <trkpt lat="43.67282" lon="6.85056">
        <ele>644.9</ele>
        <time>2021-05-02T09:21:39.000Z</time>
      </trkpt>
      <trkpt lat="43.67284" lon="6.85056">
        <ele>644.7</ele>
        <time>2021-05-02T09:21:40.000Z</time>
      </trkpt>
      <trkpt lat="43.67286" lon="6.85055">
        <ele>645</ele>
        <time>2021-05-02T09:21:41.000Z</time>
      </trkpt>
      <trkpt lat="43.67288" lon="6.85054">
        <ele>645.1</ele>
        <time>2021-05-02T09:21:42.000Z</time>
      </trkpt>
      <trkpt lat="43.6729" lon="6.85054">
        <ele>645.7</ele>
        <time>2021-05-02T09:21:43.000Z</time>
      </trkpt>
      <trkpt lat="43.67292" lon="6.85053">
        <ele>646.7</ele>
        <time>2021-05-02T09:21:44.000Z</time>
      </trkpt>
      <trkpt lat="43.67294" lon="6.85052">
        <ele>647</ele>
        <time>2021-05-02T09:21:45.000Z</time>
      </trkpt>
      <trkpt lat="43.67295" lon="6.8505">
        <ele>647.4</ele>
        <time>2021-05-02T09:21:46.000Z</time>
      </trkpt>
      <trkpt lat="43.67297" lon="6.85049">
        <ele>647.5</ele>
        <time>2021-05-02T09:21:47.000Z</time>
      </trkpt>
      <trkpt lat="43.67298" lon="6.85048">
        <ele>647.7</ele>
        <time>2021-05-02T09:21:48.000Z</time>
      </trkpt>
      <trkpt lat="43.673" lon="6.85047">
        <ele>648.2</ele>
        <time>2021-05-02T09:21:49.000Z</time>
      </trkpt>
      <trkpt lat="43.67302" lon="6.85046">
        <ele>648.6</ele>
        <time>2021-05-02T09:21:50.000Z</time>
      </trkpt>
      <trkpt lat="43.67304" lon="6.85045">
        <ele>648.8</ele>
        <time>2021-05-02T09:21:51.000Z</time>
      </trkpt>
      <trkpt lat="43.67306" lon="6.85044">
        <ele>648.9</ele>
        <time>2021-05-02T09:21:52.000Z</time>
      </trkpt>
      <trkpt lat="43.67308" lon="6.85043">
        <ele>649</ele>
        <time>2021-05-02T09:21:53.000Z</time>
      </trkpt>
      <trkpt lat="43.67309" lon="6.85042">
        <ele>648.9</ele>
        <time>2021-05-02T09:21:54.000Z</time>
      </trkpt>
      <trkpt lat="43.67311" lon="6.85042">
        <ele>648.5</ele>
        <time>2021-05-02T09:21:55.000Z</time>
      </trkpt>
      <trkpt lat="43.67313" lon="6.85042">
        <ele>648</ele>
        <time>2021-05-02T09:21:56.000Z</time>
      </trkpt>
      <trkpt lat="43.67314" lon="6.85041">
        <ele>648.3</ele>
        <time>2021-05-02T09:21:57.000Z</time>
      </trkpt>
      <trkpt lat="43.67315" lon="6.85041">
        <ele>648.8</ele>
        <time>2021-05-02T09:21:58.000Z</time>
      </trkpt>
      <trkpt lat="43.67317" lon="6.85041">
        <ele>648.8</ele>
        <time>2021-05-02T09:21:59.000Z</time>
      </trkpt>
      <trkpt lat="43.67319" lon="6.85041">
        <ele>648.8</ele>
        <time>2021-05-02T09:22:00.000Z</time>
      </trkpt>
      <trkpt lat="43.67321" lon="6.85041">
        <ele>648.6</ele>
        <time>2021-05-02T09:22:01.000Z</time>
      </trkpt>
      <trkpt lat="43.67323" lon="6.85041">
        <ele>648.6</ele>
        <time>2021-05-02T09:22:02.000Z</time>
      </trkpt>
      <trkpt lat="43.67325" lon="6.85041">
        <ele>648.9</ele>
        <time>2021-05-02T09:22:03.000Z</time>
      </trkpt>
      <trkpt lat="43.67327" lon="6.85041">
        <ele>649</ele>
        <time>2021-05-02T09:22:04.000Z</time>
      </trkpt>
      <trkpt lat="43.67329" lon="6.85042">
        <ele>649</ele>
        <time>2021-05-02T09:22:05.000Z</time>
      </trkpt>
      <trkpt lat="43.6733" lon="6.85041">
        <ele>648.9</ele>
        <time>2021-05-02T09:22:06.000Z</time>
      </trkpt>
      <trkpt lat="43.67332" lon="6.85041">
        <ele>648.8</ele>
        <time>2021-05-02T09:22:07.000Z</time>
      </trkpt>
      <trkpt lat="43.67334" lon="6.8504">
        <ele>649</ele>
        <time>2021-05-02T09:22:08.000Z</time>
      </trkpt>
      <trkpt lat="43.67336" lon="6.8504">
        <ele>649.2</ele>
        <time>2021-05-02T09:22:09.000Z</time>
      </trkpt>
      <trkpt lat="43.67338" lon="6.85039">
        <ele>649.3</ele>
        <time>2021-05-02T09:22:10.000Z</time>
      </trkpt>
      <trkpt lat="43.67339" lon="6.85038">
        <ele>649.2</ele>
        <time>2021-05-02T09:22:11.000Z</time>
      </trkpt>
      <trkpt lat="43.67341" lon="6.85037">
        <ele>648.9</ele>
        <time>2021-05-02T09:22:12.000Z</time>
      </trkpt>
      <trkpt lat="43.67343" lon="6.85036">
        <ele>648.8</ele>
        <time>2021-05-02T09:22:13.000Z</time>
      </trkpt>
      <trkpt lat="43.67345" lon="6.85035">
        <ele>648.9</ele>
        <time>2021-05-02T09:22:14.000Z</time>
      </trkpt>
      <trkpt lat="43.67346" lon="6.85034">
        <ele>648.9</ele>
        <time>2021-05-02T09:22:15.000Z</time>
      </trkpt>
      <trkpt lat="43.67348" lon="6.85032">
        <ele>648.9</ele>
        <time>2021-05-02T09:22:16.000Z</time>
      </trkpt>
      <trkpt lat="43.67349" lon="6.85031">
        <ele>648.7</ele>
        <time>2021-05-02T09:22:17.000Z</time>
      </trkpt>
      <trkpt lat="43.6735" lon="6.8503">
        <ele>648.4</ele>
        <time>2021-05-02T09:22:18.000Z</time>
      </trkpt>
      <trkpt lat="43.67351" lon="6.85028">
        <ele>648.4</ele>
        <time>2021-05-02T09:22:19.000Z</time>
      </trkpt>
      <trkpt lat="43.67352" lon="6.85026">
        <ele>648.4</ele>
        <time>2021-05-02T09:22:20.000Z</time>
      </trkpt>
      <trkpt lat="43.67354" lon="6.85025">
        <ele>648.7</ele>
        <time>2021-05-02T09:22:21.000Z</time>
      </trkpt>
      <trkpt lat="43.67355" lon="6.85023">
        <ele>648.9</ele>
        <time>2021-05-02T09:22:22.000Z</time>
      </trkpt>
      <trkpt lat="43.67356" lon="6.85022">
        <ele>648.9</ele>
        <time>2021-05-02T09:22:23.000Z</time>
      </trkpt>
      <trkpt lat="43.67357" lon="6.8502">
        <ele>649.4</ele>
        <time>2021-05-02T09:22:25.000Z</time>
      </trkpt>
      <trkpt lat="43.67358" lon="6.8502">
        <ele>649.6</ele>
        <time>2021-05-02T09:22:26.000Z</time>
      </trkpt>
      <trkpt lat="43.67359" lon="6.8502">
        <ele>649.8</ele>
        <time>2021-05-02T09:22:27.000Z</time>
      </trkpt>
      <trkpt lat="43.67361" lon="6.85019">
        <ele>650</ele>
        <time>2021-05-02T09:22:28.000Z</time>
      </trkpt>
      <trkpt lat="43.67363" lon="6.85018">
        <ele>650.1</ele>
        <time>2021-05-02T09:22:29.000Z</time>
      </trkpt>
      <trkpt lat="43.67364" lon="6.85018">
        <ele>650.2</ele>
        <time>2021-05-02T09:22:30.000Z</time>
      </trkpt>
      <trkpt lat="43.67367" lon="6.85018">
        <ele>650.1</ele>
        <time>2021-05-02T09:22:31.000Z</time>
      </trkpt>
      <trkpt lat="43.67368" lon="6.85018">
        <ele>650</ele>
        <time>2021-05-02T09:22:32.000Z</time>
      </trkpt>
      <trkpt lat="43.6737" lon="6.85018">
        <ele>650.1</ele>
        <time>2021-05-02T09:22:33.000Z</time>
      </trkpt>
      <trkpt lat="43.67372" lon="6.85018">
        <ele>650.2</ele>
        <time>2021-05-02T09:22:34.000Z</time>
      </trkpt>
      <trkpt lat="43.67373" lon="6.85017">
        <ele>650.4</ele>
        <time>2021-05-02T09:22:35.000Z</time>
      </trkpt>
      <trkpt lat="43.67375" lon="6.85017">
        <ele>650.4</ele>
        <time>2021-05-02T09:22:36.000Z</time>
      </trkpt>
      <trkpt lat="43.67376" lon="6.85017">
        <ele>650.4</ele>
        <time>2021-05-02T09:22:37.000Z</time>
      </trkpt>
      <trkpt lat="43.67377" lon="6.85017">
        <ele>650.5</ele>
        <time>2021-05-02T09:22:38.000Z</time>
      </trkpt>
      <trkpt lat="43.67378" lon="6.85017">
        <ele>650.6</ele>
        <time>2021-05-02T09:22:39.000Z</time>
      </trkpt>
      <trkpt lat="43.6738" lon="6.85016">
        <ele>650.7</ele>
        <time>2021-05-02T09:22:40.000Z</time>
      </trkpt>
      <trkpt lat="43.67381" lon="6.85016">
        <ele>651.2</ele>
        <time>2021-05-02T09:22:41.000Z</time>
      </trkpt>
      <trkpt lat="43.67383" lon="6.85014">
        <ele>651.6</ele>
        <time>2021-05-02T09:22:42.000Z</time>
      </trkpt>
      <trkpt lat="43.67384" lon="6.85013">
        <ele>652</ele>
        <time>2021-05-02T09:22:43.000Z</time>
      </trkpt>
      <trkpt lat="43.67385" lon="6.85012">
        <ele>652.6</ele>
        <time>2021-05-02T09:22:44.000Z</time>
      </trkpt>
      <trkpt lat="43.67387" lon="6.85011">
        <ele>652.9</ele>
        <time>2021-05-02T09:22:45.000Z</time>
      </trkpt>
      <trkpt lat="43.67388" lon="6.8501">
        <ele>653.1</ele>
        <time>2021-05-02T09:22:46.000Z</time>
      </trkpt>
      <trkpt lat="43.67389" lon="6.85009">
        <ele>653.2</ele>
        <time>2021-05-02T09:22:47.000Z</time>
      </trkpt>
      <trkpt lat="43.6739" lon="6.85007">
        <ele>652.8</ele>
        <time>2021-05-02T09:22:48.000Z</time>
      </trkpt>
      <trkpt lat="43.67392" lon="6.85006">
        <ele>652.6</ele>
        <time>2021-05-02T09:22:49.000Z</time>
      </trkpt>
      <trkpt lat="43.67394" lon="6.85004">
        <ele>652.3</ele>
        <time>2021-05-02T09:22:50.000Z</time>
      </trkpt>
      <trkpt lat="43.67395" lon="6.85002">
        <ele>652.4</ele>
        <time>2021-05-02T09:22:51.000Z</time>
      </trkpt>
      <trkpt lat="43.67397" lon="6.85001">
        <ele>652.5</ele>
        <time>2021-05-02T09:22:52.000Z</time>
      </trkpt>
      <trkpt lat="43.67398" lon="6.84999">
        <ele>652.5</ele>
        <time>2021-05-02T09:22:53.000Z</time>
      </trkpt>
      <trkpt lat="43.67399" lon="6.84997">
        <ele>652.7</ele>
        <time>2021-05-02T09:22:54.000Z</time>
      </trkpt>
      <trkpt lat="43.674" lon="6.84995">
        <ele>652.8</ele>
        <time>2021-05-02T09:22:55.000Z</time>
      </trkpt>
      <trkpt lat="43.67401" lon="6.84993">
        <ele>653.1</ele>
        <time>2021-05-02T09:22:56.000Z</time>
      </trkpt>
      <trkpt lat="43.67402" lon="6.84991">
        <ele>653.3</ele>
        <time>2021-05-02T09:22:57.000Z</time>
      </trkpt>
      <trkpt lat="43.67404" lon="6.8499">
        <ele>653.6</ele>
        <time>2021-05-02T09:22:58.000Z</time>
      </trkpt>
      <trkpt lat="43.67405" lon="6.84988">
        <ele>654</ele>
        <time>2021-05-02T09:22:59.000Z</time>
      </trkpt>
      <trkpt lat="43.67407" lon="6.84987">
        <ele>654.4</ele>
        <time>2021-05-02T09:23:00.000Z</time>
      </trkpt>
      <trkpt lat="43.67409" lon="6.84986">
        <ele>654.5</ele>
        <time>2021-05-02T09:23:01.000Z</time>
      </trkpt>
      <trkpt lat="43.67411" lon="6.84985">
        <ele>655</ele>
        <time>2021-05-02T09:23:02.000Z</time>
      </trkpt>
      <trkpt lat="43.67412" lon="6.84984">
        <ele>655.4</ele>
        <time>2021-05-02T09:23:03.000Z</time>
      </trkpt>
      <trkpt lat="43.67414" lon="6.84983">
        <ele>655.9</ele>
        <time>2021-05-02T09:23:04.000Z</time>
      </trkpt>
      <trkpt lat="43.67416" lon="6.84982">
        <ele>656.2</ele>
        <time>2021-05-02T09:23:05.000Z</time>
      </trkpt>
      <trkpt lat="43.67418" lon="6.84981">
        <ele>656.4</ele>
        <time>2021-05-02T09:23:06.000Z</time>
      </trkpt>
      <trkpt lat="43.6742" lon="6.84979">
        <ele>656.7</ele>
        <time>2021-05-02T09:23:07.000Z</time>
      </trkpt>
      <trkpt lat="43.67421" lon="6.84977">
        <ele>657</ele>
        <time>2021-05-02T09:23:08.000Z</time>
      </trkpt>
      <trkpt lat="43.67421" lon="6.84975">
        <ele>656.8</ele>
        <time>2021-05-02T09:23:09.000Z</time>
      </trkpt>
      <trkpt lat="43.67422" lon="6.84972">
        <ele>657.2</ele>
        <time>2021-05-02T09:23:10.000Z</time>
      </trkpt>
      <trkpt lat="43.67423" lon="6.8497">
        <ele>657.3</ele>
        <time>2021-05-02T09:23:11.000Z</time>
      </trkpt>
      <trkpt lat="43.67424" lon="6.84967">
        <ele>657.1</ele>
        <time>2021-05-02T09:23:12.000Z</time>
      </trkpt>
      <trkpt lat="43.67424" lon="6.84964">
        <ele>656.9</ele>
        <time>2021-05-02T09:23:13.000Z</time>
      </trkpt>
      <trkpt lat="43.67423" lon="6.84961">
        <ele>656.8</ele>
        <time>2021-05-02T09:23:14.000Z</time>
      </trkpt>
      <trkpt lat="43.67421" lon="6.84958">
        <ele>656.4</ele>
        <time>2021-05-02T09:23:15.000Z</time>
      </trkpt>
      <trkpt lat="43.6742" lon="6.84955">
        <ele>656.1</ele>
        <time>2021-05-02T09:23:16.000Z</time>
      </trkpt>
      <trkpt lat="43.67418" lon="6.84953">
        <ele>656</ele>
        <time>2021-05-02T09:23:17.000Z</time>
      </trkpt>
      <trkpt lat="43.67416" lon="6.8495">
        <ele>656.5</ele>
        <time>2021-05-02T09:23:18.000Z</time>
      </trkpt>
      <trkpt lat="43.67414" lon="6.84947">
        <ele>656.5</ele>
        <time>2021-05-02T09:23:19.000Z</time>
      </trkpt>
      <trkpt lat="43.67413" lon="6.84945">
        <ele>656.2</ele>
        <time>2021-05-02T09:23:20.000Z</time>
      </trkpt>
      <trkpt lat="43.67413" lon="6.84943">
        <ele>655.9</ele>
        <time>2021-05-02T09:23:21.000Z</time>
      </trkpt>
      <trkpt lat="43.67411" lon="6.8494">
        <ele>655.6</ele>
        <time>2021-05-02T09:23:22.000Z</time>
      </trkpt>
      <trkpt lat="43.6741" lon="6.84938">
        <ele>655.6</ele>
        <time>2021-05-02T09:23:23.000Z</time>
      </trkpt>
      <trkpt lat="43.67409" lon="6.84935">
        <ele>656</ele>
        <time>2021-05-02T09:23:24.000Z</time>
      </trkpt>
      <trkpt lat="43.67407" lon="6.84933">
        <ele>656.6</ele>
        <time>2021-05-02T09:23:25.000Z</time>
      </trkpt>
      <trkpt lat="43.67406" lon="6.84932">
        <ele>656.4</ele>
        <time>2021-05-02T09:23:26.000Z</time>
      </trkpt>
      <trkpt lat="43.67406" lon="6.8493">
        <ele>656</ele>
        <time>2021-05-02T09:23:27.000Z</time>
      </trkpt>
      <trkpt lat="43.67405" lon="6.84929">
        <ele>655.7</ele>
        <time>2021-05-02T09:23:28.000Z</time>
      </trkpt>
      <trkpt lat="43.67405" lon="6.84927">
        <ele>655.9</ele>
        <time>2021-05-02T09:23:29.000Z</time>
      </trkpt>
      <trkpt lat="43.67404" lon="6.84925">
        <ele>656.1</ele>
        <time>2021-05-02T09:23:30.000Z</time>
      </trkpt>
      <trkpt lat="43.67404" lon="6.84924">
        <ele>656.2</ele>
        <time>2021-05-02T09:23:31.000Z</time>
      </trkpt>
      <trkpt lat="43.67404" lon="6.84922">
        <ele>656.2</ele>
        <time>2021-05-02T09:23:32.000Z</time>
      </trkpt>
      <trkpt lat="43.67403" lon="6.8492">
        <ele>656.2</ele>
        <time>2021-05-02T09:23:33.000Z</time>
      </trkpt>
      <trkpt lat="43.67402" lon="6.84918">
        <ele>656.8</ele>
        <time>2021-05-02T09:23:34.000Z</time>
      </trkpt>
      <trkpt lat="43.67401" lon="6.84916">
        <ele>657.1</ele>
        <time>2021-05-02T09:23:35.000Z</time>
      </trkpt>
      <trkpt lat="43.67401" lon="6.84915">
        <ele>657.4</ele>
        <time>2021-05-02T09:23:36.000Z</time>
      </trkpt>
      <trkpt lat="43.67398" lon="6.84901">
        <ele>655.5</ele>
        <time>2021-05-02T09:23:53.000Z</time>
      </trkpt>
      <trkpt lat="43.67399" lon="6.849">
        <ele>655.5</ele>
        <time>2021-05-02T09:23:54.000Z</time>
      </trkpt>
      <trkpt lat="43.674" lon="6.84899">
        <ele>655.4</ele>
        <time>2021-05-02T09:23:55.000Z</time>
      </trkpt>
      <trkpt lat="43.67401" lon="6.84898">
        <ele>655.3</ele>
        <time>2021-05-02T09:23:56.000Z</time>
      </trkpt>
      <trkpt lat="43.67404" lon="6.84895">
        <ele>655.7</ele>
        <time>2021-05-02T09:23:58.000Z</time>
      </trkpt>
      <trkpt lat="43.67405" lon="6.84894">
        <ele>656</ele>
        <time>2021-05-02T09:23:59.000Z</time>
      </trkpt>
      <trkpt lat="43.67407" lon="6.84894">
        <ele>656</ele>
        <time>2021-05-02T09:24:00.000Z</time>
      </trkpt>
      <trkpt lat="43.67408" lon="6.84894">
        <ele>656</ele>
        <time>2021-05-02T09:24:01.000Z</time>
      </trkpt>
      <trkpt lat="43.67409" lon="6.84895">
        <ele>656.2</ele>
        <time>2021-05-02T09:24:02.000Z</time>
      </trkpt>
      <trkpt lat="43.6741" lon="6.84895">
        <ele>656</ele>
        <time>2021-05-02T09:24:03.000Z</time>
      </trkpt>
      <trkpt lat="43.67412" lon="6.84895">
        <ele>656</ele>
        <time>2021-05-02T09:24:04.000Z</time>
      </trkpt>
      <trkpt lat="43.67414" lon="6.84895">
        <ele>656.2</ele>
        <time>2021-05-02T09:24:05.000Z</time>
      </trkpt>
      <trkpt lat="43.67415" lon="6.84894">
        <ele>656.1</ele>
        <time>2021-05-02T09:24:06.000Z</time>
      </trkpt>
      <trkpt lat="43.67416" lon="6.84894">
        <ele>656.4</ele>
        <time>2021-05-02T09:24:07.000Z</time>
      </trkpt>
      <trkpt lat="43.67418" lon="6.84894">
        <ele>656.6</ele>
        <time>2021-05-02T09:24:09.000Z</time>
      </trkpt>
      <trkpt lat="43.67427" lon="6.84891">
        <ele>658.2</ele>
        <time>2021-05-02T09:24:26.000Z</time>
      </trkpt>
      <trkpt lat="43.67428" lon="6.84891">
        <ele>658.2</ele>
        <time>2021-05-02T09:24:27.000Z</time>
      </trkpt>
      <trkpt lat="43.67429" lon="6.84892">
        <ele>658.3</ele>
        <time>2021-05-02T09:24:28.000Z</time>
      </trkpt>
      <trkpt lat="43.6743" lon="6.84893">
        <ele>658.4</ele>
        <time>2021-05-02T09:24:29.000Z</time>
      </trkpt>
      <trkpt lat="43.67432" lon="6.84894">
        <ele>658.4</ele>
        <time>2021-05-02T09:24:31.000Z</time>
      </trkpt>
      <trkpt lat="43.67436" lon="6.84894">
        <ele>658.5</ele>
        <time>2021-05-02T09:24:32.000Z</time>
      </trkpt>
      <trkpt lat="43.67438" lon="6.84894">
        <ele>658.4</ele>
        <time>2021-05-02T09:24:33.000Z</time>
      </trkpt>
      <trkpt lat="43.6744" lon="6.84893">
        <ele>658.5</ele>
        <time>2021-05-02T09:24:34.000Z</time>
      </trkpt>
      <trkpt lat="43.67442" lon="6.84893">
        <ele>658.8</ele>
        <time>2021-05-02T09:24:35.000Z</time>
      </trkpt>
      <trkpt lat="43.67444" lon="6.84893">
        <ele>659</ele>
        <time>2021-05-02T09:24:36.000Z</time>
      </trkpt>
      <trkpt lat="43.67446" lon="6.84893">
        <ele>658.9</ele>
        <time>2021-05-02T09:24:37.000Z</time>
      </trkpt>
      <trkpt lat="43.67448" lon="6.84892">
        <ele>658.9</ele>
        <time>2021-05-02T09:24:38.000Z</time>
      </trkpt>
      <trkpt lat="43.6745" lon="6.84892">
        <ele>659.1</ele>
        <time>2021-05-02T09:24:39.000Z</time>
      </trkpt>
      <trkpt lat="43.67452" lon="6.84893">
        <ele>659.4</ele>
        <time>2021-05-02T09:24:40.000Z</time>
      </trkpt>
      <trkpt lat="43.67453" lon="6.84893">
        <ele>660.4</ele>
        <time>2021-05-02T09:24:41.000Z</time>
      </trkpt>
      <trkpt lat="43.67455" lon="6.84893">
        <ele>660.9</ele>
        <time>2021-05-02T09:24:42.000Z</time>
      </trkpt>
      <trkpt lat="43.67457" lon="6.84893">
        <ele>661</ele>
        <time>2021-05-02T09:24:43.000Z</time>
      </trkpt>
      <trkpt lat="43.67458" lon="6.84893">
        <ele>661.1</ele>
        <time>2021-05-02T09:24:44.000Z</time>
      </trkpt>
      <trkpt lat="43.6746" lon="6.84894">
        <ele>661.6</ele>
        <time>2021-05-02T09:24:45.000Z</time>
      </trkpt>
      <trkpt lat="43.67461" lon="6.84894">
        <ele>662.1</ele>
        <time>2021-05-02T09:24:46.000Z</time>
      </trkpt>
      <trkpt lat="43.67463" lon="6.84895">
        <ele>662.4</ele>
        <time>2021-05-02T09:24:47.000Z</time>
      </trkpt>
      <trkpt lat="43.67465" lon="6.84895">
        <ele>662.5</ele>
        <time>2021-05-02T09:24:48.000Z</time>
      </trkpt>
      <trkpt lat="43.67467" lon="6.84896">
        <ele>662.7</ele>
        <time>2021-05-02T09:24:49.000Z</time>
      </trkpt>
      <trkpt lat="43.67469" lon="6.84896">
        <ele>662.5</ele>
        <time>2021-05-02T09:24:50.000Z</time>
      </trkpt>
      <trkpt lat="43.67471" lon="6.84896">
        <ele>662.7</ele>
        <time>2021-05-02T09:24:51.000Z</time>
      </trkpt>
      <trkpt lat="43.67473" lon="6.84897">
        <ele>662.8</ele>
        <time>2021-05-02T09:24:52.000Z</time>
      </trkpt>
      <trkpt lat="43.67476" lon="6.84896">
        <ele>663.1</ele>
        <time>2021-05-02T09:24:53.000Z</time>
      </trkpt>
      <trkpt lat="43.67478" lon="6.84894">
        <ele>663.4</ele>
        <time>2021-05-02T09:24:54.000Z</time>
      </trkpt>
      <trkpt lat="43.6748" lon="6.84893">
        <ele>663.9</ele>
        <time>2021-05-02T09:24:55.000Z</time>
      </trkpt>
      <trkpt lat="43.67482" lon="6.84892">
        <ele>664.1</ele>
        <time>2021-05-02T09:24:56.000Z</time>
      </trkpt>
      <trkpt lat="43.67484" lon="6.8489">
        <ele>664.7</ele>
        <time>2021-05-02T09:24:57.000Z</time>
      </trkpt>
      <trkpt lat="43.67486" lon="6.84888">
        <ele>665.2</ele>
        <time>2021-05-02T09:24:58.000Z</time>
      </trkpt>
      <trkpt lat="43.67487" lon="6.84887">
        <ele>666</ele>
        <time>2021-05-02T09:24:59.000Z</time>
      </trkpt>
      <trkpt lat="43.67489" lon="6.84885">
        <ele>667.1</ele>
        <time>2021-05-02T09:25:00.000Z</time>
      </trkpt>
      <trkpt lat="43.67491" lon="6.84884">
        <ele>667.9</ele>
        <time>2021-05-02T09:25:01.000Z</time>
      </trkpt>
      <trkpt lat="43.67493" lon="6.84882">
        <ele>668</ele>
        <time>2021-05-02T09:25:02.000Z</time>
      </trkpt>
      <trkpt lat="43.67496" lon="6.84882">
        <ele>668.2</ele>
        <time>2021-05-02T09:25:03.000Z</time>
      </trkpt>
      <trkpt lat="43.67498" lon="6.84881">
        <ele>668.4</ele>
        <time>2021-05-02T09:25:04.000Z</time>
      </trkpt>
      <trkpt lat="43.67501" lon="6.8488">
        <ele>668.5</ele>
        <time>2021-05-02T09:25:05.000Z</time>
      </trkpt>
      <trkpt lat="43.67503" lon="6.84879">
        <ele>668.6</ele>
        <time>2021-05-02T09:25:06.000Z</time>
      </trkpt>
      <trkpt lat="43.67506" lon="6.84877">
        <ele>668.4</ele>
        <time>2021-05-02T09:25:07.000Z</time>
      </trkpt>
      <trkpt lat="43.67508" lon="6.84875">
        <ele>668.3</ele>
        <time>2021-05-02T09:25:08.000Z</time>
      </trkpt>
      <trkpt lat="43.67511" lon="6.84873">
        <ele>668.7</ele>
        <time>2021-05-02T09:25:09.000Z</time>
      </trkpt>
      <trkpt lat="43.67513" lon="6.84871">
        <ele>668.8</ele>
        <time>2021-05-02T09:25:10.000Z</time>
      </trkpt>
      <trkpt lat="43.67514" lon="6.84869">
        <ele>668.3</ele>
        <time>2021-05-02T09:25:11.000Z</time>
      </trkpt>
      <trkpt lat="43.67515" lon="6.84866">
        <ele>667.6</ele>
        <time>2021-05-02T09:25:12.000Z</time>
      </trkpt>
      <trkpt lat="43.67517" lon="6.84863">
        <ele>667.6</ele>
        <time>2021-05-02T09:25:13.000Z</time>
      </trkpt>
      <trkpt lat="43.67519" lon="6.84861">
        <ele>667.4</ele>
        <time>2021-05-02T09:25:14.000Z</time>
      </trkpt>
      <trkpt lat="43.6752" lon="6.84858">
        <ele>667.7</ele>
        <time>2021-05-02T09:25:15.000Z</time>
      </trkpt>
      <trkpt lat="43.67523" lon="6.84856">
        <ele>667.7</ele>
        <time>2021-05-02T09:25:16.000Z</time>
      </trkpt>
      <trkpt lat="43.67525" lon="6.84854">
        <ele>667.8</ele>
        <time>2021-05-02T09:25:17.000Z</time>
      </trkpt>
      <trkpt lat="43.67527" lon="6.84853">
        <ele>667.8</ele>
        <time>2021-05-02T09:25:18.000Z</time>
      </trkpt>
      <trkpt lat="43.67529" lon="6.84852">
        <ele>667.8</ele>
        <time>2021-05-02T09:25:19.000Z</time>
      </trkpt>
      <trkpt lat="43.67531" lon="6.84852">
        <ele>668.3</ele>
        <time>2021-05-02T09:25:20.000Z</time>
      </trkpt>
      <trkpt lat="43.67533" lon="6.84851">
        <ele>669.1</ele>
        <time>2021-05-02T09:25:21.000Z</time>
      </trkpt>
      <trkpt lat="43.67536" lon="6.84851">
        <ele>669.3</ele>
        <time>2021-05-02T09:25:22.000Z</time>
      </trkpt>
      <trkpt lat="43.67539" lon="6.8485">
        <ele>669.2</ele>
        <time>2021-05-02T09:25:23.000Z</time>
      </trkpt>
      <trkpt lat="43.67542" lon="6.8485">
        <ele>669.1</ele>
        <time>2021-05-02T09:25:24.000Z</time>
      </trkpt>
      <trkpt lat="43.67544" lon="6.8485">
        <ele>668.6</ele>
        <time>2021-05-02T09:25:25.000Z</time>
      </trkpt>
      <trkpt lat="43.67546" lon="6.84851">
        <ele>667.8</ele>
        <time>2021-05-02T09:25:26.000Z</time>
      </trkpt>
      <trkpt lat="43.67549" lon="6.84851">
        <ele>667.6</ele>
        <time>2021-05-02T09:25:27.000Z</time>
      </trkpt>
      <trkpt lat="43.67553" lon="6.84852">
        <ele>667.7</ele>
        <time>2021-05-02T09:25:28.000Z</time>
      </trkpt>
      <trkpt lat="43.67557" lon="6.84851">
        <ele>667.7</ele>
        <time>2021-05-02T09:25:29.000Z</time>
      </trkpt>
      <trkpt lat="43.6756" lon="6.8485">
        <ele>667.5</ele>
        <time>2021-05-02T09:25:30.000Z</time>
      </trkpt>
      <trkpt lat="43.67563" lon="6.84849">
        <ele>667.3</ele>
        <time>2021-05-02T09:25:31.000Z</time>
      </trkpt>
      <trkpt lat="43.67566" lon="6.84848">
        <ele>667</ele>
        <time>2021-05-02T09:25:32.000Z</time>
      </trkpt>
      <trkpt lat="43.67569" lon="6.84848">
        <ele>667.2</ele>
        <time>2021-05-02T09:25:33.000Z</time>
      </trkpt>
      <trkpt lat="43.67572" lon="6.84849">
        <ele>666.9</ele>
        <time>2021-05-02T09:25:34.000Z</time>
      </trkpt>
      <trkpt lat="43.67575" lon="6.8485">
        <ele>667.1</ele>
        <time>2021-05-02T09:25:35.000Z</time>
      </trkpt>
      <trkpt lat="43.67578" lon="6.8485">
        <ele>667</ele>
        <time>2021-05-02T09:25:36.000Z</time>
      </trkpt>
      <trkpt lat="43.6758" lon="6.84848">
        <ele>666.6</ele>
        <time>2021-05-02T09:25:37.000Z</time>
      </trkpt>
      <trkpt lat="43.67583" lon="6.84846">
        <ele>665.9</ele>
        <time>2021-05-02T09:25:38.000Z</time>
      </trkpt>
      <trkpt lat="43.67585" lon="6.84844">
        <ele>665.8</ele>
        <time>2021-05-02T09:25:39.000Z</time>
      </trkpt>
      <trkpt lat="43.67588" lon="6.84844">
        <ele>665.6</ele>
        <time>2021-05-02T09:25:40.000Z</time>
      </trkpt>
      <trkpt lat="43.6759" lon="6.84843">
        <ele>666</ele>
        <time>2021-05-02T09:25:41.000Z</time>
      </trkpt>
      <trkpt lat="43.67592" lon="6.84842">
        <ele>665.8</ele>
        <time>2021-05-02T09:25:42.000Z</time>
      </trkpt>
      <trkpt lat="43.67595" lon="6.84842">
        <ele>665.5</ele>
        <time>2021-05-02T09:25:43.000Z</time>
      </trkpt>
      <trkpt lat="43.67598" lon="6.84841">
        <ele>665.5</ele>
        <time>2021-05-02T09:25:44.000Z</time>
      </trkpt>
      <trkpt lat="43.676" lon="6.84842">
        <ele>666.2</ele>
        <time>2021-05-02T09:25:45.000Z</time>
      </trkpt>
      <trkpt lat="43.67602" lon="6.84842">
        <ele>666.1</ele>
        <time>2021-05-02T09:25:46.000Z</time>
      </trkpt>
      <trkpt lat="43.67604" lon="6.84844">
        <ele>665.8</ele>
        <time>2021-05-02T09:25:47.000Z</time>
      </trkpt>
      <trkpt lat="43.67605" lon="6.84846">
        <ele>665.2</ele>
        <time>2021-05-02T09:25:48.000Z</time>
      </trkpt>
      <trkpt lat="43.67606" lon="6.84849">
        <ele>664.2</ele>
        <time>2021-05-02T09:25:49.000Z</time>
      </trkpt>
      <trkpt lat="43.67606" lon="6.84852">
        <ele>663.6</ele>
        <time>2021-05-02T09:25:50.000Z</time>
      </trkpt>
      <trkpt lat="43.67606" lon="6.84855">
        <ele>662.3</ele>
        <time>2021-05-02T09:25:51.000Z</time>
      </trkpt>
      <trkpt lat="43.67607" lon="6.84859">
        <ele>661.7</ele>
        <time>2021-05-02T09:25:52.000Z</time>
      </trkpt>
      <trkpt lat="43.67608" lon="6.84863">
        <ele>660.5</ele>
        <time>2021-05-02T09:25:53.000Z</time>
      </trkpt>
      <trkpt lat="43.67609" lon="6.84867">
        <ele>659.1</ele>
        <time>2021-05-02T09:25:54.000Z</time>
      </trkpt>
      <trkpt lat="43.67611" lon="6.84871">
        <ele>659</ele>
        <time>2021-05-02T09:25:55.000Z</time>
      </trkpt>
      <trkpt lat="43.67612" lon="6.84874">
        <ele>658.6</ele>
        <time>2021-05-02T09:25:56.000Z</time>
      </trkpt>
      <trkpt lat="43.67614" lon="6.84876">
        <ele>658.6</ele>
        <time>2021-05-02T09:25:57.000Z</time>
      </trkpt>
      <trkpt lat="43.67616" lon="6.84878">
        <ele>658.6</ele>
        <time>2021-05-02T09:25:58.000Z</time>
      </trkpt>
      <trkpt lat="43.67618" lon="6.8488">
        <ele>659</ele>
        <time>2021-05-02T09:25:59.000Z</time>
      </trkpt>
      <trkpt lat="43.6762" lon="6.84882">
        <ele>660</ele>
        <time>2021-05-02T09:26:00.000Z</time>
      </trkpt>
      <trkpt lat="43.67623" lon="6.84882">
        <ele>661.1</ele>
        <time>2021-05-02T09:26:01.000Z</time>
      </trkpt>
      <trkpt lat="43.67625" lon="6.84882">
        <ele>662</ele>
        <time>2021-05-02T09:26:02.000Z</time>
      </trkpt>
      <trkpt lat="43.67627" lon="6.84881">
        <ele>662.7</ele>
        <time>2021-05-02T09:26:03.000Z</time>
      </trkpt>
      <trkpt lat="43.67629" lon="6.84881">
        <ele>662.9</ele>
        <time>2021-05-02T09:26:04.000Z</time>
      </trkpt>
      <trkpt lat="43.67631" lon="6.84881">
        <ele>663.7</ele>
        <time>2021-05-02T09:26:05.000Z</time>
      </trkpt>
      <trkpt lat="43.67634" lon="6.84881">
        <ele>664.4</ele>
        <time>2021-05-02T09:26:06.000Z</time>
      </trkpt>
      <trkpt lat="43.67636" lon="6.84881">
        <ele>664.4</ele>
        <time>2021-05-02T09:26:07.000Z</time>
      </trkpt>
      <trkpt lat="43.67638" lon="6.84881">
        <ele>664.6</ele>
        <time>2021-05-02T09:26:08.000Z</time>
      </trkpt>
      <trkpt lat="43.6764" lon="6.8488">
        <ele>665.1</ele>
        <time>2021-05-02T09:26:09.000Z</time>
      </trkpt>
      <trkpt lat="43.67641" lon="6.84879">
        <ele>665.2</ele>
        <time>2021-05-02T09:26:10.000Z</time>
      </trkpt>
      <trkpt lat="43.67643" lon="6.84878">
        <ele>665.8</ele>
        <time>2021-05-02T09:26:12.000Z</time>
      </trkpt>
      <trkpt lat="43.67647" lon="6.84878">
        <ele>666.5</ele>
        <time>2021-05-02T09:26:15.000Z</time>
      </trkpt>
      <trkpt lat="43.67649" lon="6.84878">
        <ele>666.8</ele>
        <time>2021-05-02T09:26:16.000Z</time>
      </trkpt>
      <trkpt lat="43.6765" lon="6.84878">
        <ele>666.9</ele>
        <time>2021-05-02T09:26:17.000Z</time>
      </trkpt>
      <trkpt lat="43.67652" lon="6.84878">
        <ele>666.9</ele>
        <time>2021-05-02T09:26:18.000Z</time>
      </trkpt>
      <trkpt lat="43.67654" lon="6.84877">
        <ele>667</ele>
        <time>2021-05-02T09:26:19.000Z</time>
      </trkpt>
      <trkpt lat="43.67656" lon="6.84876">
        <ele>667.2</ele>
        <time>2021-05-02T09:26:20.000Z</time>
      </trkpt>
      <trkpt lat="43.67657" lon="6.84876">
        <ele>667.5</ele>
        <time>2021-05-02T09:26:21.000Z</time>
      </trkpt>
      <trkpt lat="43.67659" lon="6.84875">
        <ele>667.9</ele>
        <time>2021-05-02T09:26:22.000Z</time>
      </trkpt>
      <trkpt lat="43.67661" lon="6.84874">
        <ele>667.7</ele>
        <time>2021-05-02T09:26:23.000Z</time>
      </trkpt>
      <trkpt lat="43.67663" lon="6.84873">
        <ele>667.8</ele>
        <time>2021-05-02T09:26:24.000Z</time>
      </trkpt>
      <trkpt lat="43.67664" lon="6.84871">
        <ele>668</ele>
        <time>2021-05-02T09:26:25.000Z</time>
      </trkpt>
      <trkpt lat="43.67665" lon="6.8487">
        <ele>668.4</ele>
        <time>2021-05-02T09:26:26.000Z</time>
      </trkpt>
      <trkpt lat="43.67665" lon="6.84868">
        <ele>668.7</ele>
        <time>2021-05-02T09:26:28.000Z</time>
      </trkpt>
      <trkpt lat="43.67665" lon="6.84855">
        <ele>668.8</ele>
        <time>2021-05-02T09:26:47.000Z</time>
      </trkpt>
      <trkpt lat="43.67665" lon="6.84853">
        <ele>668.6</ele>
        <time>2021-05-02T09:26:49.000Z</time>
      </trkpt>
      <trkpt lat="43.67664" lon="6.84851">
        <ele>668.5</ele>
        <time>2021-05-02T09:26:50.000Z</time>
      </trkpt>
      <trkpt lat="43.67664" lon="6.84849">
        <ele>668.1</ele>
        <time>2021-05-02T09:26:51.000Z</time>
      </trkpt>
      <trkpt lat="43.67664" lon="6.84847">
        <ele>667.8</ele>
        <time>2021-05-02T09:26:52.000Z</time>
      </trkpt>
      <trkpt lat="43.67664" lon="6.84845">
        <ele>667.6</ele>
        <time>2021-05-02T09:26:53.000Z</time>
      </trkpt>
      <trkpt lat="43.67663" lon="6.84841">
        <ele>667.4</ele>
        <time>2021-05-02T09:26:54.000Z</time>
      </trkpt>
      <trkpt lat="43.67663" lon="6.84838">
        <ele>667.5</ele>
        <time>2021-05-02T09:26:55.000Z</time>
      </trkpt>
      <trkpt lat="43.67664" lon="6.84835">
        <ele>667.5</ele>
        <time>2021-05-02T09:26:56.000Z</time>
      </trkpt>
      <trkpt lat="43.67664" lon="6.84833">
        <ele>667.2</ele>
        <time>2021-05-02T09:26:57.000Z</time>
      </trkpt>
      <trkpt lat="43.67664" lon="6.84831">
        <ele>667.2</ele>
        <time>2021-05-02T09:26:58.000Z</time>
      </trkpt>
      <trkpt lat="43.67663" lon="6.84828">
        <ele>667.1</ele>
        <time>2021-05-02T09:26:59.000Z</time>
      </trkpt>
      <trkpt lat="43.67662" lon="6.84824">
        <ele>667</ele>
        <time>2021-05-02T09:27:00.000Z</time>
      </trkpt>
      <trkpt lat="43.67661" lon="6.84821">
        <ele>666.9</ele>
        <time>2021-05-02T09:27:01.000Z</time>
      </trkpt>
      <trkpt lat="43.6766" lon="6.84818">
        <ele>666.9</ele>
        <time>2021-05-02T09:27:02.000Z</time>
      </trkpt>
      <trkpt lat="43.67659" lon="6.84814">
        <ele>666.6</ele>
        <time>2021-05-02T09:27:03.000Z</time>
      </trkpt>
      <trkpt lat="43.67659" lon="6.84811">
        <ele>666.7</ele>
        <time>2021-05-02T09:27:04.000Z</time>
      </trkpt>
      <trkpt lat="43.67658" lon="6.84807">
        <ele>667</ele>
        <time>2021-05-02T09:27:05.000Z</time>
      </trkpt>
      <trkpt lat="43.67657" lon="6.84803">
        <ele>666.5</ele>
        <time>2021-05-02T09:27:06.000Z</time>
      </trkpt>
      <trkpt lat="43.67657" lon="6.84799">
        <ele>666.6</ele>
        <time>2021-05-02T09:27:07.000Z</time>
      </trkpt>
      <trkpt lat="43.67657" lon="6.84795">
        <ele>666.1</ele>
        <time>2021-05-02T09:27:08.000Z</time>
      </trkpt>
      <trkpt lat="43.67657" lon="6.8479">
        <ele>665.7</ele>
        <time>2021-05-02T09:27:09.000Z</time>
      </trkpt>
      <trkpt lat="43.67657" lon="6.84786">
        <ele>665.4</ele>
        <time>2021-05-02T09:27:10.000Z</time>
      </trkpt>
      <trkpt lat="43.67657" lon="6.84782">
        <ele>665</ele>
        <time>2021-05-02T09:27:11.000Z</time>
      </trkpt>
      <trkpt lat="43.67657" lon="6.84779">
        <ele>664.9</ele>
        <time>2021-05-02T09:27:12.000Z</time>
      </trkpt>
      <trkpt lat="43.67658" lon="6.84775">
        <ele>665</ele>
        <time>2021-05-02T09:27:13.000Z</time>
      </trkpt>
      <trkpt lat="43.67658" lon="6.84771">
        <ele>664.3</ele>
        <time>2021-05-02T09:27:14.000Z</time>
      </trkpt>
      <trkpt lat="43.67658" lon="6.84767">
        <ele>664.8</ele>
        <time>2021-05-02T09:27:15.000Z</time>
      </trkpt>
      <trkpt lat="43.67658" lon="6.84763">
        <ele>664.5</ele>
        <time>2021-05-02T09:27:16.000Z</time>
      </trkpt>
      <trkpt lat="43.67658" lon="6.84759">
        <ele>664.8</ele>
        <time>2021-05-02T09:27:17.000Z</time>
      </trkpt>
      <trkpt lat="43.67659" lon="6.84754">
        <ele>665.1</ele>
        <time>2021-05-02T09:27:18.000Z</time>
      </trkpt>
      <trkpt lat="43.6766" lon="6.8475">
        <ele>664.7</ele>
        <time>2021-05-02T09:27:19.000Z</time>
      </trkpt>
      <trkpt lat="43.6766" lon="6.84745">
        <ele>664.6</ele>
        <time>2021-05-02T09:27:20.000Z</time>
      </trkpt>
      <trkpt lat="43.67661" lon="6.84741">
        <ele>664.3</ele>
        <time>2021-05-02T09:27:21.000Z</time>
      </trkpt>
      <trkpt lat="43.67661" lon="6.84737">
        <ele>664.3</ele>
        <time>2021-05-02T09:27:22.000Z</time>
      </trkpt>
      <trkpt lat="43.67661" lon="6.84732">
        <ele>663.8</ele>
        <time>2021-05-02T09:27:23.000Z</time>
      </trkpt>
      <trkpt lat="43.6766" lon="6.84729">
        <ele>664.2</ele>
        <time>2021-05-02T09:27:24.000Z</time>
      </trkpt>
      <trkpt lat="43.6766" lon="6.84725">
        <ele>663.6</ele>
        <time>2021-05-02T09:27:25.000Z</time>
      </trkpt>
      <trkpt lat="43.67659" lon="6.8472">
        <ele>664.7</ele>
        <time>2021-05-02T09:27:26.000Z</time>
      </trkpt>
      <trkpt lat="43.67659" lon="6.84715">
        <ele>665.1</ele>
        <time>2021-05-02T09:27:27.000Z</time>
      </trkpt>
      <trkpt lat="43.67657" lon="6.8471">
        <ele>666.7</ele>
        <time>2021-05-02T09:27:28.000Z</time>
      </trkpt>
      <trkpt lat="43.67657" lon="6.84706">
        <ele>666.2</ele>
        <time>2021-05-02T09:27:29.000Z</time>
      </trkpt>
      <trkpt lat="43.67657" lon="6.84701">
        <ele>666.1</ele>
        <time>2021-05-02T09:27:30.000Z</time>
      </trkpt>
      <trkpt lat="43.67656" lon="6.84695">
        <ele>665.6</ele>
        <time>2021-05-02T09:27:31.000Z</time>
      </trkpt>
      <trkpt lat="43.67656" lon="6.8469">
        <ele>665.3</ele>
        <time>2021-05-02T09:27:32.000Z</time>
      </trkpt>
      <trkpt lat="43.67655" lon="6.84684">
        <ele>664.6</ele>
        <time>2021-05-02T09:27:33.000Z</time>
      </trkpt>
      <trkpt lat="43.67654" lon="6.84679">
        <ele>664.3</ele>
        <time>2021-05-02T09:27:34.000Z</time>
      </trkpt>
      <trkpt lat="43.67653" lon="6.84673">
        <ele>663.9</ele>
        <time>2021-05-02T09:27:35.000Z</time>
      </trkpt>
      <trkpt lat="43.67652" lon="6.84668">
        <ele>663.5</ele>
        <time>2021-05-02T09:27:36.000Z</time>
      </trkpt>
      <trkpt lat="43.67652" lon="6.84663">
        <ele>663.1</ele>
        <time>2021-05-02T09:27:37.000Z</time>
      </trkpt>
      <trkpt lat="43.67652" lon="6.84658">
        <ele>663.9</ele>
        <time>2021-05-02T09:27:38.000Z</time>
      </trkpt>
      <trkpt lat="43.67652" lon="6.84653">
        <ele>663.8</ele>
        <time>2021-05-02T09:27:39.000Z</time>
      </trkpt>
      <trkpt lat="43.67652" lon="6.84648">
        <ele>662.9</ele>
        <time>2021-05-02T09:27:40.000Z</time>
      </trkpt>
      <trkpt lat="43.67652" lon="6.84643">
        <ele>662.8</ele>
        <time>2021-05-02T09:27:41.000Z</time>
      </trkpt>
      <trkpt lat="43.67652" lon="6.84639">
        <ele>662.1</ele>
        <time>2021-05-02T09:27:42.000Z</time>
      </trkpt>
      <trkpt lat="43.67652" lon="6.84635">
        <ele>661.5</ele>
        <time>2021-05-02T09:27:43.000Z</time>
      </trkpt>
      <trkpt lat="43.67652" lon="6.8463">
        <ele>661.1</ele>
        <time>2021-05-02T09:27:44.000Z</time>
      </trkpt>
      <trkpt lat="43.67652" lon="6.84624">
        <ele>662.4</ele>
        <time>2021-05-02T09:27:45.000Z</time>
      </trkpt>
      <trkpt lat="43.67652" lon="6.8462">
        <ele>662.3</ele>
        <time>2021-05-02T09:27:46.000Z</time>
      </trkpt>
      <trkpt lat="43.67652" lon="6.84615">
        <ele>661.6</ele>
        <time>2021-05-02T09:27:47.000Z</time>
      </trkpt>
      <trkpt lat="43.67653" lon="6.8461">
        <ele>662</ele>
        <time>2021-05-02T09:27:48.000Z</time>
      </trkpt>
      <trkpt lat="43.67654" lon="6.84605">
        <ele>662</ele>
        <time>2021-05-02T09:27:49.000Z</time>
      </trkpt>
      <trkpt lat="43.67655" lon="6.846">
        <ele>662</ele>
        <time>2021-05-02T09:27:50.000Z</time>
      </trkpt>
      <trkpt lat="43.67655" lon="6.84595">
        <ele>662.7</ele>
        <time>2021-05-02T09:27:51.000Z</time>
      </trkpt>
      <trkpt lat="43.67656" lon="6.84589">
        <ele>663.7</ele>
        <time>2021-05-02T09:27:52.000Z</time>
      </trkpt>
      <trkpt lat="43.67657" lon="6.84584">
        <ele>662.7</ele>
        <time>2021-05-02T09:27:53.000Z</time>
      </trkpt>
      <trkpt lat="43.67658" lon="6.84579">
        <ele>662.6</ele>
        <time>2021-05-02T09:27:54.000Z</time>
      </trkpt>
      <trkpt lat="43.67659" lon="6.84572">
        <ele>664.2</ele>
        <time>2021-05-02T09:27:55.000Z</time>
      </trkpt>
      <trkpt lat="43.6766" lon="6.84566">
        <ele>665.4</ele>
        <time>2021-05-02T09:27:56.000Z</time>
      </trkpt>
      <trkpt lat="43.67662" lon="6.84561">
        <ele>665.3</ele>
        <time>2021-05-02T09:27:57.000Z</time>
      </trkpt>
      <trkpt lat="43.67663" lon="6.84555">
        <ele>665.2</ele>
        <time>2021-05-02T09:27:58.000Z</time>
      </trkpt>
      <trkpt lat="43.67664" lon="6.84549">
        <ele>665.3</ele>
        <time>2021-05-02T09:27:59.000Z</time>
      </trkpt>
      <trkpt lat="43.67665" lon="6.84544">
        <ele>665.2</ele>
        <time>2021-05-02T09:28:00.000Z</time>
      </trkpt>
      <trkpt lat="43.67666" lon="6.84538">
        <ele>665</ele>
        <time>2021-05-02T09:28:01.000Z</time>
      </trkpt>
      <trkpt lat="43.67667" lon="6.84532">
        <ele>665</ele>
        <time>2021-05-02T09:28:02.000Z</time>
      </trkpt>
      <trkpt lat="43.67668" lon="6.84526">
        <ele>664.8</ele>
        <time>2021-05-02T09:28:03.000Z</time>
      </trkpt>
      <trkpt lat="43.67669" lon="6.84521">
        <ele>665.3</ele>
        <time>2021-05-02T09:28:04.000Z</time>
      </trkpt>
      <trkpt lat="43.67669" lon="6.84515">
        <ele>665.4</ele>
        <time>2021-05-02T09:28:05.000Z</time>
      </trkpt>
      <trkpt lat="43.67669" lon="6.8451">
        <ele>666.2</ele>
        <time>2021-05-02T09:28:06.000Z</time>
      </trkpt>
      <trkpt lat="43.67669" lon="6.84504">
        <ele>666.5</ele>
        <time>2021-05-02T09:28:07.000Z</time>
      </trkpt>
      <trkpt lat="43.67669" lon="6.84499">
        <ele>666.5</ele>
        <time>2021-05-02T09:28:08.000Z</time>
      </trkpt>
      <trkpt lat="43.67669" lon="6.84493">
        <ele>665.9</ele>
        <time>2021-05-02T09:28:09.000Z</time>
      </trkpt>
      <trkpt lat="43.67669" lon="6.84487">
        <ele>664.3</ele>
        <time>2021-05-02T09:28:10.000Z</time>
      </trkpt>
      <trkpt lat="43.67668" lon="6.84481">
        <ele>662.7</ele>
        <time>2021-05-02T09:28:11.000Z</time>
      </trkpt>
      <trkpt lat="43.67669" lon="6.84475">
        <ele>660.9</ele>
        <time>2021-05-02T09:28:12.000Z</time>
      </trkpt>
      <trkpt lat="43.67668" lon="6.84468">
        <ele>660.2</ele>
        <time>2021-05-02T09:28:13.000Z</time>
      </trkpt>
      <trkpt lat="43.67668" lon="6.84461">
        <ele>659.9</ele>
        <time>2021-05-02T09:28:14.000Z</time>
      </trkpt>
      <trkpt lat="43.67668" lon="6.84456">
        <ele>659.5</ele>
        <time>2021-05-02T09:28:15.000Z</time>
      </trkpt>
      <trkpt lat="43.67668" lon="6.8445">
        <ele>660</ele>
        <time>2021-05-02T09:28:16.000Z</time>
      </trkpt>
      <trkpt lat="43.67667" lon="6.84445">
        <ele>660.5</ele>
        <time>2021-05-02T09:28:17.000Z</time>
      </trkpt>
      <trkpt lat="43.67667" lon="6.8444">
        <ele>659.9</ele>
        <time>2021-05-02T09:28:18.000Z</time>
      </trkpt>
      <trkpt lat="43.67666" lon="6.84434">
        <ele>660.3</ele>
        <time>2021-05-02T09:28:19.000Z</time>
      </trkpt>
      <trkpt lat="43.67666" lon="6.84429">
        <ele>660</ele>
        <time>2021-05-02T09:28:20.000Z</time>
      </trkpt>
      <trkpt lat="43.67665" lon="6.84424">
        <ele>659.7</ele>
        <time>2021-05-02T09:28:21.000Z</time>
      </trkpt>
      <trkpt lat="43.67664" lon="6.84417">
        <ele>661.4</ele>
        <time>2021-05-02T09:28:22.000Z</time>
      </trkpt>
      <trkpt lat="43.67664" lon="6.84411">
        <ele>662.1</ele>
        <time>2021-05-02T09:28:23.000Z</time>
      </trkpt>
      <trkpt lat="43.67665" lon="6.84405">
        <ele>661.2</ele>
        <time>2021-05-02T09:28:24.000Z</time>
      </trkpt>
      <trkpt lat="43.67665" lon="6.84398">
        <ele>660.5</ele>
        <time>2021-05-02T09:28:25.000Z</time>
      </trkpt>
      <trkpt lat="43.67664" lon="6.84392">
        <ele>659.9</ele>
        <time>2021-05-02T09:28:26.000Z</time>
      </trkpt>
      <trkpt lat="43.67663" lon="6.84386">
        <ele>659.7</ele>
        <time>2021-05-02T09:28:27.000Z</time>
      </trkpt>
      <trkpt lat="43.67661" lon="6.8438">
        <ele>659.3</ele>
        <time>2021-05-02T09:28:28.000Z</time>
      </trkpt>
      <trkpt lat="43.6766" lon="6.84374">
        <ele>659.9</ele>
        <time>2021-05-02T09:28:29.000Z</time>
      </trkpt>
      <trkpt lat="43.67658" lon="6.84368">
        <ele>659.9</ele>
        <time>2021-05-02T09:28:30.000Z</time>
      </trkpt>
      <trkpt lat="43.67657" lon="6.84362">
        <ele>659.9</ele>
        <time>2021-05-02T09:28:31.000Z</time>
      </trkpt>
      <trkpt lat="43.67657" lon="6.84357">
        <ele>660.3</ele>
        <time>2021-05-02T09:28:32.000Z</time>
      </trkpt>
      <trkpt lat="43.67657" lon="6.84352">
        <ele>660.5</ele>
        <time>2021-05-02T09:28:33.000Z</time>
      </trkpt>
      <trkpt lat="43.67656" lon="6.84348">
        <ele>660.9</ele>
        <time>2021-05-02T09:28:34.000Z</time>
      </trkpt>
      <trkpt lat="43.67655" lon="6.84344">
        <ele>660.9</ele>
        <time>2021-05-02T09:28:35.000Z</time>
      </trkpt>
      <trkpt lat="43.67654" lon="6.84339">
        <ele>660.3</ele>
        <time>2021-05-02T09:28:36.000Z</time>
      </trkpt>
      <trkpt lat="43.67653" lon="6.84335">
        <ele>659.1</ele>
        <time>2021-05-02T09:28:37.000Z</time>
      </trkpt>
      <trkpt lat="43.67652" lon="6.84329">
        <ele>659.3</ele>
        <time>2021-05-02T09:28:38.000Z</time>
      </trkpt>
      <trkpt lat="43.67652" lon="6.84323">
        <ele>658.7</ele>
        <time>2021-05-02T09:28:39.000Z</time>
      </trkpt>
      <trkpt lat="43.67651" lon="6.84317">
        <ele>658</ele>
        <time>2021-05-02T09:28:40.000Z</time>
      </trkpt>
      <trkpt lat="43.6765" lon="6.84309">
        <ele>657</ele>
        <time>2021-05-02T09:28:41.000Z</time>
      </trkpt>
      <trkpt lat="43.67649" lon="6.84302">
        <ele>656</ele>
        <time>2021-05-02T09:28:42.000Z</time>
      </trkpt>
      <trkpt lat="43.67648" lon="6.84296">
        <ele>655.3</ele>
        <time>2021-05-02T09:28:43.000Z</time>
      </trkpt>
      <trkpt lat="43.67646" lon="6.84289">
        <ele>655.9</ele>
        <time>2021-05-02T09:28:44.000Z</time>
      </trkpt>
      <trkpt lat="43.67645" lon="6.84282">
        <ele>655.1</ele>
        <time>2021-05-02T09:28:45.000Z</time>
      </trkpt>
      <trkpt lat="43.67643" lon="6.84276">
        <ele>654.5</ele>
        <time>2021-05-02T09:28:46.000Z</time>
      </trkpt>
      <trkpt lat="43.67641" lon="6.8427">
        <ele>654.2</ele>
        <time>2021-05-02T09:28:47.000Z</time>
      </trkpt>
      <trkpt lat="43.67639" lon="6.84265">
        <ele>653.5</ele>
        <time>2021-05-02T09:28:48.000Z</time>
      </trkpt>
      <trkpt lat="43.67637" lon="6.84262">
        <ele>654.6</ele>
        <time>2021-05-02T09:28:49.000Z</time>
      </trkpt>
      <trkpt lat="43.67636" lon="6.84258">
        <ele>655.8</ele>
        <time>2021-05-02T09:28:50.000Z</time>
      </trkpt>
      <trkpt lat="43.67636" lon="6.84255">
        <ele>656.5</ele>
        <time>2021-05-02T09:28:51.000Z</time>
      </trkpt>
      <trkpt lat="43.67638" lon="6.84252">
        <ele>658.2</ele>
        <time>2021-05-02T09:28:52.000Z</time>
      </trkpt>
      <trkpt lat="43.67639" lon="6.8425">
        <ele>658.9</ele>
        <time>2021-05-02T09:28:53.000Z</time>
      </trkpt>
      <trkpt lat="43.6764" lon="6.8425">
        <ele>658.9</ele>
        <time>2021-05-02T09:28:54.000Z</time>
      </trkpt>
      <trkpt lat="43.67642" lon="6.84252">
        <ele>659.2</ele>
        <time>2021-05-02T09:28:55.000Z</time>
      </trkpt>
      <trkpt lat="43.67642" lon="6.84255">
        <ele>659.6</ele>
        <time>2021-05-02T09:28:56.000Z</time>
      </trkpt>
      <trkpt lat="43.67643" lon="6.84257">
        <ele>659.6</ele>
        <time>2021-05-02T09:28:57.000Z</time>
      </trkpt>
      <trkpt lat="43.67644" lon="6.84258">
        <ele>659.6</ele>
        <time>2021-05-02T09:28:58.000Z</time>
      </trkpt>
      <trkpt lat="43.67647" lon="6.84258">
        <ele>659.9</ele>
        <time>2021-05-02T09:28:59.000Z</time>
      </trkpt>
      <trkpt lat="43.67649" lon="6.84257">
        <ele>660.4</ele>
        <time>2021-05-02T09:29:00.000Z</time>
      </trkpt>
      <trkpt lat="43.6765" lon="6.84256">
        <ele>661.2</ele>
        <time>2021-05-02T09:29:01.000Z</time>
      </trkpt>
      <trkpt lat="43.67652" lon="6.84255">
        <ele>662.1</ele>
        <time>2021-05-02T09:29:02.000Z</time>
      </trkpt>
      <trkpt lat="43.67653" lon="6.84253">
        <ele>662.9</ele>
        <time>2021-05-02T09:29:03.000Z</time>
      </trkpt>
      <trkpt lat="43.67654" lon="6.84251">
        <ele>663.3</ele>
        <time>2021-05-02T09:29:04.000Z</time>
      </trkpt>
      <trkpt lat="43.67655" lon="6.84248">
        <ele>663.1</ele>
        <time>2021-05-02T09:29:05.000Z</time>
      </trkpt>
      <trkpt lat="43.67655" lon="6.84246">
        <ele>663.2</ele>
        <time>2021-05-02T09:29:06.000Z</time>
      </trkpt>
      <trkpt lat="43.67655" lon="6.84243">
        <ele>663.6</ele>
        <time>2021-05-02T09:29:07.000Z</time>
      </trkpt>
      <trkpt lat="43.67655" lon="6.8424">
        <ele>663.8</ele>
        <time>2021-05-02T09:29:08.000Z</time>
      </trkpt>
      <trkpt lat="43.67657" lon="6.84237">
        <ele>663.9</ele>
        <time>2021-05-02T09:29:09.000Z</time>
      </trkpt>
      <trkpt lat="43.67658" lon="6.84234">
        <ele>663.1</ele>
        <time>2021-05-02T09:29:10.000Z</time>
      </trkpt>
      <trkpt lat="43.67659" lon="6.84231">
        <ele>663.4</ele>
        <time>2021-05-02T09:29:11.000Z</time>
      </trkpt>
      <trkpt lat="43.67659" lon="6.84229">
        <ele>663.3</ele>
        <time>2021-05-02T09:29:12.000Z</time>
      </trkpt>
      <trkpt lat="43.6766" lon="6.84226">
        <ele>663.1</ele>
        <time>2021-05-02T09:29:13.000Z</time>
      </trkpt>
      <trkpt lat="43.67661" lon="6.84224">
        <ele>663.5</ele>
        <time>2021-05-02T09:29:14.000Z</time>
      </trkpt>
      <trkpt lat="43.67662" lon="6.84222">
        <ele>663.5</ele>
        <time>2021-05-02T09:29:15.000Z</time>
      </trkpt>
      <trkpt lat="43.67664" lon="6.8422">
        <ele>664.2</ele>
        <time>2021-05-02T09:29:16.000Z</time>
      </trkpt>
      <trkpt lat="43.67666" lon="6.84217">
        <ele>665.2</ele>
        <time>2021-05-02T09:29:17.000Z</time>
      </trkpt>
      <trkpt lat="43.67667" lon="6.84215">
        <ele>666.4</ele>
        <time>2021-05-02T09:29:18.000Z</time>
      </trkpt>
      <trkpt lat="43.67669" lon="6.84214">
        <ele>666.1</ele>
        <time>2021-05-02T09:29:19.000Z</time>
      </trkpt>
      <trkpt lat="43.6767" lon="6.84213">
        <ele>666.8</ele>
        <time>2021-05-02T09:29:20.000Z</time>
      </trkpt>
      <trkpt lat="43.67671" lon="6.84214">
        <ele>668.2</ele>
        <time>2021-05-02T09:29:23.000Z</time>
      </trkpt>
      <trkpt lat="43.67671" lon="6.84215">
        <ele>668.4</ele>
        <time>2021-05-02T09:29:24.000Z</time>
      </trkpt>
      <trkpt lat="43.67671" lon="6.84217">
        <ele>668.8</ele>
        <time>2021-05-02T09:29:26.000Z</time>
      </trkpt>
      <trkpt lat="43.67673" lon="6.84218">
        <ele>669.5</ele>
        <time>2021-05-02T09:29:50.000Z</time>
      </trkpt>
      <trkpt lat="43.67674" lon="6.8422">
        <ele>669.4</ele>
        <time>2021-05-02T09:29:51.000Z</time>
      </trkpt>
      <trkpt lat="43.67676" lon="6.84221">
        <ele>669.4</ele>
        <time>2021-05-02T09:29:52.000Z</time>
      </trkpt>
      <trkpt lat="43.67678" lon="6.84222">
        <ele>669.5</ele>
        <time>2021-05-02T09:29:53.000Z</time>
      </trkpt>
      <trkpt lat="43.6768" lon="6.84222">
        <ele>669.6</ele>
        <time>2021-05-02T09:29:54.000Z</time>
      </trkpt>
      <trkpt lat="43.67682" lon="6.84222">
        <ele>669.8</ele>
        <time>2021-05-02T09:29:55.000Z</time>
      </trkpt>
      <trkpt lat="43.67684" lon="6.84222">
        <ele>670.1</ele>
        <time>2021-05-02T09:29:56.000Z</time>
      </trkpt>
      <trkpt lat="43.67685" lon="6.84222">
        <ele>670.4</ele>
        <time>2021-05-02T09:29:57.000Z</time>
      </trkpt>
      <trkpt lat="43.67687" lon="6.84222">
        <ele>671.1</ele>
        <time>2021-05-02T09:29:58.000Z</time>
      </trkpt>
      <trkpt lat="43.67689" lon="6.84222">
        <ele>671.8</ele>
        <time>2021-05-02T09:29:59.000Z</time>
      </trkpt>
      <trkpt lat="43.67692" lon="6.84222">
        <ele>672.5</ele>
        <time>2021-05-02T09:30:00.000Z</time>
      </trkpt>
      <trkpt lat="43.67693" lon="6.84223">
        <ele>673.2</ele>
        <time>2021-05-02T09:30:01.000Z</time>
      </trkpt>
      <trkpt lat="43.67695" lon="6.84224">
        <ele>673.6</ele>
        <time>2021-05-02T09:30:02.000Z</time>
      </trkpt>
      <trkpt lat="43.67697" lon="6.84224">
        <ele>674</ele>
        <time>2021-05-02T09:30:03.000Z</time>
      </trkpt>
      <trkpt lat="43.67699" lon="6.84226">
        <ele>674.4</ele>
        <time>2021-05-02T09:30:04.000Z</time>
      </trkpt>
      <trkpt lat="43.67702" lon="6.84226">
        <ele>675</ele>
        <time>2021-05-02T09:30:05.000Z</time>
      </trkpt>
      <trkpt lat="43.67704" lon="6.84227">
        <ele>675.7</ele>
        <time>2021-05-02T09:30:06.000Z</time>
      </trkpt>
      <trkpt lat="43.67706" lon="6.84227">
        <ele>676.4</ele>
        <time>2021-05-02T09:30:07.000Z</time>
      </trkpt>
      <trkpt lat="43.67707" lon="6.84228">
        <ele>676.7</ele>
        <time>2021-05-02T09:30:08.000Z</time>
      </trkpt>
      <trkpt lat="43.67709" lon="6.84228">
        <ele>677.2</ele>
        <time>2021-05-02T09:30:09.000Z</time>
      </trkpt>
      <trkpt lat="43.67711" lon="6.84228">
        <ele>677.8</ele>
        <time>2021-05-02T09:30:10.000Z</time>
      </trkpt>
      <trkpt lat="43.67712" lon="6.84228">
        <ele>678.5</ele>
        <time>2021-05-02T09:30:11.000Z</time>
      </trkpt>
      <trkpt lat="43.67714" lon="6.84228">
        <ele>679.1</ele>
        <time>2021-05-02T09:30:12.000Z</time>
      </trkpt>
      <trkpt lat="43.67716" lon="6.84229">
        <ele>679.6</ele>
        <time>2021-05-02T09:30:13.000Z</time>
      </trkpt>
      <trkpt lat="43.67718" lon="6.84229">
        <ele>679.8</ele>
        <time>2021-05-02T09:30:14.000Z</time>
      </trkpt>
      <trkpt lat="43.6772" lon="6.8423">
        <ele>680.1</ele>
        <time>2021-05-02T09:30:15.000Z</time>
      </trkpt>
      <trkpt lat="43.67722" lon="6.8423">
        <ele>680.6</ele>
        <time>2021-05-02T09:30:16.000Z</time>
      </trkpt>
      <trkpt lat="43.67724" lon="6.8423">
        <ele>681.5</ele>
        <time>2021-05-02T09:30:17.000Z</time>
      </trkpt>
      <trkpt lat="43.67726" lon="6.8423">
        <ele>681.8</ele>
        <time>2021-05-02T09:30:18.000Z</time>
      </trkpt>
      <trkpt lat="43.67728" lon="6.8423">
        <ele>682.3</ele>
        <time>2021-05-02T09:30:19.000Z</time>
      </trkpt>
      <trkpt lat="43.6773" lon="6.8423">
        <ele>682.7</ele>
        <time>2021-05-02T09:30:20.000Z</time>
      </trkpt>
      <trkpt lat="43.67732" lon="6.8423">
        <ele>683.2</ele>
        <time>2021-05-02T09:30:21.000Z</time>
      </trkpt>
      <trkpt lat="43.67734" lon="6.8423">
        <ele>683.8</ele>
        <time>2021-05-02T09:30:22.000Z</time>
      </trkpt>
      <trkpt lat="43.67736" lon="6.8423">
        <ele>684.3</ele>
        <time>2021-05-02T09:30:23.000Z</time>
      </trkpt>
      <trkpt lat="43.67738" lon="6.8423">
        <ele>685</ele>
        <time>2021-05-02T09:30:24.000Z</time>
      </trkpt>
      <trkpt lat="43.67739" lon="6.8423">
        <ele>685.7</ele>
        <time>2021-05-02T09:30:25.000Z</time>
      </trkpt>
      <trkpt lat="43.67741" lon="6.8423">
        <ele>686.3</ele>
        <time>2021-05-02T09:30:26.000Z</time>
      </trkpt>
      <trkpt lat="43.67743" lon="6.8423">
        <ele>686.7</ele>
        <time>2021-05-02T09:30:27.000Z</time>
      </trkpt>
      <trkpt lat="43.67745" lon="6.84231">
        <ele>687</ele>
        <time>2021-05-02T09:30:28.000Z</time>
      </trkpt>
      <trkpt lat="43.67747" lon="6.84231">
        <ele>687.4</ele>
        <time>2021-05-02T09:30:29.000Z</time>
      </trkpt>
      <trkpt lat="43.6775" lon="6.84231">
        <ele>687.5</ele>
        <time>2021-05-02T09:30:30.000Z</time>
      </trkpt>
      <trkpt lat="43.67752" lon="6.84231">
        <ele>687.8</ele>
        <time>2021-05-02T09:30:31.000Z</time>
      </trkpt>
      <trkpt lat="43.67755" lon="6.84231">
        <ele>687.9</ele>
        <time>2021-05-02T09:30:32.000Z</time>
      </trkpt>
      <trkpt lat="43.67757" lon="6.84231">
        <ele>688.1</ele>
        <time>2021-05-02T09:30:33.000Z</time>
      </trkpt>
      <trkpt lat="43.67759" lon="6.84231">
        <ele>688.4</ele>
        <time>2021-05-02T09:30:34.000Z</time>
      </trkpt>
      <trkpt lat="43.67761" lon="6.84231">
        <ele>688.5</ele>
        <time>2021-05-02T09:30:35.000Z</time>
      </trkpt>
      <trkpt lat="43.67763" lon="6.84232">
        <ele>688.8</ele>
        <time>2021-05-02T09:30:36.000Z</time>
      </trkpt>
      <trkpt lat="43.67765" lon="6.84232">
        <ele>688.8</ele>
        <time>2021-05-02T09:30:37.000Z</time>
      </trkpt>
      <trkpt lat="43.67767" lon="6.84232">
        <ele>688.9</ele>
        <time>2021-05-02T09:30:38.000Z</time>
      </trkpt>
      <trkpt lat="43.67768" lon="6.84232">
        <ele>689</ele>
        <time>2021-05-02T09:30:39.000Z</time>
      </trkpt>
      <trkpt lat="43.6777" lon="6.84232">
        <ele>688.8</ele>
        <time>2021-05-02T09:30:40.000Z</time>
      </trkpt>
      <trkpt lat="43.67771" lon="6.84231">
        <ele>688.6</ele>
        <time>2021-05-02T09:30:41.000Z</time>
      </trkpt>
      <trkpt lat="43.67773" lon="6.84231">
        <ele>688.7</ele>
        <time>2021-05-02T09:30:42.000Z</time>
      </trkpt>
      <trkpt lat="43.67775" lon="6.84231">
        <ele>688.8</ele>
        <time>2021-05-02T09:30:43.000Z</time>
      </trkpt>
      <trkpt lat="43.67777" lon="6.84231">
        <ele>688.9</ele>
        <time>2021-05-02T09:30:44.000Z</time>
      </trkpt>
      <trkpt lat="43.67778" lon="6.84231">
        <ele>688.9</ele>
        <time>2021-05-02T09:30:45.000Z</time>
      </trkpt>
      <trkpt lat="43.6778" lon="6.84231">
        <ele>689</ele>
        <time>2021-05-02T09:30:46.000Z</time>
      </trkpt>
      <trkpt lat="43.67782" lon="6.8423">
        <ele>689.1</ele>
        <time>2021-05-02T09:30:47.000Z</time>
      </trkpt>
      <trkpt lat="43.67784" lon="6.8423">
        <ele>689.3</ele>
        <time>2021-05-02T09:30:48.000Z</time>
      </trkpt>
      <trkpt lat="43.67786" lon="6.84231">
        <ele>689.2</ele>
        <time>2021-05-02T09:30:49.000Z</time>
      </trkpt>
      <trkpt lat="43.67788" lon="6.84231">
        <ele>689.5</ele>
        <time>2021-05-02T09:30:50.000Z</time>
      </trkpt>
      <trkpt lat="43.67791" lon="6.84231">
        <ele>689.7</ele>
        <time>2021-05-02T09:30:51.000Z</time>
      </trkpt>
      <trkpt lat="43.67793" lon="6.84232">
        <ele>689.9</ele>
        <time>2021-05-02T09:30:52.000Z</time>
      </trkpt>
      <trkpt lat="43.67795" lon="6.84232">
        <ele>689.7</ele>
        <time>2021-05-02T09:30:53.000Z</time>
      </trkpt>
      <trkpt lat="43.67797" lon="6.84232">
        <ele>689.8</ele>
        <time>2021-05-02T09:30:54.000Z</time>
      </trkpt>
      <trkpt lat="43.67799" lon="6.84232">
        <ele>690</ele>
        <time>2021-05-02T09:30:55.000Z</time>
      </trkpt>
      <trkpt lat="43.67801" lon="6.84233">
        <ele>690.5</ele>
        <time>2021-05-02T09:30:56.000Z</time>
      </trkpt>
      <trkpt lat="43.67803" lon="6.84233">
        <ele>690.7</ele>
        <time>2021-05-02T09:30:57.000Z</time>
      </trkpt>
      <trkpt lat="43.67806" lon="6.84234">
        <ele>690.5</ele>
        <time>2021-05-02T09:30:58.000Z</time>
      </trkpt>
      <trkpt lat="43.67808" lon="6.84234">
        <ele>690.2</ele>
        <time>2021-05-02T09:30:59.000Z</time>
      </trkpt>
      <trkpt lat="43.67811" lon="6.84234">
        <ele>689.8</ele>
        <time>2021-05-02T09:31:00.000Z</time>
      </trkpt>
      <trkpt lat="43.67813" lon="6.84234">
        <ele>690.2</ele>
        <time>2021-05-02T09:31:01.000Z</time>
      </trkpt>
      <trkpt lat="43.67816" lon="6.84233">
        <ele>690.5</ele>
        <time>2021-05-02T09:31:02.000Z</time>
      </trkpt>
      <trkpt lat="43.67818" lon="6.84233">
        <ele>690.7</ele>
        <time>2021-05-02T09:31:03.000Z</time>
      </trkpt>
      <trkpt lat="43.6782" lon="6.84233">
        <ele>690.7</ele>
        <time>2021-05-02T09:31:04.000Z</time>
      </trkpt>
      <trkpt lat="43.67822" lon="6.84233">
        <ele>691</ele>
        <time>2021-05-02T09:31:05.000Z</time>
      </trkpt>
      <trkpt lat="43.67823" lon="6.84233">
        <ele>690.8</ele>
        <time>2021-05-02T09:31:06.000Z</time>
      </trkpt>
      <trkpt lat="43.67825" lon="6.84233">
        <ele>691.4</ele>
        <time>2021-05-02T09:31:07.000Z</time>
      </trkpt>
      <trkpt lat="43.67827" lon="6.84234">
        <ele>691.6</ele>
        <time>2021-05-02T09:31:08.000Z</time>
      </trkpt>
      <trkpt lat="43.67829" lon="6.84234">
        <ele>691.8</ele>
        <time>2021-05-02T09:31:09.000Z</time>
      </trkpt>
      <trkpt lat="43.67831" lon="6.84233">
        <ele>692.3</ele>
        <time>2021-05-02T09:31:10.000Z</time>
      </trkpt>
      <trkpt lat="43.67833" lon="6.84233">
        <ele>692.4</ele>
        <time>2021-05-02T09:31:11.000Z</time>
      </trkpt>
      <trkpt lat="43.67835" lon="6.84234">
        <ele>692.8</ele>
        <time>2021-05-02T09:31:12.000Z</time>
      </trkpt>
      <trkpt lat="43.67836" lon="6.84234">
        <ele>693.2</ele>
        <time>2021-05-02T09:31:13.000Z</time>
      </trkpt>
      <trkpt lat="43.67838" lon="6.84234">
        <ele>693.4</ele>
        <time>2021-05-02T09:31:14.000Z</time>
      </trkpt>
      <trkpt lat="43.6784" lon="6.84234">
        <ele>694</ele>
        <time>2021-05-02T09:31:15.000Z</time>
      </trkpt>
      <trkpt lat="43.67841" lon="6.84234">
        <ele>694.7</ele>
        <time>2021-05-02T09:31:16.000Z</time>
      </trkpt>
      <trkpt lat="43.67843" lon="6.84234">
        <ele>695.3</ele>
        <time>2021-05-02T09:31:17.000Z</time>
      </trkpt>
      <trkpt lat="43.67845" lon="6.84234">
        <ele>695.6</ele>
        <time>2021-05-02T09:31:18.000Z</time>
      </trkpt>
      <trkpt lat="43.67847" lon="6.84234">
        <ele>696</ele>
        <time>2021-05-02T09:31:19.000Z</time>
      </trkpt>
      <trkpt lat="43.67849" lon="6.84235">
        <ele>696.3</ele>
        <time>2021-05-02T09:31:20.000Z</time>
      </trkpt>
      <trkpt lat="43.67851" lon="6.84235">
        <ele>696.2</ele>
        <time>2021-05-02T09:31:21.000Z</time>
      </trkpt>
      <trkpt lat="43.67853" lon="6.84235">
        <ele>696.5</ele>
        <time>2021-05-02T09:31:22.000Z</time>
      </trkpt>
      <trkpt lat="43.67855" lon="6.84235">
        <ele>696.9</ele>
        <time>2021-05-02T09:31:23.000Z</time>
      </trkpt>
      <trkpt lat="43.67857" lon="6.84235">
        <ele>697.2</ele>
        <time>2021-05-02T09:31:24.000Z</time>
      </trkpt>
      <trkpt lat="43.67859" lon="6.84236">
        <ele>697.5</ele>
        <time>2021-05-02T09:31:25.000Z</time>
      </trkpt>
      <trkpt lat="43.67862" lon="6.84236">
        <ele>697.7</ele>
        <time>2021-05-02T09:31:26.000Z</time>
      </trkpt>
      <trkpt lat="43.67865" lon="6.84236">
        <ele>697</ele>
        <time>2021-05-02T09:31:27.000Z</time>
      </trkpt>
      <trkpt lat="43.67867" lon="6.84236">
        <ele>696.9</ele>
        <time>2021-05-02T09:31:28.000Z</time>
      </trkpt>
      <trkpt lat="43.6787" lon="6.84236">
        <ele>696.4</ele>
        <time>2021-05-02T09:31:29.000Z</time>
      </trkpt>
      <trkpt lat="43.67873" lon="6.84236">
        <ele>696.1</ele>
        <time>2021-05-02T09:31:30.000Z</time>
      </trkpt>
      <trkpt lat="43.67876" lon="6.84236">
        <ele>695.2</ele>
        <time>2021-05-02T09:31:31.000Z</time>
      </trkpt>
      <trkpt lat="43.67878" lon="6.84236">
        <ele>694.9</ele>
        <time>2021-05-02T09:31:32.000Z</time>
      </trkpt>
      <trkpt lat="43.67881" lon="6.84237">
        <ele>694.1</ele>
        <time>2021-05-02T09:31:33.000Z</time>
      </trkpt>
      <trkpt lat="43.67884" lon="6.84237">
        <ele>693.6</ele>
        <time>2021-05-02T09:31:34.000Z</time>
      </trkpt>
      <trkpt lat="43.67887" lon="6.84236">
        <ele>693.3</ele>
        <time>2021-05-02T09:31:35.000Z</time>
      </trkpt>
      <trkpt lat="43.67891" lon="6.84236">
        <ele>692.8</ele>
        <time>2021-05-02T09:31:36.000Z</time>
      </trkpt>
      <trkpt lat="43.67895" lon="6.84236">
        <ele>692.3</ele>
        <time>2021-05-02T09:31:37.000Z</time>
      </trkpt>
      <trkpt lat="43.67898" lon="6.84235">
        <ele>691.2</ele>
        <time>2021-05-02T09:31:38.000Z</time>
      </trkpt>
      <trkpt lat="43.67902" lon="6.84235">
        <ele>691</ele>
        <time>2021-05-02T09:31:39.000Z</time>
      </trkpt>
      <trkpt lat="43.67906" lon="6.84235">
        <ele>690.7</ele>
        <time>2021-05-02T09:31:40.000Z</time>
      </trkpt>
      <trkpt lat="43.6791" lon="6.84235">
        <ele>690.9</ele>
        <time>2021-05-02T09:31:41.000Z</time>
      </trkpt>
      <trkpt lat="43.67914" lon="6.84235">
        <ele>690.7</ele>
        <time>2021-05-02T09:31:42.000Z</time>
      </trkpt>
      <trkpt lat="43.67919" lon="6.84235">
        <ele>690.3</ele>
        <time>2021-05-02T09:31:43.000Z</time>
      </trkpt>
      <trkpt lat="43.67923" lon="6.84236">
        <ele>690.2</ele>
        <time>2021-05-02T09:31:44.000Z</time>
      </trkpt>
      <trkpt lat="43.67927" lon="6.84237">
        <ele>689.9</ele>
        <time>2021-05-02T09:31:45.000Z</time>
      </trkpt>
      <trkpt lat="43.67931" lon="6.84238">
        <ele>689.9</ele>
        <time>2021-05-02T09:31:46.000Z</time>
      </trkpt>
      <trkpt lat="43.67936" lon="6.84239">
        <ele>690.6</ele>
        <time>2021-05-02T09:31:47.000Z</time>
      </trkpt>
      <trkpt lat="43.67941" lon="6.8424">
        <ele>690.6</ele>
        <time>2021-05-02T09:31:48.000Z</time>
      </trkpt>
      <trkpt lat="43.67946" lon="6.84242">
        <ele>690.1</ele>
        <time>2021-05-02T09:31:49.000Z</time>
      </trkpt>
      <trkpt lat="43.67951" lon="6.84243">
        <ele>689.6</ele>
        <time>2021-05-02T09:31:50.000Z</time>
      </trkpt>
      <trkpt lat="43.67956" lon="6.84245">
        <ele>689.4</ele>
        <time>2021-05-02T09:31:51.000Z</time>
      </trkpt>
      <trkpt lat="43.67961" lon="6.84246">
        <ele>689.3</ele>
        <time>2021-05-02T09:31:52.000Z</time>
      </trkpt>
      <trkpt lat="43.67967" lon="6.84248">
        <ele>689.3</ele>
        <time>2021-05-02T09:31:53.000Z</time>
      </trkpt>
      <trkpt lat="43.67973" lon="6.84249">
        <ele>689.2</ele>
        <time>2021-05-02T09:31:54.000Z</time>
      </trkpt>
      <trkpt lat="43.6798" lon="6.8425">
        <ele>688.2</ele>
        <time>2021-05-02T09:31:55.000Z</time>
      </trkpt>
      <trkpt lat="43.67987" lon="6.84252">
        <ele>687.7</ele>
        <time>2021-05-02T09:31:56.000Z</time>
      </trkpt>
      <trkpt lat="43.67995" lon="6.84254">
        <ele>687</ele>
        <time>2021-05-02T09:31:57.000Z</time>
      </trkpt>
      <trkpt lat="43.68003" lon="6.84256">
        <ele>687</ele>
        <time>2021-05-02T09:31:58.000Z</time>
      </trkpt>
      <trkpt lat="43.68013" lon="6.84258">
        <ele>686.4</ele>
        <time>2021-05-02T09:31:59.000Z</time>
      </trkpt>
      <trkpt lat="43.68022" lon="6.8426">
        <ele>686.3</ele>
        <time>2021-05-02T09:32:00.000Z</time>
      </trkpt>
      <trkpt lat="43.6803" lon="6.84261">
        <ele>686</ele>
        <time>2021-05-02T09:32:01.000Z</time>
      </trkpt>
      <trkpt lat="43.68037" lon="6.84262">
        <ele>686.1</ele>
        <time>2021-05-02T09:32:02.000Z</time>
      </trkpt>
      <trkpt lat="43.68044" lon="6.84265">
        <ele>686.3</ele>
        <time>2021-05-02T09:32:03.000Z</time>
      </trkpt>
      <trkpt lat="43.6805" lon="6.84266">
        <ele>685.8</ele>
        <time>2021-05-02T09:32:04.000Z</time>
      </trkpt>
      <trkpt lat="43.68056" lon="6.84268">
        <ele>685.3</ele>
        <time>2021-05-02T09:32:05.000Z</time>
      </trkpt>
      <trkpt lat="43.68061" lon="6.84268">
        <ele>684.9</ele>
        <time>2021-05-02T09:32:06.000Z</time>
      </trkpt>
      <trkpt lat="43.68065" lon="6.84269">
        <ele>685.7</ele>
        <time>2021-05-02T09:32:07.000Z</time>
      </trkpt>
      <trkpt lat="43.68068" lon="6.8427">
        <ele>686</ele>
        <time>2021-05-02T09:32:08.000Z</time>
      </trkpt>
      <trkpt lat="43.68071" lon="6.84271">
        <ele>687.2</ele>
        <time>2021-05-02T09:32:09.000Z</time>
      </trkpt>
      <trkpt lat="43.68073" lon="6.84271">
        <ele>688.6</ele>
        <time>2021-05-02T09:32:10.000Z</time>
      </trkpt>
      <trkpt lat="43.68076" lon="6.84272">
        <ele>689.3</ele>
        <time>2021-05-02T09:32:11.000Z</time>
      </trkpt>
      <trkpt lat="43.68078" lon="6.84272">
        <ele>689.6</ele>
        <time>2021-05-02T09:32:12.000Z</time>
      </trkpt>
      <trkpt lat="43.6808" lon="6.84273">
        <ele>691.1</ele>
        <time>2021-05-02T09:32:13.000Z</time>
      </trkpt>
      <trkpt lat="43.68083" lon="6.84273">
        <ele>691.3</ele>
        <time>2021-05-02T09:32:14.000Z</time>
      </trkpt>
      <trkpt lat="43.68086" lon="6.84275">
        <ele>691.5</ele>
        <time>2021-05-02T09:32:15.000Z</time>
      </trkpt>
      <trkpt lat="43.68088" lon="6.84276">
        <ele>691.5</ele>
        <time>2021-05-02T09:32:16.000Z</time>
      </trkpt>
      <trkpt lat="43.68091" lon="6.84277">
        <ele>692.1</ele>
        <time>2021-05-02T09:32:17.000Z</time>
      </trkpt>
      <trkpt lat="43.68093" lon="6.84278">
        <ele>692.2</ele>
        <time>2021-05-02T09:32:18.000Z</time>
      </trkpt>
      <trkpt lat="43.68096" lon="6.84279">
        <ele>692.6</ele>
        <time>2021-05-02T09:32:19.000Z</time>
      </trkpt>
      <trkpt lat="43.68099" lon="6.8428">
        <ele>693.2</ele>
        <time>2021-05-02T09:32:20.000Z</time>
      </trkpt>
      <trkpt lat="43.68102" lon="6.8428">
        <ele>693.6</ele>
        <time>2021-05-02T09:32:21.000Z</time>
      </trkpt>
      <trkpt lat="43.68104" lon="6.84279">
        <ele>694.1</ele>
        <time>2021-05-02T09:32:22.000Z</time>
      </trkpt>
      <trkpt lat="43.68105" lon="6.84279">
        <ele>694.3</ele>
        <time>2021-05-02T09:32:23.000Z</time>
      </trkpt>
      <trkpt lat="43.68107" lon="6.84279">
        <ele>694.5</ele>
        <time>2021-05-02T09:32:24.000Z</time>
      </trkpt>
      <trkpt lat="43.68109" lon="6.84279">
        <ele>694.9</ele>
        <time>2021-05-02T09:32:25.000Z</time>
      </trkpt>
      <trkpt lat="43.68111" lon="6.84278">
        <ele>695</ele>
        <time>2021-05-02T09:32:26.000Z</time>
      </trkpt>
      <trkpt lat="43.68113" lon="6.84278">
        <ele>695.1</ele>
        <time>2021-05-02T09:32:27.000Z</time>
      </trkpt>
      <trkpt lat="43.68116" lon="6.84277">
        <ele>695.3</ele>
        <time>2021-05-02T09:32:28.000Z</time>
      </trkpt>
      <trkpt lat="43.68117" lon="6.84277">
        <ele>696</ele>
        <time>2021-05-02T09:32:29.000Z</time>
      </trkpt>
      <trkpt lat="43.68119" lon="6.84277">
        <ele>696.4</ele>
        <time>2021-05-02T09:32:30.000Z</time>
      </trkpt>
      <trkpt lat="43.68121" lon="6.84277">
        <ele>697</ele>
        <time>2021-05-02T09:32:31.000Z</time>
      </trkpt>
      <trkpt lat="43.68123" lon="6.84277">
        <ele>697.4</ele>
        <time>2021-05-02T09:32:32.000Z</time>
      </trkpt>
      <trkpt lat="43.68124" lon="6.84276">
        <ele>698</ele>
        <time>2021-05-02T09:32:33.000Z</time>
      </trkpt>
      <trkpt lat="43.68126" lon="6.84276">
        <ele>698.4</ele>
        <time>2021-05-02T09:32:34.000Z</time>
      </trkpt>
      <trkpt lat="43.68128" lon="6.84276">
        <ele>698.8</ele>
        <time>2021-05-02T09:32:35.000Z</time>
      </trkpt>
      <trkpt lat="43.6813" lon="6.84275">
        <ele>698.8</ele>
        <time>2021-05-02T09:32:36.000Z</time>
      </trkpt>
      <trkpt lat="43.68132" lon="6.84275">
        <ele>699.3</ele>
        <time>2021-05-02T09:32:37.000Z</time>
      </trkpt>
      <trkpt lat="43.68134" lon="6.84274">
        <ele>699.4</ele>
        <time>2021-05-02T09:32:38.000Z</time>
      </trkpt>
      <trkpt lat="43.68136" lon="6.84274">
        <ele>699.6</ele>
        <time>2021-05-02T09:32:39.000Z</time>
      </trkpt>
      <trkpt lat="43.68138" lon="6.84271">
        <ele>699.3</ele>
        <time>2021-05-02T09:32:40.000Z</time>
      </trkpt>
      <trkpt lat="43.6814" lon="6.84269">
        <ele>699.1</ele>
        <time>2021-05-02T09:32:41.000Z</time>
      </trkpt>
      <trkpt lat="43.68142" lon="6.84267">
        <ele>699.2</ele>
        <time>2021-05-02T09:32:42.000Z</time>
      </trkpt>
      <trkpt lat="43.68144" lon="6.84266">
        <ele>699.2</ele>
        <time>2021-05-02T09:32:43.000Z</time>
      </trkpt>
      <trkpt lat="43.68145" lon="6.84264">
        <ele>699.5</ele>
        <time>2021-05-02T09:32:44.000Z</time>
      </trkpt>
      <trkpt lat="43.68146" lon="6.84263">
        <ele>699.7</ele>
        <time>2021-05-02T09:32:45.000Z</time>
      </trkpt>
      <trkpt lat="43.68148" lon="6.84262">
        <ele>699.8</ele>
        <time>2021-05-02T09:32:46.000Z</time>
      </trkpt>
      <trkpt lat="43.68149" lon="6.84262">
        <ele>700</ele>
        <time>2021-05-02T09:32:47.000Z</time>
      </trkpt>
      <trkpt lat="43.6815" lon="6.84261">
        <ele>700.4</ele>
        <time>2021-05-02T09:32:48.000Z</time>
      </trkpt>
      <trkpt lat="43.6815" lon="6.8426">
        <ele>700.8</ele>
        <time>2021-05-02T09:32:49.000Z</time>
      </trkpt>
      <trkpt lat="43.68152" lon="6.84259">
        <ele>701.3</ele>
        <time>2021-05-02T09:32:50.000Z</time>
      </trkpt>
      <trkpt lat="43.68154" lon="6.84257">
        <ele>702</ele>
        <time>2021-05-02T09:32:51.000Z</time>
      </trkpt>
      <trkpt lat="43.68155" lon="6.84256">
        <ele>702.7</ele>
        <time>2021-05-02T09:32:52.000Z</time>
      </trkpt>
      <trkpt lat="43.68156" lon="6.84255">
        <ele>703.2</ele>
        <time>2021-05-02T09:32:53.000Z</time>
      </trkpt>
      <trkpt lat="43.68157" lon="6.84253">
        <ele>703.9</ele>
        <time>2021-05-02T09:32:54.000Z</time>
      </trkpt>
      <trkpt lat="43.68158" lon="6.84251">
        <ele>704.5</ele>
        <time>2021-05-02T09:32:55.000Z</time>
      </trkpt>
      <trkpt lat="43.68159" lon="6.8425">
        <ele>704.9</ele>
        <time>2021-05-02T09:32:56.000Z</time>
      </trkpt>
      <trkpt lat="43.6816" lon="6.84249">
        <ele>705.3</ele>
        <time>2021-05-02T09:32:57.000Z</time>
      </trkpt>
      <trkpt lat="43.68162" lon="6.84247">
        <ele>706</ele>
        <time>2021-05-02T09:32:58.000Z</time>
      </trkpt>
      <trkpt lat="43.68163" lon="6.84246">
        <ele>706.7</ele>
        <time>2021-05-02T09:32:59.000Z</time>
      </trkpt>
      <trkpt lat="43.68164" lon="6.84246">
        <ele>707.7</ele>
        <time>2021-05-02T09:33:01.000Z</time>
      </trkpt>
      <trkpt lat="43.68173" lon="6.84239">
        <ele>713.5</ele>
        <time>2021-05-02T09:33:12.000Z</time>
      </trkpt>
      <trkpt lat="43.68174" lon="6.84239">
        <ele>714.1</ele>
        <time>2021-05-02T09:33:13.000Z</time>
      </trkpt>
      <trkpt lat="43.68177" lon="6.84237">
        <ele>714.6</ele>
        <time>2021-05-02T09:33:14.000Z</time>
      </trkpt>
      <trkpt lat="43.6818" lon="6.84233">
        <ele>714.9</ele>
        <time>2021-05-02T09:33:15.000Z</time>
      </trkpt>
      <trkpt lat="43.68182" lon="6.84232">
        <ele>715.4</ele>
        <time>2021-05-02T09:33:16.000Z</time>
      </trkpt>
      <trkpt lat="43.68184" lon="6.84231">
        <ele>716</ele>
        <time>2021-05-02T09:33:17.000Z</time>
      </trkpt>
      <trkpt lat="43.68185" lon="6.8423">
        <ele>716.4</ele>
        <time>2021-05-02T09:33:18.000Z</time>
      </trkpt>
      <trkpt lat="43.68186" lon="6.84229">
        <ele>716.9</ele>
        <time>2021-05-02T09:33:19.000Z</time>
      </trkpt>
      <trkpt lat="43.68196" lon="6.84222">
        <ele>717.6</ele>
        <time>2021-05-02T09:33:24.000Z</time>
      </trkpt>
      <trkpt lat="43.68198" lon="6.84221">
        <ele>717.4</ele>
        <time>2021-05-02T09:33:25.000Z</time>
      </trkpt>
      <trkpt lat="43.68199" lon="6.8422">
        <ele>717.3</ele>
        <time>2021-05-02T09:33:26.000Z</time>
      </trkpt>
      <trkpt lat="43.68201" lon="6.84219">
        <ele>717.3</ele>
        <time>2021-05-02T09:33:27.000Z</time>
      </trkpt>
      <trkpt lat="43.6821" lon="6.84216">
        <ele>716.7</ele>
        <time>2021-05-02T09:33:33.000Z</time>
      </trkpt>
      <trkpt lat="43.68211" lon="6.84215">
        <ele>716.5</ele>
        <time>2021-05-02T09:33:34.000Z</time>
      </trkpt>
      <trkpt lat="43.68213" lon="6.84215">
        <ele>716.2</ele>
        <time>2021-05-02T09:33:35.000Z</time>
      </trkpt>
      <trkpt lat="43.68214" lon="6.84214">
        <ele>715.8</ele>
        <time>2021-05-02T09:33:37.000Z</time>
      </trkpt>
      <trkpt lat="43.6822" lon="6.84212">
        <ele>714.6</ele>
        <time>2021-05-02T09:33:39.000Z</time>
      </trkpt>
      <trkpt lat="43.68226" lon="6.84212">
        <ele>713.7</ele>
        <time>2021-05-02T09:33:41.000Z</time>
      </trkpt>
      <trkpt lat="43.68228" lon="6.84213">
        <ele>712.9</ele>
        <time>2021-05-02T09:33:42.000Z</time>
      </trkpt>
      <trkpt lat="43.6823" lon="6.84214">
        <ele>712.2</ele>
        <time>2021-05-02T09:33:43.000Z</time>
      </trkpt>
      <trkpt lat="43.68232" lon="6.84215">
        <ele>711.7</ele>
        <time>2021-05-02T09:33:44.000Z</time>
      </trkpt>
      <trkpt lat="43.68236" lon="6.84218">
        <ele>710.2</ele>
        <time>2021-05-02T09:33:46.000Z</time>
      </trkpt>
      <trkpt lat="43.68238" lon="6.8422">
        <ele>709.7</ele>
        <time>2021-05-02T09:33:47.000Z</time>
      </trkpt>
      <trkpt lat="43.6824" lon="6.84223">
        <ele>709.4</ele>
        <time>2021-05-02T09:33:48.000Z</time>
      </trkpt>
      <trkpt lat="43.68241" lon="6.84225">
        <ele>709</ele>
        <time>2021-05-02T09:33:49.000Z</time>
      </trkpt>
      <trkpt lat="43.68243" lon="6.84228">
        <ele>708.4</ele>
        <time>2021-05-02T09:33:50.000Z</time>
      </trkpt>
      <trkpt lat="43.68245" lon="6.84232">
        <ele>706.5</ele>
        <time>2021-05-02T09:33:52.000Z</time>
      </trkpt>
      <trkpt lat="43.68249" lon="6.84236">
        <ele>704.6</ele>
        <time>2021-05-02T09:33:54.000Z</time>
      </trkpt>
      <trkpt lat="43.68254" lon="6.84237">
        <ele>703.1</ele>
        <time>2021-05-02T09:33:56.000Z</time>
      </trkpt>
      <trkpt lat="43.68259" lon="6.84237">
        <ele>701.8</ele>
        <time>2021-05-02T09:33:58.000Z</time>
      </trkpt>
      <trkpt lat="43.68262" lon="6.84238">
        <ele>701</ele>
        <time>2021-05-02T09:33:59.000Z</time>
      </trkpt>
      <trkpt lat="43.68266" lon="6.84239">
        <ele>700.7</ele>
        <time>2021-05-02T09:34:00.000Z</time>
      </trkpt>
      <trkpt lat="43.68273" lon="6.84241">
        <ele>700.6</ele>
        <time>2021-05-02T09:34:02.000Z</time>
      </trkpt>
      <trkpt lat="43.68278" lon="6.84241">
        <ele>700.9</ele>
        <time>2021-05-02T09:34:04.000Z</time>
      </trkpt>
      <trkpt lat="43.68281" lon="6.84242">
        <ele>700.4</ele>
        <time>2021-05-02T09:34:05.000Z</time>
      </trkpt>
      <trkpt lat="43.68284" lon="6.84243">
        <ele>700.2</ele>
        <time>2021-05-02T09:34:06.000Z</time>
      </trkpt>
      <trkpt lat="43.68286" lon="6.84244">
        <ele>699.9</ele>
        <time>2021-05-02T09:34:07.000Z</time>
      </trkpt>
      <trkpt lat="43.68289" lon="6.84245">
        <ele>699.8</ele>
        <time>2021-05-02T09:34:08.000Z</time>
      </trkpt>
      <trkpt lat="43.68295" lon="6.84245">
        <ele>699.6</ele>
        <time>2021-05-02T09:34:10.000Z</time>
      </trkpt>
      <trkpt lat="43.68298" lon="6.84244">
        <ele>699.6</ele>
        <time>2021-05-02T09:34:11.000Z</time>
      </trkpt>
      <trkpt lat="43.68301" lon="6.84243">
        <ele>700.4</ele>
        <time>2021-05-02T09:34:12.000Z</time>
      </trkpt>
      <trkpt lat="43.68304" lon="6.84242">
        <ele>701</ele>
        <time>2021-05-02T09:34:13.000Z</time>
      </trkpt>
      <trkpt lat="43.68306" lon="6.84242">
        <ele>701.8</ele>
        <time>2021-05-02T09:34:14.000Z</time>
      </trkpt>
      <trkpt lat="43.6831" lon="6.84243">
        <ele>701.9</ele>
        <time>2021-05-02T09:34:16.000Z</time>
      </trkpt>
      <trkpt lat="43.68312" lon="6.84244">
        <ele>702.4</ele>
        <time>2021-05-02T09:34:17.000Z</time>
      </trkpt>
      <trkpt lat="43.68314" lon="6.84245">
        <ele>702.8</ele>
        <time>2021-05-02T09:34:18.000Z</time>
      </trkpt>
      <trkpt lat="43.68316" lon="6.84246">
        <ele>703.6</ele>
        <time>2021-05-02T09:34:19.000Z</time>
      </trkpt>
      <trkpt lat="43.68319" lon="6.84247">
        <ele>704.2</ele>
        <time>2021-05-02T09:34:20.000Z</time>
      </trkpt>
      <trkpt lat="43.68325" lon="6.84249">
        <ele>705.6</ele>
        <time>2021-05-02T09:34:22.000Z</time>
      </trkpt>
      <trkpt lat="43.68327" lon="6.8425">
        <ele>706.4</ele>
        <time>2021-05-02T09:34:23.000Z</time>
      </trkpt>
      <trkpt lat="43.6833" lon="6.84252">
        <ele>706.7</ele>
        <time>2021-05-02T09:34:24.000Z</time>
      </trkpt>
      <trkpt lat="43.68334" lon="6.84253">
        <ele>707</ele>
        <time>2021-05-02T09:34:25.000Z</time>
      </trkpt>
      <trkpt lat="43.68337" lon="6.84255">
        <ele>707.5</ele>
        <time>2021-05-02T09:34:26.000Z</time>
      </trkpt>
      <trkpt lat="43.68343" lon="6.84259">
        <ele>706.5</ele>
        <time>2021-05-02T09:34:28.000Z</time>
      </trkpt>
      <trkpt lat="43.68347" lon="6.84261">
        <ele>706.7</ele>
        <time>2021-05-02T09:34:29.000Z</time>
      </trkpt>
      <trkpt lat="43.68351" lon="6.84263">
        <ele>707.1</ele>
        <time>2021-05-02T09:34:30.000Z</time>
      </trkpt>
      <trkpt lat="43.68355" lon="6.84265">
        <ele>706.8</ele>
        <time>2021-05-02T09:34:31.000Z</time>
      </trkpt>
      <trkpt lat="43.68358" lon="6.84268">
        <ele>706.3</ele>
        <time>2021-05-02T09:34:32.000Z</time>
      </trkpt>
      <trkpt lat="43.68365" lon="6.8427">
        <ele>705.8</ele>
        <time>2021-05-02T09:34:34.000Z</time>
      </trkpt>
      <trkpt lat="43.68368" lon="6.84272">
        <ele>705.5</ele>
        <time>2021-05-02T09:34:35.000Z</time>
      </trkpt>
      <trkpt lat="43.68372" lon="6.84273">
        <ele>705.2</ele>
        <time>2021-05-02T09:34:36.000Z</time>
      </trkpt>
      <trkpt lat="43.68375" lon="6.84274">
        <ele>705.2</ele>
        <time>2021-05-02T09:34:37.000Z</time>
      </trkpt>
      <trkpt lat="43.68378" lon="6.84275">
        <ele>705.9</ele>
        <time>2021-05-02T09:34:38.000Z</time>
      </trkpt>
      <trkpt lat="43.68384" lon="6.84276">
        <ele>706</ele>
        <time>2021-05-02T09:34:40.000Z</time>
      </trkpt>
      <trkpt lat="43.68387" lon="6.84277">
        <ele>705.9</ele>
        <time>2021-05-02T09:34:41.000Z</time>
      </trkpt>
      <trkpt lat="43.68389" lon="6.84279">
        <ele>706.1</ele>
        <time>2021-05-02T09:34:42.000Z</time>
      </trkpt>
      <trkpt lat="43.68395" lon="6.84281">
        <ele>705.7</ele>
        <time>2021-05-02T09:34:44.000Z</time>
      </trkpt>
      <trkpt lat="43.684" lon="6.84283">
        <ele>704.5</ele>
        <time>2021-05-02T09:34:46.000Z</time>
      </trkpt>
      <trkpt lat="43.68403" lon="6.84284">
        <ele>704.6</ele>
        <time>2021-05-02T09:34:47.000Z</time>
      </trkpt>
      <trkpt lat="43.68405" lon="6.84285">
        <ele>704.4</ele>
        <time>2021-05-02T09:34:48.000Z</time>
      </trkpt>
      <trkpt lat="43.68408" lon="6.84286">
        <ele>704</ele>
        <time>2021-05-02T09:34:49.000Z</time>
      </trkpt>
      <trkpt lat="43.68411" lon="6.84287">
        <ele>704.6</ele>
        <time>2021-05-02T09:34:50.000Z</time>
      </trkpt>
      <trkpt lat="43.68416" lon="6.8429">
        <ele>705.4</ele>
        <time>2021-05-02T09:34:52.000Z</time>
      </trkpt>
      <trkpt lat="43.68418" lon="6.8429">
        <ele>706.2</ele>
        <time>2021-05-02T09:34:53.000Z</time>
      </trkpt>
      <trkpt lat="43.68421" lon="6.84291">
        <ele>706.9</ele>
        <time>2021-05-02T09:34:54.000Z</time>
      </trkpt>
      <trkpt lat="43.68423" lon="6.84293">
        <ele>707.1</ele>
        <time>2021-05-02T09:34:55.000Z</time>
      </trkpt>
      <trkpt lat="43.68425" lon="6.84295">
        <ele>706.7</ele>
        <time>2021-05-02T09:34:56.000Z</time>
      </trkpt>
      <trkpt lat="43.68429" lon="6.84296">
        <ele>707.2</ele>
        <time>2021-05-02T09:34:58.000Z</time>
      </trkpt>
      <trkpt lat="43.68431" lon="6.84297">
        <ele>706.9</ele>
        <time>2021-05-02T09:34:59.000Z</time>
      </trkpt>
      <trkpt lat="43.68434" lon="6.84298">
        <ele>707.3</ele>
        <time>2021-05-02T09:35:00.000Z</time>
      </trkpt>
      <trkpt lat="43.68436" lon="6.84299">
        <ele>707.3</ele>
        <time>2021-05-02T09:35:01.000Z</time>
      </trkpt>
      <trkpt lat="43.68438" lon="6.843">
        <ele>707.8</ele>
        <time>2021-05-02T09:35:02.000Z</time>
      </trkpt>
      <trkpt lat="43.68442" lon="6.84302">
        <ele>708.3</ele>
        <time>2021-05-02T09:35:04.000Z</time>
      </trkpt>
      <trkpt lat="43.68444" lon="6.84303">
        <ele>708.8</ele>
        <time>2021-05-02T09:35:05.000Z</time>
      </trkpt>
      <trkpt lat="43.68447" lon="6.84304">
        <ele>709.5</ele>
        <time>2021-05-02T09:35:06.000Z</time>
      </trkpt>
      <trkpt lat="43.6845" lon="6.84304">
        <ele>710</ele>
        <time>2021-05-02T09:35:07.000Z</time>
      </trkpt>
      <trkpt lat="43.68452" lon="6.84305">
        <ele>710</ele>
        <time>2021-05-02T09:35:08.000Z</time>
      </trkpt>
      <trkpt lat="43.68456" lon="6.84307">
        <ele>709.1</ele>
        <time>2021-05-02T09:35:10.000Z</time>
      </trkpt>
      <trkpt lat="43.68458" lon="6.84308">
        <ele>709.2</ele>
        <time>2021-05-02T09:35:11.000Z</time>
      </trkpt>
      <trkpt lat="43.6846" lon="6.84308">
        <ele>709.3</ele>
        <time>2021-05-02T09:35:12.000Z</time>
      </trkpt>
      <trkpt lat="43.68461" lon="6.84309">
        <ele>709.1</ele>
        <time>2021-05-02T09:35:13.000Z</time>
      </trkpt>
      <trkpt lat="43.68463" lon="6.84309">
        <ele>709.1</ele>
        <time>2021-05-02T09:35:14.000Z</time>
      </trkpt>
      <trkpt lat="43.68468" lon="6.84309">
        <ele>708.9</ele>
        <time>2021-05-02T09:35:16.000Z</time>
      </trkpt>
      <trkpt lat="43.6847" lon="6.84309">
        <ele>708.9</ele>
        <time>2021-05-02T09:35:17.000Z</time>
      </trkpt>
      <trkpt lat="43.68472" lon="6.8431">
        <ele>708.7</ele>
        <time>2021-05-02T09:35:18.000Z</time>
      </trkpt>
      <trkpt lat="43.68475" lon="6.84311">
        <ele>708.5</ele>
        <time>2021-05-02T09:35:19.000Z</time>
      </trkpt>
      <trkpt lat="43.68477" lon="6.84313">
        <ele>708.5</ele>
        <time>2021-05-02T09:35:20.000Z</time>
      </trkpt>
      <trkpt lat="43.68482" lon="6.84315">
        <ele>708.4</ele>
        <time>2021-05-02T09:35:22.000Z</time>
      </trkpt>
      <trkpt lat="43.68485" lon="6.84316">
        <ele>708.6</ele>
        <time>2021-05-02T09:35:23.000Z</time>
      </trkpt>
      <trkpt lat="43.68488" lon="6.84317">
        <ele>708.8</ele>
        <time>2021-05-02T09:35:24.000Z</time>
      </trkpt>
      <trkpt lat="43.6849" lon="6.84317">
        <ele>709</ele>
        <time>2021-05-02T09:35:25.000Z</time>
      </trkpt>
      <trkpt lat="43.68492" lon="6.84317">
        <ele>709</ele>
        <time>2021-05-02T09:35:26.000Z</time>
      </trkpt>
      <trkpt lat="43.68496" lon="6.8432">
        <ele>709.1</ele>
        <time>2021-05-02T09:35:28.000Z</time>
      </trkpt>
      <trkpt lat="43.68498" lon="6.84321">
        <ele>709.5</ele>
        <time>2021-05-02T09:35:29.000Z</time>
      </trkpt>
      <trkpt lat="43.68501" lon="6.84322">
        <ele>709.5</ele>
        <time>2021-05-02T09:35:30.000Z</time>
      </trkpt>
      <trkpt lat="43.68502" lon="6.84323">
        <ele>709.4</ele>
        <time>2021-05-02T09:35:31.000Z</time>
      </trkpt>
      <trkpt lat="43.68505" lon="6.84323">
        <ele>709.1</ele>
        <time>2021-05-02T09:35:32.000Z</time>
      </trkpt>
      <trkpt lat="43.68506" lon="6.84323">
        <ele>708.9</ele>
        <time>2021-05-02T09:35:33.000Z</time>
      </trkpt>
      <trkpt lat="43.68508" lon="6.84323">
        <ele>708.5</ele>
        <time>2021-05-02T09:35:34.000Z</time>
      </trkpt>
      <trkpt lat="43.6851" lon="6.84324">
        <ele>708.1</ele>
        <time>2021-05-02T09:35:35.000Z</time>
      </trkpt>
      <trkpt lat="43.68513" lon="6.84324">
        <ele>707.4</ele>
        <time>2021-05-02T09:35:36.000Z</time>
      </trkpt>
      <trkpt lat="43.68517" lon="6.84324">
        <ele>707.1</ele>
        <time>2021-05-02T09:35:37.000Z</time>
      </trkpt>
      <trkpt lat="43.68521" lon="6.84324">
        <ele>706.5</ele>
        <time>2021-05-02T09:35:38.000Z</time>
      </trkpt>
      <trkpt lat="43.68527" lon="6.84327">
        <ele>705.2</ele>
        <time>2021-05-02T09:35:40.000Z</time>
      </trkpt>
      <trkpt lat="43.6853" lon="6.84327">
        <ele>704.2</ele>
        <time>2021-05-02T09:35:41.000Z</time>
      </trkpt>
      <trkpt lat="43.68533" lon="6.84327">
        <ele>702.2</ele>
        <time>2021-05-02T09:35:42.000Z</time>
      </trkpt>
      <trkpt lat="43.68536" lon="6.84327">
        <ele>701</ele>
        <time>2021-05-02T09:35:43.000Z</time>
      </trkpt>
      <trkpt lat="43.68539" lon="6.84328">
        <ele>699.5</ele>
        <time>2021-05-02T09:35:44.000Z</time>
      </trkpt>
      <trkpt lat="43.68547" lon="6.84331">
        <ele>697.7</ele>
        <time>2021-05-02T09:35:46.000Z</time>
      </trkpt>
      <trkpt lat="43.68552" lon="6.84332">
        <ele>696.5</ele>
        <time>2021-05-02T09:35:47.000Z</time>
      </trkpt>
      <trkpt lat="43.68557" lon="6.84334">
        <ele>695.4</ele>
        <time>2021-05-02T09:35:48.000Z</time>
      </trkpt>
      <trkpt lat="43.68563" lon="6.84335">
        <ele>694.6</ele>
        <time>2021-05-02T09:35:49.000Z</time>
      </trkpt>
      <trkpt lat="43.68569" lon="6.84337">
        <ele>693.5</ele>
        <time>2021-05-02T09:35:50.000Z</time>
      </trkpt>
      <trkpt lat="43.68582" lon="6.8434">
        <ele>692.3</ele>
        <time>2021-05-02T09:35:52.000Z</time>
      </trkpt>
      <trkpt lat="43.68588" lon="6.84341">
        <ele>691.3</ele>
        <time>2021-05-02T09:35:53.000Z</time>
      </trkpt>
      <trkpt lat="43.68595" lon="6.84342">
        <ele>689.9</ele>
        <time>2021-05-02T09:35:54.000Z</time>
      </trkpt>
      <trkpt lat="43.68601" lon="6.84344">
        <ele>689.1</ele>
        <time>2021-05-02T09:35:55.000Z</time>
      </trkpt>
      <trkpt lat="43.68607" lon="6.84345">
        <ele>688.4</ele>
        <time>2021-05-02T09:35:56.000Z</time>
      </trkpt>
      <trkpt lat="43.6862" lon="6.84345">
        <ele>686.3</ele>
        <time>2021-05-02T09:35:58.000Z</time>
      </trkpt>
      <trkpt lat="43.68627" lon="6.84344">
        <ele>685.9</ele>
        <time>2021-05-02T09:35:59.000Z</time>
      </trkpt>
      <trkpt lat="43.68633" lon="6.84344">
        <ele>685.2</ele>
        <time>2021-05-02T09:36:00.000Z</time>
      </trkpt>
      <trkpt lat="43.68638" lon="6.84346">
        <ele>684.4</ele>
        <time>2021-05-02T09:36:01.000Z</time>
      </trkpt>
      <trkpt lat="43.68643" lon="6.84348">
        <ele>683.6</ele>
        <time>2021-05-02T09:36:02.000Z</time>
      </trkpt>
      <trkpt lat="43.68649" lon="6.84349">
        <ele>682.8</ele>
        <time>2021-05-02T09:36:03.000Z</time>
      </trkpt>
      <trkpt lat="43.68653" lon="6.84349">
        <ele>683</ele>
        <time>2021-05-02T09:36:04.000Z</time>
      </trkpt>
      <trkpt lat="43.68657" lon="6.84349">
        <ele>683.2</ele>
        <time>2021-05-02T09:36:05.000Z</time>
      </trkpt>
      <trkpt lat="43.6866" lon="6.84351">
        <ele>683.1</ele>
        <time>2021-05-02T09:36:06.000Z</time>
      </trkpt>
      <trkpt lat="43.68663" lon="6.84353">
        <ele>682.7</ele>
        <time>2021-05-02T09:36:07.000Z</time>
      </trkpt>
      <trkpt lat="43.68664" lon="6.84355">
        <ele>682.2</ele>
        <time>2021-05-02T09:36:08.000Z</time>
      </trkpt>
      <trkpt lat="43.68665" lon="6.84358">
        <ele>681.2</ele>
        <time>2021-05-02T09:36:09.000Z</time>
      </trkpt>
      <trkpt lat="43.68665" lon="6.8436">
        <ele>680.5</ele>
        <time>2021-05-02T09:36:10.000Z</time>
      </trkpt>
      <trkpt lat="43.68664" lon="6.84367">
        <ele>681.1</ele>
        <time>2021-05-02T09:36:23.000Z</time>
      </trkpt>
      <trkpt lat="43.68664" lon="6.8437">
        <ele>681.1</ele>
        <time>2021-05-02T09:36:24.000Z</time>
      </trkpt>
      <trkpt lat="43.68665" lon="6.84374">
        <ele>681</ele>
        <time>2021-05-02T09:36:25.000Z</time>
      </trkpt>
      <trkpt lat="43.68668" lon="6.84378">
        <ele>680.9</ele>
        <time>2021-05-02T09:36:26.000Z</time>
      </trkpt>
      <trkpt lat="43.68674" lon="6.84383">
        <ele>680.8</ele>
        <time>2021-05-02T09:36:28.000Z</time>
      </trkpt>
      <trkpt lat="43.68677" lon="6.84385">
        <ele>680.6</ele>
        <time>2021-05-02T09:36:29.000Z</time>
      </trkpt>
      <trkpt lat="43.6868" lon="6.84388">
        <ele>680.4</ele>
        <time>2021-05-02T09:36:30.000Z</time>
      </trkpt>
      <trkpt lat="43.68682" lon="6.84391">
        <ele>680.1</ele>
        <time>2021-05-02T09:36:31.000Z</time>
      </trkpt>
      <trkpt lat="43.68683" lon="6.84394">
        <ele>679.8</ele>
        <time>2021-05-02T09:36:32.000Z</time>
      </trkpt>
      <trkpt lat="43.68685" lon="6.84397">
        <ele>680</ele>
        <time>2021-05-02T09:36:33.000Z</time>
      </trkpt>
      <trkpt lat="43.68687" lon="6.84399">
        <ele>680.3</ele>
        <time>2021-05-02T09:36:34.000Z</time>
      </trkpt>
      <trkpt lat="43.68689" lon="6.844">
        <ele>681</ele>
        <time>2021-05-02T09:36:35.000Z</time>
      </trkpt>
      <trkpt lat="43.68691" lon="6.844">
        <ele>682.2</ele>
        <time>2021-05-02T09:36:36.000Z</time>
      </trkpt>
      <trkpt lat="43.68693" lon="6.844">
        <ele>683.1</ele>
        <time>2021-05-02T09:36:37.000Z</time>
      </trkpt>
      <trkpt lat="43.68694" lon="6.84401">
        <ele>683.7</ele>
        <time>2021-05-02T09:36:38.000Z</time>
      </trkpt>
      <trkpt lat="43.68697" lon="6.84403">
        <ele>685.3</ele>
        <time>2021-05-02T09:36:40.000Z</time>
      </trkpt>
      <trkpt lat="43.68699" lon="6.84404">
        <ele>686</ele>
        <time>2021-05-02T09:36:41.000Z</time>
      </trkpt>
      <trkpt lat="43.68701" lon="6.84405">
        <ele>686.6</ele>
        <time>2021-05-02T09:36:42.000Z</time>
      </trkpt>
      <trkpt lat="43.68702" lon="6.84407">
        <ele>687.1</ele>
        <time>2021-05-02T09:36:43.000Z</time>
      </trkpt>
      <trkpt lat="43.68703" lon="6.84409">
        <ele>687.6</ele>
        <time>2021-05-02T09:36:44.000Z</time>
      </trkpt>
      <trkpt lat="43.68704" lon="6.84411">
        <ele>687.9</ele>
        <time>2021-05-02T09:36:45.000Z</time>
      </trkpt>
      <trkpt lat="43.68705" lon="6.84411">
        <ele>688.4</ele>
        <time>2021-05-02T09:36:46.000Z</time>
      </trkpt>
      <trkpt lat="43.68707" lon="6.84411">
        <ele>688.4</ele>
        <time>2021-05-02T09:36:47.000Z</time>
      </trkpt>
      <trkpt lat="43.68708" lon="6.84411">
        <ele>688.6</ele>
        <time>2021-05-02T09:36:48.000Z</time>
      </trkpt>
      <trkpt lat="43.6871" lon="6.84412">
        <ele>688.8</ele>
        <time>2021-05-02T09:36:49.000Z</time>
      </trkpt>
      <trkpt lat="43.68712" lon="6.84412">
        <ele>689.1</ele>
        <time>2021-05-02T09:36:50.000Z</time>
      </trkpt>
      <trkpt lat="43.68713" lon="6.84412">
        <ele>689.4</ele>
        <time>2021-05-02T09:36:51.000Z</time>
      </trkpt>
      <trkpt lat="43.68715" lon="6.84412">
        <ele>689.3</ele>
        <time>2021-05-02T09:36:52.000Z</time>
      </trkpt>
      <trkpt lat="43.68717" lon="6.84412">
        <ele>689.3</ele>
        <time>2021-05-02T09:36:53.000Z</time>
      </trkpt>
      <trkpt lat="43.68718" lon="6.84412">
        <ele>689.3</ele>
        <time>2021-05-02T09:36:54.000Z</time>
      </trkpt>
      <trkpt lat="43.68719" lon="6.84412">
        <ele>689.3</ele>
        <time>2021-05-02T09:36:55.000Z</time>
      </trkpt>
      <trkpt lat="43.6872" lon="6.84411">
        <ele>689.4</ele>
        <time>2021-05-02T09:36:56.000Z</time>
      </trkpt>
      <trkpt lat="43.68721" lon="6.84411">
        <ele>689.6</ele>
        <time>2021-05-02T09:36:57.000Z</time>
      </trkpt>
      <trkpt lat="43.68723" lon="6.84411">
        <ele>690.2</ele>
        <time>2021-05-02T09:36:58.000Z</time>
      </trkpt>
      <trkpt lat="43.68725" lon="6.84411">
        <ele>690.4</ele>
        <time>2021-05-02T09:36:59.000Z</time>
      </trkpt>
      <trkpt lat="43.68726" lon="6.84411">
        <ele>690.5</ele>
        <time>2021-05-02T09:37:00.000Z</time>
      </trkpt>
      <trkpt lat="43.68728" lon="6.84411">
        <ele>690.6</ele>
        <time>2021-05-02T09:37:01.000Z</time>
      </trkpt>
      <trkpt lat="43.68729" lon="6.84411">
        <ele>690.8</ele>
        <time>2021-05-02T09:37:02.000Z</time>
      </trkpt>
      <trkpt lat="43.68731" lon="6.84411">
        <ele>690.9</ele>
        <time>2021-05-02T09:37:03.000Z</time>
      </trkpt>
      <trkpt lat="43.68733" lon="6.84412">
        <ele>691.3</ele>
        <time>2021-05-02T09:37:04.000Z</time>
      </trkpt>
      <trkpt lat="43.68735" lon="6.84412">
        <ele>691.6</ele>
        <time>2021-05-02T09:37:05.000Z</time>
      </trkpt>
      <trkpt lat="43.68737" lon="6.84413">
        <ele>692</ele>
        <time>2021-05-02T09:37:06.000Z</time>
      </trkpt>
      <trkpt lat="43.68739" lon="6.84413">
        <ele>692.3</ele>
        <time>2021-05-02T09:37:07.000Z</time>
      </trkpt>
      <trkpt lat="43.68741" lon="6.84414">
        <ele>692.6</ele>
        <time>2021-05-02T09:37:08.000Z</time>
      </trkpt>
      <trkpt lat="43.68742" lon="6.84414">
        <ele>693.1</ele>
        <time>2021-05-02T09:37:09.000Z</time>
      </trkpt>
      <trkpt lat="43.68744" lon="6.84414">
        <ele>692.9</ele>
        <time>2021-05-02T09:37:10.000Z</time>
      </trkpt>
      <trkpt lat="43.68746" lon="6.84414">
        <ele>693</ele>
        <time>2021-05-02T09:37:11.000Z</time>
      </trkpt>
      <trkpt lat="43.68747" lon="6.84414">
        <ele>693.3</ele>
        <time>2021-05-02T09:37:12.000Z</time>
      </trkpt>
      <trkpt lat="43.68749" lon="6.84414">
        <ele>693.9</ele>
        <time>2021-05-02T09:37:13.000Z</time>
      </trkpt>
      <trkpt lat="43.68752" lon="6.84414">
        <ele>693.9</ele>
        <time>2021-05-02T09:37:14.000Z</time>
      </trkpt>
      <trkpt lat="43.68754" lon="6.84414">
        <ele>694</ele>
        <time>2021-05-02T09:37:15.000Z</time>
      </trkpt>
      <trkpt lat="43.68756" lon="6.84413">
        <ele>694</ele>
        <time>2021-05-02T09:37:16.000Z</time>
      </trkpt>
      <trkpt lat="43.68758" lon="6.84412">
        <ele>694.3</ele>
        <time>2021-05-02T09:37:17.000Z</time>
      </trkpt>
      <trkpt lat="43.68759" lon="6.84412">
        <ele>694.6</ele>
        <time>2021-05-02T09:37:18.000Z</time>
      </trkpt>
      <trkpt lat="43.68761" lon="6.84411">
        <ele>695</ele>
        <time>2021-05-02T09:37:19.000Z</time>
      </trkpt>
      <trkpt lat="43.68762" lon="6.84411">
        <ele>695.5</ele>
        <time>2021-05-02T09:37:20.000Z</time>
      </trkpt>
      <trkpt lat="43.68764" lon="6.8441">
        <ele>695.6</ele>
        <time>2021-05-02T09:37:21.000Z</time>
      </trkpt>
      <trkpt lat="43.68766" lon="6.8441">
        <ele>695.5</ele>
        <time>2021-05-02T09:37:22.000Z</time>
      </trkpt>
      <trkpt lat="43.68767" lon="6.8441">
        <ele>695.6</ele>
        <time>2021-05-02T09:37:23.000Z</time>
      </trkpt>
      <trkpt lat="43.68769" lon="6.8441">
        <ele>695.8</ele>
        <time>2021-05-02T09:37:24.000Z</time>
      </trkpt>
      <trkpt lat="43.68771" lon="6.84409">
        <ele>695.7</ele>
        <time>2021-05-02T09:37:25.000Z</time>
      </trkpt>
      <trkpt lat="43.68772" lon="6.84409">
        <ele>695.5</ele>
        <time>2021-05-02T09:37:26.000Z</time>
      </trkpt>
      <trkpt lat="43.68775" lon="6.84408">
        <ele>695.3</ele>
        <time>2021-05-02T09:37:27.000Z</time>
      </trkpt>
      <trkpt lat="43.68777" lon="6.84409">
        <ele>694.8</ele>
        <time>2021-05-02T09:37:28.000Z</time>
      </trkpt>
      <trkpt lat="43.68779" lon="6.84409">
        <ele>694.5</ele>
        <time>2021-05-02T09:37:29.000Z</time>
      </trkpt>
      <trkpt lat="43.68782" lon="6.84409">
        <ele>694.7</ele>
        <time>2021-05-02T09:37:30.000Z</time>
      </trkpt>
      <trkpt lat="43.68784" lon="6.84409">
        <ele>694.5</ele>
        <time>2021-05-02T09:37:31.000Z</time>
      </trkpt>
      <trkpt lat="43.68786" lon="6.84409">
        <ele>694.9</ele>
        <time>2021-05-02T09:37:32.000Z</time>
      </trkpt>
      <trkpt lat="43.68788" lon="6.84409">
        <ele>695.2</ele>
        <time>2021-05-02T09:37:33.000Z</time>
      </trkpt>
      <trkpt lat="43.68789" lon="6.84409">
        <ele>695.4</ele>
        <time>2021-05-02T09:37:34.000Z</time>
      </trkpt>
      <trkpt lat="43.68791" lon="6.84409">
        <ele>695.7</ele>
        <time>2021-05-02T09:37:35.000Z</time>
      </trkpt>
      <trkpt lat="43.68793" lon="6.84409">
        <ele>695.9</ele>
        <time>2021-05-02T09:37:36.000Z</time>
      </trkpt>
      <trkpt lat="43.68795" lon="6.84409">
        <ele>696.2</ele>
        <time>2021-05-02T09:37:37.000Z</time>
      </trkpt>
      <trkpt lat="43.68797" lon="6.84409">
        <ele>696.4</ele>
        <time>2021-05-02T09:37:38.000Z</time>
      </trkpt>
      <trkpt lat="43.68799" lon="6.8441">
        <ele>696.7</ele>
        <time>2021-05-02T09:37:39.000Z</time>
      </trkpt>
      <trkpt lat="43.68801" lon="6.8441">
        <ele>696.8</ele>
        <time>2021-05-02T09:37:40.000Z</time>
      </trkpt>
      <trkpt lat="43.68804" lon="6.8441">
        <ele>697.1</ele>
        <time>2021-05-02T09:37:41.000Z</time>
      </trkpt>
      <trkpt lat="43.68806" lon="6.84409">
        <ele>697.4</ele>
        <time>2021-05-02T09:37:42.000Z</time>
      </trkpt>
      <trkpt lat="43.68809" lon="6.84408">
        <ele>697.4</ele>
        <time>2021-05-02T09:37:43.000Z</time>
      </trkpt>
      <trkpt lat="43.68812" lon="6.84407">
        <ele>697.2</ele>
        <time>2021-05-02T09:37:44.000Z</time>
      </trkpt>
      <trkpt lat="43.68815" lon="6.84407">
        <ele>696.9</ele>
        <time>2021-05-02T09:37:45.000Z</time>
      </trkpt>
      <trkpt lat="43.68818" lon="6.84406">
        <ele>697.2</ele>
        <time>2021-05-02T09:37:46.000Z</time>
      </trkpt>
      <trkpt lat="43.68821" lon="6.84406">
        <ele>697.7</ele>
        <time>2021-05-02T09:37:47.000Z</time>
      </trkpt>
      <trkpt lat="43.68824" lon="6.84406">
        <ele>698.3</ele>
        <time>2021-05-02T09:37:48.000Z</time>
      </trkpt>
      <trkpt lat="43.68827" lon="6.84406">
        <ele>698.9</ele>
        <time>2021-05-02T09:37:49.000Z</time>
      </trkpt>
      <trkpt lat="43.6883" lon="6.84406">
        <ele>699.5</ele>
        <time>2021-05-02T09:37:50.000Z</time>
      </trkpt>
      <trkpt lat="43.68833" lon="6.84406">
        <ele>699.9</ele>
        <time>2021-05-02T09:37:51.000Z</time>
      </trkpt>
      <trkpt lat="43.68836" lon="6.84405">
        <ele>700.6</ele>
        <time>2021-05-02T09:37:52.000Z</time>
      </trkpt>
      <trkpt lat="43.68838" lon="6.84404">
        <ele>701.3</ele>
        <time>2021-05-02T09:37:53.000Z</time>
      </trkpt>
      <trkpt lat="43.68841" lon="6.84404">
        <ele>701.9</ele>
        <time>2021-05-02T09:37:54.000Z</time>
      </trkpt>
      <trkpt lat="43.68844" lon="6.84403">
        <ele>702.5</ele>
        <time>2021-05-02T09:37:55.000Z</time>
      </trkpt>
      <trkpt lat="43.68846" lon="6.84403">
        <ele>703.2</ele>
        <time>2021-05-02T09:37:56.000Z</time>
      </trkpt>
      <trkpt lat="43.68849" lon="6.84403">
        <ele>703.9</ele>
        <time>2021-05-02T09:37:57.000Z</time>
      </trkpt>
      <trkpt lat="43.68852" lon="6.84403">
        <ele>704.3</ele>
        <time>2021-05-02T09:37:58.000Z</time>
      </trkpt>
      <trkpt lat="43.68854" lon="6.84402">
        <ele>704.8</ele>
        <time>2021-05-02T09:37:59.000Z</time>
      </trkpt>
      <trkpt lat="43.68857" lon="6.84401">
        <ele>704.6</ele>
        <time>2021-05-02T09:38:00.000Z</time>
      </trkpt>
      <trkpt lat="43.68861" lon="6.84401">
        <ele>704.1</ele>
        <time>2021-05-02T09:38:01.000Z</time>
      </trkpt>
      <trkpt lat="43.68864" lon="6.84401">
        <ele>704</ele>
        <time>2021-05-02T09:38:02.000Z</time>
      </trkpt>
      <trkpt lat="43.68867" lon="6.844">
        <ele>704.2</ele>
        <time>2021-05-02T09:38:03.000Z</time>
      </trkpt>
      <trkpt lat="43.6887" lon="6.84401">
        <ele>705</ele>
        <time>2021-05-02T09:38:04.000Z</time>
      </trkpt>
      <trkpt lat="43.68873" lon="6.84401">
        <ele>704.8</ele>
        <time>2021-05-02T09:38:05.000Z</time>
      </trkpt>
      <trkpt lat="43.68877" lon="6.84402">
        <ele>703.1</ele>
        <time>2021-05-02T09:38:06.000Z</time>
      </trkpt>
      <trkpt lat="43.68881" lon="6.84401">
        <ele>703.6</ele>
        <time>2021-05-02T09:38:07.000Z</time>
      </trkpt>
      <trkpt lat="43.68885" lon="6.844">
        <ele>703.2</ele>
        <time>2021-05-02T09:38:08.000Z</time>
      </trkpt>
      <trkpt lat="43.68889" lon="6.84399">
        <ele>703.5</ele>
        <time>2021-05-02T09:38:09.000Z</time>
      </trkpt>
      <trkpt lat="43.68893" lon="6.84399">
        <ele>703.2</ele>
        <time>2021-05-02T09:38:10.000Z</time>
      </trkpt>
      <trkpt lat="43.68896" lon="6.84398">
        <ele>702.5</ele>
        <time>2021-05-02T09:38:11.000Z</time>
      </trkpt>
      <trkpt lat="43.689" lon="6.84397">
        <ele>702.4</ele>
        <time>2021-05-02T09:38:12.000Z</time>
      </trkpt>
      <trkpt lat="43.68903" lon="6.84395">
        <ele>702.6</ele>
        <time>2021-05-02T09:38:13.000Z</time>
      </trkpt>
      <trkpt lat="43.68907" lon="6.84394">
        <ele>703</ele>
        <time>2021-05-02T09:38:14.000Z</time>
      </trkpt>
      <trkpt lat="43.68911" lon="6.84393">
        <ele>702.4</ele>
        <time>2021-05-02T09:38:15.000Z</time>
      </trkpt>
      <trkpt lat="43.68915" lon="6.84391">
        <ele>702.3</ele>
        <time>2021-05-02T09:38:16.000Z</time>
      </trkpt>
      <trkpt lat="43.68919" lon="6.8439">
        <ele>701.8</ele>
        <time>2021-05-02T09:38:17.000Z</time>
      </trkpt>
      <trkpt lat="43.68924" lon="6.84388">
        <ele>700.8</ele>
        <time>2021-05-02T09:38:18.000Z</time>
      </trkpt>
      <trkpt lat="43.68928" lon="6.84386">
        <ele>700.3</ele>
        <time>2021-05-02T09:38:19.000Z</time>
      </trkpt>
      <trkpt lat="43.68932" lon="6.84384">
        <ele>699.4</ele>
        <time>2021-05-02T09:38:20.000Z</time>
      </trkpt>
      <trkpt lat="43.68936" lon="6.84383">
        <ele>698.8</ele>
        <time>2021-05-02T09:38:21.000Z</time>
      </trkpt>
      <trkpt lat="43.68941" lon="6.84381">
        <ele>698.4</ele>
        <time>2021-05-02T09:38:22.000Z</time>
      </trkpt>
      <trkpt lat="43.68945" lon="6.84378">
        <ele>698</ele>
        <time>2021-05-02T09:38:23.000Z</time>
      </trkpt>
      <trkpt lat="43.68949" lon="6.84377">
        <ele>697.3</ele>
        <time>2021-05-02T09:38:24.000Z</time>
      </trkpt>
      <trkpt lat="43.68954" lon="6.84376">
        <ele>697.2</ele>
        <time>2021-05-02T09:38:25.000Z</time>
      </trkpt>
      <trkpt lat="43.68958" lon="6.84374">
        <ele>697.3</ele>
        <time>2021-05-02T09:38:26.000Z</time>
      </trkpt>
      <trkpt lat="43.68962" lon="6.84373">
        <ele>696.9</ele>
        <time>2021-05-02T09:38:27.000Z</time>
      </trkpt>
      <trkpt lat="43.68965" lon="6.84371">
        <ele>696.8</ele>
        <time>2021-05-02T09:38:28.000Z</time>
      </trkpt>
      <trkpt lat="43.68969" lon="6.8437">
        <ele>696.9</ele>
        <time>2021-05-02T09:38:29.000Z</time>
      </trkpt>
      <trkpt lat="43.68973" lon="6.84368">
        <ele>696.9</ele>
        <time>2021-05-02T09:38:30.000Z</time>
      </trkpt>
      <trkpt lat="43.68976" lon="6.84366">
        <ele>697.3</ele>
        <time>2021-05-02T09:38:31.000Z</time>
      </trkpt>
      <trkpt lat="43.6898" lon="6.84365">
        <ele>697</ele>
        <time>2021-05-02T09:38:32.000Z</time>
      </trkpt>
      <trkpt lat="43.68983" lon="6.84364">
        <ele>697.2</ele>
        <time>2021-05-02T09:38:33.000Z</time>
      </trkpt>
      <trkpt lat="43.68987" lon="6.84364">
        <ele>696.9</ele>
        <time>2021-05-02T09:38:34.000Z</time>
      </trkpt>
      <trkpt lat="43.6899" lon="6.84364">
        <ele>697.1</ele>
        <time>2021-05-02T09:38:35.000Z</time>
      </trkpt>
      <trkpt lat="43.68994" lon="6.84364">
        <ele>697.5</ele>
        <time>2021-05-02T09:38:36.000Z</time>
      </trkpt>
      <trkpt lat="43.68998" lon="6.84363">
        <ele>697</ele>
        <time>2021-05-02T09:38:37.000Z</time>
      </trkpt>
      <trkpt lat="43.69003" lon="6.84361">
        <ele>697.4</ele>
        <time>2021-05-02T09:38:38.000Z</time>
      </trkpt>
      <trkpt lat="43.69008" lon="6.84359">
        <ele>698.4</ele>
        <time>2021-05-02T09:38:39.000Z</time>
      </trkpt>
      <trkpt lat="43.69013" lon="6.84356">
        <ele>698.5</ele>
        <time>2021-05-02T09:38:40.000Z</time>
      </trkpt>
      <trkpt lat="43.69018" lon="6.84353">
        <ele>698.6</ele>
        <time>2021-05-02T09:38:41.000Z</time>
      </trkpt>
      <trkpt lat="43.69022" lon="6.8435">
        <ele>699.3</ele>
        <time>2021-05-02T09:38:42.000Z</time>
      </trkpt>
      <trkpt lat="43.69025" lon="6.84347">
        <ele>699.2</ele>
        <time>2021-05-02T09:38:43.000Z</time>
      </trkpt>
      <trkpt lat="43.69029" lon="6.84344">
        <ele>699</ele>
        <time>2021-05-02T09:38:44.000Z</time>
      </trkpt>
      <trkpt lat="43.69031" lon="6.84342">
        <ele>699.5</ele>
        <time>2021-05-02T09:38:45.000Z</time>
      </trkpt>
      <trkpt lat="43.69033" lon="6.8434">
        <ele>699.1</ele>
        <time>2021-05-02T09:38:46.000Z</time>
      </trkpt>
      <trkpt lat="43.69034" lon="6.84338">
        <ele>698.4</ele>
        <time>2021-05-02T09:38:47.000Z</time>
      </trkpt>
      <trkpt lat="43.69036" lon="6.84337">
        <ele>697.9</ele>
        <time>2021-05-02T09:38:48.000Z</time>
      </trkpt>
      <trkpt lat="43.69037" lon="6.84336">
        <ele>697.6</ele>
        <time>2021-05-02T09:38:49.000Z</time>
      </trkpt>
      <trkpt lat="43.69037" lon="6.84334">
        <ele>697.2</ele>
        <time>2021-05-02T09:38:50.000Z</time>
      </trkpt>
      <trkpt lat="43.69042" lon="6.84323">
        <ele>697.1</ele>
        <time>2021-05-02T09:40:08.000Z</time>
      </trkpt>
      <trkpt lat="43.69043" lon="6.8432">
        <ele>697.4</ele>
        <time>2021-05-02T09:40:09.000Z</time>
      </trkpt>
      <trkpt lat="43.69045" lon="6.84316">
        <ele>697.8</ele>
        <time>2021-05-02T09:40:10.000Z</time>
      </trkpt>
      <trkpt lat="43.69046" lon="6.8431">
        <ele>698.1</ele>
        <time>2021-05-02T09:40:11.000Z</time>
      </trkpt>
      <trkpt lat="43.69046" lon="6.84305">
        <ele>698.2</ele>
        <time>2021-05-02T09:40:12.000Z</time>
      </trkpt>
      <trkpt lat="43.69047" lon="6.84299">
        <ele>697.7</ele>
        <time>2021-05-02T09:40:13.000Z</time>
      </trkpt>
      <trkpt lat="43.69047" lon="6.84293">
        <ele>697.2</ele>
        <time>2021-05-02T09:40:14.000Z</time>
      </trkpt>
      <trkpt lat="43.69048" lon="6.84287">
        <ele>697.2</ele>
        <time>2021-05-02T09:40:15.000Z</time>
      </trkpt>
      <trkpt lat="43.69049" lon="6.8428">
        <ele>697</ele>
        <time>2021-05-02T09:40:16.000Z</time>
      </trkpt>
      <trkpt lat="43.6905" lon="6.84274">
        <ele>697.1</ele>
        <time>2021-05-02T09:40:17.000Z</time>
      </trkpt>
      <trkpt lat="43.69051" lon="6.84267">
        <ele>696.8</ele>
        <time>2021-05-02T09:40:18.000Z</time>
      </trkpt>
      <trkpt lat="43.69053" lon="6.8426">
        <ele>696.5</ele>
        <time>2021-05-02T09:40:19.000Z</time>
      </trkpt>
      <trkpt lat="43.69057" lon="6.84255">
        <ele>696.6</ele>
        <time>2021-05-02T09:40:20.000Z</time>
      </trkpt>
      <trkpt lat="43.69062" lon="6.84251">
        <ele>697.1</ele>
        <time>2021-05-02T09:40:21.000Z</time>
      </trkpt>
      <trkpt lat="43.69066" lon="6.84248">
        <ele>697.5</ele>
        <time>2021-05-02T09:40:22.000Z</time>
      </trkpt>
      <trkpt lat="43.69071" lon="6.84247">
        <ele>698.6</ele>
        <time>2021-05-02T09:40:23.000Z</time>
      </trkpt>
      <trkpt lat="43.69075" lon="6.84246">
        <ele>699.1</ele>
        <time>2021-05-02T09:40:24.000Z</time>
      </trkpt>
      <trkpt lat="43.69079" lon="6.84246">
        <ele>700.3</ele>
        <time>2021-05-02T09:40:25.000Z</time>
      </trkpt>
      <trkpt lat="43.69083" lon="6.84247">
        <ele>701</ele>
        <time>2021-05-02T09:40:26.000Z</time>
      </trkpt>
      <trkpt lat="43.69086" lon="6.84247">
        <ele>701.7</ele>
        <time>2021-05-02T09:40:27.000Z</time>
      </trkpt>
      <trkpt lat="43.69089" lon="6.84248">
        <ele>702</ele>
        <time>2021-05-02T09:40:28.000Z</time>
      </trkpt>
      <trkpt lat="43.69092" lon="6.84248">
        <ele>701.8</ele>
        <time>2021-05-02T09:40:29.000Z</time>
      </trkpt>
      <trkpt lat="43.69095" lon="6.84248">
        <ele>701.5</ele>
        <time>2021-05-02T09:40:30.000Z</time>
      </trkpt>
      <trkpt lat="43.69097" lon="6.84248">
        <ele>701.3</ele>
        <time>2021-05-02T09:40:31.000Z</time>
      </trkpt>
      <trkpt lat="43.691" lon="6.84248">
        <ele>701.3</ele>
        <time>2021-05-02T09:40:32.000Z</time>
      </trkpt>
      <trkpt lat="43.69102" lon="6.84247">
        <ele>701</ele>
        <time>2021-05-02T09:40:33.000Z</time>
      </trkpt>
      <trkpt lat="43.69105" lon="6.84248">
        <ele>701.4</ele>
        <time>2021-05-02T09:40:34.000Z</time>
      </trkpt>
      <trkpt lat="43.69108" lon="6.84248">
        <ele>701.9</ele>
        <time>2021-05-02T09:40:35.000Z</time>
      </trkpt>
      <trkpt lat="43.69111" lon="6.84248">
        <ele>702.3</ele>
        <time>2021-05-02T09:40:36.000Z</time>
      </trkpt>
      <trkpt lat="43.69114" lon="6.84248">
        <ele>702.1</ele>
        <time>2021-05-02T09:40:37.000Z</time>
      </trkpt>
      <trkpt lat="43.69117" lon="6.84249">
        <ele>701.7</ele>
        <time>2021-05-02T09:40:38.000Z</time>
      </trkpt>
      <trkpt lat="43.6912" lon="6.84249">
        <ele>700.8</ele>
        <time>2021-05-02T09:40:39.000Z</time>
      </trkpt>
      <trkpt lat="43.69124" lon="6.84248">
        <ele>700.7</ele>
        <time>2021-05-02T09:40:40.000Z</time>
      </trkpt>
      <trkpt lat="43.69127" lon="6.84247">
        <ele>700.3</ele>
        <time>2021-05-02T09:40:41.000Z</time>
      </trkpt>
      <trkpt lat="43.69131" lon="6.84246">
        <ele>700.3</ele>
        <time>2021-05-02T09:40:42.000Z</time>
      </trkpt>
      <trkpt lat="43.69135" lon="6.84245">
        <ele>700.2</ele>
        <time>2021-05-02T09:40:43.000Z</time>
      </trkpt>
      <trkpt lat="43.69139" lon="6.84244">
        <ele>700</ele>
        <time>2021-05-02T09:40:44.000Z</time>
      </trkpt>
      <trkpt lat="43.69144" lon="6.84242">
        <ele>699.9</ele>
        <time>2021-05-02T09:40:45.000Z</time>
      </trkpt>
      <trkpt lat="43.69149" lon="6.84239">
        <ele>699.7</ele>
        <time>2021-05-02T09:40:46.000Z</time>
      </trkpt>
      <trkpt lat="43.69154" lon="6.84236">
        <ele>700.1</ele>
        <time>2021-05-02T09:40:47.000Z</time>
      </trkpt>
      <trkpt lat="43.69159" lon="6.84233">
        <ele>699.4</ele>
        <time>2021-05-02T09:40:48.000Z</time>
      </trkpt>
      <trkpt lat="43.69164" lon="6.84229">
        <ele>698.3</ele>
        <time>2021-05-02T09:40:49.000Z</time>
      </trkpt>
      <trkpt lat="43.69169" lon="6.84225">
        <ele>697.1</ele>
        <time>2021-05-02T09:40:50.000Z</time>
      </trkpt>
      <trkpt lat="43.69174" lon="6.84221">
        <ele>696.2</ele>
        <time>2021-05-02T09:40:51.000Z</time>
      </trkpt>
      <trkpt lat="43.6918" lon="6.84217">
        <ele>694.9</ele>
        <time>2021-05-02T09:40:52.000Z</time>
      </trkpt>
      <trkpt lat="43.69186" lon="6.84213">
        <ele>693.5</ele>
        <time>2021-05-02T09:40:53.000Z</time>
      </trkpt>
      <trkpt lat="43.69192" lon="6.84208">
        <ele>692.4</ele>
        <time>2021-05-02T09:40:54.000Z</time>
      </trkpt>
      <trkpt lat="43.69199" lon="6.84204">
        <ele>691.2</ele>
        <time>2021-05-02T09:40:55.000Z</time>
      </trkpt>
      <trkpt lat="43.69206" lon="6.84201">
        <ele>690.2</ele>
        <time>2021-05-02T09:40:56.000Z</time>
      </trkpt>
      <trkpt lat="43.69214" lon="6.84196">
        <ele>688.5</ele>
        <time>2021-05-02T09:40:57.000Z</time>
      </trkpt>
      <trkpt lat="43.69224" lon="6.84192">
        <ele>687</ele>
        <time>2021-05-02T09:40:58.000Z</time>
      </trkpt>
      <trkpt lat="43.69234" lon="6.84188">
        <ele>686</ele>
        <time>2021-05-02T09:40:59.000Z</time>
      </trkpt>
      <trkpt lat="43.69243" lon="6.84185">
        <ele>685.5</ele>
        <time>2021-05-02T09:41:00.000Z</time>
      </trkpt>
      <trkpt lat="43.69253" lon="6.84183">
        <ele>683.8</ele>
        <time>2021-05-02T09:41:01.000Z</time>
      </trkpt>
      <trkpt lat="43.69262" lon="6.84182">
        <ele>683.2</ele>
        <time>2021-05-02T09:41:02.000Z</time>
      </trkpt>
      <trkpt lat="43.69274" lon="6.84179">
        <ele>682</ele>
        <time>2021-05-02T09:41:03.000Z</time>
      </trkpt>
      <trkpt lat="43.69283" lon="6.84175">
        <ele>680.5</ele>
        <time>2021-05-02T09:41:04.000Z</time>
      </trkpt>
      <trkpt lat="43.69293" lon="6.84172">
        <ele>681.1</ele>
        <time>2021-05-02T09:41:05.000Z</time>
      </trkpt>
      <trkpt lat="43.69302" lon="6.8417">
        <ele>682.1</ele>
        <time>2021-05-02T09:41:06.000Z</time>
      </trkpt>
      <trkpt lat="43.6931" lon="6.84168">
        <ele>682</ele>
        <time>2021-05-02T09:41:07.000Z</time>
      </trkpt>
      <trkpt lat="43.69318" lon="6.84165">
        <ele>681.3</ele>
        <time>2021-05-02T09:41:08.000Z</time>
      </trkpt>
      <trkpt lat="43.69323" lon="6.84159">
        <ele>681.5</ele>
        <time>2021-05-02T09:41:09.000Z</time>
      </trkpt>
      <trkpt lat="43.69327" lon="6.84153">
        <ele>680.2</ele>
        <time>2021-05-02T09:41:10.000Z</time>
      </trkpt>
      <trkpt lat="43.69332" lon="6.84146">
        <ele>678.6</ele>
        <time>2021-05-02T09:41:11.000Z</time>
      </trkpt>
      <trkpt lat="43.69335" lon="6.84139">
        <ele>677.2</ele>
        <time>2021-05-02T09:41:12.000Z</time>
      </trkpt>
      <trkpt lat="43.69338" lon="6.84132">
        <ele>676.1</ele>
        <time>2021-05-02T09:41:13.000Z</time>
      </trkpt>
      <trkpt lat="43.69341" lon="6.84125">
        <ele>675.4</ele>
        <time>2021-05-02T09:41:14.000Z</time>
      </trkpt>
      <trkpt lat="43.69344" lon="6.84119">
        <ele>675</ele>
        <time>2021-05-02T09:41:15.000Z</time>
      </trkpt>
      <trkpt lat="43.69347" lon="6.84113">
        <ele>674.6</ele>
        <time>2021-05-02T09:41:16.000Z</time>
      </trkpt>
      <trkpt lat="43.69351" lon="6.84108">
        <ele>674.6</ele>
        <time>2021-05-02T09:41:17.000Z</time>
      </trkpt>
      <trkpt lat="43.69356" lon="6.84103">
        <ele>674.2</ele>
        <time>2021-05-02T09:41:18.000Z</time>
      </trkpt>
      <trkpt lat="43.69361" lon="6.84099">
        <ele>673.9</ele>
        <time>2021-05-02T09:41:19.000Z</time>
      </trkpt>
      <trkpt lat="43.69366" lon="6.84096">
        <ele>673.4</ele>
        <time>2021-05-02T09:41:20.000Z</time>
      </trkpt>
      <trkpt lat="43.6937" lon="6.84093">
        <ele>673.2</ele>
        <time>2021-05-02T09:41:21.000Z</time>
      </trkpt>
      <trkpt lat="43.69375" lon="6.84089">
        <ele>673.5</ele>
        <time>2021-05-02T09:41:22.000Z</time>
      </trkpt>
      <trkpt lat="43.69379" lon="6.84086">
        <ele>675</ele>
        <time>2021-05-02T09:41:23.000Z</time>
      </trkpt>
      <trkpt lat="43.69383" lon="6.84082">
        <ele>675.8</ele>
        <time>2021-05-02T09:41:24.000Z</time>
      </trkpt>
      <trkpt lat="43.69387" lon="6.84079">
        <ele>676.4</ele>
        <time>2021-05-02T09:41:25.000Z</time>
      </trkpt>
      <trkpt lat="43.69391" lon="6.84075">
        <ele>676.7</ele>
        <time>2021-05-02T09:41:26.000Z</time>
      </trkpt>
      <trkpt lat="43.69394" lon="6.84071">
        <ele>677.4</ele>
        <time>2021-05-02T09:41:27.000Z</time>
      </trkpt>
      <trkpt lat="43.69398" lon="6.84067">
        <ele>677.7</ele>
        <time>2021-05-02T09:41:28.000Z</time>
      </trkpt>
      <trkpt lat="43.69402" lon="6.84063">
        <ele>677.9</ele>
        <time>2021-05-02T09:41:29.000Z</time>
      </trkpt>
      <trkpt lat="43.69405" lon="6.84059">
        <ele>678.3</ele>
        <time>2021-05-02T09:41:30.000Z</time>
      </trkpt>
      <trkpt lat="43.69408" lon="6.84055">
        <ele>678.8</ele>
        <time>2021-05-02T09:41:31.000Z</time>
      </trkpt>
      <trkpt lat="43.69412" lon="6.84052">
        <ele>679.2</ele>
        <time>2021-05-02T09:41:32.000Z</time>
      </trkpt>
      <trkpt lat="43.69415" lon="6.84048">
        <ele>679.7</ele>
        <time>2021-05-02T09:41:33.000Z</time>
      </trkpt>
      <trkpt lat="43.69418" lon="6.84044">
        <ele>679.9</ele>
        <time>2021-05-02T09:41:34.000Z</time>
      </trkpt>
      <trkpt lat="43.69421" lon="6.8404">
        <ele>680.7</ele>
        <time>2021-05-02T09:41:35.000Z</time>
      </trkpt>
      <trkpt lat="43.69424" lon="6.84036">
        <ele>682.3</ele>
        <time>2021-05-02T09:41:36.000Z</time>
      </trkpt>
      <trkpt lat="43.69427" lon="6.84033">
        <ele>682.5</ele>
        <time>2021-05-02T09:41:37.000Z</time>
      </trkpt>
      <trkpt lat="43.69431" lon="6.84031">
        <ele>682.7</ele>
        <time>2021-05-02T09:41:38.000Z</time>
      </trkpt>
      <trkpt lat="43.69435" lon="6.84028">
        <ele>683.1</ele>
        <time>2021-05-02T09:41:39.000Z</time>
      </trkpt>
      <trkpt lat="43.69438" lon="6.84026">
        <ele>683.4</ele>
        <time>2021-05-02T09:41:40.000Z</time>
      </trkpt>
      <trkpt lat="43.69442" lon="6.84024">
        <ele>683.9</ele>
        <time>2021-05-02T09:41:41.000Z</time>
      </trkpt>
      <trkpt lat="43.69446" lon="6.84024">
        <ele>684.4</ele>
        <time>2021-05-02T09:41:42.000Z</time>
      </trkpt>
      <trkpt lat="43.6945" lon="6.84024">
        <ele>685.2</ele>
        <time>2021-05-02T09:41:43.000Z</time>
      </trkpt>
      <trkpt lat="43.69454" lon="6.84025">
        <ele>685.9</ele>
        <time>2021-05-02T09:41:44.000Z</time>
      </trkpt>
      <trkpt lat="43.69457" lon="6.84026">
        <ele>686.2</ele>
        <time>2021-05-02T09:41:45.000Z</time>
      </trkpt>
      <trkpt lat="43.69459" lon="6.84028">
        <ele>686.2</ele>
        <time>2021-05-02T09:41:46.000Z</time>
      </trkpt>
      <trkpt lat="43.69462" lon="6.8403">
        <ele>686.9</ele>
        <time>2021-05-02T09:41:47.000Z</time>
      </trkpt>
      <trkpt lat="43.69464" lon="6.84032">
        <ele>687.3</ele>
        <time>2021-05-02T09:41:48.000Z</time>
      </trkpt>
      <trkpt lat="43.69466" lon="6.84033">
        <ele>686.9</ele>
        <time>2021-05-02T09:41:49.000Z</time>
      </trkpt>
      <trkpt lat="43.69467" lon="6.84034">
        <ele>686.2</ele>
        <time>2021-05-02T09:41:50.000Z</time>
      </trkpt>
      <trkpt lat="43.69468" lon="6.84033">
        <ele>685.7</ele>
        <time>2021-05-02T09:41:51.000Z</time>
      </trkpt>
      <trkpt lat="43.69469" lon="6.84032">
        <ele>685.4</ele>
        <time>2021-05-02T09:41:52.000Z</time>
      </trkpt>
      <trkpt lat="43.69471" lon="6.84031">
        <ele>684.8</ele>
        <time>2021-05-02T09:41:53.000Z</time>
      </trkpt>
      <trkpt lat="43.69474" lon="6.84031">
        <ele>684.6</ele>
        <time>2021-05-02T09:41:54.000Z</time>
      </trkpt>
      <trkpt lat="43.69476" lon="6.8403">
        <ele>684.5</ele>
        <time>2021-05-02T09:41:55.000Z</time>
      </trkpt>
      <trkpt lat="43.69479" lon="6.8403">
        <ele>684.7</ele>
        <time>2021-05-02T09:41:56.000Z</time>
      </trkpt>
      <trkpt lat="43.69481" lon="6.8403">
        <ele>684.9</ele>
        <time>2021-05-02T09:41:57.000Z</time>
      </trkpt>
      <trkpt lat="43.69483" lon="6.84029">
        <ele>685.3</ele>
        <time>2021-05-02T09:41:58.000Z</time>
      </trkpt>
      <trkpt lat="43.69484" lon="6.84027">
        <ele>685.7</ele>
        <time>2021-05-02T09:41:59.000Z</time>
      </trkpt>
      <trkpt lat="43.69487" lon="6.84027">
        <ele>686.1</ele>
        <time>2021-05-02T09:42:00.000Z</time>
      </trkpt>
      <trkpt lat="43.69489" lon="6.84026">
        <ele>687</ele>
        <time>2021-05-02T09:42:01.000Z</time>
      </trkpt>
      <trkpt lat="43.69493" lon="6.84026">
        <ele>687.7</ele>
        <time>2021-05-02T09:42:02.000Z</time>
      </trkpt>
      <trkpt lat="43.69496" lon="6.84026">
        <ele>688.5</ele>
        <time>2021-05-02T09:42:03.000Z</time>
      </trkpt>
      <trkpt lat="43.695" lon="6.84026">
        <ele>689.1</ele>
        <time>2021-05-02T09:42:04.000Z</time>
      </trkpt>
      <trkpt lat="43.69503" lon="6.84025">
        <ele>689.6</ele>
        <time>2021-05-02T09:42:05.000Z</time>
      </trkpt>
      <trkpt lat="43.69507" lon="6.84025">
        <ele>690</ele>
        <time>2021-05-02T09:42:06.000Z</time>
      </trkpt>
      <trkpt lat="43.6951" lon="6.84024">
        <ele>690.9</ele>
        <time>2021-05-02T09:42:07.000Z</time>
      </trkpt>
      <trkpt lat="43.69514" lon="6.84023">
        <ele>691.4</ele>
        <time>2021-05-02T09:42:08.000Z</time>
      </trkpt>
      <trkpt lat="43.69517" lon="6.84022">
        <ele>691.7</ele>
        <time>2021-05-02T09:42:09.000Z</time>
      </trkpt>
      <trkpt lat="43.69521" lon="6.84021">
        <ele>691.7</ele>
        <time>2021-05-02T09:42:10.000Z</time>
      </trkpt>
      <trkpt lat="43.69524" lon="6.8402">
        <ele>692</ele>
        <time>2021-05-02T09:42:11.000Z</time>
      </trkpt>
      <trkpt lat="43.69527" lon="6.8402">
        <ele>692.4</ele>
        <time>2021-05-02T09:42:12.000Z</time>
      </trkpt>
      <trkpt lat="43.6953" lon="6.84021">
        <ele>693.1</ele>
        <time>2021-05-02T09:42:13.000Z</time>
      </trkpt>
      <trkpt lat="43.69533" lon="6.84021">
        <ele>693.4</ele>
        <time>2021-05-02T09:42:14.000Z</time>
      </trkpt>
      <trkpt lat="43.69536" lon="6.84022">
        <ele>694</ele>
        <time>2021-05-02T09:42:15.000Z</time>
      </trkpt>
      <trkpt lat="43.69539" lon="6.84022">
        <ele>694.4</ele>
        <time>2021-05-02T09:42:16.000Z</time>
      </trkpt>
      <trkpt lat="43.69541" lon="6.84023">
        <ele>695.5</ele>
        <time>2021-05-02T09:42:17.000Z</time>
      </trkpt>
      <trkpt lat="43.69544" lon="6.84024">
        <ele>696.1</ele>
        <time>2021-05-02T09:42:18.000Z</time>
      </trkpt>
      <trkpt lat="43.69547" lon="6.84025">
        <ele>696.1</ele>
        <time>2021-05-02T09:42:19.000Z</time>
      </trkpt>
      <trkpt lat="43.6955" lon="6.84026">
        <ele>695.9</ele>
        <time>2021-05-02T09:42:20.000Z</time>
      </trkpt>
      <trkpt lat="43.69553" lon="6.84027">
        <ele>696.1</ele>
        <time>2021-05-02T09:42:21.000Z</time>
      </trkpt>
      <trkpt lat="43.69556" lon="6.84028">
        <ele>696.3</ele>
        <time>2021-05-02T09:42:22.000Z</time>
      </trkpt>
      <trkpt lat="43.6956" lon="6.84029">
        <ele>696.9</ele>
        <time>2021-05-02T09:42:23.000Z</time>
      </trkpt>
      <trkpt lat="43.69564" lon="6.84029">
        <ele>696.9</ele>
        <time>2021-05-02T09:42:24.000Z</time>
      </trkpt>
      <trkpt lat="43.69567" lon="6.8403">
        <ele>697.2</ele>
        <time>2021-05-02T09:42:25.000Z</time>
      </trkpt>
      <trkpt lat="43.69569" lon="6.84031">
        <ele>696.7</ele>
        <time>2021-05-02T09:42:26.000Z</time>
      </trkpt>
      <trkpt lat="43.69573" lon="6.84031">
        <ele>696.2</ele>
        <time>2021-05-02T09:42:27.000Z</time>
      </trkpt>
      <trkpt lat="43.69577" lon="6.84031">
        <ele>695.8</ele>
        <time>2021-05-02T09:42:28.000Z</time>
      </trkpt>
      <trkpt lat="43.69581" lon="6.84032">
        <ele>695.4</ele>
        <time>2021-05-02T09:42:29.000Z</time>
      </trkpt>
      <trkpt lat="43.69585" lon="6.84032">
        <ele>695.2</ele>
        <time>2021-05-02T09:42:30.000Z</time>
      </trkpt>
      <trkpt lat="43.69588" lon="6.84033">
        <ele>694.9</ele>
        <time>2021-05-02T09:42:31.000Z</time>
      </trkpt>
      <trkpt lat="43.69593" lon="6.84034">
        <ele>694.1</ele>
        <time>2021-05-02T09:42:32.000Z</time>
      </trkpt>
      <trkpt lat="43.69596" lon="6.84034">
        <ele>694</ele>
        <time>2021-05-02T09:42:33.000Z</time>
      </trkpt>
      <trkpt lat="43.696" lon="6.84034">
        <ele>694.1</ele>
        <time>2021-05-02T09:42:34.000Z</time>
      </trkpt>
      <trkpt lat="43.69604" lon="6.84034">
        <ele>693.9</ele>
        <time>2021-05-02T09:42:35.000Z</time>
      </trkpt>
      <trkpt lat="43.69607" lon="6.84035">
        <ele>693.9</ele>
        <time>2021-05-02T09:42:36.000Z</time>
      </trkpt>
      <trkpt lat="43.69611" lon="6.84035">
        <ele>694.1</ele>
        <time>2021-05-02T09:42:37.000Z</time>
      </trkpt>
      <trkpt lat="43.69614" lon="6.84035">
        <ele>693.7</ele>
        <time>2021-05-02T09:42:38.000Z</time>
      </trkpt>
      <trkpt lat="43.69618" lon="6.84035">
        <ele>694</ele>
        <time>2021-05-02T09:42:39.000Z</time>
      </trkpt>
      <trkpt lat="43.69621" lon="6.84035">
        <ele>693.8</ele>
        <time>2021-05-02T09:42:40.000Z</time>
      </trkpt>
      <trkpt lat="43.69624" lon="6.84036">
        <ele>694.4</ele>
        <time>2021-05-02T09:42:41.000Z</time>
      </trkpt>
      <trkpt lat="43.69627" lon="6.84037">
        <ele>695</ele>
        <time>2021-05-02T09:42:42.000Z</time>
      </trkpt>
      <trkpt lat="43.6963" lon="6.84039">
        <ele>695.2</ele>
        <time>2021-05-02T09:42:43.000Z</time>
      </trkpt>
      <trkpt lat="43.69633" lon="6.84041">
        <ele>695.4</ele>
        <time>2021-05-02T09:42:44.000Z</time>
      </trkpt>
      <trkpt lat="43.69636" lon="6.84044">
        <ele>695.7</ele>
        <time>2021-05-02T09:42:45.000Z</time>
      </trkpt>
      <trkpt lat="43.69639" lon="6.84046">
        <ele>695.5</ele>
        <time>2021-05-02T09:42:46.000Z</time>
      </trkpt>
      <trkpt lat="43.69641" lon="6.84049">
        <ele>695.8</ele>
        <time>2021-05-02T09:42:47.000Z</time>
      </trkpt>
      <trkpt lat="43.69644" lon="6.84051">
        <ele>695.6</ele>
        <time>2021-05-02T09:42:48.000Z</time>
      </trkpt>
      <trkpt lat="43.69646" lon="6.84053">
        <ele>695.2</ele>
        <time>2021-05-02T09:42:49.000Z</time>
      </trkpt>
      <trkpt lat="43.69649" lon="6.84056">
        <ele>694.9</ele>
        <time>2021-05-02T09:42:50.000Z</time>
      </trkpt>
      <trkpt lat="43.69652" lon="6.84058">
        <ele>694.7</ele>
        <time>2021-05-02T09:42:51.000Z</time>
      </trkpt>
      <trkpt lat="43.69654" lon="6.84061">
        <ele>694.8</ele>
        <time>2021-05-02T09:42:52.000Z</time>
      </trkpt>
      <trkpt lat="43.69657" lon="6.84064">
        <ele>695.1</ele>
        <time>2021-05-02T09:42:53.000Z</time>
      </trkpt>
      <trkpt lat="43.6966" lon="6.84066">
        <ele>695</ele>
        <time>2021-05-02T09:42:54.000Z</time>
      </trkpt>
      <trkpt lat="43.69663" lon="6.84069">
        <ele>694.8</ele>
        <time>2021-05-02T09:42:55.000Z</time>
      </trkpt>
      <trkpt lat="43.69665" lon="6.84072">
        <ele>694.3</ele>
        <time>2021-05-02T09:42:56.000Z</time>
      </trkpt>
      <trkpt lat="43.69667" lon="6.84076">
        <ele>693.8</ele>
        <time>2021-05-02T09:42:57.000Z</time>
      </trkpt>
      <trkpt lat="43.6967" lon="6.84079">
        <ele>693.6</ele>
        <time>2021-05-02T09:42:58.000Z</time>
      </trkpt>
      <trkpt lat="43.69672" lon="6.84081">
        <ele>693.9</ele>
        <time>2021-05-02T09:42:59.000Z</time>
      </trkpt>
      <trkpt lat="43.69675" lon="6.84083">
        <ele>694.1</ele>
        <time>2021-05-02T09:43:00.000Z</time>
      </trkpt>
      <trkpt lat="43.69678" lon="6.84085">
        <ele>694.3</ele>
        <time>2021-05-02T09:43:01.000Z</time>
      </trkpt>
      <trkpt lat="43.69681" lon="6.84087">
        <ele>694.3</ele>
        <time>2021-05-02T09:43:02.000Z</time>
      </trkpt>
      <trkpt lat="43.69684" lon="6.84088">
        <ele>694.8</ele>
        <time>2021-05-02T09:43:03.000Z</time>
      </trkpt>
      <trkpt lat="43.69687" lon="6.8409">
        <ele>695.3</ele>
        <time>2021-05-02T09:43:04.000Z</time>
      </trkpt>
      <trkpt lat="43.6969" lon="6.84092">
        <ele>696.1</ele>
        <time>2021-05-02T09:43:05.000Z</time>
      </trkpt>
      <trkpt lat="43.69693" lon="6.84093">
        <ele>696.5</ele>
        <time>2021-05-02T09:43:06.000Z</time>
      </trkpt>
      <trkpt lat="43.69696" lon="6.84094">
        <ele>697</ele>
        <time>2021-05-02T09:43:07.000Z</time>
      </trkpt>
      <trkpt lat="43.69699" lon="6.84095">
        <ele>697.8</ele>
        <time>2021-05-02T09:43:08.000Z</time>
      </trkpt>
      <trkpt lat="43.69701" lon="6.84096">
        <ele>698.3</ele>
        <time>2021-05-02T09:43:09.000Z</time>
      </trkpt>
      <trkpt lat="43.69704" lon="6.84097">
        <ele>698.7</ele>
        <time>2021-05-02T09:43:10.000Z</time>
      </trkpt>
      <trkpt lat="43.69707" lon="6.84097">
        <ele>699.7</ele>
        <time>2021-05-02T09:43:11.000Z</time>
      </trkpt>
      <trkpt lat="43.6971" lon="6.84099">
        <ele>700.2</ele>
        <time>2021-05-02T09:43:12.000Z</time>
      </trkpt>
      <trkpt lat="43.69713" lon="6.841">
        <ele>700.4</ele>
        <time>2021-05-02T09:43:13.000Z</time>
      </trkpt>
      <trkpt lat="43.69716" lon="6.84101">
        <ele>701.5</ele>
        <time>2021-05-02T09:43:14.000Z</time>
      </trkpt>
      <trkpt lat="43.69718" lon="6.84103">
        <ele>702.3</ele>
        <time>2021-05-02T09:43:15.000Z</time>
      </trkpt>
      <trkpt lat="43.69721" lon="6.84105">
        <ele>702.8</ele>
        <time>2021-05-02T09:43:16.000Z</time>
      </trkpt>
      <trkpt lat="43.69724" lon="6.84106">
        <ele>703.3</ele>
        <time>2021-05-02T09:43:17.000Z</time>
      </trkpt>
      <trkpt lat="43.69727" lon="6.84107">
        <ele>703.4</ele>
        <time>2021-05-02T09:43:18.000Z</time>
      </trkpt>
      <trkpt lat="43.6973" lon="6.84109">
        <ele>702.9</ele>
        <time>2021-05-02T09:43:19.000Z</time>
      </trkpt>
      <trkpt lat="43.69733" lon="6.8411">
        <ele>703</ele>
        <time>2021-05-02T09:43:20.000Z</time>
      </trkpt>
      <trkpt lat="43.69736" lon="6.84112">
        <ele>702.7</ele>
        <time>2021-05-02T09:43:21.000Z</time>
      </trkpt>
      <trkpt lat="43.69739" lon="6.84113">
        <ele>702.5</ele>
        <time>2021-05-02T09:43:22.000Z</time>
      </trkpt>
      <trkpt lat="43.69743" lon="6.84115">
        <ele>701.9</ele>
        <time>2021-05-02T09:43:23.000Z</time>
      </trkpt>
      <trkpt lat="43.69746" lon="6.84117">
        <ele>701.2</ele>
        <time>2021-05-02T09:43:24.000Z</time>
      </trkpt>
      <trkpt lat="43.69749" lon="6.84118">
        <ele>700.5</ele>
        <time>2021-05-02T09:43:25.000Z</time>
      </trkpt>
      <trkpt lat="43.69753" lon="6.84119">
        <ele>699.7</ele>
        <time>2021-05-02T09:43:26.000Z</time>
      </trkpt>
      <trkpt lat="43.69756" lon="6.8412">
        <ele>699.3</ele>
        <time>2021-05-02T09:43:27.000Z</time>
      </trkpt>
      <trkpt lat="43.6976" lon="6.84121">
        <ele>699.2</ele>
        <time>2021-05-02T09:43:28.000Z</time>
      </trkpt>
      <trkpt lat="43.69763" lon="6.84122">
        <ele>699.1</ele>
        <time>2021-05-02T09:43:29.000Z</time>
      </trkpt>
      <trkpt lat="43.69766" lon="6.84123">
        <ele>698.7</ele>
        <time>2021-05-02T09:43:30.000Z</time>
      </trkpt>
      <trkpt lat="43.69769" lon="6.84124">
        <ele>698.2</ele>
        <time>2021-05-02T09:43:31.000Z</time>
      </trkpt>
      <trkpt lat="43.69772" lon="6.84125">
        <ele>697.8</ele>
        <time>2021-05-02T09:43:32.000Z</time>
      </trkpt>
      <trkpt lat="43.69774" lon="6.84126">
        <ele>697.2</ele>
        <time>2021-05-02T09:43:33.000Z</time>
      </trkpt>
      <trkpt lat="43.69777" lon="6.84127">
        <ele>696.8</ele>
        <time>2021-05-02T09:43:34.000Z</time>
      </trkpt>
      <trkpt lat="43.69779" lon="6.84128">
        <ele>696.3</ele>
        <time>2021-05-02T09:43:35.000Z</time>
      </trkpt>
      <trkpt lat="43.69782" lon="6.84129">
        <ele>696</ele>
        <time>2021-05-02T09:43:36.000Z</time>
      </trkpt>
      <trkpt lat="43.69785" lon="6.84129">
        <ele>696.3</ele>
        <time>2021-05-02T09:43:37.000Z</time>
      </trkpt>
      <trkpt lat="43.69788" lon="6.84128">
        <ele>695.8</ele>
        <time>2021-05-02T09:43:38.000Z</time>
      </trkpt>
      <trkpt lat="43.69791" lon="6.84125">
        <ele>695</ele>
        <time>2021-05-02T09:43:39.000Z</time>
      </trkpt>
      <trkpt lat="43.69794" lon="6.8412">
        <ele>694.3</ele>
        <time>2021-05-02T09:43:40.000Z</time>
      </trkpt>
      <trkpt lat="43.69797" lon="6.84114">
        <ele>694.1</ele>
        <time>2021-05-02T09:43:41.000Z</time>
      </trkpt>
      <trkpt lat="43.69798" lon="6.84108">
        <ele>694.2</ele>
        <time>2021-05-02T09:43:42.000Z</time>
      </trkpt>
      <trkpt lat="43.698" lon="6.84103">
        <ele>694.8</ele>
        <time>2021-05-02T09:43:43.000Z</time>
      </trkpt>
      <trkpt lat="43.69801" lon="6.84098">
        <ele>695.7</ele>
        <time>2021-05-02T09:43:44.000Z</time>
      </trkpt>
      <trkpt lat="43.69803" lon="6.84093">
        <ele>696.2</ele>
        <time>2021-05-02T09:43:45.000Z</time>
      </trkpt>
      <trkpt lat="43.69806" lon="6.84088">
        <ele>696.4</ele>
        <time>2021-05-02T09:43:46.000Z</time>
      </trkpt>
      <trkpt lat="43.69808" lon="6.84084">
        <ele>696.8</ele>
        <time>2021-05-02T09:43:47.000Z</time>
      </trkpt>
      <trkpt lat="43.69811" lon="6.84079">
        <ele>697.2</ele>
        <time>2021-05-02T09:43:48.000Z</time>
      </trkpt>
      <trkpt lat="43.69812" lon="6.84076">
        <ele>698.2</ele>
        <time>2021-05-02T09:43:49.000Z</time>
      </trkpt>
      <trkpt lat="43.69814" lon="6.84073">
        <ele>698.7</ele>
        <time>2021-05-02T09:43:50.000Z</time>
      </trkpt>
      <trkpt lat="43.69816" lon="6.84071">
        <ele>699</ele>
        <time>2021-05-02T09:43:51.000Z</time>
      </trkpt>
      <trkpt lat="43.69818" lon="6.84071">
        <ele>699.2</ele>
        <time>2021-05-02T09:43:52.000Z</time>
      </trkpt>
      <trkpt lat="43.6982" lon="6.84073">
        <ele>698.7</ele>
        <time>2021-05-02T09:43:53.000Z</time>
      </trkpt>
      <trkpt lat="43.69823" lon="6.84076">
        <ele>697.8</ele>
        <time>2021-05-02T09:43:54.000Z</time>
      </trkpt>
      <trkpt lat="43.69826" lon="6.8408">
        <ele>697.3</ele>
        <time>2021-05-02T09:43:55.000Z</time>
      </trkpt>
      <trkpt lat="43.6983" lon="6.84083">
        <ele>696.9</ele>
        <time>2021-05-02T09:43:56.000Z</time>
      </trkpt>
      <trkpt lat="43.69835" lon="6.84086">
        <ele>696.6</ele>
        <time>2021-05-02T09:43:57.000Z</time>
      </trkpt>
      <trkpt lat="43.69839" lon="6.84088">
        <ele>696.7</ele>
        <time>2021-05-02T09:43:58.000Z</time>
      </trkpt>
      <trkpt lat="43.69843" lon="6.84089">
        <ele>696.3</ele>
        <time>2021-05-02T09:43:59.000Z</time>
      </trkpt>
      <trkpt lat="43.69847" lon="6.8409">
        <ele>696.3</ele>
        <time>2021-05-02T09:44:00.000Z</time>
      </trkpt>
      <trkpt lat="43.69851" lon="6.84092">
        <ele>696.2</ele>
        <time>2021-05-02T09:44:01.000Z</time>
      </trkpt>
      <trkpt lat="43.69855" lon="6.84094">
        <ele>695.8</ele>
        <time>2021-05-02T09:44:02.000Z</time>
      </trkpt>
      <trkpt lat="43.69859" lon="6.84096">
        <ele>695.6</ele>
        <time>2021-05-02T09:44:03.000Z</time>
      </trkpt>
      <trkpt lat="43.69862" lon="6.84098">
        <ele>695.1</ele>
        <time>2021-05-02T09:44:04.000Z</time>
      </trkpt>
      <trkpt lat="43.69866" lon="6.841">
        <ele>695</ele>
        <time>2021-05-02T09:44:05.000Z</time>
      </trkpt>
      <trkpt lat="43.6987" lon="6.84102">
        <ele>694.9</ele>
        <time>2021-05-02T09:44:06.000Z</time>
      </trkpt>
      <trkpt lat="43.69874" lon="6.84103">
        <ele>694.8</ele>
        <time>2021-05-02T09:44:07.000Z</time>
      </trkpt>
      <trkpt lat="43.69877" lon="6.84105">
        <ele>694.6</ele>
        <time>2021-05-02T09:44:08.000Z</time>
      </trkpt>
      <trkpt lat="43.6988" lon="6.84107">
        <ele>694.2</ele>
        <time>2021-05-02T09:44:09.000Z</time>
      </trkpt>
      <trkpt lat="43.69884" lon="6.84108">
        <ele>693.9</ele>
        <time>2021-05-02T09:44:10.000Z</time>
      </trkpt>
      <trkpt lat="43.69888" lon="6.8411">
        <ele>693.7</ele>
        <time>2021-05-02T09:44:11.000Z</time>
      </trkpt>
      <trkpt lat="43.69891" lon="6.84112">
        <ele>693.4</ele>
        <time>2021-05-02T09:44:12.000Z</time>
      </trkpt>
      <trkpt lat="43.69894" lon="6.84113">
        <ele>693.4</ele>
        <time>2021-05-02T09:44:13.000Z</time>
      </trkpt>
      <trkpt lat="43.69897" lon="6.84115">
        <ele>693.7</ele>
        <time>2021-05-02T09:44:14.000Z</time>
      </trkpt>
      <trkpt lat="43.699" lon="6.84117">
        <ele>693.6</ele>
        <time>2021-05-02T09:44:15.000Z</time>
      </trkpt>
      <trkpt lat="43.69903" lon="6.84119">
        <ele>693.5</ele>
        <time>2021-05-02T09:44:16.000Z</time>
      </trkpt>
      <trkpt lat="43.69906" lon="6.8412">
        <ele>693.6</ele>
        <time>2021-05-02T09:44:17.000Z</time>
      </trkpt>
      <trkpt lat="43.69908" lon="6.84122">
        <ele>693.6</ele>
        <time>2021-05-02T09:44:18.000Z</time>
      </trkpt>
      <trkpt lat="43.69911" lon="6.84123">
        <ele>693.6</ele>
        <time>2021-05-02T09:44:19.000Z</time>
      </trkpt>
      <trkpt lat="43.69914" lon="6.84125">
        <ele>693.9</ele>
        <time>2021-05-02T09:44:20.000Z</time>
      </trkpt>
      <trkpt lat="43.69916" lon="6.84126">
        <ele>694.2</ele>
        <time>2021-05-02T09:44:21.000Z</time>
      </trkpt>
      <trkpt lat="43.69918" lon="6.84128">
        <ele>694.2</ele>
        <time>2021-05-02T09:44:22.000Z</time>
      </trkpt>
      <trkpt lat="43.6992" lon="6.84129">
        <ele>694.2</ele>
        <time>2021-05-02T09:44:23.000Z</time>
      </trkpt>
      <trkpt lat="43.69921" lon="6.8413">
        <ele>694.6</ele>
        <time>2021-05-02T09:44:24.000Z</time>
      </trkpt>
      <trkpt lat="43.69922" lon="6.84132">
        <ele>694.6</ele>
        <time>2021-05-02T09:44:25.000Z</time>
      </trkpt>
      <trkpt lat="43.69923" lon="6.84133">
        <ele>694.8</ele>
        <time>2021-05-02T09:44:26.000Z</time>
      </trkpt>
      <trkpt lat="43.69925" lon="6.84133">
        <ele>695.1</ele>
        <time>2021-05-02T09:44:28.000Z</time>
      </trkpt>
      <trkpt lat="43.69934" lon="6.84129">
        <ele>694.4</ele>
        <time>2021-05-02T09:44:41.000Z</time>
      </trkpt>
      <trkpt lat="43.69935" lon="6.84128">
        <ele>694.4</ele>
        <time>2021-05-02T09:44:43.000Z</time>
      </trkpt>
      <trkpt lat="43.69936" lon="6.84128">
        <ele>694.4</ele>
        <time>2021-05-02T09:44:44.000Z</time>
      </trkpt>
      <trkpt lat="43.69945" lon="6.84123">
        <ele>694.4</ele>
        <time>2021-05-02T09:44:54.000Z</time>
      </trkpt>
      <trkpt lat="43.69946" lon="6.84122">
        <ele>694.3</ele>
        <time>2021-05-02T09:44:56.000Z</time>
      </trkpt>
      <trkpt lat="43.69947" lon="6.84122">
        <ele>694.3</ele>
        <time>2021-05-02T09:44:57.000Z</time>
      </trkpt>
      <trkpt lat="43.69955" lon="6.8412">
        <ele>693.8</ele>
        <time>2021-05-02T09:45:03.000Z</time>
      </trkpt>
      <trkpt lat="43.69958" lon="6.84119">
        <ele>693.6</ele>
        <time>2021-05-02T09:45:04.000Z</time>
      </trkpt>
      <trkpt lat="43.69961" lon="6.84119">
        <ele>693.4</ele>
        <time>2021-05-02T09:45:05.000Z</time>
      </trkpt>
      <trkpt lat="43.69964" lon="6.84118">
        <ele>693.7</ele>
        <time>2021-05-02T09:45:06.000Z</time>
      </trkpt>
      <trkpt lat="43.69966" lon="6.84118">
        <ele>693.8</ele>
        <time>2021-05-02T09:45:07.000Z</time>
      </trkpt>
      <trkpt lat="43.69969" lon="6.84118">
        <ele>694.3</ele>
        <time>2021-05-02T09:45:08.000Z</time>
      </trkpt>
      <trkpt lat="43.69971" lon="6.84118">
        <ele>695.3</ele>
        <time>2021-05-02T09:45:09.000Z</time>
      </trkpt>
      <trkpt lat="43.69974" lon="6.84118">
        <ele>696</ele>
        <time>2021-05-02T09:45:10.000Z</time>
      </trkpt>
      <trkpt lat="43.69977" lon="6.84117">
        <ele>696.8</ele>
        <time>2021-05-02T09:45:11.000Z</time>
      </trkpt>
      <trkpt lat="43.69981" lon="6.84116">
        <ele>697.9</ele>
        <time>2021-05-02T09:45:12.000Z</time>
      </trkpt>
      <trkpt lat="43.69984" lon="6.84115">
        <ele>698.5</ele>
        <time>2021-05-02T09:45:13.000Z</time>
      </trkpt>
      <trkpt lat="43.69987" lon="6.84115">
        <ele>699</ele>
        <time>2021-05-02T09:45:14.000Z</time>
      </trkpt>
      <trkpt lat="43.6999" lon="6.84114">
        <ele>699.9</ele>
        <time>2021-05-02T09:45:15.000Z</time>
      </trkpt>
      <trkpt lat="43.69993" lon="6.84114">
        <ele>700.1</ele>
        <time>2021-05-02T09:45:16.000Z</time>
      </trkpt>
      <trkpt lat="43.69996" lon="6.84113">
        <ele>700.7</ele>
        <time>2021-05-02T09:45:17.000Z</time>
      </trkpt>
      <trkpt lat="43.69999" lon="6.84112">
        <ele>701.1</ele>
        <time>2021-05-02T09:45:18.000Z</time>
      </trkpt>
      <trkpt lat="43.70001" lon="6.84111">
        <ele>701</ele>
        <time>2021-05-02T09:45:19.000Z</time>
      </trkpt>
      <trkpt lat="43.70003" lon="6.84109">
        <ele>701.2</ele>
        <time>2021-05-02T09:45:20.000Z</time>
      </trkpt>
      <trkpt lat="43.70006" lon="6.84108">
        <ele>701.3</ele>
        <time>2021-05-02T09:45:21.000Z</time>
      </trkpt>
      <trkpt lat="43.70008" lon="6.84107">
        <ele>700.9</ele>
        <time>2021-05-02T09:45:22.000Z</time>
      </trkpt>
      <trkpt lat="43.7001" lon="6.84106">
        <ele>701</ele>
        <time>2021-05-02T09:45:23.000Z</time>
      </trkpt>
      <trkpt lat="43.70012" lon="6.84105">
        <ele>700.8</ele>
        <time>2021-05-02T09:45:24.000Z</time>
      </trkpt>
      <trkpt lat="43.70014" lon="6.84105">
        <ele>700.3</ele>
        <time>2021-05-02T09:45:25.000Z</time>
      </trkpt>
      <trkpt lat="43.70016" lon="6.84104">
        <ele>700.8</ele>
        <time>2021-05-02T09:45:26.000Z</time>
      </trkpt>
      <trkpt lat="43.70019" lon="6.84103">
        <ele>701.4</ele>
        <time>2021-05-02T09:45:27.000Z</time>
      </trkpt>
      <trkpt lat="43.70021" lon="6.84102">
        <ele>701.7</ele>
        <time>2021-05-02T09:45:28.000Z</time>
      </trkpt>
      <trkpt lat="43.70023" lon="6.84101">
        <ele>702</ele>
        <time>2021-05-02T09:45:29.000Z</time>
      </trkpt>
      <trkpt lat="43.70026" lon="6.841">
        <ele>702.6</ele>
        <time>2021-05-02T09:45:30.000Z</time>
      </trkpt>
      <trkpt lat="43.70029" lon="6.84099">
        <ele>703.5</ele>
        <time>2021-05-02T09:45:31.000Z</time>
      </trkpt>
      <trkpt lat="43.70032" lon="6.84098">
        <ele>704</ele>
        <time>2021-05-02T09:45:32.000Z</time>
      </trkpt>
      <trkpt lat="43.70035" lon="6.84098">
        <ele>705</ele>
        <time>2021-05-02T09:45:33.000Z</time>
      </trkpt>
      <trkpt lat="43.70038" lon="6.84097">
        <ele>705.9</ele>
        <time>2021-05-02T09:45:34.000Z</time>
      </trkpt>
      <trkpt lat="43.70041" lon="6.84096">
        <ele>706.8</ele>
        <time>2021-05-02T09:45:35.000Z</time>
      </trkpt>
      <trkpt lat="43.70044" lon="6.84096">
        <ele>707.5</ele>
        <time>2021-05-02T09:45:36.000Z</time>
      </trkpt>
      <trkpt lat="43.70046" lon="6.84095">
        <ele>708</ele>
        <time>2021-05-02T09:45:37.000Z</time>
      </trkpt>
      <trkpt lat="43.70049" lon="6.84095">
        <ele>708.5</ele>
        <time>2021-05-02T09:45:38.000Z</time>
      </trkpt>
      <trkpt lat="43.70053" lon="6.84094">
        <ele>709.7</ele>
        <time>2021-05-02T09:45:39.000Z</time>
      </trkpt>
      <trkpt lat="43.70056" lon="6.84093">
        <ele>710.2</ele>
        <time>2021-05-02T09:45:40.000Z</time>
      </trkpt>
      <trkpt lat="43.70058" lon="6.84091">
        <ele>710.5</ele>
        <time>2021-05-02T09:45:41.000Z</time>
      </trkpt>
      <trkpt lat="43.70061" lon="6.8409">
        <ele>710.8</ele>
        <time>2021-05-02T09:45:42.000Z</time>
      </trkpt>
      <trkpt lat="43.70064" lon="6.84089">
        <ele>710.6</ele>
        <time>2021-05-02T09:45:43.000Z</time>
      </trkpt>
      <trkpt lat="43.70067" lon="6.84088">
        <ele>710.5</ele>
        <time>2021-05-02T09:45:44.000Z</time>
      </trkpt>
      <trkpt lat="43.70069" lon="6.84087">
        <ele>710.3</ele>
        <time>2021-05-02T09:45:45.000Z</time>
      </trkpt>
      <trkpt lat="43.70072" lon="6.84085">
        <ele>710.3</ele>
        <time>2021-05-02T09:45:46.000Z</time>
      </trkpt>
      <trkpt lat="43.70076" lon="6.84084">
        <ele>710.8</ele>
        <time>2021-05-02T09:45:47.000Z</time>
      </trkpt>
      <trkpt lat="43.70079" lon="6.84083">
        <ele>711.3</ele>
        <time>2021-05-02T09:45:48.000Z</time>
      </trkpt>
      <trkpt lat="43.70082" lon="6.84083">
        <ele>711.4</ele>
        <time>2021-05-02T09:45:49.000Z</time>
      </trkpt>
      <trkpt lat="43.70086" lon="6.84082">
        <ele>711.4</ele>
        <time>2021-05-02T09:45:50.000Z</time>
      </trkpt>
      <trkpt lat="43.70089" lon="6.84082">
        <ele>711.6</ele>
        <time>2021-05-02T09:45:51.000Z</time>
      </trkpt>
      <trkpt lat="43.70091" lon="6.84082">
        <ele>711.8</ele>
        <time>2021-05-02T09:45:52.000Z</time>
      </trkpt>
      <trkpt lat="43.70094" lon="6.84082">
        <ele>711.5</ele>
        <time>2021-05-02T09:45:53.000Z</time>
      </trkpt>
      <trkpt lat="43.70096" lon="6.84082">
        <ele>711.5</ele>
        <time>2021-05-02T09:45:54.000Z</time>
      </trkpt>
      <trkpt lat="43.70099" lon="6.84081">
        <ele>711</ele>
        <time>2021-05-02T09:45:55.000Z</time>
      </trkpt>
      <trkpt lat="43.70102" lon="6.84081">
        <ele>710.8</ele>
        <time>2021-05-02T09:45:56.000Z</time>
      </trkpt>
      <trkpt lat="43.70105" lon="6.8408">
        <ele>711</ele>
        <time>2021-05-02T09:45:57.000Z</time>
      </trkpt>
      <trkpt lat="43.70108" lon="6.84079">
        <ele>710.5</ele>
        <time>2021-05-02T09:45:58.000Z</time>
      </trkpt>
      <trkpt lat="43.7011" lon="6.84078">
        <ele>710.2</ele>
        <time>2021-05-02T09:45:59.000Z</time>
      </trkpt>
      <trkpt lat="43.70113" lon="6.84076">
        <ele>709.1</ele>
        <time>2021-05-02T09:46:00.000Z</time>
      </trkpt>
      <trkpt lat="43.70116" lon="6.84075">
        <ele>708.4</ele>
        <time>2021-05-02T09:46:01.000Z</time>
      </trkpt>
      <trkpt lat="43.70119" lon="6.84073">
        <ele>707.7</ele>
        <time>2021-05-02T09:46:02.000Z</time>
      </trkpt>
      <trkpt lat="43.70122" lon="6.84071">
        <ele>707.5</ele>
        <time>2021-05-02T09:46:03.000Z</time>
      </trkpt>
      <trkpt lat="43.70125" lon="6.8407">
        <ele>708</ele>
        <time>2021-05-02T09:46:04.000Z</time>
      </trkpt>
      <trkpt lat="43.70127" lon="6.84069">
        <ele>708.4</ele>
        <time>2021-05-02T09:46:05.000Z</time>
      </trkpt>
      <trkpt lat="43.70129" lon="6.84068">
        <ele>709.2</ele>
        <time>2021-05-02T09:46:06.000Z</time>
      </trkpt>
      <trkpt lat="43.70131" lon="6.84067">
        <ele>709.7</ele>
        <time>2021-05-02T09:46:07.000Z</time>
      </trkpt>
      <trkpt lat="43.70132" lon="6.84067">
        <ele>710.3</ele>
        <time>2021-05-02T09:46:08.000Z</time>
      </trkpt>
      <trkpt lat="43.70134" lon="6.84066">
        <ele>710.1</ele>
        <time>2021-05-02T09:46:09.000Z</time>
      </trkpt>
      <trkpt lat="43.70136" lon="6.84065">
        <ele>710.1</ele>
        <time>2021-05-02T09:46:10.000Z</time>
      </trkpt>
      <trkpt lat="43.70138" lon="6.84064">
        <ele>710.6</ele>
        <time>2021-05-02T09:46:11.000Z</time>
      </trkpt>
      <trkpt lat="43.7014" lon="6.84062">
        <ele>710.8</ele>
        <time>2021-05-02T09:46:12.000Z</time>
      </trkpt>
      <trkpt lat="43.70143" lon="6.84061">
        <ele>711.2</ele>
        <time>2021-05-02T09:46:13.000Z</time>
      </trkpt>
      <trkpt lat="43.70145" lon="6.8406">
        <ele>711.4</ele>
        <time>2021-05-02T09:46:14.000Z</time>
      </trkpt>
      <trkpt lat="43.70148" lon="6.84059">
        <ele>711.6</ele>
        <time>2021-05-02T09:46:15.000Z</time>
      </trkpt>
      <trkpt lat="43.70151" lon="6.84059">
        <ele>712.4</ele>
        <time>2021-05-02T09:46:16.000Z</time>
      </trkpt>
      <trkpt lat="43.70152" lon="6.84056">
        <ele>712.5</ele>
        <time>2021-05-02T09:46:17.000Z</time>
      </trkpt>
      <trkpt lat="43.70153" lon="6.84052">
        <ele>711.7</ele>
        <time>2021-05-02T09:46:18.000Z</time>
      </trkpt>
      <trkpt lat="43.70154" lon="6.84046">
        <ele>710.4</ele>
        <time>2021-05-02T09:46:19.000Z</time>
      </trkpt>
      <trkpt lat="43.70153" lon="6.84042">
        <ele>710.5</ele>
        <time>2021-05-02T09:46:20.000Z</time>
      </trkpt>
      <trkpt lat="43.70152" lon="6.84037">
        <ele>709.7</ele>
        <time>2021-05-02T09:46:21.000Z</time>
      </trkpt>
      <trkpt lat="43.70151" lon="6.84033">
        <ele>709.2</ele>
        <time>2021-05-02T09:46:22.000Z</time>
      </trkpt>
      <trkpt lat="43.7015" lon="6.84029">
        <ele>709</ele>
        <time>2021-05-02T09:46:23.000Z</time>
      </trkpt>
      <trkpt lat="43.7015" lon="6.84025">
        <ele>709.3</ele>
        <time>2021-05-02T09:46:24.000Z</time>
      </trkpt>
      <trkpt lat="43.70149" lon="6.8402">
        <ele>709.8</ele>
        <time>2021-05-02T09:46:25.000Z</time>
      </trkpt>
      <trkpt lat="43.70148" lon="6.84016">
        <ele>710</ele>
        <time>2021-05-02T09:46:26.000Z</time>
      </trkpt>
      <trkpt lat="43.70147" lon="6.84013">
        <ele>710.7</ele>
        <time>2021-05-02T09:46:27.000Z</time>
      </trkpt>
      <trkpt lat="43.70146" lon="6.8401">
        <ele>710.2</ele>
        <time>2021-05-02T09:46:28.000Z</time>
      </trkpt>
      <trkpt lat="43.70146" lon="6.84006">
        <ele>710.2</ele>
        <time>2021-05-02T09:46:29.000Z</time>
      </trkpt>
      <trkpt lat="43.70146" lon="6.84003">
        <ele>710.4</ele>
        <time>2021-05-02T09:46:30.000Z</time>
      </trkpt>
      <trkpt lat="43.70146" lon="6.84">
        <ele>709</ele>
        <time>2021-05-02T09:46:31.000Z</time>
      </trkpt>
      <trkpt lat="43.70146" lon="6.83997">
        <ele>708.8</ele>
        <time>2021-05-02T09:46:32.000Z</time>
      </trkpt>
      <trkpt lat="43.70146" lon="6.83993">
        <ele>708.7</ele>
        <time>2021-05-02T09:46:33.000Z</time>
      </trkpt>
      <trkpt lat="43.70146" lon="6.83989">
        <ele>708.9</ele>
        <time>2021-05-02T09:46:34.000Z</time>
      </trkpt>
      <trkpt lat="43.70145" lon="6.83986">
        <ele>709.4</ele>
        <time>2021-05-02T09:46:35.000Z</time>
      </trkpt>
      <trkpt lat="43.70145" lon="6.83982">
        <ele>709.9</ele>
        <time>2021-05-02T09:46:36.000Z</time>
      </trkpt>
      <trkpt lat="43.70145" lon="6.83979">
        <ele>709.9</ele>
        <time>2021-05-02T09:46:37.000Z</time>
      </trkpt>
      <trkpt lat="43.70145" lon="6.83975">
        <ele>709.6</ele>
        <time>2021-05-02T09:46:38.000Z</time>
      </trkpt>
      <trkpt lat="43.70145" lon="6.83971">
        <ele>708.8</ele>
        <time>2021-05-02T09:46:39.000Z</time>
      </trkpt>
      <trkpt lat="43.70145" lon="6.83968">
        <ele>708.8</ele>
        <time>2021-05-02T09:46:40.000Z</time>
      </trkpt>
      <trkpt lat="43.70145" lon="6.83964">
        <ele>708.5</ele>
        <time>2021-05-02T09:46:41.000Z</time>
      </trkpt>
      <trkpt lat="43.70144" lon="6.8396">
        <ele>708.6</ele>
        <time>2021-05-02T09:46:42.000Z</time>
      </trkpt>
      <trkpt lat="43.70144" lon="6.83957">
        <ele>708</ele>
        <time>2021-05-02T09:46:43.000Z</time>
      </trkpt>
      <trkpt lat="43.70143" lon="6.83953">
        <ele>707.3</ele>
        <time>2021-05-02T09:46:44.000Z</time>
      </trkpt>
      <trkpt lat="43.70142" lon="6.8395">
        <ele>706.9</ele>
        <time>2021-05-02T09:46:45.000Z</time>
      </trkpt>
      <trkpt lat="43.70142" lon="6.83946">
        <ele>706.7</ele>
        <time>2021-05-02T09:46:46.000Z</time>
      </trkpt>
      <trkpt lat="43.70142" lon="6.83942">
        <ele>707.3</ele>
        <time>2021-05-02T09:46:47.000Z</time>
      </trkpt>
      <trkpt lat="43.70141" lon="6.83939">
        <ele>706.8</ele>
        <time>2021-05-02T09:46:48.000Z</time>
      </trkpt>
      <trkpt lat="43.70141" lon="6.83935">
        <ele>707.6</ele>
        <time>2021-05-02T09:46:49.000Z</time>
      </trkpt>
      <trkpt lat="43.7014" lon="6.83931">
        <ele>707.7</ele>
        <time>2021-05-02T09:46:50.000Z</time>
      </trkpt>
      <trkpt lat="43.7014" lon="6.83927">
        <ele>707.8</ele>
        <time>2021-05-02T09:46:51.000Z</time>
      </trkpt>
      <trkpt lat="43.7014" lon="6.83923">
        <ele>708.1</ele>
        <time>2021-05-02T09:46:52.000Z</time>
      </trkpt>
      <trkpt lat="43.7014" lon="6.83918">
        <ele>708.1</ele>
        <time>2021-05-02T09:46:53.000Z</time>
      </trkpt>
      <trkpt lat="43.7014" lon="6.83914">
        <ele>708.4</ele>
        <time>2021-05-02T09:46:54.000Z</time>
      </trkpt>
      <trkpt lat="43.7014" lon="6.8391">
        <ele>708.4</ele>
        <time>2021-05-02T09:46:55.000Z</time>
      </trkpt>
      <trkpt lat="43.7014" lon="6.83906">
        <ele>708.1</ele>
        <time>2021-05-02T09:46:56.000Z</time>
      </trkpt>
      <trkpt lat="43.70139" lon="6.83902">
        <ele>708.5</ele>
        <time>2021-05-02T09:46:57.000Z</time>
      </trkpt>
      <trkpt lat="43.70139" lon="6.83898">
        <ele>708.2</ele>
        <time>2021-05-02T09:46:58.000Z</time>
      </trkpt>
      <trkpt lat="43.70139" lon="6.83894">
        <ele>708.9</ele>
        <time>2021-05-02T09:46:59.000Z</time>
      </trkpt>
      <trkpt lat="43.70139" lon="6.8389">
        <ele>708.9</ele>
        <time>2021-05-02T09:47:00.000Z</time>
      </trkpt>
      <trkpt lat="43.70139" lon="6.83885">
        <ele>709.2</ele>
        <time>2021-05-02T09:47:01.000Z</time>
      </trkpt>
      <trkpt lat="43.7014" lon="6.83881">
        <ele>709.6</ele>
        <time>2021-05-02T09:47:02.000Z</time>
      </trkpt>
      <trkpt lat="43.70141" lon="6.83878">
        <ele>709.4</ele>
        <time>2021-05-02T09:47:03.000Z</time>
      </trkpt>
      <trkpt lat="43.70142" lon="6.83874">
        <ele>709.5</ele>
        <time>2021-05-02T09:47:04.000Z</time>
      </trkpt>
      <trkpt lat="43.70144" lon="6.8387">
        <ele>709.4</ele>
        <time>2021-05-02T09:47:05.000Z</time>
      </trkpt>
      <trkpt lat="43.70145" lon="6.83865">
        <ele>708.9</ele>
        <time>2021-05-02T09:47:06.000Z</time>
      </trkpt>
      <trkpt lat="43.70146" lon="6.83861">
        <ele>708.6</ele>
        <time>2021-05-02T09:47:07.000Z</time>
      </trkpt>
      <trkpt lat="43.70148" lon="6.83856">
        <ele>709</ele>
        <time>2021-05-02T09:47:08.000Z</time>
      </trkpt>
      <trkpt lat="43.7015" lon="6.83852">
        <ele>709.2</ele>
        <time>2021-05-02T09:47:09.000Z</time>
      </trkpt>
      <trkpt lat="43.70152" lon="6.83848">
        <ele>709</ele>
        <time>2021-05-02T09:47:10.000Z</time>
      </trkpt>
      <trkpt lat="43.70152" lon="6.83843">
        <ele>709.5</ele>
        <time>2021-05-02T09:47:11.000Z</time>
      </trkpt>
      <trkpt lat="43.70153" lon="6.83839">
        <ele>709.3</ele>
        <time>2021-05-02T09:47:12.000Z</time>
      </trkpt>
      <trkpt lat="43.70155" lon="6.83834">
        <ele>709.8</ele>
        <time>2021-05-02T09:47:13.000Z</time>
      </trkpt>
      <trkpt lat="43.70157" lon="6.8383">
        <ele>709.8</ele>
        <time>2021-05-02T09:47:14.000Z</time>
      </trkpt>
      <trkpt lat="43.70158" lon="6.83825">
        <ele>710.3</ele>
        <time>2021-05-02T09:47:15.000Z</time>
      </trkpt>
      <trkpt lat="43.70159" lon="6.83821">
        <ele>709.9</ele>
        <time>2021-05-02T09:47:16.000Z</time>
      </trkpt>
      <trkpt lat="43.70161" lon="6.83816">
        <ele>710.1</ele>
        <time>2021-05-02T09:47:17.000Z</time>
      </trkpt>
      <trkpt lat="43.70162" lon="6.83811">
        <ele>709.6</ele>
        <time>2021-05-02T09:47:18.000Z</time>
      </trkpt>
      <trkpt lat="43.70163" lon="6.83806">
        <ele>710.1</ele>
        <time>2021-05-02T09:47:19.000Z</time>
      </trkpt>
      <trkpt lat="43.70164" lon="6.83802">
        <ele>710.3</ele>
        <time>2021-05-02T09:47:20.000Z</time>
      </trkpt>
      <trkpt lat="43.70166" lon="6.83798">
        <ele>710.1</ele>
        <time>2021-05-02T09:47:21.000Z</time>
      </trkpt>
      <trkpt lat="43.70167" lon="6.83794">
        <ele>710.1</ele>
        <time>2021-05-02T09:47:22.000Z</time>
      </trkpt>
      <trkpt lat="43.70168" lon="6.8379">
        <ele>710.2</ele>
        <time>2021-05-02T09:47:23.000Z</time>
      </trkpt>
      <trkpt lat="43.7017" lon="6.83787">
        <ele>710.1</ele>
        <time>2021-05-02T09:47:24.000Z</time>
      </trkpt>
      <trkpt lat="43.70171" lon="6.83783">
        <ele>709.6</ele>
        <time>2021-05-02T09:47:25.000Z</time>
      </trkpt>
      <trkpt lat="43.70172" lon="6.83779">
        <ele>709.3</ele>
        <time>2021-05-02T09:47:26.000Z</time>
      </trkpt>
      <trkpt lat="43.70173" lon="6.83776">
        <ele>709</ele>
        <time>2021-05-02T09:47:27.000Z</time>
      </trkpt>
      <trkpt lat="43.70175" lon="6.83772">
        <ele>709.3</ele>
        <time>2021-05-02T09:47:28.000Z</time>
      </trkpt>
      <trkpt lat="43.70176" lon="6.83769">
        <ele>709.3</ele>
        <time>2021-05-02T09:47:29.000Z</time>
      </trkpt>
      <trkpt lat="43.70177" lon="6.83765">
        <ele>709.7</ele>
        <time>2021-05-02T09:47:30.000Z</time>
      </trkpt>
      <trkpt lat="43.70178" lon="6.83761">
        <ele>710.3</ele>
        <time>2021-05-02T09:47:31.000Z</time>
      </trkpt>
      <trkpt lat="43.70179" lon="6.83756">
        <ele>710.5</ele>
        <time>2021-05-02T09:47:32.000Z</time>
      </trkpt>
      <trkpt lat="43.7018" lon="6.83752">
        <ele>710.8</ele>
        <time>2021-05-02T09:47:33.000Z</time>
      </trkpt>
      <trkpt lat="43.70181" lon="6.83747">
        <ele>711.4</ele>
        <time>2021-05-02T09:47:34.000Z</time>
      </trkpt>
      <trkpt lat="43.70183" lon="6.83743">
        <ele>711.8</ele>
        <time>2021-05-02T09:47:35.000Z</time>
      </trkpt>
      <trkpt lat="43.70184" lon="6.83738">
        <ele>711.4</ele>
        <time>2021-05-02T09:47:36.000Z</time>
      </trkpt>
      <trkpt lat="43.70185" lon="6.83734">
        <ele>711.9</ele>
        <time>2021-05-02T09:47:37.000Z</time>
      </trkpt>
      <trkpt lat="43.70187" lon="6.83731">
        <ele>712.9</ele>
        <time>2021-05-02T09:47:38.000Z</time>
      </trkpt>
      <trkpt lat="43.70188" lon="6.83727">
        <ele>714</ele>
        <time>2021-05-02T09:47:39.000Z</time>
      </trkpt>
      <trkpt lat="43.70189" lon="6.83722">
        <ele>714.1</ele>
        <time>2021-05-02T09:47:40.000Z</time>
      </trkpt>
      <trkpt lat="43.7019" lon="6.83718">
        <ele>714.7</ele>
        <time>2021-05-02T09:47:41.000Z</time>
      </trkpt>
      <trkpt lat="43.70191" lon="6.83713">
        <ele>714.9</ele>
        <time>2021-05-02T09:47:42.000Z</time>
      </trkpt>
      <trkpt lat="43.70192" lon="6.83709">
        <ele>714.9</ele>
        <time>2021-05-02T09:47:43.000Z</time>
      </trkpt>
      <trkpt lat="43.70192" lon="6.83703">
        <ele>714.5</ele>
        <time>2021-05-02T09:47:44.000Z</time>
      </trkpt>
      <trkpt lat="43.70194" lon="6.83698">
        <ele>714.8</ele>
        <time>2021-05-02T09:47:45.000Z</time>
      </trkpt>
      <trkpt lat="43.70195" lon="6.83693">
        <ele>714.3</ele>
        <time>2021-05-02T09:47:46.000Z</time>
      </trkpt>
      <trkpt lat="43.70196" lon="6.83688">
        <ele>713.9</ele>
        <time>2021-05-02T09:47:47.000Z</time>
      </trkpt>
      <trkpt lat="43.70197" lon="6.83683">
        <ele>713.4</ele>
        <time>2021-05-02T09:47:48.000Z</time>
      </trkpt>
      <trkpt lat="43.70198" lon="6.83678">
        <ele>712.7</ele>
        <time>2021-05-02T09:47:49.000Z</time>
      </trkpt>
      <trkpt lat="43.70199" lon="6.83673">
        <ele>712.3</ele>
        <time>2021-05-02T09:47:50.000Z</time>
      </trkpt>
      <trkpt lat="43.702" lon="6.83669">
        <ele>711.2</ele>
        <time>2021-05-02T09:47:51.000Z</time>
      </trkpt>
      <trkpt lat="43.70201" lon="6.83665">
        <ele>711.2</ele>
        <time>2021-05-02T09:47:52.000Z</time>
      </trkpt>
      <trkpt lat="43.70201" lon="6.8366">
        <ele>711.1</ele>
        <time>2021-05-02T09:47:53.000Z</time>
      </trkpt>
      <trkpt lat="43.70202" lon="6.83656">
        <ele>711.1</ele>
        <time>2021-05-02T09:47:54.000Z</time>
      </trkpt>
      <trkpt lat="43.70203" lon="6.83652">
        <ele>711.3</ele>
        <time>2021-05-02T09:47:55.000Z</time>
      </trkpt>
      <trkpt lat="43.70205" lon="6.83648">
        <ele>711.4</ele>
        <time>2021-05-02T09:47:56.000Z</time>
      </trkpt>
      <trkpt lat="43.70206" lon="6.83644">
        <ele>711.3</ele>
        <time>2021-05-02T09:47:57.000Z</time>
      </trkpt>
      <trkpt lat="43.70207" lon="6.83639">
        <ele>711.4</ele>
        <time>2021-05-02T09:47:58.000Z</time>
      </trkpt>
      <trkpt lat="43.70208" lon="6.83635">
        <ele>710.8</ele>
        <time>2021-05-02T09:47:59.000Z</time>
      </trkpt>
      <trkpt lat="43.70209" lon="6.8363">
        <ele>710.3</ele>
        <time>2021-05-02T09:48:00.000Z</time>
      </trkpt>
      <trkpt lat="43.7021" lon="6.83625">
        <ele>709.5</ele>
        <time>2021-05-02T09:48:01.000Z</time>
      </trkpt>
      <trkpt lat="43.70211" lon="6.8362">
        <ele>709.2</ele>
        <time>2021-05-02T09:48:02.000Z</time>
      </trkpt>
      <trkpt lat="43.70212" lon="6.83616">
        <ele>709.2</ele>
        <time>2021-05-02T09:48:03.000Z</time>
      </trkpt>
      <trkpt lat="43.70213" lon="6.83612">
        <ele>709.2</ele>
        <time>2021-05-02T09:48:04.000Z</time>
      </trkpt>
      <trkpt lat="43.70213" lon="6.83608">
        <ele>709.8</ele>
        <time>2021-05-02T09:48:05.000Z</time>
      </trkpt>
      <trkpt lat="43.70214" lon="6.83605">
        <ele>709.9</ele>
        <time>2021-05-02T09:48:06.000Z</time>
      </trkpt>
      <trkpt lat="43.70215" lon="6.83601">
        <ele>710.3</ele>
        <time>2021-05-02T09:48:07.000Z</time>
      </trkpt>
      <trkpt lat="43.70216" lon="6.83598">
        <ele>710</ele>
        <time>2021-05-02T09:48:08.000Z</time>
      </trkpt>
      <trkpt lat="43.70216" lon="6.83595">
        <ele>709.6</ele>
        <time>2021-05-02T09:48:09.000Z</time>
      </trkpt>
      <trkpt lat="43.70217" lon="6.83592">
        <ele>709.4</ele>
        <time>2021-05-02T09:48:10.000Z</time>
      </trkpt>
      <trkpt lat="43.70217" lon="6.83589">
        <ele>709.5</ele>
        <time>2021-05-02T09:48:11.000Z</time>
      </trkpt>
      <trkpt lat="43.70216" lon="6.83587">
        <ele>709.2</ele>
        <time>2021-05-02T09:48:12.000Z</time>
      </trkpt>
      <trkpt lat="43.70216" lon="6.83585">
        <ele>708.9</ele>
        <time>2021-05-02T09:48:13.000Z</time>
      </trkpt>
      <trkpt lat="43.70216" lon="6.83583">
        <ele>709.5</ele>
        <time>2021-05-02T09:48:14.000Z</time>
      </trkpt>
      <trkpt lat="43.70216" lon="6.8358">
        <ele>709</ele>
        <time>2021-05-02T09:48:15.000Z</time>
      </trkpt>
      <trkpt lat="43.70216" lon="6.83577">
        <ele>708.7</ele>
        <time>2021-05-02T09:48:16.000Z</time>
      </trkpt>
      <trkpt lat="43.70216" lon="6.83573">
        <ele>708.1</ele>
        <time>2021-05-02T09:48:17.000Z</time>
      </trkpt>
      <trkpt lat="43.70215" lon="6.8357">
        <ele>707.9</ele>
        <time>2021-05-02T09:48:18.000Z</time>
      </trkpt>
      <trkpt lat="43.70215" lon="6.83568">
        <ele>708.1</ele>
        <time>2021-05-02T09:48:19.000Z</time>
      </trkpt>
      <trkpt lat="43.70216" lon="6.83566">
        <ele>708.6</ele>
        <time>2021-05-02T09:48:59.000Z</time>
      </trkpt>
      <trkpt lat="43.70216" lon="6.83564">
        <ele>708.5</ele>
        <time>2021-05-02T09:49:00.000Z</time>
      </trkpt>
      <trkpt lat="43.70217" lon="6.83561">
        <ele>708.4</ele>
        <time>2021-05-02T09:49:01.000Z</time>
      </trkpt>
      <trkpt lat="43.70217" lon="6.83558">
        <ele>708.4</ele>
        <time>2021-05-02T09:49:02.000Z</time>
      </trkpt>
      <trkpt lat="43.70218" lon="6.83555">
        <ele>708.4</ele>
        <time>2021-05-02T09:49:03.000Z</time>
      </trkpt>
      <trkpt lat="43.70218" lon="6.83552">
        <ele>708.2</ele>
        <time>2021-05-02T09:49:04.000Z</time>
      </trkpt>
      <trkpt lat="43.70218" lon="6.83548">
        <ele>708</ele>
        <time>2021-05-02T09:49:05.000Z</time>
      </trkpt>
      <trkpt lat="43.70218" lon="6.83544">
        <ele>707.8</ele>
        <time>2021-05-02T09:49:06.000Z</time>
      </trkpt>
      <trkpt lat="43.70218" lon="6.83541">
        <ele>707.6</ele>
        <time>2021-05-02T09:49:07.000Z</time>
      </trkpt>
      <trkpt lat="43.70217" lon="6.83537">
        <ele>707.3</ele>
        <time>2021-05-02T09:49:08.000Z</time>
      </trkpt>
      <trkpt lat="43.70216" lon="6.83535">
        <ele>706.8</ele>
        <time>2021-05-02T09:49:09.000Z</time>
      </trkpt>
      <trkpt lat="43.70214" lon="6.83532">
        <ele>705.9</ele>
        <time>2021-05-02T09:49:10.000Z</time>
      </trkpt>
      <trkpt lat="43.70212" lon="6.8353">
        <ele>705.4</ele>
        <time>2021-05-02T09:49:11.000Z</time>
      </trkpt>
      <trkpt lat="43.70209" lon="6.83529">
        <ele>704.7</ele>
        <time>2021-05-02T09:49:12.000Z</time>
      </trkpt>
      <trkpt lat="43.70205" lon="6.83528">
        <ele>704.3</ele>
        <time>2021-05-02T09:49:13.000Z</time>
      </trkpt>
      <trkpt lat="43.70201" lon="6.83527">
        <ele>704.2</ele>
        <time>2021-05-02T09:49:14.000Z</time>
      </trkpt>
      <trkpt lat="43.70195" lon="6.83526">
        <ele>704.5</ele>
        <time>2021-05-02T09:49:15.000Z</time>
      </trkpt>
      <trkpt lat="43.70191" lon="6.83524">
        <ele>704.8</ele>
        <time>2021-05-02T09:49:16.000Z</time>
      </trkpt>
      <trkpt lat="43.70185" lon="6.83522">
        <ele>705.5</ele>
        <time>2021-05-02T09:49:17.000Z</time>
      </trkpt>
      <trkpt lat="43.7018" lon="6.83522">
        <ele>706.1</ele>
        <time>2021-05-02T09:49:18.000Z</time>
      </trkpt>
      <trkpt lat="43.70174" lon="6.83521">
        <ele>705.8</ele>
        <time>2021-05-02T09:49:19.000Z</time>
      </trkpt>
      <trkpt lat="43.70169" lon="6.8352">
        <ele>706.6</ele>
        <time>2021-05-02T09:49:20.000Z</time>
      </trkpt>
      <trkpt lat="43.70164" lon="6.8352">
        <ele>707.7</ele>
        <time>2021-05-02T09:49:21.000Z</time>
      </trkpt>
      <trkpt lat="43.7016" lon="6.8352">
        <ele>707.6</ele>
        <time>2021-05-02T09:49:22.000Z</time>
      </trkpt>
      <trkpt lat="43.70156" lon="6.8352">
        <ele>708.1</ele>
        <time>2021-05-02T09:49:23.000Z</time>
      </trkpt>
      <trkpt lat="43.70152" lon="6.8352">
        <ele>707.8</ele>
        <time>2021-05-02T09:49:24.000Z</time>
      </trkpt>
      <trkpt lat="43.70149" lon="6.83521">
        <ele>708</ele>
        <time>2021-05-02T09:49:25.000Z</time>
      </trkpt>
      <trkpt lat="43.70147" lon="6.83521">
        <ele>708.7</ele>
        <time>2021-05-02T09:49:26.000Z</time>
      </trkpt>
      <trkpt lat="43.70145" lon="6.83522">
        <ele>709.6</ele>
        <time>2021-05-02T09:49:27.000Z</time>
      </trkpt>
      <trkpt lat="43.70144" lon="6.83523">
        <ele>709.1</ele>
        <time>2021-05-02T09:49:28.000Z</time>
      </trkpt>
      <trkpt lat="43.70144" lon="6.83525">
        <ele>708.9</ele>
        <time>2021-05-02T09:49:29.000Z</time>
      </trkpt>
      <trkpt lat="43.70143" lon="6.83526">
        <ele>708.6</ele>
        <time>2021-05-02T09:49:30.000Z</time>
      </trkpt>
      <trkpt lat="43.7015" lon="6.83535">
        <ele>708.5</ele>
        <time>2021-05-02T09:49:45.000Z</time>
      </trkpt>
      <trkpt lat="43.7015" lon="6.83538">
        <ele>708.6</ele>
        <time>2021-05-02T09:49:47.000Z</time>
      </trkpt>
      <trkpt lat="43.7015" lon="6.83539">
        <ele>708.7</ele>
        <time>2021-05-02T09:49:48.000Z</time>
      </trkpt>
      <trkpt lat="43.70147" lon="6.83544">
        <ele>708.4</ele>
        <time>2021-05-02T09:49:51.000Z</time>
      </trkpt>
      <trkpt lat="43.70147" lon="6.83548">
        <ele>708.6</ele>
        <time>2021-05-02T09:49:52.000Z</time>
      </trkpt>
      <trkpt lat="43.70147" lon="6.83549">
        <ele>708.7</ele>
        <time>2021-05-02T09:49:53.000Z</time>
      </trkpt>
      <trkpt lat="43.70148" lon="6.83551">
        <ele>708.8</ele>
        <time>2021-05-02T09:49:54.000Z</time>
      </trkpt>
      <trkpt lat="43.70149" lon="6.83551">
        <ele>708.5</ele>
        <time>2021-05-02T09:49:55.000Z</time>
      </trkpt>
      <trkpt lat="43.7015" lon="6.83552">
        <ele>708.7</ele>
        <time>2021-05-02T09:49:56.000Z</time>
      </trkpt>
      <trkpt lat="43.70151" lon="6.83553">
        <ele>708.3</ele>
        <time>2021-05-02T09:49:57.000Z</time>
      </trkpt>
      <trkpt lat="43.70152" lon="6.83554">
        <ele>708</ele>
        <time>2021-05-02T09:49:58.000Z</time>
      </trkpt>
      <trkpt lat="43.70153" lon="6.83555">
        <ele>707.8</ele>
        <time>2021-05-02T09:49:59.000Z</time>
      </trkpt>
      <trkpt lat="43.70154" lon="6.83556">
        <ele>707.6</ele>
        <time>2021-05-02T09:50:00.000Z</time>
      </trkpt>
      <trkpt lat="43.70155" lon="6.83557">
        <ele>707.5</ele>
        <time>2021-05-02T09:50:01.000Z</time>
      </trkpt>
      <trkpt lat="43.70156" lon="6.83557">
        <ele>707.5</ele>
        <time>2021-05-02T09:50:02.000Z</time>
      </trkpt>
      <trkpt lat="43.70157" lon="6.83558">
        <ele>707.3</ele>
        <time>2021-05-02T09:50:03.000Z</time>
      </trkpt>
      <trkpt lat="43.70159" lon="6.83557">
        <ele>707.1</ele>
        <time>2021-05-02T09:50:05.000Z</time>
      </trkpt>
      <trkpt lat="43.70161" lon="6.83556">
        <ele>706</ele>
        <time>2021-05-02T09:50:07.000Z</time>
      </trkpt>
      <trkpt lat="43.70162" lon="6.83555">
        <ele>705.6</ele>
        <time>2021-05-02T09:50:08.000Z</time>
      </trkpt>
      <trkpt lat="43.70163" lon="6.83554">
        <ele>705.4</ele>
        <time>2021-05-02T09:50:10.000Z</time>
      </trkpt>
      <trkpt lat="43.70154" lon="6.83554">
        <ele>704</ele>
        <time>2021-05-02T09:50:44.000Z</time>
      </trkpt>
    </trkseg>
  </trk>
</gpx>